﻿<?xml version="1.0" encoding="utf-8"?><gpx creator="Garmin Desktop App" version="1.1" xsi:schemaLocation="http://www.topografix.com/GPX/1/1 http://www.topografix.com/GPX/1/1/gpx.xsd http://www.garmin.com/xmlschemas/WaypointExtension/v1 http://www8.garmin.com/xmlschemas/WaypointExtensionv1.xsd http://www.garmin.com/xmlschemas/TrackPointExtension/v1 http://www.garmin.com/xmlschemas/TrackPointExtensionv1.xsd http://www.garmin.com/xmlschemas/GpxExtensions/v3 http://www8.garmin.com/xmlschemas/GpxExtensionsv3.xsd http://www.garmin.com/xmlschemas/ActivityExtension/v1 http://www8.garmin.com/xmlschemas/ActivityExtensionv1.xsd http://www.garmin.com/xmlschemas/AdventuresExtensions/v1 http://www8.garmin.com/xmlschemas/AdventuresExtensionv1.xsd http://www.garmin.com/xmlschemas/PressureExtension/v1 http://www.garmin.com/xmlschemas/PressureExtensionv1.xsd http://www.garmin.com/xmlschemas/TripExtensions/v1 http://www.garmin.com/xmlschemas/TripExtensionsv1.xsd http://www.garmin.com/xmlschemas/TripMetaDataExtensions/v1 http://www.garmin.com/xmlschemas/TripMetaDataExtensionsv1.xsd http://www.garmin.com/xmlschemas/ViaPointTransportationModeExtensions/v1 http://www.garmin.com/xmlschemas/ViaPointTransportationModeExtensionsv1.xsd http://www.garmin.com/xmlschemas/CreationTimeExtension/v1 http://www.garmin.com/xmlschemas/CreationTimeExtensionsv1.xsd http://www.garmin.com/xmlschemas/AccelerationExtension/v1 http://www.garmin.com/xmlschemas/AccelerationExtensionv1.xsd http://www.garmin.com/xmlschemas/PowerExtension/v1 http://www.garmin.com/xmlschemas/PowerExtensionv1.xsd http://www.garmin.com/xmlschemas/VideoExtension/v1 http://www.garmin.com/xmlschemas/VideoExtensionv1.xsd" xmlns="http://www.topografix.com/GPX/1/1" xmlns:xsi="http://www.w3.org/2001/XMLSchema-instance" xmlns:wptx1="http://www.garmin.com/xmlschemas/WaypointExtension/v1" xmlns:gpxtrx="http://www.garmin.com/xmlschemas/GpxExtensions/v3" xmlns:gpxtpx="http://www.garmin.com/xmlschemas/TrackPointExtension/v1" xmlns:gpxx="http://www.garmin.com/xmlschemas/GpxExtensions/v3" xmlns:trp="http://www.garmin.com/xmlschemas/TripExtensions/v1" xmlns:adv="http://www.garmin.com/xmlschemas/AdventuresExtensions/v1" xmlns:prs="http://www.garmin.com/xmlschemas/PressureExtension/v1" xmlns:tmd="http://www.garmin.com/xmlschemas/TripMetaDataExtensions/v1" xmlns:vptm="http://www.garmin.com/xmlschemas/ViaPointTransportationModeExtensions/v1" xmlns:ctx="http://www.garmin.com/xmlschemas/CreationTimeExtension/v1" xmlns:gpxacc="http://www.garmin.com/xmlschemas/AccelerationExtension/v1" xmlns:gpxpx="http://www.garmin.com/xmlschemas/PowerExtension/v1" xmlns:vidx1="http://www.garmin.com/xmlschemas/VideoExtension/v1">

  <metadata>
    <link href="http://www.garmin.com">
      <text>Garmin International</text>
    </link>
    <time>2017-06-27T15:04:21Z</time>
    <bounds maxlat="70.67040097899735" maxlon="24.5538579672575" minlat="68.432843964546919" minlon="17.419911967590451" />
  </metadata>

  <trk>
    <name>Track vom: 27 JUN 2017 07:07</name>
    <extensions>
      <gpxx:TrackExtension>
        <gpxx:DisplayColor>DarkGray</gpxx:DisplayColor>
      </gpxx:TrackExtension>
    </extensions>
    <trkseg>
      <trkpt lat="70.67040097899735" lon="23.68523295968771">
        <ele>-9</ele>
        <time>2017-06-27T05:07:48Z</time>
      </trkpt>
      <trkpt lat="70.670245997607708" lon="23.687563966959715">
        <ele>1.58</ele>
        <time>2017-06-27T05:07:57Z</time>
      </trkpt>
      <trkpt lat="70.669855987653136" lon="23.690979005768895">
        <ele>2.54</ele>
        <time>2017-06-27T05:08:12Z</time>
      </trkpt>
      <trkpt lat="70.669804019853473" lon="23.691274970769882">
        <ele>2.54</ele>
        <time>2017-06-27T05:08:14Z</time>
      </trkpt>
      <trkpt lat="70.66977996379137" lon="23.691373961046338">
        <ele>2.06</ele>
        <time>2017-06-27T05:08:15Z</time>
      </trkpt>
      <trkpt lat="70.669749034568667" lon="23.691459959372878">
        <ele>2.54</ele>
        <time>2017-06-27T05:08:16Z</time>
      </trkpt>
      <trkpt lat="70.669574020430446" lon="23.691776040941477">
        <ele>4.46</ele>
        <time>2017-06-27T05:08:24Z</time>
      </trkpt>
      <trkpt lat="70.669589024037123" lon="23.692060019820929">
        <ele>5.91</ele>
        <time>2017-06-27T05:08:38Z</time>
      </trkpt>
      <trkpt lat="70.669595981016755" lon="23.692069994285703">
        <ele>4.94</ele>
        <time>2017-06-27T05:09:32Z</time>
      </trkpt>
      <trkpt lat="70.669676028192043" lon="23.692150041460991">
        <ele>3.98</ele>
        <time>2017-06-27T05:09:39Z</time>
      </trkpt>
      <trkpt lat="70.669654989615083" lon="23.692316003143787">
        <ele>10.710000000000001</ele>
        <time>2017-06-27T05:09:45Z</time>
      </trkpt>
      <trkpt lat="70.669635040685534" lon="23.692394038662314">
        <ele>12.15</ele>
        <time>2017-06-27T05:09:46Z</time>
      </trkpt>
      <trkpt lat="70.669620037078857" lon="23.692507026717067">
        <ele>12.15</ele>
        <time>2017-06-27T05:09:47Z</time>
      </trkpt>
      <trkpt lat="70.669588018208742" lon="23.692640969529748">
        <ele>13.119999999999999</ele>
        <time>2017-06-27T05:09:48Z</time>
      </trkpt>
      <trkpt lat="70.669545019045472" lon="23.692803997546434">
        <ele>13.119999999999999</ele>
        <time>2017-06-27T05:09:49Z</time>
      </trkpt>
      <trkpt lat="70.668976977467537" lon="23.695021010935307">
        <ele>8.310000000000001</ele>
        <time>2017-06-27T05:09:59Z</time>
      </trkpt>
      <trkpt lat="70.668887039646506" lon="23.695230977609754">
        <ele>8.310000000000001</ele>
        <time>2017-06-27T05:10:00Z</time>
      </trkpt>
      <trkpt lat="70.668794000521302" lon="23.695402974262834">
        <ele>7.83</ele>
        <time>2017-06-27T05:10:01Z</time>
      </trkpt>
      <trkpt lat="70.668691992759705" lon="23.695555021986365">
        <ele>7.35</ele>
        <time>2017-06-27T05:10:02Z</time>
      </trkpt>
      <trkpt lat="70.668585961684585" lon="23.69569499976933">
        <ele>6.87</ele>
        <time>2017-06-27T05:10:03Z</time>
      </trkpt>
      <trkpt lat="70.66812202334404" lon="23.696305034682155">
        <ele>6.87</ele>
        <time>2017-06-27T05:10:08Z</time>
      </trkpt>
      <trkpt lat="70.668029990047216" lon="23.696368988603354">
        <ele>6.87</ele>
        <time>2017-06-27T05:10:09Z</time>
      </trkpt>
      <trkpt lat="70.667938040569425" lon="23.696392960846424">
        <ele>6.87</ele>
        <time>2017-06-27T05:10:10Z</time>
      </trkpt>
      <trkpt lat="70.667853970080614" lon="23.696380974724889">
        <ele>6.39</ele>
        <time>2017-06-27T05:10:11Z</time>
      </trkpt>
      <trkpt lat="70.667764032259583" lon="23.696315009146929">
        <ele>6.39</ele>
        <time>2017-06-27T05:10:12Z</time>
      </trkpt>
      <trkpt lat="70.667676022276282" lon="23.696205960586667">
        <ele>6.39</ele>
        <time>2017-06-27T05:10:13Z</time>
      </trkpt>
      <trkpt lat="70.667593963444233" lon="23.696082998067141">
        <ele>5.91</ele>
        <time>2017-06-27T05:10:14Z</time>
      </trkpt>
      <trkpt lat="70.667507965117693" lon="23.695942014455795">
        <ele>6.39</ele>
        <time>2017-06-27T05:10:15Z</time>
      </trkpt>
      <trkpt lat="70.666455030441284" lon="23.694124985486269">
        <ele>7.83</ele>
        <time>2017-06-27T05:10:29Z</time>
      </trkpt>
      <trkpt lat="70.666380012407899" lon="23.694047033786774">
        <ele>7.83</ele>
        <time>2017-06-27T05:10:30Z</time>
      </trkpt>
      <trkpt lat="70.665532015264034" lon="23.693156037479639">
        <ele>10.23</ele>
        <time>2017-06-27T05:10:41Z</time>
      </trkpt>
      <trkpt lat="70.664912005886436" lon="23.692408036440611">
        <ele>12.630000000000001</ele>
        <time>2017-06-27T05:10:50Z</time>
      </trkpt>
      <trkpt lat="70.66485601477325" lon="23.692354978993535">
        <ele>14.56</ele>
        <time>2017-06-27T05:10:51Z</time>
      </trkpt>
      <trkpt lat="70.6647929828614" lon="23.692196980118752">
        <ele>17.920000000000002</ele>
        <time>2017-06-27T05:10:52Z</time>
      </trkpt>
      <trkpt lat="70.664731040596962" lon="23.691997993737459">
        <ele>19.84</ele>
        <time>2017-06-27T05:10:53Z</time>
      </trkpt>
      <trkpt lat="70.66466499119997" lon="23.691858015954494">
        <ele>20.32</ele>
        <time>2017-06-27T05:10:54Z</time>
      </trkpt>
      <trkpt lat="70.663885977119207" lon="23.689917018637061">
        <ele>37.630000000000003</ele>
        <time>2017-06-27T05:11:07Z</time>
      </trkpt>
      <trkpt lat="70.663628987967968" lon="23.689136998727918">
        <ele>34.740000000000002</ele>
        <time>2017-06-27T05:11:16Z</time>
      </trkpt>
      <trkpt lat="70.663600992411375" lon="23.689039014279842">
        <ele>35.710000000000001</ele>
        <time>2017-06-27T05:11:18Z</time>
      </trkpt>
      <trkpt lat="70.663594035431743" lon="23.68897195905447">
        <ele>35.229999999999997</ele>
        <time>2017-06-27T05:11:19Z</time>
      </trkpt>
      <trkpt lat="70.663601998239756" lon="23.688914040103555">
        <ele>34.259999999999998</ele>
        <time>2017-06-27T05:11:20Z</time>
      </trkpt>
      <trkpt lat="70.663623036816716" lon="23.688853019848466">
        <ele>35.229999999999997</ele>
        <time>2017-06-27T05:11:21Z</time>
      </trkpt>
      <trkpt lat="70.663656983524561" lon="23.688778001815081">
        <ele>35.710000000000001</ele>
        <time>2017-06-27T05:11:22Z</time>
      </trkpt>
      <trkpt lat="70.663690008223057" lon="23.688689991831779">
        <ele>35.710000000000001</ele>
        <time>2017-06-27T05:11:23Z</time>
      </trkpt>
      <trkpt lat="70.663844989612699" lon="23.688127985224128">
        <ele>31.859999999999999</ele>
        <time>2017-06-27T05:11:29Z</time>
      </trkpt>
      <trkpt lat="70.663833003491163" lon="23.688016002997756">
        <ele>30.899999999999999</ele>
        <time>2017-06-27T05:11:30Z</time>
      </trkpt>
      <trkpt lat="70.663806013762951" lon="23.68791600689292">
        <ele>29.940000000000001</ele>
        <time>2017-06-27T05:11:31Z</time>
      </trkpt>
      <trkpt lat="70.663767037913203" lon="23.687835959717631">
        <ele>29.460000000000001</ele>
        <time>2017-06-27T05:11:32Z</time>
      </trkpt>
      <trkpt lat="70.663724960759282" lon="23.687764964997768">
        <ele>28.02</ele>
        <time>2017-06-27T05:11:33Z</time>
      </trkpt>
      <trkpt lat="70.663609961047769" lon="23.687513004988432">
        <ele>25.609999999999999</ele>
        <time>2017-06-27T05:11:36Z</time>
      </trkpt>
      <trkpt lat="70.663584982976317" lon="23.687427006661892">
        <ele>24.649999999999999</ele>
        <time>2017-06-27T05:11:37Z</time>
      </trkpt>
      <trkpt lat="70.663521029055119" lon="23.687118971720338">
        <ele>20.809999999999999</ele>
        <time>2017-06-27T05:11:48Z</time>
      </trkpt>
      <trkpt lat="70.663437964394689" lon="23.68675502948463">
        <ele>16.48</ele>
        <time>2017-06-27T05:12:00Z</time>
      </trkpt>
      <trkpt lat="70.663435030728579" lon="23.686727033928037">
        <ele>16.48</ele>
        <time>2017-06-27T05:12:01Z</time>
      </trkpt>
      <trkpt lat="70.66341700963676" lon="23.686690991744399">
        <ele>16</ele>
        <time>2017-06-27T05:12:02Z</time>
      </trkpt>
      <trkpt lat="70.663394965231419" lon="23.686645980924368">
        <ele>16</ele>
        <time>2017-06-27T05:12:03Z</time>
      </trkpt>
      <trkpt lat="70.663316007703543" lon="23.686440959572792">
        <ele>15.52</ele>
        <time>2017-06-27T05:12:06Z</time>
      </trkpt>
      <trkpt lat="70.663237972185016" lon="23.686086991801858">
        <ele>15.039999999999999</ele>
        <time>2017-06-27T05:12:15Z</time>
      </trkpt>
      <trkpt lat="70.663232021033764" lon="23.686036029830575">
        <ele>15.52</ele>
        <time>2017-06-27T05:12:37Z</time>
      </trkpt>
      <trkpt lat="70.663230009377003" lon="23.686038041487336">
        <ele>15.039999999999999</ele>
        <time>2017-06-27T05:14:32Z</time>
      </trkpt>
      <trkpt lat="70.663216011598706" lon="23.686039969325066">
        <ele>14.56</ele>
        <time>2017-06-27T05:14:44Z</time>
      </trkpt>
      <trkpt lat="70.663198996335268" lon="23.686080034822226">
        <ele>13.6</ele>
        <time>2017-06-27T05:14:45Z</time>
      </trkpt>
      <trkpt lat="70.663184998556972" lon="23.686128985136747">
        <ele>13.119999999999999</ele>
        <time>2017-06-27T05:14:46Z</time>
      </trkpt>
      <trkpt lat="70.663165971636772" lon="23.68617701344192">
        <ele>14.08</ele>
        <time>2017-06-27T05:14:47Z</time>
      </trkpt>
      <trkpt lat="70.663016019389033" lon="23.686450012028217">
        <ele>14.56</ele>
        <time>2017-06-27T05:14:52Z</time>
      </trkpt>
      <trkpt lat="70.662905965000391" lon="23.686484964564443">
        <ele>13.119999999999999</ele>
        <time>2017-06-27T05:14:59Z</time>
      </trkpt>
      <trkpt lat="70.66286196000874" lon="23.68630601093173">
        <ele>12.15</ele>
        <time>2017-06-27T05:15:01Z</time>
      </trkpt>
      <trkpt lat="70.662718964740634" lon="23.685466982424259">
        <ele>11.19</ele>
        <time>2017-06-27T05:15:08Z</time>
      </trkpt>
      <trkpt lat="70.662692980840802" lon="23.685352988541126">
        <ele>10.710000000000001</ele>
        <time>2017-06-27T05:15:09Z</time>
      </trkpt>
      <trkpt lat="70.662674037739635" lon="23.685247963294387">
        <ele>10.710000000000001</ele>
        <time>2017-06-27T05:15:10Z</time>
      </trkpt>
      <trkpt lat="70.662460969761014" lon="23.684076005592942">
        <ele>12.15</ele>
        <time>2017-06-27T05:15:25Z</time>
      </trkpt>
      <trkpt lat="70.662448983639479" lon="23.684078017249703">
        <ele>12.15</ele>
        <time>2017-06-27T05:15:26Z</time>
      </trkpt>
      <trkpt lat="70.662440015003085" lon="23.684111963957548">
        <ele>12.15</ele>
        <time>2017-06-27T05:15:27Z</time>
      </trkpt>
      <trkpt lat="70.66242903470993" lon="23.684162003919482">
        <ele>12.15</ele>
        <time>2017-06-27T05:15:28Z</time>
      </trkpt>
      <trkpt lat="70.662425011396408" lon="23.684229981154203">
        <ele>11.67</ele>
        <time>2017-06-27T05:15:29Z</time>
      </trkpt>
      <trkpt lat="70.662456024438143" lon="23.684429973363876">
        <ele>11.67</ele>
        <time>2017-06-27T05:15:31Z</time>
      </trkpt>
      <trkpt lat="70.662627015262842" lon="23.68536002933979">
        <ele>10.23</ele>
        <time>2017-06-27T05:15:37Z</time>
      </trkpt>
      <trkpt lat="70.662848968058825" lon="23.686804985627532">
        <ele>7.35</ele>
        <time>2017-06-27T05:15:48Z</time>
      </trkpt>
      <trkpt lat="70.662843016907573" lon="23.686900036409497">
        <ele>7.35</ele>
        <time>2017-06-27T05:15:49Z</time>
      </trkpt>
      <trkpt lat="70.662827007472515" lon="23.686997015029192">
        <ele>7.35</ele>
        <time>2017-06-27T05:15:50Z</time>
      </trkpt>
      <trkpt lat="70.662810998037457" lon="23.687077984213829">
        <ele>7.83</ele>
        <time>2017-06-27T05:15:51Z</time>
      </trkpt>
      <trkpt lat="70.662781996652484" lon="23.687124000862241">
        <ele>7.83</ele>
        <time>2017-06-27T05:15:52Z</time>
      </trkpt>
      <trkpt lat="70.662760036066175" lon="23.687154008075595">
        <ele>8.310000000000001</ele>
        <time>2017-06-27T05:15:53Z</time>
      </trkpt>
      <trkpt lat="70.662735980004072" lon="23.68723195977509">
        <ele>12.15</ele>
        <time>2017-06-27T05:16:05Z</time>
      </trkpt>
      <trkpt lat="70.662774033844471" lon="23.687201030552387">
        <ele>11.67</ele>
        <time>2017-06-27T05:16:33Z</time>
      </trkpt>
      <trkpt lat="70.662890039384365" lon="23.687050994485617">
        <ele>11.67</ele>
        <time>2017-06-27T05:16:37Z</time>
      </trkpt>
      <trkpt lat="70.662905965000391" lon="23.687072033062577">
        <ele>10.23</ele>
        <time>2017-06-27T05:16:38Z</time>
      </trkpt>
      <trkpt lat="70.662919040769339" lon="23.687105979770422">
        <ele>9.27</ele>
        <time>2017-06-27T05:16:39Z</time>
      </trkpt>
      <trkpt lat="70.662941001355648" lon="23.687157025560737">
        <ele>8.789999999999999</ele>
        <time>2017-06-27T05:16:40Z</time>
      </trkpt>
      <trkpt lat="70.662970002740622" lon="23.687265990301967">
        <ele>8.310000000000001</ele>
        <time>2017-06-27T05:16:41Z</time>
      </trkpt>
      <trkpt lat="70.662997998297215" lon="23.687396999448538">
        <ele>7.83</ele>
        <time>2017-06-27T05:16:42Z</time>
      </trkpt>
      <trkpt lat="70.663115009665489" lon="23.687841994687915">
        <ele>6.39</ele>
        <time>2017-06-27T05:16:45Z</time>
      </trkpt>
      <trkpt lat="70.663527986034751" lon="23.689274964854121">
        <ele>4.94</ele>
        <time>2017-06-27T05:16:56Z</time>
      </trkpt>
      <trkpt lat="70.663555981591344" lon="23.689398011192679">
        <ele>5.42</ele>
        <time>2017-06-27T05:16:57Z</time>
      </trkpt>
      <trkpt lat="70.66356997936964" lon="23.689543018117547">
        <ele>5.91</ele>
        <time>2017-06-27T05:16:58Z</time>
      </trkpt>
      <trkpt lat="70.663565034046769" lon="23.689696993678808">
        <ele>6.87</ele>
        <time>2017-06-27T05:16:59Z</time>
      </trkpt>
      <trkpt lat="70.663582971319556" lon="23.690393026918173">
        <ele>8.310000000000001</ele>
        <time>2017-06-27T05:17:03Z</time>
      </trkpt>
      <trkpt lat="70.663609961047769" lon="23.690547002479434">
        <ele>9.75</ele>
        <time>2017-06-27T05:17:04Z</time>
      </trkpt>
      <trkpt lat="70.663647009059787" lon="23.690693015232682">
        <ele>10.710000000000001</ele>
        <time>2017-06-27T05:17:05Z</time>
      </trkpt>
      <trkpt lat="70.663682967424393" lon="23.690930977463722">
        <ele>11.19</ele>
        <time>2017-06-27T05:17:07Z</time>
      </trkpt>
      <trkpt lat="70.66367601044476" lon="23.691015969961882">
        <ele>11.19</ele>
        <time>2017-06-27T05:17:08Z</time>
      </trkpt>
      <trkpt lat="70.663667041808367" lon="23.69107699021697">
        <ele>12.630000000000001</ele>
        <time>2017-06-27T05:17:09Z</time>
      </trkpt>
      <trkpt lat="70.663650026544929" lon="23.691108003258705">
        <ele>13.6</ele>
        <time>2017-06-27T05:17:10Z</time>
      </trkpt>
      <trkpt lat="70.663621025159955" lon="23.691072966903448">
        <ele>13.6</ele>
        <time>2017-06-27T05:17:11Z</time>
      </trkpt>
      <trkpt lat="70.66359001211822" lon="23.690972970798612">
        <ele>13.119999999999999</ele>
        <time>2017-06-27T05:17:12Z</time>
      </trkpt>
      <trkpt lat="70.663562016561627" lon="23.690829975530505">
        <ele>13.6</ele>
        <time>2017-06-27T05:17:13Z</time>
      </trkpt>
      <trkpt lat="70.663022976368666" lon="23.689068015664816">
        <ele>16</ele>
        <time>2017-06-27T05:17:23Z</time>
      </trkpt>
      <trkpt lat="70.662861037999392" lon="23.688482958823442">
        <ele>16.48</ele>
        <time>2017-06-27T05:17:26Z</time>
      </trkpt>
      <trkpt lat="70.662262989208102" lon="23.685883982107043">
        <ele>15.039999999999999</ele>
        <time>2017-06-27T05:17:38Z</time>
      </trkpt>
      <trkpt lat="70.66195503808558" lon="23.684168960899115">
        <ele>14.56</ele>
        <time>2017-06-27T05:17:45Z</time>
      </trkpt>
      <trkpt lat="70.661928970366716" lon="23.683909038081765">
        <ele>14.56</ele>
        <time>2017-06-27T05:17:46Z</time>
      </trkpt>
      <trkpt lat="70.661913966760039" lon="23.683624975383282">
        <ele>14.56</ele>
        <time>2017-06-27T05:17:47Z</time>
      </trkpt>
      <trkpt lat="70.661725038662553" lon="23.68067697621882">
        <ele>16</ele>
        <time>2017-06-27T05:17:59Z</time>
      </trkpt>
      <trkpt lat="70.661456985399127" lon="23.678374970331788">
        <ele>20.32</ele>
        <time>2017-06-27T05:18:09Z</time>
      </trkpt>
      <trkpt lat="70.661452040076256" lon="23.67822996340692">
        <ele>21.289999999999999</ele>
        <time>2017-06-27T05:18:10Z</time>
      </trkpt>
      <trkpt lat="70.661465032026172" lon="23.678105995059013">
        <ele>21.77</ele>
        <time>2017-06-27T05:18:11Z</time>
      </trkpt>
      <trkpt lat="70.661503002047539" lon="23.678019996732473">
        <ele>23.210000000000001</ele>
        <time>2017-06-27T05:18:12Z</time>
      </trkpt>
      <trkpt lat="70.661553964018822" lon="23.677943972870708">
        <ele>23.210000000000001</ele>
        <time>2017-06-27T05:18:13Z</time>
      </trkpt>
      <trkpt lat="70.661611966788769" lon="23.677883958443999">
        <ele>23.210000000000001</ele>
        <time>2017-06-27T05:18:14Z</time>
      </trkpt>
      <trkpt lat="70.661791004240513" lon="23.677668962627649">
        <ele>24.649999999999999</ele>
        <time>2017-06-27T05:18:17Z</time>
      </trkpt>
      <trkpt lat="70.661910027265549" lon="23.677452960982919">
        <ele>26.09</ele>
        <time>2017-06-27T05:18:24Z</time>
      </trkpt>
      <trkpt lat="70.66191203892231" lon="23.677363023161888">
        <ele>26.57</ele>
        <time>2017-06-27T05:18:25Z</time>
      </trkpt>
      <trkpt lat="70.661907009780407" lon="23.677231008186936">
        <ele>26.57</ele>
        <time>2017-06-27T05:18:26Z</time>
      </trkpt>
      <trkpt lat="70.661855963990092" lon="23.676868993788958">
        <ele>26.57</ele>
        <time>2017-06-27T05:18:34Z</time>
      </trkpt>
      <trkpt lat="70.661773988977075" lon="23.676564982160926">
        <ele>27.050000000000001</ele>
        <time>2017-06-27T05:19:33Z</time>
      </trkpt>
      <trkpt lat="70.661648008972406" lon="23.675956958904862">
        <ele>27.050000000000001</ele>
        <time>2017-06-27T05:19:36Z</time>
      </trkpt>
      <trkpt lat="70.660921968519688" lon="23.673083977773786">
        <ele>24.649999999999999</ele>
        <time>2017-06-27T05:19:48Z</time>
      </trkpt>
      <trkpt lat="70.659925024956465" lon="23.671057987958193">
        <ele>28.02</ele>
        <time>2017-06-27T05:19:58Z</time>
      </trkpt>
      <trkpt lat="70.659435018897057" lon="23.670420041307807">
        <ele>30.420000000000002</ele>
        <time>2017-06-27T05:20:02Z</time>
      </trkpt>
      <trkpt lat="70.659323036670685" lon="23.670190963894129">
        <ele>30.899999999999999</ele>
        <time>2017-06-27T05:20:03Z</time>
      </trkpt>
      <trkpt lat="70.659220023080707" lon="23.669922994449735">
        <ele>31.859999999999999</ele>
        <time>2017-06-27T05:20:04Z</time>
      </trkpt>
      <trkpt lat="70.658263983204961" lon="23.66651700809598">
        <ele>39.07</ele>
        <time>2017-06-27T05:20:14Z</time>
      </trkpt>
      <trkpt lat="70.657947985455394" lon="23.665448985993862">
        <ele>41.469999999999999</ele>
        <time>2017-06-27T05:20:17Z</time>
      </trkpt>
      <trkpt lat="70.657822005450726" lon="23.665167018771172">
        <ele>42.439999999999998</ele>
        <time>2017-06-27T05:20:18Z</time>
      </trkpt>
      <trkpt lat="70.657684039324522" lon="23.664981024339795">
        <ele>42.920000000000002</ele>
        <time>2017-06-27T05:20:19Z</time>
      </trkpt>
      <trkpt lat="70.657534003257751" lon="23.664880022406578">
        <ele>44.359999999999999</ele>
        <time>2017-06-27T05:20:20Z</time>
      </trkpt>
      <trkpt lat="70.65738002769649" lon="23.66484297439456">
        <ele>45.32</ele>
        <time>2017-06-27T05:20:21Z</time>
      </trkpt>
      <trkpt lat="70.657221022993326" lon="23.664844986051321">
        <ele>45.799999999999997</ele>
        <time>2017-06-27T05:20:22Z</time>
      </trkpt>
      <trkpt lat="70.656063985079527" lon="23.664180971682072">
        <ele>52.530000000000001</ele>
        <time>2017-06-27T05:20:29Z</time>
      </trkpt>
      <trkpt lat="70.655587976798415" lon="23.663666993379593">
        <ele>54.93</ele>
        <time>2017-06-27T05:20:32Z</time>
      </trkpt>
      <trkpt lat="70.655444981530309" lon="23.663386031985283">
        <ele>55.890000000000001</ele>
        <time>2017-06-27T05:20:33Z</time>
      </trkpt>
      <trkpt lat="70.655313972383738" lon="23.663047989830375">
        <ele>57.340000000000003</ele>
        <time>2017-06-27T05:20:34Z</time>
      </trkpt>
      <trkpt lat="70.654682982712984" lon="23.66131603717804">
        <ele>62.619999999999997</ele>
        <time>2017-06-27T05:20:39Z</time>
      </trkpt>
      <trkpt lat="70.6545440107584" lon="23.661062987521291">
        <ele>63.100000000000001</ele>
        <time>2017-06-27T05:20:40Z</time>
      </trkpt>
      <trkpt lat="70.654395986348391" lon="23.660862995311618">
        <ele>64.069999999999993</ele>
        <time>2017-06-27T05:20:41Z</time>
      </trkpt>
      <trkpt lat="70.654241004958749" lon="23.660699967294931">
        <ele>65.030000000000001</ele>
        <time>2017-06-27T05:20:42Z</time>
      </trkpt>
      <trkpt lat="70.654097003862262" lon="23.660554960370064">
        <ele>65.989999999999995</ele>
        <time>2017-06-27T05:20:43Z</time>
      </trkpt>
      <trkpt lat="70.653432989493012" lon="23.659945009276271">
        <ele>69.349999999999994</ele>
        <time>2017-06-27T05:20:48Z</time>
      </trkpt>
      <trkpt lat="70.653304997831583" lon="23.659888012334704">
        <ele>70.310000000000002</ele>
        <time>2017-06-27T05:20:49Z</time>
      </trkpt>
      <trkpt lat="70.653174994513392" lon="23.65987996570766">
        <ele>70.790000000000006</ele>
        <time>2017-06-27T05:20:50Z</time>
      </trkpt>
      <trkpt lat="70.653048008680344" lon="23.659910978749394">
        <ele>71.269999999999996</ele>
        <time>2017-06-27T05:20:51Z</time>
      </trkpt>
      <trkpt lat="70.652928985655308" lon="23.659990020096302">
        <ele>71.760000000000005</ele>
        <time>2017-06-27T05:20:52Z</time>
      </trkpt>
      <trkpt lat="70.652818009257317" lon="23.660112982615829">
        <ele>72.239999999999995</ele>
        <time>2017-06-27T05:20:53Z</time>
      </trkpt>
      <trkpt lat="70.652719018980861" lon="23.660255977883935">
        <ele>72.719999999999999</ele>
        <time>2017-06-27T05:20:54Z</time>
      </trkpt>
      <trkpt lat="70.652633020654321" lon="23.660405008122325">
        <ele>73.200000000000003</ele>
        <time>2017-06-27T05:20:55Z</time>
      </trkpt>
      <trkpt lat="70.652433028444648" lon="23.660772973671556">
        <ele>73.200000000000003</ele>
        <time>2017-06-27T05:20:58Z</time>
      </trkpt>
      <trkpt lat="70.652376031503081" lon="23.660841034725308">
        <ele>73.200000000000003</ele>
        <time>2017-06-27T05:20:59Z</time>
      </trkpt>
      <trkpt lat="70.652184002101421" lon="23.661159966140985">
        <ele>73.200000000000003</ele>
        <time>2017-06-27T05:21:02Z</time>
      </trkpt>
      <trkpt lat="70.652133962139487" lon="23.661346966400743">
        <ele>72.719999999999999</ele>
        <time>2017-06-27T05:21:03Z</time>
      </trkpt>
      <trkpt lat="70.652108984068036" lon="23.661590041592717">
        <ele>72.719999999999999</ele>
        <time>2017-06-27T05:21:04Z</time>
      </trkpt>
      <trkpt lat="70.651998007670045" lon="23.662429992109537">
        <ele>71.269999999999996</ele>
        <time>2017-06-27T05:21:07Z</time>
      </trkpt>
      <trkpt lat="70.651935981586576" lon="23.662706008180976">
        <ele>70.790000000000006</ele>
        <time>2017-06-27T05:21:08Z</time>
      </trkpt>
      <trkpt lat="70.651178006082773" lon="23.665111027657986">
        <ele>62.140000000000001</ele>
        <time>2017-06-27T05:21:16Z</time>
      </trkpt>
      <trkpt lat="70.649916026741266" lon="23.66720600053668">
        <ele>57.340000000000003</ele>
        <time>2017-06-27T05:21:26Z</time>
      </trkpt>
      <trkpt lat="70.649029975757003" lon="23.66795601323247">
        <ele>53.009999999999998</ele>
        <time>2017-06-27T05:21:33Z</time>
      </trkpt>
      <trkpt lat="70.648917993530631" lon="23.668162040412426">
        <ele>52.049999999999997</ele>
        <time>2017-06-27T05:21:34Z</time>
      </trkpt>
      <trkpt lat="70.648811962455511" lon="23.668418023735285">
        <ele>50.609999999999999</ele>
        <time>2017-06-27T05:21:35Z</time>
      </trkpt>
      <trkpt lat="70.648710038512945" lon="23.668716000393033">
        <ele>49.159999999999997</ele>
        <time>2017-06-27T05:21:36Z</time>
      </trkpt>
      <trkpt lat="70.648610964417458" lon="23.6690319981426">
        <ele>47.719999999999999</ele>
        <time>2017-06-27T05:21:37Z</time>
      </trkpt>
      <trkpt lat="70.647284025326371" lon="23.67425199598074">
        <ele>31.379999999999999</ele>
        <time>2017-06-27T05:21:52Z</time>
      </trkpt>
      <trkpt lat="70.646979007869959" lon="23.675530990585685">
        <ele>29.460000000000001</ele>
        <time>2017-06-27T05:21:56Z</time>
      </trkpt>
      <trkpt lat="70.646885968744755" lon="23.675785968080163">
        <ele>29.940000000000001</ele>
        <time>2017-06-27T05:21:57Z</time>
      </trkpt>
      <trkpt lat="70.646786978468299" lon="23.675995012745261">
        <ele>29.460000000000001</ele>
        <time>2017-06-27T05:21:58Z</time>
      </trkpt>
      <trkpt lat="70.646678013727069" lon="23.676158962771297">
        <ele>29.460000000000001</ele>
        <time>2017-06-27T05:21:59Z</time>
      </trkpt>
      <trkpt lat="70.646562008187175" lon="23.676283014938235">
        <ele>29.460000000000001</ele>
        <time>2017-06-27T05:22:00Z</time>
      </trkpt>
      <trkpt lat="70.646441979333758" lon="23.676360966637731">
        <ele>29.460000000000001</ele>
        <time>2017-06-27T05:22:01Z</time>
      </trkpt>
      <trkpt lat="70.646321028470993" lon="23.676421986892819">
        <ele>29.460000000000001</ele>
        <time>2017-06-27T05:22:02Z</time>
      </trkpt>
      <trkpt lat="70.645533967763186" lon="23.676849966868758">
        <ele>30.899999999999999</ele>
        <time>2017-06-27T05:22:09Z</time>
      </trkpt>
      <trkpt lat="70.645430032163858" lon="23.676995979622006">
        <ele>30.899999999999999</ele>
        <time>2017-06-27T05:22:10Z</time>
      </trkpt>
      <trkpt lat="70.645328024402261" lon="23.677178034558892">
        <ele>30.420000000000002</ele>
        <time>2017-06-27T05:22:11Z</time>
      </trkpt>
      <trkpt lat="70.644908007234335" lon="23.677840959280729">
        <ele>29.460000000000001</ele>
        <time>2017-06-27T05:22:15Z</time>
      </trkpt>
      <trkpt lat="70.64479099586606" lon="23.677946990355849">
        <ele>29.460000000000001</ele>
        <time>2017-06-27T05:22:16Z</time>
      </trkpt>
      <trkpt lat="70.644667027518153" lon="23.678010022267699">
        <ele>29.460000000000001</ele>
        <time>2017-06-27T05:22:17Z</time>
      </trkpt>
      <trkpt lat="70.644542975351214" lon="23.678026031702757">
        <ele>29.460000000000001</ele>
        <time>2017-06-27T05:22:18Z</time>
      </trkpt>
      <trkpt lat="70.644419007003307" lon="23.677993007004261">
        <ele>29.460000000000001</ele>
        <time>2017-06-27T05:22:19Z</time>
      </trkpt>
      <trkpt lat="70.64429797232151" lon="23.677912037819624">
        <ele>29.940000000000001</ele>
        <time>2017-06-27T05:22:20Z</time>
      </trkpt>
      <trkpt lat="70.644178027287126" lon="23.677781028673053">
        <ele>29.940000000000001</ele>
        <time>2017-06-27T05:22:21Z</time>
      </trkpt>
      <trkpt lat="70.644062021747231" lon="23.677633004263043">
        <ele>29.940000000000001</ele>
        <time>2017-06-27T05:22:22Z</time>
      </trkpt>
      <trkpt lat="70.642947982996702" lon="23.675959976390004">
        <ele>31.379999999999999</ele>
        <time>2017-06-27T05:22:33Z</time>
      </trkpt>
      <trkpt lat="70.641842996701598" lon="23.673331998288631">
        <ele>29.940000000000001</ele>
        <time>2017-06-27T05:22:45Z</time>
      </trkpt>
      <trkpt lat="70.64064497128129" lon="23.671279018744826">
        <ele>23.210000000000001</ele>
        <time>2017-06-27T05:22:57Z</time>
      </trkpt>
      <trkpt lat="70.640527959913015" lon="23.671209029853344">
        <ele>22.25</ele>
        <time>2017-06-27T05:22:58Z</time>
      </trkpt>
      <trkpt lat="70.640406003221869" lon="23.671177010983229">
        <ele>21.77</ele>
        <time>2017-06-27T05:22:59Z</time>
      </trkpt>
      <trkpt lat="70.640279017388821" lon="23.671196959912777">
        <ele>20.809999999999999</ele>
        <time>2017-06-27T05:23:00Z</time>
      </trkpt>
      <trkpt lat="70.640153959393501" lon="23.671263009309769">
        <ele>19.359999999999999</ele>
        <time>2017-06-27T05:23:01Z</time>
      </trkpt>
      <trkpt lat="70.640028985217214" lon="23.671364011242986">
        <ele>18.399999999999999</ele>
        <time>2017-06-27T05:23:02Z</time>
      </trkpt>
      <trkpt lat="70.639907028526068" lon="23.671496026217937">
        <ele>17.440000000000001</ele>
        <time>2017-06-27T05:23:03Z</time>
      </trkpt>
      <trkpt lat="70.638759965077043" lon="23.672070018947124">
        <ele>11.19</ele>
        <time>2017-06-27T05:23:12Z</time>
      </trkpt>
      <trkpt lat="70.638635996729136" lon="23.672159034758806">
        <ele>11.19</ele>
        <time>2017-06-27T05:23:13Z</time>
      </trkpt>
      <trkpt lat="70.63851404003799" lon="23.672290965914726">
        <ele>10.710000000000001</ele>
        <time>2017-06-27T05:23:14Z</time>
      </trkpt>
      <trkpt lat="70.638397028669715" lon="23.672462962567806">
        <ele>10.23</ele>
        <time>2017-06-27T05:23:15Z</time>
      </trkpt>
      <trkpt lat="70.638284962624311" lon="23.672673013061285">
        <ele>10.23</ele>
        <time>2017-06-27T05:23:16Z</time>
      </trkpt>
      <trkpt lat="70.638183038681746" lon="23.672904018312693">
        <ele>10.23</ele>
        <time>2017-06-27T05:23:17Z</time>
      </trkpt>
      <trkpt lat="70.637302016839385" lon="23.674841998144984">
        <ele>9.27</ele>
        <time>2017-06-27T05:23:27Z</time>
      </trkpt>
      <trkpt lat="70.636326028034091" lon="23.677051970735192">
        <ele>9.75</ele>
        <time>2017-06-27T05:23:38Z</time>
      </trkpt>
      <trkpt lat="70.636009024456143" lon="23.677765019237995">
        <ele>11.19</ele>
        <time>2017-06-27T05:23:42Z</time>
      </trkpt>
      <trkpt lat="70.635045021772385" lon="23.679284993559122">
        <ele>14.08</ele>
        <time>2017-06-27T05:23:51Z</time>
      </trkpt>
      <trkpt lat="70.633801985532045" lon="23.679785979911685">
        <ele>15.039999999999999</ele>
        <time>2017-06-27T05:24:00Z</time>
      </trkpt>
      <trkpt lat="70.633010985329747" lon="23.679895028471947">
        <ele>14.08</ele>
        <time>2017-06-27T05:24:06Z</time>
      </trkpt>
      <trkpt lat="70.632890034466982" lon="23.679820010438561">
        <ele>13.6</ele>
        <time>2017-06-27T05:24:07Z</time>
      </trkpt>
      <trkpt lat="70.632776962593198" lon="23.679690007120371">
        <ele>13.119999999999999</ele>
        <time>2017-06-27T05:24:08Z</time>
      </trkpt>
      <trkpt lat="70.632670009508729" lon="23.679490014910698">
        <ele>12.630000000000001</ele>
        <time>2017-06-27T05:24:09Z</time>
      </trkpt>
      <trkpt lat="70.632575964555144" lon="23.679233025759459">
        <ele>12.15</ele>
        <time>2017-06-27T05:24:10Z</time>
      </trkpt>
      <trkpt lat="70.632504969835281" lon="23.67893697693944">
        <ele>11.67</ele>
        <time>2017-06-27T05:24:11Z</time>
      </trkpt>
      <trkpt lat="70.63245601952076" lon="23.678599018603563">
        <ele>11.67</ele>
        <time>2017-06-27T05:24:12Z</time>
      </trkpt>
      <trkpt lat="70.632433975115418" lon="23.678243039175868">
        <ele>11.67</ele>
        <time>2017-06-27T05:24:13Z</time>
      </trkpt>
      <trkpt lat="70.632431963458657" lon="23.677855040878057">
        <ele>11.67</ele>
        <time>2017-06-27T05:24:14Z</time>
      </trkpt>
      <trkpt lat="70.632445039227605" lon="23.677463019266725">
        <ele>12.15</ele>
        <time>2017-06-27T05:24:15Z</time>
      </trkpt>
      <trkpt lat="70.632486026734114" lon="23.677092036232352">
        <ele>12.630000000000001</ele>
        <time>2017-06-27T05:24:16Z</time>
      </trkpt>
      <trkpt lat="70.632546041160822" lon="23.676725998520851">
        <ele>13.119999999999999</ele>
        <time>2017-06-27T05:24:17Z</time>
      </trkpt>
      <trkpt lat="70.632613012567163" lon="23.676360966637731">
        <ele>13.119999999999999</ele>
        <time>2017-06-27T05:24:18Z</time>
      </trkpt>
      <trkpt lat="70.632876036688685" lon="23.674765974283218">
        <ele>14.56</ele>
        <time>2017-06-27T05:24:22Z</time>
      </trkpt>
      <trkpt lat="70.632911995053291" lon="23.674327014014125">
        <ele>15.52</ele>
        <time>2017-06-27T05:24:23Z</time>
      </trkpt>
      <trkpt lat="70.632922975346446" lon="23.673871038481593">
        <ele>16.960000000000001</ele>
        <time>2017-06-27T05:24:24Z</time>
      </trkpt>
      <trkpt lat="70.632915012538433" lon="23.673394024372101">
        <ele>18.399999999999999</ele>
        <time>2017-06-27T05:24:25Z</time>
      </trkpt>
      <trkpt lat="70.632896991446614" lon="23.672921033576131">
        <ele>19.359999999999999</ele>
        <time>2017-06-27T05:24:26Z</time>
      </trkpt>
      <trkpt lat="70.632818033918738" lon="23.67148001678288">
        <ele>23.690000000000001</ele>
        <time>2017-06-27T05:24:29Z</time>
      </trkpt>
      <trkpt lat="70.632770005613565" lon="23.671013982966542">
        <ele>25.129999999999999</ele>
        <time>2017-06-27T05:24:30Z</time>
      </trkpt>
      <trkpt lat="70.63232802785933" lon="23.666522037237883">
        <ele>38.590000000000003</ele>
        <time>2017-06-27T05:24:40Z</time>
      </trkpt>
      <trkpt lat="70.6322449631989" lon="23.665210017934442">
        <ele>42.439999999999998</ele>
        <time>2017-06-27T05:24:43Z</time>
      </trkpt>
      <trkpt lat="70.632183020934463" lon="23.664850015193224">
        <ele>43.399999999999999</ele>
        <time>2017-06-27T05:24:44Z</time>
      </trkpt>
      <trkpt lat="70.632096016779542" lon="23.664527982473373">
        <ele>43.880000000000003</ele>
        <time>2017-06-27T05:24:45Z</time>
      </trkpt>
      <trkpt lat="70.631988979876041" lon="23.664256995543838">
        <ele>44.359999999999999</ele>
        <time>2017-06-27T05:24:46Z</time>
      </trkpt>
      <trkpt lat="70.631861994042993" lon="23.664020961150527">
        <ele>43.880000000000003</ele>
        <time>2017-06-27T05:24:47Z</time>
      </trkpt>
      <trkpt lat="70.631726961582899" lon="23.663793979212642">
        <ele>43.399999999999999</ele>
        <time>2017-06-27T05:24:48Z</time>
      </trkpt>
      <trkpt lat="70.630150996148586" lon="23.661740999668837">
        <ele>37.630000000000003</ele>
        <time>2017-06-27T05:24:58Z</time>
      </trkpt>
      <trkpt lat="70.628715008497238" lon="23.66166103631258">
        <ele>33.780000000000001</ele>
        <time>2017-06-27T05:25:06Z</time>
      </trkpt>
      <trkpt lat="70.627503991127014" lon="23.661069022491574">
        <ele>32.82</ele>
        <time>2017-06-27T05:25:13Z</time>
      </trkpt>
      <trkpt lat="70.62586298212409" lon="23.658528970554471">
        <ele>34.259999999999998</ele>
        <time>2017-06-27T05:25:24Z</time>
      </trkpt>
      <trkpt lat="70.625709006562829" lon="23.658403996378183">
        <ele>34.259999999999998</ele>
        <time>2017-06-27T05:25:25Z</time>
      </trkpt>
      <trkpt lat="70.625547990202904" lon="23.658321015536785">
        <ele>34.259999999999998</ele>
        <time>2017-06-27T05:25:26Z</time>
      </trkpt>
      <trkpt lat="70.625384040176868" lon="23.658277010545135">
        <ele>33.780000000000001</ele>
        <time>2017-06-27T05:25:27Z</time>
      </trkpt>
      <trkpt lat="70.623874040320516" lon="23.657563040032983">
        <ele>27.050000000000001</ele>
        <time>2017-06-27T05:25:36Z</time>
      </trkpt>
      <trkpt lat="70.622148960828781" lon="23.656324027106166">
        <ele>12.630000000000001</ele>
        <time>2017-06-27T05:25:46Z</time>
      </trkpt>
      <trkpt lat="70.621438007801771" lon="23.655924964696169">
        <ele>10.23</ele>
        <time>2017-06-27T05:25:50Z</time>
      </trkpt>
      <trkpt lat="70.621277997270226" lon="23.655726984143257">
        <ele>10.23</ele>
        <time>2017-06-27T05:25:51Z</time>
      </trkpt>
      <trkpt lat="70.621133996173739" lon="23.655471000820398">
        <ele>9.75</ele>
        <time>2017-06-27T05:25:52Z</time>
      </trkpt>
      <trkpt lat="70.621007010340691" lon="23.65515198558569">
        <ele>10.23</ele>
        <time>2017-06-27T05:25:53Z</time>
      </trkpt>
      <trkpt lat="70.62089997343719" lon="23.654769016429782">
        <ele>10.23</ele>
        <time>2017-06-27T05:25:54Z</time>
      </trkpt>
      <trkpt lat="70.620806012302637" lon="23.654346987605095">
        <ele>10.23</ele>
        <time>2017-06-27T05:25:55Z</time>
      </trkpt>
      <trkpt lat="70.620716996490955" lon="23.653899980708957">
        <ele>10.710000000000001</ele>
        <time>2017-06-27T05:25:56Z</time>
      </trkpt>
      <trkpt lat="70.619367007166147" lon="23.648081012070179">
        <ele>11.67</ele>
        <time>2017-06-27T05:26:09Z</time>
      </trkpt>
      <trkpt lat="70.61780302785337" lon="23.64284198731184">
        <ele>21.77</ele>
        <time>2017-06-27T05:26:22Z</time>
      </trkpt>
      <trkpt lat="70.617671012878418" lon="23.642555996775627">
        <ele>22.73</ele>
        <time>2017-06-27T05:26:23Z</time>
      </trkpt>
      <trkpt lat="70.617533968761563" lon="23.642309987917542">
        <ele>24.170000000000002</ele>
        <time>2017-06-27T05:26:24Z</time>
      </trkpt>
      <trkpt lat="70.617387033998966" lon="23.642102032899857">
        <ele>25.129999999999999</ele>
        <time>2017-06-27T05:26:25Z</time>
      </trkpt>
      <trkpt lat="70.617231968790293" lon="23.641928024590015">
        <ele>26.57</ele>
        <time>2017-06-27T05:26:26Z</time>
      </trkpt>
      <trkpt lat="70.61707598157227" lon="23.64181000739336">
        <ele>28.02</ele>
        <time>2017-06-27T05:26:27Z</time>
      </trkpt>
      <trkpt lat="70.616916976869106" lon="23.641762984916568">
        <ele>29.460000000000001</ele>
        <time>2017-06-27T05:26:28Z</time>
      </trkpt>
      <trkpt lat="70.616761995479465" lon="23.641790980473161">
        <ele>30.420000000000002</ele>
        <time>2017-06-27T05:26:29Z</time>
      </trkpt>
      <trkpt lat="70.616599973291159" lon="23.641860969364643">
        <ele>31.859999999999999</ele>
        <time>2017-06-27T05:26:30Z</time>
      </trkpt>
      <trkpt lat="70.615461962297559" lon="23.643164020031691">
        <ele>35.710000000000001</ele>
        <time>2017-06-27T05:26:37Z</time>
      </trkpt>
      <trkpt lat="70.614057993516326" lon="23.645773977041245">
        <ele>27.050000000000001</ele>
        <time>2017-06-27T05:26:46Z</time>
      </trkpt>
      <trkpt lat="70.613306974992156" lon="23.648367002606392">
        <ele>24.649999999999999</ele>
        <time>2017-06-27T05:26:53Z</time>
      </trkpt>
      <trkpt lat="70.612526033073664" lon="23.652008017525077">
        <ele>19.84</ele>
        <time>2017-06-27T05:27:03Z</time>
      </trkpt>
      <trkpt lat="70.612416984513402" lon="23.652293002232909">
        <ele>18.879999999999999</ele>
        <time>2017-06-27T05:27:04Z</time>
      </trkpt>
      <trkpt lat="70.612297961488366" lon="23.652544040232897">
        <ele>18.399999999999999</ele>
        <time>2017-06-27T05:27:05Z</time>
      </trkpt>
      <trkpt lat="70.612168963998556" lon="23.652764987200499">
        <ele>17.440000000000001</ele>
        <time>2017-06-27T05:27:06Z</time>
      </trkpt>
      <trkpt lat="70.612032003700733" lon="23.652941007167101">
        <ele>16.48</ele>
        <time>2017-06-27T05:27:07Z</time>
      </trkpt>
      <trkpt lat="70.611889008432627" lon="23.653082996606827">
        <ele>16</ele>
        <time>2017-06-27T05:27:08Z</time>
      </trkpt>
      <trkpt lat="70.611736960709095" lon="23.653180981054902">
        <ele>15.039999999999999</ele>
        <time>2017-06-27T05:27:09Z</time>
      </trkpt>
      <trkpt lat="70.611584996804595" lon="23.653235966339707">
        <ele>14.56</ele>
        <time>2017-06-27T05:27:10Z</time>
      </trkpt>
      <trkpt lat="70.611430015414953" lon="23.653242001309991">
        <ele>13.6</ele>
        <time>2017-06-27T05:27:11Z</time>
      </trkpt>
      <trkpt lat="70.611275034025311" lon="23.653231021016836">
        <ele>13.119999999999999</ele>
        <time>2017-06-27T05:27:12Z</time>
      </trkpt>
      <trkpt lat="70.611120974645019" lon="23.653195984661579">
        <ele>12.630000000000001</ele>
        <time>2017-06-27T05:27:13Z</time>
      </trkpt>
      <trkpt lat="70.608984008431435" lon="23.652471033856273">
        <ele>8.310000000000001</ele>
        <time>2017-06-27T05:27:28Z</time>
      </trkpt>
      <trkpt lat="70.607383986935019" lon="23.651424972340465">
        <ele>7.83</ele>
        <time>2017-06-27T05:27:40Z</time>
      </trkpt>
      <trkpt lat="70.606541018933058" lon="23.64900796674192">
        <ele>11.67</ele>
        <time>2017-06-27T05:27:48Z</time>
      </trkpt>
      <trkpt lat="70.60560098849237" lon="23.646202040836215">
        <ele>9.75</ele>
        <time>2017-06-27T05:27:56Z</time>
      </trkpt>
      <trkpt lat="70.605457993224263" lon="23.645968018099666">
        <ele>9.75</ele>
        <time>2017-06-27T05:27:57Z</time>
      </trkpt>
      <trkpt lat="70.605296976864338" lon="23.645813036710024">
        <ele>9.75</ele>
        <time>2017-06-27T05:27:58Z</time>
      </trkpt>
      <trkpt lat="70.605115005746484" lon="23.645727038383484">
        <ele>9.27</ele>
        <time>2017-06-27T05:27:59Z</time>
      </trkpt>
      <trkpt lat="70.604905039072037" lon="23.645692002028227">
        <ele>9.27</ele>
        <time>2017-06-27T05:28:00Z</time>
      </trkpt>
      <trkpt lat="70.604667998850346" lon="23.645686972886324">
        <ele>9.75</ele>
        <time>2017-06-27T05:28:01Z</time>
      </trkpt>
      <trkpt lat="70.60280998237431" lon="23.645468037575483">
        <ele>11.67</ele>
        <time>2017-06-27T05:28:08Z</time>
      </trkpt>
      <trkpt lat="70.601669037714601" lon="23.645514976233244">
        <ele>16.48</ele>
        <time>2017-06-27T05:28:14Z</time>
      </trkpt>
      <trkpt lat="70.601525958627462" lon="23.64565403200686">
        <ele>17.440000000000001</ele>
        <time>2017-06-27T05:28:15Z</time>
      </trkpt>
      <trkpt lat="70.601396961137652" lon="23.645880008116364">
        <ele>18.879999999999999</ele>
        <time>2017-06-27T05:28:16Z</time>
      </trkpt>
      <trkpt lat="70.601292019709945" lon="23.646173039451241">
        <ele>19.84</ele>
        <time>2017-06-27T05:28:17Z</time>
      </trkpt>
      <trkpt lat="70.601209038868546" lon="23.646521978080273">
        <ele>21.289999999999999</ele>
        <time>2017-06-27T05:28:18Z</time>
      </trkpt>
      <trkpt lat="70.601152963936329" lon="23.64692397415638">
        <ele>22.25</ele>
        <time>2017-06-27T05:28:19Z</time>
      </trkpt>
      <trkpt lat="70.601127985864878" lon="23.647357989102602">
        <ele>23.210000000000001</ele>
        <time>2017-06-27T05:28:20Z</time>
      </trkpt>
      <trkpt lat="70.601124968379736" lon="23.647821005433798">
        <ele>24.170000000000002</ele>
        <time>2017-06-27T05:28:21Z</time>
      </trkpt>
      <trkpt lat="70.601138966158032" lon="23.648325009271502">
        <ele>25.129999999999999</ele>
        <time>2017-06-27T05:28:22Z</time>
      </trkpt>
      <trkpt lat="70.601133015006781" lon="23.649982027709484">
        <ele>28.02</ele>
        <time>2017-06-27T05:28:25Z</time>
      </trkpt>
      <trkpt lat="70.601055985316634" lon="23.65446399897337">
        <ele>35.229999999999997</ele>
        <time>2017-06-27T05:28:32Z</time>
      </trkpt>
      <trkpt lat="70.601230999454856" lon="23.658555038273335">
        <ele>34.740000000000002</ele>
        <time>2017-06-27T05:28:39Z</time>
      </trkpt>
      <trkpt lat="70.601508021354675" lon="23.664231011644006">
        <ele>30.899999999999999</ele>
        <time>2017-06-27T05:28:49Z</time>
      </trkpt>
      <trkpt lat="70.602044966071844" lon="23.670411994680762">
        <ele>26.57</ele>
        <time>2017-06-27T05:29:00Z</time>
      </trkpt>
      <trkpt lat="70.603249026462436" lon="23.679714985191822">
        <ele>27.530000000000001</ele>
        <time>2017-06-27T05:29:16Z</time>
      </trkpt>
      <trkpt lat="70.603251038119197" lon="23.682103995233774">
        <ele>31.859999999999999</ele>
        <time>2017-06-27T05:29:20Z</time>
      </trkpt>
      <trkpt lat="70.603210972622037" lon="23.682658039033413">
        <ele>32.340000000000003</ele>
        <time>2017-06-27T05:29:21Z</time>
      </trkpt>
      <trkpt lat="70.60315397568047" lon="23.683203030377626">
        <ele>32.82</ele>
        <time>2017-06-27T05:29:22Z</time>
      </trkpt>
      <trkpt lat="70.603083986788988" lon="23.683722959831357">
        <ele>32.82</ele>
        <time>2017-06-27T05:29:23Z</time>
      </trkpt>
      <trkpt lat="70.602998994290829" lon="23.684229981154203">
        <ele>33.299999999999997</ele>
        <time>2017-06-27T05:29:24Z</time>
      </trkpt>
      <trkpt lat="70.602900004014373" lon="23.684725016355515">
        <ele>33.780000000000001</ele>
        <time>2017-06-27T05:29:25Z</time>
      </trkpt>
      <trkpt lat="70.602783998474479" lon="23.685195995494723">
        <ele>34.259999999999998</ele>
        <time>2017-06-27T05:29:26Z</time>
      </trkpt>
      <trkpt lat="70.602656006813049" lon="23.685626992955804">
        <ele>34.740000000000002</ele>
        <time>2017-06-27T05:29:27Z</time>
      </trkpt>
      <trkpt lat="70.602515023201704" lon="23.686039969325066">
        <ele>34.740000000000002</ele>
        <time>2017-06-27T05:29:28Z</time>
      </trkpt>
      <trkpt lat="70.602361969649792" lon="23.686409024521708">
        <ele>35.229999999999997</ele>
        <time>2017-06-27T05:29:29Z</time>
      </trkpt>
      <trkpt lat="70.602199025452137" lon="23.686741031706333">
        <ele>35.710000000000001</ele>
        <time>2017-06-27T05:29:30Z</time>
      </trkpt>
      <trkpt lat="70.602029962465167" lon="23.687041020020843">
        <ele>35.710000000000001</ele>
        <time>2017-06-27T05:29:31Z</time>
      </trkpt>
      <trkpt lat="70.601851008832455" lon="23.687308989465237">
        <ele>35.229999999999997</ele>
        <time>2017-06-27T05:29:32Z</time>
      </trkpt>
      <trkpt lat="70.601661996915936" lon="23.687547035515308">
        <ele>34.259999999999998</ele>
        <time>2017-06-27T05:29:33Z</time>
      </trkpt>
      <trkpt lat="70.601468039676547" lon="23.687728000804782">
        <ele>32.82</ele>
        <time>2017-06-27T05:29:34Z</time>
      </trkpt>
      <trkpt lat="70.601266035810113" lon="23.687850963324308">
        <ele>30.899999999999999</ele>
        <time>2017-06-27T05:29:35Z</time>
      </trkpt>
      <trkpt lat="70.601055985316634" lon="23.687927993014455">
        <ele>29.460000000000001</ele>
        <time>2017-06-27T05:29:36Z</time>
      </trkpt>
      <trkpt lat="70.600838977843523" lon="23.687944002449512">
        <ele>28.02</ele>
        <time>2017-06-27T05:29:37Z</time>
      </trkpt>
      <trkpt lat="70.600619958713651" lon="23.687894968315959">
        <ele>26.57</ele>
        <time>2017-06-27T05:29:38Z</time>
      </trkpt>
      <trkpt lat="70.60040102340281" lon="23.687774017453194">
        <ele>25.609999999999999</ele>
        <time>2017-06-27T05:29:39Z</time>
      </trkpt>
      <trkpt lat="70.600180998444557" lon="23.687580982223153">
        <ele>25.129999999999999</ele>
        <time>2017-06-27T05:29:40Z</time>
      </trkpt>
      <trkpt lat="70.599967008456588" lon="23.68733698502183">
        <ele>24.649999999999999</ele>
        <time>2017-06-27T05:29:41Z</time>
      </trkpt>
      <trkpt lat="70.599753018468618" lon="23.687039008364081">
        <ele>23.690000000000001</ele>
        <time>2017-06-27T05:29:42Z</time>
      </trkpt>
      <trkpt lat="70.599541962146759" lon="23.686703983694315">
        <ele>22.73</ele>
        <time>2017-06-27T05:29:43Z</time>
      </trkpt>
      <trkpt lat="70.597096038982272" lon="23.682808997109532">
        <ele>13.6</ele>
        <time>2017-06-27T05:29:55Z</time>
      </trkpt>
      <trkpt lat="70.595903964713216" lon="23.681090036407113">
        <ele>14.08</ele>
        <time>2017-06-27T05:30:02Z</time>
      </trkpt>
      <trkpt lat="70.595725011080503" lon="23.680988028645515">
        <ele>14.08</ele>
        <time>2017-06-27T05:30:03Z</time>
      </trkpt>
      <trkpt lat="70.595542034134269" lon="23.680932959541678">
        <ele>14.08</ele>
        <time>2017-06-27T05:30:04Z</time>
      </trkpt>
      <trkpt lat="70.59419103898108" lon="23.681263038888574">
        <ele>11.67</ele>
        <time>2017-06-27T05:30:11Z</time>
      </trkpt>
      <trkpt lat="70.592553969472647" lon="23.681510975584388">
        <ele>9.75</ele>
        <time>2017-06-27T05:30:19Z</time>
      </trkpt>
      <trkpt lat="70.5907569732517" lon="23.680744031444192">
        <ele>13.119999999999999</ele>
        <time>2017-06-27T05:30:28Z</time>
      </trkpt>
      <trkpt lat="70.589341018348932" lon="23.680871017277241">
        <ele>10.710000000000001</ele>
        <time>2017-06-27T05:30:35Z</time>
      </trkpt>
      <trkpt lat="70.588569967076182" lon="23.680980987846851">
        <ele>12.630000000000001</ele>
        <time>2017-06-27T05:30:39Z</time>
      </trkpt>
      <trkpt lat="70.588376009836793" lon="23.681130018085241">
        <ele>13.119999999999999</ele>
        <time>2017-06-27T05:30:40Z</time>
      </trkpt>
      <trkpt lat="70.5867990385741" lon="23.682141965255141">
        <ele>12.15</ele>
        <time>2017-06-27T05:30:48Z</time>
      </trkpt>
      <trkpt lat="70.585905024781823" lon="23.682790976017714">
        <ele>12.15</ele>
        <time>2017-06-27T05:30:53Z</time>
      </trkpt>
      <trkpt lat="70.585736967623234" lon="23.683051988482475">
        <ele>11.67</ele>
        <time>2017-06-27T05:30:54Z</time>
      </trkpt>
      <trkpt lat="70.585567988455296" lon="23.683350970968604">
        <ele>11.67</ele>
        <time>2017-06-27T05:30:55Z</time>
      </trkpt>
      <trkpt lat="70.584081960842013" lon="23.68551199324429">
        <ele>10.23</ele>
        <time>2017-06-27T05:31:03Z</time>
      </trkpt>
      <trkpt lat="70.581961004063487" lon="23.686680011451244">
        <ele>12.630000000000001</ele>
        <time>2017-06-27T05:31:13Z</time>
      </trkpt>
      <trkpt lat="70.580223016440868" lon="23.688185987994075">
        <ele>15.52</ele>
        <time>2017-06-27T05:31:22Z</time>
      </trkpt>
      <trkpt lat="70.5789590254426" lon="23.690085997804999">
        <ele>11.67</ele>
        <time>2017-06-27T05:31:29Z</time>
      </trkpt>
      <trkpt lat="70.578760961070657" lon="23.690185993909836">
        <ele>11.67</ele>
        <time>2017-06-27T05:31:30Z</time>
      </trkpt>
      <trkpt lat="70.576734971255064" lon="23.691003983840346">
        <ele>11.67</ele>
        <time>2017-06-27T05:31:40Z</time>
      </trkpt>
      <trkpt lat="70.573533000424504" lon="23.693639002740383">
        <ele>13.6</ele>
        <time>2017-06-27T05:31:56Z</time>
      </trkpt>
      <trkpt lat="70.570782981812954" lon="23.696628995239735">
        <ele>10.710000000000001</ele>
        <time>2017-06-27T05:32:10Z</time>
      </trkpt>
      <trkpt lat="70.569877987727523" lon="23.697418989613652">
        <ele>10.710000000000001</ele>
        <time>2017-06-27T05:32:15Z</time>
      </trkpt>
      <trkpt lat="70.569691993296146" lon="23.697432987391949">
        <ele>10.710000000000001</ele>
        <time>2017-06-27T05:32:16Z</time>
      </trkpt>
      <trkpt lat="70.569502981379628" lon="23.69737297296524">
        <ele>10.710000000000001</ele>
        <time>2017-06-27T05:32:17Z</time>
      </trkpt>
      <trkpt lat="70.569311035797" lon="23.69726300239563">
        <ele>10.710000000000001</ele>
        <time>2017-06-27T05:32:18Z</time>
      </trkpt>
      <trkpt lat="70.56911900639534" lon="23.697130987420678">
        <ele>10.710000000000001</ele>
        <time>2017-06-27T05:32:19Z</time>
      </trkpt>
      <trkpt lat="70.568559011444449" lon="23.696953961625695">
        <ele>12.15</ele>
        <time>2017-06-27T05:32:22Z</time>
      </trkpt>
      <trkpt lat="70.568379973992705" lon="23.697026968002319">
        <ele>12.630000000000001</ele>
        <time>2017-06-27T05:32:23Z</time>
      </trkpt>
      <trkpt lat="70.568205965682864" lon="23.697175998240709">
        <ele>12.630000000000001</ele>
        <time>2017-06-27T05:32:24Z</time>
      </trkpt>
      <trkpt lat="70.568036986514926" lon="23.697403986006975">
        <ele>13.119999999999999</ele>
        <time>2017-06-27T05:32:25Z</time>
      </trkpt>
      <trkpt lat="70.567869013175368" lon="23.69767002761364">
        <ele>13.119999999999999</ele>
        <time>2017-06-27T05:32:26Z</time>
      </trkpt>
      <trkpt lat="70.567703973501921" lon="23.697976972907782">
        <ele>13.6</ele>
        <time>2017-06-27T05:32:27Z</time>
      </trkpt>
      <trkpt lat="70.566867962479591" lon="23.699363004416227">
        <ele>18.399999999999999</ele>
        <time>2017-06-27T05:32:32Z</time>
      </trkpt>
      <trkpt lat="70.566692026332021" lon="23.699527960270643">
        <ele>19.359999999999999</ele>
        <time>2017-06-27T05:32:33Z</time>
      </trkpt>
      <trkpt lat="70.566503014415503" lon="23.699630973860621">
        <ele>20.32</ele>
        <time>2017-06-27T05:32:34Z</time>
      </trkpt>
      <trkpt lat="70.566310985013843" lon="23.699679002165794">
        <ele>21.77</ele>
        <time>2017-06-27T05:32:35Z</time>
      </trkpt>
      <trkpt lat="70.566114010289311" lon="23.699660981073976">
        <ele>22.73</ele>
        <time>2017-06-27T05:32:36Z</time>
      </trkpt>
      <trkpt lat="70.56591896340251" lon="23.699584035202861">
        <ele>23.690000000000001</ele>
        <time>2017-06-27T05:32:37Z</time>
      </trkpt>
      <trkpt lat="70.56572400033474" lon="23.699439028277993">
        <ele>24.649999999999999</ele>
        <time>2017-06-27T05:32:38Z</time>
      </trkpt>
      <trkpt lat="70.56553197093308" lon="23.699236018583179">
        <ele>25.129999999999999</ele>
        <time>2017-06-27T05:32:39Z</time>
      </trkpt>
      <trkpt lat="70.565340025350451" lon="23.698997972533107">
        <ele>25.609999999999999</ele>
        <time>2017-06-27T05:32:40Z</time>
      </trkpt>
      <trkpt lat="70.564212994650006" lon="23.697680002078414">
        <ele>31.379999999999999</ele>
        <time>2017-06-27T05:32:46Z</time>
      </trkpt>
      <trkpt lat="70.564023982733488" lon="23.697595009580255">
        <ele>32.340000000000003</ele>
        <time>2017-06-27T05:32:47Z</time>
      </trkpt>
      <trkpt lat="70.563313029706478" lon="23.697648989036679">
        <ele>33.780000000000001</ele>
        <time>2017-06-27T05:32:51Z</time>
      </trkpt>
      <trkpt lat="70.563141033053398" lon="23.697783015668392">
        <ele>33.299999999999997</ele>
        <time>2017-06-27T05:32:52Z</time>
      </trkpt>
      <trkpt lat="70.562967024743557" lon="23.697957023978233">
        <ele>32.340000000000003</ele>
        <time>2017-06-27T05:32:53Z</time>
      </trkpt>
      <trkpt lat="70.561494994908571" lon="23.699743039906025">
        <ele>28.02</ele>
        <time>2017-06-27T05:33:01Z</time>
      </trkpt>
      <trkpt lat="70.560542978346348" lon="23.701976984739304">
        <ele>27.050000000000001</ele>
        <time>2017-06-27T05:33:07Z</time>
      </trkpt>
      <trkpt lat="70.559767987579107" lon="23.705882029607892">
        <ele>27.530000000000001</ele>
        <time>2017-06-27T05:33:14Z</time>
      </trkpt>
      <trkpt lat="70.55945098400116" lon="23.707579029724002">
        <ele>27.530000000000001</ele>
        <time>2017-06-27T05:33:17Z</time>
      </trkpt>
      <trkpt lat="70.559317041188478" lon="23.708072975277901">
        <ele>27.530000000000001</ele>
        <time>2017-06-27T05:33:18Z</time>
      </trkpt>
      <trkpt lat="70.559169016778469" lon="23.708515036851168">
        <ele>27.530000000000001</ele>
        <time>2017-06-27T05:33:19Z</time>
      </trkpt>
      <trkpt lat="70.559005988761783" lon="23.708918038755655">
        <ele>27.530000000000001</ele>
        <time>2017-06-27T05:33:20Z</time>
      </trkpt>
      <trkpt lat="70.558833992108703" lon="23.709291033446789">
        <ele>28.02</ele>
        <time>2017-06-27T05:33:21Z</time>
      </trkpt>
      <trkpt lat="70.557125005871058" lon="23.713035983964801">
        <ele>26.09</ele>
        <time>2017-06-27T05:33:31Z</time>
      </trkpt>
      <trkpt lat="70.555898984894156" lon="23.715561032295227">
        <ele>24.170000000000002</ele>
        <time>2017-06-27T05:33:38Z</time>
      </trkpt>
      <trkpt lat="70.555698992684484" lon="23.715777033939958">
        <ele>24.170000000000002</ele>
        <time>2017-06-27T05:33:39Z</time>
      </trkpt>
      <trkpt lat="70.55416502058506" lon="23.717764969915152">
        <ele>21.77</ele>
        <time>2017-06-27T05:33:47Z</time>
      </trkpt>
      <trkpt lat="70.552706988528371" lon="23.720990996807814">
        <ele>16</ele>
        <time>2017-06-27T05:33:55Z</time>
      </trkpt>
      <trkpt lat="70.550890965387225" lon="23.723333990201354">
        <ele>21.289999999999999</ele>
        <time>2017-06-27T05:34:04Z</time>
      </trkpt>
      <trkpt lat="70.548306992277503" lon="23.72603103518486">
        <ele>30.899999999999999</ele>
        <time>2017-06-27T05:34:17Z</time>
      </trkpt>
      <trkpt lat="70.548163997009397" lon="23.726317025721073">
        <ele>31.379999999999999</ele>
        <time>2017-06-27T05:34:18Z</time>
      </trkpt>
      <trkpt lat="70.548033993691206" lon="23.726636962965131">
        <ele>31.379999999999999</ele>
        <time>2017-06-27T05:34:19Z</time>
      </trkpt>
      <trkpt lat="70.547910025343299" lon="23.726986991241574">
        <ele>30.899999999999999</ele>
        <time>2017-06-27T05:34:20Z</time>
      </trkpt>
      <trkpt lat="70.546918027102947" lon="23.729529976844788">
        <ele>28.98</ele>
        <time>2017-06-27T05:34:27Z</time>
      </trkpt>
      <trkpt lat="70.546739995479584" lon="23.729796018451452">
        <ele>29.460000000000001</ele>
        <time>2017-06-27T05:34:28Z</time>
      </trkpt>
      <trkpt lat="70.546554001048207" lon="23.730009002611041">
        <ele>29.460000000000001</ele>
        <time>2017-06-27T05:34:29Z</time>
      </trkpt>
      <trkpt lat="70.544824982061982" lon="23.731737015768886">
        <ele>28.5</ele>
        <time>2017-06-27T05:34:38Z</time>
      </trkpt>
      <trkpt lat="70.541929034516215" lon="23.735198993235826">
        <ele>28.98</ele>
        <time>2017-06-27T05:34:54Z</time>
      </trkpt>
      <trkpt lat="70.539671033620834" lon="23.737171003594995">
        <ele>34.740000000000002</ele>
        <time>2017-06-27T05:35:06Z</time>
      </trkpt>
      <trkpt lat="70.537817040458322" lon="23.739119041711092">
        <ele>38.590000000000003</ele>
        <time>2017-06-27T05:35:16Z</time>
      </trkpt>
      <trkpt lat="70.529190972447395" lon="23.744288999587297">
        <ele>35.710000000000001</ele>
        <time>2017-06-27T05:35:59Z</time>
      </trkpt>
      <trkpt lat="70.527601009234786" lon="23.742245994508266">
        <ele>27.050000000000001</ele>
        <time>2017-06-27T05:36:06Z</time>
      </trkpt>
      <trkpt lat="70.52634003572166" lon="23.740197960287333">
        <ele>29.460000000000001</ele>
        <time>2017-06-27T05:36:12Z</time>
      </trkpt>
      <trkpt lat="70.526111964136362" lon="23.740026969462633">
        <ele>30.420000000000002</ele>
        <time>2017-06-27T05:36:13Z</time>
      </trkpt>
      <trkpt lat="70.525880036875606" lon="23.739921022206545">
        <ele>29.940000000000001</ele>
        <time>2017-06-27T05:36:14Z</time>
      </trkpt>
      <trkpt lat="70.525652971118689" lon="23.739899983629584">
        <ele>30.899999999999999</ele>
        <time>2017-06-27T05:36:15Z</time>
      </trkpt>
      <trkpt lat="70.525429006665945" lon="23.739941976964474">
        <ele>31.379999999999999</ele>
        <time>2017-06-27T05:36:16Z</time>
      </trkpt>
      <trkpt lat="70.525201018899679" lon="23.740042978897691">
        <ele>31.859999999999999</ele>
        <time>2017-06-27T05:36:17Z</time>
      </trkpt>
      <trkpt lat="70.524980993941426" lon="23.740194020792842">
        <ele>31.379999999999999</ele>
        <time>2017-06-27T05:36:18Z</time>
      </trkpt>
      <trkpt lat="70.524767003953457" lon="23.740408010780811">
        <ele>31.379999999999999</ele>
        <time>2017-06-27T05:36:19Z</time>
      </trkpt>
      <trkpt lat="70.52455703727901" lon="23.740675980225205">
        <ele>30.420000000000002</ele>
        <time>2017-06-27T05:36:20Z</time>
      </trkpt>
      <trkpt lat="70.524356961250305" lon="23.740993989631534">
        <ele>29.460000000000001</ele>
        <time>2017-06-27T05:36:21Z</time>
      </trkpt>
      <trkpt lat="70.524170966818929" lon="23.741378970444202">
        <ele>28.98</ele>
        <time>2017-06-27T05:36:22Z</time>
      </trkpt>
      <trkpt lat="70.523987989872694" lon="23.741796975955367">
        <ele>28.5</ele>
        <time>2017-06-27T05:36:23Z</time>
      </trkpt>
      <trkpt lat="70.523106968030334" lon="23.744129994884133">
        <ele>23.210000000000001</ele>
        <time>2017-06-27T05:36:28Z</time>
      </trkpt>
      <trkpt lat="70.52296900190413" lon="23.74468102119863">
        <ele>23.690000000000001</ele>
        <time>2017-06-27T05:36:29Z</time>
      </trkpt>
      <trkpt lat="70.522849978879094" lon="23.74526297673583">
        <ele>24.170000000000002</ele>
        <time>2017-06-27T05:36:30Z</time>
      </trkpt>
      <trkpt lat="70.522748976945877" lon="23.745854990556836">
        <ele>24.170000000000002</ele>
        <time>2017-06-27T05:36:31Z</time>
      </trkpt>
      <trkpt lat="70.52266800776124" lon="23.746466031298041">
        <ele>24.170000000000002</ele>
        <time>2017-06-27T05:36:32Z</time>
      </trkpt>
      <trkpt lat="70.522611010819674" lon="23.74708796851337">
        <ele>24.170000000000002</ele>
        <time>2017-06-27T05:36:33Z</time>
      </trkpt>
      <trkpt lat="70.5225820094347" lon="23.747746031731367">
        <ele>24.170000000000002</ele>
        <time>2017-06-27T05:36:34Z</time>
      </trkpt>
      <trkpt lat="70.522554013878107" lon="23.748404011130333">
        <ele>24.649999999999999</ele>
        <time>2017-06-27T05:36:35Z</time>
      </trkpt>
      <trkpt lat="70.522198034450412" lon="23.75346802175045">
        <ele>27.530000000000001</ele>
        <time>2017-06-27T05:36:43Z</time>
      </trkpt>
      <trkpt lat="70.522097032517195" lon="23.754021981731057">
        <ele>28.02</ele>
        <time>2017-06-27T05:36:44Z</time>
      </trkpt>
      <trkpt lat="70.521983038634062" lon="23.754554986953735">
        <ele>28.5</ele>
        <time>2017-06-27T05:36:45Z</time>
      </trkpt>
      <trkpt lat="70.520436996594071" lon="23.760251998901367">
        <ele>30.420000000000002</ele>
        <time>2017-06-27T05:36:56Z</time>
      </trkpt>
      <trkpt lat="70.518172960728407" lon="23.767981035634875">
        <ele>43.880000000000003</ele>
        <time>2017-06-27T05:37:11Z</time>
      </trkpt>
      <trkpt lat="70.516806039959192" lon="23.770370967686176">
        <ele>49.649999999999999</ele>
        <time>2017-06-27T05:37:18Z</time>
      </trkpt>
      <trkpt lat="70.514936037361622" lon="23.77179304137826">
        <ele>43.880000000000003</ele>
        <time>2017-06-27T05:37:26Z</time>
      </trkpt>
      <trkpt lat="70.512695973739028" lon="23.773896982893348">
        <ele>47.719999999999999</ele>
        <time>2017-06-27T05:37:36Z</time>
      </trkpt>
      <trkpt lat="70.511748986318707" lon="23.776537030935287">
        <ele>42.920000000000002</ele>
        <time>2017-06-27T05:37:42Z</time>
      </trkpt>
      <trkpt lat="70.511241964995861" lon="23.780249962583184">
        <ele>35.229999999999997</ele>
        <time>2017-06-27T05:37:48Z</time>
      </trkpt>
      <trkpt lat="70.510947005823255" lon="23.787667024880648">
        <ele>28.98</ele>
        <time>2017-06-27T05:37:58Z</time>
      </trkpt>
      <trkpt lat="70.510534029453993" lon="23.797892024740577">
        <ele>33.299999999999997</ele>
        <time>2017-06-27T05:38:12Z</time>
      </trkpt>
      <trkpt lat="70.510583985596895" lon="23.803634969517589">
        <ele>32.340000000000003</ele>
        <time>2017-06-27T05:38:20Z</time>
      </trkpt>
      <trkpt lat="70.510446019470692" lon="23.809443041682243">
        <ele>31.859999999999999</ele>
        <time>2017-06-27T05:38:28Z</time>
      </trkpt>
      <trkpt lat="70.510087022557855" lon="23.814346035942435">
        <ele>32.340000000000003</ele>
        <time>2017-06-27T05:38:36Z</time>
      </trkpt>
      <trkpt lat="70.510190036147833" lon="23.817833997309208">
        <ele>30.420000000000002</ele>
        <time>2017-06-27T05:38:44Z</time>
      </trkpt>
      <trkpt lat="70.510651040822268" lon="23.821562016382813">
        <ele>29.940000000000001</ele>
        <time>2017-06-27T05:38:51Z</time>
      </trkpt>
      <trkpt lat="70.511664999648929" lon="23.828643970191479">
        <ele>28.98</ele>
        <time>2017-06-27T05:39:03Z</time>
      </trkpt>
      <trkpt lat="70.511942021548748" lon="23.834518007934093">
        <ele>29.460000000000001</ele>
        <time>2017-06-27T05:39:12Z</time>
      </trkpt>
      <trkpt lat="70.512165986001492" lon="23.843970028683543">
        <ele>23.210000000000001</ele>
        <time>2017-06-27T05:39:26Z</time>
      </trkpt>
      <trkpt lat="70.512128015980124" lon="23.844653991982341">
        <ele>23.210000000000001</ele>
        <time>2017-06-27T05:39:27Z</time>
      </trkpt>
      <trkpt lat="70.512072024866939" lon="23.845314988866448">
        <ele>23.210000000000001</ele>
        <time>2017-06-27T05:39:28Z</time>
      </trkpt>
      <trkpt lat="70.511129982769489" lon="23.853135975077748">
        <ele>16.48</ele>
        <time>2017-06-27T05:39:40Z</time>
      </trkpt>
      <trkpt lat="70.510163968428969" lon="23.857058035209775">
        <ele>15.039999999999999</ele>
        <time>2017-06-27T05:39:47Z</time>
      </trkpt>
      <trkpt lat="70.508887991309166" lon="23.861958011984825">
        <ele>14.08</ele>
        <time>2017-06-27T05:39:57Z</time>
      </trkpt>
      <trkpt lat="70.508823031559587" lon="23.862496968358755">
        <ele>14.08</ele>
        <time>2017-06-27T05:39:58Z</time>
      </trkpt>
      <trkpt lat="70.508771985769272" lon="23.863053023815155">
        <ele>14.08</ele>
        <time>2017-06-27T05:39:59Z</time>
      </trkpt>
      <trkpt lat="70.50874600186944" lon="23.863634979352355">
        <ele>13.6</ele>
        <time>2017-06-27T05:40:00Z</time>
      </trkpt>
      <trkpt lat="70.508736027404666" lon="23.864233028143644">
        <ele>13.6</ele>
        <time>2017-06-27T05:40:01Z</time>
      </trkpt>
      <trkpt lat="70.508740972727537" lon="23.864854965358973">
        <ele>13.6</ele>
        <time>2017-06-27T05:40:02Z</time>
      </trkpt>
      <trkpt lat="70.508756982162595" lon="23.865478998050094">
        <ele>13.119999999999999</ele>
        <time>2017-06-27T05:40:03Z</time>
      </trkpt>
      <trkpt lat="70.508792018517852" lon="23.86611501686275">
        <ele>13.119999999999999</ele>
        <time>2017-06-27T05:40:04Z</time>
      </trkpt>
      <trkpt lat="70.508839040994644" lon="23.866753969341516">
        <ele>13.119999999999999</ele>
        <time>2017-06-27T05:40:05Z</time>
      </trkpt>
      <trkpt lat="70.509188985452056" lon="23.872186029329896">
        <ele>15.52</ele>
        <time>2017-06-27T05:40:14Z</time>
      </trkpt>
      <trkpt lat="70.508965020999312" lon="23.876684010028839">
        <ele>16.960000000000001</ele>
        <time>2017-06-27T05:40:22Z</time>
      </trkpt>
      <trkpt lat="70.514808967709541" lon="23.940811017528176">
        <ele>40.509999999999998</ele>
        <time>2017-06-27T05:41:58Z</time>
      </trkpt>
      <trkpt lat="70.515480022877455" lon="23.946138974279165">
        <ele>42.920000000000002</ele>
        <time>2017-06-27T05:42:08Z</time>
      </trkpt>
      <trkpt lat="70.515639027580619" lon="23.947621984407306">
        <ele>43.399999999999999</ele>
        <time>2017-06-27T05:42:12Z</time>
      </trkpt>
      <trkpt lat="70.515639027580619" lon="23.947948962450027">
        <ele>42.920000000000002</ele>
        <time>2017-06-27T05:42:13Z</time>
      </trkpt>
      <trkpt lat="70.515612959861755" lon="23.94825498573482">
        <ele>42.439999999999998</ele>
        <time>2017-06-27T05:42:14Z</time>
      </trkpt>
      <trkpt lat="70.515560992062092" lon="23.948524966835976">
        <ele>42.439999999999998</ele>
        <time>2017-06-27T05:42:15Z</time>
      </trkpt>
      <trkpt lat="70.515480022877455" lon="23.948740968480706">
        <ele>42.920000000000002</ele>
        <time>2017-06-27T05:42:16Z</time>
      </trkpt>
      <trkpt lat="70.515380026772618" lon="23.948903996497393">
        <ele>43.399999999999999</ele>
        <time>2017-06-27T05:42:17Z</time>
      </trkpt>
      <trkpt lat="70.515261003747582" lon="23.949024025350809">
        <ele>43.880000000000003</ele>
        <time>2017-06-27T05:42:18Z</time>
      </trkpt>
      <trkpt lat="70.515136029571295" lon="23.949107006192207">
        <ele>42.920000000000002</ele>
        <time>2017-06-27T05:42:19Z</time>
      </trkpt>
      <trkpt lat="70.513728959485888" lon="23.9504440035671">
        <ele>43.399999999999999</ele>
        <time>2017-06-27T05:42:28Z</time>
      </trkpt>
      <trkpt lat="70.510757993906736" lon="23.953364007174969">
        <ele>36.670000000000002</ele>
        <time>2017-06-27T05:42:46Z</time>
      </trkpt>
      <trkpt lat="70.509733976796269" lon="23.954448960721493">
        <ele>31.859999999999999</ele>
        <time>2017-06-27T05:42:53Z</time>
      </trkpt>
      <trkpt lat="70.509635992348194" lon="23.954639984294772">
        <ele>30.899999999999999</ele>
        <time>2017-06-27T05:42:54Z</time>
      </trkpt>
      <trkpt lat="70.509552005678415" lon="23.954869983717799">
        <ele>30.899999999999999</ele>
        <time>2017-06-27T05:42:55Z</time>
      </trkpt>
      <trkpt lat="70.509492997080088" lon="23.955153040587902">
        <ele>31.379999999999999</ele>
        <time>2017-06-27T05:42:56Z</time>
      </trkpt>
      <trkpt lat="70.50945402123034" lon="23.955463003367186">
        <ele>31.379999999999999</ele>
        <time>2017-06-27T05:42:57Z</time>
      </trkpt>
      <trkpt lat="70.509436000138521" lon="23.955802973359823">
        <ele>31.859999999999999</ele>
        <time>2017-06-27T05:42:58Z</time>
      </trkpt>
      <trkpt lat="70.509431976824999" lon="23.956162976101041">
        <ele>32.340000000000003</ele>
        <time>2017-06-27T05:42:59Z</time>
      </trkpt>
      <trkpt lat="70.509443962946534" lon="23.956548040732741">
        <ele>32.340000000000003</ele>
        <time>2017-06-27T05:43:00Z</time>
      </trkpt>
      <trkpt lat="70.509470030665398" lon="23.956942996010184">
        <ele>32.82</ele>
        <time>2017-06-27T05:43:01Z</time>
      </trkpt>
      <trkpt lat="70.509504983201623" lon="23.957337029278278">
        <ele>32.82</ele>
        <time>2017-06-27T05:43:02Z</time>
      </trkpt>
      <trkpt lat="70.509571032598615" lon="23.958171028643847">
        <ele>30.899999999999999</ele>
        <time>2017-06-27T05:43:04Z</time>
      </trkpt>
      <trkpt lat="70.509576983749866" lon="23.958605965599418">
        <ele>30.420000000000002</ele>
        <time>2017-06-27T05:43:05Z</time>
      </trkpt>
      <trkpt lat="70.509558962658048" lon="23.959052972495556">
        <ele>29.940000000000001</ele>
        <time>2017-06-27T05:43:06Z</time>
      </trkpt>
      <trkpt lat="70.5095199868083" lon="23.959510959684849">
        <ele>28.98</ele>
        <time>2017-06-27T05:43:07Z</time>
      </trkpt>
      <trkpt lat="70.509461984038353" lon="23.959975987672806">
        <ele>28.5</ele>
        <time>2017-06-27T05:43:08Z</time>
      </trkpt>
      <trkpt lat="70.509391995146871" lon="23.96045601926744">
        <ele>27.530000000000001</ele>
        <time>2017-06-27T05:43:09Z</time>
      </trkpt>
      <trkpt lat="70.508968038484454" lon="23.964487966150045">
        <ele>18.399999999999999</ele>
        <time>2017-06-27T05:43:17Z</time>
      </trkpt>
      <trkpt lat="70.509117990732193" lon="23.968574982136488">
        <ele>12.630000000000001</ele>
        <time>2017-06-27T05:43:26Z</time>
      </trkpt>
      <trkpt lat="70.509505989030004" lon="23.972300989553332">
        <ele>16</ele>
        <time>2017-06-27T05:43:35Z</time>
      </trkpt>
      <trkpt lat="70.509516969323158" lon="23.972704997286201">
        <ele>16</ele>
        <time>2017-06-27T05:43:36Z</time>
      </trkpt>
      <trkpt lat="70.509508000686765" lon="23.973109005019069">
        <ele>16</ele>
        <time>2017-06-27T05:43:37Z</time>
      </trkpt>
      <trkpt lat="70.509480005130172" lon="23.973503038287163">
        <ele>15.52</ele>
        <time>2017-06-27T05:43:38Z</time>
      </trkpt>
      <trkpt lat="70.509428037330508" lon="23.97384200245142">
        <ele>15.52</ele>
        <time>2017-06-27T05:43:39Z</time>
      </trkpt>
      <trkpt lat="70.509355030953884" lon="23.974126987159252">
        <ele>16</ele>
        <time>2017-06-27T05:43:40Z</time>
      </trkpt>
      <trkpt lat="70.509264003485441" lon="23.974365033209324">
        <ele>16</ele>
        <time>2017-06-27T05:43:41Z</time>
      </trkpt>
      <trkpt lat="70.509156966581941" lon="23.974553039297462">
        <ele>16.48</ele>
        <time>2017-06-27T05:43:42Z</time>
      </trkpt>
      <trkpt lat="70.509032998234034" lon="23.974691005423665">
        <ele>16.48</ele>
        <time>2017-06-27T05:43:43Z</time>
      </trkpt>
      <trkpt lat="70.508896037936211" lon="23.974783038720489">
        <ele>16.48</ele>
        <time>2017-06-27T05:43:44Z</time>
      </trkpt>
      <trkpt lat="70.508749019354582" lon="23.974842969328165">
        <ele>16</ele>
        <time>2017-06-27T05:43:45Z</time>
      </trkpt>
      <trkpt lat="70.50859697163105" lon="23.974896026775241">
        <ele>16.48</ele>
        <time>2017-06-27T05:43:46Z</time>
      </trkpt>
      <trkpt lat="70.507329041138291" lon="23.975300034508109">
        <ele>14.56</ele>
        <time>2017-06-27T05:43:55Z</time>
      </trkpt>
      <trkpt lat="70.505741005763412" lon="23.976517003029585">
        <ele>11.19</ele>
        <time>2017-06-27T05:44:07Z</time>
      </trkpt>
      <trkpt lat="70.503188967704773" lon="23.979259980842471">
        <ele>6.39</ele>
        <time>2017-06-27T05:44:26Z</time>
      </trkpt>
      <trkpt lat="70.502727963030338" lon="23.980114012956619">
        <ele>5.42</ele>
        <time>2017-06-27T05:44:30Z</time>
      </trkpt>
      <trkpt lat="70.502634001895785" lon="23.980384999886155">
        <ele>5.91</ele>
        <time>2017-06-27T05:44:31Z</time>
      </trkpt>
      <trkpt lat="70.502550015226007" lon="23.980693034827709">
        <ele>5.42</ele>
        <time>2017-06-27T05:44:32Z</time>
      </trkpt>
      <trkpt lat="70.502476003021002" lon="23.981033004820347">
        <ele>5.91</ele>
        <time>2017-06-27T05:44:33Z</time>
      </trkpt>
      <trkpt lat="70.502412971109152" lon="23.981388984248042">
        <ele>5.91</ele>
        <time>2017-06-27T05:44:34Z</time>
      </trkpt>
      <trkpt lat="70.502361003309488" lon="23.981754016131163">
        <ele>5.91</ele>
        <time>2017-06-27T05:44:35Z</time>
      </trkpt>
      <trkpt lat="70.502324961125851" lon="23.982140002772212">
        <ele>6.39</ele>
        <time>2017-06-27T05:44:36Z</time>
      </trkpt>
      <trkpt lat="70.502311969175935" lon="23.982525989413261">
        <ele>6.39</ele>
        <time>2017-06-27T05:44:37Z</time>
      </trkpt>
      <trkpt lat="70.502314986661077" lon="23.982921028509736">
        <ele>6.87</ele>
        <time>2017-06-27T05:44:38Z</time>
      </trkpt>
      <trkpt lat="70.502336025238037" lon="23.98331799544394">
        <ele>6.87</ele>
        <time>2017-06-27T05:44:39Z</time>
      </trkpt>
      <trkpt lat="70.502373995259404" lon="23.983691995963454">
        <ele>6.87</ele>
        <time>2017-06-27T05:44:40Z</time>
      </trkpt>
      <trkpt lat="70.502427974715829" lon="23.984051998704672">
        <ele>6.87</ele>
        <time>2017-06-27T05:44:41Z</time>
      </trkpt>
      <trkpt lat="70.502499975264072" lon="23.984391968697309">
        <ele>6.87</ele>
        <time>2017-06-27T05:44:42Z</time>
      </trkpt>
      <trkpt lat="70.502587985247374" lon="23.984709978103638">
        <ele>6.87</ele>
        <time>2017-06-27T05:44:43Z</time>
      </trkpt>
      <trkpt lat="70.50268798135221" lon="23.985009966418147">
        <ele>6.87</ele>
        <time>2017-06-27T05:44:44Z</time>
      </trkpt>
      <trkpt lat="70.502796024084091" lon="23.985290005803108">
        <ele>6.87</ele>
        <time>2017-06-27T05:44:45Z</time>
      </trkpt>
      <trkpt lat="70.502914041280746" lon="23.985559986904263">
        <ele>7.35</ele>
        <time>2017-06-27T05:44:46Z</time>
      </trkpt>
      <trkpt lat="70.50434298813343" lon="23.988096015527844">
        <ele>7.83</ele>
        <time>2017-06-27T05:44:57Z</time>
      </trkpt>
      <trkpt lat="70.506356991827488" lon="23.991689002141356">
        <ele>7.35</ele>
        <time>2017-06-27T05:45:13Z</time>
      </trkpt>
      <trkpt lat="70.507615031674504" lon="23.994669020175934">
        <ele>8.789999999999999</ele>
        <time>2017-06-27T05:45:24Z</time>
      </trkpt>
      <trkpt lat="70.50831601023674" lon="23.997256010770798">
        <ele>11.67</ele>
        <time>2017-06-27T05:45:32Z</time>
      </trkpt>
      <trkpt lat="70.509601961821318" lon="24.004001012071967">
        <ele>10.23</ele>
        <time>2017-06-27T05:45:50Z</time>
      </trkpt>
      <trkpt lat="70.510375024750829" lon="24.008983969688416">
        <ele>14.08</ele>
        <time>2017-06-27T05:46:03Z</time>
      </trkpt>
      <trkpt lat="70.510517014190555" lon="24.013248011469841">
        <ele>16</ele>
        <time>2017-06-27T05:46:13Z</time>
      </trkpt>
      <trkpt lat="70.510482983663678" lon="24.021734017878771">
        <ele>17.920000000000002</ele>
        <time>2017-06-27T05:46:33Z</time>
      </trkpt>
      <trkpt lat="70.510524976998568" lon="24.022123022004962">
        <ele>17.920000000000002</ele>
        <time>2017-06-27T05:46:34Z</time>
      </trkpt>
      <trkpt lat="70.510580968111753" lon="24.022511020302773">
        <ele>18.399999999999999</ele>
        <time>2017-06-27T05:46:35Z</time>
      </trkpt>
      <trkpt lat="70.510646011680365" lon="24.022888960316777">
        <ele>18.399999999999999</ele>
        <time>2017-06-27T05:46:36Z</time>
      </trkpt>
      <trkpt lat="70.510712983086705" lon="24.023256003856659">
        <ele>18.399999999999999</ele>
        <time>2017-06-27T05:46:37Z</time>
      </trkpt>
      <trkpt lat="70.511414967477322" lon="24.028441971167922">
        <ele>17.920000000000002</ele>
        <time>2017-06-27T05:46:50Z</time>
      </trkpt>
      <trkpt lat="70.511442041024566" lon="24.032989991828799">
        <ele>16.960000000000001</ele>
        <time>2017-06-27T05:47:00Z</time>
      </trkpt>
      <trkpt lat="70.511350007727742" lon="24.039036026224494">
        <ele>18.399999999999999</ele>
        <time>2017-06-27T05:47:14Z</time>
      </trkpt>
      <trkpt lat="70.511379009112716" lon="24.039452020078897">
        <ele>18.879999999999999</ele>
        <time>2017-06-27T05:47:15Z</time>
      </trkpt>
      <trkpt lat="70.511421002447605" lon="24.039853010326624">
        <ele>19.359999999999999</ele>
        <time>2017-06-27T05:47:16Z</time>
      </trkpt>
      <trkpt lat="70.511472970247269" lon="24.040246959775686">
        <ele>20.32</ele>
        <time>2017-06-27T05:47:17Z</time>
      </trkpt>
      <trkpt lat="70.511532984673977" lon="24.040632024407387">
        <ele>21.289999999999999</ele>
        <time>2017-06-27T05:47:18Z</time>
      </trkpt>
      <trkpt lat="70.511717973276973" lon="24.042313015088439">
        <ele>23.690000000000001</ele>
        <time>2017-06-27T05:47:22Z</time>
      </trkpt>
      <trkpt lat="70.51173398271203" lon="24.042794974520802">
        <ele>23.210000000000001</ele>
        <time>2017-06-27T05:47:23Z</time>
      </trkpt>
      <trkpt lat="70.511737000197172" lon="24.043309958651662">
        <ele>22.73</ele>
        <time>2017-06-27T05:47:24Z</time>
      </trkpt>
      <trkpt lat="70.511612026020885" lon="24.046496003866196">
        <ele>20.809999999999999</ele>
        <time>2017-06-27T05:47:31Z</time>
      </trkpt>
      <trkpt lat="70.511549999937415" lon="24.046862041577697">
        <ele>19.84</ele>
        <time>2017-06-27T05:47:32Z</time>
      </trkpt>
      <trkpt lat="70.511467019096017" lon="24.047186002135277">
        <ele>19.359999999999999</ele>
        <time>2017-06-27T05:47:33Z</time>
      </trkpt>
      <trkpt lat="70.511361993849277" lon="24.047445002943277">
        <ele>18.879999999999999</ele>
        <time>2017-06-27T05:47:34Z</time>
      </trkpt>
      <trkpt lat="70.511234002187848" lon="24.047642983496189">
        <ele>18.399999999999999</ele>
        <time>2017-06-27T05:47:35Z</time>
      </trkpt>
      <trkpt lat="70.511094024404883" lon="24.047787990421057">
        <ele>18.399999999999999</ele>
        <time>2017-06-27T05:47:36Z</time>
      </trkpt>
      <trkpt lat="70.510945999994874" lon="24.047910030931234">
        <ele>17.920000000000002</ele>
        <time>2017-06-27T05:47:37Z</time>
      </trkpt>
      <trkpt lat="70.508964015170932" lon="24.049941971898079">
        <ele>17.920000000000002</ele>
        <time>2017-06-27T05:47:50Z</time>
      </trkpt>
      <trkpt lat="70.505960024893284" lon="24.054229985922575">
        <ele>19.84</ele>
        <time>2017-06-27T05:48:10Z</time>
      </trkpt>
      <trkpt lat="70.504284985363483" lon="24.057405972853303">
        <ele>20.32</ele>
        <time>2017-06-27T05:48:22Z</time>
      </trkpt>
      <trkpt lat="70.501579977571964" lon="24.064633017405868">
        <ele>20.809999999999999</ele>
        <time>2017-06-27T05:48:45Z</time>
      </trkpt>
      <trkpt lat="70.499929999932647" lon="24.069849997758865">
        <ele>18.879999999999999</ele>
        <time>2017-06-27T05:49:00Z</time>
      </trkpt>
      <trkpt lat="70.498772040009499" lon="24.075762005522847">
        <ele>16.48</ele>
        <time>2017-06-27T05:49:14Z</time>
      </trkpt>
      <trkpt lat="70.497718015685678" lon="24.083238998427987">
        <ele>17.440000000000001</ele>
        <time>2017-06-27T05:49:30Z</time>
      </trkpt>
      <trkpt lat="70.496706990525126" lon="24.087699009105563">
        <ele>18.399999999999999</ele>
        <time>2017-06-27T05:49:40Z</time>
      </trkpt>
      <trkpt lat="70.495218029245734" lon="24.091722993180156">
        <ele>18.879999999999999</ele>
        <time>2017-06-27T05:49:52Z</time>
      </trkpt>
      <trkpt lat="70.493011996150017" lon="24.097138037905097">
        <ele>16.960000000000001</ele>
        <time>2017-06-27T05:50:10Z</time>
      </trkpt>
      <trkpt lat="70.492103984579444" lon="24.100333973765373">
        <ele>17.440000000000001</ele>
        <time>2017-06-27T05:50:19Z</time>
      </trkpt>
      <trkpt lat="70.491896029561758" lon="24.103281972929835">
        <ele>16.960000000000001</ele>
        <time>2017-06-27T05:50:25Z</time>
      </trkpt>
      <trkpt lat="70.49166502431035" lon="24.109046962112188">
        <ele>17.920000000000002</ele>
        <time>2017-06-27T05:50:34Z</time>
      </trkpt>
      <trkpt lat="70.49132002517581" lon="24.114277018234134">
        <ele>17.920000000000002</ele>
        <time>2017-06-27T05:50:42Z</time>
      </trkpt>
      <trkpt lat="70.491240983828902" lon="24.123367024585605">
        <ele>17.440000000000001</ele>
        <time>2017-06-27T05:50:55Z</time>
      </trkpt>
      <trkpt lat="70.490889027714729" lon="24.129278026521206">
        <ele>18.879999999999999</ele>
        <time>2017-06-27T05:51:04Z</time>
      </trkpt>
      <trkpt lat="70.490012029185891" lon="24.136450001969934">
        <ele>18.879999999999999</ele>
        <time>2017-06-27T05:51:16Z</time>
      </trkpt>
      <trkpt lat="70.488771004602313" lon="24.145458033308387">
        <ele>18.399999999999999</ele>
        <time>2017-06-27T05:51:32Z</time>
      </trkpt>
      <trkpt lat="70.488233976066113" lon="24.150926973670721">
        <ele>16.48</ele>
        <time>2017-06-27T05:51:42Z</time>
      </trkpt>
      <trkpt lat="70.487341973930597" lon="24.154895972460508">
        <ele>13.6</ele>
        <time>2017-06-27T05:51:50Z</time>
      </trkpt>
      <trkpt lat="70.486319968476892" lon="24.161034040153027">
        <ele>12.15</ele>
        <time>2017-06-27T05:52:01Z</time>
      </trkpt>
      <trkpt lat="70.485851000994444" lon="24.164707995951176">
        <ele>12.630000000000001</ele>
        <time>2017-06-27T05:52:07Z</time>
      </trkpt>
      <trkpt lat="70.485830968245864" lon="24.165334040299058">
        <ele>12.630000000000001</ele>
        <time>2017-06-27T05:52:08Z</time>
      </trkpt>
      <trkpt lat="70.485832979902625" lon="24.165967963635921">
        <ele>13.119999999999999</ele>
        <time>2017-06-27T05:52:09Z</time>
      </trkpt>
      <trkpt lat="70.485856030136347" lon="24.166599959135056">
        <ele>14.08</ele>
        <time>2017-06-27T05:52:10Z</time>
      </trkpt>
      <trkpt lat="70.485896011814475" lon="24.167218040674925">
        <ele>14.56</ele>
        <time>2017-06-27T05:52:11Z</time>
      </trkpt>
      <trkpt lat="70.485943034291267" lon="24.167827991768718">
        <ele>15.52</ele>
        <time>2017-06-27T05:52:12Z</time>
      </trkpt>
      <trkpt lat="70.486265989020467" lon="24.173197019845247">
        <ele>19.359999999999999</ele>
        <time>2017-06-27T05:52:21Z</time>
      </trkpt>
      <trkpt lat="70.486042024567723" lon="24.175502965226769">
        <ele>20.809999999999999</ele>
        <time>2017-06-27T05:52:25Z</time>
      </trkpt>
      <trkpt lat="70.485943034291267" lon="24.176020966842771">
        <ele>21.289999999999999</ele>
        <time>2017-06-27T05:52:26Z</time>
      </trkpt>
      <trkpt lat="70.485829962417483" lon="24.176514996215701">
        <ele>21.77</ele>
        <time>2017-06-27T05:52:27Z</time>
      </trkpt>
      <trkpt lat="70.485704988241196" lon="24.176991004496813">
        <ele>22.25</ele>
        <time>2017-06-27T05:52:28Z</time>
      </trkpt>
      <trkpt lat="70.485569033771753" lon="24.17745603248477">
        <ele>22.73</ele>
        <time>2017-06-27T05:52:29Z</time>
      </trkpt>
      <trkpt lat="70.483787963166833" lon="24.184297006577253">
        <ele>37.630000000000003</ele>
        <time>2017-06-27T05:52:43Z</time>
      </trkpt>
      <trkpt lat="70.482458006590605" lon="24.191752960905433">
        <ele>43.399999999999999</ele>
        <time>2017-06-27T05:52:56Z</time>
      </trkpt>
      <trkpt lat="70.480746002867818" lon="24.201698005199432">
        <ele>40.990000000000002</ele>
        <time>2017-06-27T05:53:13Z</time>
      </trkpt>
      <trkpt lat="70.480219032615423" lon="24.206374017521739">
        <ele>30.899999999999999</ele>
        <time>2017-06-27T05:53:21Z</time>
      </trkpt>
      <trkpt lat="70.480124987661839" lon="24.206883972510695">
        <ele>29.460000000000001</ele>
        <time>2017-06-27T05:53:22Z</time>
      </trkpt>
      <trkpt lat="70.480019962415099" lon="24.207354029640555">
        <ele>28.5</ele>
        <time>2017-06-27T05:53:23Z</time>
      </trkpt>
      <trkpt lat="70.478483978658915" lon="24.213396040722728">
        <ele>14.08</ele>
        <time>2017-06-27T05:53:37Z</time>
      </trkpt>
      <trkpt lat="70.477442024275661" lon="24.217998962849379">
        <ele>23.690000000000001</ele>
        <time>2017-06-27T05:53:47Z</time>
      </trkpt>
      <trkpt lat="70.477387038990855" lon="24.218534985557199">
        <ele>25.609999999999999</ele>
        <time>2017-06-27T05:53:48Z</time>
      </trkpt>
      <trkpt lat="70.477348985150456" lon="24.219100009649992">
        <ele>27.050000000000001</ele>
        <time>2017-06-27T05:53:49Z</time>
      </trkpt>
      <trkpt lat="70.477328030392528" lon="24.219671990722418">
        <ele>28.98</ele>
        <time>2017-06-27T05:53:50Z</time>
      </trkpt>
      <trkpt lat="70.47731202095747" lon="24.22023500315845">
        <ele>30.420000000000002</ele>
        <time>2017-06-27T05:53:51Z</time>
      </trkpt>
      <trkpt lat="70.477110017091036" lon="24.225376965478063">
        <ele>42.920000000000002</ele>
        <time>2017-06-27T05:54:01Z</time>
      </trkpt>
      <trkpt lat="70.477176988497376" lon="24.229914005845785">
        <ele>48.200000000000003</ele>
        <time>2017-06-27T05:54:09Z</time>
      </trkpt>
      <trkpt lat="70.477490974590182" lon="24.237862983718514">
        <ele>52.530000000000001</ele>
        <time>2017-06-27T05:54:22Z</time>
      </trkpt>
      <trkpt lat="70.477681998163462" lon="24.244474964216352">
        <ele>47.240000000000002</ele>
        <time>2017-06-27T05:54:33Z</time>
      </trkpt>
      <trkpt lat="70.477367006242275" lon="24.248548988252878">
        <ele>41.950000000000003</ele>
        <time>2017-06-27T05:54:40Z</time>
      </trkpt>
      <trkpt lat="70.477153016254306" lon="24.249537969008088">
        <ele>42.439999999999998</ele>
        <time>2017-06-27T05:54:42Z</time>
      </trkpt>
      <trkpt lat="70.477023012936115" lon="24.249972989782691">
        <ele>42.439999999999998</ele>
        <time>2017-06-27T05:54:43Z</time>
      </trkpt>
      <trkpt lat="70.476880017668009" lon="24.250374985858798">
        <ele>41.950000000000003</ele>
        <time>2017-06-27T05:54:44Z</time>
      </trkpt>
      <trkpt lat="70.476721012964845" lon="24.250744041055441">
        <ele>41.469999999999999</ele>
        <time>2017-06-27T05:54:45Z</time>
      </trkpt>
      <trkpt lat="70.476552033796906" lon="24.251079987734556">
        <ele>40.990000000000002</ele>
        <time>2017-06-27T05:54:46Z</time>
      </trkpt>
      <trkpt lat="70.476371990516782" lon="24.251377964392304">
        <ele>40.030000000000001</ele>
        <time>2017-06-27T05:54:47Z</time>
      </trkpt>
      <trkpt lat="70.476183984428644" lon="24.251660015434027">
        <ele>39.07</ele>
        <time>2017-06-27T05:54:48Z</time>
      </trkpt>
      <trkpt lat="70.47452000901103" lon="24.254721002653241">
        <ele>32.82</ele>
        <time>2017-06-27T05:54:57Z</time>
      </trkpt>
      <trkpt lat="70.473772007972002" lon="24.25828599371016">
        <ele>37.149999999999999</ele>
        <time>2017-06-27T05:55:04Z</time>
      </trkpt>
      <trkpt lat="70.473475037142634" lon="24.262951025739312">
        <ele>37.149999999999999</ele>
        <time>2017-06-27T05:55:12Z</time>
      </trkpt>
      <trkpt lat="70.472995005548" lon="24.266651971265674">
        <ele>36.189999999999998</ele>
        <time>2017-06-27T05:55:19Z</time>
      </trkpt>
      <trkpt lat="70.47168499790132" lon="24.270879970863461">
        <ele>30.899999999999999</ele>
        <time>2017-06-27T05:55:28Z</time>
      </trkpt>
      <trkpt lat="70.470833983272314" lon="24.272320987656713">
        <ele>29.460000000000001</ele>
        <time>2017-06-27T05:55:33Z</time>
      </trkpt>
      <trkpt lat="70.470643965527415" lon="24.272461971268058">
        <ele>28.5</ele>
        <time>2017-06-27T05:55:34Z</time>
      </trkpt>
      <trkpt lat="70.470444979146123" lon="24.272533971816301">
        <ele>28.02</ele>
        <time>2017-06-27T05:55:35Z</time>
      </trkpt>
      <trkpt lat="70.470250016078353" lon="24.272549981251359">
        <ele>27.050000000000001</ele>
        <time>2017-06-27T05:55:36Z</time>
      </trkpt>
      <trkpt lat="70.47005002386868" lon="24.272512011229992">
        <ele>26.09</ele>
        <time>2017-06-27T05:55:37Z</time>
      </trkpt>
      <trkpt lat="70.469849025830626" lon="24.272429030388594">
        <ele>25.129999999999999</ele>
        <time>2017-06-27T05:55:38Z</time>
      </trkpt>
      <trkpt lat="70.469652973115444" lon="24.272296009585261">
        <ele>24.170000000000002</ele>
        <time>2017-06-27T05:55:39Z</time>
      </trkpt>
      <trkpt lat="70.469454992562532" lon="24.272108003497124">
        <ele>23.690000000000001</ele>
        <time>2017-06-27T05:55:40Z</time>
      </trkpt>
      <trkpt lat="70.469261035323143" lon="24.271869035437703">
        <ele>22.73</ele>
        <time>2017-06-27T05:55:41Z</time>
      </trkpt>
      <trkpt lat="70.469066994264722" lon="24.271580027416348">
        <ele>21.77</ele>
        <time>2017-06-27T05:55:42Z</time>
      </trkpt>
      <trkpt lat="70.468873959034681" lon="24.27126201801002">
        <ele>21.289999999999999</ele>
        <time>2017-06-27T05:55:43Z</time>
      </trkpt>
      <trkpt lat="70.467308973893523" lon="24.268819028511643">
        <ele>17.440000000000001</ele>
        <time>2017-06-27T05:55:51Z</time>
      </trkpt>
      <trkpt lat="70.467104958370328" lon="24.26868500187993">
        <ele>17.440000000000001</ele>
        <time>2017-06-27T05:55:52Z</time>
      </trkpt>
      <trkpt lat="70.4668939858675" lon="24.268626999109983">
        <ele>17.440000000000001</ele>
        <time>2017-06-27T05:55:53Z</time>
      </trkpt>
      <trkpt lat="70.466686030849814" lon="24.268647031858563">
        <ele>17.440000000000001</ele>
        <time>2017-06-27T05:55:54Z</time>
      </trkpt>
      <trkpt lat="70.466483021155" lon="24.268733030185103">
        <ele>17.920000000000002</ele>
        <time>2017-06-27T05:55:55Z</time>
      </trkpt>
      <trkpt lat="70.466276993975043" lon="24.268872002139688">
        <ele>18.399999999999999</ele>
        <time>2017-06-27T05:55:56Z</time>
      </trkpt>
      <trkpt lat="70.466072978451848" lon="24.269034024327993">
        <ele>18.399999999999999</ele>
        <time>2017-06-27T05:55:57Z</time>
      </trkpt>
      <trkpt lat="70.464439010247588" lon="24.269496034830809">
        <ele>16.960000000000001</ele>
        <time>2017-06-27T05:56:05Z</time>
      </trkpt>
      <trkpt lat="70.464239018037915" lon="24.269362008199096">
        <ele>16.960000000000001</ele>
        <time>2017-06-27T05:56:06Z</time>
      </trkpt>
      <trkpt lat="70.464042965322733" lon="24.269165033474565">
        <ele>16</ele>
        <time>2017-06-27T05:56:07Z</time>
      </trkpt>
      <trkpt lat="70.461889989674091" lon="24.266348965466022">
        <ele>11.67</ele>
        <time>2017-06-27T05:56:18Z</time>
      </trkpt>
      <trkpt lat="70.461701983585954" lon="24.266238994896412">
        <ele>11.19</ele>
        <time>2017-06-27T05:56:19Z</time>
      </trkpt>
      <trkpt lat="70.461508026346564" lon="24.266185015439987">
        <ele>10.710000000000001</ele>
        <time>2017-06-27T05:56:20Z</time>
      </trkpt>
      <trkpt lat="70.461310967803001" lon="24.266202030703425">
        <ele>10.23</ele>
        <time>2017-06-27T05:56:21Z</time>
      </trkpt>
      <trkpt lat="70.46111298725009" lon="24.266287023201585">
        <ele>9.75</ele>
        <time>2017-06-27T05:56:22Z</time>
      </trkpt>
      <trkpt lat="70.460917018353939" lon="24.266442004591227">
        <ele>9.75</ele>
        <time>2017-06-27T05:56:23Z</time>
      </trkpt>
      <trkpt lat="70.460728006437421" lon="24.266646020114422">
        <ele>9.75</ele>
        <time>2017-06-27T05:56:24Z</time>
      </trkpt>
      <trkpt lat="70.460545029491186" lon="24.266911977902055">
        <ele>9.75</ele>
        <time>2017-06-27T05:56:25Z</time>
      </trkpt>
      <trkpt lat="70.460374038666487" lon="24.267226969823241">
        <ele>9.75</ele>
        <time>2017-06-27T05:56:26Z</time>
      </trkpt>
      <trkpt lat="70.460205981507897" lon="24.267589990049601">
        <ele>9.75</ele>
        <time>2017-06-27T05:56:27Z</time>
      </trkpt>
      <trkpt lat="70.460043037310243" lon="24.267986034974456">
        <ele>9.27</ele>
        <time>2017-06-27T05:56:28Z</time>
      </trkpt>
      <trkpt lat="70.457239039242268" lon="24.275063965469599">
        <ele>6.87</ele>
        <time>2017-06-27T05:56:45Z</time>
      </trkpt>
      <trkpt lat="70.455824006348848" lon="24.27798698656261">
        <ele>9.27</ele>
        <time>2017-06-27T05:56:54Z</time>
      </trkpt>
      <trkpt lat="70.454429006204009" lon="24.280038038268685">
        <ele>10.23</ele>
        <time>2017-06-27T05:57:04Z</time>
      </trkpt>
      <trkpt lat="70.453645968809724" lon="24.282943038269877">
        <ele>11.67</ele>
        <time>2017-06-27T05:57:13Z</time>
      </trkpt>
      <trkpt lat="70.452881958335638" lon="24.287434983998537">
        <ele>9.75</ele>
        <time>2017-06-27T05:57:23Z</time>
      </trkpt>
      <trkpt lat="70.45202499255538" lon="24.292448032647371">
        <ele>10.23</ele>
        <time>2017-06-27T05:57:33Z</time>
      </trkpt>
      <trkpt lat="70.451921978965402" lon="24.292846005409956">
        <ele>10.23</ele>
        <time>2017-06-27T05:57:34Z</time>
      </trkpt>
      <trkpt lat="70.451806979253888" lon="24.293221011757851">
        <ele>9.75</ele>
        <time>2017-06-27T05:57:35Z</time>
      </trkpt>
      <trkpt lat="70.451684016734362" lon="24.293579002842307">
        <ele>9.75</ele>
        <time>2017-06-27T05:57:36Z</time>
      </trkpt>
      <trkpt lat="70.450431006029248" lon="24.296390041708946">
        <ele>9.27</ele>
        <time>2017-06-27T05:57:45Z</time>
      </trkpt>
      <trkpt lat="70.448573995381594" lon="24.300661040470004">
        <ele>10.710000000000001</ele>
        <time>2017-06-27T05:58:00Z</time>
      </trkpt>
      <trkpt lat="70.447522988542914" lon="24.3045639898628">
        <ele>11.67</ele>
        <time>2017-06-27T05:58:11Z</time>
      </trkpt>
      <trkpt lat="70.446293028071523" lon="24.311034986749291">
        <ele>12.630000000000001</ele>
        <time>2017-06-27T05:58:27Z</time>
      </trkpt>
      <trkpt lat="70.445776032283902" lon="24.314973978325725">
        <ele>14.56</ele>
        <time>2017-06-27T05:58:35Z</time>
      </trkpt>
      <trkpt lat="70.445745019242167" lon="24.319715034216642">
        <ele>18.879999999999999</ele>
        <time>2017-06-27T05:58:43Z</time>
      </trkpt>
      <trkpt lat="70.445452993735671" lon="24.32370699942112">
        <ele>18.399999999999999</ele>
        <time>2017-06-27T05:58:50Z</time>
      </trkpt>
      <trkpt lat="70.445036999881268" lon="24.328480996191502">
        <ele>14.08</ele>
        <time>2017-06-27T05:58:59Z</time>
      </trkpt>
      <trkpt lat="70.44525601901114" lon="24.332373971119523">
        <ele>13.119999999999999</ele>
        <time>2017-06-27T05:59:06Z</time>
      </trkpt>
      <trkpt lat="70.44592103920877" lon="24.336145995184779">
        <ele>12.630000000000001</ele>
        <time>2017-06-27T05:59:13Z</time>
      </trkpt>
      <trkpt lat="70.447704959660769" lon="24.344924027100205">
        <ele>14.56</ele>
        <time>2017-06-27T05:59:28Z</time>
      </trkpt>
      <trkpt lat="70.449240021407604" lon="24.353456972166896">
        <ele>16.960000000000001</ele>
        <time>2017-06-27T05:59:42Z</time>
      </trkpt>
      <trkpt lat="70.449514025822282" lon="24.358404977247119">
        <ele>19.359999999999999</ele>
        <time>2017-06-27T05:59:49Z</time>
      </trkpt>
      <trkpt lat="70.449301041662693" lon="24.363534031435847">
        <ele>19.84</ele>
        <time>2017-06-27T05:59:56Z</time>
      </trkpt>
      <trkpt lat="70.448464024811983" lon="24.370438037440181">
        <ele>21.289999999999999</ele>
        <time>2017-06-27T06:00:06Z</time>
      </trkpt>
      <trkpt lat="70.44779296964407" lon="24.378062970936298">
        <ele>20.809999999999999</ele>
        <time>2017-06-27T06:00:17Z</time>
      </trkpt>
      <trkpt lat="70.447418969124556" lon="24.384866980835795">
        <ele>27.530000000000001</ele>
        <time>2017-06-27T06:00:27Z</time>
      </trkpt>
      <trkpt lat="70.447215959429741" lon="24.390296023339033">
        <ele>28.98</ele>
        <time>2017-06-27T06:00:35Z</time>
      </trkpt>
      <trkpt lat="70.44734101742506" lon="24.396180035546422">
        <ele>25.129999999999999</ele>
        <time>2017-06-27T06:00:43Z</time>
      </trkpt>
      <trkpt lat="70.446948995813727" lon="24.402942974120378">
        <ele>24.170000000000002</ele>
        <time>2017-06-27T06:00:52Z</time>
      </trkpt>
      <trkpt lat="70.446037966758013" lon="24.409913029521704">
        <ele>25.609999999999999</ele>
        <time>2017-06-27T06:01:02Z</time>
      </trkpt>
      <trkpt lat="70.444816974923015" lon="24.419547021389008">
        <ele>24.649999999999999</ele>
        <time>2017-06-27T06:01:16Z</time>
      </trkpt>
      <trkpt lat="70.443874010816216" lon="24.434048971161246">
        <ele>28.02</ele>
        <time>2017-06-27T06:01:36Z</time>
      </trkpt>
      <trkpt lat="70.443607969209552" lon="24.441355979070067">
        <ele>29.940000000000001</ele>
        <time>2017-06-27T06:01:46Z</time>
      </trkpt>
      <trkpt lat="70.443199016153812" lon="24.449444012716413">
        <ele>33.780000000000001</ele>
        <time>2017-06-27T06:01:57Z</time>
      </trkpt>
      <trkpt lat="70.442476999014616" lon="24.461145987734199">
        <ele>43.880000000000003</ele>
        <time>2017-06-27T06:02:13Z</time>
      </trkpt>
      <trkpt lat="70.441429009661078" lon="24.469941034913063">
        <ele>48.68</ele>
        <time>2017-06-27T06:02:26Z</time>
      </trkpt>
      <trkpt lat="70.440475987270474" lon="24.473714986816049">
        <ele>52.049999999999997</ele>
        <time>2017-06-27T06:02:33Z</time>
      </trkpt>
      <trkpt lat="70.439340993762016" lon="24.476500963792205">
        <ele>54.93</ele>
        <time>2017-06-27T06:02:41Z</time>
      </trkpt>
      <trkpt lat="70.437895031645894" lon="24.480746984481812">
        <ele>58.780000000000001</ele>
        <time>2017-06-27T06:02:53Z</time>
      </trkpt>
      <trkpt lat="70.436268020421267" lon="24.487955002114177">
        <ele>61.18</ele>
        <time>2017-06-27T06:03:10Z</time>
      </trkpt>
      <trkpt lat="70.434926999732852" lon="24.49241098947823">
        <ele>64.069999999999993</ele>
        <time>2017-06-27T06:03:21Z</time>
      </trkpt>
      <trkpt lat="70.432875026017427" lon="24.500501034781337">
        <ele>68.870000000000005</ele>
        <time>2017-06-27T06:03:40Z</time>
      </trkpt>
      <trkpt lat="70.432166000828147" lon="24.504537004977465">
        <ele>69.829999999999998</ele>
        <time>2017-06-27T06:03:52Z</time>
      </trkpt>
      <trkpt lat="70.431613968685269" lon="24.508774979040027">
        <ele>71.760000000000005</ele>
        <time>2017-06-27T06:04:03Z</time>
      </trkpt>
      <trkpt lat="70.431482037529349" lon="24.512641970068216">
        <ele>73.680000000000007</ele>
        <time>2017-06-27T06:04:12Z</time>
      </trkpt>
      <trkpt lat="70.431596031412482" lon="24.517371039837599">
        <ele>79.450000000000003</ele>
        <time>2017-06-27T06:04:22Z</time>
      </trkpt>
      <trkpt lat="70.431649005040526" lon="24.517817962914705">
        <ele>80.409999999999997</ele>
        <time>2017-06-27T06:04:23Z</time>
      </trkpt>
      <trkpt lat="70.431718993932009" lon="24.518248038366437">
        <ele>80.890000000000001</ele>
        <time>2017-06-27T06:04:24Z</time>
      </trkpt>
      <trkpt lat="70.431796023622155" lon="24.518678029999137">
        <ele>81.370000000000005</ele>
        <time>2017-06-27T06:04:25Z</time>
      </trkpt>
      <trkpt lat="70.431881016120315" lon="24.519087988883257">
        <ele>81.849999999999994</ele>
        <time>2017-06-27T06:04:26Z</time>
      </trkpt>
      <trkpt lat="70.432436987757683" lon="24.522611992433667">
        <ele>87.620000000000005</ele>
        <time>2017-06-27T06:04:34Z</time>
      </trkpt>
      <trkpt lat="70.432462971657515" lon="24.523109039291739">
        <ele>88.579999999999998</ele>
        <time>2017-06-27T06:04:35Z</time>
      </trkpt>
      <trkpt lat="70.432695988565683" lon="24.529006965458393">
        <ele>97.230000000000004</ele>
        <time>2017-06-27T06:04:47Z</time>
      </trkpt>
      <trkpt lat="70.433245003223419" lon="24.535242011770606">
        <ele>109.25</ele>
        <time>2017-06-27T06:05:00Z</time>
      </trkpt>
      <trkpt lat="70.433683963492513" lon="24.537735963240266">
        <ele>114.53</ele>
        <time>2017-06-27T06:05:07Z</time>
      </trkpt>
      <trkpt lat="70.43384900316596" lon="24.538307022303343">
        <ele>115.98</ele>
        <time>2017-06-27T06:05:09Z</time>
      </trkpt>
      <trkpt lat="70.434559034183621" lon="24.54027702100575">
        <ele>121.73999999999999</ele>
        <time>2017-06-27T06:05:16Z</time>
      </trkpt>
      <trkpt lat="70.434636985883117" lon="24.540629982948303">
        <ele>122.70999999999999</ele>
        <time>2017-06-27T06:05:17Z</time>
      </trkpt>
      <trkpt lat="70.434701023623347" lon="24.54098504036665">
        <ele>124.15000000000001</ele>
        <time>2017-06-27T06:05:18Z</time>
      </trkpt>
      <trkpt lat="70.434755003079772" lon="24.541362980380654">
        <ele>125.11</ele>
        <time>2017-06-27T06:05:19Z</time>
      </trkpt>
      <trkpt lat="70.434804037213326" lon="24.541728012263775">
        <ele>126.06999999999999</ele>
        <time>2017-06-27T06:05:20Z</time>
      </trkpt>
      <trkpt lat="70.434913001954556" lon="24.542440976947546">
        <ele>128.47</ele>
        <time>2017-06-27T06:05:22Z</time>
      </trkpt>
      <trkpt lat="70.434981985017657" lon="24.542781030759215">
        <ele>129.43000000000001</ele>
        <time>2017-06-27T06:05:23Z</time>
      </trkpt>
      <trkpt lat="70.435060020536184" lon="24.543109014630318">
        <ele>130.40000000000001</ele>
        <time>2017-06-27T06:05:24Z</time>
      </trkpt>
      <trkpt lat="70.435148030519485" lon="24.543428029865026">
        <ele>131.36000000000001</ele>
        <time>2017-06-27T06:05:25Z</time>
      </trkpt>
      <trkpt lat="70.435246014967561" lon="24.543732041493058">
        <ele>132.80000000000001</ele>
        <time>2017-06-27T06:05:26Z</time>
      </trkpt>
      <trkpt lat="70.43535296805203" lon="24.544021971523762">
        <ele>133.75999999999999</ele>
        <time>2017-06-27T06:05:27Z</time>
      </trkpt>
      <trkpt lat="70.436836984008551" lon="24.547328967601061">
        <ele>146.74000000000001</ele>
        <time>2017-06-27T06:05:39Z</time>
      </trkpt>
      <trkpt lat="70.437674000859261" lon="24.549652012065053">
        <ele>152.99000000000001</ele>
        <time>2017-06-27T06:05:47Z</time>
      </trkpt>
      <trkpt lat="70.438116984441876" lon="24.551766011863947">
        <ele>156.34999999999999</ele>
        <time>2017-06-27T06:05:56Z</time>
      </trkpt>
      <trkpt lat="70.438372967764735" lon="24.553613970056176">
        <ele>158.75</ele>
        <time>2017-06-27T06:06:06Z</time>
      </trkpt>
      <trkpt lat="70.438372967764735" lon="24.553696028888226">
        <ele>158.75</ele>
        <time>2017-06-27T06:06:16Z</time>
      </trkpt>
      <trkpt lat="70.438370034098625" lon="24.553800970315933">
        <ele>159.24000000000001</ele>
        <time>2017-06-27T06:07:13Z</time>
      </trkpt>
      <trkpt lat="70.438390988856554" lon="24.5538579672575">
        <ele>159.24000000000001</ele>
        <time>2017-06-27T06:07:17Z</time>
      </trkpt>
      <trkpt lat="70.438402974978089" lon="24.553850004449487">
        <ele>159.72</ele>
        <time>2017-06-27T06:07:18Z</time>
      </trkpt>
      <trkpt lat="70.438418984413147" lon="24.553800970315933">
        <ele>159.72</ele>
        <time>2017-06-27T06:07:19Z</time>
      </trkpt>
      <trkpt lat="70.438423007726669" lon="24.553699968382716">
        <ele>159.72</ele>
        <time>2017-06-27T06:07:20Z</time>
      </trkpt>
      <trkpt lat="70.438406998291612" lon="24.553546998649836">
        <ele>159.72</ele>
        <time>2017-06-27T06:07:21Z</time>
      </trkpt>
      <trkpt lat="70.438385037705302" lon="24.553352035582066">
        <ele>159.24000000000001</ele>
        <time>2017-06-27T06:07:22Z</time>
      </trkpt>
      <trkpt lat="70.438042972236872" lon="24.551175003871322">
        <ele>156.34999999999999</ele>
        <time>2017-06-27T06:07:29Z</time>
      </trkpt>
      <trkpt lat="70.437217019498348" lon="24.548062970861793">
        <ele>149.13999999999999</ele>
        <time>2017-06-27T06:07:37Z</time>
      </trkpt>
      <trkpt lat="70.435915980488062" lon="24.545185966417193">
        <ele>137.61000000000001</ele>
        <time>2017-06-27T06:07:45Z</time>
      </trkpt>
      <trkpt lat="70.434894980862737" lon="24.542307034134865">
        <ele>126.06999999999999</ele>
        <time>2017-06-27T06:07:52Z</time>
      </trkpt>
      <trkpt lat="70.434804037213326" lon="24.541833037510514">
        <ele>124.63</ele>
        <time>2017-06-27T06:07:53Z</time>
      </trkpt>
      <trkpt lat="70.434723990038037" lon="24.541347976773977">
        <ele>123.19</ele>
        <time>2017-06-27T06:07:54Z</time>
      </trkpt>
      <trkpt lat="70.434505976736546" lon="24.539939984679222">
        <ele>118.86</ele>
        <time>2017-06-27T06:07:57Z</time>
      </trkpt>
      <trkpt lat="70.434404974803329" lon="24.53952700830996">
        <ele>117.90000000000001</ele>
        <time>2017-06-27T06:07:58Z</time>
      </trkpt>
      <trkpt lat="70.434287041425705" lon="24.539158958941698">
        <ele>116.94</ele>
        <time>2017-06-27T06:07:59Z</time>
      </trkpt>
      <trkpt lat="70.434153014793992" lon="24.538828963413835">
        <ele>115.5</ele>
        <time>2017-06-27T06:08:00Z</time>
      </trkpt>
      <trkpt lat="70.434009013697505" lon="24.538511959835887">
        <ele>114.53</ele>
        <time>2017-06-27T06:08:01Z</time>
      </trkpt>
      <trkpt lat="70.43374003842473" lon="24.537779968231916">
        <ele>112.13</ele>
        <time>2017-06-27T06:08:03Z</time>
      </trkpt>
      <trkpt lat="70.433624032884836" lon="24.537363974377513">
        <ele>111.17</ele>
        <time>2017-06-27T06:08:04Z</time>
      </trkpt>
      <trkpt lat="70.433523030951619" lon="24.536904981359839">
        <ele>110.20999999999999</ele>
        <time>2017-06-27T06:08:05Z</time>
      </trkpt>
      <trkpt lat="70.433434015139937" lon="24.536416986957192">
        <ele>109.25</ele>
        <time>2017-06-27T06:08:06Z</time>
      </trkpt>
      <trkpt lat="70.433352962136269" lon="24.535921029746532">
        <ele>108.29000000000001</ele>
        <time>2017-06-27T06:08:07Z</time>
      </trkpt>
      <trkpt lat="70.432831021025777" lon="24.530672030523419">
        <ele>95.790000000000006</ele>
        <time>2017-06-27T06:08:17Z</time>
      </trkpt>
      <trkpt lat="70.432489961385727" lon="24.524750970304012">
        <ele>87.140000000000001</ele>
        <time>2017-06-27T06:08:28Z</time>
      </trkpt>
      <trkpt lat="70.432374961674213" lon="24.521550005301833">
        <ele>81.370000000000005</ele>
        <time>2017-06-27T06:08:34Z</time>
      </trkpt>
      <trkpt lat="70.432317964732647" lon="24.521058993414044">
        <ele>80.409999999999997</ele>
        <time>2017-06-27T06:08:35Z</time>
      </trkpt>
      <trkpt lat="70.432245964184403" lon="24.520590025931597">
        <ele>79.930000000000007</ele>
        <time>2017-06-27T06:08:36Z</time>
      </trkpt>
      <trkpt lat="70.432159965857863" lon="24.520129021257162">
        <ele>78.969999999999999</ele>
        <time>2017-06-27T06:08:37Z</time>
      </trkpt>
      <trkpt lat="70.432069022208452" lon="24.519683020189404">
        <ele>78.480000000000004</ele>
        <time>2017-06-27T06:08:38Z</time>
      </trkpt>
      <trkpt lat="70.431599970906973" lon="24.516951022669673">
        <ele>74.159999999999997</ele>
        <time>2017-06-27T06:08:44Z</time>
      </trkpt>
      <trkpt lat="70.431558983400464" lon="24.516457999125123">
        <ele>73.200000000000003</ele>
        <time>2017-06-27T06:08:45Z</time>
      </trkpt>
      <trkpt lat="70.431537022814155" lon="24.515948966145515">
        <ele>72.719999999999999</ele>
        <time>2017-06-27T06:08:46Z</time>
      </trkpt>
      <trkpt lat="70.431554960086942" lon="24.51024298556149">
        <ele>67.909999999999997</ele>
        <time>2017-06-27T06:08:57Z</time>
      </trkpt>
      <trkpt lat="70.431940024718642" lon="24.506465010344982">
        <ele>65.510000000000005</ele>
        <time>2017-06-27T06:09:06Z</time>
      </trkpt>
      <trkpt lat="70.432316958904266" lon="24.503924958407879">
        <ele>63.100000000000001</ele>
        <time>2017-06-27T06:09:14Z</time>
      </trkpt>
      <trkpt lat="70.432546036317945" lon="24.502225024625659">
        <ele>61.659999999999997</ele>
        <time>2017-06-27T06:09:23Z</time>
      </trkpt>
      <trkpt lat="70.432541007176042" lon="24.50205403380096">
        <ele>61.659999999999997</ele>
        <time>2017-06-27T06:09:24Z</time>
      </trkpt>
      <trkpt lat="70.4325189627707" lon="24.501915983855724">
        <ele>61.659999999999997</ele>
        <time>2017-06-27T06:09:25Z</time>
      </trkpt>
      <trkpt lat="70.43247596360743" lon="24.501800984144211">
        <ele>61.659999999999997</ele>
        <time>2017-06-27T06:09:26Z</time>
      </trkpt>
      <trkpt lat="70.432404968887568" lon="24.501725966110826">
        <ele>61.659999999999997</ele>
        <time>2017-06-27T06:09:27Z</time>
      </trkpt>
      <trkpt lat="70.432318970561028" lon="24.501651031896472">
        <ele>61.659999999999997</ele>
        <time>2017-06-27T06:09:28Z</time>
      </trkpt>
      <trkpt lat="70.431597959250212" lon="24.500915016978979">
        <ele>58.299999999999997</ele>
        <time>2017-06-27T06:09:34Z</time>
      </trkpt>
      <trkpt lat="70.431440966203809" lon="24.500872017815709">
        <ele>56.859999999999999</ele>
        <time>2017-06-27T06:09:35Z</time>
      </trkpt>
      <trkpt lat="70.431280033662915" lon="24.500878974795341">
        <ele>55.890000000000001</ele>
        <time>2017-06-27T06:09:36Z</time>
      </trkpt>
      <trkpt lat="70.43056296184659" lon="24.500913005322218">
        <ele>52.049999999999997</ele>
        <time>2017-06-27T06:09:40Z</time>
      </trkpt>
      <trkpt lat="70.430373027920723" lon="24.500806974247098">
        <ele>51.57</ele>
        <time>2017-06-27T06:09:41Z</time>
      </trkpt>
      <trkpt lat="70.428972998633981" lon="24.500459041446447">
        <ele>55.409999999999997</ele>
        <time>2017-06-27T06:09:48Z</time>
      </trkpt>
      <trkpt lat="70.426115021109581" lon="24.502045987173915">
        <ele>59.259999999999998</ele>
        <time>2017-06-27T06:10:02Z</time>
      </trkpt>
      <trkpt lat="70.423050010576844" lon="24.503350965678692">
        <ele>62.619999999999997</ele>
        <time>2017-06-27T06:10:16Z</time>
      </trkpt>
      <trkpt lat="70.420835008844733" lon="24.502726010978222">
        <ele>65.510000000000005</ele>
        <time>2017-06-27T06:10:26Z</time>
      </trkpt>
      <trkpt lat="70.417571011930704" lon="24.501582970842719">
        <ele>69.829999999999998</ele>
        <time>2017-06-27T06:10:40Z</time>
      </trkpt>
      <trkpt lat="70.413999985903502" lon="24.499788992106915">
        <ele>80.890000000000001</ele>
        <time>2017-06-27T06:10:55Z</time>
      </trkpt>
      <trkpt lat="70.412109028548002" lon="24.497871967032552">
        <ele>76.560000000000002</ele>
        <time>2017-06-27T06:11:03Z</time>
      </trkpt>
      <trkpt lat="70.408731959760189" lon="24.49457997456193">
        <ele>74.640000000000001</ele>
        <time>2017-06-27T06:11:17Z</time>
      </trkpt>
      <trkpt lat="70.405843975022435" lon="24.490003036335111">
        <ele>81.849999999999994</ele>
        <time>2017-06-27T06:11:31Z</time>
      </trkpt>
      <trkpt lat="70.404085032641888" lon="24.485781993716955">
        <ele>87.140000000000001</ele>
        <time>2017-06-27T06:11:41Z</time>
      </trkpt>
      <trkpt lat="70.403108960017562" lon="24.481755997985601">
        <ele>83.769999999999996</ele>
        <time>2017-06-27T06:11:48Z</time>
      </trkpt>
      <trkpt lat="70.401339959353209" lon="24.472317975014448">
        <ele>83.769999999999996</ele>
        <time>2017-06-27T06:12:02Z</time>
      </trkpt>
      <trkpt lat="70.399846974760294" lon="24.464999986812472">
        <ele>86.180000000000007</ele>
        <time>2017-06-27T06:12:13Z</time>
      </trkpt>
      <trkpt lat="70.398221975192428" lon="24.457114040851593">
        <ele>103</ele>
        <time>2017-06-27T06:12:25Z</time>
      </trkpt>
      <trkpt lat="70.396872991696" lon="24.451391967013478">
        <ele>111.65000000000001</ele>
        <time>2017-06-27T06:12:35Z</time>
      </trkpt>
      <trkpt lat="70.395628027617931" lon="24.448439022526145">
        <ele>115.98</ele>
        <time>2017-06-27T06:12:42Z</time>
      </trkpt>
      <trkpt lat="70.394258005544543" lon="24.444142039865255">
        <ele>119.81999999999999</ele>
        <time>2017-06-27T06:12:51Z</time>
      </trkpt>
      <trkpt lat="70.393215967342257" lon="24.442657018080354">
        <ele>120.3</ele>
        <time>2017-06-27T06:12:57Z</time>
      </trkpt>
      <trkpt lat="70.391741003841162" lon="24.442398017272353">
        <ele>116.94</ele>
        <time>2017-06-27T06:13:04Z</time>
      </trkpt>
      <trkpt lat="70.389564977958798" lon="24.443628983572125">
        <ele>113.09</ele>
        <time>2017-06-27T06:13:14Z</time>
      </trkpt>
      <trkpt lat="70.388332000002265" lon="24.446136010810733">
        <ele>118.38</ele>
        <time>2017-06-27T06:13:21Z</time>
      </trkpt>
      <trkpt lat="70.386786963790655" lon="24.44903296418488">
        <ele>124.63</ele>
        <time>2017-06-27T06:13:30Z</time>
      </trkpt>
      <trkpt lat="70.385160958394408" lon="24.450633991509676">
        <ele>131.36000000000001</ele>
        <time>2017-06-27T06:13:39Z</time>
      </trkpt>
      <trkpt lat="70.384972030296922" lon="24.450625022873282">
        <ele>132.31999999999999</ele>
        <time>2017-06-27T06:13:40Z</time>
      </trkpt>
      <trkpt lat="70.384783018380404" lon="24.450556039810181">
        <ele>132.31999999999999</ele>
        <time>2017-06-27T06:13:41Z</time>
      </trkpt>
      <trkpt lat="70.384595012292266" lon="24.450430981814861">
        <ele>132.80000000000001</ele>
        <time>2017-06-27T06:13:42Z</time>
      </trkpt>
      <trkpt lat="70.384413963183761" lon="24.450249010697007">
        <ele>133.28</ele>
        <time>2017-06-27T06:13:43Z</time>
      </trkpt>
      <trkpt lat="70.384235009551048" lon="24.450020017102361">
        <ele>133.28</ele>
        <time>2017-06-27T06:13:44Z</time>
      </trkpt>
      <trkpt lat="70.384062007069588" lon="24.449745006859303">
        <ele>133.75999999999999</ele>
        <time>2017-06-27T06:13:45Z</time>
      </trkpt>
      <trkpt lat="70.383892022073269" lon="24.449419034644961">
        <ele>133.28</ele>
        <time>2017-06-27T06:13:46Z</time>
      </trkpt>
      <trkpt lat="70.383731005713344" lon="24.449046961963177">
        <ele>133.28</ele>
        <time>2017-06-27T06:13:47Z</time>
      </trkpt>
      <trkpt lat="70.383581975474954" lon="24.448614958673716">
        <ele>132.80000000000001</ele>
        <time>2017-06-27T06:13:48Z</time>
      </trkpt>
      <trkpt lat="70.383435040712357" lon="24.448154959827662">
        <ele>132.31999999999999</ele>
        <time>2017-06-27T06:13:49Z</time>
      </trkpt>
      <trkpt lat="70.38329497911036" lon="24.447661014273763">
        <ele>131.84</ele>
        <time>2017-06-27T06:13:50Z</time>
      </trkpt>
      <trkpt lat="70.382293006405234" lon="24.443399989977479">
        <ele>121.26000000000001</ele>
        <time>2017-06-27T06:13:58Z</time>
      </trkpt>
      <trkpt lat="70.380990039557219" lon="24.439027989283204">
        <ele>106.36</ele>
        <time>2017-06-27T06:14:06Z</time>
      </trkpt>
      <trkpt lat="70.379567965865135" lon="24.431600030511618">
        <ele>104.92</ele>
        <time>2017-06-27T06:14:17Z</time>
      </trkpt>
      <trkpt lat="70.377580029889941" lon="24.423035988584161">
        <ele>110.20999999999999</ele>
        <time>2017-06-27T06:14:30Z</time>
      </trkpt>
      <trkpt lat="70.37478600628674" lon="24.410717021673918">
        <ele>128.94999999999999</ele>
        <time>2017-06-27T06:14:49Z</time>
      </trkpt>
      <trkpt lat="70.372636970132589" lon="24.401876041665673">
        <ele>135.68000000000001</ele>
        <time>2017-06-27T06:15:03Z</time>
      </trkpt>
      <trkpt lat="70.369225032627583" lon="24.386836979538202">
        <ele>147.69999999999999</ele>
        <time>2017-06-27T06:15:26Z</time>
      </trkpt>
      <trkpt lat="70.367756020277739" lon="24.381557973101735">
        <ele>161.16</ele>
        <time>2017-06-27T06:15:35Z</time>
      </trkpt>
      <trkpt lat="70.36597796715796" lon="24.377458970993757">
        <ele>167.88999999999999</ele>
        <time>2017-06-27T06:15:44Z</time>
      </trkpt>
      <trkpt lat="70.362809021025896" lon="24.371020998805761">
        <ele>157.78999999999999</ele>
        <time>2017-06-27T06:15:58Z</time>
      </trkpt>
      <trkpt lat="70.359541000798345" lon="24.363500000908971">
        <ele>157.31</ele>
        <time>2017-06-27T06:16:13Z</time>
      </trkpt>
      <trkpt lat="70.357112009078264" lon="24.35754700563848">
        <ele>150.09999999999999</ele>
        <time>2017-06-27T06:16:25Z</time>
      </trkpt>
      <trkpt lat="70.35673700273037" lon="24.356805961579084">
        <ele>149.62</ele>
        <time>2017-06-27T06:16:27Z</time>
      </trkpt>
      <trkpt lat="70.356538016349077" lon="24.356523994356394">
        <ele>149.62</ele>
        <time>2017-06-27T06:16:28Z</time>
      </trkpt>
      <trkpt lat="70.356337018311024" lon="24.356286032125354">
        <ele>149.13999999999999</ele>
        <time>2017-06-27T06:16:29Z</time>
      </trkpt>
      <trkpt lat="70.356133002787828" lon="24.356124009937048">
        <ele>149.13999999999999</ele>
        <time>2017-06-27T06:16:30Z</time>
      </trkpt>
      <trkpt lat="70.355922030285001" lon="24.356014961376786">
        <ele>149.13999999999999</ele>
        <time>2017-06-27T06:16:31Z</time>
      </trkpt>
      <trkpt lat="70.355712985619903" lon="24.355959976091981">
        <ele>149.13999999999999</ele>
        <time>2017-06-27T06:16:32Z</time>
      </trkpt>
      <trkpt lat="70.355495978146791" lon="24.355952013283968">
        <ele>149.13999999999999</ele>
        <time>2017-06-27T06:16:33Z</time>
      </trkpt>
      <trkpt lat="70.35527503117919" lon="24.356004986912012">
        <ele>148.66</ele>
        <time>2017-06-27T06:16:34Z</time>
      </trkpt>
      <trkpt lat="70.355049977079034" lon="24.356117974966764">
        <ele>148.18000000000001</ele>
        <time>2017-06-27T06:16:35Z</time>
      </trkpt>
      <trkpt lat="70.354824000969529" lon="24.356262981891632">
        <ele>148.18000000000001</ele>
        <time>2017-06-27T06:16:36Z</time>
      </trkpt>
      <trkpt lat="70.352325020357966" lon="24.357864009216428">
        <ele>146.74000000000001</ele>
        <time>2017-06-27T06:16:47Z</time>
      </trkpt>
      <trkpt lat="70.35209896042943" lon="24.357834002003074">
        <ele>146.74000000000001</ele>
        <time>2017-06-27T06:16:48Z</time>
      </trkpt>
      <trkpt lat="70.351874995976686" lon="24.357742974534631">
        <ele>146.74000000000001</ele>
        <time>2017-06-27T06:16:49Z</time>
      </trkpt>
      <trkpt lat="70.351653965190053" lon="24.357579024508595">
        <ele>146.25999999999999</ele>
        <time>2017-06-27T06:16:50Z</time>
      </trkpt>
      <trkpt lat="70.351435029879212" lon="24.357360005378723">
        <ele>146.25999999999999</ele>
        <time>2017-06-27T06:16:51Z</time>
      </trkpt>
      <trkpt lat="70.351219028234482" lon="24.357104022055864">
        <ele>145.78</ele>
        <time>2017-06-27T06:16:52Z</time>
      </trkpt>
      <trkpt lat="70.351014006882906" lon="24.356791041791439">
        <ele>145.78</ele>
        <time>2017-06-27T06:16:53Z</time>
      </trkpt>
      <trkpt lat="70.350817032158375" lon="24.356417041271925">
        <ele>145.30000000000001</ele>
        <time>2017-06-27T06:16:54Z</time>
      </trkpt>
      <trkpt lat="70.350630031898618" lon="24.355996018275619">
        <ele>144.81999999999999</ele>
        <time>2017-06-27T06:16:55Z</time>
      </trkpt>
      <trkpt lat="70.350446971133351" lon="24.355550017207861">
        <ele>144.81999999999999</ele>
        <time>2017-06-27T06:16:56Z</time>
      </trkpt>
      <trkpt lat="70.348281003534794" lon="24.349947972223163">
        <ele>138.56999999999999</ele>
        <time>2017-06-27T06:17:07Z</time>
      </trkpt>
      <trkpt lat="70.346092991530895" lon="24.3434530030936">
        <ele>139.05000000000001</ele>
        <time>2017-06-27T06:17:18Z</time>
      </trkpt>
      <trkpt lat="70.343968011438847" lon="24.335691025480628">
        <ele>141.93000000000001</ele>
        <time>2017-06-27T06:17:30Z</time>
      </trkpt>
      <trkpt lat="70.3409259673208" lon="24.32280401699245">
        <ele>145.78</ele>
        <time>2017-06-27T06:17:49Z</time>
      </trkpt>
      <trkpt lat="70.337804965674877" lon="24.308445984497666">
        <ele>156.34999999999999</ele>
        <time>2017-06-27T06:18:10Z</time>
      </trkpt>
      <trkpt lat="70.334466034546494" lon="24.292517015710473">
        <ele>159.72</ele>
        <time>2017-06-27T06:18:33Z</time>
      </trkpt>
      <trkpt lat="70.332789989188313" lon="24.281501015648246">
        <ele>154.43000000000001</ele>
        <time>2017-06-27T06:18:48Z</time>
      </trkpt>
      <trkpt lat="70.330897020176053" lon="24.26967297680676">
        <ele>165.47999999999999</ele>
        <time>2017-06-27T06:19:05Z</time>
      </trkpt>
      <trkpt lat="70.329436976462603" lon="24.263876974582672">
        <ele>165.47999999999999</ele>
        <time>2017-06-27T06:19:14Z</time>
      </trkpt>
      <trkpt lat="70.326339025050402" lon="24.253502022475004">
        <ele>175.09999999999999</ele>
        <time>2017-06-27T06:19:31Z</time>
      </trkpt>
      <trkpt lat="70.323834009468555" lon="24.247095985338092">
        <ele>173.16999999999999</ele>
        <time>2017-06-27T06:19:43Z</time>
      </trkpt>
      <trkpt lat="70.32169796526432" lon="24.24109797924757">
        <ele>174.13999999999999</ele>
        <time>2017-06-27T06:19:54Z</time>
      </trkpt>
      <trkpt lat="70.320274969562888" lon="24.235073989257216">
        <ele>175.09999999999999</ele>
        <time>2017-06-27T06:20:03Z</time>
      </trkpt>
      <trkpt lat="70.318073965609074" lon="24.225250985473394">
        <ele>183.27000000000001</ele>
        <time>2017-06-27T06:20:18Z</time>
      </trkpt>
      <trkpt lat="70.316514009609818" lon="24.221070008352399">
        <ele>176.53999999999999</ele>
        <time>2017-06-27T06:20:26Z</time>
      </trkpt>
      <trkpt lat="70.313268033787608" lon="24.212658014148474">
        <ele>173.66</ele>
        <time>2017-06-27T06:20:42Z</time>
      </trkpt>
      <trkpt lat="70.311027970165014" lon="24.204522036015987">
        <ele>177.02000000000001</ele>
        <time>2017-06-27T06:20:55Z</time>
      </trkpt>
      <trkpt lat="70.307774031534791" lon="24.192783012986183">
        <ele>180.38</ele>
        <time>2017-06-27T06:21:14Z</time>
      </trkpt>
      <trkpt lat="70.306432005017996" lon="24.190376987680793">
        <ele>182.78999999999999</ele>
        <time>2017-06-27T06:21:20Z</time>
      </trkpt>
      <trkpt lat="70.302516985684633" lon="24.18463203124702">
        <ele>198.16999999999999</ele>
        <time>2017-06-27T06:21:36Z</time>
      </trkpt>
      <trkpt lat="70.299709970131516" lon="24.181220009922981">
        <ele>196.25</ele>
        <time>2017-06-27T06:21:47Z</time>
      </trkpt>
      <trkpt lat="70.298126041889191" lon="24.178292965516448">
        <ele>202.49000000000001</ele>
        <time>2017-06-27T06:21:54Z</time>
      </trkpt>
      <trkpt lat="70.295705012977123" lon="24.172767028212547">
        <ele>213.55000000000001</ele>
        <time>2017-06-27T06:22:06Z</time>
      </trkpt>
      <trkpt lat="70.294621987268329" lon="24.169493978843093">
        <ele>214.03</ele>
        <time>2017-06-27T06:22:13Z</time>
      </trkpt>
      <trkpt lat="70.294252010062337" lon="24.166336013004184">
        <ele>213.55000000000001</ele>
        <time>2017-06-27T06:22:19Z</time>
      </trkpt>
      <trkpt lat="70.294156037271023" lon="24.163812976330519">
        <ele>213.55000000000001</ele>
        <time>2017-06-27T06:22:25Z</time>
      </trkpt>
      <trkpt lat="70.294154025614262" lon="24.163662018254399">
        <ele>212.11000000000001</ele>
        <time>2017-06-27T06:22:30Z</time>
      </trkpt>
      <trkpt lat="70.29415100812912" lon="24.163576019927859">
        <ele>212.11000000000001</ele>
        <time>2017-06-27T06:23:11Z</time>
      </trkpt>
      <trkpt lat="70.294090993702412" lon="24.162047998979688">
        <ele>212.59</ele>
        <time>2017-06-27T06:23:17Z</time>
      </trkpt>
      <trkpt lat="70.294156959280372" lon="24.158752989023924">
        <ele>212.59</ele>
        <time>2017-06-27T06:23:25Z</time>
      </trkpt>
      <trkpt lat="70.294746961444616" lon="24.155532997101545">
        <ele>213.55000000000001</ele>
        <time>2017-06-27T06:23:33Z</time>
      </trkpt>
      <trkpt lat="70.296054035425186" lon="24.152155006304383">
        <ele>216.91</ele>
        <time>2017-06-27T06:23:46Z</time>
      </trkpt>
      <trkpt lat="70.296952994540334" lon="24.148958986625075">
        <ele>219.31999999999999</ele>
        <time>2017-06-27T06:23:55Z</time>
      </trkpt>
      <trkpt lat="70.297292964532971" lon="24.14548602886498">
        <ele>219.80000000000001</ele>
        <time>2017-06-27T06:24:01Z</time>
      </trkpt>
      <trkpt lat="70.297105964273214" lon="24.14153496734798">
        <ele>217.40000000000001</ele>
        <time>2017-06-27T06:24:07Z</time>
      </trkpt>
      <trkpt lat="70.296371039003134" lon="24.137847013771534">
        <ele>214.99000000000001</ele>
        <time>2017-06-27T06:24:13Z</time>
      </trkpt>
      <trkpt lat="70.294569013640285" lon="24.131191028282046">
        <ele>215.47</ele>
        <time>2017-06-27T06:24:24Z</time>
      </trkpt>
      <trkpt lat="70.291568962857127" lon="24.121235003694892">
        <ele>221.24000000000001</ele>
        <time>2017-06-27T06:24:40Z</time>
      </trkpt>
      <trkpt lat="70.288794972002506" lon="24.110670033842325">
        <ele>228.44999999999999</ele>
        <time>2017-06-27T06:24:56Z</time>
      </trkpt>
      <trkpt lat="70.287667019292712" lon="24.106681002303958">
        <ele>231.33000000000001</ele>
        <time>2017-06-27T06:25:03Z</time>
      </trkpt>
      <trkpt lat="70.286218039691448" lon="24.103682041168213">
        <ele>234.22</ele>
        <time>2017-06-27T06:25:10Z</time>
      </trkpt>
      <trkpt lat="70.2842450235039" lon="24.101669965311885">
        <ele>236.13999999999999</ele>
        <time>2017-06-27T06:25:18Z</time>
      </trkpt>
      <trkpt lat="70.281314039602876" lon="24.099592007696629">
        <ele>237.09999999999999</ele>
        <time>2017-06-27T06:25:30Z</time>
      </trkpt>
      <trkpt lat="70.279712006449699" lon="24.100135993212461">
        <ele>236.62</ele>
        <time>2017-06-27T06:25:36Z</time>
      </trkpt>
      <trkpt lat="70.276709022000432" lon="24.101023972034454">
        <ele>234.69999999999999</ele>
        <time>2017-06-27T06:25:47Z</time>
      </trkpt>
      <trkpt lat="70.271893031895161" lon="24.101645993068814">
        <ele>240.47</ele>
        <time>2017-06-27T06:26:05Z</time>
      </trkpt>
      <trkpt lat="70.268902033567429" lon="24.100716020911932">
        <ele>235.18000000000001</ele>
        <time>2017-06-27T06:26:16Z</time>
      </trkpt>
      <trkpt lat="70.265451958402991" lon="24.098625993356109">
        <ele>248.63999999999999</ele>
        <time>2017-06-27T06:26:29Z</time>
      </trkpt>
      <trkpt lat="70.26102103292942" lon="24.096031039953232">
        <ele>256.32999999999998</ele>
        <time>2017-06-27T06:26:46Z</time>
      </trkpt>
      <trkpt lat="70.256476029753685" lon="24.093454023823142">
        <ele>251.03999999999999</ele>
        <time>2017-06-27T06:27:02Z</time>
      </trkpt>
      <trkpt lat="70.250604003667831" lon="24.090123977512121">
        <ele>254.88999999999999</ele>
        <time>2017-06-27T06:27:23Z</time>
      </trkpt>
      <trkpt lat="70.243771998211741" lon="24.08629797399044">
        <ele>262.57999999999998</ele>
        <time>2017-06-27T06:27:48Z</time>
      </trkpt>
      <trkpt lat="70.237806010991335" lon="24.082863992080092">
        <ele>280.83999999999997</ele>
        <time>2017-06-27T06:28:11Z</time>
      </trkpt>
      <trkpt lat="70.234001968055964" lon="24.080500965937972">
        <ele>266.42000000000002</ele>
        <time>2017-06-27T06:28:25Z</time>
      </trkpt>
      <trkpt lat="70.230066999793053" lon="24.078585030511022">
        <ele>269.79000000000002</ele>
        <time>2017-06-27T06:28:39Z</time>
      </trkpt>
      <trkpt lat="70.225418983027339" lon="24.077408965677023">
        <ele>290.45999999999998</ele>
        <time>2017-06-27T06:28:56Z</time>
      </trkpt>
      <trkpt lat="70.220024976879358" lon="24.075969960540533">
        <ele>286.13</ele>
        <time>2017-06-27T06:29:15Z</time>
      </trkpt>
      <trkpt lat="70.215411996468902" lon="24.073722017928958">
        <ele>279.39999999999998</ele>
        <time>2017-06-27T06:29:31Z</time>
      </trkpt>
      <trkpt lat="70.210793986916542" lon="24.071481032297015">
        <ele>279.39999999999998</ele>
        <time>2017-06-27T06:29:48Z</time>
      </trkpt>
      <trkpt lat="70.207323962822556" lon="24.069582028314471">
        <ele>292.38</ele>
        <time>2017-06-27T06:30:01Z</time>
      </trkpt>
      <trkpt lat="70.204245038330555" lon="24.06680703163147">
        <ele>283.25</ele>
        <time>2017-06-27T06:30:12Z</time>
      </trkpt>
      <trkpt lat="70.199196031317115" lon="24.062105035409331">
        <ele>282.76999999999998</ele>
        <time>2017-06-27T06:30:30Z</time>
      </trkpt>
      <trkpt lat="70.192357990890741" lon="24.055748032405972">
        <ele>281.80000000000001</ele>
        <time>2017-06-27T06:30:54Z</time>
      </trkpt>
      <trkpt lat="70.190760986879468" lon="24.053477039560676">
        <ele>283.73000000000002</ele>
        <time>2017-06-27T06:31:00Z</time>
      </trkpt>
      <trkpt lat="70.189721966162324" lon="24.050434995442629">
        <ele>287.56999999999999</ele>
        <time>2017-06-27T06:31:05Z</time>
      </trkpt>
      <trkpt lat="70.188886038959026" lon="24.045908013358712">
        <ele>287.56999999999999</ele>
        <time>2017-06-27T06:31:11Z</time>
      </trkpt>
      <trkpt lat="70.187557004392147" lon="24.035325022414327">
        <ele>284.20999999999998</ele>
        <time>2017-06-27T06:31:24Z</time>
      </trkpt>
      <trkpt lat="70.187360029667616" lon="24.028616985306144">
        <ele>284.20999999999998</ele>
        <time>2017-06-27T06:31:32Z</time>
      </trkpt>
      <trkpt lat="70.187338991090655" lon="24.014495993033051">
        <ele>301.02999999999997</ele>
        <time>2017-06-27T06:31:49Z</time>
      </trkpt>
      <trkpt lat="70.187814999371767" lon="24.008366977795959">
        <ele>296.69999999999999</ele>
        <time>2017-06-27T06:31:57Z</time>
      </trkpt>
      <trkpt lat="70.189189966768026" lon="23.992519984021783">
        <ele>293.33999999999997</ele>
        <time>2017-06-27T06:32:17Z</time>
      </trkpt>
      <trkpt lat="70.189272025600076" lon="23.988106995820999">
        <ele>302.47000000000003</ele>
        <time>2017-06-27T06:32:23Z</time>
      </trkpt>
      <trkpt lat="70.189215028658509" lon="23.98744398728013">
        <ele>303.43000000000001</ele>
        <time>2017-06-27T06:32:24Z</time>
      </trkpt>
      <trkpt lat="70.18913296982646" lon="23.986806962639093">
        <ele>303.91000000000003</ele>
        <time>2017-06-27T06:32:25Z</time>
      </trkpt>
      <trkpt lat="70.189026016741991" lon="23.986185025423765">
        <ele>304.88</ele>
        <time>2017-06-27T06:32:26Z</time>
      </trkpt>
      <trkpt lat="70.188890984281898" lon="23.985588988289237">
        <ele>305.36000000000001</ele>
        <time>2017-06-27T06:32:27Z</time>
      </trkpt>
      <trkpt lat="70.188737008720636" lon="23.98499202914536">
        <ele>305.36000000000001</ele>
        <time>2017-06-27T06:32:28Z</time>
      </trkpt>
      <trkpt lat="70.187249975278974" lon="23.979094019159675">
        <ele>311.12</ele>
        <time>2017-06-27T06:32:37Z</time>
      </trkpt>
      <trkpt lat="70.184563994407654" lon="23.964913012459874">
        <ele>326.01999999999998</ele>
        <time>2017-06-27T06:32:56Z</time>
      </trkpt>
      <trkpt lat="70.182454017922282" lon="23.952862014994025">
        <ele>328.43000000000001</ele>
        <time>2017-06-27T06:33:12Z</time>
      </trkpt>
      <trkpt lat="70.179942967370152" lon="23.936726013198495">
        <ele>342.85000000000002</ele>
        <time>2017-06-27T06:33:33Z</time>
      </trkpt>
      <trkpt lat="70.178345963358879" lon="23.925154963508248">
        <ele>347.17000000000002</ele>
        <time>2017-06-27T06:33:48Z</time>
      </trkpt>
      <trkpt lat="70.177418002858758" lon="23.914234014227986">
        <ele>346.20999999999998</ele>
        <time>2017-06-27T06:34:01Z</time>
      </trkpt>
      <trkpt lat="70.176754994317889" lon="23.901709020137787">
        <ele>360.63</ele>
        <time>2017-06-27T06:34:16Z</time>
      </trkpt>
      <trkpt lat="70.176399014890194" lon="23.891217978671193">
        <ele>380.81999999999999</ele>
        <time>2017-06-27T06:34:29Z</time>
      </trkpt>
      <trkpt lat="70.176691962406039" lon="23.882325030863285">
        <ele>377.94</ele>
        <time>2017-06-27T06:34:40Z</time>
      </trkpt>
      <trkpt lat="70.177210969850421" lon="23.87017797678709">
        <ele>367.83999999999997</ele>
        <time>2017-06-27T06:34:55Z</time>
      </trkpt>
      <trkpt lat="70.177899962291121" lon="23.865075996145606">
        <ele>365.44</ele>
        <time>2017-06-27T06:35:02Z</time>
      </trkpt>
      <trkpt lat="70.179382972419262" lon="23.858462003991008">
        <ele>354.38</ele>
        <time>2017-06-27T06:35:12Z</time>
      </trkpt>
      <trkpt lat="70.180593989789486" lon="23.852098966017365">
        <ele>340.92000000000002</ele>
        <time>2017-06-27T06:35:21Z</time>
      </trkpt>
      <trkpt lat="70.181248029693961" lon="23.845794014632702">
        <ele>329.38999999999999</ele>
        <time>2017-06-27T06:35:29Z</time>
      </trkpt>
      <trkpt lat="70.181523039937019" lon="23.838079981505871">
        <ele>320.74000000000001</ele>
        <time>2017-06-27T06:35:38Z</time>
      </trkpt>
      <trkpt lat="70.181254986673594" lon="23.830982018262148">
        <ele>317.37</ele>
        <time>2017-06-27T06:35:46Z</time>
      </trkpt>
      <trkpt lat="70.180588960647583" lon="23.824009029194713">
        <ele>318.81</ele>
        <time>2017-06-27T06:35:54Z</time>
      </trkpt>
      <trkpt lat="70.17950501292944" lon="23.817454967647791">
        <ele>322.18000000000001</ele>
        <time>2017-06-27T06:36:02Z</time>
      </trkpt>
      <trkpt lat="70.175840025767684" lon="23.797752968966961">
        <ele>319.77999999999997</ele>
        <time>2017-06-27T06:36:26Z</time>
      </trkpt>
      <trkpt lat="70.172881968319416" lon="23.781778989359736">
        <ele>320.74000000000001</ele>
        <time>2017-06-27T06:36:46Z</time>
      </trkpt>
      <trkpt lat="70.169599028304219" lon="23.763954034075141">
        <ele>330.35000000000002</ele>
        <time>2017-06-27T06:37:09Z</time>
      </trkpt>
      <trkpt lat="70.167935974895954" lon="23.756739981472492">
        <ele>331.79000000000002</ele>
        <time>2017-06-27T06:37:19Z</time>
      </trkpt>
      <trkpt lat="70.166007969528437" lon="23.751108013093472">
        <ele>339</ele>
        <time>2017-06-27T06:37:28Z</time>
      </trkpt>
      <trkpt lat="70.16399497166276" lon="23.747298019006848">
        <ele>344.29000000000002</ele>
        <time>2017-06-27T06:37:36Z</time>
      </trkpt>
      <trkpt lat="70.161576960235834" lon="23.742164019495249">
        <ele>348.62</ele>
        <time>2017-06-27T06:37:46Z</time>
      </trkpt>
      <trkpt lat="70.157661018893123" lon="23.730832021683455">
        <ele>360.14999999999998</ele>
        <time>2017-06-27T06:38:04Z</time>
      </trkpt>
      <trkpt lat="70.152497012168169" lon="23.715948024764657">
        <ele>358.70999999999998</ele>
        <time>2017-06-27T06:38:27Z</time>
      </trkpt>
      <trkpt lat="70.149209965020418" lon="23.705791002139449">
        <ele>358.23000000000002</ele>
        <time>2017-06-27T06:38:42Z</time>
      </trkpt>
      <trkpt lat="70.147169977426529" lon="23.698966037482023">
        <ele>355.33999999999997</ele>
        <time>2017-06-27T06:38:52Z</time>
      </trkpt>
      <trkpt lat="70.144688012078404" lon="23.690895019099116">
        <ele>349.10000000000002</ele>
        <time>2017-06-27T06:39:04Z</time>
      </trkpt>
      <trkpt lat="70.142612988129258" lon="23.684325031936169">
        <ele>326.99000000000001</ele>
        <time>2017-06-27T06:39:14Z</time>
      </trkpt>
      <trkpt lat="70.141258975490928" lon="23.681549029424787">
        <ele>323.62</ele>
        <time>2017-06-27T06:39:20Z</time>
      </trkpt>
      <trkpt lat="70.140238981693983" lon="23.678887020796537">
        <ele>319.77999999999997</ele>
        <time>2017-06-27T06:39:26Z</time>
      </trkpt>
      <trkpt lat="70.138825960457325" lon="23.673553029075265">
        <ele>311.60000000000002</ele>
        <time>2017-06-27T06:39:37Z</time>
      </trkpt>
      <trkpt lat="70.137985004112124" lon="23.668446019291878">
        <ele>307.75999999999999</ele>
        <time>2017-06-27T06:39:46Z</time>
      </trkpt>
      <trkpt lat="70.137146981433034" lon="23.661625999957323">
        <ele>300.06999999999999</ele>
        <time>2017-06-27T06:39:55Z</time>
      </trkpt>
      <trkpt lat="70.135656008496881" lon="23.651793021708727">
        <ele>289.49000000000001</ele>
        <time>2017-06-27T06:40:08Z</time>
      </trkpt>
      <trkpt lat="70.134047018364072" lon="23.64369903691113">
        <ele>278.44</ele>
        <time>2017-06-27T06:40:20Z</time>
      </trkpt>
      <trkpt lat="70.133096007630229" lon="23.637481005862355">
        <ele>265.94</ele>
        <time>2017-06-27T06:40:29Z</time>
      </trkpt>
      <trkpt lat="70.132858967408538" lon="23.635388966649771">
        <ele>260.64999999999998</ele>
        <time>2017-06-27T06:40:32Z</time>
      </trkpt>
      <trkpt lat="70.132745979353786" lon="23.63474297337234">
        <ele>258.73000000000002</ele>
        <time>2017-06-27T06:40:33Z</time>
      </trkpt>
      <trkpt lat="70.132618993520737" lon="23.634130004793406">
        <ele>257.29000000000002</ele>
        <time>2017-06-27T06:40:34Z</time>
      </trkpt>
      <trkpt lat="70.131953973323107" lon="23.630455965176225">
        <ele>248.63999999999999</ele>
        <time>2017-06-27T06:40:40Z</time>
      </trkpt>
      <trkpt lat="70.131324995309114" lon="23.625058019533753">
        <ele>234.22</ele>
        <time>2017-06-27T06:40:48Z</time>
      </trkpt>
      <trkpt lat="70.130162006244063" lon="23.619654960930347">
        <ele>218.36000000000001</ele>
        <time>2017-06-27T06:40:57Z</time>
      </trkpt>
      <trkpt lat="70.129721034318209" lon="23.617264023050666">
        <ele>212.59</ele>
        <time>2017-06-27T06:41:03Z</time>
      </trkpt>
      <trkpt lat="70.128905978053808" lon="23.61364203505218">
        <ele>203.46000000000001</ele>
        <time>2017-06-27T06:41:10Z</time>
      </trkpt>
      <trkpt lat="70.127292964607477" lon="23.60668295994401">
        <ele>195.28</ele>
        <time>2017-06-27T06:41:21Z</time>
      </trkpt>
      <trkpt lat="70.126454019919038" lon="23.603133978322148">
        <ele>191.91999999999999</ele>
        <time>2017-06-27T06:41:28Z</time>
      </trkpt>
      <trkpt lat="70.125722028315067" lon="23.600331991910934">
        <ele>189.52000000000001</ele>
        <time>2017-06-27T06:41:36Z</time>
      </trkpt>
      <trkpt lat="70.12493303976953" lon="23.597558001056314">
        <ele>187.11000000000001</ele>
        <time>2017-06-27T06:41:44Z</time>
      </trkpt>
      <trkpt lat="70.123498979955912" lon="23.592734970152378">
        <ele>177.5</ele>
        <time>2017-06-27T06:41:54Z</time>
      </trkpt>
      <trkpt lat="70.121802985668182" lon="23.587524024769664">
        <ele>172.69</ele>
        <time>2017-06-27T06:42:04Z</time>
      </trkpt>
      <trkpt lat="70.119667025282979" lon="23.581240028142929">
        <ele>166.93000000000001</ele>
        <time>2017-06-27T06:42:18Z</time>
      </trkpt>
      <trkpt lat="70.117874974384904" lon="23.576747998595238">
        <ele>164.52000000000001</ele>
        <time>2017-06-27T06:42:28Z</time>
      </trkpt>
      <trkpt lat="70.114747015759349" lon="23.570249006152153">
        <ele>161.63999999999999</ele>
        <time>2017-06-27T06:42:44Z</time>
      </trkpt>
      <trkpt lat="70.112340990453959" lon="23.563438039273024">
        <ele>162.12</ele>
        <time>2017-06-27T06:42:58Z</time>
      </trkpt>
      <trkpt lat="70.109942005947232" lon="23.55803900398314">
        <ele>161.16</ele>
        <time>2017-06-27T06:43:11Z</time>
      </trkpt>
      <trkpt lat="70.108641972765326" lon="23.555944031104445">
        <ele>161.16</ele>
        <time>2017-06-27T06:43:18Z</time>
      </trkpt>
      <trkpt lat="70.108312983065844" lon="23.555357968434691">
        <ele>160.68000000000001</ele>
        <time>2017-06-27T06:43:20Z</time>
      </trkpt>
      <trkpt lat="70.108164036646485" lon="23.554982040077448">
        <ele>160.68000000000001</ele>
        <time>2017-06-27T06:43:21Z</time>
      </trkpt>
      <trkpt lat="70.108033027499914" lon="23.554553976282477">
        <ele>160.68000000000001</ele>
        <time>2017-06-27T06:43:22Z</time>
      </trkpt>
      <trkpt lat="70.107674030587077" lon="23.55324799194932">
        <ele>159.72</ele>
        <time>2017-06-27T06:43:25Z</time>
      </trkpt>
      <trkpt lat="70.107548972591758" lon="23.552933000028133">
        <ele>159.72</ele>
        <time>2017-06-27T06:43:26Z</time>
      </trkpt>
      <trkpt lat="70.107415029779077" lon="23.55271004140377">
        <ele>159.72</ele>
        <time>2017-06-27T06:43:27Z</time>
      </trkpt>
      <trkpt lat="70.10727496817708" lon="23.552576014772058">
        <ele>159.72</ele>
        <time>2017-06-27T06:43:28Z</time>
      </trkpt>
      <trkpt lat="70.107131972908974" lon="23.552537960931659">
        <ele>159.72</ele>
        <time>2017-06-27T06:43:29Z</time>
      </trkpt>
      <trkpt lat="70.106987971812487" lon="23.552609961479902">
        <ele>159.72</ele>
        <time>2017-06-27T06:43:30Z</time>
      </trkpt>
      <trkpt lat="70.106846988201141" lon="23.552772989496589">
        <ele>159.72</ele>
        <time>2017-06-27T06:43:31Z</time>
      </trkpt>
      <trkpt lat="70.106711033731699" lon="23.552987985312939">
        <ele>159.72</ele>
        <time>2017-06-27T06:43:32Z</time>
      </trkpt>
      <trkpt lat="70.106572983786464" lon="23.553231982514262">
        <ele>160.19999999999999</ele>
        <time>2017-06-27T06:43:33Z</time>
      </trkpt>
      <trkpt lat="70.106280958279967" lon="23.553704973310232">
        <ele>160.68000000000001</ele>
        <time>2017-06-27T06:43:35Z</time>
      </trkpt>
      <trkpt lat="70.106121031567454" lon="23.55387101881206">
        <ele>160.19999999999999</ele>
        <time>2017-06-27T06:43:36Z</time>
      </trkpt>
      <trkpt lat="70.105949034914374" lon="23.553975038230419">
        <ele>160.19999999999999</ele>
        <time>2017-06-27T06:43:37Z</time>
      </trkpt>
      <trkpt lat="70.105767985805869" lon="23.554004961624742">
        <ele>160.19999999999999</ele>
        <time>2017-06-27T06:43:38Z</time>
      </trkpt>
      <trkpt lat="70.10557796806097" lon="23.553965985774994">
        <ele>161.16</ele>
        <time>2017-06-27T06:43:39Z</time>
      </trkpt>
      <trkpt lat="70.105387028306723" lon="23.55387001298368">
        <ele>161.63999999999999</ele>
        <time>2017-06-27T06:43:40Z</time>
      </trkpt>
      <trkpt lat="70.105193993076682" lon="23.553745960816741">
        <ele>162.12</ele>
        <time>2017-06-27T06:43:41Z</time>
      </trkpt>
      <trkpt lat="70.103266993537545" lon="23.55294699780643">
        <ele>166.93000000000001</ele>
        <time>2017-06-27T06:43:50Z</time>
      </trkpt>
      <trkpt lat="70.1004390232265" lon="23.55309996753931">
        <ele>173.16999999999999</ele>
        <time>2017-06-27T06:44:03Z</time>
      </trkpt>
      <trkpt lat="70.098717967048287" lon="23.55251700617373">
        <ele>179.90000000000001</ele>
        <time>2017-06-27T06:44:11Z</time>
      </trkpt>
      <trkpt lat="70.097896037623286" lon="23.551665991544724">
        <ele>182.78999999999999</ele>
        <time>2017-06-27T06:44:15Z</time>
      </trkpt>
      <trkpt lat="70.097697973251343" lon="23.5515739582479">
        <ele>183.27000000000001</ele>
        <time>2017-06-27T06:44:16Z</time>
      </trkpt>
      <trkpt lat="70.09749798104167" lon="23.551575969904661">
        <ele>183.75</ele>
        <time>2017-06-27T06:44:17Z</time>
      </trkpt>
      <trkpt lat="70.097292959690094" lon="23.551660040393472">
        <ele>184.71000000000001</ele>
        <time>2017-06-27T06:44:18Z</time>
      </trkpt>
      <trkpt lat="70.097083998844028" lon="23.551772022619843">
        <ele>185.19</ele>
        <time>2017-06-27T06:44:19Z</time>
      </trkpt>
      <trkpt lat="70.09644404053688" lon="23.552036974579096">
        <ele>187.11000000000001</ele>
        <time>2017-06-27T06:44:22Z</time>
      </trkpt>
      <trkpt lat="70.096233990043402" lon="23.552019037306309">
        <ele>188.56</ele>
        <time>2017-06-27T06:44:23Z</time>
      </trkpt>
      <trkpt lat="70.096022011712193" lon="23.551923986524343">
        <ele>189.03999999999999</ele>
        <time>2017-06-27T06:44:24Z</time>
      </trkpt>
      <trkpt lat="70.095812967047095" lon="23.551756013184786">
        <ele>189.03999999999999</ele>
        <time>2017-06-27T06:44:25Z</time>
      </trkpt>
      <trkpt lat="70.095600988715887" lon="23.551534982398152">
        <ele>189.03999999999999</ele>
        <time>2017-06-27T06:44:26Z</time>
      </trkpt>
      <trkpt lat="70.095383981242776" lon="23.551278999075294">
        <ele>189.52000000000001</ele>
        <time>2017-06-27T06:44:27Z</time>
      </trkpt>
      <trkpt lat="70.093665020540357" lon="23.54862998239696">
        <ele>194.31999999999999</ele>
        <time>2017-06-27T06:44:35Z</time>
      </trkpt>
      <trkpt lat="70.091516990214586" lon="23.544861981645226">
        <ele>199.61000000000001</ele>
        <time>2017-06-27T06:44:45Z</time>
      </trkpt>
      <trkpt lat="70.090141016989946" lon="23.543583992868662">
        <ele>201.53</ele>
        <time>2017-06-27T06:44:51Z</time>
      </trkpt>
      <trkpt lat="70.088948020711541" lon="23.542791986837983">
        <ele>204.90000000000001</ele>
        <time>2017-06-27T06:44:56Z</time>
      </trkpt>
      <trkpt lat="70.088726989924908" lon="23.542479006573558">
        <ele>205.86000000000001</ele>
        <time>2017-06-27T06:44:57Z</time>
      </trkpt>
      <trkpt lat="70.088510988280177" lon="23.542121015489101">
        <ele>207.30000000000001</ele>
        <time>2017-06-27T06:44:58Z</time>
      </trkpt>
      <trkpt lat="70.088303033262491" lon="23.541726982221007">
        <ele>208.74000000000001</ele>
        <time>2017-06-27T06:44:59Z</time>
      </trkpt>
      <trkpt lat="70.088103041052818" lon="23.541291039437056">
        <ele>210.19</ele>
        <time>2017-06-27T06:45:00Z</time>
      </trkpt>
      <trkpt lat="70.087907994166017" lon="23.540816958993673">
        <ele>212.59</ele>
        <time>2017-06-27T06:45:01Z</time>
      </trkpt>
      <trkpt lat="70.086667975410819" lon="23.537490013986826">
        <ele>223.16</ele>
        <time>2017-06-27T06:45:08Z</time>
      </trkpt>
      <trkpt lat="70.086492961272597" lon="23.537216009572148">
        <ele>223.16</ele>
        <time>2017-06-27T06:45:09Z</time>
      </trkpt>
      <trkpt lat="70.08630596101284" lon="23.537019034847617">
        <ele>223.63999999999999</ele>
        <time>2017-06-27T06:45:10Z</time>
      </trkpt>
      <trkpt lat="70.086107980459929" lon="23.536908980458975">
        <ele>224.61000000000001</ele>
        <time>2017-06-27T06:45:11Z</time>
      </trkpt>
      <trkpt lat="70.085900025442243" lon="23.53687796741724">
        <ele>225.09</ele>
        <time>2017-06-27T06:45:12Z</time>
      </trkpt>
      <trkpt lat="70.085685029625893" lon="23.536927001550794">
        <ele>226.05000000000001</ele>
        <time>2017-06-27T06:45:13Z</time>
      </trkpt>
      <trkpt lat="70.085462993010879" lon="23.537032026797533">
        <ele>226.53</ele>
        <time>2017-06-27T06:45:14Z</time>
      </trkpt>
      <trkpt lat="70.085233999416232" lon="23.537178039550781">
        <ele>227.00999999999999</ele>
        <time>2017-06-27T06:45:15Z</time>
      </trkpt>
      <trkpt lat="70.082476017996669" lon="23.538743024691939">
        <ele>231.81</ele>
        <time>2017-06-27T06:45:26Z</time>
      </trkpt>
      <trkpt lat="70.080216005444527" lon="23.539183996617794">
        <ele>240.94999999999999</ele>
        <time>2017-06-27T06:45:35Z</time>
      </trkpt>
      <trkpt lat="70.078841960057616" lon="23.540193010121584">
        <ele>246.22999999999999</ele>
        <time>2017-06-27T06:45:41Z</time>
      </trkpt>
      <trkpt lat="70.076655959710479" lon="23.542049014940858">
        <ele>246.22999999999999</ele>
        <time>2017-06-27T06:45:51Z</time>
      </trkpt>
      <trkpt lat="70.074091013520956" lon="23.543668985366821">
        <ele>241.91</ele>
        <time>2017-06-27T06:46:02Z</time>
      </trkpt>
      <trkpt lat="70.07180199958384" lon="23.544213976711035">
        <ele>242.38999999999999</ele>
        <time>2017-06-27T06:46:11Z</time>
      </trkpt>
      <trkpt lat="70.069776009768248" lon="23.543672002851963">
        <ele>239.50999999999999</ele>
        <time>2017-06-27T06:46:19Z</time>
      </trkpt>
      <trkpt lat="70.067750019952655" lon="23.542957026511431">
        <ele>238.06</ele>
        <time>2017-06-27T06:46:27Z</time>
      </trkpt>
      <trkpt lat="70.065712966024876" lon="23.543989006429911">
        <ele>237.58000000000001</ele>
        <time>2017-06-27T06:46:35Z</time>
      </trkpt>
      <trkpt lat="70.063798036426306" lon="23.544848989695311">
        <ele>245.75</ele>
        <time>2017-06-27T06:46:43Z</time>
      </trkpt>
      <trkpt lat="70.062623983249068" lon="23.546100994572043">
        <ele>235.18000000000001</ele>
        <time>2017-06-27T06:46:49Z</time>
      </trkpt>
      <trkpt lat="70.062174964696169" lon="23.546618996188045">
        <ele>233.25999999999999</ele>
        <time>2017-06-27T06:46:51Z</time>
      </trkpt>
      <trkpt lat="70.061943037435412" lon="23.54678101837635">
        <ele>233.74000000000001</ele>
        <time>2017-06-27T06:46:52Z</time>
      </trkpt>
      <trkpt lat="70.06170297972858" lon="23.546887971460819">
        <ele>235.18000000000001</ele>
        <time>2017-06-27T06:46:53Z</time>
      </trkpt>
      <trkpt lat="70.0606519728899" lon="23.547227019444108">
        <ele>240.94999999999999</ele>
        <time>2017-06-27T06:46:58Z</time>
      </trkpt>
      <trkpt lat="70.060485005378723" lon="23.54740597307682">
        <ele>241.43000000000001</ele>
        <time>2017-06-27T06:46:59Z</time>
      </trkpt>
      <trkpt lat="70.060322983190417" lon="23.547651981934905">
        <ele>241.43000000000001</ele>
        <time>2017-06-27T06:47:00Z</time>
      </trkpt>
      <trkpt lat="70.060160038992763" lon="23.547964040189981">
        <ele>240.94999999999999</ele>
        <time>2017-06-27T06:47:01Z</time>
      </trkpt>
      <trkpt lat="70.059989970177412" lon="23.54830602183938">
        <ele>239.99000000000001</ele>
        <time>2017-06-27T06:47:02Z</time>
      </trkpt>
      <trkpt lat="70.05860703997314" lon="23.550911033526063">
        <ele>237.09999999999999</ele>
        <time>2017-06-27T06:47:09Z</time>
      </trkpt>
      <trkpt lat="70.057378001511097" lon="23.553641019389033">
        <ele>241.43000000000001</ele>
        <time>2017-06-27T06:47:16Z</time>
      </trkpt>
      <trkpt lat="70.056019965559244" lon="23.556204959750175">
        <ele>240.47</ele>
        <time>2017-06-27T06:47:23Z</time>
      </trkpt>
      <trkpt lat="70.053676972165704" lon="23.55857796035707">
        <ele>231.33000000000001</ele>
        <time>2017-06-27T06:47:33Z</time>
      </trkpt>
      <trkpt lat="70.052279960364103" lon="23.558818018063903">
        <ele>230.84999999999999</ele>
        <time>2017-06-27T06:47:39Z</time>
      </trkpt>
      <trkpt lat="70.050610033795238" lon="23.557742033153772">
        <ele>217.40000000000001</ele>
        <time>2017-06-27T06:47:46Z</time>
      </trkpt>
      <trkpt lat="70.049455007538199" lon="23.557091010734439">
        <ele>213.06999999999999</ele>
        <time>2017-06-27T06:47:51Z</time>
      </trkpt>
      <trkpt lat="70.049222996458411" lon="23.557106014341116">
        <ele>212.59</ele>
        <time>2017-06-27T06:47:52Z</time>
      </trkpt>
      <trkpt lat="70.048996014520526" lon="23.557184971868992">
        <ele>212.11000000000001</ele>
        <time>2017-06-27T06:47:53Z</time>
      </trkpt>
      <trkpt lat="70.046866005286574" lon="23.558284007012844">
        <ele>208.25999999999999</ele>
        <time>2017-06-27T06:48:02Z</time>
      </trkpt>
      <trkpt lat="70.04533102735877" lon="23.558178981766105">
        <ele>202.97999999999999</ele>
        <time>2017-06-27T06:48:09Z</time>
      </trkpt>
      <trkpt lat="70.044961972162127" lon="23.558240002021194">
        <ele>200.09</ele>
        <time>2017-06-27T06:48:11Z</time>
      </trkpt>
      <trkpt lat="70.044799027964473" lon="23.558353995904326">
        <ele>199.13</ele>
        <time>2017-06-27T06:48:12Z</time>
      </trkpt>
      <trkpt lat="70.044653015211225" lon="23.558523980900645">
        <ele>198.16999999999999</ele>
        <time>2017-06-27T06:48:13Z</time>
      </trkpt>
      <trkpt lat="70.044533992186189" lon="23.558764038607478">
        <ele>197.21000000000001</ele>
        <time>2017-06-27T06:48:14Z</time>
      </trkpt>
      <trkpt lat="70.044438019394875" lon="23.559064026921988">
        <ele>196.25</ele>
        <time>2017-06-27T06:48:15Z</time>
      </trkpt>
      <trkpt lat="70.044360989704728" lon="23.559426041319966">
        <ele>195.28</ele>
        <time>2017-06-27T06:48:16Z</time>
      </trkpt>
      <trkpt lat="70.04430097527802" lon="23.559831976890564">
        <ele>193.84</ele>
        <time>2017-06-27T06:48:17Z</time>
      </trkpt>
      <trkpt lat="70.044255964457989" lon="23.560286024585366">
        <ele>192.88</ele>
        <time>2017-06-27T06:48:18Z</time>
      </trkpt>
      <trkpt lat="70.044219000265002" lon="23.560762032866478">
        <ele>191.44</ele>
        <time>2017-06-27T06:48:19Z</time>
      </trkpt>
      <trkpt lat="70.044197039678693" lon="23.561271987855434">
        <ele>190</ele>
        <time>2017-06-27T06:48:20Z</time>
      </trkpt>
      <trkpt lat="70.044191004708409" lon="23.561770962551236">
        <ele>188.56</ele>
        <time>2017-06-27T06:48:21Z</time>
      </trkpt>
      <trkpt lat="70.044202990829945" lon="23.562264991924167">
        <ele>187.59</ele>
        <time>2017-06-27T06:48:22Z</time>
      </trkpt>
      <trkpt lat="70.044228974729776" lon="23.562741000205278">
        <ele>186.15000000000001</ele>
        <time>2017-06-27T06:48:23Z</time>
      </trkpt>
      <trkpt lat="70.044261999428272" lon="23.563179960474372">
        <ele>184.22999999999999</ele>
        <time>2017-06-27T06:48:24Z</time>
      </trkpt>
      <trkpt lat="70.04427800886333" lon="23.563592014834285">
        <ele>183.27000000000001</ele>
        <time>2017-06-27T06:48:25Z</time>
      </trkpt>
      <trkpt lat="70.044274991378188" lon="23.564015971496701">
        <ele>181.83000000000001</ele>
        <time>2017-06-27T06:48:26Z</time>
      </trkpt>
      <trkpt lat="70.044248001649976" lon="23.564422996714711">
        <ele>180.38</ele>
        <time>2017-06-27T06:48:27Z</time>
      </trkpt>
      <trkpt lat="70.044198967516422" lon="23.564813006669283">
        <ele>178.94</ele>
        <time>2017-06-27T06:48:28Z</time>
      </trkpt>
      <trkpt lat="70.044125039130449" lon="23.565166974440217">
        <ele>177.5</ele>
        <time>2017-06-27T06:48:29Z</time>
      </trkpt>
      <trkpt lat="70.044027976691723" lon="23.565442990511656">
        <ele>176.06</ele>
        <time>2017-06-27T06:48:30Z</time>
      </trkpt>
      <trkpt lat="70.043908031657338" lon="23.565636025741696">
        <ele>175.09999999999999</ele>
        <time>2017-06-27T06:48:31Z</time>
      </trkpt>
      <trkpt lat="70.043775010854006" lon="23.565745996311307">
        <ele>174.13999999999999</ele>
        <time>2017-06-27T06:48:32Z</time>
      </trkpt>
      <trkpt lat="70.043625980615616" lon="23.565805004909635">
        <ele>172.69</ele>
        <time>2017-06-27T06:48:33Z</time>
      </trkpt>
      <trkpt lat="70.043464964255691" lon="23.565846998244524">
        <ele>171.72999999999999</ele>
        <time>2017-06-27T06:48:34Z</time>
      </trkpt>
      <trkpt lat="70.042931037023664" lon="23.565968032926321">
        <ele>166.93000000000001</ele>
        <time>2017-06-27T06:48:37Z</time>
      </trkpt>
      <trkpt lat="70.042747976258397" lon="23.565912963822484">
        <ele>165.96000000000001</ele>
        <time>2017-06-27T06:48:38Z</time>
      </trkpt>
      <trkpt lat="70.042557958513498" lon="23.565793018788099">
        <ele>165</ele>
        <time>2017-06-27T06:48:39Z</time>
      </trkpt>
      <trkpt lat="70.04236601293087" lon="23.565608030185103">
        <ele>164.03999999999999</ele>
        <time>2017-06-27T06:48:40Z</time>
      </trkpt>
      <trkpt lat="70.042174989357591" lon="23.565381970256567">
        <ele>163.08000000000001</ele>
        <time>2017-06-27T06:48:41Z</time>
      </trkpt>
      <trkpt lat="70.041439980268478" lon="23.564591975882649">
        <ele>161.63999999999999</ele>
        <time>2017-06-27T06:48:45Z</time>
      </trkpt>
      <trkpt lat="70.041257003322244" lon="23.564513018354774">
        <ele>160.19999999999999</ele>
        <time>2017-06-27T06:48:46Z</time>
      </trkpt>
      <trkpt lat="70.041074026376009" lon="23.564520981162786">
        <ele>158.75</ele>
        <time>2017-06-27T06:48:47Z</time>
      </trkpt>
      <trkpt lat="70.040895994752645" lon="23.564633969217539">
        <ele>157.78999999999999</ele>
        <time>2017-06-27T06:48:48Z</time>
      </trkpt>
      <trkpt lat="70.040726009756327" lon="23.564805965870619">
        <ele>156.34999999999999</ele>
        <time>2017-06-27T06:48:49Z</time>
      </trkpt>
      <trkpt lat="70.040563987568021" lon="23.565044011920691">
        <ele>155.38999999999999</ele>
        <time>2017-06-27T06:48:50Z</time>
      </trkpt>
      <trkpt lat="70.040404982864857" lon="23.565312987193465">
        <ele>154.43000000000001</ele>
        <time>2017-06-27T06:48:51Z</time>
      </trkpt>
      <trkpt lat="70.039811041206121" lon="23.566313032060862">
        <ele>149.13999999999999</ele>
        <time>2017-06-27T06:48:55Z</time>
      </trkpt>
      <trkpt lat="70.039670979604125" lon="23.566415961831808">
        <ele>147.69999999999999</ele>
        <time>2017-06-27T06:48:56Z</time>
      </trkpt>
      <trkpt lat="70.039541982114315" lon="23.566424008458853">
        <ele>146.74000000000001</ele>
        <time>2017-06-27T06:48:57Z</time>
      </trkpt>
      <trkpt lat="70.03942203707993" lon="23.566346978768706">
        <ele>144.81999999999999</ele>
        <time>2017-06-27T06:48:58Z</time>
      </trkpt>
      <trkpt lat="70.039307037368417" lon="23.56618101708591">
        <ele>143.84999999999999</ele>
        <time>2017-06-27T06:48:59Z</time>
      </trkpt>
      <trkpt lat="70.039194971323013" lon="23.565943976864219">
        <ele>143.37</ele>
        <time>2017-06-27T06:49:00Z</time>
      </trkpt>
      <trkpt lat="70.039087012410164" lon="23.56566502712667">
        <ele>142.41</ele>
        <time>2017-06-27T06:49:01Z</time>
      </trkpt>
      <trkpt lat="70.038981987163424" lon="23.565337965264916">
        <ele>140.97</ele>
        <time>2017-06-27T06:49:02Z</time>
      </trkpt>
      <trkpt lat="70.037980014458299" lon="23.562201038002968">
        <ele>131.36000000000001</ele>
        <time>2017-06-27T06:49:10Z</time>
      </trkpt>
      <trkpt lat="70.036001969128847" lon="23.556627994403243">
        <ele>131.36000000000001</ele>
        <time>2017-06-27T06:49:23Z</time>
      </trkpt>
      <trkpt lat="70.034870998933911" lon="23.554276032373309">
        <ele>123.19</ele>
        <time>2017-06-27T06:49:30Z</time>
      </trkpt>
      <trkpt lat="70.034688021987677" lon="23.554088026285172">
        <ele>121.26000000000001</ele>
        <time>2017-06-27T06:49:31Z</time>
      </trkpt>
      <trkpt lat="70.034496998414397" lon="23.553948970511556">
        <ele>119.34</ele>
        <time>2017-06-27T06:49:32Z</time>
      </trkpt>
      <trkpt lat="70.034293988719583" lon="23.553852997720242">
        <ele>117.42</ele>
        <time>2017-06-27T06:49:33Z</time>
      </trkpt>
      <trkpt lat="70.034084022045135" lon="23.553782003000379">
        <ele>115.01000000000001</ele>
        <time>2017-06-27T06:49:34Z</time>
      </trkpt>
      <trkpt lat="70.032207984477282" lon="23.553069960325956">
        <ele>103</ele>
        <time>2017-06-27T06:49:43Z</time>
      </trkpt>
      <trkpt lat="70.032016038894653" lon="23.552828980609775">
        <ele>102.04000000000001</ele>
        <time>2017-06-27T06:49:44Z</time>
      </trkpt>
      <trkpt lat="70.031829960644245" lon="23.552527986466885">
        <ele>100.11</ele>
        <time>2017-06-27T06:49:45Z</time>
      </trkpt>
      <trkpt lat="70.03164597786963" lon="23.552176030352712">
        <ele>98.189999999999998</ele>
        <time>2017-06-27T06:49:46Z</time>
      </trkpt>
      <trkpt lat="70.031467024236917" lon="23.551785014569759">
        <ele>96.75</ele>
        <time>2017-06-27T06:49:47Z</time>
      </trkpt>
      <trkpt lat="70.029951995238662" lon="23.548798961564898">
        <ele>82.810000000000002</ele>
        <time>2017-06-27T06:49:55Z</time>
      </trkpt>
      <trkpt lat="70.029782010242343" lon="23.548426972702146">
        <ele>80.890000000000001</ele>
        <time>2017-06-27T06:49:56Z</time>
      </trkpt>
      <trkpt lat="70.02962501719594" lon="23.548006033524871">
        <ele>79.450000000000003</ele>
        <time>2017-06-27T06:49:57Z</time>
      </trkpt>
      <trkpt lat="70.029483027756214" lon="23.547543017193675">
        <ele>78</ele>
        <time>2017-06-27T06:49:58Z</time>
      </trkpt>
      <trkpt lat="70.029111038893461" lon="23.546164026483893">
        <ele>72.719999999999999</ele>
        <time>2017-06-27T06:50:01Z</time>
      </trkpt>
      <trkpt lat="70.028968965634704" lon="23.545830007642508">
        <ele>70.790000000000006</ele>
        <time>2017-06-27T06:50:02Z</time>
      </trkpt>
      <trkpt lat="70.028809038922191" lon="23.54557704180479">
        <ele>69.349999999999994</ele>
        <time>2017-06-27T06:50:03Z</time>
      </trkpt>
      <trkpt lat="70.02863503061235" lon="23.545377971604466">
        <ele>67.909999999999997</ele>
        <time>2017-06-27T06:50:04Z</time>
      </trkpt>
      <trkpt lat="70.028452975675464" lon="23.545193988829851">
        <ele>65.989999999999995</ele>
        <time>2017-06-27T06:50:05Z</time>
      </trkpt>
      <trkpt lat="70.027554016560316" lon="23.543903008103371">
        <ele>58.780000000000001</ele>
        <time>2017-06-27T06:50:10Z</time>
      </trkpt>
      <trkpt lat="70.027382019907236" lon="23.543758001178503">
        <ele>56.369999999999997</ele>
        <time>2017-06-27T06:50:11Z</time>
      </trkpt>
      <trkpt lat="70.027210023254156" lon="23.543677031993866">
        <ele>53.969999999999999</ele>
        <time>2017-06-27T06:50:12Z</time>
      </trkpt>
      <trkpt lat="70.027037020772696" lon="23.543678959831595">
        <ele>52.049999999999997</ele>
        <time>2017-06-27T06:50:13Z</time>
      </trkpt>
      <trkpt lat="70.0268520321697" lon="23.543742997571826">
        <ele>51.090000000000003</ele>
        <time>2017-06-27T06:50:14Z</time>
      </trkpt>
      <trkpt lat="70.026666037738323" lon="23.543835030868649">
        <ele>50.130000000000003</ele>
        <time>2017-06-27T06:50:15Z</time>
      </trkpt>
      <trkpt lat="70.025982996448874" lon="23.544081039726734">
        <ele>46.280000000000001</ele>
        <time>2017-06-27T06:50:19Z</time>
      </trkpt>
      <trkpt lat="70.025827009230852" lon="23.544028988108039">
        <ele>45.32</ele>
        <time>2017-06-27T06:50:20Z</time>
      </trkpt>
      <trkpt lat="70.02567102201283" lon="23.543920023366809">
        <ele>45.799999999999997</ele>
        <time>2017-06-27T06:50:21Z</time>
      </trkpt>
      <trkpt lat="70.025529032573104" lon="23.543741991743445">
        <ele>45.32</ele>
        <time>2017-06-27T06:50:22Z</time>
      </trkpt>
      <trkpt lat="70.02539299428463" lon="23.543501012027264">
        <ele>45.32</ele>
        <time>2017-06-27T06:50:23Z</time>
      </trkpt>
      <trkpt lat="70.025267014279962" lon="23.543208986520767">
        <ele>43.880000000000003</ele>
        <time>2017-06-27T06:50:24Z</time>
      </trkpt>
      <trkpt lat="70.025148997083306" lon="23.54289198294282">
        <ele>42.920000000000002</ele>
        <time>2017-06-27T06:50:25Z</time>
      </trkpt>
      <trkpt lat="70.024110982194543" lon="23.539724964648485">
        <ele>38.590000000000003</ele>
        <time>2017-06-27T06:50:35Z</time>
      </trkpt>
      <trkpt lat="70.023336997255683" lon="23.537609959021211">
        <ele>38.590000000000003</ele>
        <time>2017-06-27T06:50:43Z</time>
      </trkpt>
      <trkpt lat="70.023213028907776" lon="23.53745698928833">
        <ele>38.590000000000003</ele>
        <time>2017-06-27T06:50:44Z</time>
      </trkpt>
      <trkpt lat="70.023083025589585" lon="23.537352969869971">
        <ele>38.590000000000003</ele>
        <time>2017-06-27T06:50:45Z</time>
      </trkpt>
      <trkpt lat="70.022946987301111" lon="23.537317011505365">
        <ele>38.109999999999999</ele>
        <time>2017-06-27T06:50:46Z</time>
      </trkpt>
      <trkpt lat="70.022808015346527" lon="23.537334026768804">
        <ele>37.149999999999999</ele>
        <time>2017-06-27T06:50:47Z</time>
      </trkpt>
      <trkpt lat="70.02266401425004" lon="23.537387000396848">
        <ele>36.189999999999998</ele>
        <time>2017-06-27T06:50:48Z</time>
      </trkpt>
      <trkpt lat="70.020609023049474" lon="23.538118992000818">
        <ele>27.530000000000001</ele>
        <time>2017-06-27T06:51:01Z</time>
      </trkpt>
      <trkpt lat="70.01862796023488" lon="23.537635020911694">
        <ele>20.809999999999999</ele>
        <time>2017-06-27T06:51:14Z</time>
      </trkpt>
      <trkpt lat="70.018365019932389" lon="23.537666033953428">
        <ele>19.359999999999999</ele>
        <time>2017-06-27T06:51:16Z</time>
      </trkpt>
      <trkpt lat="70.018231999129057" lon="23.537742979824543">
        <ele>18.399999999999999</ele>
        <time>2017-06-27T06:51:17Z</time>
      </trkpt>
      <trkpt lat="70.018096966668963" lon="23.537862002849579">
        <ele>17.440000000000001</ele>
        <time>2017-06-27T06:51:18Z</time>
      </trkpt>
      <trkpt lat="70.017160959541798" lon="23.538717040792108">
        <ele>8.789999999999999</ele>
        <time>2017-06-27T06:51:25Z</time>
      </trkpt>
      <trkpt lat="70.017021987587214" lon="23.538733972236514">
        <ele>8.310000000000001</ele>
        <time>2017-06-27T06:51:26Z</time>
      </trkpt>
      <trkpt lat="70.016878992319107" lon="23.538707988336682">
        <ele>7.35</ele>
        <time>2017-06-27T06:51:27Z</time>
      </trkpt>
      <trkpt lat="70.016735997051001" lon="23.538645040243864">
        <ele>6.87</ele>
        <time>2017-06-27T06:51:28Z</time>
      </trkpt>
      <trkpt lat="70.016590990126133" lon="23.538544038310647">
        <ele>6.87</ele>
        <time>2017-06-27T06:51:29Z</time>
      </trkpt>
      <trkpt lat="70.016449000686407" lon="23.538433983922005">
        <ele>6.39</ele>
        <time>2017-06-27T06:51:30Z</time>
      </trkpt>
      <trkpt lat="70.014777984470129" lon="23.536389973014593">
        <ele>1.58</ele>
        <time>2017-06-27T06:51:42Z</time>
      </trkpt>
      <trkpt lat="70.014663990586996" lon="23.536071041598916">
        <ele>1.58</ele>
        <time>2017-06-27T06:51:43Z</time>
      </trkpt>
      <trkpt lat="70.014572963118553" lon="23.535720007494092">
        <ele>1.1</ele>
        <time>2017-06-27T06:51:44Z</time>
      </trkpt>
      <trkpt lat="70.014500040560961" lon="23.535323040559888">
        <ele>1.1</ele>
        <time>2017-06-27T06:51:45Z</time>
      </trkpt>
      <trkpt lat="70.014448994770646" lon="23.534882990643382">
        <ele>0.62</ele>
        <time>2017-06-27T06:51:46Z</time>
      </trkpt>
      <trkpt lat="70.014413958415389" lon="23.534415028989315">
        <ele>0.62</ele>
        <time>2017-06-27T06:51:47Z</time>
      </trkpt>
      <trkpt lat="70.014390992000699" lon="23.533929968252778">
        <ele>0.62</ele>
        <time>2017-06-27T06:51:48Z</time>
      </trkpt>
      <trkpt lat="70.014211032539606" lon="23.529504993930459">
        <ele>2.54</ele>
        <time>2017-06-27T06:51:57Z</time>
      </trkpt>
      <trkpt lat="70.014160992577672" lon="23.529097968712449">
        <ele>3.5</ele>
        <time>2017-06-27T06:51:58Z</time>
      </trkpt>
      <trkpt lat="70.01409200951457" lon="23.528734026476741">
        <ele>3.98</ele>
        <time>2017-06-27T06:51:59Z</time>
      </trkpt>
      <trkpt lat="70.014000982046127" lon="23.528429009020329">
        <ele>4.46</ele>
        <time>2017-06-27T06:52:00Z</time>
      </trkpt>
      <trkpt lat="70.013891011476517" lon="23.528157016262412">
        <ele>4.46</ele>
        <time>2017-06-27T06:52:01Z</time>
      </trkpt>
      <trkpt lat="70.013766037300229" lon="23.527914024889469">
        <ele>3.98</ele>
        <time>2017-06-27T06:52:02Z</time>
      </trkpt>
      <trkpt lat="70.013626981526613" lon="23.527678996324539">
        <ele>3.98</ele>
        <time>2017-06-27T06:52:03Z</time>
      </trkpt>
      <trkpt lat="70.012208009138703" lon="23.525027967989445">
        <ele>3.02</ele>
        <time>2017-06-27T06:52:12Z</time>
      </trkpt>
      <trkpt lat="70.011528991162777" lon="23.522065971046686">
        <ele>3.02</ele>
        <time>2017-06-27T06:52:18Z</time>
      </trkpt>
      <trkpt lat="70.010935971513391" lon="23.517082007601857">
        <ele>2.54</ele>
        <time>2017-06-27T06:52:27Z</time>
      </trkpt>
      <trkpt lat="70.010312022641301" lon="23.510891972109675">
        <ele>3.5</ele>
        <time>2017-06-27T06:52:38Z</time>
      </trkpt>
      <trkpt lat="70.010018991306424" lon="23.508946029469371">
        <ele>2.06</ele>
        <time>2017-06-27T06:52:42Z</time>
      </trkpt>
      <trkpt lat="70.009916983544827" lon="23.508531963452697">
        <ele>1.58</ele>
        <time>2017-06-27T06:52:43Z</time>
      </trkpt>
      <trkpt lat="70.009800978004932" lon="23.508159974589944">
        <ele>1.58</ele>
        <time>2017-06-27T06:52:44Z</time>
      </trkpt>
      <trkpt lat="70.009666029363871" lon="23.507840037345886">
        <ele>1.58</ele>
        <time>2017-06-27T06:52:45Z</time>
      </trkpt>
      <trkpt lat="70.009520016610622" lon="23.50759201683104">
        <ele>1.58</ele>
        <time>2017-06-27T06:52:46Z</time>
      </trkpt>
      <trkpt lat="70.009355982765555" lon="23.507426977157593">
        <ele>1.58</ele>
        <time>2017-06-27T06:52:47Z</time>
      </trkpt>
      <trkpt lat="70.009183986112475" lon="23.507337039336562">
        <ele>1.58</ele>
        <time>2017-06-27T06:52:48Z</time>
      </trkpt>
      <trkpt lat="70.009005032479763" lon="23.507293034344912">
        <ele>1.1</ele>
        <time>2017-06-27T06:52:49Z</time>
      </trkpt>
      <trkpt lat="70.008819960057735" lon="23.507279958575964">
        <ele>1.1</ele>
        <time>2017-06-27T06:52:50Z</time>
      </trkpt>
      <trkpt lat="70.00603498890996" lon="23.507043002173305">
        <ele>0.14</ele>
        <time>2017-06-27T06:53:04Z</time>
      </trkpt>
      <trkpt lat="70.005844971165061" lon="23.506894977763295">
        <ele>0.14</ele>
        <time>2017-06-27T06:53:05Z</time>
      </trkpt>
      <trkpt lat="70.005660988390446" lon="23.506671013310552">
        <ele>0.14</ele>
        <time>2017-06-27T06:53:06Z</time>
      </trkpt>
      <trkpt lat="70.005479017272592" lon="23.5063870344311">
        <ele>0.62</ele>
        <time>2017-06-27T06:53:07Z</time>
      </trkpt>
      <trkpt lat="70.005311965942383" lon="23.506041029468179">
        <ele>0.62</ele>
        <time>2017-06-27T06:53:08Z</time>
      </trkpt>
      <trkpt lat="70.005161007866263" lon="23.505632998421788">
        <ele>1.1</ele>
        <time>2017-06-27T06:53:09Z</time>
      </trkpt>
      <trkpt lat="70.005023963749409" lon="23.505190014839172">
        <ele>1.1</ele>
        <time>2017-06-27T06:53:10Z</time>
      </trkpt>
      <trkpt lat="70.004898989573121" lon="23.504734961315989">
        <ele>1.1</ele>
        <time>2017-06-27T06:53:11Z</time>
      </trkpt>
      <trkpt lat="70.004529012367129" lon="23.503544982522726">
        <ele>0.14</ele>
        <time>2017-06-27T06:53:14Z</time>
      </trkpt>
      <trkpt lat="70.004386017099023" lon="23.503267960622907">
        <ele>0.14</ele>
        <time>2017-06-27T06:53:15Z</time>
      </trkpt>
      <trkpt lat="70.004232041537762" lon="23.503046007826924">
        <ele>0.62</ele>
        <time>2017-06-27T06:53:16Z</time>
      </trkpt>
      <trkpt lat="70.004059039056301" lon="23.502876022830606">
        <ele>0.62</ele>
        <time>2017-06-27T06:53:17Z</time>
      </trkpt>
      <trkpt lat="70.003880001604557" lon="23.502741996198893">
        <ele>0.14</ele>
        <time>2017-06-27T06:53:18Z</time>
      </trkpt>
      <trkpt lat="70.00210102647543" lon="23.501268960535526">
        <ele>1.58</ele>
        <time>2017-06-27T06:53:27Z</time>
      </trkpt>
      <trkpt lat="70.001750998198986" lon="23.500698991119862">
        <ele>1.58</ele>
        <time>2017-06-27T06:53:29Z</time>
      </trkpt>
      <trkpt lat="70.001597022637725" lon="23.500348962843418">
        <ele>1.58</ele>
        <time>2017-06-27T06:53:30Z</time>
      </trkpt>
      <trkpt lat="70.001462996006012" lon="23.499958030879498">
        <ele>1.58</ele>
        <time>2017-06-27T06:53:31Z</time>
      </trkpt>
      <trkpt lat="70.001345984637737" lon="23.499528039246798">
        <ele>1.58</ele>
        <time>2017-06-27T06:53:32Z</time>
      </trkpt>
      <trkpt lat="70.001252023503184" lon="23.499051025137305">
        <ele>1.58</ele>
        <time>2017-06-27T06:53:33Z</time>
      </trkpt>
      <trkpt lat="70.00117801129818" lon="23.498544003814459">
        <ele>1.58</ele>
        <time>2017-06-27T06:53:34Z</time>
      </trkpt>
      <trkpt lat="70.001125959679484" lon="23.497997000813484">
        <ele>1.58</ele>
        <time>2017-06-27T06:53:35Z</time>
      </trkpt>
      <trkpt lat="70.001097964122891" lon="23.497431976720691">
        <ele>1.58</ele>
        <time>2017-06-27T06:53:36Z</time>
      </trkpt>
      <trkpt lat="70.001087989658117" lon="23.49684800952673">
        <ele>1.58</ele>
        <time>2017-06-27T06:53:37Z</time>
      </trkpt>
      <trkpt lat="70.001097964122891" lon="23.496249038726091">
        <ele>1.58</ele>
        <time>2017-06-27T06:53:38Z</time>
      </trkpt>
      <trkpt lat="70.001113973557949" lon="23.495636992156506">
        <ele>1.1</ele>
        <time>2017-06-27T06:53:39Z</time>
      </trkpt>
      <trkpt lat="70.001368029043078" lon="23.487091977149248">
        <ele>0.62</ele>
        <time>2017-06-27T06:53:52Z</time>
      </trkpt>
      <trkpt lat="70.00132704153657" lon="23.483085008338094">
        <ele>-0.82</ele>
        <time>2017-06-27T06:53:59Z</time>
      </trkpt>
      <trkpt lat="70.001261997967958" lon="23.482544040307403">
        <ele>-0.34</ele>
        <time>2017-06-27T06:54:00Z</time>
      </trkpt>
      <trkpt lat="70.00117801129818" lon="23.482005000114441">
        <ele>0.14</ele>
        <time>2017-06-27T06:54:01Z</time>
      </trkpt>
      <trkpt lat="70.001078015193343" lon="23.481476018205285">
        <ele>1.1</ele>
        <time>2017-06-27T06:54:02Z</time>
      </trkpt>
      <trkpt lat="70.000400003045797" lon="23.478636983782053">
        <ele>4.46</ele>
        <time>2017-06-27T06:54:08Z</time>
      </trkpt>
      <trkpt lat="70.000262958928943" lon="23.478288967162371">
        <ele>4.46</ele>
        <time>2017-06-27T06:54:09Z</time>
      </trkpt>
      <trkpt lat="70.000118035823107" lon="23.478003982454538">
        <ele>4.46</ele>
        <time>2017-06-27T06:54:10Z</time>
      </trkpt>
      <trkpt lat="69.999960958957672" lon="23.477801978588104">
        <ele>4.46</ele>
        <time>2017-06-27T06:54:11Z</time>
      </trkpt>
      <trkpt lat="69.999794997274876" lon="23.477681027725339">
        <ele>4.46</ele>
        <time>2017-06-27T06:54:12Z</time>
      </trkpt>
      <trkpt lat="69.999615037813783" lon="23.477611038833857">
        <ele>3.98</ele>
        <time>2017-06-27T06:54:13Z</time>
      </trkpt>
      <trkpt lat="69.999426025897264" lon="23.477611960843205">
        <ele>3.98</ele>
        <time>2017-06-27T06:54:14Z</time>
      </trkpt>
      <trkpt lat="69.999227039515972" lon="23.47766300663352">
        <ele>4.46</ele>
        <time>2017-06-27T06:54:15Z</time>
      </trkpt>
      <trkpt lat="69.999024029821157" lon="23.477784041315317">
        <ele>4.94</ele>
        <time>2017-06-27T06:54:16Z</time>
      </trkpt>
      <trkpt lat="69.99881699681282" lon="23.477961989119649">
        <ele>5.91</ele>
        <time>2017-06-27T06:54:17Z</time>
      </trkpt>
      <trkpt lat="69.998605018481612" lon="23.478185031563044">
        <ele>6.87</ele>
        <time>2017-06-27T06:54:18Z</time>
      </trkpt>
      <trkpt lat="69.997082026675344" lon="23.480517966672778">
        <ele>11.19</ele>
        <time>2017-06-27T06:54:26Z</time>
      </trkpt>
      <trkpt lat="69.995819963514805" lon="23.484229976311326">
        <ele>1.1</ele>
        <time>2017-06-27T06:54:34Z</time>
      </trkpt>
      <trkpt lat="69.995314031839371" lon="23.485448034480214">
        <ele>0.14</ele>
        <time>2017-06-27T06:54:37Z</time>
      </trkpt>
      <trkpt lat="69.995126025751233" lon="23.485770989209414">
        <ele>0.14</ele>
        <time>2017-06-27T06:54:38Z</time>
      </trkpt>
      <trkpt lat="69.994931984692812" lon="23.486032001674175">
        <ele>-0.34</ele>
        <time>2017-06-27T06:54:39Z</time>
      </trkpt>
      <trkpt lat="69.994730986654758" lon="23.486255966126919">
        <ele>0.14</ele>
        <time>2017-06-27T06:54:40Z</time>
      </trkpt>
      <trkpt lat="69.994521019980311" lon="23.486449001356959">
        <ele>0.14</ele>
        <time>2017-06-27T06:54:41Z</time>
      </trkpt>
      <trkpt lat="69.992149025201797" lon="23.487737970426679">
        <ele>5.42</ele>
        <time>2017-06-27T06:54:52Z</time>
      </trkpt>
      <trkpt lat="69.989984985440969" lon="23.487150985747576">
        <ele>6.87</ele>
        <time>2017-06-27T06:55:02Z</time>
      </trkpt>
      <trkpt lat="69.987073028460145" lon="23.486336013302207">
        <ele>7.83</ele>
        <time>2017-06-27T06:55:17Z</time>
      </trkpt>
      <trkpt lat="69.984528031200171" lon="23.48550695925951">
        <ele>6.87</ele>
        <time>2017-06-27T06:55:31Z</time>
      </trkpt>
      <trkpt lat="69.983551036566496" lon="23.48391498439014">
        <ele>5.42</ele>
        <time>2017-06-27T06:55:38Z</time>
      </trkpt>
      <trkpt lat="69.981164038181305" lon="23.478832030668855">
        <ele>3.02</ele>
        <time>2017-06-27T06:55:55Z</time>
      </trkpt>
      <trkpt lat="69.977604998275638" lon="23.471433995291591">
        <ele>1.58</ele>
        <time>2017-06-27T06:56:20Z</time>
      </trkpt>
      <trkpt lat="69.975124960765243" lon="23.466115007176995">
        <ele>-1.3</ele>
        <time>2017-06-27T06:56:37Z</time>
      </trkpt>
      <trkpt lat="69.975009961053729" lon="23.465724997222424">
        <ele>-1.3</ele>
        <time>2017-06-27T06:56:38Z</time>
      </trkpt>
      <trkpt lat="69.974906025454402" lon="23.46530900336802">
        <ele>-1.3</ele>
        <time>2017-06-27T06:56:39Z</time>
      </trkpt>
      <trkpt lat="69.974821032956243" lon="23.464867025613785">
        <ele>-0.82</ele>
        <time>2017-06-27T06:56:40Z</time>
      </trkpt>
      <trkpt lat="69.974750960245728" lon="23.464403003454208">
        <ele>-0.34</ele>
        <time>2017-06-27T06:56:41Z</time>
      </trkpt>
      <trkpt lat="69.974693041294813" lon="23.463928001001477">
        <ele>0.14</ele>
        <time>2017-06-27T06:56:42Z</time>
      </trkpt>
      <trkpt lat="69.974652975797653" lon="23.463446041569114">
        <ele>1.1</ele>
        <time>2017-06-27T06:56:43Z</time>
      </trkpt>
      <trkpt lat="69.974626991897821" lon="23.462955029681325">
        <ele>1.58</ele>
        <time>2017-06-27T06:56:44Z</time>
      </trkpt>
      <trkpt lat="69.974613999947906" lon="23.462466029450297">
        <ele>1.58</ele>
        <time>2017-06-27T06:56:45Z</time>
      </trkpt>
      <trkpt lat="69.974612994119525" lon="23.46197996288538">
        <ele>2.06</ele>
        <time>2017-06-27T06:56:46Z</time>
      </trkpt>
      <trkpt lat="69.974630009382963" lon="23.461514012888074">
        <ele>1.58</ele>
        <time>2017-06-27T06:56:47Z</time>
      </trkpt>
      <trkpt lat="69.974670996889472" lon="23.461081003770232">
        <ele>1.58</ele>
        <time>2017-06-27T06:56:48Z</time>
      </trkpt>
      <trkpt lat="69.974738974124193" lon="23.460661992430687">
        <ele>1.58</ele>
        <time>2017-06-27T06:56:49Z</time>
      </trkpt>
      <trkpt lat="69.974826984107494" lon="23.460263013839722">
        <ele>2.06</ele>
        <time>2017-06-27T06:56:50Z</time>
      </trkpt>
      <trkpt lat="69.974923962727189" lon="23.459867974743247">
        <ele>2.06</ele>
        <time>2017-06-27T06:56:51Z</time>
      </trkpt>
      <trkpt lat="69.975026976317167" lon="23.459481988102198">
        <ele>2.54</ele>
        <time>2017-06-27T06:56:52Z</time>
      </trkpt>
      <trkpt lat="69.975311039015651" lon="23.458271976560354">
        <ele>3.02</ele>
        <time>2017-06-27T06:56:55Z</time>
      </trkpt>
      <trkpt lat="69.975372981280088" lon="23.457833016291261">
        <ele>2.54</ele>
        <time>2017-06-27T06:56:56Z</time>
      </trkpt>
      <trkpt lat="69.975411035120487" lon="23.457365976646543">
        <ele>2.54</ele>
        <time>2017-06-27T06:56:57Z</time>
      </trkpt>
      <trkpt lat="69.975426038727164" lon="23.45688602887094">
        <ele>2.54</ele>
        <time>2017-06-27T06:56:58Z</time>
      </trkpt>
      <trkpt lat="69.975413968786597" lon="23.456403985619545">
        <ele>2.54</ele>
        <time>2017-06-27T06:56:59Z</time>
      </trkpt>
      <trkpt lat="69.975379016250372" lon="23.455927977338433">
        <ele>3.02</ele>
        <time>2017-06-27T06:57:00Z</time>
      </trkpt>
      <trkpt lat="69.975321013480425" lon="23.455464961007237">
        <ele>3.5</ele>
        <time>2017-06-27T06:57:01Z</time>
      </trkpt>
      <trkpt lat="69.975240966305137" lon="23.455022983253002">
        <ele>3.98</ele>
        <time>2017-06-27T06:57:02Z</time>
      </trkpt>
      <trkpt lat="69.975149016827345" lon="23.454593997448683">
        <ele>4.46</ele>
        <time>2017-06-27T06:57:03Z</time>
      </trkpt>
      <trkpt lat="69.975042985752225" lon="23.454188983887434">
        <ele>4.94</ele>
        <time>2017-06-27T06:57:04Z</time>
      </trkpt>
      <trkpt lat="69.97492597438395" lon="23.453811965882778">
        <ele>5.91</ele>
        <time>2017-06-27T06:57:05Z</time>
      </trkpt>
      <trkpt lat="69.974797982722521" lon="23.453455986455083">
        <ele>6.39</ele>
        <time>2017-06-27T06:57:06Z</time>
      </trkpt>
      <trkpt lat="69.97466403990984" lon="23.453122973442078">
        <ele>6.87</ele>
        <time>2017-06-27T06:57:07Z</time>
      </trkpt>
      <trkpt lat="69.974162969738245" lon="23.451630994677544">
        <ele>8.310000000000001</ele>
        <time>2017-06-27T06:57:11Z</time>
      </trkpt>
      <trkpt lat="69.974063979461789" lon="23.451183987781405">
        <ele>8.310000000000001</ele>
        <time>2017-06-27T06:57:12Z</time>
      </trkpt>
      <trkpt lat="69.973976975306869" lon="23.450706973671913">
        <ele>8.789999999999999</ele>
        <time>2017-06-27T06:57:13Z</time>
      </trkpt>
      <trkpt lat="69.973350008949637" lon="23.44728103838861">
        <ele>10.710000000000001</ele>
        <time>2017-06-27T06:57:21Z</time>
      </trkpt>
      <trkpt lat="69.972234964370728" lon="23.444372015073895">
        <ele>13.6</ele>
        <time>2017-06-27T06:57:30Z</time>
      </trkpt>
      <trkpt lat="69.970680037513375" lon="23.440258009359241">
        <ele>16</ele>
        <time>2017-06-27T06:57:42Z</time>
      </trkpt>
      <trkpt lat="69.969570022076368" lon="23.43497397378087">
        <ele>17.440000000000001</ele>
        <time>2017-06-27T06:57:55Z</time>
      </trkpt>
      <trkpt lat="69.969129972159863" lon="23.430409021675587">
        <ele>17.920000000000002</ele>
        <time>2017-06-27T06:58:05Z</time>
      </trkpt>
      <trkpt lat="69.969044979661703" lon="23.429993027821183">
        <ele>17.920000000000002</ele>
        <time>2017-06-27T06:58:06Z</time>
      </trkpt>
      <trkpt lat="69.96895001269877" lon="23.429593965411186">
        <ele>18.399999999999999</ele>
        <time>2017-06-27T06:58:07Z</time>
      </trkpt>
      <trkpt lat="69.967654002830386" lon="23.425252977758646">
        <ele>19.359999999999999</ele>
        <time>2017-06-27T06:58:19Z</time>
      </trkpt>
      <trkpt lat="69.966542981564999" lon="23.421881021931767">
        <ele>20.32</ele>
        <time>2017-06-27T06:58:31Z</time>
      </trkpt>
      <trkpt lat="69.964908007532358" lon="23.417193023487926">
        <ele>19.84</ele>
        <time>2017-06-27T06:58:47Z</time>
      </trkpt>
      <trkpt lat="69.963295999914408" lon="23.411678988486528">
        <ele>21.289999999999999</ele>
        <time>2017-06-27T06:59:04Z</time>
      </trkpt>
      <trkpt lat="69.961973000317812" lon="23.406245000660419">
        <ele>16</ele>
        <time>2017-06-27T06:59:21Z</time>
      </trkpt>
      <trkpt lat="69.961424991488457" lon="23.40308703482151">
        <ele>8.310000000000001</ele>
        <time>2017-06-27T06:59:31Z</time>
      </trkpt>
      <trkpt lat="69.96141099371016" lon="23.402732983231544">
        <ele>7.35</ele>
        <time>2017-06-27T06:59:32Z</time>
      </trkpt>
      <trkpt lat="69.961407976225019" lon="23.402367029339075">
        <ele>6.39</ele>
        <time>2017-06-27T06:59:33Z</time>
      </trkpt>
      <trkpt lat="69.961414011195302" lon="23.402000991627574">
        <ele>4.94</ele>
        <time>2017-06-27T06:59:34Z</time>
      </trkpt>
      <trkpt lat="69.961432032287121" lon="23.401624979451299">
        <ele>3.98</ele>
        <time>2017-06-27T06:59:35Z</time>
      </trkpt>
      <trkpt lat="69.961461033672094" lon="23.401256008073688">
        <ele>3.02</ele>
        <time>2017-06-27T06:59:36Z</time>
      </trkpt>
      <trkpt lat="69.961499003693461" lon="23.400889970362186">
        <ele>2.54</ele>
        <time>2017-06-27T06:59:37Z</time>
      </trkpt>
      <trkpt lat="69.961548037827015" lon="23.400532985106111">
        <ele>2.06</ele>
        <time>2017-06-27T06:59:38Z</time>
      </trkpt>
      <trkpt lat="69.961601011455059" lon="23.400191003456712">
        <ele>1.58</ele>
        <time>2017-06-27T06:59:39Z</time>
      </trkpt>
      <trkpt lat="69.962251028046012" lon="23.396487040445209">
        <ele>2.06</ele>
        <time>2017-06-27T06:59:51Z</time>
      </trkpt>
      <trkpt lat="69.962714966386557" lon="23.39243003167212">
        <ele>0.62</ele>
        <time>2017-06-27T07:00:05Z</time>
      </trkpt>
      <trkpt lat="69.963127020746469" lon="23.386110998690128">
        <ele>3.02</ele>
        <time>2017-06-27T07:00:24Z</time>
      </trkpt>
      <trkpt lat="69.963373029604554" lon="23.383400961756706">
        <ele>3.5</ele>
        <time>2017-06-27T07:00:32Z</time>
      </trkpt>
      <trkpt lat="69.963434971868992" lon="23.383100973442197">
        <ele>3.5</ele>
        <time>2017-06-27T07:00:33Z</time>
      </trkpt>
      <trkpt lat="69.963512001559138" lon="23.382836021482944">
        <ele>3.02</ele>
        <time>2017-06-27T07:00:34Z</time>
      </trkpt>
      <trkpt lat="69.963594982400537" lon="23.382597975432873">
        <ele>3.02</ele>
        <time>2017-06-27T07:00:35Z</time>
      </trkpt>
      <trkpt lat="69.963685004040599" lon="23.382383985444903">
        <ele>2.54</ele>
        <time>2017-06-27T07:00:36Z</time>
      </trkpt>
      <trkpt lat="69.963783994317055" lon="23.382177958264947">
        <ele>2.54</ele>
        <time>2017-06-27T07:00:37Z</time>
      </trkpt>
      <trkpt lat="69.963887007907033" lon="23.381991041824222">
        <ele>2.06</ele>
        <time>2017-06-27T07:00:38Z</time>
      </trkpt>
      <trkpt lat="69.965359959751368" lon="23.379790037870407">
        <ele>-1.3</ele>
        <time>2017-06-27T07:00:52Z</time>
      </trkpt>
      <trkpt lat="69.967793980613351" lon="23.376091020181775">
        <ele>0.14</ele>
        <time>2017-06-27T07:01:17Z</time>
      </trkpt>
      <trkpt lat="69.969215970486403" lon="23.373967967927456">
        <ele>-1.3</ele>
        <time>2017-06-27T07:01:32Z</time>
      </trkpt>
      <trkpt lat="69.969309009611607" lon="23.373908037319779">
        <ele>-1.3</ele>
        <time>2017-06-27T07:01:33Z</time>
      </trkpt>
      <trkpt lat="69.969656020402908" lon="23.373587010428309">
        <ele>-1.3</ele>
        <time>2017-06-27T07:01:37Z</time>
      </trkpt>
      <trkpt lat="69.969946034252644" lon="23.373285010457039">
        <ele>-1.79</ele>
        <time>2017-06-27T07:01:40Z</time>
      </trkpt>
      <trkpt lat="69.970053993165493" lon="23.373219966888428">
        <ele>-1.79</ele>
        <time>2017-06-27T07:01:41Z</time>
      </trkpt>
      <trkpt lat="69.971355032175779" lon="23.372759968042374">
        <ele>-1.3</ele>
        <time>2017-06-27T07:01:54Z</time>
      </trkpt>
      <trkpt lat="69.97200395911932" lon="23.372380016371608">
        <ele>0.14</ele>
        <time>2017-06-27T07:02:01Z</time>
      </trkpt>
      <trkpt lat="69.972081994637847" lon="23.372251018881798">
        <ele>0.14</ele>
        <time>2017-06-27T07:02:02Z</time>
      </trkpt>
      <trkpt lat="69.972158018499613" lon="23.372104000300169">
        <ele>0.14</ele>
        <time>2017-06-27T07:02:03Z</time>
      </trkpt>
      <trkpt lat="69.972232030704618" lon="23.371940972283483">
        <ele>0.14</ele>
        <time>2017-06-27T07:02:04Z</time>
      </trkpt>
      <trkpt lat="69.972297996282578" lon="23.371768975630403">
        <ele>0.14</ele>
        <time>2017-06-27T07:02:05Z</time>
      </trkpt>
      <trkpt lat="69.972574012354016" lon="23.37094796821475">
        <ele>-0.34</ele>
        <time>2017-06-27T07:02:10Z</time>
      </trkpt>
      <trkpt lat="69.972609970718622" lon="23.370749987661839">
        <ele>-0.34</ele>
        <time>2017-06-27T07:02:11Z</time>
      </trkpt>
      <trkpt lat="69.972630003467202" lon="23.370520994067192">
        <ele>-0.34</ele>
        <time>2017-06-27T07:02:12Z</time>
      </trkpt>
      <trkpt lat="69.972707033157349" lon="23.369772993028164">
        <ele>-0.34</ele>
        <time>2017-06-27T07:02:15Z</time>
      </trkpt>
      <trkpt lat="69.972746009007096" lon="23.369530001655221">
        <ele>-0.34</ele>
        <time>2017-06-27T07:02:16Z</time>
      </trkpt>
      <trkpt lat="69.973254036158323" lon="23.366559036076069">
        <ele>-2.27</ele>
        <time>2017-06-27T07:02:29Z</time>
      </trkpt>
      <trkpt lat="69.973509013652802" lon="23.365162024274468">
        <ele>-3.23</ele>
        <time>2017-06-27T07:02:38Z</time>
      </trkpt>
      <trkpt lat="69.973542038351297" lon="23.365062028169632">
        <ele>-3.23</ele>
        <time>2017-06-27T07:02:39Z</time>
      </trkpt>
      <trkpt lat="69.973575985059142" lon="23.365000002086163">
        <ele>-3.23</ele>
        <time>2017-06-27T07:02:40Z</time>
      </trkpt>
      <trkpt lat="69.97361202724278" lon="23.364966977387667">
        <ele>-3.71</ele>
        <time>2017-06-27T07:02:41Z</time>
      </trkpt>
      <trkpt lat="69.973648991435766" lon="23.364947028458118">
        <ele>-3.23</ele>
        <time>2017-06-27T07:02:42Z</time>
      </trkpt>
      <trkpt lat="69.973682016134262" lon="23.364934958517551">
        <ele>-3.23</ele>
        <time>2017-06-27T07:02:43Z</time>
      </trkpt>
      <trkpt lat="69.973738007247448" lon="23.36486698128283">
        <ele>-3.23</ele>
        <time>2017-06-27T07:02:45Z</time>
      </trkpt>
      <trkpt lat="69.973756028339267" lon="23.364804033190012">
        <ele>-3.23</ele>
        <time>2017-06-27T07:02:46Z</time>
      </trkpt>
      <trkpt lat="69.973768014460802" lon="23.364735972136259">
        <ele>-3.23</ele>
        <time>2017-06-27T07:02:47Z</time>
      </trkpt>
      <trkpt lat="69.973830040544271" lon="23.364403964951634">
        <ele>-3.71</ele>
        <time>2017-06-27T07:02:59Z</time>
      </trkpt>
      <trkpt lat="69.97382702305913" lon="23.364378986880183">
        <ele>-3.71</ele>
        <time>2017-06-27T07:03:06Z</time>
      </trkpt>
      <trkpt lat="69.973841020837426" lon="23.364287037402391">
        <ele>-3.71</ele>
        <time>2017-06-27T07:03:07Z</time>
      </trkpt>
      <trkpt lat="69.973842026665807" lon="23.364222999662161">
        <ele>-4.19</ele>
        <time>2017-06-27T07:03:08Z</time>
      </trkpt>
      <trkpt lat="69.973858958110213" lon="23.36402703076601">
        <ele>-1.79</ele>
        <time>2017-06-27T07:03:28Z</time>
      </trkpt>
      <trkpt lat="69.973860969766974" lon="23.364016972482204">
        <ele>-1.79</ele>
        <time>2017-06-27T07:04:03Z</time>
      </trkpt>
      <trkpt lat="69.973864993080497" lon="23.36400699801743">
        <ele>-2.27</ele>
        <time>2017-06-27T07:05:50Z</time>
      </trkpt>
      <trkpt lat="69.97387102805078" lon="23.363991994410753">
        <ele>-2.75</ele>
        <time>2017-06-27T07:07:27Z</time>
      </trkpt>
      <trkpt lat="69.973876979202032" lon="23.36396399885416">
        <ele>-3.23</ele>
        <time>2017-06-27T07:08:48Z</time>
      </trkpt>
      <trkpt lat="69.973878990858793" lon="23.36396299302578">
        <ele>-4.19</ele>
        <time>2017-06-27T07:10:03Z</time>
      </trkpt>
      <trkpt lat="69.973884020000696" lon="23.36394396610558">
        <ele>-4.19</ele>
        <time>2017-06-27T07:11:47Z</time>
      </trkpt>
      <trkpt lat="69.973884020000696" lon="23.363934997469187">
        <ele>-4.19</ele>
        <time>2017-06-27T07:13:19Z</time>
      </trkpt>
      <trkpt lat="69.973897011950612" lon="23.363891998305917">
        <ele>-4.67</ele>
        <time>2017-06-27T07:14:33Z</time>
      </trkpt>
      <trkpt lat="69.973897011950612" lon="23.363889986649156">
        <ele>-3.71</ele>
        <time>2017-06-27T07:15:39Z</time>
      </trkpt>
      <trkpt lat="69.973900029435754" lon="23.363847993314266">
        <ele>-0.34</ele>
        <time>2017-06-27T07:17:14Z</time>
      </trkpt>
      <trkpt lat="69.973965995013714" lon="23.363784039393067">
        <ele>-1.79</ele>
        <time>2017-06-27T07:17:38Z</time>
      </trkpt>
      <trkpt lat="69.97402299195528" lon="23.363710027188063">
        <ele>-1.3</ele>
        <time>2017-06-27T07:17:42Z</time>
      </trkpt>
      <trkpt lat="69.974018968641758" lon="23.363669039681554">
        <ele>-0.82</ele>
        <time>2017-06-27T07:17:43Z</time>
      </trkpt>
      <trkpt lat="69.974004970863461" lon="23.363615982234478">
        <ele>0.14</ele>
        <time>2017-06-27T07:17:44Z</time>
      </trkpt>
      <trkpt lat="69.973980998620391" lon="23.363562002778053">
        <ele>0.62</ele>
        <time>2017-06-27T07:17:45Z</time>
      </trkpt>
      <trkpt lat="69.973951997235417" lon="23.363520009443164">
        <ele>0.62</ele>
        <time>2017-06-27T07:17:46Z</time>
      </trkpt>
      <trkpt lat="69.973921990022063" lon="23.363495031371713">
        <ele>1.58</ele>
        <time>2017-06-27T07:17:47Z</time>
      </trkpt>
      <trkpt lat="69.973859963938594" lon="23.363438034430146">
        <ele>2.06</ele>
        <time>2017-06-27T07:17:57Z</time>
      </trkpt>
      <trkpt lat="69.973809001967311" lon="23.363107033073902">
        <ele>1.58</ele>
        <time>2017-06-27T07:18:03Z</time>
      </trkpt>
      <trkpt lat="69.973822999745607" lon="23.362941993400455">
        <ele>1.58</ele>
        <time>2017-06-27T07:18:04Z</time>
      </trkpt>
      <trkpt lat="69.97404201887548" lon="23.360678963363171">
        <ele>2.06</ele>
        <time>2017-06-27T07:18:12Z</time>
      </trkpt>
      <trkpt lat="69.974177973344922" lon="23.357628034427762">
        <ele>1.58</ele>
        <time>2017-06-27T07:18:21Z</time>
      </trkpt>
      <trkpt lat="69.974291967228055" lon="23.353383019566536">
        <ele>2.06</ele>
        <time>2017-06-27T07:18:36Z</time>
      </trkpt>
      <trkpt lat="69.97451601549983" lon="23.34999899379909">
        <ele>0.62</ele>
        <time>2017-06-27T07:18:48Z</time>
      </trkpt>
      <trkpt lat="69.974563037976623" lon="23.34976396523416">
        <ele>0.14</ele>
        <time>2017-06-27T07:18:49Z</time>
      </trkpt>
      <trkpt lat="69.974636966362596" lon="23.349014958366752">
        <ele>1.1</ele>
        <time>2017-06-27T07:18:52Z</time>
      </trkpt>
      <trkpt lat="69.974632021039724" lon="23.348742965608835">
        <ele>0.62</ele>
        <time>2017-06-27T07:18:53Z</time>
      </trkpt>
      <trkpt lat="69.974626991897821" lon="23.347804024815559">
        <ele>0.62</ele>
        <time>2017-06-27T07:18:56Z</time>
      </trkpt>
      <trkpt lat="69.974892027676105" lon="23.342819977551699">
        <ele>2.06</ele>
        <time>2017-06-27T07:19:10Z</time>
      </trkpt>
      <trkpt lat="69.97524599544704" lon="23.336572023108602">
        <ele>5.91</ele>
        <time>2017-06-27T07:19:29Z</time>
      </trkpt>
      <trkpt lat="69.975514970719814" lon="23.329270966351032">
        <ele>9.75</ele>
        <time>2017-06-27T07:19:51Z</time>
      </trkpt>
      <trkpt lat="69.975641034543514" lon="23.32346398383379">
        <ele>9.75</ele>
        <time>2017-06-27T07:20:11Z</time>
      </trkpt>
      <trkpt lat="69.975636005401611" lon="23.319228021427989">
        <ele>12.630000000000001</ele>
        <time>2017-06-27T07:20:23Z</time>
      </trkpt>
      <trkpt lat="69.975914033129811" lon="23.312413031235337">
        <ele>22.25</ele>
        <time>2017-06-27T07:20:40Z</time>
      </trkpt>
      <trkpt lat="69.975885031744838" lon="23.307044003158808">
        <ele>31.379999999999999</ele>
        <time>2017-06-27T07:20:53Z</time>
      </trkpt>
      <trkpt lat="69.976114025339484" lon="23.303551012650132">
        <ele>40.030000000000001</ele>
        <time>2017-06-27T07:21:02Z</time>
      </trkpt>
      <trkpt lat="69.976922962814569" lon="23.299016989767551">
        <ele>49.649999999999999</ele>
        <time>2017-06-27T07:21:15Z</time>
      </trkpt>
      <trkpt lat="69.977369969710708" lon="23.297098036855459">
        <ele>54.93</ele>
        <time>2017-06-27T07:21:21Z</time>
      </trkpt>
      <trkpt lat="69.977409029379487" lon="23.296723030507565">
        <ele>55.890000000000001</ele>
        <time>2017-06-27T07:21:22Z</time>
      </trkpt>
      <trkpt lat="69.977435013279319" lon="23.296341989189386">
        <ele>56.859999999999999</ele>
        <time>2017-06-27T07:21:23Z</time>
      </trkpt>
      <trkpt lat="69.977445993572474" lon="23.29596203751862">
        <ele>57.82</ele>
        <time>2017-06-27T07:21:24Z</time>
      </trkpt>
      <trkpt lat="69.977442976087332" lon="23.295587031170726">
        <ele>59.259999999999998</ele>
        <time>2017-06-27T07:21:25Z</time>
      </trkpt>
      <trkpt lat="69.977433001622558" lon="23.295211018994451">
        <ele>60.700000000000003</ele>
        <time>2017-06-27T07:21:26Z</time>
      </trkpt>
      <trkpt lat="69.977413974702358" lon="23.294843975454569">
        <ele>62.140000000000001</ele>
        <time>2017-06-27T07:21:27Z</time>
      </trkpt>
      <trkpt lat="69.977384973317385" lon="23.29448196105659">
        <ele>63.100000000000001</ele>
        <time>2017-06-27T07:21:28Z</time>
      </trkpt>
      <trkpt lat="69.977349014952779" lon="23.294131010770798">
        <ele>63.579999999999998</ele>
        <time>2017-06-27T07:21:29Z</time>
      </trkpt>
      <trkpt lat="69.977307021617889" lon="23.29379296861589">
        <ele>64.549999999999997</ele>
        <time>2017-06-27T07:21:30Z</time>
      </trkpt>
      <trkpt lat="69.977257987484336" lon="23.29348904080689">
        <ele>65.030000000000001</ele>
        <time>2017-06-27T07:21:31Z</time>
      </trkpt>
      <trkpt lat="69.977203002199531" lon="23.293204978108406">
        <ele>64.549999999999997</ele>
        <time>2017-06-27T07:21:32Z</time>
      </trkpt>
      <trkpt lat="69.977150028571486" lon="23.292967015877366">
        <ele>65.030000000000001</ele>
        <time>2017-06-27T07:21:33Z</time>
      </trkpt>
      <trkpt lat="69.977098982781172" lon="23.292752020061016">
        <ele>65.030000000000001</ele>
        <time>2017-06-27T07:21:34Z</time>
      </trkpt>
      <trkpt lat="69.976924974471331" lon="23.292032014578581">
        <ele>64.549999999999997</ele>
        <time>2017-06-27T07:21:38Z</time>
      </trkpt>
      <trkpt lat="69.976860014721751" lon="23.291898993775249">
        <ele>64.549999999999997</ele>
        <time>2017-06-27T07:21:39Z</time>
      </trkpt>
      <trkpt lat="69.976780973374844" lon="23.291788017377257">
        <ele>65.030000000000001</ele>
        <time>2017-06-27T07:21:40Z</time>
      </trkpt>
      <trkpt lat="69.975812025368214" lon="23.290471974760294">
        <ele>68.390000000000001</ele>
        <time>2017-06-27T07:21:51Z</time>
      </trkpt>
      <trkpt lat="69.974721036851406" lon="23.288306007161736">
        <ele>70.790000000000006</ele>
        <time>2017-06-27T07:22:03Z</time>
      </trkpt>
      <trkpt lat="69.97307701036334" lon="23.283869968727231">
        <ele>73.680000000000007</ele>
        <time>2017-06-27T07:22:25Z</time>
      </trkpt>
      <trkpt lat="69.972858997061849" lon="23.283112999051809">
        <ele>73.680000000000007</ele>
        <time>2017-06-27T07:22:30Z</time>
      </trkpt>
      <trkpt lat="69.972802000120282" lon="23.282971009612083">
        <ele>73.680000000000007</ele>
        <time>2017-06-27T07:22:31Z</time>
      </trkpt>
      <trkpt lat="69.972100015729666" lon="23.28113897703588">
        <ele>72.719999999999999</ele>
        <time>2017-06-27T07:22:40Z</time>
      </trkpt>
      <trkpt lat="69.970552967861295" lon="23.276286022737622">
        <ele>71.760000000000005</ele>
        <time>2017-06-27T07:23:00Z</time>
      </trkpt>
      <trkpt lat="69.96925100684166" lon="23.272509975358844">
        <ele>60.700000000000003</ele>
        <time>2017-06-27T07:23:17Z</time>
      </trkpt>
      <trkpt lat="69.969041962176561" lon="23.271897006779909">
        <ele>59.259999999999998</ele>
        <time>2017-06-27T07:23:24Z</time>
      </trkpt>
      <trkpt lat="69.968878012150526" lon="23.271457962691784">
        <ele>58.299999999999997</ele>
        <time>2017-06-27T07:23:29Z</time>
      </trkpt>
      <trkpt lat="69.968839958310127" lon="23.27138596214354">
        <ele>58.299999999999997</ele>
        <time>2017-06-27T07:23:30Z</time>
      </trkpt>
      <trkpt lat="69.968787990510464" lon="23.271325025707483">
        <ele>58.299999999999997</ele>
        <time>2017-06-27T07:23:31Z</time>
      </trkpt>
      <trkpt lat="69.968551034107804" lon="23.271011961624026">
        <ele>57.340000000000003</ele>
        <time>2017-06-27T07:23:34Z</time>
      </trkpt>
      <trkpt lat="69.967545960098505" lon="23.269227035343647">
        <ele>58.299999999999997</ele>
        <time>2017-06-27T07:23:46Z</time>
      </trkpt>
      <trkpt lat="69.966527977958322" lon="23.266655970364809">
        <ele>54.450000000000003</ele>
        <time>2017-06-27T07:24:00Z</time>
      </trkpt>
      <trkpt lat="69.965818030759692" lon="23.263430027291179">
        <ele>50.130000000000003</ele>
        <time>2017-06-27T07:24:13Z</time>
      </trkpt>
      <trkpt lat="69.965333975851536" lon="23.261231034994125">
        <ele>48.68</ele>
        <time>2017-06-27T07:24:24Z</time>
      </trkpt>
      <trkpt lat="69.965272033587098" lon="23.260910008102655">
        <ele>48.68</ele>
        <time>2017-06-27T07:24:26Z</time>
      </trkpt>
      <trkpt lat="69.96523498557508" lon="23.260771036148071">
        <ele>48.68</ele>
        <time>2017-06-27T07:24:27Z</time>
      </trkpt>
      <trkpt lat="69.965189974755049" lon="23.260676991194487">
        <ele>49.159999999999997</ele>
        <time>2017-06-27T07:24:28Z</time>
      </trkpt>
      <trkpt lat="69.965140018612146" lon="23.260641032829881">
        <ele>48.68</ele>
        <time>2017-06-27T07:24:29Z</time>
      </trkpt>
      <trkpt lat="69.965090984478593" lon="23.260666010901332">
        <ele>48.68</ele>
        <time>2017-06-27T07:24:30Z</time>
      </trkpt>
      <trkpt lat="69.965046979486942" lon="23.260767012834549">
        <ele>48.68</ele>
        <time>2017-06-27T07:24:31Z</time>
      </trkpt>
      <trkpt lat="69.965010015293956" lon="23.260913025587797">
        <ele>48.68</ele>
        <time>2017-06-27T07:24:32Z</time>
      </trkpt>
      <trkpt lat="69.964971961453557" lon="23.261087033897638">
        <ele>48.68</ele>
        <time>2017-06-27T07:24:33Z</time>
      </trkpt>
      <trkpt lat="69.964858973398805" lon="23.261493975296617">
        <ele>47.719999999999999</ele>
        <time>2017-06-27T07:24:35Z</time>
      </trkpt>
      <trkpt lat="69.964194959029555" lon="23.263366995379329">
        <ele>47.240000000000002</ele>
        <time>2017-06-27T07:24:43Z</time>
      </trkpt>
      <trkpt lat="69.964127987623215" lon="23.263638988137245">
        <ele>47.240000000000002</ele>
        <time>2017-06-27T07:24:44Z</time>
      </trkpt>
      <trkpt lat="69.964066967368126" lon="23.263915004208684">
        <ele>46.759999999999998</ele>
        <time>2017-06-27T07:24:45Z</time>
      </trkpt>
      <trkpt lat="69.964016005396843" lon="23.264203006401658">
        <ele>47.240000000000002</ele>
        <time>2017-06-27T07:24:46Z</time>
      </trkpt>
      <trkpt lat="69.963974012061954" lon="23.26450701802969">
        <ele>47.240000000000002</ele>
        <time>2017-06-27T07:24:47Z</time>
      </trkpt>
      <trkpt lat="69.963940987363458" lon="23.264828966930509">
        <ele>47.240000000000002</ele>
        <time>2017-06-27T07:24:48Z</time>
      </trkpt>
      <trkpt lat="69.963917015120387" lon="23.265147982165217">
        <ele>46.759999999999998</ele>
        <time>2017-06-27T07:24:49Z</time>
      </trkpt>
      <trkpt lat="69.96390201151371" lon="23.265460040420294">
        <ele>46.759999999999998</ele>
        <time>2017-06-27T07:24:50Z</time>
      </trkpt>
      <trkpt lat="69.963894970715046" lon="23.265746030956507">
        <ele>46.759999999999998</ele>
        <time>2017-06-27T07:24:51Z</time>
      </trkpt>
      <trkpt lat="69.963836967945099" lon="23.267191993072629">
        <ele>45.32</ele>
        <time>2017-06-27T07:24:57Z</time>
      </trkpt>
      <trkpt lat="69.963844008743763" lon="23.267370024695992">
        <ele>45.32</ele>
        <time>2017-06-27T07:24:58Z</time>
      </trkpt>
      <trkpt lat="69.963863035663962" lon="23.267518971115351">
        <ele>45.32</ele>
        <time>2017-06-27T07:24:59Z</time>
      </trkpt>
      <trkpt lat="69.963901005685329" lon="23.267628019675612">
        <ele>45.32</ele>
        <time>2017-06-27T07:25:00Z</time>
      </trkpt>
      <trkpt lat="69.963951967656612" lon="23.267679987475276">
        <ele>45.32</ele>
        <time>2017-06-27T07:25:01Z</time>
      </trkpt>
      <trkpt lat="69.964009970426559" lon="23.267672024667263">
        <ele>45.32</ele>
        <time>2017-06-27T07:25:02Z</time>
      </trkpt>
      <trkpt lat="69.964073002338409" lon="23.267626008018851">
        <ele>45.799999999999997</ele>
        <time>2017-06-27T07:25:03Z</time>
      </trkpt>
      <trkpt lat="69.964127987623215" lon="23.267576973885298">
        <ele>45.799999999999997</ele>
        <time>2017-06-27T07:25:04Z</time>
      </trkpt>
      <trkpt lat="69.964281963184476" lon="23.267401037737727">
        <ele>45.799999999999997</ele>
        <time>2017-06-27T07:25:07Z</time>
      </trkpt>
      <trkpt lat="69.964334014803171" lon="23.267307998612523">
        <ele>46.280000000000001</ele>
        <time>2017-06-27T07:25:08Z</time>
      </trkpt>
      <trkpt lat="69.964390005916357" lon="23.267184030264616">
        <ele>46.280000000000001</ele>
        <time>2017-06-27T07:25:09Z</time>
      </trkpt>
      <trkpt lat="69.964443985372782" lon="23.267027959227562">
        <ele>46.280000000000001</ele>
        <time>2017-06-27T07:25:10Z</time>
      </trkpt>
      <trkpt lat="69.964493019506335" lon="23.266836013644934">
        <ele>46.759999999999998</ele>
        <time>2017-06-27T07:25:11Z</time>
      </trkpt>
      <trkpt lat="69.964533001184464" lon="23.266597967594862">
        <ele>47.240000000000002</ele>
        <time>2017-06-27T07:25:12Z</time>
      </trkpt>
      <trkpt lat="69.964560996741056" lon="23.266335027292371">
        <ele>47.240000000000002</ele>
        <time>2017-06-27T07:25:13Z</time>
      </trkpt>
      <trkpt lat="69.964649006724358" lon="23.265549978241324">
        <ele>47.240000000000002</ele>
        <time>2017-06-27T07:25:16Z</time>
      </trkpt>
      <trkpt lat="69.964982019737363" lon="23.2646169885993">
        <ele>47.719999999999999</ele>
        <time>2017-06-27T07:25:23Z</time>
      </trkpt>
      <trkpt lat="69.965072963386774" lon="23.264557980000973">
        <ele>47.719999999999999</ele>
        <time>2017-06-27T07:25:33Z</time>
      </trkpt>
      <trkpt lat="69.965104982256889" lon="23.264539958909154">
        <ele>47.240000000000002</ele>
        <time>2017-06-27T07:26:27Z</time>
      </trkpt>
      <trkpt lat="69.965468002483249" lon="23.264792002737522">
        <ele>47.240000000000002</ele>
        <time>2017-06-27T07:26:33Z</time>
      </trkpt>
      <trkpt lat="69.965610997751355" lon="23.265259964391589">
        <ele>47.240000000000002</ele>
        <time>2017-06-27T07:26:36Z</time>
      </trkpt>
      <trkpt lat="69.965828005224466" lon="23.266295967623591">
        <ele>48.200000000000003</ele>
        <time>2017-06-27T07:26:46Z</time>
      </trkpt>
      <trkpt lat="69.965911991894245" lon="23.266537031158805">
        <ele>48.200000000000003</ele>
        <time>2017-06-27T07:26:50Z</time>
      </trkpt>
      <trkpt lat="69.965938981622458" lon="23.266533007845283">
        <ele>48.68</ele>
        <time>2017-06-27T07:26:51Z</time>
      </trkpt>
      <trkpt lat="69.965958008542657" lon="23.266495959833264">
        <ele>48.68</ele>
        <time>2017-06-27T07:26:52Z</time>
      </trkpt>
      <trkpt lat="69.965976029634476" lon="23.266425970941782">
        <ele>48.68</ele>
        <time>2017-06-27T07:26:53Z</time>
      </trkpt>
      <trkpt lat="69.965982986614108" lon="23.266346007585526">
        <ele>48.68</ele>
        <time>2017-06-27T07:26:54Z</time>
      </trkpt>
      <trkpt lat="69.965977035462856" lon="23.266265960410237">
        <ele>49.159999999999997</ele>
        <time>2017-06-27T07:26:55Z</time>
      </trkpt>
      <trkpt lat="69.965960020199418" lon="23.26620502397418">
        <ele>49.159999999999997</ele>
        <time>2017-06-27T07:26:56Z</time>
      </trkpt>
      <trkpt lat="69.965936969965696" lon="23.266179040074348">
        <ele>48.68</ele>
        <time>2017-06-27T07:26:57Z</time>
      </trkpt>
      <trkpt lat="69.965915009379387" lon="23.266197983175516">
        <ele>48.68</ele>
        <time>2017-06-27T07:26:58Z</time>
      </trkpt>
      <trkpt lat="69.965893970802426" lon="23.266222039237618">
        <ele>48.68</ele>
        <time>2017-06-27T07:26:59Z</time>
      </trkpt>
      <trkpt lat="69.965866981074214" lon="23.266231007874012">
        <ele>48.68</ele>
        <time>2017-06-27T07:27:00Z</time>
      </trkpt>
      <trkpt lat="69.965797998011112" lon="23.266073008999228">
        <ele>48.200000000000003</ele>
        <time>2017-06-27T07:27:02Z</time>
      </trkpt>
      <trkpt lat="69.965766984969378" lon="23.265928002074361">
        <ele>48.200000000000003</ele>
        <time>2017-06-27T07:27:03Z</time>
      </trkpt>
      <trkpt lat="69.965735971927643" lon="23.265765979886055">
        <ele>48.200000000000003</ele>
        <time>2017-06-27T07:27:04Z</time>
      </trkpt>
      <trkpt lat="69.96555601246655" lon="23.264969028532505">
        <ele>48.68</ele>
        <time>2017-06-27T07:27:08Z</time>
      </trkpt>
      <trkpt lat="69.9654929805547" lon="23.264795020222664">
        <ele>48.68</ele>
        <time>2017-06-27T07:27:09Z</time>
      </trkpt>
      <trkpt lat="69.965417962521315" lon="23.264638027176261">
        <ele>48.68</ele>
        <time>2017-06-27T07:27:10Z</time>
      </trkpt>
      <trkpt lat="69.964907001703978" lon="23.264524033293128">
        <ele>48.68</ele>
        <time>2017-06-27T07:27:16Z</time>
      </trkpt>
      <trkpt lat="69.964539958164096" lon="23.26573203317821">
        <ele>48.68</ele>
        <time>2017-06-27T07:27:23Z</time>
      </trkpt>
      <trkpt lat="69.964455971494317" lon="23.266610959544778">
        <ele>48.200000000000003</ele>
        <time>2017-06-27T07:27:28Z</time>
      </trkpt>
      <trkpt lat="69.964428981766105" lon="23.266755966469646">
        <ele>48.200000000000003</ele>
        <time>2017-06-27T07:27:29Z</time>
      </trkpt>
      <trkpt lat="69.964391011744738" lon="23.26689200475812">
        <ele>48.200000000000003</ele>
        <time>2017-06-27T07:27:30Z</time>
      </trkpt>
      <trkpt lat="69.964344995096326" lon="23.267017984762788">
        <ele>47.719999999999999</ele>
        <time>2017-06-27T07:27:31Z</time>
      </trkpt>
      <trkpt lat="69.964284980669618" lon="23.267111023887992">
        <ele>47.719999999999999</ele>
        <time>2017-06-27T07:27:32Z</time>
      </trkpt>
      <trkpt lat="69.96422303840518" lon="23.267171960324049">
        <ele>47.240000000000002</ele>
        <time>2017-06-27T07:27:33Z</time>
      </trkpt>
      <trkpt lat="69.964162018150091" lon="23.267189981415868">
        <ele>47.240000000000002</ele>
        <time>2017-06-27T07:27:34Z</time>
      </trkpt>
      <trkpt lat="69.964118013158441" lon="23.267176989465952">
        <ele>47.240000000000002</ele>
        <time>2017-06-27T07:27:35Z</time>
      </trkpt>
      <trkpt lat="69.964082976803184" lon="23.267146982252598">
        <ele>47.240000000000002</ele>
        <time>2017-06-27T07:27:36Z</time>
      </trkpt>
      <trkpt lat="69.96405397541821" lon="23.267114963382483">
        <ele>47.240000000000002</ele>
        <time>2017-06-27T07:27:37Z</time>
      </trkpt>
      <trkpt lat="69.964035032317042" lon="23.267076993361115">
        <ele>47.240000000000002</ele>
        <time>2017-06-27T07:27:38Z</time>
      </trkpt>
      <trkpt lat="69.964014999568462" lon="23.267039023339748">
        <ele>47.719999999999999</ele>
        <time>2017-06-27T07:27:39Z</time>
      </trkpt>
      <trkpt lat="69.963947022333741" lon="23.266909020021558">
        <ele>47.719999999999999</ele>
        <time>2017-06-27T07:27:42Z</time>
      </trkpt>
      <trkpt lat="69.963926989585161" lon="23.266480034217238">
        <ele>48.68</ele>
        <time>2017-06-27T07:27:47Z</time>
      </trkpt>
      <trkpt lat="69.963961020112038" lon="23.264977997168899">
        <ele>50.609999999999999</ele>
        <time>2017-06-27T07:27:53Z</time>
      </trkpt>
      <trkpt lat="69.96398800984025" lon="23.26468002051115">
        <ele>51.090000000000003</ele>
        <time>2017-06-27T07:27:54Z</time>
      </trkpt>
      <trkpt lat="69.964025979861617" lon="23.264380032196641">
        <ele>51.57</ele>
        <time>2017-06-27T07:27:55Z</time>
      </trkpt>
      <trkpt lat="69.964068979024887" lon="23.264076020568609">
        <ele>51.57</ele>
        <time>2017-06-27T07:27:56Z</time>
      </trkpt>
      <trkpt lat="69.964122958481312" lon="23.263771003112197">
        <ele>51.57</ele>
        <time>2017-06-27T07:27:57Z</time>
      </trkpt>
      <trkpt lat="69.964185990393162" lon="23.263484006747603">
        <ele>51.57</ele>
        <time>2017-06-27T07:27:58Z</time>
      </trkpt>
      <trkpt lat="69.964261008426547" lon="23.263206984847784">
        <ele>51.57</ele>
        <time>2017-06-27T07:27:59Z</time>
      </trkpt>
      <trkpt lat="69.964343989267945" lon="23.262943038716912">
        <ele>51.57</ele>
        <time>2017-06-27T07:28:00Z</time>
      </trkpt>
      <trkpt lat="69.964429987594485" lon="23.262699041515589">
        <ele>52.049999999999997</ele>
        <time>2017-06-27T07:28:01Z</time>
      </trkpt>
      <trkpt lat="69.964522020891309" lon="23.262465018779039">
        <ele>52.049999999999997</ele>
        <time>2017-06-27T07:28:02Z</time>
      </trkpt>
      <trkpt lat="69.96510598808527" lon="23.261265987530351">
        <ele>53.009999999999998</ele>
        <time>2017-06-27T07:28:10Z</time>
      </trkpt>
      <trkpt lat="69.965156028047204" lon="23.261176971718669">
        <ele>53.009999999999998</ele>
        <time>2017-06-27T07:28:11Z</time>
      </trkpt>
      <trkpt lat="69.965201038867235" lon="23.261065995320678">
        <ele>53.009999999999998</ele>
        <time>2017-06-27T07:28:12Z</time>
      </trkpt>
      <trkpt lat="69.965232973918319" lon="23.260924005880952">
        <ele>53.009999999999998</ele>
        <time>2017-06-27T07:28:13Z</time>
      </trkpt>
      <trkpt lat="69.965242026373744" lon="23.260763995349407">
        <ele>53.009999999999998</ele>
        <time>2017-06-27T07:28:14Z</time>
      </trkpt>
      <trkpt lat="69.965218976140022" lon="23.260609013959765">
        <ele>52.530000000000001</ele>
        <time>2017-06-27T07:28:15Z</time>
      </trkpt>
      <trkpt lat="69.965173965319991" lon="23.260472975671291">
        <ele>52.049999999999997</ele>
        <time>2017-06-27T07:28:16Z</time>
      </trkpt>
      <trkpt lat="69.965111017227173" lon="23.260342972353101">
        <ele>52.049999999999997</ele>
        <time>2017-06-27T07:28:17Z</time>
      </trkpt>
      <trkpt lat="69.965042034164071" lon="23.260196959599853">
        <ele>51.57</ele>
        <time>2017-06-27T07:28:18Z</time>
      </trkpt>
      <trkpt lat="69.964885963127017" lon="23.25982597656548">
        <ele>51.57</ele>
        <time>2017-06-27T07:28:20Z</time>
      </trkpt>
      <trkpt lat="69.964080965146422" lon="23.256941009312868">
        <ele>43.880000000000003</ele>
        <time>2017-06-27T07:28:30Z</time>
      </trkpt>
      <trkpt lat="69.963608980178833" lon="23.253424968570471">
        <ele>40.030000000000001</ele>
        <time>2017-06-27T07:28:39Z</time>
      </trkpt>
      <trkpt lat="69.963487023487687" lon="23.251787982881069">
        <ele>40.509999999999998</ele>
        <time>2017-06-27T07:28:43Z</time>
      </trkpt>
      <trkpt lat="69.963432960212231" lon="23.251410964876413">
        <ele>40.509999999999998</ele>
        <time>2017-06-27T07:28:44Z</time>
      </trkpt>
      <trkpt lat="69.963364982977509" lon="23.251039981842041">
        <ele>40.990000000000002</ele>
        <time>2017-06-27T07:28:45Z</time>
      </trkpt>
      <trkpt lat="69.962311964482069" lon="23.246314013376832">
        <ele>41.469999999999999</ele>
        <time>2017-06-27T07:28:58Z</time>
      </trkpt>
      <trkpt lat="69.961708970367908" lon="23.243562988936901">
        <ele>40.990000000000002</ele>
        <time>2017-06-27T07:29:08Z</time>
      </trkpt>
      <trkpt lat="69.961174037307501" lon="23.241037018597126">
        <ele>39.07</ele>
        <time>2017-06-27T07:29:22Z</time>
      </trkpt>
      <trkpt lat="69.960455959662795" lon="23.236816981807351">
        <ele>31.859999999999999</ele>
        <time>2017-06-27T07:29:42Z</time>
      </trkpt>
      <trkpt lat="69.96003401465714" lon="23.232379015535116">
        <ele>27.050000000000001</ele>
        <time>2017-06-27T07:30:00Z</time>
      </trkpt>
      <trkpt lat="69.959442000836134" lon="23.227823032066226">
        <ele>29.940000000000001</ele>
        <time>2017-06-27T07:30:18Z</time>
      </trkpt>
      <trkpt lat="69.958758959546685" lon="23.224414028227329">
        <ele>40.030000000000001</ele>
        <time>2017-06-27T07:30:29Z</time>
      </trkpt>
      <trkpt lat="69.957641987130046" lon="23.221468962728977">
        <ele>42.439999999999998</ele>
        <time>2017-06-27T07:30:40Z</time>
      </trkpt>
      <trkpt lat="69.955847002565861" lon="23.217111965641379">
        <ele>43.399999999999999</ele>
        <time>2017-06-27T07:30:57Z</time>
      </trkpt>
      <trkpt lat="69.95337400585413" lon="23.21116098202765">
        <ele>52.530000000000001</ele>
        <time>2017-06-27T07:31:20Z</time>
      </trkpt>
      <trkpt lat="69.951626965776086" lon="23.206472983583808">
        <ele>64.069999999999993</ele>
        <time>2017-06-27T07:31:37Z</time>
      </trkpt>
      <trkpt lat="69.951564017683268" lon="23.206103006377816">
        <ele>64.549999999999997</ele>
        <time>2017-06-27T07:31:38Z</time>
      </trkpt>
      <trkpt lat="69.951525963842869" lon="23.20570201613009">
        <ele>64.549999999999997</ele>
        <time>2017-06-27T07:31:39Z</time>
      </trkpt>
      <trkpt lat="69.951512971892953" lon="23.20527303032577">
        <ele>64.549999999999997</ele>
        <time>2017-06-27T07:31:40Z</time>
      </trkpt>
      <trkpt lat="69.951521018519998" lon="23.204829962924123">
        <ele>64.069999999999993</ele>
        <time>2017-06-27T07:31:41Z</time>
      </trkpt>
      <trkpt lat="69.951543984934688" lon="23.204389996826649">
        <ele>64.549999999999997</ele>
        <time>2017-06-27T07:31:42Z</time>
      </trkpt>
      <trkpt lat="69.951572986319661" lon="23.203947013244033">
        <ele>64.069999999999993</ele>
        <time>2017-06-27T07:31:43Z</time>
      </trkpt>
      <trkpt lat="69.951599976047873" lon="23.202254958450794">
        <ele>62.619999999999997</ele>
        <time>2017-06-27T07:31:47Z</time>
      </trkpt>
      <trkpt lat="69.951579021289945" lon="23.201843993738294">
        <ele>62.619999999999997</ele>
        <time>2017-06-27T07:31:48Z</time>
      </trkpt>
      <trkpt lat="69.951538033783436" lon="23.201463958248496">
        <ele>61.659999999999997</ele>
        <time>2017-06-27T07:31:49Z</time>
      </trkpt>
      <trkpt lat="69.951481958851218" lon="23.20110403932631">
        <ele>61.659999999999997</ele>
        <time>2017-06-27T07:31:50Z</time>
      </trkpt>
      <trkpt lat="69.951411969959736" lon="23.200760968029499">
        <ele>60.700000000000003</ele>
        <time>2017-06-27T07:31:51Z</time>
      </trkpt>
      <trkpt lat="69.951325971633196" lon="23.200453016906977">
        <ele>60.219999999999999</ele>
        <time>2017-06-27T07:31:52Z</time>
      </trkpt>
      <trkpt lat="69.951228993013501" lon="23.200155040249228">
        <ele>59.259999999999998</ele>
        <time>2017-06-27T07:31:53Z</time>
      </trkpt>
      <trkpt lat="69.949254970997572" lon="23.194679981097579">
        <ele>44.359999999999999</ele>
        <time>2017-06-27T07:32:12Z</time>
      </trkpt>
      <trkpt lat="69.947801968082786" lon="23.191167963668704">
        <ele>45.799999999999997</ele>
        <time>2017-06-27T07:32:24Z</time>
      </trkpt>
      <trkpt lat="69.945991979911923" lon="23.188162967562675">
        <ele>43.880000000000003</ele>
        <time>2017-06-27T07:32:38Z</time>
      </trkpt>
      <trkpt lat="69.945903969928622" lon="23.18784998729825">
        <ele>43.399999999999999</ele>
        <time>2017-06-27T07:32:39Z</time>
      </trkpt>
      <trkpt lat="69.945832975208759" lon="23.187499959021807">
        <ele>43.880000000000003</ele>
        <time>2017-06-27T07:32:40Z</time>
      </trkpt>
      <trkpt lat="69.945780001580715" lon="23.18711799569428">
        <ele>44.359999999999999</ele>
        <time>2017-06-27T07:32:41Z</time>
      </trkpt>
      <trkpt lat="69.94574898853898" lon="23.186715999618173">
        <ele>44.359999999999999</ele>
        <time>2017-06-27T07:32:42Z</time>
      </trkpt>
      <trkpt lat="69.945732979103923" lon="23.18630101159215">
        <ele>43.880000000000003</ele>
        <time>2017-06-27T07:32:43Z</time>
      </trkpt>
      <trkpt lat="69.945733984932303" lon="23.185861967504025">
        <ele>43.399999999999999</ele>
        <time>2017-06-27T07:32:44Z</time>
      </trkpt>
      <trkpt lat="69.945754017680883" lon="23.185406997799873">
        <ele>43.399999999999999</ele>
        <time>2017-06-27T07:32:45Z</time>
      </trkpt>
      <trkpt lat="69.945796011015773" lon="23.184957979246974">
        <ele>43.399999999999999</ele>
        <time>2017-06-27T07:32:46Z</time>
      </trkpt>
      <trkpt lat="69.94585401378572" lon="23.184526981785893">
        <ele>43.399999999999999</ele>
        <time>2017-06-27T07:32:47Z</time>
      </trkpt>
      <trkpt lat="69.945927020162344" lon="23.184105958789587">
        <ele>43.880000000000003</ele>
        <time>2017-06-27T07:32:48Z</time>
      </trkpt>
      <trkpt lat="69.946010001003742" lon="23.183703040704131">
        <ele>44.359999999999999</ele>
        <time>2017-06-27T07:32:49Z</time>
      </trkpt>
      <trkpt lat="69.946103040128946" lon="23.183300038799644">
        <ele>44.359999999999999</ele>
        <time>2017-06-27T07:32:50Z</time>
      </trkpt>
      <trkpt lat="69.947235016152263" lon="23.179102968424559">
        <ele>45.32</ele>
        <time>2017-06-27T07:33:00Z</time>
      </trkpt>
      <trkpt lat="69.948663963004947" lon="23.174996003508568">
        <ele>46.280000000000001</ele>
        <time>2017-06-27T07:33:10Z</time>
      </trkpt>
      <trkpt lat="69.950357023626566" lon="23.172692991793156">
        <ele>44.840000000000003</ele>
        <time>2017-06-27T07:33:19Z</time>
      </trkpt>
      <trkpt lat="69.951006034389138" lon="23.17106899805367">
        <ele>42.920000000000002</ele>
        <time>2017-06-27T07:33:23Z</time>
      </trkpt>
      <trkpt lat="69.951135031878948" lon="23.170570023357868">
        <ele>42.439999999999998</ele>
        <time>2017-06-27T07:33:24Z</time>
      </trkpt>
      <trkpt lat="69.951249025762081" lon="23.170055039227009">
        <ele>41.469999999999999</ele>
        <time>2017-06-27T07:33:25Z</time>
      </trkpt>
      <trkpt lat="69.951349021866918" lon="23.16952396184206">
        <ele>40.990000000000002</ele>
        <time>2017-06-27T07:33:26Z</time>
      </trkpt>
      <trkpt lat="69.951429991051555" lon="23.168970001861453">
        <ele>40.509999999999998</ele>
        <time>2017-06-27T07:33:27Z</time>
      </trkpt>
      <trkpt lat="69.951496040448546" lon="23.168402966111898">
        <ele>40.030000000000001</ele>
        <time>2017-06-27T07:33:28Z</time>
      </trkpt>
      <trkpt lat="69.951543984934688" lon="23.167832996696234">
        <ele>39.549999999999997</ele>
        <time>2017-06-27T07:33:29Z</time>
      </trkpt>
      <trkpt lat="69.951576003804803" lon="23.167248023673892">
        <ele>38.590000000000003</ele>
        <time>2017-06-27T07:33:30Z</time>
      </trkpt>
      <trkpt lat="69.951592013239861" lon="23.166655004024506">
        <ele>38.109999999999999</ele>
        <time>2017-06-27T07:33:31Z</time>
      </trkpt>
      <trkpt lat="69.951592013239861" lon="23.166055027395487">
        <ele>37.149999999999999</ele>
        <time>2017-06-27T07:33:32Z</time>
      </trkpt>
      <trkpt lat="69.951569968834519" lon="23.165459996089339">
        <ele>36.189999999999998</ele>
        <time>2017-06-27T07:33:33Z</time>
      </trkpt>
      <trkpt lat="69.951528981328011" lon="23.164858007803559">
        <ele>35.229999999999997</ele>
        <time>2017-06-27T07:33:34Z</time>
      </trkpt>
      <trkpt lat="69.951473996043205" lon="23.164262976497412">
        <ele>34.740000000000002</ele>
        <time>2017-06-27T07:33:35Z</time>
      </trkpt>
      <trkpt lat="69.951395960524678" lon="23.163667023181915">
        <ele>33.780000000000001</ele>
        <time>2017-06-27T07:33:36Z</time>
      </trkpt>
      <trkpt lat="69.951304011046886" lon="23.163092024624348">
        <ele>32.82</ele>
        <time>2017-06-27T07:33:37Z</time>
      </trkpt>
      <trkpt lat="69.951194962486625" lon="23.162537980824709">
        <ele>31.859999999999999</ele>
        <time>2017-06-27T07:33:38Z</time>
      </trkpt>
      <trkpt lat="69.951068982481956" lon="23.162004975602031">
        <ele>30.899999999999999</ele>
        <time>2017-06-27T07:33:39Z</time>
      </trkpt>
      <trkpt lat="69.950924981385469" lon="23.16148697398603">
        <ele>29.940000000000001</ele>
        <time>2017-06-27T07:33:40Z</time>
      </trkpt>
      <trkpt lat="69.950768994167447" lon="23.161015994846821">
        <ele>28.98</ele>
        <time>2017-06-27T07:33:41Z</time>
      </trkpt>
      <trkpt lat="69.950601020827889" lon="23.160574017092586">
        <ele>28.02</ele>
        <time>2017-06-27T07:33:42Z</time>
      </trkpt>
      <trkpt lat="69.950425000861287" lon="23.160146037116647">
        <ele>27.050000000000001</ele>
        <time>2017-06-27T07:33:43Z</time>
      </trkpt>
      <trkpt lat="69.949325965717435" lon="23.156571993604302">
        <ele>20.809999999999999</ele>
        <time>2017-06-27T07:33:50Z</time>
      </trkpt>
      <trkpt lat="69.948844006285071" lon="23.152754036709666">
        <ele>19.84</ele>
        <time>2017-06-27T07:33:56Z</time>
      </trkpt>
      <trkpt lat="69.94809097610414" lon="23.14908703789115">
        <ele>16.48</ele>
        <time>2017-06-27T07:34:03Z</time>
      </trkpt>
      <trkpt lat="69.946362040936947" lon="23.144360985606909">
        <ele>3.98</ele>
        <time>2017-06-27T07:34:13Z</time>
      </trkpt>
      <trkpt lat="69.944410985335708" lon="23.139554969966412">
        <ele>-1.79</ele>
        <time>2017-06-27T07:34:23Z</time>
      </trkpt>
      <trkpt lat="69.942879024893045" lon="23.136230036616325">
        <ele>9.75</ele>
        <time>2017-06-27T07:34:31Z</time>
      </trkpt>
      <trkpt lat="69.940638039261103" lon="23.133331993594766">
        <ele>26.57</ele>
        <time>2017-06-27T07:34:42Z</time>
      </trkpt>
      <trkpt lat="69.938861997798085" lon="23.130749026313424">
        <ele>40.030000000000001</ele>
        <time>2017-06-27T07:34:52Z</time>
      </trkpt>
      <trkpt lat="69.937822977080941" lon="23.129635993391275">
        <ele>47.240000000000002</ele>
        <time>2017-06-27T07:34:59Z</time>
      </trkpt>
      <trkpt lat="69.935989016667008" lon="23.128881035372615">
        <ele>57.82</ele>
        <time>2017-06-27T07:35:09Z</time>
      </trkpt>
      <trkpt lat="69.933410994708538" lon="23.127836985513568">
        <ele>69.829999999999998</ele>
        <time>2017-06-27T07:35:21Z</time>
      </trkpt>
      <trkpt lat="69.931345023214817" lon="23.12586204148829">
        <ele>74.640000000000001</ele>
        <time>2017-06-27T07:35:31Z</time>
      </trkpt>
      <trkpt lat="69.927801992744207" lon="23.120288997888565">
        <ele>74.159999999999997</ele>
        <time>2017-06-27T07:35:51Z</time>
      </trkpt>
      <trkpt lat="69.927244009450078" lon="23.116459976881742">
        <ele>71.760000000000005</ele>
        <time>2017-06-27T07:35:58Z</time>
      </trkpt>
      <trkpt lat="69.92746302857995" lon="23.109742971137166">
        <ele>71.760000000000005</ele>
        <time>2017-06-27T07:36:09Z</time>
      </trkpt>
      <trkpt lat="69.927555983886123" lon="23.109174007549882">
        <ele>71.760000000000005</ele>
        <time>2017-06-27T07:36:10Z</time>
      </trkpt>
      <trkpt lat="69.928346984088421" lon="23.104711985215545">
        <ele>69.349999999999994</ele>
        <time>2017-06-27T07:36:19Z</time>
      </trkpt>
      <trkpt lat="69.930185973644257" lon="23.095801016315818">
        <ele>64.549999999999997</ele>
        <time>2017-06-27T07:36:37Z</time>
      </trkpt>
      <trkpt lat="69.931104965507984" lon="23.089232034981251">
        <ele>64.549999999999997</ele>
        <time>2017-06-27T07:36:49Z</time>
      </trkpt>
      <trkpt lat="69.938265038654208" lon="23.058748980984092">
        <ele>10.710000000000001</ele>
        <time>2017-06-27T07:37:52Z</time>
      </trkpt>
      <trkpt lat="69.939734973013401" lon="23.053873982280493">
        <ele>4.46</ele>
        <time>2017-06-27T07:38:03Z</time>
      </trkpt>
      <trkpt lat="69.941532975062728" lon="23.047883016988635">
        <ele>6.39</ele>
        <time>2017-06-27T07:38:16Z</time>
      </trkpt>
      <trkpt lat="69.94282403960824" lon="23.045761976391077">
        <ele>4.46</ele>
        <time>2017-06-27T07:38:23Z</time>
      </trkpt>
      <trkpt lat="69.943028977140784" lon="23.04561504162848">
        <ele>3.98</ele>
        <time>2017-06-27T07:38:24Z</time>
      </trkpt>
      <trkpt lat="69.943240033462644" lon="23.04553197696805">
        <ele>3.98</ele>
        <time>2017-06-27T07:38:25Z</time>
      </trkpt>
      <trkpt lat="69.943456035107374" lon="23.045525019988418">
        <ele>3.98</ele>
        <time>2017-06-27T07:38:26Z</time>
      </trkpt>
      <trkpt lat="69.943672958761454" lon="23.045580005273223">
        <ele>3.98</ele>
        <time>2017-06-27T07:38:27Z</time>
      </trkpt>
      <trkpt lat="69.943886026740074" lon="23.045693999156356">
        <ele>4.46</ele>
        <time>2017-06-27T07:38:28Z</time>
      </trkpt>
      <trkpt lat="69.94409398175776" lon="23.045884016901255">
        <ele>4.94</ele>
        <time>2017-06-27T07:38:29Z</time>
      </trkpt>
      <trkpt lat="69.944292968139052" lon="23.046146035194397">
        <ele>4.94</ele>
        <time>2017-06-27T07:38:30Z</time>
      </trkpt>
      <trkpt lat="69.944486003369093" lon="23.046439988538623">
        <ele>5.91</ele>
        <time>2017-06-27T07:38:31Z</time>
      </trkpt>
      <trkpt lat="69.944677026942372" lon="23.046759003773332">
        <ele>6.87</ele>
        <time>2017-06-27T07:38:32Z</time>
      </trkpt>
      <trkpt lat="69.946334967389703" lon="23.048916002735496">
        <ele>9.75</ele>
        <time>2017-06-27T07:38:40Z</time>
      </trkpt>
      <trkpt lat="69.947676993906498" lon="23.051149025559425">
        <ele>6.39</ele>
        <time>2017-06-27T07:38:47Z</time>
      </trkpt>
      <trkpt lat="69.948418037965894" lon="23.054331969469786">
        <ele>3.02</ele>
        <time>2017-06-27T07:38:53Z</time>
      </trkpt>
      <trkpt lat="69.948654994368553" lon="23.058032998815179">
        <ele>4.94</ele>
        <time>2017-06-27T07:38:59Z</time>
      </trkpt>
      <trkpt lat="69.948762031272054" lon="23.064253963530064">
        <ele>6.87</ele>
        <time>2017-06-27T07:39:09Z</time>
      </trkpt>
      <trkpt lat="69.949362007901073" lon="23.06763899512589">
        <ele>6.87</ele>
        <time>2017-06-27T07:39:15Z</time>
      </trkpt>
      <trkpt lat="69.950500018894672" lon="23.070747004821897">
        <ele>3.98</ele>
        <time>2017-06-27T07:39:22Z</time>
      </trkpt>
      <trkpt lat="69.951234022155404" lon="23.073982000350952">
        <ele>3.5</ele>
        <time>2017-06-27T07:39:28Z</time>
      </trkpt>
      <trkpt lat="69.951898036524653" lon="23.078975016251206">
        <ele>3.02</ele>
        <time>2017-06-27T07:39:36Z</time>
      </trkpt>
      <trkpt lat="69.953106958419085" lon="23.083931989967823">
        <ele>7.35</ele>
        <time>2017-06-27T07:39:45Z</time>
      </trkpt>
      <trkpt lat="69.9542769882828" lon="23.08719196356833">
        <ele>9.27</ele>
        <time>2017-06-27T07:39:52Z</time>
      </trkpt>
      <trkpt lat="69.955492028966546" lon="23.090272983536124">
        <ele>10.23</ele>
        <time>2017-06-27T07:39:58Z</time>
      </trkpt>
      <trkpt lat="69.956538006663322" lon="23.09350898489356">
        <ele>14.08</ele>
        <time>2017-06-27T07:40:05Z</time>
      </trkpt>
      <trkpt lat="69.957579039037228" lon="23.095412012189627">
        <ele>19.359999999999999</ele>
        <time>2017-06-27T07:40:12Z</time>
      </trkpt>
      <trkpt lat="69.95909197255969" lon="23.097511008381844">
        <ele>21.289999999999999</ele>
        <time>2017-06-27T07:40:23Z</time>
      </trkpt>
      <trkpt lat="69.960227971896529" lon="23.100703004747629">
        <ele>23.210000000000001</ele>
        <time>2017-06-27T07:40:34Z</time>
      </trkpt>
      <trkpt lat="69.961404036730528" lon="23.103659972548485">
        <ele>28.98</ele>
        <time>2017-06-27T07:40:45Z</time>
      </trkpt>
      <trkpt lat="69.962789984419942" lon="23.105863993987441">
        <ele>36.670000000000002</ele>
        <time>2017-06-27T07:40:56Z</time>
      </trkpt>
      <trkpt lat="69.964166963472962" lon="23.109058002009988">
        <ele>48.68</ele>
        <time>2017-06-27T07:41:09Z</time>
      </trkpt>
      <trkpt lat="69.965370018035173" lon="23.110657017678022">
        <ele>57.340000000000003</ele>
        <time>2017-06-27T07:41:19Z</time>
      </trkpt>
      <trkpt lat="69.966703997924924" lon="23.110748967155814">
        <ele>65.510000000000005</ele>
        <time>2017-06-27T07:41:29Z</time>
      </trkpt>
      <trkpt lat="69.968213997781277" lon="23.109439965337515">
        <ele>70.790000000000006</ele>
        <time>2017-06-27T07:41:39Z</time>
      </trkpt>
      <trkpt lat="69.96978803537786" lon="23.108824985101819">
        <ele>71.760000000000005</ele>
        <time>2017-06-27T07:41:48Z</time>
      </trkpt>
      <trkpt lat="69.971005003899336" lon="23.10775101184845">
        <ele>74.159999999999997</ele>
        <time>2017-06-27T07:41:55Z</time>
      </trkpt>
      <trkpt lat="69.971956014633179" lon="23.105188999325037">
        <ele>74.640000000000001</ele>
        <time>2017-06-27T07:42:02Z</time>
      </trkpt>
      <trkpt lat="69.982589967548847" lon="23.096334021538496">
        <ele>19.84</ele>
        <time>2017-06-27T07:42:59Z</time>
      </trkpt>
      <trkpt lat="69.984047999605536" lon="23.094706004485488">
        <ele>17.440000000000001</ele>
        <time>2017-06-27T07:43:06Z</time>
      </trkpt>
      <trkpt lat="69.984856015071273" lon="23.093961020931602">
        <ele>13.119999999999999</ele>
        <time>2017-06-27T07:43:10Z</time>
      </trkpt>
      <trkpt lat="69.9850669875741" lon="23.093896983191371">
        <ele>13.119999999999999</ele>
        <time>2017-06-27T07:43:11Z</time>
      </trkpt>
      <trkpt lat="69.985273014754057" lon="23.093880973756313">
        <ele>12.630000000000001</ele>
        <time>2017-06-27T07:43:12Z</time>
      </trkpt>
      <trkpt lat="69.985478036105633" lon="23.093888014554977">
        <ele>12.630000000000001</ele>
        <time>2017-06-27T07:43:13Z</time>
      </trkpt>
      <trkpt lat="69.985679034143686" lon="23.093936964869499">
        <ele>12.15</ele>
        <time>2017-06-27T07:43:14Z</time>
      </trkpt>
      <trkpt lat="69.985879026353359" lon="23.094022963196039">
        <ele>12.630000000000001</ele>
        <time>2017-06-27T07:43:15Z</time>
      </trkpt>
      <trkpt lat="69.986073989421129" lon="23.094136035069823">
        <ele>13.119999999999999</ele>
        <time>2017-06-27T07:43:16Z</time>
      </trkpt>
      <trkpt lat="69.987796973437071" lon="23.094553034752607">
        <ele>14.08</ele>
        <time>2017-06-27T07:43:25Z</time>
      </trkpt>
      <trkpt lat="69.989321976900101" lon="23.095342023298144">
        <ele>17.440000000000001</ele>
        <time>2017-06-27T07:43:33Z</time>
      </trkpt>
      <trkpt lat="69.991651978343725" lon="23.096454972401261">
        <ele>20.32</ele>
        <time>2017-06-27T07:43:45Z</time>
      </trkpt>
      <trkpt lat="69.993633041158319" lon="23.096251040697098">
        <ele>20.32</ele>
        <time>2017-06-27T07:43:54Z</time>
      </trkpt>
      <trkpt lat="69.995597004890442" lon="23.096452038735151">
        <ele>27.050000000000001</ele>
        <time>2017-06-27T07:44:02Z</time>
      </trkpt>
      <trkpt lat="69.998980024829507" lon="23.098708027973771">
        <ele>40.990000000000002</ele>
        <time>2017-06-27T07:44:16Z</time>
      </trkpt>
      <trkpt lat="70.000901995226741" lon="23.099702959880233">
        <ele>47.240000000000002</ele>
        <time>2017-06-27T07:44:24Z</time>
      </trkpt>
      <trkpt lat="70.002816002815962" lon="23.099121004343033">
        <ele>47.719999999999999</ele>
        <time>2017-06-27T07:44:32Z</time>
      </trkpt>
      <trkpt lat="70.004225000739098" lon="23.097587032243609">
        <ele>46.280000000000001</ele>
        <time>2017-06-27T07:44:39Z</time>
      </trkpt>
      <trkpt lat="70.005761990323663" lon="23.094595028087497">
        <ele>46.759999999999998</ele>
        <time>2017-06-27T07:44:48Z</time>
      </trkpt>
      <trkpt lat="70.010729022324085" lon="23.031793031841516">
        <ele>36.670000000000002</ele>
        <time>2017-06-27T07:46:23Z</time>
      </trkpt>
      <trkpt lat="70.011769970878959" lon="23.028586031869054">
        <ele>65.510000000000005</ele>
        <time>2017-06-27T07:46:30Z</time>
      </trkpt>
      <trkpt lat="70.013475017622113" lon="23.024283014237881">
        <ele>58.780000000000001</ele>
        <time>2017-06-27T07:46:40Z</time>
      </trkpt>
      <trkpt lat="70.015516011044383" lon="23.021054975688457">
        <ele>51.090000000000003</ele>
        <time>2017-06-27T07:46:50Z</time>
      </trkpt>
      <trkpt lat="70.018181959167123" lon="23.017596015706658">
        <ele>27.050000000000001</ele>
        <time>2017-06-27T07:47:02Z</time>
      </trkpt>
      <trkpt lat="70.020483965054154" lon="23.013102980330586">
        <ele>22.25</ele>
        <time>2017-06-27T07:47:13Z</time>
      </trkpt>
      <trkpt lat="70.022556977346539" lon="23.009545030072331">
        <ele>30.420000000000002</ele>
        <time>2017-06-27T07:47:23Z</time>
      </trkpt>
      <trkpt lat="70.024784971028566" lon="23.006756035611033">
        <ele>36.189999999999998</ele>
        <time>2017-06-27T07:47:33Z</time>
      </trkpt>
      <trkpt lat="70.026519019156694" lon="23.003673003986478">
        <ele>31.859999999999999</ele>
        <time>2017-06-27T07:47:41Z</time>
      </trkpt>
      <trkpt lat="70.028098002076149" lon="23.001858992502093">
        <ele>24.170000000000002</ele>
        <time>2017-06-27T07:47:48Z</time>
      </trkpt>
      <trkpt lat="70.029165018349886" lon="22.998935971409082">
        <ele>16.960000000000001</ele>
        <time>2017-06-27T07:47:54Z</time>
      </trkpt>
      <trkpt lat="70.030386010184884" lon="22.992777032777667">
        <ele>9.27</ele>
        <time>2017-06-27T07:48:04Z</time>
      </trkpt>
      <trkpt lat="70.030454993247986" lon="22.992156017571688">
        <ele>8.789999999999999</ele>
        <time>2017-06-27T07:48:05Z</time>
      </trkpt>
      <trkpt lat="70.030504027381539" lon="22.99151798710227">
        <ele>8.789999999999999</ele>
        <time>2017-06-27T07:48:06Z</time>
      </trkpt>
      <trkpt lat="70.030530011281371" lon="22.990866964682937">
        <ele>8.310000000000001</ele>
        <time>2017-06-27T07:48:07Z</time>
      </trkpt>
      <trkpt lat="70.030531017109752" lon="22.990202028304338">
        <ele>8.310000000000001</ele>
        <time>2017-06-27T07:48:08Z</time>
      </trkpt>
      <trkpt lat="70.030516013503075" lon="22.98953901976347">
        <ele>7.83</ele>
        <time>2017-06-27T07:48:09Z</time>
      </trkpt>
      <trkpt lat="70.030481982976198" lon="22.988886991515756">
        <ele>7.35</ele>
        <time>2017-06-27T07:48:10Z</time>
      </trkpt>
      <trkpt lat="70.030425991863012" lon="22.988234963268042">
        <ele>7.35</ele>
        <time>2017-06-27T07:48:11Z</time>
      </trkpt>
      <trkpt lat="70.030363965779543" lon="22.987589975818992">
        <ele>6.87</ele>
        <time>2017-06-27T07:48:12Z</time>
      </trkpt>
      <trkpt lat="70.030224993824959" lon="22.985603967681527">
        <ele>6.39</ele>
        <time>2017-06-27T07:48:15Z</time>
      </trkpt>
      <trkpt lat="70.030218958854675" lon="22.984931990504265">
        <ele>6.87</ele>
        <time>2017-06-27T07:48:16Z</time>
      </trkpt>
      <trkpt lat="70.030233962461352" lon="22.984261019155383">
        <ele>6.87</ele>
        <time>2017-06-27T07:48:17Z</time>
      </trkpt>
      <trkpt lat="70.030266987159848" lon="22.983604967594147">
        <ele>7.35</ele>
        <time>2017-06-27T07:48:18Z</time>
      </trkpt>
      <trkpt lat="70.030316021293402" lon="22.982953023165464">
        <ele>7.83</ele>
        <time>2017-06-27T07:48:19Z</time>
      </trkpt>
      <trkpt lat="70.030380981042981" lon="22.982313986867666">
        <ele>8.310000000000001</ele>
        <time>2017-06-27T07:48:20Z</time>
      </trkpt>
      <trkpt lat="70.030461028218269" lon="22.981688026338816">
        <ele>8.789999999999999</ele>
        <time>2017-06-27T07:48:21Z</time>
      </trkpt>
      <trkpt lat="70.030553983524442" lon="22.981063993647695">
        <ele>9.75</ele>
        <time>2017-06-27T07:48:22Z</time>
      </trkpt>
      <trkpt lat="70.030659008771181" lon="22.980460999533534">
        <ele>10.23</ele>
        <time>2017-06-27T07:48:23Z</time>
      </trkpt>
      <trkpt lat="70.031862985342741" lon="22.974589979276061">
        <ele>6.87</ele>
        <time>2017-06-27T07:48:34Z</time>
      </trkpt>
      <trkpt lat="70.033193025738001" lon="22.969657983630896">
        <ele>5.42</ele>
        <time>2017-06-27T07:48:44Z</time>
      </trkpt>
      <trkpt lat="70.040015978738666" lon="22.961036022752523">
        <ele>8.310000000000001</ele>
        <time>2017-06-27T07:49:25Z</time>
      </trkpt>
      <trkpt lat="70.040052020922303" lon="22.960654981434345">
        <ele>10.23</ele>
        <time>2017-06-27T07:49:26Z</time>
      </trkpt>
      <trkpt lat="70.040072975680232" lon="22.960205040872097">
        <ele>11.67</ele>
        <time>2017-06-27T07:49:27Z</time>
      </trkpt>
      <trkpt lat="70.040076998993754" lon="22.959782006219029">
        <ele>11.19</ele>
        <time>2017-06-27T07:49:28Z</time>
      </trkpt>
      <trkpt lat="70.040050009265542" lon="22.959397025406361">
        <ele>11.19</ele>
        <time>2017-06-27T07:49:29Z</time>
      </trkpt>
      <trkpt lat="70.040032994002104" lon="22.958963010460138">
        <ele>10.23</ele>
        <time>2017-06-27T07:49:30Z</time>
      </trkpt>
      <trkpt lat="70.039822021499276" lon="22.954712966457009">
        <ele>8.310000000000001</ele>
        <time>2017-06-27T07:49:40Z</time>
      </trkpt>
      <trkpt lat="70.039839958772063" lon="22.954267971217632">
        <ele>8.789999999999999</ele>
        <time>2017-06-27T07:49:41Z</time>
      </trkpt>
      <trkpt lat="70.03987398929894" lon="22.9538310226053">
        <ele>8.789999999999999</ele>
        <time>2017-06-27T07:49:42Z</time>
      </trkpt>
      <trkpt lat="70.039922017604113" lon="22.953413017094135">
        <ele>8.310000000000001</ele>
        <time>2017-06-27T07:49:43Z</time>
      </trkpt>
      <trkpt lat="70.039983037859201" lon="22.953014960512519">
        <ele>7.35</ele>
        <time>2017-06-27T07:49:44Z</time>
      </trkpt>
      <trkpt lat="70.0400660187006" lon="22.952643977478147">
        <ele>7.83</ele>
        <time>2017-06-27T07:49:45Z</time>
      </trkpt>
      <trkpt lat="70.040161991491914" lon="22.952301995828748">
        <ele>8.310000000000001</ele>
        <time>2017-06-27T07:49:46Z</time>
      </trkpt>
      <trkpt lat="70.040267016738653" lon="22.951991027221084">
        <ele>7.83</ele>
        <time>2017-06-27T07:49:47Z</time>
      </trkpt>
      <trkpt lat="70.040383022278547" lon="22.951707970350981">
        <ele>7.83</ele>
        <time>2017-06-27T07:49:48Z</time>
      </trkpt>
      <trkpt lat="70.040502967312932" lon="22.95144603587687">
        <ele>7.83</ele>
        <time>2017-06-27T07:49:49Z</time>
      </trkpt>
      <trkpt lat="70.040627019479871" lon="22.951208995655179">
        <ele>8.310000000000001</ele>
        <time>2017-06-27T07:49:50Z</time>
      </trkpt>
      <trkpt lat="70.041712978854775" lon="22.950152959674597">
        <ele>10.710000000000001</ele>
        <time>2017-06-27T07:49:58Z</time>
      </trkpt>
      <trkpt lat="70.043798983097076" lon="22.950002001598477">
        <ele>11.19</ele>
        <time>2017-06-27T07:50:12Z</time>
      </trkpt>
      <trkpt lat="70.044776983559132" lon="22.951371017843485">
        <ele>11.19</ele>
        <time>2017-06-27T07:50:19Z</time>
      </trkpt>
      <trkpt lat="70.04573998041451" lon="22.95413201674819">
        <ele>13.119999999999999</ele>
        <time>2017-06-27T07:50:27Z</time>
      </trkpt>
      <trkpt lat="70.046542966738343" lon="22.958893021568656">
        <ele>24.649999999999999</ele>
        <time>2017-06-27T07:50:37Z</time>
      </trkpt>
      <trkpt lat="70.047471011057496" lon="22.965913033112884">
        <ele>38.109999999999999</ele>
        <time>2017-06-27T07:50:50Z</time>
      </trkpt>
      <trkpt lat="70.047640996053815" lon="22.970987018197775">
        <ele>43.399999999999999</ele>
        <time>2017-06-27T07:51:00Z</time>
      </trkpt>
      <trkpt lat="70.048006027936935" lon="22.974169040098786">
        <ele>43.399999999999999</ele>
        <time>2017-06-27T07:51:06Z</time>
      </trkpt>
      <trkpt lat="70.048827035352588" lon="22.979193991050124">
        <ele>43.880000000000003</ele>
        <time>2017-06-27T07:51:15Z</time>
      </trkpt>
      <trkpt lat="70.049960017204285" lon="22.982374001294374">
        <ele>41.469999999999999</ele>
        <time>2017-06-27T07:51:22Z</time>
      </trkpt>
      <trkpt lat="70.051528019830585" lon="22.984840041026473">
        <ele>29.460000000000001</ele>
        <time>2017-06-27T07:51:30Z</time>
      </trkpt>
      <trkpt lat="70.051741003990173" lon="22.9849439766258">
        <ele>28.02</ele>
        <time>2017-06-27T07:51:31Z</time>
      </trkpt>
      <trkpt lat="70.051952982321382" lon="22.984981024637818">
        <ele>26.57</ele>
        <time>2017-06-27T07:51:32Z</time>
      </trkpt>
      <trkpt lat="70.052166972309351" lon="22.984957974404097">
        <ele>25.129999999999999</ele>
        <time>2017-06-27T07:51:33Z</time>
      </trkpt>
      <trkpt lat="70.052379034459591" lon="22.984886979684234">
        <ele>23.690000000000001</ele>
        <time>2017-06-27T07:51:34Z</time>
      </trkpt>
      <trkpt lat="70.052587995305657" lon="22.984768962487578">
        <ele>22.73</ele>
        <time>2017-06-27T07:51:35Z</time>
      </trkpt>
      <trkpt lat="70.052795028313994" lon="22.984594032168388">
        <ele>21.289999999999999</ele>
        <time>2017-06-27T07:51:36Z</time>
      </trkpt>
      <trkpt lat="70.052995020523667" lon="22.984394039958715">
        <ele>20.32</ele>
        <time>2017-06-27T07:51:37Z</time>
      </trkpt>
      <trkpt lat="70.053576976060867" lon="22.983925994485617">
        <ele>16.960000000000001</ele>
        <time>2017-06-27T07:51:40Z</time>
      </trkpt>
      <trkpt lat="70.05377403460443" lon="22.983862040564418">
        <ele>16</ele>
        <time>2017-06-27T07:51:41Z</time>
      </trkpt>
      <trkpt lat="70.053971009328961" lon="22.983866985887289">
        <ele>14.56</ele>
        <time>2017-06-27T07:51:42Z</time>
      </trkpt>
      <trkpt lat="70.054166978225112" lon="22.983917025849223">
        <ele>14.08</ele>
        <time>2017-06-27T07:51:43Z</time>
      </trkpt>
      <trkpt lat="70.054363030940294" lon="22.984029008075595">
        <ele>13.6</ele>
        <time>2017-06-27T07:51:44Z</time>
      </trkpt>
      <trkpt lat="70.054554976522923" lon="22.984216008335352">
        <ele>12.630000000000001</ele>
        <time>2017-06-27T07:51:45Z</time>
      </trkpt>
      <trkpt lat="70.054736025631428" lon="22.984463023021817">
        <ele>12.15</ele>
        <time>2017-06-27T07:51:46Z</time>
      </trkpt>
      <trkpt lat="70.054911961778998" lon="22.984773991629481">
        <ele>12.15</ele>
        <time>2017-06-27T07:51:47Z</time>
      </trkpt>
      <trkpt lat="70.055075995624065" lon="22.985145980492234">
        <ele>12.15</ele>
        <time>2017-06-27T07:51:48Z</time>
      </trkpt>
      <trkpt lat="70.055227037519217" lon="22.985576977953315">
        <ele>12.630000000000001</ele>
        <time>2017-06-27T07:51:49Z</time>
      </trkpt>
      <trkpt lat="70.055359974503517" lon="22.98605902120471">
        <ele>13.119999999999999</ele>
        <time>2017-06-27T07:51:50Z</time>
      </trkpt>
      <trkpt lat="70.05547396838665" lon="22.986581968143582">
        <ele>14.08</ele>
        <time>2017-06-27T07:51:51Z</time>
      </trkpt>
      <trkpt lat="70.055567007511854" lon="22.987137017771602">
        <ele>15.039999999999999</ele>
        <time>2017-06-27T07:51:52Z</time>
      </trkpt>
      <trkpt lat="70.055641019716859" lon="22.98771696165204">
        <ele>16.48</ele>
        <time>2017-06-27T07:51:53Z</time>
      </trkpt>
      <trkpt lat="70.055694999173284" lon="22.988311992958188">
        <ele>18.399999999999999</ele>
        <time>2017-06-27T07:51:54Z</time>
      </trkpt>
      <trkpt lat="70.055732969194651" lon="22.988927979022264">
        <ele>19.84</ele>
        <time>2017-06-27T07:51:55Z</time>
      </trkpt>
      <trkpt lat="70.056059025228024" lon="22.992462962865829">
        <ele>25.609999999999999</ele>
        <time>2017-06-27T07:52:01Z</time>
      </trkpt>
      <trkpt lat="70.056165978312492" lon="22.992975013330579">
        <ele>26.09</ele>
        <time>2017-06-27T07:52:02Z</time>
      </trkpt>
      <trkpt lat="70.056291958317161" lon="22.993453033268452">
        <ele>26.57</ele>
        <time>2017-06-27T07:52:03Z</time>
      </trkpt>
      <trkpt lat="70.056432019919157" lon="22.99390004016459">
        <ele>27.050000000000001</ele>
        <time>2017-06-27T07:52:04Z</time>
      </trkpt>
      <trkpt lat="70.056583983823657" lon="22.994314022362232">
        <ele>27.530000000000001</ele>
        <time>2017-06-27T07:52:05Z</time>
      </trkpt>
      <trkpt lat="70.056748017668724" lon="22.994679976254702">
        <ele>27.530000000000001</ele>
        <time>2017-06-27T07:52:06Z</time>
      </trkpt>
      <trkpt lat="70.056924037635326" lon="22.994990022853017">
        <ele>27.530000000000001</ele>
        <time>2017-06-27T07:52:07Z</time>
      </trkpt>
      <trkpt lat="70.057111959904432" lon="22.995252041146159">
        <ele>27.530000000000001</ele>
        <time>2017-06-27T07:52:08Z</time>
      </trkpt>
      <trkpt lat="70.057307006791234" lon="22.995463013648987">
        <ele>27.050000000000001</ele>
        <time>2017-06-27T07:52:09Z</time>
      </trkpt>
      <trkpt lat="70.05751303397119" lon="22.995629981160164">
        <ele>26.57</ele>
        <time>2017-06-27T07:52:10Z</time>
      </trkpt>
      <trkpt lat="70.057721994817257" lon="22.995752021670341">
        <ele>26.09</ele>
        <time>2017-06-27T07:52:11Z</time>
      </trkpt>
      <trkpt lat="70.057935984805226" lon="22.995832990854979">
        <ele>25.129999999999999</ele>
        <time>2017-06-27T07:52:12Z</time>
      </trkpt>
      <trkpt lat="70.058151986449957" lon="22.995886970311403">
        <ele>24.649999999999999</ele>
        <time>2017-06-27T07:52:13Z</time>
      </trkpt>
      <trkpt lat="70.061599966138601" lon="22.996252002194524">
        <ele>25.609999999999999</ele>
        <time>2017-06-27T07:52:29Z</time>
      </trkpt>
      <trkpt lat="70.063343988731503" lon="22.99491198733449">
        <ele>30.899999999999999</ele>
        <time>2017-06-27T07:52:37Z</time>
      </trkpt>
      <trkpt lat="70.065259002149105" lon="22.99211997538805">
        <ele>31.859999999999999</ele>
        <time>2017-06-27T07:52:46Z</time>
      </trkpt>
      <trkpt lat="70.067195976153016" lon="22.989530973136425">
        <ele>31.859999999999999</ele>
        <time>2017-06-27T07:52:55Z</time>
      </trkpt>
      <trkpt lat="70.068727014586329" lon="22.987058982253075">
        <ele>28.5</ele>
        <time>2017-06-27T07:53:03Z</time>
      </trkpt>
      <trkpt lat="70.070322006940842" lon="22.986409971490502">
        <ele>22.25</ele>
        <time>2017-06-27T07:53:10Z</time>
      </trkpt>
      <trkpt lat="70.072141969576478" lon="22.985506989061832">
        <ele>14.56</ele>
        <time>2017-06-27T07:53:18Z</time>
      </trkpt>
      <trkpt lat="70.075289038941264" lon="22.983018988743424">
        <ele>16</ele>
        <time>2017-06-27T07:53:32Z</time>
      </trkpt>
      <trkpt lat="70.077183013781905" lon="22.983342027291656">
        <ele>17.440000000000001</ele>
        <time>2017-06-27T07:53:40Z</time>
      </trkpt>
      <trkpt lat="70.080065969377756" lon="22.984368978068233">
        <ele>14.08</ele>
        <time>2017-06-27T07:53:52Z</time>
      </trkpt>
      <trkpt lat="70.081860031932592" lon="22.983449986204505">
        <ele>13.119999999999999</ele>
        <time>2017-06-27T07:54:00Z</time>
      </trkpt>
      <trkpt lat="70.083586033433676" lon="22.982930978760123">
        <ele>16.48</ele>
        <time>2017-06-27T07:54:08Z</time>
      </trkpt>
      <trkpt lat="70.084848012775183" lon="22.984191030263901">
        <ele>21.289999999999999</ele>
        <time>2017-06-27T07:54:14Z</time>
      </trkpt>
      <trkpt lat="70.086387014016509" lon="22.985329041257501">
        <ele>31.379999999999999</ele>
        <time>2017-06-27T07:54:21Z</time>
      </trkpt>
      <trkpt lat="70.08900904096663" lon="22.985536996275187">
        <ele>52.530000000000001</ele>
        <time>2017-06-27T07:54:32Z</time>
      </trkpt>
      <trkpt lat="70.09081601165235" lon="22.986795958131552">
        <ele>62.619999999999997</ele>
        <time>2017-06-27T07:54:40Z</time>
      </trkpt>
      <trkpt lat="70.092463977634907" lon="22.987275989726186">
        <ele>64.549999999999997</ele>
        <time>2017-06-27T07:54:47Z</time>
      </trkpt>
      <trkpt lat="70.094876037910581" lon="22.986221965402365">
        <ele>54.450000000000003</ele>
        <time>2017-06-27T07:54:57Z</time>
      </trkpt>
      <trkpt lat="70.097147030755877" lon="22.986073018983006">
        <ele>36.670000000000002</ele>
        <time>2017-06-27T07:55:06Z</time>
      </trkpt>
      <trkpt lat="70.098582012578845" lon="22.98762702383101">
        <ele>29.460000000000001</ele>
        <time>2017-06-27T07:55:12Z</time>
      </trkpt>
      <trkpt lat="70.100345984101295" lon="22.98951999284327">
        <ele>27.050000000000001</ele>
        <time>2017-06-27T07:55:20Z</time>
      </trkpt>
      <trkpt lat="70.101703014224768" lon="22.989545976743102">
        <ele>26.09</ele>
        <time>2017-06-27T07:55:26Z</time>
      </trkpt>
      <trkpt lat="70.103117041289806" lon="22.988306963816285">
        <ele>28.5</ele>
        <time>2017-06-27T07:55:34Z</time>
      </trkpt>
      <trkpt lat="70.10432998649776" lon="22.98795098438859">
        <ele>28.98</ele>
        <time>2017-06-27T07:55:42Z</time>
      </trkpt>
      <trkpt lat="70.106161013245583" lon="22.988519025966525">
        <ele>25.609999999999999</ele>
        <time>2017-06-27T07:55:54Z</time>
      </trkpt>
      <trkpt lat="70.107460040599108" lon="22.990368995815516">
        <ele>22.73</ele>
        <time>2017-06-27T07:56:04Z</time>
      </trkpt>
      <trkpt lat="70.109409000724554" lon="22.992844004184008">
        <ele>17.920000000000002</ele>
        <time>2017-06-27T07:56:19Z</time>
      </trkpt>
      <trkpt lat="70.110322963446379" lon="22.992600006982684">
        <ele>14.56</ele>
        <time>2017-06-27T07:56:25Z</time>
      </trkpt>
      <trkpt lat="70.110460007563233" lon="22.992430021986365">
        <ele>13.6</ele>
        <time>2017-06-27T07:56:26Z</time>
      </trkpt>
      <trkpt lat="70.110592022538185" lon="22.992223994806409">
        <ele>12.630000000000001</ele>
        <time>2017-06-27T07:56:27Z</time>
      </trkpt>
      <trkpt lat="70.111795999109745" lon="22.989553017541766">
        <ele>8.310000000000001</ele>
        <time>2017-06-27T07:56:36Z</time>
      </trkpt>
      <trkpt lat="70.112674003466964" lon="22.987362993881106">
        <ele>11.19</ele>
        <time>2017-06-27T07:56:43Z</time>
      </trkpt>
      <trkpt lat="70.112810963764787" lon="22.98715696670115">
        <ele>12.15</ele>
        <time>2017-06-27T07:56:44Z</time>
      </trkpt>
      <trkpt lat="70.112955970689654" lon="22.987014977261424">
        <ele>12.630000000000001</ele>
        <time>2017-06-27T07:56:45Z</time>
      </trkpt>
      <trkpt lat="70.113109024241567" lon="22.986940965056419">
        <ele>13.119999999999999</ele>
        <time>2017-06-27T07:56:46Z</time>
      </trkpt>
      <trkpt lat="70.113269034773111" lon="22.986921016126871">
        <ele>13.6</ele>
        <time>2017-06-27T07:56:47Z</time>
      </trkpt>
      <trkpt lat="70.113431978970766" lon="22.986957980319858">
        <ele>14.08</ele>
        <time>2017-06-27T07:56:48Z</time>
      </trkpt>
      <trkpt lat="70.113600036129355" lon="22.987031992524862">
        <ele>14.56</ele>
        <time>2017-06-27T07:56:49Z</time>
      </trkpt>
      <trkpt lat="70.113767003640532" lon="22.987140035256743">
        <ele>15.039999999999999</ele>
        <time>2017-06-27T07:56:50Z</time>
      </trkpt>
      <trkpt lat="70.11393497698009" lon="22.987272972241044">
        <ele>16</ele>
        <time>2017-06-27T07:56:51Z</time>
      </trkpt>
      <trkpt lat="70.116035984829068" lon="22.989014983177185">
        <ele>23.210000000000001</ele>
        <time>2017-06-27T07:57:03Z</time>
      </trkpt>
      <trkpt lat="70.11621099896729" lon="22.989006014540792">
        <ele>22.73</ele>
        <time>2017-06-27T07:57:04Z</time>
      </trkpt>
      <trkpt lat="70.116387018933892" lon="22.988926973193884">
        <ele>22.25</ele>
        <time>2017-06-27T07:57:05Z</time>
      </trkpt>
      <trkpt lat="70.116561027243733" lon="22.9887880012393">
        <ele>21.289999999999999</ele>
        <time>2017-06-27T07:57:06Z</time>
      </trkpt>
      <trkpt lat="70.116736963391304" lon="22.988606030121446">
        <ele>19.84</ele>
        <time>2017-06-27T07:57:07Z</time>
      </trkpt>
      <trkpt lat="70.11692002415657" lon="22.988392962142825">
        <ele>18.879999999999999</ele>
        <time>2017-06-27T07:57:08Z</time>
      </trkpt>
      <trkpt lat="70.119217000901699" lon="22.98554303124547">
        <ele>25.129999999999999</ele>
        <time>2017-06-27T07:57:20Z</time>
      </trkpt>
      <trkpt lat="70.120647037401795" lon="22.983173970133066">
        <ele>24.649999999999999</ele>
        <time>2017-06-27T07:57:28Z</time>
      </trkpt>
      <trkpt lat="70.121913040056825" lon="22.982566030696034">
        <ele>23.210000000000001</ele>
        <time>2017-06-27T07:57:34Z</time>
      </trkpt>
      <trkpt lat="70.122125018388033" lon="22.982611963525414">
        <ele>23.690000000000001</ele>
        <time>2017-06-27T07:57:35Z</time>
      </trkpt>
      <trkpt lat="70.122331967577338" lon="22.982712965458632">
        <ele>23.690000000000001</ele>
        <time>2017-06-27T07:57:36Z</time>
      </trkpt>
      <trkpt lat="70.124309007078409" lon="22.984299995005131">
        <ele>25.129999999999999</ele>
        <time>2017-06-27T07:57:46Z</time>
      </trkpt>
      <trkpt lat="70.12661000713706" lon="22.98603898845613">
        <ele>19.359999999999999</ele>
        <time>2017-06-27T07:57:57Z</time>
      </trkpt>
      <trkpt lat="70.130589986220002" lon="22.98908899538219">
        <ele>17.440000000000001</ele>
        <time>2017-06-27T07:58:16Z</time>
      </trkpt>
      <trkpt lat="70.132780009880662" lon="22.990466980263591">
        <ele>23.690000000000001</ele>
        <time>2017-06-27T07:58:27Z</time>
      </trkpt>
      <trkpt lat="70.133504960685968" lon="22.990173026919365">
        <ele>27.530000000000001</ele>
        <time>2017-06-27T07:58:31Z</time>
      </trkpt>
      <trkpt lat="70.133661031723022" lon="22.990017039701343">
        <ele>28.5</ele>
        <time>2017-06-27T07:58:32Z</time>
      </trkpt>
      <trkpt lat="70.133808972314" lon="22.989816963672638">
        <ele>28.98</ele>
        <time>2017-06-27T07:58:33Z</time>
      </trkpt>
      <trkpt lat="70.133948028087616" lon="22.98958201892674">
        <ele>29.940000000000001</ele>
        <time>2017-06-27T07:58:34Z</time>
      </trkpt>
      <trkpt lat="70.134067973122001" lon="22.989320000633597">
        <ele>30.899999999999999</ele>
        <time>2017-06-27T07:58:35Z</time>
      </trkpt>
      <trkpt lat="70.13417299836874" lon="22.989030992612243">
        <ele>31.379999999999999</ele>
        <time>2017-06-27T07:58:36Z</time>
      </trkpt>
      <trkpt lat="70.134265031665564" lon="22.98870200291276">
        <ele>31.859999999999999</ele>
        <time>2017-06-27T07:58:37Z</time>
      </trkpt>
      <trkpt lat="70.134341977536678" lon="22.988342000171542">
        <ele>32.340000000000003</ele>
        <time>2017-06-27T07:58:38Z</time>
      </trkpt>
      <trkpt lat="70.13440802693367" lon="22.987946039065719">
        <ele>32.82</ele>
        <time>2017-06-27T07:58:39Z</time>
      </trkpt>
      <trkpt lat="70.134454965591431" lon="22.987517975270748">
        <ele>32.82</ele>
        <time>2017-06-27T07:58:40Z</time>
      </trkpt>
      <trkpt lat="70.134486984461546" lon="22.987059988081455">
        <ele>33.299999999999997</ele>
        <time>2017-06-27T07:58:41Z</time>
      </trkpt>
      <trkpt lat="70.134511040523648" lon="22.986576016992331">
        <ele>33.780000000000001</ele>
        <time>2017-06-27T07:58:42Z</time>
      </trkpt>
      <trkpt lat="70.134779009968042" lon="22.981670005246997">
        <ele>34.259999999999998</ele>
        <time>2017-06-27T07:58:51Z</time>
      </trkpt>
      <trkpt lat="70.135277984663844" lon="22.978842034935951">
        <ele>36.189999999999998</ele>
        <time>2017-06-27T07:58:57Z</time>
      </trkpt>
      <trkpt lat="70.135536985471845" lon="22.977941986173391">
        <ele>37.630000000000003</ele>
        <time>2017-06-27T07:59:02Z</time>
      </trkpt>
      <trkpt lat="70.135563975200057" lon="22.977882977575064">
        <ele>38.109999999999999</ele>
        <time>2017-06-27T07:59:09Z</time>
      </trkpt>
      <trkpt lat="70.135690961033106" lon="22.977518029510975">
        <ele>39.549999999999997</ele>
        <time>2017-06-27T08:00:14Z</time>
      </trkpt>
      <trkpt lat="70.13634298928082" lon="22.976214978843927">
        <ele>47.719999999999999</ele>
        <time>2017-06-27T08:00:21Z</time>
      </trkpt>
      <trkpt lat="70.137455016374588" lon="22.974298959597945">
        <ele>56.369999999999997</ele>
        <time>2017-06-27T08:00:30Z</time>
      </trkpt>
      <trkpt lat="70.13754503801465" lon="22.973972987383604">
        <ele>55.890000000000001</ele>
        <time>2017-06-27T08:00:31Z</time>
      </trkpt>
      <trkpt lat="70.137619972229004" lon="22.973611978814006">
        <ele>55.890000000000001</ele>
        <time>2017-06-27T08:00:32Z</time>
      </trkpt>
      <trkpt lat="70.137681998312473" lon="22.973230015486479">
        <ele>54.93</ele>
        <time>2017-06-27T08:00:33Z</time>
      </trkpt>
      <trkpt lat="70.137730026617646" lon="22.972819972783327">
        <ele>53.969999999999999</ele>
        <time>2017-06-27T08:00:34Z</time>
      </trkpt>
      <trkpt lat="70.13776196166873" lon="22.972392998635769">
        <ele>52.530000000000001</ele>
        <time>2017-06-27T08:00:35Z</time>
      </trkpt>
      <trkpt lat="70.137775959447026" lon="22.971936017274857">
        <ele>50.609999999999999</ele>
        <time>2017-06-27T08:00:36Z</time>
      </trkpt>
      <trkpt lat="70.137779982760549" lon="22.971477024257183">
        <ele>49.159999999999997</ele>
        <time>2017-06-27T08:00:37Z</time>
      </trkpt>
      <trkpt lat="70.137773025780916" lon="22.97101903706789">
        <ele>47.719999999999999</ele>
        <time>2017-06-27T08:00:38Z</time>
      </trkpt>
      <trkpt lat="70.137753998860717" lon="22.970578987151384">
        <ele>46.280000000000001</ele>
        <time>2017-06-27T08:00:39Z</time>
      </trkpt>
      <trkpt lat="70.137720974162221" lon="22.970151007175446">
        <ele>45.32</ele>
        <time>2017-06-27T08:00:40Z</time>
      </trkpt>
      <trkpt lat="70.137665988877416" lon="22.9697319958359">
        <ele>43.880000000000003</ele>
        <time>2017-06-27T08:00:41Z</time>
      </trkpt>
      <trkpt lat="70.137593988329172" lon="22.969305021688342">
        <ele>41.950000000000003</ele>
        <time>2017-06-27T08:00:42Z</time>
      </trkpt>
      <trkpt lat="70.13750396668911" lon="22.968870000913739">
        <ele>40.030000000000001</ele>
        <time>2017-06-27T08:00:43Z</time>
      </trkpt>
      <trkpt lat="70.137403970584273" lon="22.968431040644646">
        <ele>38.590000000000003</ele>
        <time>2017-06-27T08:00:44Z</time>
      </trkpt>
      <trkpt lat="70.136226983740926" lon="22.963405000045896">
        <ele>26.57</ele>
        <time>2017-06-27T08:00:54Z</time>
      </trkpt>
      <trkpt lat="70.134984031319618" lon="22.958767041563988">
        <ele>24.649999999999999</ele>
        <time>2017-06-27T08:01:03Z</time>
      </trkpt>
      <trkpt lat="70.1322599966079" lon="22.951782988384366">
        <ele>28.98</ele>
        <time>2017-06-27T08:01:18Z</time>
      </trkpt>
      <trkpt lat="70.130911013111472" lon="22.949550971388817">
        <ele>29.460000000000001</ele>
        <time>2017-06-27T08:01:25Z</time>
      </trkpt>
      <trkpt lat="70.129655990749598" lon="22.947301017120481">
        <ele>25.129999999999999</ele>
        <time>2017-06-27T08:01:31Z</time>
      </trkpt>
      <trkpt lat="70.128125958144665" lon="22.943868041038513">
        <ele>25.129999999999999</ele>
        <time>2017-06-27T08:01:39Z</time>
      </trkpt>
      <trkpt lat="70.126576982438564" lon="22.940564984455705">
        <ele>25.609999999999999</ele>
        <time>2017-06-27T08:01:47Z</time>
      </trkpt>
      <trkpt lat="70.124794989824295" lon="22.935527041554451">
        <ele>24.170000000000002</ele>
        <time>2017-06-27T08:01:57Z</time>
      </trkpt>
      <trkpt lat="70.1231490354985" lon="22.93116501532495">
        <ele>20.809999999999999</ele>
        <time>2017-06-27T08:02:06Z</time>
      </trkpt>
      <trkpt lat="70.122133987024426" lon="22.927404977381229">
        <ele>20.32</ele>
        <time>2017-06-27T08:02:13Z</time>
      </trkpt>
      <trkpt lat="70.12102397158742" lon="22.92085200548172">
        <ele>26.57</ele>
        <time>2017-06-27T08:02:23Z</time>
      </trkpt>
      <trkpt lat="70.120059968903661" lon="22.916264003142715">
        <ele>20.809999999999999</ele>
        <time>2017-06-27T08:02:31Z</time>
      </trkpt>
      <trkpt lat="70.117964996024966" lon="22.909049028530717">
        <ele>21.77</ele>
        <time>2017-06-27T08:02:44Z</time>
      </trkpt>
      <trkpt lat="70.116476034745574" lon="22.904770988970995">
        <ele>26.57</ele>
        <time>2017-06-27T08:02:53Z</time>
      </trkpt>
      <trkpt lat="70.114679960533977" lon="22.901238016784191">
        <ele>40.030000000000001</ele>
        <time>2017-06-27T08:03:04Z</time>
      </trkpt>
      <trkpt lat="70.113437008112669" lon="22.898769965395331">
        <ele>47.240000000000002</ele>
        <time>2017-06-27T08:03:12Z</time>
      </trkpt>
      <trkpt lat="70.113120004534721" lon="22.897791964933276">
        <ele>48.68</ele>
        <time>2017-06-27T08:03:18Z</time>
      </trkpt>
      <trkpt lat="70.112442998215556" lon="22.895752983167768">
        <ele>49.649999999999999</ele>
        <time>2017-06-27T08:03:30Z</time>
      </trkpt>
      <trkpt lat="70.111414035782218" lon="22.89414600469172">
        <ele>46.280000000000001</ele>
        <time>2017-06-27T08:03:43Z</time>
      </trkpt>
      <trkpt lat="70.111189987510443" lon="22.893936960026622">
        <ele>46.280000000000001</ele>
        <time>2017-06-27T08:03:46Z</time>
      </trkpt>
      <trkpt lat="70.111106000840664" lon="22.893810980021954">
        <ele>45.799999999999997</ele>
        <time>2017-06-27T08:03:47Z</time>
      </trkpt>
      <trkpt lat="70.11101002804935" lon="22.893632026389241">
        <ele>45.799999999999997</ele>
        <time>2017-06-27T08:03:48Z</time>
      </trkpt>
      <trkpt lat="70.110092964023352" lon="22.891860008239746">
        <ele>44.359999999999999</ele>
        <time>2017-06-27T08:03:55Z</time>
      </trkpt>
      <trkpt lat="70.108299991115928" lon="22.88860104046762">
        <ele>47.719999999999999</ele>
        <time>2017-06-27T08:04:05Z</time>
      </trkpt>
      <trkpt lat="70.106347007676959" lon="22.883884040638804">
        <ele>49.159999999999997</ele>
        <time>2017-06-27T08:04:16Z</time>
      </trkpt>
      <trkpt lat="70.104960976168513" lon="22.878750041127205">
        <ele>42.439999999999998</ele>
        <time>2017-06-27T08:04:25Z</time>
      </trkpt>
      <trkpt lat="70.103516019880772" lon="22.871259972453117">
        <ele>31.379999999999999</ele>
        <time>2017-06-27T08:04:36Z</time>
      </trkpt>
      <trkpt lat="70.102544976398349" lon="22.866715975105762">
        <ele>29.940000000000001</ele>
        <time>2017-06-27T08:04:44Z</time>
      </trkpt>
      <trkpt lat="70.100884018465877" lon="22.859820015728474">
        <ele>28.5</ele>
        <time>2017-06-27T08:04:58Z</time>
      </trkpt>
      <trkpt lat="70.099654980003834" lon="22.853943966329098">
        <ele>28.02</ele>
        <time>2017-06-27T08:05:07Z</time>
      </trkpt>
      <trkpt lat="70.097944987937808" lon="22.845573965460062">
        <ele>28.02</ele>
        <time>2017-06-27T08:05:19Z</time>
      </trkpt>
      <trkpt lat="70.096182022243738" lon="22.837294992059469">
        <ele>22.73</ele>
        <time>2017-06-27T08:05:31Z</time>
      </trkpt>
      <trkpt lat="70.095250038430095" lon="22.830989034846425">
        <ele>24.649999999999999</ele>
        <time>2017-06-27T08:05:40Z</time>
      </trkpt>
      <trkpt lat="70.094699012115598" lon="22.823501983657479">
        <ele>27.050000000000001</ele>
        <time>2017-06-27T08:05:50Z</time>
      </trkpt>
      <trkpt lat="70.094263991340995" lon="22.815947961062193">
        <ele>29.460000000000001</ele>
        <time>2017-06-27T08:06:00Z</time>
      </trkpt>
      <trkpt lat="70.093183983117342" lon="22.809140011668205">
        <ele>37.149999999999999</ele>
        <time>2017-06-27T08:06:10Z</time>
      </trkpt>
      <trkpt lat="70.092445034533739" lon="22.802790971472859">
        <ele>37.630000000000003</ele>
        <time>2017-06-27T08:06:19Z</time>
      </trkpt>
      <trkpt lat="70.091957040131092" lon="22.794242016971111">
        <ele>28.5</ele>
        <time>2017-06-27T08:06:30Z</time>
      </trkpt>
      <trkpt lat="70.091221025213599" lon="22.783543020486832">
        <ele>28.02</ele>
        <time>2017-06-27T08:06:44Z</time>
      </trkpt>
      <trkpt lat="70.090254005044699" lon="22.777169002220035">
        <ele>29.460000000000001</ele>
        <time>2017-06-27T08:06:53Z</time>
      </trkpt>
      <trkpt lat="70.089002000167966" lon="22.769002011045814">
        <ele>28.02</ele>
        <time>2017-06-27T08:07:05Z</time>
      </trkpt>
      <trkpt lat="70.088650966063142" lon="22.761279009282589">
        <ele>18.399999999999999</ele>
        <time>2017-06-27T08:07:15Z</time>
      </trkpt>
      <trkpt lat="70.088292974978685" lon="22.749782977625728">
        <ele>13.119999999999999</ele>
        <time>2017-06-27T08:07:30Z</time>
      </trkpt>
      <trkpt lat="70.088203037157655" lon="22.74398404173553">
        <ele>23.210000000000001</ele>
        <time>2017-06-27T08:07:39Z</time>
      </trkpt>
      <trkpt lat="70.087751001119614" lon="22.73882900364697">
        <ele>27.050000000000001</ele>
        <time>2017-06-27T08:07:48Z</time>
      </trkpt>
      <trkpt lat="70.086869979277253" lon="22.732790010049939">
        <ele>27.050000000000001</ele>
        <time>2017-06-27T08:07:57Z</time>
      </trkpt>
      <trkpt lat="70.085458969697356" lon="22.724592005833983">
        <ele>27.530000000000001</ele>
        <time>2017-06-27T08:08:09Z</time>
      </trkpt>
      <trkpt lat="70.084038991481066" lon="22.71998698823154">
        <ele>28.02</ele>
        <time>2017-06-27T08:08:17Z</time>
      </trkpt>
      <trkpt lat="70.081640006974339" lon="22.714095013216138">
        <ele>28.5</ele>
        <time>2017-06-27T08:08:29Z</time>
      </trkpt>
      <trkpt lat="70.080259004607797" lon="22.708759009838104">
        <ele>29.460000000000001</ele>
        <time>2017-06-27T08:08:38Z</time>
      </trkpt>
      <trkpt lat="70.077631026506424" lon="22.69740697927773">
        <ele>30.899999999999999</ele>
        <time>2017-06-27T08:08:56Z</time>
      </trkpt>
      <trkpt lat="70.075030960142612" lon="22.685540970414877">
        <ele>26.57</ele>
        <time>2017-06-27T08:09:14Z</time>
      </trkpt>
      <trkpt lat="70.074368035420775" lon="22.680727997794747">
        <ele>25.129999999999999</ele>
        <time>2017-06-27T08:09:21Z</time>
      </trkpt>
      <trkpt lat="70.074248006567359" lon="22.674714988097548">
        <ele>19.84</ele>
        <time>2017-06-27T08:09:29Z</time>
      </trkpt>
      <trkpt lat="70.074399970471859" lon="22.665514005348086">
        <ele>12.630000000000001</ele>
        <time>2017-06-27T08:09:41Z</time>
      </trkpt>
      <trkpt lat="70.075283003970981" lon="22.655146010220051">
        <ele>15.039999999999999</ele>
        <time>2017-06-27T08:09:55Z</time>
      </trkpt>
      <trkpt lat="70.075335977599025" lon="22.649746974930167">
        <ele>13.6</ele>
        <time>2017-06-27T08:10:02Z</time>
      </trkpt>
      <trkpt lat="70.074896011501551" lon="22.644389010965824">
        <ele>13.119999999999999</ele>
        <time>2017-06-27T08:10:09Z</time>
      </trkpt>
      <trkpt lat="70.073126005008817" lon="22.631014008074999">
        <ele>13.6</ele>
        <time>2017-06-27T08:10:27Z</time>
      </trkpt>
      <trkpt lat="70.072287982329726" lon="22.623686967417598">
        <ele>16.960000000000001</ele>
        <time>2017-06-27T08:10:37Z</time>
      </trkpt>
      <trkpt lat="70.071631008759141" lon="22.618760000914335">
        <ele>17.920000000000002</ele>
        <time>2017-06-27T08:10:44Z</time>
      </trkpt>
      <trkpt lat="70.070228967815638" lon="22.610244993120432">
        <ele>16</ele>
        <time>2017-06-27T08:10:56Z</time>
      </trkpt>
      <trkpt lat="70.069023985415697" lon="22.600517962127924">
        <ele>19.84</ele>
        <time>2017-06-27T08:11:09Z</time>
      </trkpt>
      <trkpt lat="70.068622995167971" lon="22.595813032239676">
        <ele>20.32</ele>
        <time>2017-06-27T08:11:16Z</time>
      </trkpt>
      <trkpt lat="70.0679100304842" lon="22.589827012270689">
        <ele>17.920000000000002</ele>
        <time>2017-06-27T08:11:25Z</time>
      </trkpt>
      <trkpt lat="70.067079970613122" lon="22.579702008515596">
        <ele>18.879999999999999</ele>
        <time>2017-06-27T08:11:39Z</time>
      </trkpt>
      <trkpt lat="70.066054025664926" lon="22.566293980926275">
        <ele>29.940000000000001</ele>
        <time>2017-06-27T08:11:57Z</time>
      </trkpt>
      <trkpt lat="70.064857006072998" lon="22.555522983893752">
        <ele>30.899999999999999</ele>
        <time>2017-06-27T08:12:12Z</time>
      </trkpt>
      <trkpt lat="70.06413197144866" lon="22.549237981438637">
        <ele>31.859999999999999</ele>
        <time>2017-06-27T08:12:20Z</time>
      </trkpt>
      <trkpt lat="70.062820035964251" lon="22.539175003767014">
        <ele>38.109999999999999</ele>
        <time>2017-06-27T08:12:33Z</time>
      </trkpt>
      <trkpt lat="70.062106987461448" lon="22.53108998760581">
        <ele>40.509999999999998</ele>
        <time>2017-06-27T08:12:43Z</time>
      </trkpt>
      <trkpt lat="70.061547998338938" lon="22.524725021794438">
        <ele>44.359999999999999</ele>
        <time>2017-06-27T08:12:52Z</time>
      </trkpt>
      <trkpt lat="70.06086403504014" lon="22.519169999286532">
        <ele>45.799999999999997</ele>
        <time>2017-06-27T08:13:01Z</time>
      </trkpt>
      <trkpt lat="70.059978989884257" lon="22.512301029637456">
        <ele>43.399999999999999</ele>
        <time>2017-06-27T08:13:10Z</time>
      </trkpt>
      <trkpt lat="70.05976801738143" lon="22.506310986354947">
        <ele>34.259999999999998</ele>
        <time>2017-06-27T08:13:17Z</time>
      </trkpt>
      <trkpt lat="70.059294020757079" lon="22.500387998297811">
        <ele>21.77</ele>
        <time>2017-06-27T08:13:24Z</time>
      </trkpt>
      <trkpt lat="70.05869697779417" lon="22.492921985685825">
        <ele>23.210000000000001</ele>
        <time>2017-06-27T08:13:33Z</time>
      </trkpt>
      <trkpt lat="70.057984013110399" lon="22.479844959452748">
        <ele>34.259999999999998</ele>
        <time>2017-06-27T08:13:49Z</time>
      </trkpt>
      <trkpt lat="70.057537006214261" lon="22.472513979300857">
        <ele>31.379999999999999</ele>
        <time>2017-06-27T08:13:58Z</time>
      </trkpt>
      <trkpt lat="70.056982040405273" lon="22.463091965764761">
        <ele>17.920000000000002</ele>
        <time>2017-06-27T08:14:09Z</time>
      </trkpt>
      <trkpt lat="70.056948009878397" lon="22.45563399977982">
        <ele>16.960000000000001</ele>
        <time>2017-06-27T08:14:18Z</time>
      </trkpt>
      <trkpt lat="70.056608039885759" lon="22.450186014175415">
        <ele>15.52</ele>
        <time>2017-06-27T08:14:25Z</time>
      </trkpt>
      <trkpt lat="70.055995993316174" lon="22.441697996109724">
        <ele>20.809999999999999</ele>
        <time>2017-06-27T08:14:36Z</time>
      </trkpt>
      <trkpt lat="70.055913012474775" lon="22.434515962377191">
        <ele>25.129999999999999</ele>
        <time>2017-06-27T08:14:45Z</time>
      </trkpt>
      <trkpt lat="70.05538696423173" lon="22.424653982743621">
        <ele>15.52</ele>
        <time>2017-06-27T08:14:57Z</time>
      </trkpt>
      <trkpt lat="70.055204993113875" lon="22.413800004869699">
        <ele>12.15</ele>
        <time>2017-06-27T08:15:10Z</time>
      </trkpt>
      <trkpt lat="70.055295014753938" lon="22.407604018226266">
        <ele>16</ele>
        <time>2017-06-27T08:15:18Z</time>
      </trkpt>
      <trkpt lat="70.055488971993327" lon="22.399137960746884">
        <ele>17.920000000000002</ele>
        <time>2017-06-27T08:15:31Z</time>
      </trkpt>
      <trkpt lat="70.055112959817052" lon="22.394069004803896">
        <ele>16.960000000000001</ele>
        <time>2017-06-27T08:15:39Z</time>
      </trkpt>
      <trkpt lat="70.05444198846817" lon="22.390163959935308">
        <ele>17.440000000000001</ele>
        <time>2017-06-27T08:15:45Z</time>
      </trkpt>
      <trkpt lat="70.052583971992135" lon="22.382301986217499">
        <ele>16.960000000000001</ele>
        <time>2017-06-27T08:15:56Z</time>
      </trkpt>
      <trkpt lat="70.049722976982594" lon="22.371416995301843">
        <ele>15.039999999999999</ele>
        <time>2017-06-27T08:16:12Z</time>
      </trkpt>
      <trkpt lat="70.048075011000037" lon="22.365908995270729">
        <ele>16</ele>
        <time>2017-06-27T08:16:21Z</time>
      </trkpt>
      <trkpt lat="70.046239960938692" lon="22.361112032085657">
        <ele>22.25</ele>
        <time>2017-06-27T08:16:30Z</time>
      </trkpt>
      <trkpt lat="70.044254036620259" lon="22.354872040450573">
        <ele>28.02</ele>
        <time>2017-06-27T08:16:41Z</time>
      </trkpt>
      <trkpt lat="70.042137019336224" lon="22.347577018663287">
        <ele>24.170000000000002</ele>
        <time>2017-06-27T08:16:53Z</time>
      </trkpt>
      <trkpt lat="70.039566960185766" lon="22.340632025152445">
        <ele>24.170000000000002</ele>
        <time>2017-06-27T08:17:06Z</time>
      </trkpt>
      <trkpt lat="70.036332970485091" lon="22.333927005529404">
        <ele>22.73</ele>
        <time>2017-06-27T08:17:21Z</time>
      </trkpt>
      <trkpt lat="70.034397002309561" lon="22.3280109744519">
        <ele>21.77</ele>
        <time>2017-06-27T08:17:32Z</time>
      </trkpt>
      <trkpt lat="70.032318038865924" lon="22.320506991818547">
        <ele>21.77</ele>
        <time>2017-06-27T08:17:45Z</time>
      </trkpt>
      <trkpt lat="70.031867008656263" lon="22.318893978372216">
        <ele>21.289999999999999</ele>
        <time>2017-06-27T08:17:48Z</time>
      </trkpt>
      <trkpt lat="70.031687971204519" lon="22.318430040031672">
        <ele>20.809999999999999</ele>
        <time>2017-06-27T08:17:49Z</time>
      </trkpt>
      <trkpt lat="70.031497031450272" lon="22.318001976236701">
        <ele>20.32</ele>
        <time>2017-06-27T08:17:50Z</time>
      </trkpt>
      <trkpt lat="70.02838097512722" lon="22.311827028170228">
        <ele>16.48</ele>
        <time>2017-06-27T08:18:05Z</time>
      </trkpt>
      <trkpt lat="70.024634012952447" lon="22.305400036275387">
        <ele>12.630000000000001</ele>
        <time>2017-06-27T08:18:22Z</time>
      </trkpt>
      <trkpt lat="70.023291986435652" lon="22.301959013566375">
        <ele>11.67</ele>
        <time>2017-06-27T08:18:29Z</time>
      </trkpt>
      <trkpt lat="70.022769039496779" lon="22.29859996587038">
        <ele>12.630000000000001</ele>
        <time>2017-06-27T08:18:34Z</time>
      </trkpt>
      <trkpt lat="70.022693015635014" lon="22.29494696483016">
        <ele>12.630000000000001</ele>
        <time>2017-06-27T08:18:39Z</time>
      </trkpt>
      <trkpt lat="70.023153014481068" lon="22.290746960788965">
        <ele>11.67</ele>
        <time>2017-06-27T08:18:45Z</time>
      </trkpt>
      <trkpt lat="70.024182982742786" lon="22.287473995238543">
        <ele>10.23</ele>
        <time>2017-06-27T08:18:51Z</time>
      </trkpt>
      <trkpt lat="70.025496007874608" lon="22.285743970423937">
        <ele>9.27</ele>
        <time>2017-06-27T08:18:57Z</time>
      </trkpt>
      <trkpt lat="70.026709958910942" lon="22.285069981589913">
        <ele>9.27</ele>
        <time>2017-06-27T08:19:04Z</time>
      </trkpt>
      <trkpt lat="70.028283996507525" lon="22.284389035776258">
        <ele>9.27</ele>
        <time>2017-06-27T08:19:12Z</time>
      </trkpt>
      <trkpt lat="70.030089961364865" lon="22.282658005133271">
        <ele>9.75</ele>
        <time>2017-06-27T08:19:22Z</time>
      </trkpt>
      <trkpt lat="70.032027019187808" lon="22.280776016414165">
        <ele>10.23</ele>
        <time>2017-06-27T08:19:33Z</time>
      </trkpt>
      <trkpt lat="70.033608013764024" lon="22.278290027752519">
        <ele>10.710000000000001</ele>
        <time>2017-06-27T08:19:43Z</time>
      </trkpt>
      <trkpt lat="70.034912992268801" lon="22.274840958416462">
        <ele>17.440000000000001</ele>
        <time>2017-06-27T08:19:53Z</time>
      </trkpt>
      <trkpt lat="70.035919994115829" lon="22.270242981612682">
        <ele>28.02</ele>
        <time>2017-06-27T08:20:04Z</time>
      </trkpt>
      <trkpt lat="70.037062028422952" lon="22.265132032334805">
        <ele>40.030000000000001</ele>
        <time>2017-06-27T08:20:16Z</time>
      </trkpt>
      <trkpt lat="70.038128960877657" lon="22.262863973155618">
        <ele>45.799999999999997</ele>
        <time>2017-06-27T08:20:24Z</time>
      </trkpt>
      <trkpt lat="70.039225984364748" lon="22.260357029736042">
        <ele>46.759999999999998</ele>
        <time>2017-06-27T08:20:31Z</time>
      </trkpt>
      <trkpt lat="70.039973985403776" lon="22.256718026474118">
        <ele>45.799999999999997</ele>
        <time>2017-06-27T08:20:38Z</time>
      </trkpt>
      <trkpt lat="70.040229968726635" lon="22.252487009391189">
        <ele>51.57</ele>
        <time>2017-06-27T08:20:45Z</time>
      </trkpt>
      <trkpt lat="70.039956970140338" lon="22.248292034491897">
        <ele>60.700000000000003</ele>
        <time>2017-06-27T08:20:52Z</time>
      </trkpt>
      <trkpt lat="70.039177034050226" lon="22.244286993518472">
        <ele>66.950000000000003</ele>
        <time>2017-06-27T08:20:59Z</time>
      </trkpt>
      <trkpt lat="70.03727400675416" lon="22.235870976001024">
        <ele>82.810000000000002</ele>
        <time>2017-06-27T08:21:13Z</time>
      </trkpt>
      <trkpt lat="70.036743013188243" lon="22.231668960303068">
        <ele>86.180000000000007</ele>
        <time>2017-06-27T08:21:19Z</time>
      </trkpt>
      <trkpt lat="70.036708982661366" lon="22.227057991549373">
        <ele>83.769999999999996</ele>
        <time>2017-06-27T08:21:25Z</time>
      </trkpt>
      <trkpt lat="70.036815013736486" lon="22.220710041001439">
        <ele>78</ele>
        <time>2017-06-27T08:21:33Z</time>
      </trkpt>
      <trkpt lat="70.036612004041672" lon="22.214445993304253">
        <ele>74.640000000000001</ele>
        <time>2017-06-27T08:21:41Z</time>
      </trkpt>
      <trkpt lat="70.036685010418296" lon="22.20842300914228">
        <ele>70.310000000000002</ele>
        <time>2017-06-27T08:21:49Z</time>
      </trkpt>
      <trkpt lat="70.036374963819981" lon="22.20122798345983">
        <ele>61.659999999999997</ele>
        <time>2017-06-27T08:21:59Z</time>
      </trkpt>
      <trkpt lat="70.036662966012955" lon="22.19598401337862">
        <ele>53.009999999999998</ele>
        <time>2017-06-27T08:22:06Z</time>
      </trkpt>
      <trkpt lat="70.037269983440638" lon="22.183299008756876">
        <ele>45.799999999999997</ele>
        <time>2017-06-27T08:22:22Z</time>
      </trkpt>
      <trkpt lat="70.037797959521413" lon="22.169656958431005">
        <ele>44.359999999999999</ele>
        <time>2017-06-27T08:22:40Z</time>
      </trkpt>
      <trkpt lat="70.03772797062993" lon="22.164440983906388">
        <ele>45.799999999999997</ele>
        <time>2017-06-27T08:22:47Z</time>
      </trkpt>
      <trkpt lat="70.037179039791226" lon="22.160624032840133">
        <ele>45.799999999999997</ele>
        <time>2017-06-27T08:22:53Z</time>
      </trkpt>
      <trkpt lat="70.036244038492441" lon="22.156865000724792">
        <ele>49.159999999999997</ele>
        <time>2017-06-27T08:23:00Z</time>
      </trkpt>
      <trkpt lat="70.035697035491467" lon="22.152161998674273">
        <ele>46.280000000000001</ele>
        <time>2017-06-27T08:23:07Z</time>
      </trkpt>
      <trkpt lat="70.034892037510872" lon="22.147680027410388">
        <ele>46.759999999999998</ele>
        <time>2017-06-27T08:23:14Z</time>
      </trkpt>
      <trkpt lat="70.032565975561738" lon="22.13608299382031">
        <ele>57.82</ele>
        <time>2017-06-27T08:23:33Z</time>
      </trkpt>
      <trkpt lat="70.032277973368764" lon="22.13096902705729">
        <ele>53.969999999999999</ele>
        <time>2017-06-27T08:23:40Z</time>
      </trkpt>
      <trkpt lat="70.031921993941069" lon="22.124111959710717">
        <ele>45.32</ele>
        <time>2017-06-27T08:23:50Z</time>
      </trkpt>
      <trkpt lat="70.031522009521723" lon="22.118225013837218">
        <ele>35.229999999999997</ele>
        <time>2017-06-27T08:24:01Z</time>
      </trkpt>
      <trkpt lat="70.030457004904747" lon="22.10888497531414">
        <ele>30.899999999999999</ele>
        <time>2017-06-27T08:24:20Z</time>
      </trkpt>
      <trkpt lat="70.029197037220001" lon="22.098508011549711">
        <ele>27.050000000000001</ele>
        <time>2017-06-27T08:24:39Z</time>
      </trkpt>
      <trkpt lat="70.029081031680107" lon="22.094991970807314">
        <ele>19.84</ele>
        <time>2017-06-27T08:24:45Z</time>
      </trkpt>
      <trkpt lat="70.029037026688457" lon="22.094515962526202">
        <ele>18.879999999999999</ele>
        <time>2017-06-27T08:24:46Z</time>
      </trkpt>
      <trkpt lat="70.028975000604987" lon="22.094104997813702">
        <ele>17.920000000000002</ele>
        <time>2017-06-27T08:24:47Z</time>
      </trkpt>
      <trkpt lat="70.028890008106828" lon="22.093754969537258">
        <ele>16.960000000000001</ele>
        <time>2017-06-27T08:24:48Z</time>
      </trkpt>
      <trkpt lat="70.028785988688469" lon="22.09345699287951">
        <ele>16.48</ele>
        <time>2017-06-27T08:24:49Z</time>
      </trkpt>
      <trkpt lat="70.028654979541898" lon="22.093211989849806">
        <ele>16</ele>
        <time>2017-06-27T08:24:50Z</time>
      </trkpt>
      <trkpt lat="70.028502009809017" lon="22.093020966276526">
        <ele>16</ele>
        <time>2017-06-27T08:24:51Z</time>
      </trkpt>
      <trkpt lat="70.028338981792331" lon="22.092869002372026">
        <ele>16.48</ele>
        <time>2017-06-27T08:24:52Z</time>
      </trkpt>
      <trkpt lat="70.028166985139251" lon="22.092734975740314">
        <ele>16.48</ele>
        <time>2017-06-27T08:24:53Z</time>
      </trkpt>
      <trkpt lat="70.026566963642836" lon="22.091460004448891">
        <ele>18.399999999999999</ele>
        <time>2017-06-27T08:25:02Z</time>
      </trkpt>
      <trkpt lat="70.026413993909955" lon="22.091196980327368">
        <ele>18.399999999999999</ele>
        <time>2017-06-27T08:25:03Z</time>
      </trkpt>
      <trkpt lat="70.026278039440513" lon="22.090862961485982">
        <ele>18.399999999999999</ele>
        <time>2017-06-27T08:25:04Z</time>
      </trkpt>
      <trkpt lat="70.026160022243857" lon="22.090478986501694">
        <ele>18.879999999999999</ele>
        <time>2017-06-27T08:25:05Z</time>
      </trkpt>
      <trkpt lat="70.02605902031064" lon="22.090050000697374">
        <ele>19.359999999999999</ele>
        <time>2017-06-27T08:25:06Z</time>
      </trkpt>
      <trkpt lat="70.025981990620494" lon="22.089573992416263">
        <ele>19.359999999999999</ele>
        <time>2017-06-27T08:25:07Z</time>
      </trkpt>
      <trkpt lat="70.025923987850547" lon="22.08905297331512">
        <ele>19.84</ele>
        <time>2017-06-27T08:25:08Z</time>
      </trkpt>
      <trkpt lat="70.025889035314322" lon="22.088512005284429">
        <ele>19.84</ele>
        <time>2017-06-27T08:25:09Z</time>
      </trkpt>
      <trkpt lat="70.025874031707644" lon="22.087937006726861">
        <ele>19.84</ele>
        <time>2017-06-27T08:25:10Z</time>
      </trkpt>
      <trkpt lat="70.025863973423839" lon="22.087345998734236">
        <ele>19.84</ele>
        <time>2017-06-27T08:25:11Z</time>
      </trkpt>
      <trkpt lat="70.025718966498971" lon="22.08060703240335">
        <ele>15.52</ele>
        <time>2017-06-27T08:25:22Z</time>
      </trkpt>
      <trkpt lat="70.025669010356069" lon="22.080039996653795">
        <ele>15.52</ele>
        <time>2017-06-27T08:25:23Z</time>
      </trkpt>
      <trkpt lat="70.025599021464586" lon="22.079486036673188">
        <ele>15.52</ele>
        <time>2017-06-27T08:25:24Z</time>
      </trkpt>
      <trkpt lat="70.025506988167763" lon="22.078938027843833">
        <ele>15.039999999999999</ele>
        <time>2017-06-27T08:25:25Z</time>
      </trkpt>
      <trkpt lat="70.025402968749404" lon="22.078406028449535">
        <ele>15.039999999999999</ele>
        <time>2017-06-27T08:25:26Z</time>
      </trkpt>
      <trkpt lat="70.025289980694652" lon="22.077872017398477">
        <ele>15.039999999999999</ele>
        <time>2017-06-27T08:25:27Z</time>
      </trkpt>
      <trkpt lat="70.024578021839261" lon="22.07480700686574">
        <ele>15.52</ele>
        <time>2017-06-27T08:25:33Z</time>
      </trkpt>
      <trkpt lat="70.024434020742774" lon="22.074429988861084">
        <ele>16</ele>
        <time>2017-06-27T08:25:34Z</time>
      </trkpt>
      <trkpt lat="70.024266969412565" lon="22.074097981676459">
        <ele>16.48</ele>
        <time>2017-06-27T08:25:35Z</time>
      </trkpt>
      <trkpt lat="70.024090027436614" lon="22.073789024725556">
        <ele>16.960000000000001</ele>
        <time>2017-06-27T08:25:36Z</time>
      </trkpt>
      <trkpt lat="70.023900009691715" lon="22.073509991168976">
        <ele>17.440000000000001</ele>
        <time>2017-06-27T08:25:37Z</time>
      </trkpt>
      <trkpt lat="70.023699011653662" lon="22.073259958997369">
        <ele>18.879999999999999</ele>
        <time>2017-06-27T08:25:38Z</time>
      </trkpt>
      <trkpt lat="70.021570008248091" lon="22.070313971489668">
        <ele>30.899999999999999</ele>
        <time>2017-06-27T08:25:48Z</time>
      </trkpt>
      <trkpt lat="70.018670037388802" lon="22.064991965889931">
        <ele>49.649999999999999</ele>
        <time>2017-06-27T08:26:02Z</time>
      </trkpt>
      <trkpt lat="70.017407974228263" lon="22.062994977459311">
        <ele>57.340000000000003</ele>
        <time>2017-06-27T08:26:08Z</time>
      </trkpt>
      <trkpt lat="70.017232960090041" lon="22.062571020796895">
        <ele>58.780000000000001</ele>
        <time>2017-06-27T08:26:09Z</time>
      </trkpt>
      <trkpt lat="70.017074961215258" lon="22.062085038051009">
        <ele>60.219999999999999</ele>
        <time>2017-06-27T08:26:10Z</time>
      </trkpt>
      <trkpt lat="70.016938000917435" lon="22.061536023393273">
        <ele>61.659999999999997</ele>
        <time>2017-06-27T08:26:11Z</time>
      </trkpt>
      <trkpt lat="70.016812020912766" lon="22.060952978208661">
        <ele>63.100000000000001</ele>
        <time>2017-06-27T08:26:12Z</time>
      </trkpt>
      <trkpt lat="70.016415975987911" lon="22.059289002791047">
        <ele>65.989999999999995</ele>
        <time>2017-06-27T08:26:15Z</time>
      </trkpt>
      <trkpt lat="70.016246996819973" lon="22.058826992288232">
        <ele>66.469999999999999</ele>
        <time>2017-06-27T08:26:16Z</time>
      </trkpt>
      <trkpt lat="70.016053961589932" lon="22.05841301009059">
        <ele>66.469999999999999</ele>
        <time>2017-06-27T08:26:17Z</time>
      </trkpt>
      <trkpt lat="70.013957982882857" lon="22.054920019581914">
        <ele>78.480000000000004</ele>
        <time>2017-06-27T08:26:27Z</time>
      </trkpt>
      <trkpt lat="70.01018101349473" lon="22.048688996583223">
        <ele>78</ele>
        <time>2017-06-27T08:26:45Z</time>
      </trkpt>
      <trkpt lat="70.008725998923182" lon="22.046313984319568">
        <ele>73.200000000000003</ele>
        <time>2017-06-27T08:26:53Z</time>
      </trkpt>
      <trkpt lat="70.007285987958312" lon="22.043661028146744">
        <ele>65.989999999999995</ele>
        <time>2017-06-27T08:27:00Z</time>
      </trkpt>
      <trkpt lat="70.007124971598387" lon="22.043192982673645">
        <ele>65.989999999999995</ele>
        <time>2017-06-27T08:27:01Z</time>
      </trkpt>
      <trkpt lat="70.006978958845139" lon="22.042694007977843">
        <ele>65.989999999999995</ele>
        <time>2017-06-27T08:27:02Z</time>
      </trkpt>
      <trkpt lat="70.005394024774432" lon="22.036098036915064">
        <ele>56.859999999999999</ele>
        <time>2017-06-27T08:27:14Z</time>
      </trkpt>
      <trkpt lat="70.004448965191841" lon="22.032792968675494">
        <ele>52.530000000000001</ele>
        <time>2017-06-27T08:27:21Z</time>
      </trkpt>
      <trkpt lat="70.004098014906049" lon="22.032129960134625">
        <ele>50.609999999999999</ele>
        <time>2017-06-27T08:27:23Z</time>
      </trkpt>
      <trkpt lat="70.003906991332769" lon="22.03187900595367">
        <ele>49.649999999999999</ele>
        <time>2017-06-27T08:27:24Z</time>
      </trkpt>
      <trkpt lat="70.003710016608238" lon="22.031693011522293">
        <ele>48.68</ele>
        <time>2017-06-27T08:27:25Z</time>
      </trkpt>
      <trkpt lat="70.003504995256662" lon="22.031555967405438">
        <ele>47.719999999999999</ele>
        <time>2017-06-27T08:27:26Z</time>
      </trkpt>
      <trkpt lat="70.003297040238976" lon="22.031465023756027">
        <ele>46.759999999999998</ele>
        <time>2017-06-27T08:27:27Z</time>
      </trkpt>
      <trkpt lat="70.003082966431975" lon="22.031423030421138">
        <ele>45.32</ele>
        <time>2017-06-27T08:27:28Z</time>
      </trkpt>
      <trkpt lat="70.002863025292754" lon="22.031425964087248">
        <ele>44.359999999999999</ele>
        <time>2017-06-27T08:27:29Z</time>
      </trkpt>
      <trkpt lat="70.002645011991262" lon="22.03144901432097">
        <ele>42.920000000000002</ele>
        <time>2017-06-27T08:27:30Z</time>
      </trkpt>
      <trkpt lat="70.000849021598697" lon="22.032528016716242">
        <ele>32.82</ele>
        <time>2017-06-27T08:27:38Z</time>
      </trkpt>
      <trkpt lat="69.996787989512086" lon="22.03677898272872">
        <ele>28.02</ele>
        <time>2017-06-27T08:27:56Z</time>
      </trkpt>
      <trkpt lat="69.993596998974681" lon="22.040486969053745">
        <ele>22.25</ele>
        <time>2017-06-27T08:28:10Z</time>
      </trkpt>
      <trkpt lat="69.991264985874295" lon="22.042355965822935">
        <ele>16.960000000000001</ele>
        <time>2017-06-27T08:28:20Z</time>
      </trkpt>
      <trkpt lat="69.987920019775629" lon="22.043977025896311">
        <ele>14.56</ele>
        <time>2017-06-27T08:28:34Z</time>
      </trkpt>
      <trkpt lat="69.986062003299594" lon="22.043914999812841">
        <ele>15.039999999999999</ele>
        <time>2017-06-27T08:28:42Z</time>
      </trkpt>
      <trkpt lat="69.983988991007209" lon="22.043663961812854">
        <ele>14.56</ele>
        <time>2017-06-27T08:28:51Z</time>
      </trkpt>
      <trkpt lat="69.98169201426208" lon="22.041764035820961">
        <ele>16</ele>
        <time>2017-06-27T08:29:01Z</time>
      </trkpt>
      <trkpt lat="69.977240972220898" lon="22.038268027827144">
        <ele>15.52</ele>
        <time>2017-06-27T08:29:20Z</time>
      </trkpt>
      <trkpt lat="69.975731978192925" lon="22.037034966051579">
        <ele>16</ele>
        <time>2017-06-27T08:29:27Z</time>
      </trkpt>
      <trkpt lat="69.975559981539845" lon="22.036938993260264">
        <ele>16.48</ele>
        <time>2017-06-27T08:29:28Z</time>
      </trkpt>
      <trkpt lat="69.975394019857049" lon="22.036918038502336">
        <ele>16</ele>
        <time>2017-06-27T08:29:29Z</time>
      </trkpt>
      <trkpt lat="69.975230991840363" lon="22.036996996030211">
        <ele>16</ele>
        <time>2017-06-27T08:29:30Z</time>
      </trkpt>
      <trkpt lat="69.975058995187283" lon="22.037142002955079">
        <ele>15.52</ele>
        <time>2017-06-27T08:29:31Z</time>
      </trkpt>
      <trkpt lat="69.974876018241048" lon="22.037319028750062">
        <ele>15.039999999999999</ele>
        <time>2017-06-27T08:29:32Z</time>
      </trkpt>
      <trkpt lat="69.973390996456146" lon="22.038014978170395">
        <ele>15.039999999999999</ele>
        <time>2017-06-27T08:29:39Z</time>
      </trkpt>
      <trkpt lat="69.97157203964889" lon="22.038500038906932">
        <ele>14.56</ele>
        <time>2017-06-27T08:29:47Z</time>
      </trkpt>
      <trkpt lat="69.968833001330495" lon="22.038894994184375">
        <ele>13.6</ele>
        <time>2017-06-27T08:29:58Z</time>
      </trkpt>
      <trkpt lat="69.96405397541821" lon="22.039414001628757">
        <ele>24.649999999999999</ele>
        <time>2017-06-27T08:30:17Z</time>
      </trkpt>
      <trkpt lat="69.963409993797541" lon="22.039188025519252">
        <ele>26.57</ele>
        <time>2017-06-27T08:30:20Z</time>
      </trkpt>
      <trkpt lat="69.963205978274345" lon="22.038986021652818">
        <ele>27.050000000000001</ele>
        <time>2017-06-27T08:30:21Z</time>
      </trkpt>
      <trkpt lat="69.963004980236292" lon="22.038727020844817">
        <ele>28.02</ele>
        <time>2017-06-27T08:30:22Z</time>
      </trkpt>
      <trkpt lat="69.961804021149874" lon="22.03727200627327">
        <ele>30.899999999999999</ele>
        <time>2017-06-27T08:30:28Z</time>
      </trkpt>
      <trkpt lat="69.961391966789961" lon="22.037108978256583">
        <ele>31.379999999999999</ele>
        <time>2017-06-27T08:30:30Z</time>
      </trkpt>
      <trkpt lat="69.961179988458753" lon="22.037105960771441">
        <ele>31.379999999999999</ele>
        <time>2017-06-27T08:30:31Z</time>
      </trkpt>
      <trkpt lat="69.959236979484558" lon="22.037325985729694">
        <ele>27.050000000000001</ele>
        <time>2017-06-27T08:30:40Z</time>
      </trkpt>
      <trkpt lat="69.959033969789743" lon="22.037217020988464">
        <ele>26.57</ele>
        <time>2017-06-27T08:30:41Z</time>
      </trkpt>
      <trkpt lat="69.958835989236832" lon="22.037035971879959">
        <ele>26.09</ele>
        <time>2017-06-27T08:30:42Z</time>
      </trkpt>
      <trkpt lat="69.958644965663552" lon="22.036764984950423">
        <ele>25.609999999999999</ele>
        <time>2017-06-27T08:30:43Z</time>
      </trkpt>
      <trkpt lat="69.958462994545698" lon="22.036442030221224">
        <ele>25.129999999999999</ele>
        <time>2017-06-27T08:30:44Z</time>
      </trkpt>
      <trkpt lat="69.958289992064238" lon="22.036059983074665">
        <ele>25.129999999999999</ele>
        <time>2017-06-27T08:30:45Z</time>
      </trkpt>
      <trkpt lat="69.95812201872468" lon="22.035665027797222">
        <ele>25.129999999999999</ele>
        <time>2017-06-27T08:30:46Z</time>
      </trkpt>
      <trkpt lat="69.957642992958426" lon="22.034578984603286">
        <ele>24.649999999999999</ele>
        <time>2017-06-27T08:30:49Z</time>
      </trkpt>
      <trkpt lat="69.957472002133727" lon="22.034321995452046">
        <ele>24.170000000000002</ele>
        <time>2017-06-27T08:30:50Z</time>
      </trkpt>
      <trkpt lat="69.957289025187492" lon="22.034128038212657">
        <ele>23.210000000000001</ele>
        <time>2017-06-27T08:30:51Z</time>
      </trkpt>
      <trkpt lat="69.957100013270974" lon="22.034011026844382">
        <ele>22.25</ele>
        <time>2017-06-27T08:30:52Z</time>
      </trkpt>
      <trkpt lat="69.956905972212553" lon="22.033956041559577">
        <ele>20.809999999999999</ele>
        <time>2017-06-27T08:30:53Z</time>
      </trkpt>
      <trkpt lat="69.956706985831261" lon="22.033969033509493">
        <ele>19.84</ele>
        <time>2017-06-27T08:30:54Z</time>
      </trkpt>
      <trkpt lat="69.956509005278349" lon="22.034052014350891">
        <ele>18.399999999999999</ele>
        <time>2017-06-27T08:30:55Z</time>
      </trkpt>
      <trkpt lat="69.956311024725437" lon="22.034218981862068">
        <ele>16.960000000000001</ele>
        <time>2017-06-27T08:30:56Z</time>
      </trkpt>
      <trkpt lat="69.956108015030622" lon="22.034426014870405">
        <ele>15.039999999999999</ele>
        <time>2017-06-27T08:30:57Z</time>
      </trkpt>
      <trkpt lat="69.954840000718832" lon="22.035624962300062">
        <ele>10.710000000000001</ele>
        <time>2017-06-27T08:31:03Z</time>
      </trkpt>
      <trkpt lat="69.954637996852398" lon="22.03563803806901">
        <ele>11.19</ele>
        <time>2017-06-27T08:31:04Z</time>
      </trkpt>
      <trkpt lat="69.954430041834712" lon="22.03555497340858">
        <ele>12.15</ele>
        <time>2017-06-27T08:31:05Z</time>
      </trkpt>
      <trkpt lat="69.954218985512853" lon="22.035418013110757">
        <ele>12.630000000000001</ele>
        <time>2017-06-27T08:31:06Z</time>
      </trkpt>
      <trkpt lat="69.954007007181644" lon="22.035277029499412">
        <ele>13.6</ele>
        <time>2017-06-27T08:31:07Z</time>
      </trkpt>
      <trkpt lat="69.953795028850436" lon="22.035190025344491">
        <ele>14.08</ele>
        <time>2017-06-27T08:31:08Z</time>
      </trkpt>
      <trkpt lat="69.953581038862467" lon="22.035177033394575">
        <ele>15.039999999999999</ele>
        <time>2017-06-27T08:31:09Z</time>
      </trkpt>
      <trkpt lat="69.953368976712227" lon="22.035242998972535">
        <ele>15.039999999999999</ele>
        <time>2017-06-27T08:31:10Z</time>
      </trkpt>
      <trkpt lat="69.95315901003778" lon="22.03536101616919">
        <ele>15.52</ele>
        <time>2017-06-27T08:31:11Z</time>
      </trkpt>
      <trkpt lat="69.952950971201062" lon="22.035550028085709">
        <ele>16</ele>
        <time>2017-06-27T08:31:12Z</time>
      </trkpt>
      <trkpt lat="69.952743016183376" lon="22.035792013630271">
        <ele>16</ele>
        <time>2017-06-27T08:31:13Z</time>
      </trkpt>
      <trkpt lat="69.950685007497668" lon="22.039105966687202">
        <ele>11.67</ele>
        <time>2017-06-27T08:31:23Z</time>
      </trkpt>
      <trkpt lat="69.949059002101421" lon="22.042484041303396">
        <ele>9.27</ele>
        <time>2017-06-27T08:31:31Z</time>
      </trkpt>
      <trkpt lat="69.947717981413007" lon="22.045352999120951">
        <ele>10.710000000000001</ele>
        <time>2017-06-27T08:31:38Z</time>
      </trkpt>
      <trkpt lat="69.946606960147619" lon="22.04668203368783">
        <ele>14.08</ele>
        <time>2017-06-27T08:31:45Z</time>
      </trkpt>
      <trkpt lat="69.944464964792132" lon="22.048777006566525">
        <ele>13.6</ele>
        <time>2017-06-27T08:32:00Z</time>
      </trkpt>
      <trkpt lat="69.942379966378212" lon="22.050619013607502">
        <ele>11.19</ele>
        <time>2017-06-27T08:32:14Z</time>
      </trkpt>
      <trkpt lat="69.940993012860417" lon="22.051396016031504">
        <ele>12.630000000000001</ele>
        <time>2017-06-27T08:32:24Z</time>
      </trkpt>
      <trkpt lat="69.939549984410405" lon="22.051849979907274">
        <ele>14.08</ele>
        <time>2017-06-27T08:32:33Z</time>
      </trkpt>
      <trkpt lat="69.936759984120727" lon="22.052682973444462">
        <ele>17.920000000000002</ele>
        <time>2017-06-27T08:32:50Z</time>
      </trkpt>
      <trkpt lat="69.934440040960908" lon="22.053356962278485">
        <ele>20.809999999999999</ele>
        <time>2017-06-27T08:33:03Z</time>
      </trkpt>
      <trkpt lat="69.931753976270556" lon="22.054162966087461">
        <ele>36.670000000000002</ele>
        <time>2017-06-27T08:33:16Z</time>
      </trkpt>
      <trkpt lat="69.929194981232285" lon="22.055392004549503">
        <ele>48.68</ele>
        <time>2017-06-27T08:33:27Z</time>
      </trkpt>
      <trkpt lat="69.928994989022613" lon="22.055583028122783">
        <ele>49.159999999999997</ele>
        <time>2017-06-27T08:33:28Z</time>
      </trkpt>
      <trkpt lat="69.928806982934475" lon="22.055864995345473">
        <ele>50.130000000000003</ele>
        <time>2017-06-27T08:33:29Z</time>
      </trkpt>
      <trkpt lat="69.928631968796253" lon="22.056224998086691">
        <ele>51.090000000000003</ele>
        <time>2017-06-27T08:33:30Z</time>
      </trkpt>
      <trkpt lat="69.928476987406611" lon="22.056662030518055">
        <ele>52.049999999999997</ele>
        <time>2017-06-27T08:33:31Z</time>
      </trkpt>
      <trkpt lat="69.928339021280408" lon="22.057152958586812">
        <ele>53.009999999999998</ele>
        <time>2017-06-27T08:33:32Z</time>
      </trkpt>
      <trkpt lat="69.928212035447359" lon="22.057694010436535">
        <ele>53.490000000000002</ele>
        <time>2017-06-27T08:33:33Z</time>
      </trkpt>
      <trkpt lat="69.928088989108801" lon="22.058265991508961">
        <ele>54.450000000000003</ele>
        <time>2017-06-27T08:33:34Z</time>
      </trkpt>
      <trkpt lat="69.926574965938926" lon="22.064849976450205">
        <ele>66.469999999999999</ele>
        <time>2017-06-27T08:33:45Z</time>
      </trkpt>
      <trkpt lat="69.926158972084522" lon="22.06640699878335">
        <ele>71.760000000000005</ele>
        <time>2017-06-27T08:33:48Z</time>
      </trkpt>
      <trkpt lat="69.926061993464828" lon="22.066969005391002">
        <ele>73.680000000000007</ele>
        <time>2017-06-27T08:33:49Z</time>
      </trkpt>
      <trkpt lat="69.925984041765332" lon="22.067570993676782">
        <ele>76.079999999999998</ele>
        <time>2017-06-27T08:33:50Z</time>
      </trkpt>
      <trkpt lat="69.925926961004734" lon="22.068187985569239">
        <ele>78</ele>
        <time>2017-06-27T08:33:51Z</time>
      </trkpt>
      <trkpt lat="69.925886979326606" lon="22.068830961361527">
        <ele>79.930000000000007</ele>
        <time>2017-06-27T08:33:52Z</time>
      </trkpt>
      <trkpt lat="69.925279039889574" lon="22.073082011193037">
        <ele>89.540000000000006</ele>
        <time>2017-06-27T08:33:59Z</time>
      </trkpt>
      <trkpt lat="69.924195008352399" lon="22.075717030093074">
        <ele>93.870000000000005</ele>
        <time>2017-06-27T08:34:05Z</time>
      </trkpt>
      <trkpt lat="69.923062026500702" lon="22.076615989208221">
        <ele>101.08</ele>
        <time>2017-06-27T08:34:10Z</time>
      </trkpt>
      <trkpt lat="69.920460032299161" lon="22.076824028044939">
        <ele>103.95999999999999</ele>
        <time>2017-06-27T08:34:21Z</time>
      </trkpt>
      <trkpt lat="69.91829096339643" lon="22.076772982254624">
        <ele>105.40000000000001</ele>
        <time>2017-06-27T08:34:31Z</time>
      </trkpt>
      <trkpt lat="69.916369998827577" lon="22.07543003372848">
        <ele>101.08</ele>
        <time>2017-06-27T08:34:40Z</time>
      </trkpt>
      <trkpt lat="69.916194984689355" lon="22.075170027092099">
        <ele>101.08</ele>
        <time>2017-06-27T08:34:41Z</time>
      </trkpt>
      <trkpt lat="69.916027011349797" lon="22.074838019907475">
        <ele>101.56</ele>
        <time>2017-06-27T08:34:42Z</time>
      </trkpt>
      <trkpt lat="69.915875969454646" lon="22.074426971375942">
        <ele>101.56</ele>
        <time>2017-06-27T08:34:43Z</time>
      </trkpt>
      <trkpt lat="69.915750995278358" lon="22.073968984186649">
        <ele>101.56</ele>
        <time>2017-06-27T08:34:44Z</time>
      </trkpt>
      <trkpt lat="69.915650999173522" lon="22.073486018925905">
        <ele>102.04000000000001</ele>
        <time>2017-06-27T08:34:45Z</time>
      </trkpt>
      <trkpt lat="69.915583021938801" lon="22.072974974289536">
        <ele>103</ele>
        <time>2017-06-27T08:34:46Z</time>
      </trkpt>
      <trkpt lat="69.915532981976867" lon="22.072441969066858">
        <ele>103.95999999999999</ele>
        <time>2017-06-27T08:34:47Z</time>
      </trkpt>
      <trkpt lat="69.915504986420274" lon="22.071877028793097">
        <ele>104.92</ele>
        <time>2017-06-27T08:34:48Z</time>
      </trkpt>
      <trkpt lat="69.915486965328455" lon="22.071317033842206">
        <ele>104.92</ele>
        <time>2017-06-27T08:34:49Z</time>
      </trkpt>
      <trkpt lat="69.915426028892398" lon="22.07027398981154">
        <ele>103.95999999999999</ele>
        <time>2017-06-27T08:34:51Z</time>
      </trkpt>
      <trkpt lat="69.915364002808928" lon="22.069799993187189">
        <ele>103.48</ele>
        <time>2017-06-27T08:34:52Z</time>
      </trkpt>
      <trkpt lat="69.915276998654008" lon="22.06935097463429">
        <ele>103</ele>
        <time>2017-06-27T08:34:53Z</time>
      </trkpt>
      <trkpt lat="69.915168033912778" lon="22.068933974951506">
        <ele>103</ele>
        <time>2017-06-27T08:34:54Z</time>
      </trkpt>
      <trkpt lat="69.915034007281065" lon="22.068558968603611">
        <ele>103</ele>
        <time>2017-06-27T08:34:55Z</time>
      </trkpt>
      <trkpt lat="69.914881037548184" lon="22.068214975297451">
        <ele>102.52</ele>
        <time>2017-06-27T08:34:56Z</time>
      </trkpt>
      <trkpt lat="69.914713986217976" lon="22.067891014739871">
        <ele>102.52</ele>
        <time>2017-06-27T08:34:57Z</time>
      </trkpt>
      <trkpt lat="69.9127889983356" lon="22.064281012862921">
        <ele>104.92</ele>
        <time>2017-06-27T08:35:07Z</time>
      </trkpt>
      <trkpt lat="69.911570018157363" lon="22.061482965946198">
        <ele>107.31999999999999</ele>
        <time>2017-06-27T08:35:14Z</time>
      </trkpt>
      <trkpt lat="69.910565027967095" lon="22.058088965713978">
        <ele>106.36</ele>
        <time>2017-06-27T08:35:21Z</time>
      </trkpt>
      <trkpt lat="69.910478023812175" lon="22.057537017390132">
        <ele>106.36</ele>
        <time>2017-06-27T08:35:22Z</time>
      </trkpt>
      <trkpt lat="69.910413986071944" lon="22.056984985247254">
        <ele>106.36</ele>
        <time>2017-06-27T08:35:23Z</time>
      </trkpt>
      <trkpt lat="69.910366963595152" lon="22.056433958932757">
        <ele>105.88</ele>
        <time>2017-06-27T08:35:24Z</time>
      </trkpt>
      <trkpt lat="69.910331005230546" lon="22.055877987295389">
        <ele>105.88</ele>
        <time>2017-06-27T08:35:25Z</time>
      </trkpt>
      <trkpt lat="69.910312984138727" lon="22.055309023708105">
        <ele>105.40000000000001</ele>
        <time>2017-06-27T08:35:26Z</time>
      </trkpt>
      <trkpt lat="69.910299992188811" lon="22.054726984351873">
        <ele>104.92</ele>
        <time>2017-06-27T08:35:27Z</time>
      </trkpt>
      <trkpt lat="69.91029798053205" lon="22.054122984409332">
        <ele>104.44</ele>
        <time>2017-06-27T08:35:28Z</time>
      </trkpt>
      <trkpt lat="69.910067981109023" lon="22.048866022378206">
        <ele>107.31999999999999</ele>
        <time>2017-06-27T08:35:36Z</time>
      </trkpt>
      <trkpt lat="69.908847995102406" lon="22.038124026730657">
        <ele>109.25</ele>
        <time>2017-06-27T08:35:53Z</time>
      </trkpt>
      <trkpt lat="69.907424999400973" lon="22.032162984833121">
        <ele>127.98999999999999</ele>
        <time>2017-06-27T08:36:04Z</time>
      </trkpt>
      <trkpt lat="69.906853018328547" lon="22.03007304109633">
        <ele>135.68000000000001</ele>
        <time>2017-06-27T08:36:08Z</time>
      </trkpt>
      <trkpt lat="69.906683033332229" lon="22.029641037806869">
        <ele>137.13</ele>
        <time>2017-06-27T08:36:09Z</time>
      </trkpt>
      <trkpt lat="69.906499972566962" lon="22.029285980388522">
        <ele>139.05000000000001</ele>
        <time>2017-06-27T08:36:10Z</time>
      </trkpt>
      <trkpt lat="69.906305009499192" lon="22.028995966538787">
        <ele>140.49000000000001</ele>
        <time>2017-06-27T08:36:11Z</time>
      </trkpt>
      <trkpt lat="69.906109040603042" lon="22.028792034834623">
        <ele>141.93000000000001</ele>
        <time>2017-06-27T08:36:12Z</time>
      </trkpt>
      <trkpt lat="69.905920028686523" lon="22.028645016252995">
        <ele>143.37</ele>
        <time>2017-06-27T08:36:13Z</time>
      </trkpt>
      <trkpt lat="69.905737973749638" lon="22.028535967692733">
        <ele>144.81999999999999</ele>
        <time>2017-06-27T08:36:14Z</time>
      </trkpt>
      <trkpt lat="69.903693962842226" lon="22.026986991986632">
        <ele>160.19999999999999</ele>
        <time>2017-06-27T08:36:25Z</time>
      </trkpt>
      <trkpt lat="69.901993023231626" lon="22.024160027503967">
        <ele>174.62</ele>
        <time>2017-06-27T08:36:34Z</time>
      </trkpt>
      <trkpt lat="69.899220038205385" lon="22.017815010622144">
        <ele>199.13</ele>
        <time>2017-06-27T08:36:49Z</time>
      </trkpt>
      <trkpt lat="69.89658996462822" lon="22.011720025911927">
        <ele>217.88</ele>
        <time>2017-06-27T08:37:02Z</time>
      </trkpt>
      <trkpt lat="69.892556006088853" lon="22.002233974635601">
        <ele>246.72</ele>
        <time>2017-06-27T08:37:21Z</time>
      </trkpt>
      <trkpt lat="69.891832983121276" lon="21.998992022126913">
        <ele>255.37</ele>
        <time>2017-06-27T08:37:26Z</time>
      </trkpt>
      <trkpt lat="69.891298972070217" lon="21.99544102884829">
        <ele>264.98000000000002</ele>
        <time>2017-06-27T08:37:32Z</time>
      </trkpt>
      <trkpt lat="69.890985991805792" lon="21.993160983547568">
        <ele>270.26999999999998</ele>
        <time>2017-06-27T08:37:38Z</time>
      </trkpt>
      <trkpt lat="69.890519035980105" lon="21.989853987470269">
        <ele>272.67000000000002</ele>
        <time>2017-06-27T08:37:50Z</time>
      </trkpt>
      <trkpt lat="69.890071023255587" lon="21.987287029623985">
        <ele>266.89999999999998</ele>
        <time>2017-06-27T08:37:59Z</time>
      </trkpt>
      <trkpt lat="69.889984019100666" lon="21.987016964703798">
        <ele>265.45999999999998</ele>
        <time>2017-06-27T08:38:00Z</time>
      </trkpt>
      <trkpt lat="69.889110960066319" lon="21.985040009021759">
        <ele>256.81</ele>
        <time>2017-06-27T08:38:06Z</time>
      </trkpt>
      <trkpt lat="69.88814402371645" lon="21.982361990958452">
        <ele>246.22999999999999</ele>
        <time>2017-06-27T08:38:12Z</time>
      </trkpt>
      <trkpt lat="69.887091005221009" lon="21.979826968163252">
        <ele>236.13999999999999</ele>
        <time>2017-06-27T08:38:18Z</time>
      </trkpt>
      <trkpt lat="69.885851992294192" lon="21.977466037496924">
        <ele>224.61000000000001</ele>
        <time>2017-06-27T08:38:25Z</time>
      </trkpt>
      <trkpt lat="69.885677983984351" lon="21.977298986166716">
        <ele>223.16</ele>
        <time>2017-06-27T08:38:26Z</time>
      </trkpt>
      <trkpt lat="69.885495007038116" lon="21.977181974798441">
        <ele>221.72</ele>
        <time>2017-06-27T08:38:27Z</time>
      </trkpt>
      <trkpt lat="69.884054996073246" lon="21.976431962102652">
        <ele>210.66999999999999</ele>
        <time>2017-06-27T08:38:34Z</time>
      </trkpt>
      <trkpt lat="69.883479997515678" lon="21.975898034870625">
        <ele>205.86000000000001</ele>
        <time>2017-06-27T08:38:37Z</time>
      </trkpt>
      <trkpt lat="69.883300960063934" lon="21.975629981607199">
        <ele>204.41999999999999</ele>
        <time>2017-06-27T08:38:38Z</time>
      </trkpt>
      <trkpt lat="69.88279402256012" lon="21.974841998890042">
        <ele>200.56999999999999</ele>
        <time>2017-06-27T08:38:41Z</time>
      </trkpt>
      <trkpt lat="69.882621020078659" lon="21.974678970873356">
        <ele>199.13</ele>
        <time>2017-06-27T08:38:42Z</time>
      </trkpt>
      <trkpt lat="69.882448017597198" lon="21.974596995860338">
        <ele>197.69</ele>
        <time>2017-06-27T08:38:43Z</time>
      </trkpt>
      <trkpt lat="69.882277026772499" lon="21.974580986425281">
        <ele>196.72999999999999</ele>
        <time>2017-06-27T08:38:44Z</time>
      </trkpt>
      <trkpt lat="69.88210997544229" lon="21.974656004458666">
        <ele>195.28</ele>
        <time>2017-06-27T08:38:45Z</time>
      </trkpt>
      <trkpt lat="69.881948037073016" lon="21.974797993898392">
        <ele>194.31999999999999</ele>
        <time>2017-06-27T08:38:46Z</time>
      </trkpt>
      <trkpt lat="69.881779979914427" lon="21.974992034956813">
        <ele>192.88</ele>
        <time>2017-06-27T08:38:47Z</time>
      </trkpt>
      <trkpt lat="69.881609994918108" lon="21.975221028551459">
        <ele>191.44</ele>
        <time>2017-06-27T08:38:48Z</time>
      </trkpt>
      <trkpt lat="69.880693014711142" lon="21.976119987666607">
        <ele>184.71000000000001</ele>
        <time>2017-06-27T08:38:53Z</time>
      </trkpt>
      <trkpt lat="69.880501991137862" lon="21.976154018193483">
        <ele>183.27000000000001</ele>
        <time>2017-06-27T08:38:54Z</time>
      </trkpt>
      <trkpt lat="69.880309961736202" lon="21.976118981838226">
        <ele>181.83000000000001</ele>
        <time>2017-06-27T08:38:55Z</time>
      </trkpt>
      <trkpt lat="69.880119021981955" lon="21.976010017096996">
        <ele>180.38</ele>
        <time>2017-06-27T08:38:56Z</time>
      </trkpt>
      <trkpt lat="69.879930010065436" lon="21.975841959938407">
        <ele>178.94</ele>
        <time>2017-06-27T08:38:57Z</time>
      </trkpt>
      <trkpt lat="69.879734963178635" lon="21.97563299909234">
        <ele>177.5</ele>
        <time>2017-06-27T08:38:58Z</time>
      </trkpt>
      <trkpt lat="69.879536982625723" lon="21.975405011326075">
        <ele>176.53999999999999</ele>
        <time>2017-06-27T08:38:59Z</time>
      </trkpt>
      <trkpt lat="69.877941990271211" lon="21.974187958985567">
        <ele>165</ele>
        <time>2017-06-27T08:39:07Z</time>
      </trkpt>
      <trkpt lat="69.877376966178417" lon="21.974083017557859">
        <ele>160.68000000000001</ele>
        <time>2017-06-27T08:39:10Z</time>
      </trkpt>
      <trkpt lat="69.877192983403802" lon="21.974154012277722">
        <ele>159.24000000000001</ele>
        <time>2017-06-27T08:39:11Z</time>
      </trkpt>
      <trkpt lat="69.877012018114328" lon="21.974296001717448">
        <ele>157.31</ele>
        <time>2017-06-27T08:39:12Z</time>
      </trkpt>
      <trkpt lat="69.876837003976107" lon="21.974500017240644">
        <ele>155.87</ele>
        <time>2017-06-27T08:39:13Z</time>
      </trkpt>
      <trkpt lat="69.876677999272943" lon="21.974769998341799">
        <ele>153.94999999999999</ele>
        <time>2017-06-27T08:39:14Z</time>
      </trkpt>
      <trkpt lat="69.876540033146739" lon="21.975098988041282">
        <ele>152.50999999999999</ele>
        <time>2017-06-27T08:39:15Z</time>
      </trkpt>
      <trkpt lat="69.876425033435225" lon="21.975473994389176">
        <ele>150.58000000000001</ele>
        <time>2017-06-27T08:39:16Z</time>
      </trkpt>
      <trkpt lat="69.876340962946415" lon="21.975897029042244">
        <ele>148.66</ele>
        <time>2017-06-27T08:39:17Z</time>
      </trkpt>
      <trkpt lat="69.876292012631893" lon="21.976350992918015">
        <ele>147.22</ele>
        <time>2017-06-27T08:39:18Z</time>
      </trkpt>
      <trkpt lat="69.876277009025216" lon="21.976809985935688">
        <ele>145.78</ele>
        <time>2017-06-27T08:39:19Z</time>
      </trkpt>
      <trkpt lat="69.876293018460274" lon="21.977252969518304">
        <ele>144.34</ele>
        <time>2017-06-27T08:39:20Z</time>
      </trkpt>
      <trkpt lat="69.876336017623544" lon="21.97769301943481">
        <ele>143.37</ele>
        <time>2017-06-27T08:39:21Z</time>
      </trkpt>
      <trkpt lat="69.87641204148531" lon="21.978120999410748">
        <ele>141.44999999999999</ele>
        <time>2017-06-27T08:39:22Z</time>
      </trkpt>
      <trkpt lat="69.876512959599495" lon="21.978542022407055">
        <ele>140.00999999999999</ele>
        <time>2017-06-27T08:39:23Z</time>
      </trkpt>
      <trkpt lat="69.876619996502995" lon="21.978967990726233">
        <ele>138.09</ele>
        <time>2017-06-27T08:39:24Z</time>
      </trkpt>
      <trkpt lat="69.876918978989124" lon="21.980311023071408">
        <ele>133.75999999999999</ele>
        <time>2017-06-27T08:39:27Z</time>
      </trkpt>
      <trkpt lat="69.876972958445549" lon="21.980801029130816">
        <ele>132.31999999999999</ele>
        <time>2017-06-27T08:39:28Z</time>
      </trkpt>
      <trkpt lat="69.876998020336032" lon="21.981286006048322">
        <ele>130.88</ele>
        <time>2017-06-27T08:39:29Z</time>
      </trkpt>
      <trkpt lat="69.876985028386116" lon="21.981756985187531">
        <ele>129.43000000000001</ele>
        <time>2017-06-27T08:39:30Z</time>
      </trkpt>
      <trkpt lat="69.876942029222846" lon="21.982204997912049">
        <ele>127.98999999999999</ele>
        <time>2017-06-27T08:39:31Z</time>
      </trkpt>
      <trkpt lat="69.876868017017841" lon="21.98263700120151">
        <ele>126.06999999999999</ele>
        <time>2017-06-27T08:39:32Z</time>
      </trkpt>
      <trkpt lat="69.876769026741385" lon="21.98304302059114">
        <ele>125.11</ele>
        <time>2017-06-27T08:39:33Z</time>
      </trkpt>
      <trkpt lat="69.876643968746066" lon="21.983404029160738">
        <ele>123.67</ele>
        <time>2017-06-27T08:39:34Z</time>
      </trkpt>
      <trkpt lat="69.876495022326708" lon="21.983719021081924">
        <ele>122.22</ele>
        <time>2017-06-27T08:39:35Z</time>
      </trkpt>
      <trkpt lat="69.876326965168118" lon="21.983983973041177">
        <ele>121.26000000000001</ele>
        <time>2017-06-27T08:39:36Z</time>
      </trkpt>
      <trkpt lat="69.876138959079981" lon="21.984195029363036">
        <ele>119.81999999999999</ele>
        <time>2017-06-27T08:39:37Z</time>
      </trkpt>
      <trkpt lat="69.875937961041927" lon="21.984343975782394">
        <ele>118.86</ele>
        <time>2017-06-27T08:39:38Z</time>
      </trkpt>
      <trkpt lat="69.87572799436748" lon="21.984431985765696">
        <ele>117.90000000000001</ele>
        <time>2017-06-27T08:39:39Z</time>
      </trkpt>
      <trkpt lat="69.875506963580847" lon="21.984466016292572">
        <ele>116.45999999999999</ele>
        <time>2017-06-27T08:39:40Z</time>
      </trkpt>
      <trkpt lat="69.875282999128103" lon="21.98444196023047">
        <ele>115.01000000000001</ele>
        <time>2017-06-27T08:39:41Z</time>
      </trkpt>
      <trkpt lat="69.875057023018599" lon="21.984364008530974">
        <ele>113.56999999999999</ele>
        <time>2017-06-27T08:39:42Z</time>
      </trkpt>
      <trkpt lat="69.874827023595572" lon="21.98422696441412">
        <ele>112.13</ele>
        <time>2017-06-27T08:39:43Z</time>
      </trkpt>
      <trkpt lat="69.874603981152177" lon="21.984026972204447">
        <ele>110.69</ele>
        <time>2017-06-27T08:39:44Z</time>
      </trkpt>
      <trkpt lat="69.874378005042672" lon="21.983782975003123">
        <ele>109.25</ele>
        <time>2017-06-27T08:39:45Z</time>
      </trkpt>
      <trkpt lat="69.873474016785622" lon="21.9829570222646">
        <ele>103</ele>
        <time>2017-06-27T08:39:49Z</time>
      </trkpt>
      <trkpt lat="69.873252985998988" lon="21.982902036979795">
        <ele>101.56</ele>
        <time>2017-06-27T08:39:50Z</time>
      </trkpt>
      <trkpt lat="69.873042013496161" lon="21.982942018657923">
        <ele>100.11</ele>
        <time>2017-06-27T08:39:51Z</time>
      </trkpt>
      <trkpt lat="69.872841015458107" lon="21.983071016147733">
        <ele>98.670000000000002</ele>
        <time>2017-06-27T08:39:52Z</time>
      </trkpt>
      <trkpt lat="69.872657032683492" lon="21.983287017792463">
        <ele>97.230000000000004</ele>
        <time>2017-06-27T08:39:53Z</time>
      </trkpt>
      <trkpt lat="69.872492998838425" lon="21.983577031642199">
        <ele>95.790000000000006</ele>
        <time>2017-06-27T08:39:54Z</time>
      </trkpt>
      <trkpt lat="69.872342040762305" lon="21.983924964442849">
        <ele>94.349999999999994</ele>
        <time>2017-06-27T08:39:55Z</time>
      </trkpt>
      <trkpt lat="69.872199967503548" lon="21.984330983832479">
        <ele>92.900000000000006</ele>
        <time>2017-06-27T08:39:56Z</time>
      </trkpt>
      <trkpt lat="69.872066024690866" lon="21.98478695936501">
        <ele>91.459999999999994</ele>
        <time>2017-06-27T08:39:57Z</time>
      </trkpt>
      <trkpt lat="69.871940966695547" lon="21.985290963202715">
        <ele>90.019999999999996</ele>
        <time>2017-06-27T08:39:58Z</time>
      </trkpt>
      <trkpt lat="69.871815992519259" lon="21.985825980082154">
        <ele>88.099999999999994</ele>
        <time>2017-06-27T08:39:59Z</time>
      </trkpt>
      <trkpt lat="69.871060028672218" lon="21.989173963665962">
        <ele>76.079999999999998</ele>
        <time>2017-06-27T08:40:05Z</time>
      </trkpt>
      <trkpt lat="69.870904963463545" lon="21.98961996473372">
        <ele>74.159999999999997</ele>
        <time>2017-06-27T08:40:06Z</time>
      </trkpt>
      <trkpt lat="69.870731038972735" lon="21.989978961646557">
        <ele>72.719999999999999</ele>
        <time>2017-06-27T08:40:07Z</time>
      </trkpt>
      <trkpt lat="69.870544038712978" lon="21.990256989374757">
        <ele>71.269999999999996</ele>
        <time>2017-06-27T08:40:08Z</time>
      </trkpt>
      <trkpt lat="69.870342034846544" lon="21.990444995462894">
        <ele>69.349999999999994</ele>
        <time>2017-06-27T08:40:09Z</time>
      </trkpt>
      <trkpt lat="69.870133996009827" lon="21.990540968254209">
        <ele>67.909999999999997</ele>
        <time>2017-06-27T08:40:10Z</time>
      </trkpt>
      <trkpt lat="69.869917994365096" lon="21.99058597907424">
        <ele>66.469999999999999</ele>
        <time>2017-06-27T08:40:11Z</time>
      </trkpt>
      <trkpt lat="69.869696041569114" lon="21.990601988509297">
        <ele>65.030000000000001</ele>
        <time>2017-06-27T08:40:12Z</time>
      </trkpt>
      <trkpt lat="69.868826000019908" lon="21.990754958242178">
        <ele>58.299999999999997</ele>
        <time>2017-06-27T08:40:16Z</time>
      </trkpt>
      <trkpt lat="69.868620978668332" lon="21.990912035107613">
        <ele>56.859999999999999</ele>
        <time>2017-06-27T08:40:17Z</time>
      </trkpt>
      <trkpt lat="69.868420986458659" lon="21.991126025095582">
        <ele>54.93</ele>
        <time>2017-06-27T08:40:18Z</time>
      </trkpt>
      <trkpt lat="69.866368006914854" lon="21.994194975122809">
        <ele>38.109999999999999</ele>
        <time>2017-06-27T08:40:29Z</time>
      </trkpt>
      <trkpt lat="69.864608980715275" lon="21.99842699803412">
        <ele>23.210000000000001</ele>
        <time>2017-06-27T08:40:39Z</time>
      </trkpt>
      <trkpt lat="69.863084983080626" lon="22.002480989322066">
        <ele>14.56</ele>
        <time>2017-06-27T08:40:48Z</time>
      </trkpt>
      <trkpt lat="69.861857034265995" lon="22.004977036267519">
        <ele>9.75</ele>
        <time>2017-06-27T08:40:55Z</time>
      </trkpt>
      <trkpt lat="69.860161961987615" lon="22.008301969617605">
        <ele>7.83</ele>
        <time>2017-06-27T08:41:04Z</time>
      </trkpt>
      <trkpt lat="69.859979990869761" lon="22.008669013157487">
        <ele>7.83</ele>
        <time>2017-06-27T08:41:05Z</time>
      </trkpt>
      <trkpt lat="69.859803970903158" lon="22.009094981476665">
        <ele>7.83</ele>
        <time>2017-06-27T08:41:06Z</time>
      </trkpt>
      <trkpt lat="69.859643960371614" lon="22.009592028334737">
        <ele>8.310000000000001</ele>
        <time>2017-06-27T08:41:07Z</time>
      </trkpt>
      <trkpt lat="69.858288019895554" lon="22.012868011370301">
        <ele>11.19</ele>
        <time>2017-06-27T08:41:14Z</time>
      </trkpt>
      <trkpt lat="69.855590974912047" lon="22.018643980845809">
        <ele>14.08</ele>
        <time>2017-06-27T08:41:27Z</time>
      </trkpt>
      <trkpt lat="69.854279039427638" lon="22.021635985001922">
        <ele>12.15</ele>
        <time>2017-06-27T08:41:34Z</time>
      </trkpt>
      <trkpt lat="69.853649977594614" lon="22.023613024502993">
        <ele>10.710000000000001</ele>
        <time>2017-06-27T08:41:38Z</time>
      </trkpt>
      <trkpt lat="69.853471023961902" lon="22.023989958688617">
        <ele>10.23</ele>
        <time>2017-06-27T08:41:39Z</time>
      </trkpt>
      <trkpt lat="69.853281006217003" lon="22.024320038035512">
        <ele>9.75</ele>
        <time>2017-06-27T08:41:40Z</time>
      </trkpt>
      <trkpt lat="69.853080008178949" lon="22.02461801469326">
        <ele>9.75</ele>
        <time>2017-06-27T08:41:41Z</time>
      </trkpt>
      <trkpt lat="69.852871969342232" lon="22.024873998016119">
        <ele>9.27</ele>
        <time>2017-06-27T08:41:42Z</time>
      </trkpt>
      <trkpt lat="69.852655967697501" lon="22.025096034631133">
        <ele>9.27</ele>
        <time>2017-06-27T08:41:43Z</time>
      </trkpt>
      <trkpt lat="69.850810021162033" lon="22.026088032871485">
        <ele>9.27</ele>
        <time>2017-06-27T08:41:51Z</time>
      </trkpt>
      <trkpt lat="69.848755029961467" lon="22.027365015819669">
        <ele>7.35</ele>
        <time>2017-06-27T08:42:00Z</time>
      </trkpt>
      <trkpt lat="69.847816005349159" lon="22.027631979435682">
        <ele>7.35</ele>
        <time>2017-06-27T08:42:05Z</time>
      </trkpt>
      <trkpt lat="69.845966035500169" lon="22.027012975886464">
        <ele>10.710000000000001</ele>
        <time>2017-06-27T08:42:17Z</time>
      </trkpt>
      <trkpt lat="69.844398032873869" lon="22.024755980819464">
        <ele>11.19</ele>
        <time>2017-06-27T08:42:29Z</time>
      </trkpt>
      <trkpt lat="69.843641985207796" lon="22.022011997178197">
        <ele>8.789999999999999</ele>
        <time>2017-06-27T08:42:37Z</time>
      </trkpt>
      <trkpt lat="69.843034967780113" lon="22.018046015873551">
        <ele>8.310000000000001</ele>
        <time>2017-06-27T08:42:47Z</time>
      </trkpt>
      <trkpt lat="69.842170961201191" lon="22.015535971149802">
        <ele>7.35</ele>
        <time>2017-06-27T08:42:55Z</time>
      </trkpt>
      <trkpt lat="69.8416109662503" lon="22.013966962695122">
        <ele>6.87</ele>
        <time>2017-06-27T08:43:00Z</time>
      </trkpt>
      <trkpt lat="69.841529997065663" lon="22.013571001589298">
        <ele>6.87</ele>
        <time>2017-06-27T08:43:01Z</time>
      </trkpt>
      <trkpt lat="69.841469982638955" lon="22.013150984421372">
        <ele>6.39</ele>
        <time>2017-06-27T08:43:02Z</time>
      </trkpt>
      <trkpt lat="69.841430000960827" lon="22.012701965868473">
        <ele>6.87</ele>
        <time>2017-06-27T08:43:03Z</time>
      </trkpt>
      <trkpt lat="69.841410974040627" lon="22.012236015871167">
        <ele>6.39</ele>
        <time>2017-06-27T08:43:04Z</time>
      </trkpt>
      <trkpt lat="69.841409968212247" lon="22.011751038953662">
        <ele>6.39</ele>
        <time>2017-06-27T08:43:05Z</time>
      </trkpt>
      <trkpt lat="69.841424971818924" lon="22.011265978217125">
        <ele>6.39</ele>
        <time>2017-06-27T08:43:06Z</time>
      </trkpt>
      <trkpt lat="69.84145799651742" lon="22.010778989642859">
        <ele>6.87</ele>
        <time>2017-06-27T08:43:07Z</time>
      </trkpt>
      <trkpt lat="69.841505018994212" lon="22.010295018553734">
        <ele>6.87</ele>
        <time>2017-06-27T08:43:08Z</time>
      </trkpt>
      <trkpt lat="69.84156503342092" lon="22.009797971695662">
        <ele>6.87</ele>
        <time>2017-06-27T08:43:09Z</time>
      </trkpt>
      <trkpt lat="69.842001982033253" lon="22.006175983697176">
        <ele>9.27</ele>
        <time>2017-06-27T08:43:16Z</time>
      </trkpt>
      <trkpt lat="69.842024026438594" lon="22.005609031766653">
        <ele>10.23</ele>
        <time>2017-06-27T08:43:17Z</time>
      </trkpt>
      <trkpt lat="69.842022014781833" lon="22.005038978531957">
        <ele>11.19</ele>
        <time>2017-06-27T08:43:18Z</time>
      </trkpt>
      <trkpt lat="69.84199795871973" lon="22.00446498580277">
        <ele>11.67</ele>
        <time>2017-06-27T08:43:19Z</time>
      </trkpt>
      <trkpt lat="69.841956971213222" lon="22.003895016387105">
        <ele>12.630000000000001</ele>
        <time>2017-06-27T08:43:20Z</time>
      </trkpt>
      <trkpt lat="69.8419080208987" lon="22.003314988687634">
        <ele>13.119999999999999</ele>
        <time>2017-06-27T08:43:21Z</time>
      </trkpt>
      <trkpt lat="69.841624964028597" lon="21.998204961419106">
        <ele>21.289999999999999</ele>
        <time>2017-06-27T08:43:29Z</time>
      </trkpt>
      <trkpt lat="69.841404017060995" lon="21.994174020364881">
        <ele>28.5</ele>
        <time>2017-06-27T08:43:36Z</time>
      </trkpt>
      <trkpt lat="69.841320030391216" lon="21.993738999590278">
        <ele>29.460000000000001</ele>
        <time>2017-06-27T08:43:37Z</time>
      </trkpt>
      <trkpt lat="69.841213999316096" lon="21.993317976593971">
        <ele>29.940000000000001</ele>
        <time>2017-06-27T08:43:38Z</time>
      </trkpt>
      <trkpt lat="69.841092964634299" lon="21.992925032973289">
        <ele>30.420000000000002</ele>
        <time>2017-06-27T08:43:39Z</time>
      </trkpt>
      <trkpt lat="69.840960027649999" lon="21.992529993876815">
        <ele>30.420000000000002</ele>
        <time>2017-06-27T08:43:40Z</time>
      </trkpt>
      <trkpt lat="69.840174978598952" lon="21.989289969205856">
        <ele>28.98</ele>
        <time>2017-06-27T08:43:46Z</time>
      </trkpt>
      <trkpt lat="69.839037973433733" lon="21.982523007318377">
        <ele>25.609999999999999</ele>
        <time>2017-06-27T08:43:56Z</time>
      </trkpt>
      <trkpt lat="69.838681994006038" lon="21.976713007315993">
        <ele>21.77</ele>
        <time>2017-06-27T08:44:05Z</time>
      </trkpt>
      <trkpt lat="69.838700015097857" lon="21.970661021769047">
        <ele>16.960000000000001</ele>
        <time>2017-06-27T08:44:14Z</time>
      </trkpt>
      <trkpt lat="69.838636983186007" lon="21.964475009590387">
        <ele>12.630000000000001</ele>
        <time>2017-06-27T08:44:23Z</time>
      </trkpt>
      <trkpt lat="69.838702026754618" lon="21.959944004192948">
        <ele>14.56</ele>
        <time>2017-06-27T08:44:30Z</time>
      </trkpt>
      <trkpt lat="69.838658021762967" lon="21.959369005635381">
        <ele>15.039999999999999</ele>
        <time>2017-06-27T08:44:31Z</time>
      </trkpt>
      <trkpt lat="69.83860001899302" lon="21.958814961835742">
        <ele>15.039999999999999</ele>
        <time>2017-06-27T08:44:32Z</time>
      </trkpt>
      <trkpt lat="69.838527012616396" lon="21.958279022946954">
        <ele>15.039999999999999</ele>
        <time>2017-06-27T08:44:33Z</time>
      </trkpt>
      <trkpt lat="69.838435985147953" lon="21.957758003845811">
        <ele>15.039999999999999</ele>
        <time>2017-06-27T08:44:34Z</time>
      </trkpt>
      <trkpt lat="69.838335989043117" lon="21.957247965037823">
        <ele>14.56</ele>
        <time>2017-06-27T08:44:35Z</time>
      </trkpt>
      <trkpt lat="69.83774196356535" lon="21.95264495909214">
        <ele>11.19</ele>
        <time>2017-06-27T08:44:43Z</time>
      </trkpt>
      <trkpt lat="69.837899962440133" lon="21.948790960013866">
        <ele>14.08</ele>
        <time>2017-06-27T08:44:49Z</time>
      </trkpt>
      <trkpt lat="69.838633965700865" lon="21.942962016910315">
        <ele>14.08</ele>
        <time>2017-06-27T08:44:58Z</time>
      </trkpt>
      <trkpt lat="69.839707016944885" lon="21.938105039298534">
        <ele>10.710000000000001</ele>
        <time>2017-06-27T08:45:06Z</time>
      </trkpt>
      <trkpt lat="69.840847039595246" lon="21.935675041750073">
        <ele>9.27</ele>
        <time>2017-06-27T08:45:12Z</time>
      </trkpt>
      <trkpt lat="69.842074988409877" lon="21.933094002306461">
        <ele>10.23</ele>
        <time>2017-06-27T08:45:19Z</time>
      </trkpt>
      <trkpt lat="69.842757023870945" lon="21.929786000400782">
        <ele>10.23</ele>
        <time>2017-06-27T08:45:25Z</time>
      </trkpt>
      <trkpt lat="69.842932038009167" lon="21.92563695833087">
        <ele>10.23</ele>
        <time>2017-06-27T08:45:31Z</time>
      </trkpt>
      <trkpt lat="69.842502968385816" lon="21.919006034731865">
        <ele>13.119999999999999</ele>
        <time>2017-06-27T08:45:40Z</time>
      </trkpt>
      <trkpt lat="69.841912966221571" lon="21.913680005818605">
        <ele>16.48</ele>
        <time>2017-06-27T08:45:48Z</time>
      </trkpt>
      <trkpt lat="69.841496972367167" lon="21.911802040413022">
        <ele>14.08</ele>
        <time>2017-06-27T08:45:53Z</time>
      </trkpt>
      <trkpt lat="69.840441020205617" lon="21.908414997160435">
        <ele>11.67</ele>
        <time>2017-06-27T08:46:01Z</time>
      </trkpt>
      <trkpt lat="69.839119026437402" lon="21.903761029243469">
        <ele>12.15</ele>
        <time>2017-06-27T08:46:11Z</time>
      </trkpt>
      <trkpt lat="69.838776960968971" lon="21.900042984634638">
        <ele>14.56</ele>
        <time>2017-06-27T08:46:18Z</time>
      </trkpt>
      <trkpt lat="69.838940994814038" lon="21.896554017439485">
        <ele>16.960000000000001</ele>
        <time>2017-06-27T08:46:25Z</time>
      </trkpt>
      <trkpt lat="69.839633004739881" lon="21.892411010339856">
        <ele>12.630000000000001</ele>
        <time>2017-06-27T08:46:33Z</time>
      </trkpt>
      <trkpt lat="69.840230969712138" lon="21.887780008837581">
        <ele>11.19</ele>
        <time>2017-06-27T08:46:41Z</time>
      </trkpt>
      <trkpt lat="69.840933959931135" lon="21.87647701241076">
        <ele>2.06</ele>
        <time>2017-06-27T08:46:59Z</time>
      </trkpt>
      <trkpt lat="69.840870006009936" lon="21.870617978274822">
        <ele>4.94</ele>
        <time>2017-06-27T08:47:08Z</time>
      </trkpt>
      <trkpt lat="69.840991962701082" lon="21.866285037249327">
        <ele>5.91</ele>
        <time>2017-06-27T08:47:15Z</time>
      </trkpt>
      <trkpt lat="69.841814981773496" lon="21.859541041776538">
        <ele>7.83</ele>
        <time>2017-06-27T08:47:26Z</time>
      </trkpt>
      <trkpt lat="69.841863010078669" lon="21.854978017508984">
        <ele>9.27</ele>
        <time>2017-06-27T08:47:33Z</time>
      </trkpt>
      <trkpt lat="69.841826967895031" lon="21.847903020679951">
        <ele>14.08</ele>
        <time>2017-06-27T08:47:44Z</time>
      </trkpt>
      <trkpt lat="69.842136008664966" lon="21.840872028842568">
        <ele>16.960000000000001</ele>
        <time>2017-06-27T08:47:54Z</time>
      </trkpt>
      <trkpt lat="69.842794993892312" lon="21.835239976644516">
        <ele>21.77</ele>
        <time>2017-06-27T08:48:02Z</time>
      </trkpt>
      <trkpt lat="69.843869972974062" lon="21.827375991269946">
        <ele>38.109999999999999</ele>
        <time>2017-06-27T08:48:14Z</time>
      </trkpt>
      <trkpt lat="69.844239028170705" lon="21.822279961779714">
        <ele>47.719999999999999</ele>
        <time>2017-06-27T08:48:22Z</time>
      </trkpt>
      <trkpt lat="69.844338018447161" lon="21.821700017899275">
        <ele>47.719999999999999</ele>
        <time>2017-06-27T08:48:23Z</time>
      </trkpt>
      <trkpt lat="69.844457041472197" lon="21.821122001856565">
        <ele>48.68</ele>
        <time>2017-06-27T08:48:24Z</time>
      </trkpt>
      <trkpt lat="69.844596013426781" lon="21.820574998855591">
        <ele>49.159999999999997</ele>
        <time>2017-06-27T08:48:25Z</time>
      </trkpt>
      <trkpt lat="69.844754012301564" lon="21.820053979754448">
        <ele>49.649999999999999</ele>
        <time>2017-06-27T08:48:26Z</time>
      </trkpt>
      <trkpt lat="69.844931960105896" lon="21.819583000615239">
        <ele>49.649999999999999</ele>
        <time>2017-06-27T08:48:27Z</time>
      </trkpt>
      <trkpt lat="69.84513103030622" lon="21.819172035902739">
        <ele>49.649999999999999</ele>
        <time>2017-06-27T08:48:28Z</time>
      </trkpt>
      <trkpt lat="69.845343008637428" lon="21.818799963220954">
        <ele>49.649999999999999</ele>
        <time>2017-06-27T08:48:29Z</time>
      </trkpt>
      <trkpt lat="69.845564961433411" lon="21.818450018763542">
        <ele>49.159999999999997</ele>
        <time>2017-06-27T08:48:30Z</time>
      </trkpt>
      <trkpt lat="69.848208026960492" lon="21.814659973606467">
        <ele>50.609999999999999</ele>
        <time>2017-06-27T08:48:41Z</time>
      </trkpt>
      <trkpt lat="69.852355979382992" lon="21.808711001649499">
        <ele>47.240000000000002</ele>
        <time>2017-06-27T08:48:58Z</time>
      </trkpt>
      <trkpt lat="69.8554000351578" lon="21.804389040917158">
        <ele>58.299999999999997</ele>
        <time>2017-06-27T08:49:11Z</time>
      </trkpt>
      <trkpt lat="69.856769973412156" lon="21.802085023373365">
        <ele>59.259999999999998</ele>
        <time>2017-06-27T08:49:18Z</time>
      </trkpt>
      <trkpt lat="69.857799019664526" lon="21.799940010532737">
        <ele>59.259999999999998</ele>
        <time>2017-06-27T08:49:24Z</time>
      </trkpt>
      <trkpt lat="69.857941009104252" lon="21.799747981131077">
        <ele>59.259999999999998</ele>
        <time>2017-06-27T08:49:25Z</time>
      </trkpt>
      <trkpt lat="69.8580870218575" lon="21.799641028046608">
        <ele>59.259999999999998</ele>
        <time>2017-06-27T08:49:26Z</time>
      </trkpt>
      <trkpt lat="69.858242003247142" lon="21.799618983641267">
        <ele>59.259999999999998</ele>
        <time>2017-06-27T08:49:27Z</time>
      </trkpt>
      <trkpt lat="69.858394972980022" lon="21.799663994461298">
        <ele>59.259999999999998</ele>
        <time>2017-06-27T08:49:28Z</time>
      </trkpt>
      <trkpt lat="69.858537968248129" lon="21.799768013879657">
        <ele>59.740000000000002</ele>
        <time>2017-06-27T08:49:29Z</time>
      </trkpt>
      <trkpt lat="69.858675012364984" lon="21.799922995269299">
        <ele>59.740000000000002</ele>
        <time>2017-06-27T08:49:30Z</time>
      </trkpt>
      <trkpt lat="69.858795963227749" lon="21.800135979428887">
        <ele>59.740000000000002</ele>
        <time>2017-06-27T08:49:31Z</time>
      </trkpt>
      <trkpt lat="69.858910962939262" lon="21.800389029085636">
        <ele>60.700000000000003</ele>
        <time>2017-06-27T08:49:32Z</time>
      </trkpt>
      <trkpt lat="69.859015988186002" lon="21.800664961338043">
        <ele>60.700000000000003</ele>
        <time>2017-06-27T08:49:33Z</time>
      </trkpt>
      <trkpt lat="69.859551005065441" lon="21.802048981189728">
        <ele>59.740000000000002</ele>
        <time>2017-06-27T08:49:38Z</time>
      </trkpt>
      <trkpt lat="69.859682014212012" lon="21.802250985056162">
        <ele>59.259999999999998</ele>
        <time>2017-06-27T08:49:39Z</time>
      </trkpt>
      <trkpt lat="69.859819980338216" lon="21.80239599198103">
        <ele>58.299999999999997</ele>
        <time>2017-06-27T08:49:40Z</time>
      </trkpt>
      <trkpt lat="69.859962975606322" lon="21.802496993914247">
        <ele>57.82</ele>
        <time>2017-06-27T08:49:41Z</time>
      </trkpt>
      <trkpt lat="69.860106976702809" lon="21.802531024441123">
        <ele>56.859999999999999</ele>
        <time>2017-06-27T08:49:42Z</time>
      </trkpt>
      <trkpt lat="69.860251983627677" lon="21.802496993914247">
        <ele>55.890000000000001</ele>
        <time>2017-06-27T08:49:43Z</time>
      </trkpt>
      <trkpt lat="69.860402019694448" lon="21.80239699780941">
        <ele>54.93</ele>
        <time>2017-06-27T08:49:44Z</time>
      </trkpt>
      <trkpt lat="69.860561024397612" lon="21.80222500115633">
        <ele>54.450000000000003</ele>
        <time>2017-06-27T08:49:45Z</time>
      </trkpt>
      <trkpt lat="69.860728997737169" lon="21.802001958712935">
        <ele>53.969999999999999</ele>
        <time>2017-06-27T08:49:46Z</time>
      </trkpt>
      <trkpt lat="69.862481988966465" lon="21.799465008080006">
        <ele>55.890000000000001</ele>
        <time>2017-06-27T08:49:55Z</time>
      </trkpt>
      <trkpt lat="69.865200994536281" lon="21.795099964365363">
        <ele>60.700000000000003</ele>
        <time>2017-06-27T08:50:08Z</time>
      </trkpt>
      <trkpt lat="69.867036966606975" lon="21.790513973683119">
        <ele>56.859999999999999</ele>
        <time>2017-06-27T08:50:18Z</time>
      </trkpt>
      <trkpt lat="69.869721019640565" lon="21.783028012141585">
        <ele>57.82</ele>
        <time>2017-06-27T08:50:33Z</time>
      </trkpt>
      <trkpt lat="69.871980026364326" lon="21.775787975639105">
        <ele>56.369999999999997</ele>
        <time>2017-06-27T08:50:46Z</time>
      </trkpt>
      <trkpt lat="69.873893028125167" lon="21.770314006134868">
        <ele>56.369999999999997</ele>
        <time>2017-06-27T08:50:57Z</time>
      </trkpt>
      <trkpt lat="69.875159030780196" lon="21.766979014500976">
        <ele>60.219999999999999</ele>
        <time>2017-06-27T08:51:04Z</time>
      </trkpt>
      <trkpt lat="69.876804985105991" lon="21.7630560323596">
        <ele>60.700000000000003</ele>
        <time>2017-06-27T08:51:13Z</time>
      </trkpt>
      <trkpt lat="69.878361001610756" lon="21.75751400180161">
        <ele>46.280000000000001</ele>
        <time>2017-06-27T08:51:23Z</time>
      </trkpt>
      <trkpt lat="69.879236994311213" lon="21.755331018939614">
        <ele>45.32</ele>
        <time>2017-06-27T08:51:28Z</time>
      </trkpt>
      <trkpt lat="69.879372026771307" lon="21.75485098734498">
        <ele>44.359999999999999</ele>
        <time>2017-06-27T08:51:29Z</time>
      </trkpt>
      <trkpt lat="69.879490965977311" lon="21.754338014870882">
        <ele>42.920000000000002</ele>
        <time>2017-06-27T08:51:30Z</time>
      </trkpt>
      <trkpt lat="69.879588028416038" lon="21.753781959414482">
        <ele>41.950000000000003</ele>
        <time>2017-06-27T08:51:31Z</time>
      </trkpt>
      <trkpt lat="69.879664974287152" lon="21.753197992220521">
        <ele>40.030000000000001</ele>
        <time>2017-06-27T08:51:32Z</time>
      </trkpt>
      <trkpt lat="69.879721971228719" lon="21.752586029469967">
        <ele>38.590000000000003</ele>
        <time>2017-06-27T08:51:33Z</time>
      </trkpt>
      <trkpt lat="69.879763964563608" lon="21.751946993172169">
        <ele>37.149999999999999</ele>
        <time>2017-06-27T08:51:34Z</time>
      </trkpt>
      <trkpt lat="69.879785003140569" lon="21.751300999894738">
        <ele>35.710000000000001</ele>
        <time>2017-06-27T08:51:35Z</time>
      </trkpt>
      <trkpt lat="69.879785003140569" lon="21.750644026324153">
        <ele>34.259999999999998</ele>
        <time>2017-06-27T08:51:36Z</time>
      </trkpt>
      <trkpt lat="69.879765976220369" lon="21.749981017783284">
        <ele>32.340000000000003</ele>
        <time>2017-06-27T08:51:37Z</time>
      </trkpt>
      <trkpt lat="69.879732029512525" lon="21.749309962615371">
        <ele>30.899999999999999</ele>
        <time>2017-06-27T08:51:38Z</time>
      </trkpt>
      <trkpt lat="69.879606971517205" lon="21.745949992910028">
        <ele>26.09</ele>
        <time>2017-06-27T08:51:43Z</time>
      </trkpt>
      <trkpt lat="69.879629015922546" lon="21.745303999632597">
        <ele>25.129999999999999</ele>
        <time>2017-06-27T08:51:44Z</time>
      </trkpt>
      <trkpt lat="69.879672015085816" lon="21.744659012183547">
        <ele>24.649999999999999</ele>
        <time>2017-06-27T08:51:45Z</time>
      </trkpt>
      <trkpt lat="69.879734041169286" lon="21.744023999199271">
        <ele>23.210000000000001</ele>
        <time>2017-06-27T08:51:46Z</time>
      </trkpt>
      <trkpt lat="69.879808975383639" lon="21.743381023406982">
        <ele>22.25</ele>
        <time>2017-06-27T08:51:47Z</time>
      </trkpt>
      <trkpt lat="69.880833998322487" lon="21.735146977007389">
        <ele>7.35</ele>
        <time>2017-06-27T08:51:59Z</time>
      </trkpt>
      <trkpt lat="69.882077034562826" lon="21.725125992670655">
        <ele>21.77</ele>
        <time>2017-06-27T08:52:14Z</time>
      </trkpt>
      <trkpt lat="69.882855964824557" lon="21.717158993706107">
        <ele>43.399999999999999</ele>
        <time>2017-06-27T08:52:26Z</time>
      </trkpt>
      <trkpt lat="69.883478991687298" lon="21.713283034041524">
        <ele>53.490000000000002</ele>
        <time>2017-06-27T08:52:33Z</time>
      </trkpt>
      <trkpt lat="69.883688958361745" lon="21.709767999127507">
        <ele>61.18</ele>
        <time>2017-06-27T08:52:39Z</time>
      </trkpt>
      <trkpt lat="69.883721983060241" lon="21.705480990931392">
        <ele>71.269999999999996</ele>
        <time>2017-06-27T08:52:46Z</time>
      </trkpt>
      <trkpt lat="69.883931027725339" lon="21.702408017590642">
        <ele>78</ele>
        <time>2017-06-27T08:52:51Z</time>
      </trkpt>
      <trkpt lat="69.884005961939692" lon="21.701836958527565">
        <ele>79.450000000000003</ele>
        <time>2017-06-27T08:52:52Z</time>
      </trkpt>
      <trkpt lat="69.884112998843193" lon="21.701303031295538">
        <ele>81.370000000000005</ele>
        <time>2017-06-27T08:52:53Z</time>
      </trkpt>
      <trkpt lat="69.884238978847861" lon="21.700788969174027">
        <ele>82.810000000000002</ele>
        <time>2017-06-27T08:52:54Z</time>
      </trkpt>
      <trkpt lat="69.884377028793097" lon="21.700294017791748">
        <ele>84.730000000000004</ele>
        <time>2017-06-27T08:52:55Z</time>
      </trkpt>
      <trkpt lat="69.885141039267182" lon="21.697489013895392">
        <ele>93.390000000000001</ele>
        <time>2017-06-27T08:53:01Z</time>
      </trkpt>
      <trkpt lat="69.885208010673523" lon="21.6970310267061">
        <ele>94.349999999999994</ele>
        <time>2017-06-27T08:53:02Z</time>
      </trkpt>
      <trkpt lat="69.885251009836793" lon="21.696557030081749">
        <ele>95.310000000000002</ele>
        <time>2017-06-27T08:53:03Z</time>
      </trkpt>
      <trkpt lat="69.885268025100231" lon="21.696060989052057">
        <ele>95.790000000000006</ele>
        <time>2017-06-27T08:53:04Z</time>
      </trkpt>
      <trkpt lat="69.885257966816425" lon="21.695565031841397">
        <ele>96.75</ele>
        <time>2017-06-27T08:53:05Z</time>
      </trkpt>
      <trkpt lat="69.885219996795058" lon="21.695060022175312">
        <ele>97.709999999999994</ele>
        <time>2017-06-27T08:53:06Z</time>
      </trkpt>
      <trkpt lat="69.885154031217098" lon="21.694549983367324">
        <ele>98.670000000000002</ele>
        <time>2017-06-27T08:53:07Z</time>
      </trkpt>
      <trkpt lat="69.885067027062178" lon="21.694041034206748">
        <ele>99.150000000000006</ele>
        <time>2017-06-27T08:53:08Z</time>
      </trkpt>
      <trkpt lat="69.884968036785722" lon="21.693507023155689">
        <ele>100.11</ele>
        <time>2017-06-27T08:53:09Z</time>
      </trkpt>
      <trkpt lat="69.884705012664199" lon="21.691828966140747">
        <ele>103.95999999999999</ele>
        <time>2017-06-27T08:53:12Z</time>
      </trkpt>
      <trkpt lat="69.884653966873884" lon="21.691233012825251">
        <ele>105.40000000000001</ele>
        <time>2017-06-27T08:53:13Z</time>
      </trkpt>
      <trkpt lat="69.88462102599442" lon="21.690633036196232">
        <ele>106.84</ele>
        <time>2017-06-27T08:53:14Z</time>
      </trkpt>
      <trkpt lat="69.884619014337659" lon="21.68835399672389">
        <ele>112.61</ele>
        <time>2017-06-27T08:53:18Z</time>
      </trkpt>
      <trkpt lat="69.88466402515769" lon="21.68788100592792">
        <ele>113.56999999999999</ele>
        <time>2017-06-27T08:53:19Z</time>
      </trkpt>
      <trkpt lat="69.884732002392411" lon="21.687483033165336">
        <ele>115.5</ele>
        <time>2017-06-27T08:53:20Z</time>
      </trkpt>
      <trkpt lat="69.884816994890571" lon="21.687163012102246">
        <ele>116.45999999999999</ele>
        <time>2017-06-27T08:53:21Z</time>
      </trkpt>
      <trkpt lat="69.884911039844155" lon="21.686909962445498">
        <ele>117.42</ele>
        <time>2017-06-27T08:53:22Z</time>
      </trkpt>
      <trkpt lat="69.885013969615102" lon="21.686690021306276">
        <ele>118.38</ele>
        <time>2017-06-27T08:53:23Z</time>
      </trkpt>
      <trkpt lat="69.885115977376699" lon="21.686501009389758">
        <ele>119.34</ele>
        <time>2017-06-27T08:53:24Z</time>
      </trkpt>
      <trkpt lat="69.885382018983364" lon="21.685991976410151">
        <ele>122.22</ele>
        <time>2017-06-27T08:53:27Z</time>
      </trkpt>
      <trkpt lat="69.885443039238453" lon="21.685817968100309">
        <ele>122.22</ele>
        <time>2017-06-27T08:53:28Z</time>
      </trkpt>
      <trkpt lat="69.885490983724594" lon="21.685661980882287">
        <ele>122.70999999999999</ele>
        <time>2017-06-27T08:53:29Z</time>
      </trkpt>
      <trkpt lat="69.885528031736612" lon="21.685513034462929">
        <ele>123.19</ele>
        <time>2017-06-27T08:53:30Z</time>
      </trkpt>
      <trkpt lat="69.885561978444457" lon="21.685339026153088">
        <ele>123.67</ele>
        <time>2017-06-27T08:53:31Z</time>
      </trkpt>
      <trkpt lat="69.88558997400105" lon="21.685136016458273">
        <ele>124.15000000000001</ele>
        <time>2017-06-27T08:53:32Z</time>
      </trkpt>
      <trkpt lat="69.885609000921249" lon="21.684908028692007">
        <ele>124.63</ele>
        <time>2017-06-27T08:53:33Z</time>
      </trkpt>
      <trkpt lat="69.885612018406391" lon="21.684667970985174">
        <ele>125.11</ele>
        <time>2017-06-27T08:53:34Z</time>
      </trkpt>
      <trkpt lat="69.885612018406391" lon="21.684413999319077">
        <ele>125.59</ele>
        <time>2017-06-27T08:53:35Z</time>
      </trkpt>
      <trkpt lat="69.885600032284856" lon="21.68418500572443">
        <ele>126.55</ele>
        <time>2017-06-27T08:53:36Z</time>
      </trkpt>
      <trkpt lat="69.885581005364656" lon="21.683962969109416">
        <ele>127.03</ele>
        <time>2017-06-27T08:53:37Z</time>
      </trkpt>
      <trkpt lat="69.885547980666161" lon="21.683739004656672">
        <ele>127.98999999999999</ele>
        <time>2017-06-27T08:53:38Z</time>
      </trkpt>
      <trkpt lat="69.885491989552975" lon="21.683505987748504">
        <ele>128.47</ele>
        <time>2017-06-27T08:53:39Z</time>
      </trkpt>
      <trkpt lat="69.885414037853479" lon="21.683271965011954">
        <ele>129.43000000000001</ele>
        <time>2017-06-27T08:53:40Z</time>
      </trkpt>
      <trkpt lat="69.885315969586372" lon="21.683031991124153">
        <ele>130.88</ele>
        <time>2017-06-27T08:53:41Z</time>
      </trkpt>
      <trkpt lat="69.885199964046478" lon="21.682804003357887">
        <ele>132.80000000000001</ele>
        <time>2017-06-27T08:53:42Z</time>
      </trkpt>
      <trkpt lat="69.885071972385049" lon="21.682621026411653">
        <ele>133.75999999999999</ele>
        <time>2017-06-27T08:53:43Z</time>
      </trkpt>
      <trkpt lat="69.884927971288562" lon="21.682477025315166">
        <ele>135.19999999999999</ele>
        <time>2017-06-27T08:53:44Z</time>
      </trkpt>
      <trkpt lat="69.884777013212442" lon="21.68235900811851">
        <ele>136.16</ele>
        <time>2017-06-27T08:53:45Z</time>
      </trkpt>
      <trkpt lat="69.88412699662149" lon="21.681802030652761">
        <ele>140.97</ele>
        <time>2017-06-27T08:53:49Z</time>
      </trkpt>
      <trkpt lat="69.88397603854537" lon="21.681557027623057">
        <ele>141.93000000000001</ele>
        <time>2017-06-27T08:53:50Z</time>
      </trkpt>
      <trkpt lat="69.883835976943374" lon="21.681254021823406">
        <ele>143.37</ele>
        <time>2017-06-27T08:53:51Z</time>
      </trkpt>
      <trkpt lat="69.883704967796803" lon="21.680903993546963">
        <ele>144.81999999999999</ele>
        <time>2017-06-27T08:53:52Z</time>
      </trkpt>
      <trkpt lat="69.883573958650231" lon="21.680539967492223">
        <ele>146.25999999999999</ele>
        <time>2017-06-27T08:53:53Z</time>
      </trkpt>
      <trkpt lat="69.883430963382125" lon="21.680204020813107">
        <ele>147.69999999999999</ele>
        <time>2017-06-27T08:53:54Z</time>
      </trkpt>
      <trkpt lat="69.883275981992483" lon="21.679946025833488">
        <ele>149.13999999999999</ele>
        <time>2017-06-27T08:53:55Z</time>
      </trkpt>
      <trkpt lat="69.883110020309687" lon="21.679770005866885">
        <ele>150.58000000000001</ele>
        <time>2017-06-27T08:53:56Z</time>
      </trkpt>
      <trkpt lat="69.882931988686323" lon="21.679676966741681">
        <ele>152.50999999999999</ele>
        <time>2017-06-27T08:53:57Z</time>
      </trkpt>
      <trkpt lat="69.882753035053611" lon="21.679663974791765">
        <ele>153.47</ele>
        <time>2017-06-27T08:53:58Z</time>
      </trkpt>
      <trkpt lat="69.882567040622234" lon="21.679719965904951">
        <ele>154.91</ele>
        <time>2017-06-27T08:53:59Z</time>
      </trkpt>
      <trkpt lat="69.882377022877336" lon="21.679835971444845">
        <ele>156.34999999999999</ele>
        <time>2017-06-27T08:54:00Z</time>
      </trkpt>
      <trkpt lat="69.882188010960817" lon="21.679992964491248">
        <ele>157.78999999999999</ele>
        <time>2017-06-27T08:54:01Z</time>
      </trkpt>
      <trkpt lat="69.880637023597956" lon="21.681001977995038">
        <ele>165.47999999999999</ele>
        <time>2017-06-27T08:54:09Z</time>
      </trkpt>
      <trkpt lat="69.880441976711154" lon="21.680950010195374">
        <ele>166.44999999999999</ele>
        <time>2017-06-27T08:54:10Z</time>
      </trkpt>
      <trkpt lat="69.880254976451397" lon="21.6808329988271">
        <ele>167.41</ele>
        <time>2017-06-27T08:54:11Z</time>
      </trkpt>
      <trkpt lat="69.88006898202002" lon="21.680654967203736">
        <ele>168.37</ele>
        <time>2017-06-27T08:54:12Z</time>
      </trkpt>
      <trkpt lat="69.879887010902166" lon="21.680427985265851">
        <ele>169.33000000000001</ele>
        <time>2017-06-27T08:54:13Z</time>
      </trkpt>
      <trkpt lat="69.878776995465159" lon="21.67885503731668">
        <ele>175.09999999999999</ele>
        <time>2017-06-27T08:54:19Z</time>
      </trkpt>
      <trkpt lat="69.878629976883531" lon="21.678497968241572">
        <ele>176.53999999999999</ele>
        <time>2017-06-27T08:54:20Z</time>
      </trkpt>
      <trkpt lat="69.878511037677526" lon="21.678079962730408">
        <ele>178.46000000000001</ele>
        <time>2017-06-27T08:54:21Z</time>
      </trkpt>
      <trkpt lat="69.87841104157269" lon="21.677629016339779">
        <ele>179.90000000000001</ele>
        <time>2017-06-27T08:54:22Z</time>
      </trkpt>
      <trkpt lat="69.878332000225782" lon="21.677134986966848">
        <ele>181.34999999999999</ele>
        <time>2017-06-27T08:54:23Z</time>
      </trkpt>
      <trkpt lat="69.878278020769358" lon="21.676612040027976">
        <ele>183.27000000000001</ele>
        <time>2017-06-27T08:54:24Z</time>
      </trkpt>
      <trkpt lat="69.878249019384384" lon="21.676088003441691">
        <ele>184.71000000000001</ele>
        <time>2017-06-27T08:54:25Z</time>
      </trkpt>
      <trkpt lat="69.878253964707255" lon="21.675563966855407">
        <ele>186.15000000000001</ele>
        <time>2017-06-27T08:54:26Z</time>
      </trkpt>
      <trkpt lat="69.87828497774899" lon="21.675040014088154">
        <ele>187.59</ele>
        <time>2017-06-27T08:54:27Z</time>
      </trkpt>
      <trkpt lat="69.878343986347318" lon="21.674533998593688">
        <ele>189.52000000000001</ele>
        <time>2017-06-27T08:54:28Z</time>
      </trkpt>
      <trkpt lat="69.878429984673858" lon="21.674040975049138">
        <ele>190.96000000000001</ele>
        <time>2017-06-27T08:54:29Z</time>
      </trkpt>
      <trkpt lat="69.878530986607075" lon="21.673549041152">
        <ele>192.40000000000001</ele>
        <time>2017-06-27T08:54:30Z</time>
      </trkpt>
      <trkpt lat="69.878641963005066" lon="21.673061968758702">
        <ele>193.84</ele>
        <time>2017-06-27T08:54:31Z</time>
      </trkpt>
      <trkpt lat="69.879173040390015" lon="21.670443965122104">
        <ele>200.56999999999999</ele>
        <time>2017-06-27T08:54:36Z</time>
      </trkpt>
      <trkpt lat="69.879233976826072" lon="21.669890005141497">
        <ele>201.53</ele>
        <time>2017-06-27T08:54:37Z</time>
      </trkpt>
      <trkpt lat="69.87927102483809" lon="21.669314000755548">
        <ele>202.97999999999999</ele>
        <time>2017-06-27T08:54:38Z</time>
      </trkpt>
      <trkpt lat="69.879277981817722" lon="21.668710000813007">
        <ele>204.41999999999999</ele>
        <time>2017-06-27T08:54:39Z</time>
      </trkpt>
      <trkpt lat="69.879258032888174" lon="21.668086973950267">
        <ele>206.34</ele>
        <time>2017-06-27T08:54:40Z</time>
      </trkpt>
      <trkpt lat="69.879220984876156" lon="21.667454978451133">
        <ele>207.78</ele>
        <time>2017-06-27T08:54:41Z</time>
      </trkpt>
      <trkpt lat="69.879167005419731" lon="21.666829017922282">
        <ele>209.22</ele>
        <time>2017-06-27T08:54:42Z</time>
      </trkpt>
      <trkpt lat="69.879097016528249" lon="21.665612971410155">
        <ele>211.63</ele>
        <time>2017-06-27T08:54:44Z</time>
      </trkpt>
      <trkpt lat="69.879103973507881" lon="21.665037972852588">
        <ele>213.06999999999999</ele>
        <time>2017-06-27T08:54:45Z</time>
      </trkpt>
      <trkpt lat="69.879144039005041" lon="21.664487030357122">
        <ele>214.03</ele>
        <time>2017-06-27T08:54:46Z</time>
      </trkpt>
      <trkpt lat="69.879210004583001" lon="21.663950001820922">
        <ele>214.99000000000001</ele>
        <time>2017-06-27T08:54:47Z</time>
      </trkpt>
      <trkpt lat="69.87929399125278" lon="21.663422025740147">
        <ele>215.94999999999999</ele>
        <time>2017-06-27T08:54:48Z</time>
      </trkpt>
      <trkpt lat="69.879388958215714" lon="21.662907041609287">
        <ele>216.91</ele>
        <time>2017-06-27T08:54:49Z</time>
      </trkpt>
      <trkpt lat="69.879955993965268" lon="21.660274034366012">
        <ele>220.28</ele>
        <time>2017-06-27T08:54:55Z</time>
      </trkpt>
      <trkpt lat="69.880098989233375" lon="21.659903973340988">
        <ele>220.75999999999999</ele>
        <time>2017-06-27T08:54:56Z</time>
      </trkpt>
      <trkpt lat="69.880269980058074" lon="21.659565009176731">
        <ele>221.72</ele>
        <time>2017-06-27T08:54:57Z</time>
      </trkpt>
      <trkpt lat="69.881580993533134" lon="21.656869975849986">
        <ele>230.37</ele>
        <time>2017-06-27T08:55:04Z</time>
      </trkpt>
      <trkpt lat="69.881767993792892" lon="21.656525982543826">
        <ele>232.30000000000001</ele>
        <time>2017-06-27T08:55:05Z</time>
      </trkpt>
      <trkpt lat="69.88195700570941" lon="21.656293971464038">
        <ele>233.74000000000001</ele>
        <time>2017-06-27T08:55:06Z</time>
      </trkpt>
      <trkpt lat="69.882138976827264" lon="21.656187018379569">
        <ele>235.18000000000001</ele>
        <time>2017-06-27T08:55:07Z</time>
      </trkpt>
      <trkpt lat="69.88232203759253" lon="21.656185006722808">
        <ele>236.62</ele>
        <time>2017-06-27T08:55:08Z</time>
      </trkpt>
      <trkpt lat="69.882504008710384" lon="21.656214008107781">
        <ele>237.58000000000001</ele>
        <time>2017-06-27T08:55:09Z</time>
      </trkpt>
      <trkpt lat="69.882692014798522" lon="21.656260024756193">
        <ele>239.02000000000001</ele>
        <time>2017-06-27T08:55:10Z</time>
      </trkpt>
      <trkpt lat="69.883257960900664" lon="21.656269999220967">
        <ele>242.38999999999999</ele>
        <time>2017-06-27T08:55:13Z</time>
      </trkpt>
      <trkpt lat="69.883446972817183" lon="21.656157011166215">
        <ele>243.34999999999999</ele>
        <time>2017-06-27T08:55:14Z</time>
      </trkpt>
      <trkpt lat="69.883639002218843" lon="21.65597696788609">
        <ele>244.31</ele>
        <time>2017-06-27T08:55:15Z</time>
      </trkpt>
      <trkpt lat="69.885262995958328" lon="21.653899010270834">
        <ele>256.32999999999998</ele>
        <time>2017-06-27T08:55:23Z</time>
      </trkpt>
      <trkpt lat="69.885444967076182" lon="21.653522998094559">
        <ele>257.76999999999998</ele>
        <time>2017-06-27T08:55:24Z</time>
      </trkpt>
      <trkpt lat="69.885924998670816" lon="21.652220031246543">
        <ele>261.62</ele>
        <time>2017-06-27T08:55:27Z</time>
      </trkpt>
      <trkpt lat="69.886046033352613" lon="21.651755003258586">
        <ele>262.57999999999998</ele>
        <time>2017-06-27T08:55:28Z</time>
      </trkpt>
      <trkpt lat="69.886593036353588" lon="21.649341015145183">
        <ele>263.54000000000002</ele>
        <time>2017-06-27T08:55:34Z</time>
      </trkpt>
      <trkpt lat="69.887434998527169" lon="21.645632022991776">
        <ele>267.86000000000001</ele>
        <time>2017-06-27T08:55:41Z</time>
      </trkpt>
      <trkpt lat="69.888271009549499" lon="21.641929987818003">
        <ele>277</ele>
        <time>2017-06-27T08:55:48Z</time>
      </trkpt>
      <trkpt lat="69.888881966471672" lon="21.637887982651591">
        <ele>280.83999999999997</ele>
        <time>2017-06-27T08:55:55Z</time>
      </trkpt>
      <trkpt lat="69.888969976454973" lon="21.636845022439957">
        <ele>281.31999999999999</ele>
        <time>2017-06-27T08:55:57Z</time>
      </trkpt>
      <trkpt lat="69.888978023082018" lon="21.636325009167194">
        <ele>281.31999999999999</ele>
        <time>2017-06-27T08:55:58Z</time>
      </trkpt>
      <trkpt lat="69.888963019475341" lon="21.63582100532949">
        <ele>281.31999999999999</ele>
        <time>2017-06-27T08:55:59Z</time>
      </trkpt>
      <trkpt lat="69.888921026140451" lon="21.635347008705139">
        <ele>281.80000000000001</ele>
        <time>2017-06-27T08:56:00Z</time>
      </trkpt>
      <trkpt lat="69.88885598257184" lon="21.634917017072439">
        <ele>283.25</ele>
        <time>2017-06-27T08:56:01Z</time>
      </trkpt>
      <trkpt lat="69.888761015608907" lon="21.634524995461106">
        <ele>284.20999999999998</ele>
        <time>2017-06-27T08:56:02Z</time>
      </trkpt>
      <trkpt lat="69.888650961220264" lon="21.634164992719889">
        <ele>285.17000000000002</ele>
        <time>2017-06-27T08:56:03Z</time>
      </trkpt>
      <trkpt lat="69.888522969558835" lon="21.63384597748518">
        <ele>286.61000000000001</ele>
        <time>2017-06-27T08:56:04Z</time>
      </trkpt>
      <trkpt lat="69.88838198594749" lon="21.633577002212405">
        <ele>288.05000000000001</ele>
        <time>2017-06-27T08:56:05Z</time>
      </trkpt>
      <trkpt lat="69.888225998729467" lon="21.633363012224436">
        <ele>289.97000000000003</ele>
        <time>2017-06-27T08:56:06Z</time>
      </trkpt>
      <trkpt lat="69.888051990419626" lon="21.633204007521272">
        <ele>291.42000000000002</ele>
        <time>2017-06-27T08:56:07Z</time>
      </trkpt>
      <trkpt lat="69.887872030958533" lon="21.633095964789391">
        <ele>293.33999999999997</ele>
        <time>2017-06-27T08:56:08Z</time>
      </trkpt>
      <trkpt lat="69.887684024870396" lon="21.633024970069528">
        <ele>294.77999999999997</ele>
        <time>2017-06-27T08:56:09Z</time>
      </trkpt>
      <trkpt lat="69.887313963845372" lon="21.632825983688235">
        <ele>298.14999999999998</ele>
        <time>2017-06-27T08:56:11Z</time>
      </trkpt>
      <trkpt lat="69.887149007990956" lon="21.632625991478562">
        <ele>299.58999999999997</ele>
        <time>2017-06-27T08:56:12Z</time>
      </trkpt>
      <trkpt lat="69.887001989409328" lon="21.632370008155704">
        <ele>301.02999999999997</ele>
        <time>2017-06-27T08:56:13Z</time>
      </trkpt>
      <trkpt lat="69.886871986091137" lon="21.632061973214149">
        <ele>302.47000000000003</ele>
        <time>2017-06-27T08:56:14Z</time>
      </trkpt>
      <trkpt lat="69.886761009693146" lon="21.631708005443215">
        <ele>303.91000000000003</ele>
        <time>2017-06-27T08:56:15Z</time>
      </trkpt>
      <trkpt lat="69.886671993881464" lon="21.631319001317024">
        <ele>305.36000000000001</ele>
        <time>2017-06-27T08:56:16Z</time>
      </trkpt>
      <trkpt lat="69.886607034131885" lon="21.630886998027563">
        <ele>306.80000000000001</ele>
        <time>2017-06-27T08:56:17Z</time>
      </trkpt>
      <trkpt lat="69.886562023311853" lon="21.630445020273328">
        <ele>307.75999999999999</ele>
        <time>2017-06-27T08:56:18Z</time>
      </trkpt>
      <trkpt lat="69.886542996391654" lon="21.629980998113751">
        <ele>308.72000000000003</ele>
        <time>2017-06-27T08:56:19Z</time>
      </trkpt>
      <trkpt lat="69.886541990563273" lon="21.629508007317781">
        <ele>309.68000000000001</ele>
        <time>2017-06-27T08:56:20Z</time>
      </trkpt>
      <trkpt lat="69.886566968634725" lon="21.629027975723147">
        <ele>310.16000000000003</ele>
        <time>2017-06-27T08:56:21Z</time>
      </trkpt>
      <trkpt lat="69.886614996939898" lon="21.628577029332519">
        <ele>311.60000000000002</ele>
        <time>2017-06-27T08:56:22Z</time>
      </trkpt>
      <trkpt lat="69.886692026630044" lon="21.628142008557916">
        <ele>312.56999999999999</ele>
        <time>2017-06-27T08:56:23Z</time>
      </trkpt>
      <trkpt lat="69.8867910169065" lon="21.627725008875132">
        <ele>313.52999999999997</ele>
        <time>2017-06-27T08:56:24Z</time>
      </trkpt>
      <trkpt lat="69.886911967769265" lon="21.627345979213715">
        <ele>314.00999999999999</ele>
        <time>2017-06-27T08:56:25Z</time>
      </trkpt>
      <trkpt lat="69.887054963037372" lon="21.627021012827754">
        <ele>314.97000000000003</ele>
        <time>2017-06-27T08:56:26Z</time>
      </trkpt>
      <trkpt lat="69.887215979397297" lon="21.626749020069838">
        <ele>315.93000000000001</ele>
        <time>2017-06-27T08:56:27Z</time>
      </trkpt>
      <trkpt lat="69.887390993535519" lon="21.626517008990049">
        <ele>316.41000000000003</ele>
        <time>2017-06-27T08:56:28Z</time>
      </trkpt>
      <trkpt lat="69.887576987966895" lon="21.626320034265518">
        <ele>317.37</ele>
        <time>2017-06-27T08:56:29Z</time>
      </trkpt>
      <trkpt lat="69.887774968519807" lon="21.626149965450168">
        <ele>318.32999999999998</ele>
        <time>2017-06-27T08:56:30Z</time>
      </trkpt>
      <trkpt lat="69.889850998297334" lon="21.624500993639231">
        <ele>330.82999999999998</ele>
        <time>2017-06-27T08:56:39Z</time>
      </trkpt>
      <trkpt lat="69.893312975764275" lon="21.621934035792947">
        <ele>362.06999999999999</ele>
        <time>2017-06-27T08:56:53Z</time>
      </trkpt>
      <trkpt lat="69.895245004445314" lon="21.621202966198325">
        <ele>373.61000000000001</ele>
        <time>2017-06-27T08:57:02Z</time>
      </trkpt>
      <trkpt lat="69.895951012149453" lon="21.620378019288182">
        <ele>377.44999999999999</ele>
        <time>2017-06-27T08:57:07Z</time>
      </trkpt>
      <trkpt lat="69.896016977727413" lon="21.620295038446784">
        <ele>378.42000000000002</ele>
        <time>2017-06-27T08:57:08Z</time>
      </trkpt>
      <trkpt lat="69.896068023517728" lon="21.620260002091527">
        <ele>378.89999999999998</ele>
        <time>2017-06-27T08:57:09Z</time>
      </trkpt>
      <trkpt lat="69.896106999367476" lon="21.620264025405049">
        <ele>378.89999999999998</ele>
        <time>2017-06-27T08:57:10Z</time>
      </trkpt>
      <trkpt lat="69.8961800057441" lon="21.620303001254797">
        <ele>378.89999999999998</ele>
        <time>2017-06-27T08:57:13Z</time>
      </trkpt>
      <trkpt lat="69.896205989643931" lon="21.620278023183346">
        <ele>378.42000000000002</ele>
        <time>2017-06-27T08:57:14Z</time>
      </trkpt>
      <trkpt lat="69.896228034049273" lon="21.620237035676837">
        <ele>378.89999999999998</ele>
        <time>2017-06-27T08:57:15Z</time>
      </trkpt>
      <trkpt lat="69.896243959665298" lon="21.620188001543283">
        <ele>378.89999999999998</ele>
        <time>2017-06-27T08:57:16Z</time>
      </trkpt>
      <trkpt lat="69.896260974928737" lon="21.62013603374362">
        <ele>379.38</ele>
        <time>2017-06-27T08:57:17Z</time>
      </trkpt>
      <trkpt lat="69.896280001848936" lon="21.620069984346628">
        <ele>379.38</ele>
        <time>2017-06-27T08:57:18Z</time>
      </trkpt>
      <trkpt lat="69.896301040425897" lon="21.619935035705566">
        <ele>379.86000000000001</ele>
        <time>2017-06-27T08:57:27Z</time>
      </trkpt>
      <trkpt lat="69.896296011283994" lon="21.619936041533947">
        <ele>379.86000000000001</ele>
        <time>2017-06-27T08:59:56Z</time>
      </trkpt>
      <trkpt lat="69.896292993798852" lon="21.619934029877186">
        <ele>379.86000000000001</ele>
        <time>2017-06-27T09:01:38Z</time>
      </trkpt>
      <trkpt lat="69.896316966041923" lon="21.619685003533959">
        <ele>379.86000000000001</ele>
        <time>2017-06-27T09:02:07Z</time>
      </trkpt>
      <trkpt lat="69.896347979083657" lon="21.619553994387388">
        <ele>380.33999999999997</ele>
        <time>2017-06-27T09:02:08Z</time>
      </trkpt>
      <trkpt lat="69.896440012380481" lon="21.619111010804772">
        <ele>381.30000000000001</ele>
        <time>2017-06-27T09:02:11Z</time>
      </trkpt>
      <trkpt lat="69.896449986845255" lon="21.618995005264878">
        <ele>381.77999999999997</ele>
        <time>2017-06-27T09:02:12Z</time>
      </trkpt>
      <trkpt lat="69.896477982401848" lon="21.618584962561727">
        <ele>381.77999999999997</ele>
        <time>2017-06-27T09:02:15Z</time>
      </trkpt>
      <trkpt lat="69.89650103263557" lon="21.61839796230197">
        <ele>381.77999999999997</ele>
        <time>2017-06-27T09:02:16Z</time>
      </trkpt>
      <trkpt lat="69.89671896211803" lon="21.616075001657009">
        <ele>382.74000000000001</ele>
        <time>2017-06-27T09:02:24Z</time>
      </trkpt>
      <trkpt lat="69.896885007619858" lon="21.612120000645518">
        <ele>380.33999999999997</ele>
        <time>2017-06-27T09:02:33Z</time>
      </trkpt>
      <trkpt lat="69.897394040599465" lon="21.608839994296432">
        <ele>380.33999999999997</ele>
        <time>2017-06-27T09:02:40Z</time>
      </trkpt>
      <trkpt lat="69.898266009986401" lon="21.606475962325931">
        <ele>383.69999999999999</ele>
        <time>2017-06-27T09:02:47Z</time>
      </trkpt>
      <trkpt lat="69.899077964946628" lon="21.603301987051964">
        <ele>378.89999999999998</ele>
        <time>2017-06-27T09:02:55Z</time>
      </trkpt>
      <trkpt lat="69.899595966562629" lon="21.598389018326998">
        <ele>371.20999999999998</ele>
        <time>2017-06-27T09:03:04Z</time>
      </trkpt>
      <trkpt lat="69.899667967110872" lon="21.596813974902034">
        <ele>371.69</ele>
        <time>2017-06-27T09:03:07Z</time>
      </trkpt>
      <trkpt lat="69.89966101013124" lon="21.596301002427936">
        <ele>371.20999999999998</ele>
        <time>2017-06-27T09:03:08Z</time>
      </trkpt>
      <trkpt lat="69.89964097738266" lon="21.595778977498412">
        <ele>370.24000000000001</ele>
        <time>2017-06-27T09:03:09Z</time>
      </trkpt>
      <trkpt lat="69.899380970746279" lon="21.591144958510995">
        <ele>361.11000000000001</ele>
        <time>2017-06-27T09:03:17Z</time>
      </trkpt>
      <trkpt lat="69.899524971842766" lon="21.586621999740601">
        <ele>362.06999999999999</ele>
        <time>2017-06-27T09:03:24Z</time>
      </trkpt>
      <trkpt lat="69.900093013420701" lon="21.575734997168183">
        <ele>368.80000000000001</ele>
        <time>2017-06-27T09:03:40Z</time>
      </trkpt>
      <trkpt lat="69.900239026173949" lon="21.570305032655597">
        <ele>376.49000000000001</ele>
        <time>2017-06-27T09:03:49Z</time>
      </trkpt>
      <trkpt lat="69.899816997349262" lon="21.562269972637296">
        <ele>383.69999999999999</ele>
        <time>2017-06-27T09:04:02Z</time>
      </trkpt>
      <trkpt lat="69.899434028193355" lon="21.556241037324071">
        <ele>391.87</ele>
        <time>2017-06-27T09:04:12Z</time>
      </trkpt>
      <trkpt lat="69.898883001878858" lon="21.551811033859849">
        <ele>388.99000000000001</ele>
        <time>2017-06-27T09:04:22Z</time>
      </trkpt>
      <trkpt lat="69.898185962811112" lon="21.546493973582983">
        <ele>389.47000000000003</ele>
        <time>2017-06-27T09:04:32Z</time>
      </trkpt>
      <trkpt lat="69.897633008658886" lon="21.544452980160713">
        <ele>389.47000000000003</ele>
        <time>2017-06-27T09:04:37Z</time>
      </trkpt>
      <trkpt lat="69.897496970370412" lon="21.544150980189443">
        <ele>388.99000000000001</ele>
        <time>2017-06-27T09:04:38Z</time>
      </trkpt>
      <trkpt lat="69.897349029779434" lon="21.543882004916668">
        <ele>388.50999999999999</ele>
        <time>2017-06-27T09:04:39Z</time>
      </trkpt>
      <trkpt lat="69.897206034511328" lon="21.543646976351738">
        <ele>387.55000000000001</ele>
        <time>2017-06-27T09:04:40Z</time>
      </trkpt>
      <trkpt lat="69.89585897885263" lon="21.541932038962841">
        <ele>381.77999999999997</ele>
        <time>2017-06-27T09:04:49Z</time>
      </trkpt>
      <trkpt lat="69.89431100897491" lon="21.539804963395">
        <ele>371.20999999999998</ele>
        <time>2017-06-27T09:04:57Z</time>
      </trkpt>
      <trkpt lat="69.892898993566632" lon="21.53684196062386">
        <ele>360.14999999999998</ele>
        <time>2017-06-27T09:05:05Z</time>
      </trkpt>
      <trkpt lat="69.891472980380058" lon="21.531416019424796">
        <ele>340.44</ele>
        <time>2017-06-27T09:05:15Z</time>
      </trkpt>
      <trkpt lat="69.891379019245505" lon="21.530835991725326">
        <ele>339</ele>
        <time>2017-06-27T09:05:16Z</time>
      </trkpt>
      <trkpt lat="69.891311964020133" lon="21.530227968469262">
        <ele>337.07999999999998</ele>
        <time>2017-06-27T09:05:17Z</time>
      </trkpt>
      <trkpt lat="69.891272988170385" lon="21.529594967141747">
        <ele>335.63999999999999</ele>
        <time>2017-06-27T09:05:18Z</time>
      </trkpt>
      <trkpt lat="69.891251027584076" lon="21.528949979692698">
        <ele>334.19999999999999</ele>
        <time>2017-06-27T09:05:19Z</time>
      </trkpt>
      <trkpt lat="69.89124096930027" lon="21.528286971151829">
        <ele>332.26999999999998</ele>
        <time>2017-06-27T09:05:20Z</time>
      </trkpt>
      <trkpt lat="69.891266031190753" lon="21.520693972706795">
        <ele>312.56999999999999</ele>
        <time>2017-06-27T09:05:31Z</time>
      </trkpt>
      <trkpt lat="69.891381030902267" lon="21.516953967511654">
        <ele>302.47000000000003</ele>
        <time>2017-06-27T09:05:37Z</time>
      </trkpt>
      <trkpt lat="69.891348006203771" lon="21.516359020024538">
        <ele>301.02999999999997</ele>
        <time>2017-06-27T09:05:38Z</time>
      </trkpt>
      <trkpt lat="69.891298972070217" lon="21.515764994546771">
        <ele>299.58999999999997</ele>
        <time>2017-06-27T09:05:39Z</time>
      </trkpt>
      <trkpt lat="69.890626994892955" lon="21.508959978818893">
        <ele>283.25</ele>
        <time>2017-06-27T09:05:50Z</time>
      </trkpt>
      <trkpt lat="69.890387021005154" lon="21.500971019268036">
        <ele>265.45999999999998</ele>
        <time>2017-06-27T09:06:02Z</time>
      </trkpt>
      <trkpt lat="69.890524987131357" lon="21.495274007320404">
        <ele>252</ele>
        <time>2017-06-27T09:06:11Z</time>
      </trkpt>
      <trkpt lat="69.89044301211834" lon="21.493542976677418">
        <ele>246.72</ele>
        <time>2017-06-27T09:06:14Z</time>
      </trkpt>
      <trkpt lat="69.890376040711999" lon="21.493004020303488">
        <ele>244.78999999999999</ele>
        <time>2017-06-27T09:06:15Z</time>
      </trkpt>
      <trkpt lat="69.890289958566427" lon="21.492501022294164">
        <ele>243.34999999999999</ele>
        <time>2017-06-27T09:06:16Z</time>
      </trkpt>
      <trkpt lat="69.890180993825197" lon="21.492026019841433">
        <ele>241.91</ele>
        <time>2017-06-27T09:06:17Z</time>
      </trkpt>
      <trkpt lat="69.890048978850245" lon="21.491578007116914">
        <ele>239.99000000000001</ele>
        <time>2017-06-27T09:06:18Z</time>
      </trkpt>
      <trkpt lat="69.889899026602507" lon="21.491151032969356">
        <ele>239.02000000000001</ele>
        <time>2017-06-27T09:06:19Z</time>
      </trkpt>
      <trkpt lat="69.889731975272298" lon="21.490735039114952">
        <ele>237.58000000000001</ele>
        <time>2017-06-27T09:06:20Z</time>
      </trkpt>
      <trkpt lat="69.889550004154444" lon="21.490332959219813">
        <ele>235.66</ele>
        <time>2017-06-27T09:06:21Z</time>
      </trkpt>
      <trkpt lat="69.887514039874077" lon="21.485840007662773">
        <ele>219.31999999999999</ele>
        <time>2017-06-27T09:06:31Z</time>
      </trkpt>
      <trkpt lat="69.883814016357064" lon="21.47738803178072">
        <ele>188.08000000000001</ele>
        <time>2017-06-27T09:06:49Z</time>
      </trkpt>
      <trkpt lat="69.883661968633533" lon="21.476868018507957">
        <ele>187.11000000000001</ele>
        <time>2017-06-27T09:06:50Z</time>
      </trkpt>
      <trkpt lat="69.883519979193807" lon="21.47631699219346">
        <ele>185.19</ele>
        <time>2017-06-27T09:06:51Z</time>
      </trkpt>
      <trkpt lat="69.883401961997151" lon="21.475748028606176">
        <ele>183.27000000000001</ele>
        <time>2017-06-27T09:06:52Z</time>
      </trkpt>
      <trkpt lat="69.883299032226205" lon="21.475152997300029">
        <ele>182.78999999999999</ele>
        <time>2017-06-27T09:06:53Z</time>
      </trkpt>
      <trkpt lat="69.883205993101001" lon="21.474530976265669">
        <ele>179.41999999999999</ele>
        <time>2017-06-27T09:06:54Z</time>
      </trkpt>
      <trkpt lat="69.88270802423358" lon="21.46991397254169">
        <ele>168.37</ele>
        <time>2017-06-27T09:07:01Z</time>
      </trkpt>
      <trkpt lat="69.88245396874845" lon="21.465843971818686">
        <ele>158.75</ele>
        <time>2017-06-27T09:07:07Z</time>
      </trkpt>
      <trkpt lat="69.882594030350447" lon="21.461195033043623">
        <ele>147.22</ele>
        <time>2017-06-27T09:07:14Z</time>
      </trkpt>
      <trkpt lat="69.883432975038886" lon="21.454544998705387">
        <ele>132.31999999999999</ele>
        <time>2017-06-27T09:07:24Z</time>
      </trkpt>
      <trkpt lat="69.88438599742949" lon="21.450483966618776">
        <ele>126.55</ele>
        <time>2017-06-27T09:07:31Z</time>
      </trkpt>
      <trkpt lat="69.885865990072489" lon="21.446560984477401">
        <ele>116.94</ele>
        <time>2017-06-27T09:07:40Z</time>
      </trkpt>
      <trkpt lat="69.887868007645011" lon="21.442072978243232">
        <ele>96.269999999999996</ele>
        <time>2017-06-27T09:07:51Z</time>
      </trkpt>
      <trkpt lat="69.890040010213852" lon="21.43613800406456">
        <ele>75.120000000000005</ele>
        <time>2017-06-27T09:08:03Z</time>
      </trkpt>
      <trkpt lat="69.891187995672226" lon="21.432488020509481">
        <ele>63.100000000000001</ele>
        <time>2017-06-27T09:08:10Z</time>
      </trkpt>
      <trkpt lat="69.892015038058162" lon="21.428925963118672">
        <ele>51.57</ele>
        <time>2017-06-27T09:08:17Z</time>
      </trkpt>
      <trkpt lat="69.892694978043437" lon="21.425898000597954">
        <ele>42.439999999999998</ele>
        <time>2017-06-27T09:08:25Z</time>
      </trkpt>
      <trkpt lat="69.893151959404349" lon="21.422474998980761">
        <ele>32.340000000000003</ele>
        <time>2017-06-27T09:08:34Z</time>
      </trkpt>
      <trkpt lat="69.893976990133524" lon="21.419538985937834">
        <ele>28.5</ele>
        <time>2017-06-27T09:08:43Z</time>
      </trkpt>
      <trkpt lat="69.895537029951811" lon="21.412894986569881">
        <ele>21.77</ele>
        <time>2017-06-27T09:09:00Z</time>
      </trkpt>
      <trkpt lat="69.896875033155084" lon="21.406418960541487">
        <ele>20.32</ele>
        <time>2017-06-27T09:09:14Z</time>
      </trkpt>
      <trkpt lat="69.898110022768378" lon="21.399755012243986">
        <ele>18.879999999999999</ele>
        <time>2017-06-27T09:09:27Z</time>
      </trkpt>
      <trkpt lat="69.89918801933527" lon="21.393389040604234">
        <ele>20.809999999999999</ele>
        <time>2017-06-27T09:09:39Z</time>
      </trkpt>
      <trkpt lat="69.899303019046783" lon="21.392948990687728">
        <ele>21.289999999999999</ele>
        <time>2017-06-27T09:09:40Z</time>
      </trkpt>
      <trkpt lat="69.899901989847422" lon="21.390843959525228">
        <ele>21.289999999999999</ele>
        <time>2017-06-27T09:09:45Z</time>
      </trkpt>
      <trkpt lat="69.899987988173962" lon="21.390370968729258">
        <ele>20.809999999999999</ele>
        <time>2017-06-27T09:09:46Z</time>
      </trkpt>
      <trkpt lat="69.900066023692489" lon="21.389864031225443">
        <ele>20.809999999999999</ele>
        <time>2017-06-27T09:09:47Z</time>
      </trkpt>
      <trkpt lat="69.90062803030014" lon="21.383656980469823">
        <ele>14.08</ele>
        <time>2017-06-27T09:09:58Z</time>
      </trkpt>
      <trkpt lat="69.900417979806662" lon="21.378390965983272">
        <ele>12.15</ele>
        <time>2017-06-27T09:10:07Z</time>
      </trkpt>
      <trkpt lat="69.900470031425357" lon="21.372209982946515">
        <ele>7.35</ele>
        <time>2017-06-27T09:10:18Z</time>
      </trkpt>
      <trkpt lat="69.900740012526512" lon="21.368530998006463">
        <ele>8.310000000000001</ele>
        <time>2017-06-27T09:10:24Z</time>
      </trkpt>
      <trkpt lat="69.901299001649022" lon="21.361580975353718">
        <ele>6.39</ele>
        <time>2017-06-27T09:10:34Z</time>
      </trkpt>
      <trkpt lat="69.901406960561872" lon="21.359008988365531">
        <ele>10.23</ele>
        <time>2017-06-27T09:10:38Z</time>
      </trkpt>
      <trkpt lat="69.901470998302102" lon="21.358472965657711">
        <ele>10.710000000000001</ele>
        <time>2017-06-27T09:10:39Z</time>
      </trkpt>
      <trkpt lat="69.901554984971881" lon="21.357977008447051">
        <ele>10.710000000000001</ele>
        <time>2017-06-27T09:10:40Z</time>
      </trkpt>
      <trkpt lat="69.901662021875381" lon="21.357535030692816">
        <ele>10.710000000000001</ele>
        <time>2017-06-27T09:10:41Z</time>
      </trkpt>
      <trkpt lat="69.90178900770843" lon="21.357136974111199">
        <ele>10.710000000000001</ele>
        <time>2017-06-27T09:10:42Z</time>
      </trkpt>
      <trkpt lat="69.90193996578455" lon="21.356787029653788">
        <ele>10.710000000000001</ele>
        <time>2017-06-27T09:10:43Z</time>
      </trkpt>
      <trkpt lat="69.902102993801236" lon="21.356435995548964">
        <ele>10.710000000000001</ele>
        <time>2017-06-27T09:10:44Z</time>
      </trkpt>
      <trkpt lat="69.902279013767838" lon="21.356098037213087">
        <ele>10.23</ele>
        <time>2017-06-27T09:10:45Z</time>
      </trkpt>
      <trkpt lat="69.903726987540722" lon="21.352779977023602">
        <ele>14.08</ele>
        <time>2017-06-27T09:10:53Z</time>
      </trkpt>
      <trkpt lat="69.905797988176346" lon="21.348176971077919">
        <ele>19.84</ele>
        <time>2017-06-27T09:11:04Z</time>
      </trkpt>
      <trkpt lat="69.907881980761886" lon="21.343606989830732">
        <ele>21.77</ele>
        <time>2017-06-27T09:11:15Z</time>
      </trkpt>
      <trkpt lat="69.908006032928824" lon="21.343132993206382">
        <ele>21.77</ele>
        <time>2017-06-27T09:11:16Z</time>
      </trkpt>
      <trkpt lat="69.908109968528152" lon="21.342637035995722">
        <ele>21.77</ele>
        <time>2017-06-27T09:11:17Z</time>
      </trkpt>
      <trkpt lat="69.90819102153182" lon="21.342112999409437">
        <ele>21.77</ele>
        <time>2017-06-27T09:11:18Z</time>
      </trkpt>
      <trkpt lat="69.908248018473387" lon="21.341563984751701">
        <ele>21.77</ele>
        <time>2017-06-27T09:11:19Z</time>
      </trkpt>
      <trkpt lat="69.908285988494754" lon="21.340996026992798">
        <ele>21.77</ele>
        <time>2017-06-27T09:11:20Z</time>
      </trkpt>
      <trkpt lat="69.908295962959528" lon="21.340409964323044">
        <ele>21.77</ele>
        <time>2017-06-27T09:11:21Z</time>
      </trkpt>
      <trkpt lat="69.908290011808276" lon="21.33982096798718">
        <ele>21.77</ele>
        <time>2017-06-27T09:11:22Z</time>
      </trkpt>
      <trkpt lat="69.908266039565206" lon="21.339228032156825">
        <ele>22.25</ele>
        <time>2017-06-27T09:11:23Z</time>
      </trkpt>
      <trkpt lat="69.908219017088413" lon="21.338640041649342">
        <ele>22.25</ele>
        <time>2017-06-27T09:11:24Z</time>
      </trkpt>
      <trkpt lat="69.908154979348183" lon="21.338062025606632">
        <ele>21.77</ele>
        <time>2017-06-27T09:11:25Z</time>
      </trkpt>
      <trkpt lat="69.908074010163546" lon="21.337488032877445">
        <ele>21.289999999999999</ele>
        <time>2017-06-27T09:11:26Z</time>
      </trkpt>
      <trkpt lat="69.907093998044729" lon="21.331019969657063">
        <ele>11.19</ele>
        <time>2017-06-27T09:11:38Z</time>
      </trkpt>
      <trkpt lat="69.906331999227405" lon="21.327512981370091">
        <ele>1.1</ele>
        <time>2017-06-27T09:11:46Z</time>
      </trkpt>
      <trkpt lat="69.905168004333973" lon="21.325451033189893">
        <ele>-2.27</ele>
        <time>2017-06-27T09:11:53Z</time>
      </trkpt>
      <trkpt lat="69.902223022654653" lon="21.321297967806458">
        <ele>4.94</ele>
        <time>2017-06-27T09:12:09Z</time>
      </trkpt>
      <trkpt lat="69.899707026779652" lon="21.317182034254074">
        <ele>10.23</ele>
        <time>2017-06-27T09:12:24Z</time>
      </trkpt>
      <trkpt lat="69.898744029924273" lon="21.314104031771421">
        <ele>8.789999999999999</ele>
        <time>2017-06-27T09:12:32Z</time>
      </trkpt>
      <trkpt lat="69.896980980411172" lon="21.307516023516655">
        <ele>11.19</ele>
        <time>2017-06-27T09:12:47Z</time>
      </trkpt>
      <trkpt lat="69.896788029000163" lon="21.30419896915555">
        <ele>11.67</ele>
        <time>2017-06-27T09:12:53Z</time>
      </trkpt>
      <trkpt lat="69.89680596627295" lon="21.303624976426363">
        <ele>12.15</ele>
        <time>2017-06-27T09:12:54Z</time>
      </trkpt>
      <trkpt lat="69.896841002628207" lon="21.303054001182318">
        <ele>12.15</ele>
        <time>2017-06-27T09:12:55Z</time>
      </trkpt>
      <trkpt lat="69.89689095877111" lon="21.302489982917905">
        <ele>12.630000000000001</ele>
        <time>2017-06-27T09:12:56Z</time>
      </trkpt>
      <trkpt lat="69.896949967369437" lon="21.301936022937298">
        <ele>12.630000000000001</ele>
        <time>2017-06-27T09:12:57Z</time>
      </trkpt>
      <trkpt lat="69.8970209620893" lon="21.301389019936323">
        <ele>12.630000000000001</ele>
        <time>2017-06-27T09:12:58Z</time>
      </trkpt>
      <trkpt lat="69.898051014170051" lon="21.294117970392108">
        <ele>10.710000000000001</ele>
        <time>2017-06-27T09:13:11Z</time>
      </trkpt>
      <trkpt lat="69.899152982980013" lon="21.282688993960619">
        <ele>7.35</ele>
        <time>2017-06-27T09:13:30Z</time>
      </trkpt>
      <trkpt lat="69.899207968264818" lon="21.279130959883332">
        <ele>3.98</ele>
        <time>2017-06-27T09:13:36Z</time>
      </trkpt>
      <trkpt lat="69.899037983268499" lon="21.271296981722116">
        <ele>-2.75</ele>
        <time>2017-06-27T09:13:47Z</time>
      </trkpt>
      <trkpt lat="69.898845031857491" lon="21.259847972542048">
        <ele>0.14</ele>
        <time>2017-06-27T09:14:03Z</time>
      </trkpt>
      <trkpt lat="69.899117024615407" lon="21.251729009672999">
        <ele>3.98</ele>
        <time>2017-06-27T09:14:15Z</time>
      </trkpt>
      <trkpt lat="69.899096991866827" lon="21.251127021387219">
        <ele>3.5</ele>
        <time>2017-06-27T09:14:16Z</time>
      </trkpt>
      <trkpt lat="69.899058016017079" lon="21.250517992302775">
        <ele>3.5</ele>
        <time>2017-06-27T09:14:17Z</time>
      </trkpt>
      <trkpt lat="69.898837991058826" lon="21.245903000235558">
        <ele>1.1</ele>
        <time>2017-06-27T09:14:24Z</time>
      </trkpt>
      <trkpt lat="69.898764984682202" lon="21.237853020429611">
        <ele>-3.23</ele>
        <time>2017-06-27T09:14:36Z</time>
      </trkpt>
      <trkpt lat="69.898600028827786" lon="21.230944991111755">
        <ele>-3.71</ele>
        <time>2017-06-27T09:14:46Z</time>
      </trkpt>
      <trkpt lat="69.898665994405746" lon="21.23028701171279">
        <ele>-2.75</ele>
        <time>2017-06-27T09:14:47Z</time>
      </trkpt>
      <trkpt lat="69.898760039359331" lon="21.229659039527178">
        <ele>-2.27</ele>
        <time>2017-06-27T09:14:48Z</time>
      </trkpt>
      <trkpt lat="69.898876966908574" lon="21.229054033756256">
        <ele>-1.79</ele>
        <time>2017-06-27T09:14:49Z</time>
      </trkpt>
      <trkpt lat="69.899011999368668" lon="21.228469982743263">
        <ele>-1.79</ele>
        <time>2017-06-27T09:14:50Z</time>
      </trkpt>
      <trkpt lat="69.899148037657142" lon="21.227895990014076">
        <ele>-1.3</ele>
        <time>2017-06-27T09:14:51Z</time>
      </trkpt>
      <trkpt lat="69.899786990135908" lon="21.223975019529462">
        <ele>-0.82</ele>
        <time>2017-06-27T09:14:57Z</time>
      </trkpt>
      <trkpt lat="69.90105802193284" lon="21.215319028124213">
        <ele>5.91</ele>
        <time>2017-06-27T09:15:10Z</time>
      </trkpt>
      <trkpt lat="69.901104960590601" lon="21.214672029018402">
        <ele>5.91</ele>
        <time>2017-06-27T09:15:11Z</time>
      </trkpt>
      <trkpt lat="69.901133961975574" lon="21.214028969407082">
        <ele>5.42</ele>
        <time>2017-06-27T09:15:12Z</time>
      </trkpt>
      <trkpt lat="69.901138991117477" lon="21.213392028585076">
        <ele>4.94</ele>
        <time>2017-06-27T09:15:13Z</time>
      </trkpt>
      <trkpt lat="69.901139996945858" lon="21.212764978408813">
        <ele>4.46</ele>
        <time>2017-06-27T09:15:14Z</time>
      </trkpt>
      <trkpt lat="69.901124993339181" lon="21.212142035365105">
        <ele>3.5</ele>
        <time>2017-06-27T09:15:15Z</time>
      </trkpt>
      <trkpt lat="69.901093980297446" lon="21.211530994623899">
        <ele>2.54</ele>
        <time>2017-06-27T09:15:16Z</time>
      </trkpt>
      <trkpt lat="69.901051986962557" lon="21.210907967761159">
        <ele>2.06</ele>
        <time>2017-06-27T09:15:17Z</time>
      </trkpt>
      <trkpt lat="69.900997001677752" lon="21.210290975868702">
        <ele>1.58</ele>
        <time>2017-06-27T09:15:18Z</time>
      </trkpt>
      <trkpt lat="69.900230979546905" lon="21.204970981925726">
        <ele>-3.23</ele>
        <time>2017-06-27T09:15:27Z</time>
      </trkpt>
      <trkpt lat="69.898368017747998" lon="21.198394037783146">
        <ele>3.02</ele>
        <time>2017-06-27T09:15:40Z</time>
      </trkpt>
      <trkpt lat="69.89689196459949" lon="21.192954014986753">
        <ele>11.19</ele>
        <time>2017-06-27T09:15:51Z</time>
      </trkpt>
      <trkpt lat="69.895798964425921" lon="21.189446020871401">
        <ele>16.48</ele>
        <time>2017-06-27T09:15:59Z</time>
      </trkpt>
      <trkpt lat="69.89463597536087" lon="21.188222011551261">
        <ele>13.6</ele>
        <time>2017-06-27T09:16:05Z</time>
      </trkpt>
      <trkpt lat="69.893328985199332" lon="21.188506996259093">
        <ele>12.630000000000001</ele>
        <time>2017-06-27T09:16:11Z</time>
      </trkpt>
      <trkpt lat="69.890032969415188" lon="21.19051898829639">
        <ele>13.119999999999999</ele>
        <time>2017-06-27T09:16:25Z</time>
      </trkpt>
      <trkpt lat="69.885282022878528" lon="21.19322701357305">
        <ele>12.15</ele>
        <time>2017-06-27T09:16:45Z</time>
      </trkpt>
      <trkpt lat="69.883099040016532" lon="21.195215033367276">
        <ele>0.62</ele>
        <time>2017-06-27T09:16:54Z</time>
      </trkpt>
      <trkpt lat="69.881559032946825" lon="21.197964968159795">
        <ele>-1.3</ele>
        <time>2017-06-27T09:17:01Z</time>
      </trkpt>
      <trkpt lat="69.880253970623016" lon="21.200007973238826">
        <ele>-1.79</ele>
        <time>2017-06-27T09:17:07Z</time>
      </trkpt>
      <trkpt lat="69.878826029598713" lon="21.200354984030128">
        <ele>-0.34</ele>
        <time>2017-06-27T09:17:13Z</time>
      </trkpt>
      <trkpt lat="69.877541000023484" lon="21.20115403085947">
        <ele>0.14</ele>
        <time>2017-06-27T09:17:19Z</time>
      </trkpt>
      <trkpt lat="69.874899024143815" lon="21.203976972028613">
        <ele>3.5</ele>
        <time>2017-06-27T09:17:31Z</time>
      </trkpt>
      <trkpt lat="69.872687961906195" lon="21.20624796487391">
        <ele>0.62</ele>
        <time>2017-06-27T09:17:41Z</time>
      </trkpt>
      <trkpt lat="69.871121970936656" lon="21.208171024918556">
        <ele>-2.75</ele>
        <time>2017-06-27T09:17:48Z</time>
      </trkpt>
      <trkpt lat="69.869402004405856" lon="21.208403035998344">
        <ele>-1.3</ele>
        <time>2017-06-27T09:17:55Z</time>
      </trkpt>
      <trkpt lat="69.867980014532804" lon="21.209794012829661">
        <ele>-0.82</ele>
        <time>2017-06-27T09:18:01Z</time>
      </trkpt>
      <trkpt lat="69.865841036662459" lon="21.213276023045182">
        <ele>0.62</ele>
        <time>2017-06-27T09:18:11Z</time>
      </trkpt>
      <trkpt lat="69.864373030140996" lon="21.217003958299756">
        <ele>-1.3</ele>
        <time>2017-06-27T09:18:19Z</time>
      </trkpt>
      <trkpt lat="69.862743001431227" lon="21.218927018344402">
        <ele>-0.82</ele>
        <time>2017-06-27T09:18:26Z</time>
      </trkpt>
      <trkpt lat="69.857860961928964" lon="21.223796987906098">
        <ele>-0.82</ele>
        <time>2017-06-27T09:18:46Z</time>
      </trkpt>
      <trkpt lat="69.856420028954744" lon="21.225238004699349">
        <ele>-2.27</ele>
        <time>2017-06-27T09:18:53Z</time>
      </trkpt>
      <trkpt lat="69.854782037436962" lon="21.227677976712584">
        <ele>-2.27</ele>
        <time>2017-06-27T09:19:01Z</time>
      </trkpt>
      <trkpt lat="69.853707980364561" lon="21.228755973279476">
        <ele>2.06</ele>
        <time>2017-06-27T09:19:07Z</time>
      </trkpt>
      <trkpt lat="69.851911989971995" lon="21.229026038199663">
        <ele>3.98</ele>
        <time>2017-06-27T09:19:17Z</time>
      </trkpt>
      <trkpt lat="69.850295037031174" lon="21.2278170324862">
        <ele>0.62</ele>
        <time>2017-06-27T09:19:26Z</time>
      </trkpt>
      <trkpt lat="69.848346998915076" lon="21.225163992494345">
        <ele>0.14</ele>
        <time>2017-06-27T09:19:36Z</time>
      </trkpt>
      <trkpt lat="69.846962979063392" lon="21.221597995609045">
        <ele>0.14</ele>
        <time>2017-06-27T09:19:44Z</time>
      </trkpt>
      <trkpt lat="69.845526991412044" lon="21.219134973362088">
        <ele>0.62</ele>
        <time>2017-06-27T09:19:51Z</time>
      </trkpt>
      <trkpt lat="69.843442998826504" lon="21.217018039897084">
        <ele>0.14</ele>
        <time>2017-06-27T09:20:00Z</time>
      </trkpt>
      <trkpt lat="69.841440981253982" lon="21.213008975610137">
        <ele>4.94</ele>
        <time>2017-06-27T09:20:10Z</time>
      </trkpt>
      <trkpt lat="69.839729983359575" lon="21.209947988390923">
        <ele>5.42</ele>
        <time>2017-06-27T09:20:19Z</time>
      </trkpt>
      <trkpt lat="69.838090986013412" lon="21.208367999643087">
        <ele>3.5</ele>
        <time>2017-06-27T09:20:27Z</time>
      </trkpt>
      <trkpt lat="69.836443020030856" lon="21.206016959622502">
        <ele>11.19</ele>
        <time>2017-06-27T09:20:35Z</time>
      </trkpt>
      <trkpt lat="69.834638983011246" lon="21.203077007085085">
        <ele>15.52</ele>
        <time>2017-06-27T09:20:44Z</time>
      </trkpt>
      <trkpt lat="69.833387983962893" lon="21.198704000562429">
        <ele>11.19</ele>
        <time>2017-06-27T09:20:52Z</time>
      </trkpt>
      <trkpt lat="69.831902962177992" lon="21.192615972831845">
        <ele>13.119999999999999</ele>
        <time>2017-06-27T09:21:02Z</time>
      </trkpt>
      <trkpt lat="69.830949017778039" lon="21.188738001510501">
        <ele>16.48</ele>
        <time>2017-06-27T09:21:09Z</time>
      </trkpt>
      <trkpt lat="69.829541025683284" lon="21.185966022312641">
        <ele>17.920000000000002</ele>
        <time>2017-06-27T09:21:17Z</time>
      </trkpt>
      <trkpt lat="69.827078003436327" lon="21.183251962065697">
        <ele>14.56</ele>
        <time>2017-06-27T09:21:28Z</time>
      </trkpt>
      <trkpt lat="69.824746996164322" lon="21.179938009008765">
        <ele>14.08</ele>
        <time>2017-06-27T09:21:39Z</time>
      </trkpt>
      <trkpt lat="69.823555005714297" lon="21.176272016018629">
        <ele>5.42</ele>
        <time>2017-06-27T09:21:46Z</time>
      </trkpt>
      <trkpt lat="69.822641965001822" lon="21.172653967514634">
        <ele>1.58</ele>
        <time>2017-06-27T09:21:52Z</time>
      </trkpt>
      <trkpt lat="69.821782987564802" lon="21.167181003838778">
        <ele>-0.82</ele>
        <time>2017-06-27T09:22:00Z</time>
      </trkpt>
      <trkpt lat="69.820988969877362" lon="21.161794038489461">
        <ele>-3.71</ele>
        <time>2017-06-27T09:22:08Z</time>
      </trkpt>
      <trkpt lat="69.818781008943915" lon="21.152486018836498">
        <ele>-2.75</ele>
        <time>2017-06-27T09:22:24Z</time>
      </trkpt>
      <trkpt lat="69.817574014887214" lon="21.150587014853954">
        <ele>-0.34</ele>
        <time>2017-06-27T09:22:30Z</time>
      </trkpt>
      <trkpt lat="69.815435037016869" lon="21.14748596213758">
        <ele>-0.82</ele>
        <time>2017-06-27T09:22:40Z</time>
      </trkpt>
      <trkpt lat="69.81412704102695" lon="21.146490024402738">
        <ele>-3.23</ele>
        <time>2017-06-27T09:22:46Z</time>
      </trkpt>
      <trkpt lat="69.81255903840065" lon="21.146699991077185">
        <ele>-4.19</ele>
        <time>2017-06-27T09:22:53Z</time>
      </trkpt>
      <trkpt lat="69.810033990070224" lon="21.145949978381395">
        <ele>-4.19</ele>
        <time>2017-06-27T09:23:04Z</time>
      </trkpt>
      <trkpt lat="69.808819033205509" lon="21.144166979938745">
        <ele>-3.23</ele>
        <time>2017-06-27T09:23:10Z</time>
      </trkpt>
      <trkpt lat="69.807526040822268" lon="21.141971005126834">
        <ele>-1.3</ele>
        <time>2017-06-27T09:23:17Z</time>
      </trkpt>
      <trkpt lat="69.806201029568911" lon="21.141492985188961">
        <ele>-2.75</ele>
        <time>2017-06-27T09:23:23Z</time>
      </trkpt>
      <trkpt lat="69.804857997223735" lon="21.140714976936579">
        <ele>-4.19</ele>
        <time>2017-06-27T09:23:29Z</time>
      </trkpt>
      <trkpt lat="69.803717974573374" lon="21.138340970501304">
        <ele>-3.71</ele>
        <time>2017-06-27T09:23:35Z</time>
      </trkpt>
      <trkpt lat="69.802796971052885" lon="21.134326960891485">
        <ele>-2.75</ele>
        <time>2017-06-27T09:23:42Z</time>
      </trkpt>
      <trkpt lat="69.801823999732733" lon="21.127454973757267">
        <ele>3.02</ele>
        <time>2017-06-27T09:23:53Z</time>
      </trkpt>
      <trkpt lat="69.800237976014614" lon="21.116129010915756">
        <ele>11.67</ele>
        <time>2017-06-27T09:24:12Z</time>
      </trkpt>
      <trkpt lat="69.799194009974599" lon="21.110031008720398">
        <ele>23.210000000000001</ele>
        <time>2017-06-27T09:24:23Z</time>
      </trkpt>
      <trkpt lat="69.79805801063776" lon="21.103856982663274">
        <ele>28.5</ele>
        <time>2017-06-27T09:24:34Z</time>
      </trkpt>
      <trkpt lat="69.796107038855553" lon="21.093525029718876">
        <ele>37.149999999999999</ele>
        <time>2017-06-27T09:24:51Z</time>
      </trkpt>
      <trkpt lat="69.795166002586484" lon="21.089169960469007">
        <ele>41.469999999999999</ele>
        <time>2017-06-27T09:24:59Z</time>
      </trkpt>
      <trkpt lat="69.795014038681984" lon="21.088783973827958">
        <ele>41.950000000000003</ele>
        <time>2017-06-27T09:25:00Z</time>
      </trkpt>
      <trkpt lat="69.794853022322059" lon="21.088430006057024">
        <ele>42.439999999999998</ele>
        <time>2017-06-27T09:25:01Z</time>
      </trkpt>
      <trkpt lat="69.793173959478736" lon="21.084313988685608">
        <ele>44.840000000000003</ele>
        <time>2017-06-27T09:25:11Z</time>
      </trkpt>
      <trkpt lat="69.792136028409004" lon="21.079388028010726">
        <ele>46.280000000000001</ele>
        <time>2017-06-27T09:25:20Z</time>
      </trkpt>
      <trkpt lat="69.791187029331923" lon="21.073099002242088">
        <ele>44.840000000000003</ele>
        <time>2017-06-27T09:25:31Z</time>
      </trkpt>
      <trkpt lat="69.790789978578687" lon="21.065726028755307">
        <ele>34.259999999999998</ele>
        <time>2017-06-27T09:25:43Z</time>
      </trkpt>
      <trkpt lat="69.790868014097214" lon="21.060421960428357">
        <ele>26.57</ele>
        <time>2017-06-27T09:25:52Z</time>
      </trkpt>
      <trkpt lat="69.790821997448802" lon="21.058289017528296">
        <ele>21.77</ele>
        <time>2017-06-27T09:25:56Z</time>
      </trkpt>
      <trkpt lat="69.79077497497201" lon="21.057772021740675">
        <ele>20.32</ele>
        <time>2017-06-27T09:25:57Z</time>
      </trkpt>
      <trkpt lat="69.79071001522243" lon="21.05724798515439">
        <ele>18.879999999999999</ele>
        <time>2017-06-27T09:25:58Z</time>
      </trkpt>
      <trkpt lat="69.789835028350353" lon="21.051840987056494">
        <ele>12.15</ele>
        <time>2017-06-27T09:26:08Z</time>
      </trkpt>
      <trkpt lat="69.788939002901316" lon="21.049176966771483">
        <ele>7.35</ele>
        <time>2017-06-27T09:26:15Z</time>
      </trkpt>
      <trkpt lat="69.788785027340055" lon="21.048957025632262">
        <ele>7.35</ele>
        <time>2017-06-27T09:26:16Z</time>
      </trkpt>
      <trkpt lat="69.788621999323368" lon="21.048784023150802">
        <ele>7.83</ele>
        <time>2017-06-27T09:26:17Z</time>
      </trkpt>
      <trkpt lat="69.788448996841908" lon="21.048643039539456">
        <ele>7.83</ele>
        <time>2017-06-27T09:26:18Z</time>
      </trkpt>
      <trkpt lat="69.788269037380815" lon="21.048525022342801">
        <ele>7.83</ele>
        <time>2017-06-27T09:26:19Z</time>
      </trkpt>
      <trkpt lat="69.785537961870432" lon="21.046674968674779">
        <ele>8.789999999999999</ele>
        <time>2017-06-27T09:26:33Z</time>
      </trkpt>
      <trkpt lat="69.783819001168013" lon="21.045220959931612">
        <ele>10.23</ele>
        <time>2017-06-27T09:26:42Z</time>
      </trkpt>
      <trkpt lat="69.781539039686322" lon="21.041817991062999">
        <ele>8.789999999999999</ele>
        <time>2017-06-27T09:26:55Z</time>
      </trkpt>
      <trkpt lat="69.779180036857724" lon="21.038498003035784">
        <ele>-0.82</ele>
        <time>2017-06-27T09:27:10Z</time>
      </trkpt>
      <trkpt lat="69.776736963540316" lon="21.035355962812901">
        <ele>-4.67</ele>
        <time>2017-06-27T09:27:25Z</time>
      </trkpt>
      <trkpt lat="69.774578036740422" lon="21.032234039157629">
        <ele>-2.75</ele>
        <time>2017-06-27T09:27:40Z</time>
      </trkpt>
      <trkpt lat="69.773211032152176" lon="21.029803035780787">
        <ele>-3.23</ele>
        <time>2017-06-27T09:27:52Z</time>
      </trkpt>
      <trkpt lat="69.771980987861753" lon="21.028040992096066">
        <ele>-4.67</ele>
        <time>2017-06-27T09:28:03Z</time>
      </trkpt>
      <trkpt lat="69.770151972770691" lon="21.025811992585659">
        <ele>-3.71</ele>
        <time>2017-06-27T09:28:19Z</time>
      </trkpt>
      <trkpt lat="69.768889993429184" lon="21.024799961596727">
        <ele>-3.71</ele>
        <time>2017-06-27T09:28:30Z</time>
      </trkpt>
      <trkpt lat="69.768193960189819" lon="21.024362007156014">
        <ele>-3.23</ele>
        <time>2017-06-27T09:28:36Z</time>
      </trkpt>
      <trkpt lat="69.768096981570125" lon="21.024206019937992">
        <ele>-3.23</ele>
        <time>2017-06-27T09:28:37Z</time>
      </trkpt>
      <trkpt lat="69.768010983243585" lon="21.024021031334996">
        <ele>-3.23</ele>
        <time>2017-06-27T09:28:38Z</time>
      </trkpt>
      <trkpt lat="69.76793403737247" lon="21.023798994719982">
        <ele>-3.23</ele>
        <time>2017-06-27T09:28:39Z</time>
      </trkpt>
      <trkpt lat="69.767863964661956" lon="21.023544017225504">
        <ele>-3.71</ele>
        <time>2017-06-27T09:28:40Z</time>
      </trkpt>
      <trkpt lat="69.76780503988266" lon="21.023264983668923">
        <ele>-3.71</ele>
        <time>2017-06-27T09:28:41Z</time>
      </trkpt>
      <trkpt lat="69.767753994092345" lon="21.02295896038413">
        <ele>-3.71</ele>
        <time>2017-06-27T09:28:42Z</time>
      </trkpt>
      <trkpt lat="69.767716024070978" lon="21.022627037018538">
        <ele>-3.71</ele>
        <time>2017-06-27T09:28:43Z</time>
      </trkpt>
      <trkpt lat="69.767690040171146" lon="21.022263010963798">
        <ele>-3.23</ele>
        <time>2017-06-27T09:28:44Z</time>
      </trkpt>
      <trkpt lat="69.767674030736089" lon="21.021896973252296">
        <ele>-3.71</ele>
        <time>2017-06-27T09:28:45Z</time>
      </trkpt>
      <trkpt lat="69.76757001131773" lon="21.016460973769426">
        <ele>-3.71</ele>
        <time>2017-06-27T09:28:59Z</time>
      </trkpt>
      <trkpt lat="69.767741002142429" lon="21.013498976826668">
        <ele>-4.19</ele>
        <time>2017-06-27T09:29:07Z</time>
      </trkpt>
      <trkpt lat="69.768425971269608" lon="21.009516986086965">
        <ele>-3.23</ele>
        <time>2017-06-27T09:29:20Z</time>
      </trkpt>
      <trkpt lat="69.769208002835512" lon="21.004988998174667">
        <ele>-1.79</ele>
        <time>2017-06-27T09:29:35Z</time>
      </trkpt>
      <trkpt lat="69.76952500641346" lon="21.003198036924005">
        <ele>-0.82</ele>
        <time>2017-06-27T09:29:42Z</time>
      </trkpt>
      <trkpt lat="69.770054994150996" lon="21.000006962567568">
        <ele>-0.82</ele>
        <time>2017-06-27T09:29:52Z</time>
      </trkpt>
      <trkpt lat="69.771133996546268" lon="20.993559015914798">
        <ele>1.58</ele>
        <time>2017-06-27T09:30:12Z</time>
      </trkpt>
      <trkpt lat="69.772033039480448" lon="20.988374976441264">
        <ele>2.54</ele>
        <time>2017-06-27T09:30:26Z</time>
      </trkpt>
      <trkpt lat="69.772816998884082" lon="20.984270023182034">
        <ele>3.02</ele>
        <time>2017-06-27T09:30:36Z</time>
      </trkpt>
      <trkpt lat="69.773663990199566" lon="20.980042023584247">
        <ele>3.5</ele>
        <time>2017-06-27T09:30:47Z</time>
      </trkpt>
      <trkpt lat="69.774520033970475" lon="20.976899983361363">
        <ele>7.83</ele>
        <time>2017-06-27T09:30:55Z</time>
      </trkpt>
      <trkpt lat="69.774588011205196" lon="20.976482983678579">
        <ele>8.310000000000001</ele>
        <time>2017-06-27T09:30:56Z</time>
      </trkpt>
      <trkpt lat="69.774634027853608" lon="20.976071013137698">
        <ele>8.310000000000001</ele>
        <time>2017-06-27T09:30:57Z</time>
      </trkpt>
      <trkpt lat="69.774954970926046" lon="20.973352007567883">
        <ele>10.710000000000001</ele>
        <time>2017-06-27T09:31:04Z</time>
      </trkpt>
      <trkpt lat="69.775037029758096" lon="20.973015977069736">
        <ele>10.710000000000001</ele>
        <time>2017-06-27T09:31:05Z</time>
      </trkpt>
      <trkpt lat="69.77513400837779" lon="20.972696039825678">
        <ele>10.710000000000001</ele>
        <time>2017-06-27T09:31:06Z</time>
      </trkpt>
      <trkpt lat="69.775246996432543" lon="20.972410971298814">
        <ele>10.710000000000001</ele>
        <time>2017-06-27T09:31:07Z</time>
      </trkpt>
      <trkpt lat="69.77537197060883" lon="20.97218600101769">
        <ele>10.710000000000001</ele>
        <time>2017-06-27T09:31:08Z</time>
      </trkpt>
      <trkpt lat="69.775503985583782" lon="20.97199497744441">
        <ele>10.23</ele>
        <time>2017-06-27T09:31:09Z</time>
      </trkpt>
      <trkpt lat="69.775638012215495" lon="20.971831027418375">
        <ele>10.23</ele>
        <time>2017-06-27T09:31:10Z</time>
      </trkpt>
      <trkpt lat="69.776031961664557" lon="20.971312019973993">
        <ele>10.23</ele>
        <time>2017-06-27T09:31:13Z</time>
      </trkpt>
      <trkpt lat="69.776155008003116" lon="20.971071040257812">
        <ele>9.75</ele>
        <time>2017-06-27T09:31:14Z</time>
      </trkpt>
      <trkpt lat="69.776269001886249" lon="20.970780020579696">
        <ele>9.75</ele>
        <time>2017-06-27T09:31:15Z</time>
      </trkpt>
      <trkpt lat="69.776372015476227" lon="20.970451030880213">
        <ele>9.75</ele>
        <time>2017-06-27T09:31:16Z</time>
      </trkpt>
      <trkpt lat="69.776462959125638" lon="20.970069989562035">
        <ele>9.75</ele>
        <time>2017-06-27T09:31:17Z</time>
      </trkpt>
      <trkpt lat="69.776538982987404" lon="20.969665981829166">
        <ele>9.27</ele>
        <time>2017-06-27T09:31:18Z</time>
      </trkpt>
      <trkpt lat="69.77659597992897" lon="20.969281001016498">
        <ele>9.27</ele>
        <time>2017-06-27T09:31:19Z</time>
      </trkpt>
      <trkpt lat="69.777176007628441" lon="20.965373022481799">
        <ele>9.75</ele>
        <time>2017-06-27T09:31:30Z</time>
      </trkpt>
      <trkpt lat="69.777253959327936" lon="20.965061970055103">
        <ele>9.27</ele>
        <time>2017-06-27T09:31:31Z</time>
      </trkpt>
      <trkpt lat="69.777342975139618" lon="20.964771034196019">
        <ele>9.27</ele>
        <time>2017-06-27T09:31:32Z</time>
      </trkpt>
      <trkpt lat="69.778146967291832" lon="20.96303204074502">
        <ele>7.83</ele>
        <time>2017-06-27T09:31:38Z</time>
      </trkpt>
      <trkpt lat="69.779205014929175" lon="20.961257005110383">
        <ele>7.35</ele>
        <time>2017-06-27T09:31:47Z</time>
      </trkpt>
      <trkpt lat="69.78093596175313" lon="20.958405984565616">
        <ele>6.87</ele>
        <time>2017-06-27T09:32:04Z</time>
      </trkpt>
      <trkpt lat="69.782742010429502" lon="20.955445999279618">
        <ele>6.39</ele>
        <time>2017-06-27T09:32:21Z</time>
      </trkpt>
      <trkpt lat="69.784661969169974" lon="20.952272024005651">
        <ele>1.58</ele>
        <time>2017-06-27T09:32:39Z</time>
      </trkpt>
      <trkpt lat="69.786324016749859" lon="20.949565004557371">
        <ele>-0.82</ele>
        <time>2017-06-27T09:32:55Z</time>
      </trkpt>
      <trkpt lat="69.787059025838971" lon="20.948358010500669">
        <ele>-1.3</ele>
        <time>2017-06-27T09:33:05Z</time>
      </trkpt>
      <trkpt lat="69.787408970296383" lon="20.947791980579495">
        <ele>-0.34</ele>
        <time>2017-06-27T09:33:16Z</time>
      </trkpt>
      <trkpt lat="69.787541991099715" lon="20.947610009461641">
        <ele>1.1</ele>
        <time>2017-06-27T09:33:30Z</time>
      </trkpt>
      <trkpt lat="69.787538973614573" lon="20.947615960612893">
        <ele>1.1</ele>
        <time>2017-06-27T09:35:41Z</time>
      </trkpt>
      <trkpt lat="69.787565963342786" lon="20.947594000026584">
        <ele>1.1</ele>
        <time>2017-06-27T09:37:29Z</time>
      </trkpt>
      <trkpt lat="69.788097962737083" lon="20.94681004062295">
        <ele>3.02</ele>
        <time>2017-06-27T09:37:48Z</time>
      </trkpt>
      <trkpt lat="69.7882179915905" lon="20.946580963209271">
        <ele>3.02</ele>
        <time>2017-06-27T09:37:58Z</time>
      </trkpt>
      <trkpt lat="69.78845302015543" lon="20.946180978789926">
        <ele>3.98</ele>
        <time>2017-06-27T09:38:09Z</time>
      </trkpt>
      <trkpt lat="69.788817968219519" lon="20.945645039901137">
        <ele>4.94</ele>
        <time>2017-06-27T09:38:22Z</time>
      </trkpt>
      <trkpt lat="69.789361031726003" lon="20.944897038862109">
        <ele>4.46</ele>
        <time>2017-06-27T09:38:37Z</time>
      </trkpt>
      <trkpt lat="69.790053041651845" lon="20.944030014798045">
        <ele>5.42</ele>
        <time>2017-06-27T09:38:46Z</time>
      </trkpt>
      <trkpt lat="69.791385009884834" lon="20.942270988598466">
        <ele>7.35</ele>
        <time>2017-06-27T09:38:59Z</time>
      </trkpt>
      <trkpt lat="69.792582029476762" lon="20.940673984587193">
        <ele>6.39</ele>
        <time>2017-06-27T09:39:11Z</time>
      </trkpt>
      <trkpt lat="69.792670961469412" lon="20.940496036782861">
        <ele>7.35</ele>
        <time>2017-06-27T09:39:12Z</time>
      </trkpt>
      <trkpt lat="69.792742962017655" lon="20.940283974632621">
        <ele>7.35</ele>
        <time>2017-06-27T09:39:13Z</time>
      </trkpt>
      <trkpt lat="69.792802976444364" lon="20.940052969381213">
        <ele>7.35</ele>
        <time>2017-06-27T09:39:14Z</time>
      </trkpt>
      <trkpt lat="69.792852010577917" lon="20.939805032685399">
        <ele>7.35</ele>
        <time>2017-06-27T09:39:15Z</time>
      </trkpt>
      <trkpt lat="69.792891992256045" lon="20.939538991078734">
        <ele>7.35</ele>
        <time>2017-06-27T09:39:16Z</time>
      </trkpt>
      <trkpt lat="69.792929962277412" lon="20.939266998320818">
        <ele>7.35</ele>
        <time>2017-06-27T09:39:17Z</time>
      </trkpt>
      <trkpt lat="69.793560029938817" lon="20.935811977833509">
        <ele>7.35</ele>
        <time>2017-06-27T09:39:29Z</time>
      </trkpt>
      <trkpt lat="69.793648039922118" lon="20.935601005330682">
        <ele>7.35</ele>
        <time>2017-06-27T09:39:30Z</time>
      </trkpt>
      <trkpt lat="69.793742001056671" lon="20.935419034212828">
        <ele>7.35</ele>
        <time>2017-06-27T09:39:31Z</time>
      </trkpt>
      <trkpt lat="69.79442797601223" lon="20.93437003903091">
        <ele>6.87</ele>
        <time>2017-06-27T09:39:40Z</time>
      </trkpt>
      <trkpt lat="69.794539036229253" lon="20.934225032106042">
        <ele>6.39</ele>
        <time>2017-06-27T09:39:43Z</time>
      </trkpt>
      <trkpt lat="69.795038010925055" lon="20.933694038540125">
        <ele>6.39</ele>
        <time>2017-06-27T09:39:50Z</time>
      </trkpt>
      <trkpt lat="69.795776037499309" lon="20.932898009195924">
        <ele>8.789999999999999</ele>
        <time>2017-06-27T09:39:56Z</time>
      </trkpt>
      <trkpt lat="69.795889025554061" lon="20.932734981179237">
        <ele>9.27</ele>
        <time>2017-06-27T09:39:57Z</time>
      </trkpt>
      <trkpt lat="69.79599597863853" lon="20.932545969262719">
        <ele>9.75</ele>
        <time>2017-06-27T09:39:58Z</time>
      </trkpt>
      <trkpt lat="69.796098992228508" lon="20.932324016466737">
        <ele>10.710000000000001</ele>
        <time>2017-06-27T09:39:59Z</time>
      </trkpt>
      <trkpt lat="69.796194965019822" lon="20.932093011215329">
        <ele>11.67</ele>
        <time>2017-06-27T09:40:00Z</time>
      </trkpt>
      <trkpt lat="69.796288004145026" lon="20.931844990700483">
        <ele>12.15</ele>
        <time>2017-06-27T09:40:01Z</time>
      </trkpt>
      <trkpt lat="69.797546966001391" lon="20.929158004000783">
        <ele>15.039999999999999</ele>
        <time>2017-06-27T09:40:13Z</time>
      </trkpt>
      <trkpt lat="69.798867031931877" lon="20.927657978609204">
        <ele>9.75</ele>
        <time>2017-06-27T09:40:23Z</time>
      </trkpt>
      <trkpt lat="69.800431011244655" lon="20.924471011385322">
        <ele>1.1</ele>
        <time>2017-06-27T09:40:37Z</time>
      </trkpt>
      <trkpt lat="69.800715995952487" lon="20.923885032534599">
        <ele>2.06</ele>
        <time>2017-06-27T09:40:40Z</time>
      </trkpt>
      <trkpt lat="69.800818003714085" lon="20.923766009509563">
        <ele>1.58</ele>
        <time>2017-06-27T09:40:41Z</time>
      </trkpt>
      <trkpt lat="69.800930991768837" lon="20.923700965940952">
        <ele>1.1</ele>
        <time>2017-06-27T09:40:42Z</time>
      </trkpt>
      <trkpt lat="69.801056971773505" lon="20.923686968162656">
        <ele>0.62</ele>
        <time>2017-06-27T09:40:43Z</time>
      </trkpt>
      <trkpt lat="69.801193010061979" lon="20.923696020618081">
        <ele>0.14</ele>
        <time>2017-06-27T09:40:44Z</time>
      </trkpt>
      <trkpt lat="69.802393969148397" lon="20.923487981781363">
        <ele>-1.3</ele>
        <time>2017-06-27T09:40:51Z</time>
      </trkpt>
      <trkpt lat="69.804810974746943" lon="20.922733023762703">
        <ele>0.14</ele>
        <time>2017-06-27T09:41:04Z</time>
      </trkpt>
      <trkpt lat="69.805808002129197" lon="20.922649037092924">
        <ele>3.02</ele>
        <time>2017-06-27T09:41:10Z</time>
      </trkpt>
      <trkpt lat="69.805949991568923" lon="20.922561027109623">
        <ele>3.98</ele>
        <time>2017-06-27T09:41:11Z</time>
      </trkpt>
      <trkpt lat="69.806091981008649" lon="20.922405039891601">
        <ele>4.46</ele>
        <time>2017-06-27T09:41:12Z</time>
      </trkpt>
      <trkpt lat="69.806232964619994" lon="20.922194989398122">
        <ele>5.42</ele>
        <time>2017-06-27T09:41:13Z</time>
      </trkpt>
      <trkpt lat="69.806380989030004" lon="20.921969013288617">
        <ele>6.39</ele>
        <time>2017-06-27T09:41:14Z</time>
      </trkpt>
      <trkpt lat="69.806536976248026" lon="20.921785030514002">
        <ele>6.87</ele>
        <time>2017-06-27T09:41:15Z</time>
      </trkpt>
      <trkpt lat="69.806697992607951" lon="20.921639017760754">
        <ele>7.35</ele>
        <time>2017-06-27T09:41:16Z</time>
      </trkpt>
      <trkpt lat="69.806851968169212" lon="20.921532986685634">
        <ele>8.789999999999999</ele>
        <time>2017-06-27T09:41:17Z</time>
      </trkpt>
      <trkpt lat="69.807197973132133" lon="20.92124599032104">
        <ele>11.19</ele>
        <time>2017-06-27T09:41:20Z</time>
      </trkpt>
      <trkpt lat="69.807278020307422" lon="20.921102995052934">
        <ele>12.15</ele>
        <time>2017-06-27T09:41:21Z</time>
      </trkpt>
      <trkpt lat="69.80734096840024" lon="20.920895040035248">
        <ele>11.67</ele>
        <time>2017-06-27T09:41:22Z</time>
      </trkpt>
      <trkpt lat="69.807396037504077" lon="20.920630004256964">
        <ele>12.15</ele>
        <time>2017-06-27T09:41:23Z</time>
      </trkpt>
      <trkpt lat="69.807448005303741" lon="20.920318029820919">
        <ele>13.119999999999999</ele>
        <time>2017-06-27T09:41:24Z</time>
      </trkpt>
      <trkpt lat="69.807492010295391" lon="20.919973030686378">
        <ele>13.6</ele>
        <time>2017-06-27T09:41:25Z</time>
      </trkpt>
      <trkpt lat="69.807656966149807" lon="20.918879024684429">
        <ele>16</ele>
        <time>2017-06-27T09:41:28Z</time>
      </trkpt>
      <trkpt lat="69.807730978354812" lon="20.918555986136198">
        <ele>16.960000000000001</ele>
        <time>2017-06-27T09:41:29Z</time>
      </trkpt>
      <trkpt lat="69.807818988338113" lon="20.918252980336547">
        <ele>18.399999999999999</ele>
        <time>2017-06-27T09:41:30Z</time>
      </trkpt>
      <trkpt lat="69.80791999027133" lon="20.917990962043405">
        <ele>19.359999999999999</ele>
        <time>2017-06-27T09:41:31Z</time>
      </trkpt>
      <trkpt lat="69.80802996084094" lon="20.917736990377307">
        <ele>20.32</ele>
        <time>2017-06-27T09:41:32Z</time>
      </trkpt>
      <trkpt lat="69.808474034070969" lon="20.916705010458827">
        <ele>24.170000000000002</ele>
        <time>2017-06-27T09:41:36Z</time>
      </trkpt>
      <trkpt lat="69.808604959398508" lon="20.916496971622109">
        <ele>25.609999999999999</ele>
        <time>2017-06-27T09:41:37Z</time>
      </trkpt>
      <trkpt lat="69.808743009343743" lon="20.916347019374371">
        <ele>26.57</ele>
        <time>2017-06-27T09:41:38Z</time>
      </trkpt>
      <trkpt lat="69.808888016268611" lon="20.916236964985728">
        <ele>26.57</ele>
        <time>2017-06-27T09:41:39Z</time>
      </trkpt>
      <trkpt lat="69.80903796851635" lon="20.916183991357684">
        <ele>26.57</ele>
        <time>2017-06-27T09:41:40Z</time>
      </trkpt>
      <trkpt lat="69.809196973219514" lon="20.916193965822458">
        <ele>27.530000000000001</ele>
        <time>2017-06-27T09:41:41Z</time>
      </trkpt>
      <trkpt lat="69.809355977922678" lon="20.916250040754676">
        <ele>28.02</ele>
        <time>2017-06-27T09:41:42Z</time>
      </trkpt>
      <trkpt lat="69.80950802564621" lon="20.916337966918945">
        <ele>28.98</ele>
        <time>2017-06-27T09:41:43Z</time>
      </trkpt>
      <trkpt lat="69.809649009257555" lon="20.916433017700911">
        <ele>30.420000000000002</ele>
        <time>2017-06-27T09:41:44Z</time>
      </trkpt>
      <trkpt lat="69.809894012287259" lon="20.916527984663844">
        <ele>31.859999999999999</ele>
        <time>2017-06-27T09:41:46Z</time>
      </trkpt>
      <trkpt lat="69.81000498868525" lon="20.916483979672194">
        <ele>32.340000000000003</ele>
        <time>2017-06-27T09:41:47Z</time>
      </trkpt>
      <trkpt lat="69.81011001393199" lon="20.916362022981048">
        <ele>33.299999999999997</ele>
        <time>2017-06-27T09:41:48Z</time>
      </trkpt>
      <trkpt lat="69.810206992551684" lon="20.916177034378052">
        <ele>33.780000000000001</ele>
        <time>2017-06-27T09:41:49Z</time>
      </trkpt>
      <trkpt lat="69.810287961736321" lon="20.915924990549684">
        <ele>33.780000000000001</ele>
        <time>2017-06-27T09:41:50Z</time>
      </trkpt>
      <trkpt lat="69.810354011133313" lon="20.915612010285258">
        <ele>34.740000000000002</ele>
        <time>2017-06-27T09:41:51Z</time>
      </trkpt>
      <trkpt lat="69.810402039438486" lon="20.915245972573757">
        <ele>35.710000000000001</ele>
        <time>2017-06-27T09:41:52Z</time>
      </trkpt>
      <trkpt lat="69.810430034995079" lon="20.914838025346398">
        <ele>36.670000000000002</ele>
        <time>2017-06-27T09:41:53Z</time>
      </trkpt>
      <trkpt lat="69.810442021116614" lon="20.914411973208189">
        <ele>37.630000000000003</ele>
        <time>2017-06-27T09:41:54Z</time>
      </trkpt>
      <trkpt lat="69.810446966439486" lon="20.913966977968812">
        <ele>38.590000000000003</ele>
        <time>2017-06-27T09:41:55Z</time>
      </trkpt>
      <trkpt lat="69.810456018894911" lon="20.913528017699718">
        <ele>40.030000000000001</ele>
        <time>2017-06-27T09:41:56Z</time>
      </trkpt>
      <trkpt lat="69.810482002794743" lon="20.913092996925116">
        <ele>40.990000000000002</ele>
        <time>2017-06-27T09:41:57Z</time>
      </trkpt>
      <trkpt lat="69.810530031099916" lon="20.912683038040996">
        <ele>42.920000000000002</ele>
        <time>2017-06-27T09:41:58Z</time>
      </trkpt>
      <trkpt lat="69.810597002506256" lon="20.91230995953083">
        <ele>43.880000000000003</ele>
        <time>2017-06-27T09:41:59Z</time>
      </trkpt>
      <trkpt lat="69.810686018317938" lon="20.911975018680096">
        <ele>44.840000000000003</ele>
        <time>2017-06-27T09:42:00Z</time>
      </trkpt>
      <trkpt lat="69.810802023857832" lon="20.911674024537206">
        <ele>45.799999999999997</ele>
        <time>2017-06-27T09:42:01Z</time>
      </trkpt>
      <trkpt lat="69.810934960842133" lon="20.911407982930541">
        <ele>46.759999999999998</ele>
        <time>2017-06-27T09:42:02Z</time>
      </trkpt>
      <trkpt lat="69.811081979423761" lon="20.911159962415695">
        <ele>48.68</ele>
        <time>2017-06-27T09:42:03Z</time>
      </trkpt>
      <trkpt lat="69.811398983001709" lon="20.91073902323842">
        <ele>50.609999999999999</ele>
        <time>2017-06-27T09:42:05Z</time>
      </trkpt>
      <trkpt lat="69.811566034331918" lon="20.91061002574861">
        <ele>51.57</ele>
        <time>2017-06-27T09:42:06Z</time>
      </trkpt>
      <trkpt lat="69.811736019328237" lon="20.910555962473154">
        <ele>52.530000000000001</ele>
        <time>2017-06-27T09:42:07Z</time>
      </trkpt>
      <trkpt lat="69.811911033466458" lon="20.910558979958296">
        <ele>53.490000000000002</ele>
        <time>2017-06-27T09:42:08Z</time>
      </trkpt>
      <trkpt lat="69.81208898127079" lon="20.910608014091849">
        <ele>54.93</ele>
        <time>2017-06-27T09:42:09Z</time>
      </trkpt>
      <trkpt lat="69.812265001237392" lon="20.910682026296854">
        <ele>55.890000000000001</ele>
        <time>2017-06-27T09:42:10Z</time>
      </trkpt>
      <trkpt lat="69.812714019790292" lon="20.910822004079819">
        <ele>58.780000000000001</ele>
        <time>2017-06-27T09:42:13Z</time>
      </trkpt>
      <trkpt lat="69.812838993966579" lon="20.910737011581659">
        <ele>59.740000000000002</ele>
        <time>2017-06-27T09:42:14Z</time>
      </trkpt>
      <trkpt lat="69.812958016991615" lon="20.91056602075696">
        <ele>60.700000000000003</ele>
        <time>2017-06-27T09:42:15Z</time>
      </trkpt>
      <trkpt lat="69.813073016703129" lon="20.910326968878508">
        <ele>61.659999999999997</ele>
        <time>2017-06-27T09:42:16Z</time>
      </trkpt>
      <trkpt lat="69.813187010586262" lon="20.910051036626101">
        <ele>62.619999999999997</ele>
        <time>2017-06-27T09:42:17Z</time>
      </trkpt>
      <trkpt lat="69.814199963584542" lon="20.907364971935749">
        <ele>71.760000000000005</ele>
        <time>2017-06-27T09:42:25Z</time>
      </trkpt>
      <trkpt lat="69.814362991601229" lon="20.907106976956129">
        <ele>73.200000000000003</ele>
        <time>2017-06-27T09:42:26Z</time>
      </trkpt>
      <trkpt lat="69.81453699991107" lon="20.906887035816908">
        <ele>74.640000000000001</ele>
        <time>2017-06-27T09:42:27Z</time>
      </trkpt>
      <trkpt lat="69.81471000239253" lon="20.906714033335447">
        <ele>75.599999999999994</ele>
        <time>2017-06-27T09:42:28Z</time>
      </trkpt>
      <trkpt lat="69.814874958246946" lon="20.90656902641058">
        <ele>77.040000000000006</ele>
        <time>2017-06-27T09:42:29Z</time>
      </trkpt>
      <trkpt lat="69.815149968490005" lon="20.906295021995902">
        <ele>78.969999999999999</ele>
        <time>2017-06-27T09:42:31Z</time>
      </trkpt>
      <trkpt lat="69.815248036757112" lon="20.906107015907764">
        <ele>79.450000000000003</ele>
        <time>2017-06-27T09:42:32Z</time>
      </trkpt>
      <trkpt lat="69.815318025648594" lon="20.905875004827976">
        <ele>80.409999999999997</ele>
        <time>2017-06-27T09:42:33Z</time>
      </trkpt>
      <trkpt lat="69.815352978184819" lon="20.905593037605286">
        <ele>80.890000000000001</ele>
        <time>2017-06-27T09:42:34Z</time>
      </trkpt>
      <trkpt lat="69.815362030640244" lon="20.90530302375555">
        <ele>81.849999999999994</ele>
        <time>2017-06-27T09:42:35Z</time>
      </trkpt>
      <trkpt lat="69.815351972356439" lon="20.905028013512492">
        <ele>82.329999999999998</ele>
        <time>2017-06-27T09:42:36Z</time>
      </trkpt>
      <trkpt lat="69.815329005941749" lon="20.904774041846395">
        <ele>82.329999999999998</ele>
        <time>2017-06-27T09:42:37Z</time>
      </trkpt>
      <trkpt lat="69.815264968201518" lon="20.903126997873187">
        <ele>87.620000000000005</ele>
        <time>2017-06-27T09:42:45Z</time>
      </trkpt>
      <trkpt lat="69.815258011221886" lon="20.902514029294252">
        <ele>89.540000000000006</ele>
        <time>2017-06-27T09:42:53Z</time>
      </trkpt>
      <trkpt lat="69.815234038978815" lon="20.901889996603131">
        <ele>90.5</ele>
        <time>2017-06-27T09:43:51Z</time>
      </trkpt>
      <trkpt lat="69.815266979858279" lon="20.901640970259905">
        <ele>90.980000000000004</ele>
        <time>2017-06-27T09:43:52Z</time>
      </trkpt>
      <trkpt lat="69.815319031476974" lon="20.901402002200484">
        <ele>90.980000000000004</ele>
        <time>2017-06-27T09:43:53Z</time>
      </trkpt>
      <trkpt lat="69.815392037853599" lon="20.90117996558547">
        <ele>91.459999999999994</ele>
        <time>2017-06-27T09:43:54Z</time>
      </trkpt>
      <trkpt lat="69.81548398733139" lon="20.900993971154094">
        <ele>91.459999999999994</ele>
        <time>2017-06-27T09:43:55Z</time>
      </trkpt>
      <trkpt lat="69.815600998699665" lon="20.900865979492664">
        <ele>93.870000000000005</ele>
        <time>2017-06-27T09:43:56Z</time>
      </trkpt>
      <trkpt lat="69.815722033381462" lon="20.900779981166124">
        <ele>94.349999999999994</ele>
        <time>2017-06-27T09:43:57Z</time>
      </trkpt>
      <trkpt lat="69.815849019214511" lon="20.900702029466629">
        <ele>95.310000000000002</ele>
        <time>2017-06-27T09:43:58Z</time>
      </trkpt>
      <trkpt lat="69.816122017800808" lon="20.900487033650279">
        <ele>97.230000000000004</ele>
        <time>2017-06-27T09:44:00Z</time>
      </trkpt>
      <trkpt lat="69.816267024725676" lon="20.900287041440606">
        <ele>98.189999999999998</ele>
        <time>2017-06-27T09:44:01Z</time>
      </trkpt>
      <trkpt lat="69.817595975473523" lon="20.898402035236359">
        <ele>107.31999999999999</ele>
        <time>2017-06-27T09:44:09Z</time>
      </trkpt>
      <trkpt lat="69.818125041201711" lon="20.897821001708508">
        <ele>111.17</ele>
        <time>2017-06-27T09:44:13Z</time>
      </trkpt>
      <trkpt lat="69.818240040913224" lon="20.897624026983976">
        <ele>112.13</ele>
        <time>2017-06-27T09:44:14Z</time>
      </trkpt>
      <trkpt lat="69.818349005654454" lon="20.897391010075808">
        <ele>112.61</ele>
        <time>2017-06-27T09:44:15Z</time>
      </trkpt>
      <trkpt lat="69.818437015637755" lon="20.897080963477492">
        <ele>113.09</ele>
        <time>2017-06-27T09:44:16Z</time>
      </trkpt>
      <trkpt lat="69.818502981215715" lon="20.896705035120249">
        <ele>114.53</ele>
        <time>2017-06-27T09:44:17Z</time>
      </trkpt>
      <trkpt lat="69.818558972328901" lon="20.896260961890221">
        <ele>115.5</ele>
        <time>2017-06-27T09:44:18Z</time>
      </trkpt>
      <trkpt lat="69.818616975098848" lon="20.895772967487574">
        <ele>116.94</ele>
        <time>2017-06-27T09:44:19Z</time>
      </trkpt>
      <trkpt lat="69.818846974521875" lon="20.894337985664606">
        <ele>120.78</ele>
        <time>2017-06-27T09:44:22Z</time>
      </trkpt>
      <trkpt lat="69.818945964798331" lon="20.893920985981822">
        <ele>122.22</ele>
        <time>2017-06-27T09:44:23Z</time>
      </trkpt>
      <trkpt lat="69.819058030843735" lon="20.893527958542109">
        <ele>123.67</ele>
        <time>2017-06-27T09:44:24Z</time>
      </trkpt>
      <trkpt lat="69.819191973656416" lon="20.893154041841626">
        <ele>125.11</ele>
        <time>2017-06-27T09:44:25Z</time>
      </trkpt>
      <trkpt lat="69.819338992238045" lon="20.892802001908422">
        <ele>126.55</ele>
        <time>2017-06-27T09:44:26Z</time>
      </trkpt>
      <trkpt lat="69.819491961970925" lon="20.892458008602262">
        <ele>127.98999999999999</ele>
        <time>2017-06-27T09:44:27Z</time>
      </trkpt>
      <trkpt lat="69.819773007184267" lon="20.89172501116991">
        <ele>130.88</ele>
        <time>2017-06-27T09:44:29Z</time>
      </trkpt>
      <trkpt lat="69.819880966097116" lon="20.891323015093803">
        <ele>131.84</ele>
        <time>2017-06-27T09:44:30Z</time>
      </trkpt>
      <trkpt lat="69.820093028247356" lon="20.890503013506532">
        <ele>134.24000000000001</ele>
        <time>2017-06-27T09:44:32Z</time>
      </trkpt>
      <trkpt lat="69.820223031565547" lon="20.890139993280172">
        <ele>136.16</ele>
        <time>2017-06-27T09:44:33Z</time>
      </trkpt>
      <trkpt lat="69.820367032662034" lon="20.889831958338618">
        <ele>137.13</ele>
        <time>2017-06-27T09:44:34Z</time>
      </trkpt>
      <trkpt lat="69.820520002394915" lon="20.889573963358998">
        <ele>138.56999999999999</ele>
        <time>2017-06-27T09:44:35Z</time>
      </trkpt>
      <trkpt lat="69.820667020976543" lon="20.889338012784719">
        <ele>139.53</ele>
        <time>2017-06-27T09:44:36Z</time>
      </trkpt>
      <trkpt lat="69.820794006809592" lon="20.889092003926635">
        <ele>139.05000000000001</ele>
        <time>2017-06-27T09:44:37Z</time>
      </trkpt>
      <trkpt lat="69.820894002914429" lon="20.888799978420138">
        <ele>139.05000000000001</ele>
        <time>2017-06-27T09:44:38Z</time>
      </trkpt>
      <trkpt lat="69.820970026776195" lon="20.888454979285598">
        <ele>140.00999999999999</ele>
        <time>2017-06-27T09:44:39Z</time>
      </trkpt>
      <trkpt lat="69.821014031767845" lon="20.888054994866252">
        <ele>140.97</ele>
        <time>2017-06-27T09:44:40Z</time>
      </trkpt>
      <trkpt lat="69.821038004010916" lon="20.887609999626875">
        <ele>142.41</ele>
        <time>2017-06-27T09:44:41Z</time>
      </trkpt>
      <trkpt lat="69.821034986525774" lon="20.887127034366131">
        <ele>142.88999999999999</ele>
        <time>2017-06-27T09:44:42Z</time>
      </trkpt>
      <trkpt lat="69.821015959605575" lon="20.886623030528426">
        <ele>144.34</ele>
        <time>2017-06-27T09:44:43Z</time>
      </trkpt>
      <trkpt lat="69.820972038432956" lon="20.886080972850323">
        <ele>145.30000000000001</ele>
        <time>2017-06-27T09:44:44Z</time>
      </trkpt>
      <trkpt lat="69.820914035663009" lon="20.885526007041335">
        <ele>146.74000000000001</ele>
        <time>2017-06-27T09:44:45Z</time>
      </trkpt>
      <trkpt lat="69.820841029286385" lon="20.884950002655387">
        <ele>147.69999999999999</ele>
        <time>2017-06-27T09:44:46Z</time>
      </trkpt>
      <trkpt lat="69.820411959663033" lon="20.880112973973155">
        <ele>160.68000000000001</ele>
        <time>2017-06-27T09:44:54Z</time>
      </trkpt>
      <trkpt lat="69.820420006290078" lon="20.879548033699393">
        <ele>162.12</ele>
        <time>2017-06-27T09:44:55Z</time>
      </trkpt>
      <trkpt lat="69.820441966876388" lon="20.878076003864408">
        <ele>166.44999999999999</ele>
        <time>2017-06-27T09:44:58Z</time>
      </trkpt>
      <trkpt lat="69.820409025996923" lon="20.877625979483128">
        <ele>167.41</ele>
        <time>2017-06-27T09:44:59Z</time>
      </trkpt>
      <trkpt lat="69.820346999913454" lon="20.877197999507189">
        <ele>168.84999999999999</ele>
        <time>2017-06-27T09:45:00Z</time>
      </trkpt>
      <trkpt lat="69.820256978273392" lon="20.876810001209378">
        <ele>170.28999999999999</ele>
        <time>2017-06-27T09:45:01Z</time>
      </trkpt>
      <trkpt lat="69.820141978561878" lon="20.876453015953302">
        <ele>171.72999999999999</ele>
        <time>2017-06-27T09:45:02Z</time>
      </trkpt>
      <trkpt lat="69.820010969415307" lon="20.876118997111917">
        <ele>173.16999999999999</ele>
        <time>2017-06-27T09:45:03Z</time>
      </trkpt>
      <trkpt lat="69.81986696831882" lon="20.87580299936235">
        <ele>174.62</ele>
        <time>2017-06-27T09:45:04Z</time>
      </trkpt>
      <trkpt lat="69.818397033959627" lon="20.871989987790585">
        <ele>191.44</ele>
        <time>2017-06-27T09:45:14Z</time>
      </trkpt>
      <trkpt lat="69.817751962691545" lon="20.869645988568664">
        <ele>200.09</ele>
        <time>2017-06-27T09:45:19Z</time>
      </trkpt>
      <trkpt lat="69.817663030698895" lon="20.869097979739308">
        <ele>202.00999999999999</ele>
        <time>2017-06-27T09:45:20Z</time>
      </trkpt>
      <trkpt lat="69.817594969645143" lon="20.868532033637166">
        <ele>204.41999999999999</ele>
        <time>2017-06-27T09:45:21Z</time>
      </trkpt>
      <trkpt lat="69.817546019330621" lon="20.867958040907979">
        <ele>206.34</ele>
        <time>2017-06-27T09:45:22Z</time>
      </trkpt>
      <trkpt lat="69.817517017945647" lon="20.867412965744734">
        <ele>208.25999999999999</ele>
        <time>2017-06-27T09:45:23Z</time>
      </trkpt>
      <trkpt lat="69.817510982975364" lon="20.86688700132072">
        <ele>209.69999999999999</ele>
        <time>2017-06-27T09:45:24Z</time>
      </trkpt>
      <trkpt lat="69.817521963268518" lon="20.866360031068325">
        <ele>210.66999999999999</ele>
        <time>2017-06-27T09:45:25Z</time>
      </trkpt>
      <trkpt lat="69.817550964653492" lon="20.865814033895731">
        <ele>211.15000000000001</ele>
        <time>2017-06-27T09:45:26Z</time>
      </trkpt>
      <trkpt lat="69.817593041807413" lon="20.865259990096092">
        <ele>211.63</ele>
        <time>2017-06-27T09:45:27Z</time>
      </trkpt>
      <trkpt lat="69.818176003172994" lon="20.861133998259902">
        <ele>211.63</ele>
        <time>2017-06-27T09:45:34Z</time>
      </trkpt>
      <trkpt lat="69.818853009492159" lon="20.855763964354992">
        <ele>208.74000000000001</ele>
        <time>2017-06-27T09:45:43Z</time>
      </trkpt>
      <trkpt lat="69.819390038028359" lon="20.851670997217298">
        <ele>201.05000000000001</ele>
        <time>2017-06-27T09:45:50Z</time>
      </trkpt>
      <trkpt lat="69.819924971088767" lon="20.849149972200394">
        <ele>196.72999999999999</ele>
        <time>2017-06-27T09:45:55Z</time>
      </trkpt>
      <trkpt lat="69.820060003548861" lon="20.848788963630795">
        <ele>196.25</ele>
        <time>2017-06-27T09:45:56Z</time>
      </trkpt>
      <trkpt lat="69.820210039615631" lon="20.848487969487906">
        <ele>195.28</ele>
        <time>2017-06-27T09:45:57Z</time>
      </trkpt>
      <trkpt lat="69.820370972156525" lon="20.848254030570388">
        <ele>194.31999999999999</ele>
        <time>2017-06-27T09:45:58Z</time>
      </trkpt>
      <trkpt lat="69.820526037365198" lon="20.848054960370064">
        <ele>194.31999999999999</ele>
        <time>2017-06-27T09:45:59Z</time>
      </trkpt>
      <trkpt lat="69.820657968521118" lon="20.847856979817152">
        <ele>193.36000000000001</ele>
        <time>2017-06-27T09:46:00Z</time>
      </trkpt>
      <trkpt lat="69.820763999596238" lon="20.847625974565744">
        <ele>192.40000000000001</ele>
        <time>2017-06-27T09:46:01Z</time>
      </trkpt>
      <trkpt lat="69.82085301540792" lon="20.847343001514673">
        <ele>192.40000000000001</ele>
        <time>2017-06-27T09:46:02Z</time>
      </trkpt>
      <trkpt lat="69.820930967107415" lon="20.847010994330049">
        <ele>191.44</ele>
        <time>2017-06-27T09:46:03Z</time>
      </trkpt>
      <trkpt lat="69.821002967655659" lon="20.846630958840251">
        <ele>190.47999999999999</ele>
        <time>2017-06-27T09:46:04Z</time>
      </trkpt>
      <trkpt lat="69.821085026487708" lon="20.846228040754795">
        <ele>189.03999999999999</ele>
        <time>2017-06-27T09:46:05Z</time>
      </trkpt>
      <trkpt lat="69.821191979572177" lon="20.845844987779856">
        <ele>188.56</ele>
        <time>2017-06-27T09:46:06Z</time>
      </trkpt>
      <trkpt lat="69.821321982890368" lon="20.845493031665683">
        <ele>187.59</ele>
        <time>2017-06-27T09:46:07Z</time>
      </trkpt>
      <trkpt lat="69.82147503644228" lon="20.845184996724129">
        <ele>187.11000000000001</ele>
        <time>2017-06-27T09:46:08Z</time>
      </trkpt>
      <trkpt lat="69.821639992296696" lon="20.844895988702774">
        <ele>186.15000000000001</ele>
        <time>2017-06-27T09:46:09Z</time>
      </trkpt>
      <trkpt lat="69.82181902974844" lon="20.844614021480083">
        <ele>185.19</ele>
        <time>2017-06-27T09:46:10Z</time>
      </trkpt>
      <trkpt lat="69.823078997433186" lon="20.842252001166344">
        <ele>176.53999999999999</ele>
        <time>2017-06-27T09:46:17Z</time>
      </trkpt>
      <trkpt lat="69.824434015899897" lon="20.840864963829517">
        <ele>170.77000000000001</ele>
        <time>2017-06-27T09:46:24Z</time>
      </trkpt>
      <trkpt lat="69.825050001963973" lon="20.840230034664273">
        <ele>167.88999999999999</ele>
        <time>2017-06-27T09:46:28Z</time>
      </trkpt>
      <trkpt lat="69.825159972533584" lon="20.840017972514033">
        <ele>167.41</ele>
        <time>2017-06-27T09:46:29Z</time>
      </trkpt>
      <trkpt lat="69.825240019708872" lon="20.839747991412878">
        <ele>166.44999999999999</ele>
        <time>2017-06-27T09:46:30Z</time>
      </trkpt>
      <trkpt lat="69.825295004993677" lon="20.83945001475513">
        <ele>165.96000000000001</ele>
        <time>2017-06-27T09:46:31Z</time>
      </trkpt>
      <trkpt lat="69.825316965579987" lon="20.839143991470337">
        <ele>165.96000000000001</ele>
        <time>2017-06-27T09:46:32Z</time>
      </trkpt>
      <trkpt lat="69.825310008600354" lon="20.83882799372077">
        <ele>165.47999999999999</ele>
        <time>2017-06-27T09:46:33Z</time>
      </trkpt>
      <trkpt lat="69.825286958366632" lon="20.838493974879384">
        <ele>165</ele>
        <time>2017-06-27T09:46:34Z</time>
      </trkpt>
      <trkpt lat="69.825256029143929" lon="20.838132966309786">
        <ele>164.52000000000001</ele>
        <time>2017-06-27T09:46:35Z</time>
      </trkpt>
      <trkpt lat="69.824812961742282" lon="20.835658041760325">
        <ele>157.31</ele>
        <time>2017-06-27T09:46:41Z</time>
      </trkpt>
      <trkpt lat="69.823745023459196" lon="20.831156959757209">
        <ele>140.97</ele>
        <time>2017-06-27T09:46:50Z</time>
      </trkpt>
      <trkpt lat="69.823483005166054" lon="20.830305023118854">
        <ele>137.61000000000001</ele>
        <time>2017-06-27T09:46:52Z</time>
      </trkpt>
      <trkpt lat="69.823337998241186" lon="20.829958012327552">
        <ele>136.16</ele>
        <time>2017-06-27T09:46:53Z</time>
      </trkpt>
      <trkpt lat="69.822885962203145" lon="20.82898898050189">
        <ele>131.36000000000001</ele>
        <time>2017-06-27T09:46:56Z</time>
      </trkpt>
      <trkpt lat="69.822760988026857" lon="20.828580027446151">
        <ele>129.91999999999999</ele>
        <time>2017-06-27T09:46:57Z</time>
      </trkpt>
      <trkpt lat="69.822655962780118" lon="20.8281060308218">
        <ele>128.94999999999999</ele>
        <time>2017-06-27T09:46:58Z</time>
      </trkpt>
      <trkpt lat="69.822568036615849" lon="20.82759297452867">
        <ele>127.51000000000001</ele>
        <time>2017-06-27T09:46:59Z</time>
      </trkpt>
      <trkpt lat="69.82248798944056" lon="20.827045971527696">
        <ele>126.06999999999999</ele>
        <time>2017-06-27T09:47:00Z</time>
      </trkpt>
      <trkpt lat="69.822075013071299" lon="20.824598036706448">
        <ele>120.3</ele>
        <time>2017-06-27T09:47:05Z</time>
      </trkpt>
      <trkpt lat="69.822019021958113" lon="20.824095038697124">
        <ele>119.34</ele>
        <time>2017-06-27T09:47:06Z</time>
      </trkpt>
      <trkpt lat="69.821473024785519" lon="20.820153029635549">
        <ele>110.69</ele>
        <time>2017-06-27T09:47:15Z</time>
      </trkpt>
      <trkpt lat="69.820972960442305" lon="20.816903030499816">
        <ele>103.95999999999999</ele>
        <time>2017-06-27T09:47:24Z</time>
      </trkpt>
      <trkpt lat="69.820541962981224" lon="20.814756006002426">
        <ele>99.629999999999995</ele>
        <time>2017-06-27T09:47:32Z</time>
      </trkpt>
      <trkpt lat="69.820474991574883" lon="20.814572023227811">
        <ele>99.150000000000006</ele>
        <time>2017-06-27T09:47:33Z</time>
      </trkpt>
      <trkpt lat="69.82040299102664" lon="20.814417963847518">
        <ele>98.670000000000002</ele>
        <time>2017-06-27T09:47:34Z</time>
      </trkpt>
      <trkpt lat="69.820322021842003" lon="20.814284021034837">
        <ele>98.189999999999998</ele>
        <time>2017-06-27T09:47:35Z</time>
      </trkpt>
      <trkpt lat="69.820238035172224" lon="20.814178995788097">
        <ele>97.709999999999994</ele>
        <time>2017-06-27T09:47:36Z</time>
      </trkpt>
      <trkpt lat="69.820149019360542" lon="20.814094003289938">
        <ele>97.230000000000004</ele>
        <time>2017-06-27T09:47:37Z</time>
      </trkpt>
      <trkpt lat="69.820060003548861" lon="20.814038012176752">
        <ele>96.75</ele>
        <time>2017-06-27T09:47:38Z</time>
      </trkpt>
      <trkpt lat="69.819965958595276" lon="20.81399199552834">
        <ele>96.269999999999996</ele>
        <time>2017-06-27T09:47:39Z</time>
      </trkpt>
      <trkpt lat="69.819686003029346" lon="20.81384195946157">
        <ele>94.349999999999994</ele>
        <time>2017-06-27T09:47:42Z</time>
      </trkpt>
      <trkpt lat="69.819594975560904" lon="20.813740035519004">
        <ele>94.349999999999994</ele>
        <time>2017-06-27T09:47:43Z</time>
      </trkpt>
      <trkpt lat="69.819510988891125" lon="20.813616989180446">
        <ele>93.870000000000005</ele>
        <time>2017-06-27T09:47:44Z</time>
      </trkpt>
      <trkpt lat="69.819096000865102" lon="20.812951968982816">
        <ele>93.870000000000005</ele>
        <time>2017-06-27T09:47:51Z</time>
      </trkpt>
      <trkpt lat="69.819059036672115" lon="20.812877034768462">
        <ele>93.870000000000005</ele>
        <time>2017-06-27T09:47:52Z</time>
      </trkpt>
      <trkpt lat="69.819021988660097" lon="20.812774021178484">
        <ele>93.870000000000005</ele>
        <time>2017-06-27T09:47:53Z</time>
      </trkpt>
      <trkpt lat="69.818990975618362" lon="20.812641000375152">
        <ele>94.349999999999994</ele>
        <time>2017-06-27T09:47:54Z</time>
      </trkpt>
      <trkpt lat="69.818968009203672" lon="20.812476966530085">
        <ele>94.349999999999994</ele>
        <time>2017-06-27T09:47:55Z</time>
      </trkpt>
      <trkpt lat="69.818959962576628" lon="20.812288960441947">
        <ele>94.349999999999994</ele>
        <time>2017-06-27T09:47:56Z</time>
      </trkpt>
      <trkpt lat="69.818973038345575" lon="20.812086034566164">
        <ele>94.349999999999994</ele>
        <time>2017-06-27T09:47:57Z</time>
      </trkpt>
      <trkpt lat="69.819002961739898" lon="20.811871038749814">
        <ele>94.349999999999994</ele>
        <time>2017-06-27T09:47:58Z</time>
      </trkpt>
      <trkpt lat="69.819045960903168" lon="20.811656964942813">
        <ele>93.870000000000005</ele>
        <time>2017-06-27T09:47:59Z</time>
      </trkpt>
      <trkpt lat="69.819093989208341" lon="20.811455966904759">
        <ele>93.390000000000001</ele>
        <time>2017-06-27T09:48:00Z</time>
      </trkpt>
      <trkpt lat="69.819624982774258" lon="20.809367028996348">
        <ele>92.900000000000006</ele>
        <time>2017-06-27T09:48:10Z</time>
      </trkpt>
      <trkpt lat="69.819673011079431" lon="20.809110039845109">
        <ele>92.900000000000006</ele>
        <time>2017-06-27T09:48:11Z</time>
      </trkpt>
      <trkpt lat="69.819712992757559" lon="20.808832012116909">
        <ele>92.900000000000006</ele>
        <time>2017-06-27T09:48:12Z</time>
      </trkpt>
      <trkpt lat="69.819744005799294" lon="20.80853596329689">
        <ele>92.900000000000006</ele>
        <time>2017-06-27T09:48:13Z</time>
      </trkpt>
      <trkpt lat="69.819761021062732" lon="20.808206973597407">
        <ele>92.900000000000006</ele>
        <time>2017-06-27T09:48:14Z</time>
      </trkpt>
      <trkpt lat="69.819765966385603" lon="20.807859040796757">
        <ele>92.420000000000002</ele>
        <time>2017-06-27T09:48:15Z</time>
      </trkpt>
      <trkpt lat="69.819761021062732" lon="20.807498032227159">
        <ele>91.939999999999998</ele>
        <time>2017-06-27T09:48:16Z</time>
      </trkpt>
      <trkpt lat="69.819770995527506" lon="20.806456999853253">
        <ele>90.5</ele>
        <time>2017-06-27T09:48:19Z</time>
      </trkpt>
      <trkpt lat="69.819794967770576" lon="20.806092973798513">
        <ele>90.019999999999996</ele>
        <time>2017-06-27T09:48:20Z</time>
      </trkpt>
      <trkpt lat="69.819834027439356" lon="20.805745963007212">
        <ele>89.540000000000006</ele>
        <time>2017-06-27T09:48:21Z</time>
      </trkpt>
      <trkpt lat="69.819892030209303" lon="20.805389983579516">
        <ele>89.540000000000006</ele>
        <time>2017-06-27T09:48:22Z</time>
      </trkpt>
      <trkpt lat="69.81997299939394" lon="20.805015983060002">
        <ele>89.540000000000006</ele>
        <time>2017-06-27T09:48:23Z</time>
      </trkpt>
      <trkpt lat="69.820074001327157" lon="20.804631002247334">
        <ele>89.060000000000002</ele>
        <time>2017-06-27T09:48:24Z</time>
      </trkpt>
      <trkpt lat="69.820189001038671" lon="20.804245015606284">
        <ele>88.579999999999998</ele>
        <time>2017-06-27T09:48:25Z</time>
      </trkpt>
      <trkpt lat="69.820309029892087" lon="20.803880989551544">
        <ele>88.099999999999994</ele>
        <time>2017-06-27T09:48:26Z</time>
      </trkpt>
      <trkpt lat="69.82070499099791" lon="20.802825959399343">
        <ele>87.620000000000005</ele>
        <time>2017-06-27T09:48:31Z</time>
      </trkpt>
      <trkpt lat="69.820911018177867" lon="20.802234029397368">
        <ele>88.099999999999994</ele>
        <time>2017-06-27T09:48:40Z</time>
      </trkpt>
      <trkpt lat="69.820938007906079" lon="20.802191030234098">
        <ele>88.099999999999994</ele>
        <time>2017-06-27T09:48:53Z</time>
      </trkpt>
      <trkpt lat="69.820964997634292" lon="20.80202498473227">
        <ele>88.579999999999998</ele>
        <time>2017-06-27T09:49:12Z</time>
      </trkpt>
      <trkpt lat="69.821106987074018" lon="20.800717994570732">
        <ele>87.620000000000005</ele>
        <time>2017-06-27T09:49:19Z</time>
      </trkpt>
      <trkpt lat="69.821234978735447" lon="20.798439038917422">
        <ele>85.209999999999994</ele>
        <time>2017-06-27T09:49:34Z</time>
      </trkpt>
      <trkpt lat="69.821332041174173" lon="20.795746017247438">
        <ele>79.930000000000007</ele>
        <time>2017-06-27T09:49:50Z</time>
      </trkpt>
      <trkpt lat="69.82143203727901" lon="20.793351978063583">
        <ele>76.560000000000002</ele>
        <time>2017-06-27T09:50:08Z</time>
      </trkpt>
      <trkpt lat="69.821389960125089" lon="20.791150974109769">
        <ele>72.239999999999995</ele>
        <time>2017-06-27T09:50:21Z</time>
      </trkpt>
      <trkpt lat="69.821117967367172" lon="20.787860993295908">
        <ele>63.579999999999998</ele>
        <time>2017-06-27T09:50:36Z</time>
      </trkpt>
      <trkpt lat="69.820818984881043" lon="20.784747032448649">
        <ele>56.369999999999997</ele>
        <time>2017-06-27T09:50:52Z</time>
      </trkpt>
      <trkpt lat="69.820568030700088" lon="20.782401021569967">
        <ele>52.049999999999997</ele>
        <time>2017-06-27T09:51:06Z</time>
      </trkpt>
      <trkpt lat="69.820063021034002" lon="20.7797019649297">
        <ele>45.32</ele>
        <time>2017-06-27T09:51:25Z</time>
      </trkpt>
      <trkpt lat="69.819433037191629" lon="20.777668012306094">
        <ele>39.549999999999997</ele>
        <time>2017-06-27T09:51:38Z</time>
      </trkpt>
      <trkpt lat="69.818581016734242" lon="20.7755540125072">
        <ele>32.82</ele>
        <time>2017-06-27T09:51:52Z</time>
      </trkpt>
      <trkpt lat="69.817732013761997" lon="20.773603962734342">
        <ele>26.57</ele>
        <time>2017-06-27T09:51:59Z</time>
      </trkpt>
      <trkpt lat="69.816259983927011" lon="20.769999995827675">
        <ele>17.920000000000002</ele>
        <time>2017-06-27T09:52:08Z</time>
      </trkpt>
      <trkpt lat="69.814063003286719" lon="20.763532016426325">
        <ele>17.440000000000001</ele>
        <time>2017-06-27T09:52:21Z</time>
      </trkpt>
      <trkpt lat="69.811741970479488" lon="20.757767027243972">
        <ele>16.48</ele>
        <time>2017-06-27T09:52:34Z</time>
      </trkpt>
      <trkpt lat="69.80957499705255" lon="20.752404034137726">
        <ele>12.15</ele>
        <time>2017-06-27T09:52:46Z</time>
      </trkpt>
      <trkpt lat="69.807507013902068" lon="20.747271040454507">
        <ele>16.48</ele>
        <time>2017-06-27T09:52:58Z</time>
      </trkpt>
      <trkpt lat="69.805715968832374" lon="20.742205018177629">
        <ele>13.119999999999999</ele>
        <time>2017-06-27T09:53:09Z</time>
      </trkpt>
      <trkpt lat="69.804215021431446" lon="20.735561018809676">
        <ele>2.54</ele>
        <time>2017-06-27T09:53:20Z</time>
      </trkpt>
      <trkpt lat="69.802595973014832" lon="20.727182971313596">
        <ele>-1.79</ele>
        <time>2017-06-27T09:53:34Z</time>
      </trkpt>
      <trkpt lat="69.801374981179833" lon="20.720979021862149">
        <ele>0.62</ele>
        <time>2017-06-27T09:53:45Z</time>
      </trkpt>
      <trkpt lat="69.800984971225262" lon="20.719742020592093">
        <ele>-0.34</ele>
        <time>2017-06-27T09:53:48Z</time>
      </trkpt>
      <trkpt lat="69.800830995664001" lon="20.719383023679256">
        <ele>-0.82</ele>
        <time>2017-06-27T09:53:49Z</time>
      </trkpt>
      <trkpt lat="69.800668973475695" lon="20.719042969867587">
        <ele>-1.3</ele>
        <time>2017-06-27T09:53:50Z</time>
      </trkpt>
      <trkpt lat="69.799383021891117" lon="20.717288972809911">
        <ele>-1.79</ele>
        <time>2017-06-27T09:53:57Z</time>
      </trkpt>
      <trkpt lat="69.797123009338975" lon="20.716201001778245">
        <ele>-0.34</ele>
        <time>2017-06-27T09:54:08Z</time>
      </trkpt>
      <trkpt lat="69.793752981349826" lon="20.714151039719582">
        <ele>-1.3</ele>
        <time>2017-06-27T09:54:25Z</time>
      </trkpt>
      <trkpt lat="69.792888974770904" lon="20.712290005758405">
        <ele>-0.82</ele>
        <time>2017-06-27T09:54:30Z</time>
      </trkpt>
      <trkpt lat="69.792745979502797" lon="20.711809974163771">
        <ele>-0.82</ele>
        <time>2017-06-27T09:54:31Z</time>
      </trkpt>
      <trkpt lat="69.792613964527845" lon="20.71128903888166">
        <ele>-0.34</ele>
        <time>2017-06-27T09:54:32Z</time>
      </trkpt>
      <trkpt lat="69.792489996179938" lon="20.710727032274008">
        <ele>-0.34</ele>
        <time>2017-06-27T09:54:33Z</time>
      </trkpt>
      <trkpt lat="69.792374996468425" lon="20.710150022059679">
        <ele>-0.34</ele>
        <time>2017-06-27T09:54:34Z</time>
      </trkpt>
      <trkpt lat="69.791071023792028" lon="20.702428026124835">
        <ele>-0.82</ele>
        <time>2017-06-27T09:54:46Z</time>
      </trkpt>
      <trkpt lat="69.789739977568388" lon="20.692996960133314">
        <ele>-0.82</ele>
        <time>2017-06-27T09:55:00Z</time>
      </trkpt>
      <trkpt lat="69.789836034178734" lon="20.689300959929824">
        <ele>-0.34</ele>
        <time>2017-06-27T09:55:06Z</time>
      </trkpt>
      <trkpt lat="69.790282035246491" lon="20.684819994494319">
        <ele>1.1</ele>
        <time>2017-06-27T09:55:16Z</time>
      </trkpt>
      <trkpt lat="69.790960969403386" lon="20.677167987450957">
        <ele>1.58</ele>
        <time>2017-06-27T09:55:33Z</time>
      </trkpt>
      <trkpt lat="69.791099019348621" lon="20.670453999191523">
        <ele>4.94</ele>
        <time>2017-06-27T09:55:47Z</time>
      </trkpt>
      <trkpt lat="69.791007991880178" lon="20.662934007123113">
        <ele>5.42</ele>
        <time>2017-06-27T09:56:02Z</time>
      </trkpt>
      <trkpt lat="69.790530977770686" lon="20.653491038829088">
        <ele>2.54</ele>
        <time>2017-06-27T09:56:21Z</time>
      </trkpt>
      <trkpt lat="69.790010964497924" lon="20.648614028468728">
        <ele>0.62</ele>
        <time>2017-06-27T09:56:31Z</time>
      </trkpt>
      <trkpt lat="69.788879994302988" lon="20.642101038247347">
        <ele>1.1</ele>
        <time>2017-06-27T09:56:45Z</time>
      </trkpt>
      <trkpt lat="69.7873580083251" lon="20.634810039773583">
        <ele>-1.79</ele>
        <time>2017-06-27T09:57:02Z</time>
      </trkpt>
      <trkpt lat="69.786410015076399" lon="20.629179999232292">
        <ele>-0.82</ele>
        <time>2017-06-27T09:57:15Z</time>
      </trkpt>
      <trkpt lat="69.785177037119865" lon="20.62281796708703">
        <ele>-1.79</ele>
        <time>2017-06-27T09:57:32Z</time>
      </trkpt>
      <trkpt lat="69.783786982297897" lon="20.616127029061317">
        <ele>-0.82</ele>
        <time>2017-06-27T09:57:51Z</time>
      </trkpt>
      <trkpt lat="69.781936006620526" lon="20.609552012756467">
        <ele>-0.82</ele>
        <time>2017-06-27T09:58:09Z</time>
      </trkpt>
      <trkpt lat="69.780923975631595" lon="20.604103021323681">
        <ele>-0.82</ele>
        <time>2017-06-27T09:58:22Z</time>
      </trkpt>
      <trkpt lat="69.779844973236322" lon="20.598327973857522">
        <ele>3.02</ele>
        <time>2017-06-27T09:58:35Z</time>
      </trkpt>
      <trkpt lat="69.778787009418011" lon="20.594602972269058">
        <ele>1.58</ele>
        <time>2017-06-27T09:58:45Z</time>
      </trkpt>
      <trkpt lat="69.777608010917902" lon="20.590033996850252">
        <ele>-1.3</ele>
        <time>2017-06-27T09:58:57Z</time>
      </trkpt>
      <trkpt lat="69.776202030479908" lon="20.583007028326392">
        <ele>0.14</ele>
        <time>2017-06-27T09:59:14Z</time>
      </trkpt>
      <trkpt lat="69.774980032816529" lon="20.576052982360125">
        <ele>1.1</ele>
        <time>2017-06-27T09:59:29Z</time>
      </trkpt>
      <trkpt lat="69.774425989016891" lon="20.570846982300282">
        <ele>5.91</ele>
        <time>2017-06-27T09:59:39Z</time>
      </trkpt>
      <trkpt lat="69.773601964116096" lon="20.565301012247801">
        <ele>6.87</ele>
        <time>2017-06-27T09:59:50Z</time>
      </trkpt>
      <trkpt lat="69.772980026900768" lon="20.561663014814258">
        <ele>9.27</ele>
        <time>2017-06-27T09:59:59Z</time>
      </trkpt>
      <trkpt lat="69.772905008867383" lon="20.56143200956285">
        <ele>9.27</ele>
        <time>2017-06-27T10:00:00Z</time>
      </trkpt>
      <trkpt lat="69.772833008319139" lon="20.561253977939487">
        <ele>9.75</ele>
        <time>2017-06-27T10:00:01Z</time>
      </trkpt>
      <trkpt lat="69.772765031084418" lon="20.561124980449677">
        <ele>9.75</ele>
        <time>2017-06-27T10:00:02Z</time>
      </trkpt>
      <trkpt lat="69.772696970030665" lon="20.561025990173221">
        <ele>9.75</ele>
        <time>2017-06-27T10:00:03Z</time>
      </trkpt>
      <trkpt lat="69.772623963654041" lon="20.560944015160203">
        <ele>10.23</ele>
        <time>2017-06-27T10:00:04Z</time>
      </trkpt>
      <trkpt lat="69.771913010627031" lon="20.559964003041387">
        <ele>9.75</ele>
        <time>2017-06-27T10:00:11Z</time>
      </trkpt>
      <trkpt lat="69.770805006846786" lon="20.55806097574532">
        <ele>12.15</ele>
        <time>2017-06-27T10:00:18Z</time>
      </trkpt>
      <trkpt lat="69.769702032208443" lon="20.554464971646667">
        <ele>16.48</ele>
        <time>2017-06-27T10:00:25Z</time>
      </trkpt>
      <trkpt lat="69.768664017319679" lon="20.549558037891984">
        <ele>16.960000000000001</ele>
        <time>2017-06-27T10:00:33Z</time>
      </trkpt>
      <trkpt lat="69.768275013193488" lon="20.548138981685042">
        <ele>17.920000000000002</ele>
        <time>2017-06-27T10:00:36Z</time>
      </trkpt>
      <trkpt lat="69.768113996833563" lon="20.547751989215612">
        <ele>17.920000000000002</ele>
        <time>2017-06-27T10:00:37Z</time>
      </trkpt>
      <trkpt lat="69.767935965210199" lon="20.547420987859368">
        <ele>17.920000000000002</ele>
        <time>2017-06-27T10:00:38Z</time>
      </trkpt>
      <trkpt lat="69.767746031284332" lon="20.547141032293439">
        <ele>17.920000000000002</ele>
        <time>2017-06-27T10:00:39Z</time>
      </trkpt>
      <trkpt lat="69.767546961084008" lon="20.546891000121832">
        <ele>17.920000000000002</ele>
        <time>2017-06-27T10:00:40Z</time>
      </trkpt>
      <trkpt lat="69.764479016885161" lon="20.543325003236532">
        <ele>15.52</ele>
        <time>2017-06-27T10:00:54Z</time>
      </trkpt>
      <trkpt lat="69.760767007246614" lon="20.538944033905864">
        <ele>29.940000000000001</ele>
        <time>2017-06-27T10:01:11Z</time>
      </trkpt>
      <trkpt lat="69.759838962927461" lon="20.537815997377038">
        <ele>31.859999999999999</ele>
        <time>2017-06-27T10:01:17Z</time>
      </trkpt>
      <trkpt lat="69.759722035378218" lon="20.537602007389069">
        <ele>32.340000000000003</ele>
        <time>2017-06-27T10:01:18Z</time>
      </trkpt>
      <trkpt lat="69.759614998474717" lon="20.537336971610785">
        <ele>32.82</ele>
        <time>2017-06-27T10:01:19Z</time>
      </trkpt>
      <trkpt lat="69.759517014026642" lon="20.537013011053205">
        <ele>33.780000000000001</ele>
        <time>2017-06-27T10:01:20Z</time>
      </trkpt>
      <trkpt lat="69.759432021528482" lon="20.536636998876929">
        <ele>34.259999999999998</ele>
        <time>2017-06-27T10:01:21Z</time>
      </trkpt>
      <trkpt lat="69.75936496630311" lon="20.536223016679287">
        <ele>34.740000000000002</ele>
        <time>2017-06-27T10:01:22Z</time>
      </trkpt>
      <trkpt lat="69.759314004331827" lon="20.535781960934401">
        <ele>34.740000000000002</ele>
        <time>2017-06-27T10:01:23Z</time>
      </trkpt>
      <trkpt lat="69.759272010996938" lon="20.535301007330418">
        <ele>34.259999999999998</ele>
        <time>2017-06-27T10:01:24Z</time>
      </trkpt>
      <trkpt lat="69.759239992126822" lon="20.534809995442629">
        <ele>33.780000000000001</ele>
        <time>2017-06-27T10:01:25Z</time>
      </trkpt>
      <trkpt lat="69.759026002138853" lon="20.531888986006379">
        <ele>29.940000000000001</ele>
        <time>2017-06-27T10:01:31Z</time>
      </trkpt>
      <trkpt lat="69.758962970227003" lon="20.53148003295064">
        <ele>29.940000000000001</ele>
        <time>2017-06-27T10:01:32Z</time>
      </trkpt>
      <trkpt lat="69.758880995213985" lon="20.531080970540643">
        <ele>29.460000000000001</ele>
        <time>2017-06-27T10:01:33Z</time>
      </trkpt>
      <trkpt lat="69.75878301076591" lon="20.53068702109158">
        <ele>28.98</ele>
        <time>2017-06-27T10:01:34Z</time>
      </trkpt>
      <trkpt lat="69.7586730401963" lon="20.530287036672235">
        <ele>28.5</ele>
        <time>2017-06-27T10:01:35Z</time>
      </trkpt>
      <trkpt lat="69.757481971755624" lon="20.526405964046717">
        <ele>27.530000000000001</ele>
        <time>2017-06-27T10:01:44Z</time>
      </trkpt>
      <trkpt lat="69.756263997405767" lon="20.523786032572389">
        <ele>25.609999999999999</ele>
        <time>2017-06-27T10:01:52Z</time>
      </trkpt>
      <trkpt lat="69.755549021065235" lon="20.522082997485995">
        <ele>20.809999999999999</ele>
        <time>2017-06-27T10:01:57Z</time>
      </trkpt>
      <trkpt lat="69.755425974726677" lon="20.521629033610225">
        <ele>20.32</ele>
        <time>2017-06-27T10:01:58Z</time>
      </trkpt>
      <trkpt lat="69.755310975015163" lon="20.521136010065675">
        <ele>20.32</ele>
        <time>2017-06-27T10:01:59Z</time>
      </trkpt>
      <trkpt lat="69.754976034164429" lon="20.519637996330857">
        <ele>20.809999999999999</ele>
        <time>2017-06-27T10:02:02Z</time>
      </trkpt>
      <trkpt lat="69.754837984219193" lon="20.519232982769608">
        <ele>21.77</ele>
        <time>2017-06-27T10:02:03Z</time>
      </trkpt>
      <trkpt lat="69.754684008657932" lon="20.518875997513533">
        <ele>23.210000000000001</ele>
        <time>2017-06-27T10:02:04Z</time>
      </trkpt>
      <trkpt lat="69.754517963156104" lon="20.518556982278824">
        <ele>24.649999999999999</ele>
        <time>2017-06-27T10:02:05Z</time>
      </trkpt>
      <trkpt lat="69.754342027008533" lon="20.518276020884514">
        <ele>26.09</ele>
        <time>2017-06-27T10:02:06Z</time>
      </trkpt>
      <trkpt lat="69.753868030384183" lon="20.517375972121954">
        <ele>30.420000000000002</ele>
        <time>2017-06-27T10:02:09Z</time>
      </trkpt>
      <trkpt lat="69.753741966560483" lon="20.517009012401104">
        <ele>31.859999999999999</ele>
        <time>2017-06-27T10:02:10Z</time>
      </trkpt>
      <trkpt lat="69.753640964627266" lon="20.516613973304629">
        <ele>32.82</ele>
        <time>2017-06-27T10:02:11Z</time>
      </trkpt>
      <trkpt lat="69.753567958250642" lon="20.516168978065252">
        <ele>33.780000000000001</ele>
        <time>2017-06-27T10:02:12Z</time>
      </trkpt>
      <trkpt lat="69.753529988229275" lon="20.51569196395576">
        <ele>34.740000000000002</ele>
        <time>2017-06-27T10:02:13Z</time>
      </trkpt>
      <trkpt lat="69.753524037078023" lon="20.515200030058622">
        <ele>35.710000000000001</ele>
        <time>2017-06-27T10:02:14Z</time>
      </trkpt>
      <trkpt lat="69.753545997664332" lon="20.514717986807227">
        <ele>37.149999999999999</ele>
        <time>2017-06-27T10:02:15Z</time>
      </trkpt>
      <trkpt lat="69.753590002655983" lon="20.514234015718102">
        <ele>38.590000000000003</ele>
        <time>2017-06-27T10:02:16Z</time>
      </trkpt>
      <trkpt lat="69.753646999597549" lon="20.513749960809946">
        <ele>40.509999999999998</ele>
        <time>2017-06-27T10:02:17Z</time>
      </trkpt>
      <trkpt lat="69.753715982660651" lon="20.513257021084428">
        <ele>41.469999999999999</ele>
        <time>2017-06-27T10:02:18Z</time>
      </trkpt>
      <trkpt lat="69.753826037049294" lon="20.5122309923172">
        <ele>43.880000000000003</ele>
        <time>2017-06-27T10:02:20Z</time>
      </trkpt>
      <trkpt lat="69.753853026777506" lon="20.51169496960938">
        <ele>45.32</ele>
        <time>2017-06-27T10:02:21Z</time>
      </trkpt>
      <trkpt lat="69.753856966271996" lon="20.511163976043463">
        <ele>47.240000000000002</ele>
        <time>2017-06-27T10:02:22Z</time>
      </trkpt>
      <trkpt lat="69.753735009580851" lon="20.504574961960316">
        <ele>52.049999999999997</ele>
        <time>2017-06-27T10:02:34Z</time>
      </trkpt>
      <trkpt lat="69.753673989325762" lon="20.502315033227205">
        <ele>53.009999999999998</ele>
        <time>2017-06-27T10:02:39Z</time>
      </trkpt>
      <trkpt lat="69.753630990162492" lon="20.501960981637239">
        <ele>53.009999999999998</ele>
        <time>2017-06-27T10:02:40Z</time>
      </trkpt>
      <trkpt lat="69.753571981564164" lon="20.501632997766137">
        <ele>52.530000000000001</ele>
        <time>2017-06-27T10:02:41Z</time>
      </trkpt>
      <trkpt lat="69.753493024036288" lon="20.501335021108389">
        <ele>52.049999999999997</ele>
        <time>2017-06-27T10:02:42Z</time>
      </trkpt>
      <trkpt lat="69.753392022103071" lon="20.501096975058317">
        <ele>51.57</ele>
        <time>2017-06-27T10:02:43Z</time>
      </trkpt>
      <trkpt lat="69.753269981592894" lon="20.500926990061998">
        <ele>50.609999999999999</ele>
        <time>2017-06-27T10:02:44Z</time>
      </trkpt>
      <trkpt lat="69.753133021295071" lon="20.500826993957162">
        <ele>49.649999999999999</ele>
        <time>2017-06-27T10:02:45Z</time>
      </trkpt>
      <trkpt lat="69.752984996885061" lon="20.500803021714091">
        <ele>48.200000000000003</ele>
        <time>2017-06-27T10:02:46Z</time>
      </trkpt>
      <trkpt lat="69.752826998010278" lon="20.500818025320768">
        <ele>46.759999999999998</ele>
        <time>2017-06-27T10:02:47Z</time>
      </trkpt>
      <trkpt lat="69.752154015004635" lon="20.500785000622272">
        <ele>41.950000000000003</ele>
        <time>2017-06-27T10:02:51Z</time>
      </trkpt>
      <trkpt lat="69.751991992816329" lon="20.500680981203914">
        <ele>40.990000000000002</ele>
        <time>2017-06-27T10:02:52Z</time>
      </trkpt>
      <trkpt lat="69.751836005598307" lon="20.500539997592568">
        <ele>40.030000000000001</ele>
        <time>2017-06-27T10:02:53Z</time>
      </trkpt>
      <trkpt lat="69.751683035865426" lon="20.500346962362528">
        <ele>39.07</ele>
        <time>2017-06-27T10:02:54Z</time>
      </trkpt>
      <trkpt lat="69.751539034768939" lon="20.500109000131488">
        <ele>38.109999999999999</ele>
        <time>2017-06-27T10:02:55Z</time>
      </trkpt>
      <trkpt lat="69.751407019793987" lon="20.499828038737178">
        <ele>37.149999999999999</ele>
        <time>2017-06-27T10:02:56Z</time>
      </trkpt>
      <trkpt lat="69.751291014254093" lon="20.499507011845708">
        <ele>36.189999999999998</ele>
        <time>2017-06-27T10:02:57Z</time>
      </trkpt>
      <trkpt lat="69.751186994835734" lon="20.499135022982955">
        <ele>35.229999999999997</ele>
        <time>2017-06-27T10:02:58Z</time>
      </trkpt>
      <trkpt lat="69.751093033701181" lon="20.498732021078467">
        <ele>34.259999999999998</ele>
        <time>2017-06-27T10:02:59Z</time>
      </trkpt>
      <trkpt lat="69.751008963212371" lon="20.498285014182329">
        <ele>33.299999999999997</ele>
        <time>2017-06-27T10:03:00Z</time>
      </trkpt>
      <trkpt lat="69.750938974320889" lon="20.497805988416076">
        <ele>31.859999999999999</ele>
        <time>2017-06-27T10:03:01Z</time>
      </trkpt>
      <trkpt lat="69.750882983207703" lon="20.497302990406752">
        <ele>30.899999999999999</ele>
        <time>2017-06-27T10:03:02Z</time>
      </trkpt>
      <trkpt lat="69.750846019014716" lon="20.496798986569047">
        <ele>29.940000000000001</ele>
        <time>2017-06-27T10:03:03Z</time>
      </trkpt>
      <trkpt lat="69.750824980437756" lon="20.496278973296285">
        <ele>28.5</ele>
        <time>2017-06-27T10:03:04Z</time>
      </trkpt>
      <trkpt lat="69.750816011801362" lon="20.495760971680284">
        <ele>27.050000000000001</ele>
        <time>2017-06-27T10:03:05Z</time>
      </trkpt>
      <trkpt lat="69.750758009031415" lon="20.493793990463018">
        <ele>22.25</ele>
        <time>2017-06-27T10:03:09Z</time>
      </trkpt>
      <trkpt lat="69.750701012089849" lon="20.493332985788584">
        <ele>20.809999999999999</ele>
        <time>2017-06-27T10:03:10Z</time>
      </trkpt>
      <trkpt lat="69.750621970742941" lon="20.492908023297787">
        <ele>19.84</ele>
        <time>2017-06-27T10:03:11Z</time>
      </trkpt>
      <trkpt lat="69.750522980466485" lon="20.492502003908157">
        <ele>18.879999999999999</ele>
        <time>2017-06-27T10:03:12Z</time>
      </trkpt>
      <trkpt lat="69.750412004068494" lon="20.49214300699532">
        <ele>18.399999999999999</ele>
        <time>2017-06-27T10:03:13Z</time>
      </trkpt>
      <trkpt lat="69.750289963558316" lon="20.491807982325554">
        <ele>18.399999999999999</ele>
        <time>2017-06-27T10:03:14Z</time>
      </trkpt>
      <trkpt lat="69.750162977725267" lon="20.49149701371789">
        <ele>17.920000000000002</ele>
        <time>2017-06-27T10:03:15Z</time>
      </trkpt>
      <trkpt lat="69.749100990593433" lon="20.490008974447846">
        <ele>17.920000000000002</ele>
        <time>2017-06-27T10:03:22Z</time>
      </trkpt>
      <trkpt lat="69.748467989265919" lon="20.489787021651864">
        <ele>18.879999999999999</ele>
        <time>2017-06-27T10:03:26Z</time>
      </trkpt>
      <trkpt lat="69.748308984562755" lon="20.489832032471895">
        <ele>19.359999999999999</ele>
        <time>2017-06-27T10:03:27Z</time>
      </trkpt>
      <trkpt lat="69.748154003173113" lon="20.489925993606448">
        <ele>19.359999999999999</ele>
        <time>2017-06-27T10:03:28Z</time>
      </trkpt>
      <trkpt lat="69.748001033440232" lon="20.490064965561032">
        <ele>18.879999999999999</ele>
        <time>2017-06-27T10:03:29Z</time>
      </trkpt>
      <trkpt lat="69.747850997373462" lon="20.490250959992409">
        <ele>18.879999999999999</ele>
        <time>2017-06-27T10:03:30Z</time>
      </trkpt>
      <trkpt lat="69.747706996276975" lon="20.490481965243816">
        <ele>19.359999999999999</ele>
        <time>2017-06-27T10:03:31Z</time>
      </trkpt>
      <trkpt lat="69.74756701849401" lon="20.490742977708578">
        <ele>19.359999999999999</ele>
        <time>2017-06-27T10:03:32Z</time>
      </trkpt>
      <trkpt lat="69.747432991862297" lon="20.491030979901552">
        <ele>18.879999999999999</ele>
        <time>2017-06-27T10:03:33Z</time>
      </trkpt>
      <trkpt lat="69.747307011857629" lon="20.491358963772655">
        <ele>18.879999999999999</ele>
        <time>2017-06-27T10:03:34Z</time>
      </trkpt>
      <trkpt lat="69.747183965519071" lon="20.491706980392337">
        <ele>18.879999999999999</ele>
        <time>2017-06-27T10:03:35Z</time>
      </trkpt>
      <trkpt lat="69.745278004556894" lon="20.497430982068181">
        <ele>12.15</ele>
        <time>2017-06-27T10:03:50Z</time>
      </trkpt>
      <trkpt lat="69.742695037275553" lon="20.504652997478843">
        <ele>1.1</ele>
        <time>2017-06-27T10:04:10Z</time>
      </trkpt>
      <trkpt lat="69.741213032975793" lon="20.508500961586833">
        <ele>1.1</ele>
        <time>2017-06-27T10:04:23Z</time>
      </trkpt>
      <trkpt lat="69.740251963958144" lon="20.511021986603737">
        <ele>-4.19</ele>
        <time>2017-06-27T10:04:31Z</time>
      </trkpt>
      <trkpt lat="69.738874984905124" lon="20.514421015977859">
        <ele>-6.11</ele>
        <time>2017-06-27T10:04:41Z</time>
      </trkpt>
      <trkpt lat="69.736649002879858" lon="20.518063958734274">
        <ele>-3.71</ele>
        <time>2017-06-27T10:04:56Z</time>
      </trkpt>
      <trkpt lat="69.735185019671917" lon="20.521334996446967">
        <ele>-4.19</ele>
        <time>2017-06-27T10:05:07Z</time>
      </trkpt>
      <trkpt lat="69.734029993414879" lon="20.523393005132675">
        <ele>-5.15</ele>
        <time>2017-06-27T10:05:15Z</time>
      </trkpt>
      <trkpt lat="69.731318028643727" lon="20.525308018550277">
        <ele>-5.15</ele>
        <time>2017-06-27T10:05:31Z</time>
      </trkpt>
      <trkpt lat="69.729910036548972" lon="20.525656035169959">
        <ele>-2.75</ele>
        <time>2017-06-27T10:05:40Z</time>
      </trkpt>
      <trkpt lat="69.727795030921698" lon="20.525973038747907">
        <ele>-1.79</ele>
        <time>2017-06-27T10:05:54Z</time>
      </trkpt>
      <trkpt lat="69.724861029535532" lon="20.526433037593961">
        <ele>2.54</ele>
        <time>2017-06-27T10:06:13Z</time>
      </trkpt>
      <trkpt lat="69.722820958122611" lon="20.526789017021656">
        <ele>-0.82</ele>
        <time>2017-06-27T10:06:25Z</time>
      </trkpt>
      <trkpt lat="69.720158027485013" lon="20.527171986177564">
        <ele>2.06</ele>
        <time>2017-06-27T10:06:41Z</time>
      </trkpt>
      <trkpt lat="69.718866962939501" lon="20.52641099318862">
        <ele>5.42</ele>
        <time>2017-06-27T10:06:49Z</time>
      </trkpt>
      <trkpt lat="69.718256006017327" lon="20.525861978530884">
        <ele>10.23</ele>
        <time>2017-06-27T10:06:53Z</time>
      </trkpt>
      <trkpt lat="69.71808903850615" lon="20.525855021551251">
        <ele>11.19</ele>
        <time>2017-06-27T10:06:54Z</time>
      </trkpt>
      <trkpt lat="69.717922993004322" lon="20.525903971865773">
        <ele>12.15</ele>
        <time>2017-06-27T10:06:55Z</time>
      </trkpt>
      <trkpt lat="69.717755019664764" lon="20.526031041517854">
        <ele>13.119999999999999</ele>
        <time>2017-06-27T10:06:56Z</time>
      </trkpt>
      <trkpt lat="69.717592997476459" lon="20.52621603012085">
        <ele>13.6</ele>
        <time>2017-06-27T10:06:57Z</time>
      </trkpt>
      <trkpt lat="69.717434998601675" lon="20.526443012058735">
        <ele>14.56</ele>
        <time>2017-06-27T10:06:58Z</time>
      </trkpt>
      <trkpt lat="69.717281023040414" lon="20.526701007038355">
        <ele>15.039999999999999</ele>
        <time>2017-06-27T10:06:59Z</time>
      </trkpt>
      <trkpt lat="69.717128975316882" lon="20.52699102088809">
        <ele>15.52</ele>
        <time>2017-06-27T10:07:00Z</time>
      </trkpt>
      <trkpt lat="69.715796001255512" lon="20.528721967712045">
        <ele>17.440000000000001</ele>
        <time>2017-06-27T10:07:08Z</time>
      </trkpt>
      <trkpt lat="69.714120961725712" lon="20.528962025418878">
        <ele>17.440000000000001</ele>
        <time>2017-06-27T10:07:16Z</time>
      </trkpt>
      <trkpt lat="69.711401034146547" lon="20.529300989583135">
        <ele>17.920000000000002</ele>
        <time>2017-06-27T10:07:27Z</time>
      </trkpt>
      <trkpt lat="69.709984995424747" lon="20.52995502948761">
        <ele>17.440000000000001</ele>
        <time>2017-06-27T10:07:34Z</time>
      </trkpt>
      <trkpt lat="69.708774983882904" lon="20.530939986929297">
        <ele>16</ele>
        <time>2017-06-27T10:07:40Z</time>
      </trkpt>
      <trkpt lat="69.708586977794766" lon="20.530979968607426">
        <ele>16</ele>
        <time>2017-06-27T10:07:41Z</time>
      </trkpt>
      <trkpt lat="69.708405006676912" lon="20.530938981100917">
        <ele>16.48</ele>
        <time>2017-06-27T10:07:42Z</time>
      </trkpt>
      <trkpt lat="69.708224963396788" lon="20.530808977782726">
        <ele>16.960000000000001</ele>
        <time>2017-06-27T10:07:43Z</time>
      </trkpt>
      <trkpt lat="69.708051038905978" lon="20.530626000836492">
        <ele>16.960000000000001</ele>
        <time>2017-06-27T10:07:44Z</time>
      </trkpt>
      <trkpt lat="69.707880970090628" lon="20.530387032777071">
        <ele>17.440000000000001</ele>
        <time>2017-06-27T10:07:45Z</time>
      </trkpt>
      <trkpt lat="69.707720037549734" lon="20.530139012262225">
        <ele>18.399999999999999</ele>
        <time>2017-06-27T10:07:46Z</time>
      </trkpt>
      <trkpt lat="69.707387024536729" lon="20.52976400591433">
        <ele>17.920000000000002</ele>
        <time>2017-06-27T10:07:48Z</time>
      </trkpt>
      <trkpt lat="69.707207987084985" lon="20.529636014252901">
        <ele>17.440000000000001</ele>
        <time>2017-06-27T10:07:49Z</time>
      </trkpt>
      <trkpt lat="69.705130029469728" lon="20.528827998787165">
        <ele>16.960000000000001</ele>
        <time>2017-06-27T10:07:59Z</time>
      </trkpt>
      <trkpt lat="69.702110029757023" lon="20.527146002277732">
        <ele>18.399999999999999</ele>
        <time>2017-06-27T10:08:13Z</time>
      </trkpt>
      <trkpt lat="69.699316006153822" lon="20.524661019444466">
        <ele>17.920000000000002</ele>
        <time>2017-06-27T10:08:26Z</time>
      </trkpt>
      <trkpt lat="69.697573995217681" lon="20.521791977807879">
        <ele>19.359999999999999</ele>
        <time>2017-06-27T10:08:35Z</time>
      </trkpt>
      <trkpt lat="69.695811029523611" lon="20.519959023222327">
        <ele>19.84</ele>
        <time>2017-06-27T10:08:43Z</time>
      </trkpt>
      <trkpt lat="69.693980002775788" lon="20.518205026164651">
        <ele>15.039999999999999</ele>
        <time>2017-06-27T10:08:51Z</time>
      </trkpt>
      <trkpt lat="69.69151203520596" lon="20.515843005850911">
        <ele>8.789999999999999</ele>
        <time>2017-06-27T10:09:03Z</time>
      </trkpt>
      <trkpt lat="69.689093017950654" lon="20.513528008013964">
        <ele>4.46</ele>
        <time>2017-06-27T10:09:14Z</time>
      </trkpt>
      <trkpt lat="69.686105037108064" lon="20.510817971080542">
        <ele>3.98</ele>
        <time>2017-06-27T10:09:28Z</time>
      </trkpt>
      <trkpt lat="69.683819962665439" lon="20.508768009021878">
        <ele>3.02</ele>
        <time>2017-06-27T10:09:39Z</time>
      </trkpt>
      <trkpt lat="69.680704995989799" lon="20.504526011645794">
        <ele>7.83</ele>
        <time>2017-06-27T10:09:55Z</time>
      </trkpt>
      <trkpt lat="69.678576998412609" lon="20.501740034669638">
        <ele>14.56</ele>
        <time>2017-06-27T10:10:07Z</time>
      </trkpt>
      <trkpt lat="69.676997009664774" lon="20.500966971740127">
        <ele>11.67</ele>
        <time>2017-06-27T10:10:16Z</time>
      </trkpt>
      <trkpt lat="69.675907026976347" lon="20.500188041478395">
        <ele>6.87</ele>
        <time>2017-06-27T10:10:22Z</time>
      </trkpt>
      <trkpt lat="69.675738969817758" lon="20.499915964901447">
        <ele>6.87</ele>
        <time>2017-06-27T10:10:23Z</time>
      </trkpt>
      <trkpt lat="69.675578959286213" lon="20.499600972980261">
        <ele>6.39</ele>
        <time>2017-06-27T10:10:24Z</time>
      </trkpt>
      <trkpt lat="69.675425989553332" lon="20.499248011037707">
        <ele>5.91</ele>
        <time>2017-06-27T10:10:25Z</time>
      </trkpt>
      <trkpt lat="69.675278970971704" lon="20.498865963891149">
        <ele>5.42</ele>
        <time>2017-06-27T10:10:26Z</time>
      </trkpt>
      <trkpt lat="69.673770982772112" lon="20.495164012536407">
        <ele>3.98</ele>
        <time>2017-06-27T10:10:37Z</time>
      </trkpt>
      <trkpt lat="69.67363896779716" lon="20.494954967871308">
        <ele>3.98</ele>
        <time>2017-06-27T10:10:38Z</time>
      </trkpt>
      <trkpt lat="69.673502007499337" lon="20.494789006188512">
        <ele>3.98</ele>
        <time>2017-06-27T10:10:39Z</time>
      </trkpt>
      <trkpt lat="69.67335800640285" lon="20.494657997041941">
        <ele>3.5</ele>
        <time>2017-06-27T10:10:40Z</time>
      </trkpt>
      <trkpt lat="69.671623036265373" lon="20.49362501129508">
        <ele>1.58</ele>
        <time>2017-06-27T10:10:51Z</time>
      </trkpt>
      <trkpt lat="69.670518971979618" lon="20.492943981662393">
        <ele>1.1</ele>
        <time>2017-06-27T10:10:58Z</time>
      </trkpt>
      <trkpt lat="69.67037396505475" lon="20.492758993059397">
        <ele>1.58</ele>
        <time>2017-06-27T10:10:59Z</time>
      </trkpt>
      <trkpt lat="69.670239016413689" lon="20.492521030828357">
        <ele>1.58</ele>
        <time>2017-06-27T10:11:00Z</time>
      </trkpt>
      <trkpt lat="69.670118987560272" lon="20.492218025028706">
        <ele>2.06</ele>
        <time>2017-06-27T10:11:01Z</time>
      </trkpt>
      <trkpt lat="69.670017985627055" lon="20.491861961781979">
        <ele>2.06</ele>
        <time>2017-06-27T10:11:02Z</time>
      </trkpt>
      <trkpt lat="69.669935004785657" lon="20.491446973755956">
        <ele>2.06</ele>
        <time>2017-06-27T10:11:03Z</time>
      </trkpt>
      <trkpt lat="69.669881025329232" lon="20.490995021536946">
        <ele>2.54</ele>
        <time>2017-06-27T10:11:04Z</time>
      </trkpt>
      <trkpt lat="69.669849006459117" lon="20.490492023527622">
        <ele>3.02</ele>
        <time>2017-06-27T10:11:05Z</time>
      </trkpt>
      <trkpt lat="69.669831991195679" lon="20.489981984719634">
        <ele>3.98</ele>
        <time>2017-06-27T10:11:06Z</time>
      </trkpt>
      <trkpt lat="69.669830985367298" lon="20.489461971446872">
        <ele>4.94</ele>
        <time>2017-06-27T10:11:07Z</time>
      </trkpt>
      <trkpt lat="69.669840037822723" lon="20.488936007022858">
        <ele>5.91</ele>
        <time>2017-06-27T10:11:08Z</time>
      </trkpt>
      <trkpt lat="69.66985797509551" lon="20.488409036770463">
        <ele>6.87</ele>
        <time>2017-06-27T10:11:09Z</time>
      </trkpt>
      <trkpt lat="69.670147988945246" lon="20.485030962154269">
        <ele>8.789999999999999</ele>
        <time>2017-06-27T10:11:16Z</time>
      </trkpt>
      <trkpt lat="69.670173972845078" lon="20.484590996056795">
        <ele>8.789999999999999</ele>
        <time>2017-06-27T10:11:17Z</time>
      </trkpt>
      <trkpt lat="69.670174978673458" lon="20.484175002202392">
        <ele>8.789999999999999</ele>
        <time>2017-06-27T10:11:18Z</time>
      </trkpt>
      <trkpt lat="69.670151006430387" lon="20.483770994469523">
        <ele>9.27</ele>
        <time>2017-06-27T10:11:19Z</time>
      </trkpt>
      <trkpt lat="69.670108007267118" lon="20.483387019485235">
        <ele>9.75</ele>
        <time>2017-06-27T10:11:20Z</time>
      </trkpt>
      <trkpt lat="69.670041035860777" lon="20.483027016744018">
        <ele>9.75</ele>
        <time>2017-06-27T10:11:21Z</time>
      </trkpt>
      <trkpt lat="69.669953025877476" lon="20.482704984024167">
        <ele>9.75</ele>
        <time>2017-06-27T10:11:22Z</time>
      </trkpt>
      <trkpt lat="69.669839031994343" lon="20.482416981831193">
        <ele>9.27</ele>
        <time>2017-06-27T10:11:23Z</time>
      </trkpt>
      <trkpt lat="69.669703999534249" lon="20.482158986851573">
        <ele>8.310000000000001</ele>
        <time>2017-06-27T10:11:24Z</time>
      </trkpt>
      <trkpt lat="69.66955304145813" lon="20.481910966336727">
        <ele>7.35</ele>
        <time>2017-06-27T10:11:25Z</time>
      </trkpt>
      <trkpt lat="69.66846096329391" lon="20.479882964864373">
        <ele>9.75</ele>
        <time>2017-06-27T10:11:32Z</time>
      </trkpt>
      <trkpt lat="69.668301036581397" lon="20.479667969048023">
        <ele>11.19</ele>
        <time>2017-06-27T10:11:33Z</time>
      </trkpt>
      <trkpt lat="69.668128034099936" lon="20.479497984051704">
        <ele>12.15</ele>
        <time>2017-06-27T10:11:34Z</time>
      </trkpt>
      <trkpt lat="69.66635400429368" lon="20.4778559692204">
        <ele>12.15</ele>
        <time>2017-06-27T10:11:43Z</time>
      </trkpt>
      <trkpt lat="69.663113979622722" lon="20.47471703030169">
        <ele>13.6</ele>
        <time>2017-06-27T10:11:58Z</time>
      </trkpt>
      <trkpt lat="69.661002997308969" lon="20.4728480335325">
        <ele>10.710000000000001</ele>
        <time>2017-06-27T10:12:09Z</time>
      </trkpt>
      <trkpt lat="69.660826977342367" lon="20.472819032147527">
        <ele>9.75</ele>
        <time>2017-06-27T10:12:10Z</time>
      </trkpt>
      <trkpt lat="69.660648023709655" lon="20.47285096719861">
        <ele>8.789999999999999</ele>
        <time>2017-06-27T10:12:11Z</time>
      </trkpt>
      <trkpt lat="69.658857984468341" lon="20.473608020693064">
        <ele>2.54</ele>
        <time>2017-06-27T10:12:20Z</time>
      </trkpt>
      <trkpt lat="69.657109016552567" lon="20.473626963794231">
        <ele>4.94</ele>
        <time>2017-06-27T10:12:28Z</time>
      </trkpt>
      <trkpt lat="69.654274005442858" lon="20.471928035840392">
        <ele>17.440000000000001</ele>
        <time>2017-06-27T10:12:42Z</time>
      </trkpt>
      <trkpt lat="69.654080970212817" lon="20.471977991983294">
        <ele>17.440000000000001</ele>
        <time>2017-06-27T10:12:43Z</time>
      </trkpt>
      <trkpt lat="69.653882989659905" lon="20.472073964774609">
        <ele>17.920000000000002</ele>
        <time>2017-06-27T10:12:44Z</time>
      </trkpt>
      <trkpt lat="69.653682997450233" lon="20.47222601249814">
        <ele>18.879999999999999</ele>
        <time>2017-06-27T10:12:45Z</time>
      </trkpt>
      <trkpt lat="69.653297010809183" lon="20.472519965842366">
        <ele>20.809999999999999</ele>
        <time>2017-06-27T10:12:47Z</time>
      </trkpt>
      <trkpt lat="69.653111016377807" lon="20.472578974440694">
        <ele>21.289999999999999</ele>
        <time>2017-06-27T10:12:48Z</time>
      </trkpt>
      <trkpt lat="69.652929967269301" lon="20.47254703938961">
        <ele>22.73</ele>
        <time>2017-06-27T10:12:49Z</time>
      </trkpt>
      <trkpt lat="69.652747996151447" lon="20.4724180418998">
        <ele>24.649999999999999</ele>
        <time>2017-06-27T10:12:50Z</time>
      </trkpt>
      <trkpt lat="69.652565019205213" lon="20.472256019711494">
        <ele>26.57</ele>
        <time>2017-06-27T10:12:51Z</time>
      </trkpt>
      <trkpt lat="69.651326006278396" lon="20.471554035320878">
        <ele>36.189999999999998</ele>
        <time>2017-06-27T10:12:57Z</time>
      </trkpt>
      <trkpt lat="69.649559017270803" lon="20.470285015180707">
        <ele>47.719999999999999</ele>
        <time>2017-06-27T10:13:05Z</time>
      </trkpt>
      <trkpt lat="69.648100985214114" lon="20.469457972794771">
        <ele>56.369999999999997</ele>
        <time>2017-06-27T10:13:12Z</time>
      </trkpt>
      <trkpt lat="69.646810004487634" lon="20.469032004475594">
        <ele>61.18</ele>
        <time>2017-06-27T10:13:19Z</time>
      </trkpt>
      <trkpt lat="69.646629961207509" lon="20.468839975073934">
        <ele>62.140000000000001</ele>
        <time>2017-06-27T10:13:20Z</time>
      </trkpt>
      <trkpt lat="69.646453019231558" lon="20.468603018671274">
        <ele>63.579999999999998</ele>
        <time>2017-06-27T10:13:21Z</time>
      </trkpt>
      <trkpt lat="69.646276999264956" lon="20.468301018700004">
        <ele>64.549999999999997</ele>
        <time>2017-06-27T10:13:22Z</time>
      </trkpt>
      <trkpt lat="69.646102990955114" lon="20.467966999858618">
        <ele>65.989999999999995</ele>
        <time>2017-06-27T10:13:23Z</time>
      </trkpt>
      <trkpt lat="69.644561978057027" lon="20.46580103226006">
        <ele>64.549999999999997</ele>
        <time>2017-06-27T10:13:31Z</time>
      </trkpt>
      <trkpt lat="69.642643025144935" lon="20.46418902464211">
        <ele>60.700000000000003</ele>
        <time>2017-06-27T10:13:40Z</time>
      </trkpt>
      <trkpt lat="69.641376016661525" lon="20.463795997202396">
        <ele>54.93</ele>
        <time>2017-06-27T10:13:46Z</time>
      </trkpt>
      <trkpt lat="69.638289967551827" lon="20.463923988863826">
        <ele>58.780000000000001</ele>
        <time>2017-06-27T10:14:00Z</time>
      </trkpt>
      <trkpt lat="69.637084985151887" lon="20.464162034913898">
        <ele>50.609999999999999</ele>
        <time>2017-06-27T10:14:06Z</time>
      </trkpt>
      <trkpt lat="69.636887004598975" lon="20.464347023516893">
        <ele>49.159999999999997</ele>
        <time>2017-06-27T10:14:07Z</time>
      </trkpt>
      <trkpt lat="69.636694975197315" lon="20.464579034596682">
        <ele>47.719999999999999</ele>
        <time>2017-06-27T10:14:08Z</time>
      </trkpt>
      <trkpt lat="69.635043991729617" lon="20.467182034626603">
        <ele>33.780000000000001</ele>
        <time>2017-06-27T10:14:16Z</time>
      </trkpt>
      <trkpt lat="69.633326958864927" lon="20.469331992790103">
        <ele>19.359999999999999</ele>
        <time>2017-06-27T10:14:24Z</time>
      </trkpt>
      <trkpt lat="69.630675008520484" lon="20.471278019249439">
        <ele>20.809999999999999</ele>
        <time>2017-06-27T10:14:36Z</time>
      </trkpt>
      <trkpt lat="69.627588959410787" lon="20.473542977124453">
        <ele>23.210000000000001</ele>
        <time>2017-06-27T10:14:50Z</time>
      </trkpt>
      <trkpt lat="69.625000962987542" lon="20.475439969450235">
        <ele>23.210000000000001</ele>
        <time>2017-06-27T10:15:01Z</time>
      </trkpt>
      <trkpt lat="69.621316026896238" lon="20.478411018848419">
        <ele>22.25</ele>
        <time>2017-06-27T10:15:16Z</time>
      </trkpt>
      <trkpt lat="69.618567014113069" lon="20.482115987688303">
        <ele>21.289999999999999</ele>
        <time>2017-06-27T10:15:28Z</time>
      </trkpt>
      <trkpt lat="69.615912968292832" lon="20.486612962558866">
        <ele>22.25</ele>
        <time>2017-06-27T10:15:41Z</time>
      </trkpt>
      <trkpt lat="69.614967992529273" lon="20.488869035616517">
        <ele>21.289999999999999</ele>
        <time>2017-06-27T10:15:48Z</time>
      </trkpt>
      <trkpt lat="69.613509960472584" lon="20.492967031896114">
        <ele>19.359999999999999</ele>
        <time>2017-06-27T10:16:00Z</time>
      </trkpt>
      <trkpt lat="69.612559033557773" lon="20.495605990290642">
        <ele>13.119999999999999</ele>
        <time>2017-06-27T10:16:09Z</time>
      </trkpt>
      <trkpt lat="69.610925987362862" lon="20.50013498403132">
        <ele>6.87</ele>
        <time>2017-06-27T10:16:23Z</time>
      </trkpt>
      <trkpt lat="69.609514977782965" lon="20.50438997335732">
        <ele>6.39</ele>
        <time>2017-06-27T10:16:34Z</time>
      </trkpt>
      <trkpt lat="69.608772005885839" lon="20.509281987324357">
        <ele>8.789999999999999</ele>
        <time>2017-06-27T10:16:43Z</time>
      </trkpt>
      <trkpt lat="69.607579009607434" lon="20.516501991078258">
        <ele>1.1</ele>
        <time>2017-06-27T10:16:58Z</time>
      </trkpt>
      <trkpt lat="69.605590989813209" lon="20.527114989235997">
        <ele>-0.82</ele>
        <time>2017-06-27T10:17:21Z</time>
      </trkpt>
      <trkpt lat="69.60475598461926" lon="20.530459033325315">
        <ele>-0.82</ele>
        <time>2017-06-27T10:17:30Z</time>
      </trkpt>
      <trkpt lat="69.603772033005953" lon="20.534313032403588">
        <ele>0.62</ele>
        <time>2017-06-27T10:17:42Z</time>
      </trkpt>
      <trkpt lat="69.602701999247074" lon="20.53805697709322">
        <ele>-5.63</ele>
        <time>2017-06-27T10:17:53Z</time>
      </trkpt>
      <trkpt lat="69.600761001929641" lon="20.543512003496289">
        <ele>-4.19</ele>
        <time>2017-06-27T10:18:10Z</time>
      </trkpt>
      <trkpt lat="69.598801983520389" lon="20.547124017030001">
        <ele>-0.34</ele>
        <time>2017-06-27T10:18:24Z</time>
      </trkpt>
      <trkpt lat="69.596802983433008" lon="20.55073200725019">
        <ele>4.46</ele>
        <time>2017-06-27T10:18:37Z</time>
      </trkpt>
      <trkpt lat="69.594852011650801" lon="20.554281994700432">
        <ele>2.06</ele>
        <time>2017-06-27T10:18:49Z</time>
      </trkpt>
      <trkpt lat="69.592306008562446" lon="20.558957001194358">
        <ele>3.98</ele>
        <time>2017-06-27T10:19:02Z</time>
      </trkpt>
      <trkpt lat="69.590266020968556" lon="20.56345297023654">
        <ele>3.98</ele>
        <time>2017-06-27T10:19:14Z</time>
      </trkpt>
      <trkpt lat="69.589359015226364" lon="20.565766040235758">
        <ele>1.58</ele>
        <time>2017-06-27T10:19:21Z</time>
      </trkpt>
      <trkpt lat="69.587548021227121" lon="20.570555040612817">
        <ele>-3.71</ele>
        <time>2017-06-27T10:19:33Z</time>
      </trkpt>
      <trkpt lat="69.58513998426497" lon="20.57610503397882">
        <ele>-3.71</ele>
        <time>2017-06-27T10:19:47Z</time>
      </trkpt>
      <trkpt lat="69.582719039171934" lon="20.580590022727847">
        <ele>0.14</ele>
        <time>2017-06-27T10:20:01Z</time>
      </trkpt>
      <trkpt lat="69.581076018512249" lon="20.583638017997146">
        <ele>1.1</ele>
        <time>2017-06-27T10:20:11Z</time>
      </trkpt>
      <trkpt lat="69.579938007518649" lon="20.585255976766348">
        <ele>-3.23</ele>
        <time>2017-06-27T10:20:18Z</time>
      </trkpt>
      <trkpt lat="69.579748995602131" lon="20.585352033376694">
        <ele>-3.23</ele>
        <time>2017-06-27T10:20:19Z</time>
      </trkpt>
      <trkpt lat="69.57955302670598" lon="20.585383968427777">
        <ele>-2.75</ele>
        <time>2017-06-27T10:20:20Z</time>
      </trkpt>
      <trkpt lat="69.579356973990798" lon="20.585380028933287">
        <ele>-2.75</ele>
        <time>2017-06-27T10:20:21Z</time>
      </trkpt>
      <trkpt lat="69.579161005094647" lon="20.585343986749649">
        <ele>-2.27</ele>
        <time>2017-06-27T10:20:22Z</time>
      </trkpt>
      <trkpt lat="69.577569030225277" lon="20.585535010322928">
        <ele>0.62</ele>
        <time>2017-06-27T10:20:30Z</time>
      </trkpt>
      <trkpt lat="69.575385041534901" lon="20.586817022413015">
        <ele>0.62</ele>
        <time>2017-06-27T10:20:39Z</time>
      </trkpt>
      <trkpt lat="69.57317003980279" lon="20.589117016643286">
        <ele>0.14</ele>
        <time>2017-06-27T10:20:49Z</time>
      </trkpt>
      <trkpt lat="69.570767031982541" lon="20.591302011162043">
        <ele>-1.79</ele>
        <time>2017-06-27T10:21:00Z</time>
      </trkpt>
      <trkpt lat="69.56754201091826" lon="20.592703968286514">
        <ele>-1.3</ele>
        <time>2017-06-27T10:21:14Z</time>
      </trkpt>
      <trkpt lat="69.563736040145159" lon="20.596097968518734">
        <ele>1.1</ele>
        <time>2017-06-27T10:21:31Z</time>
      </trkpt>
      <trkpt lat="69.561245022341609" lon="20.59885997325182">
        <ele>-3.23</ele>
        <time>2017-06-27T10:21:43Z</time>
      </trkpt>
      <trkpt lat="69.559493036940694" lon="20.601725997403264">
        <ele>-3.71</ele>
        <time>2017-06-27T10:21:52Z</time>
      </trkpt>
      <trkpt lat="69.556927001103759" lon="20.60665899887681">
        <ele>-3.71</ele>
        <time>2017-06-27T10:22:05Z</time>
      </trkpt>
      <trkpt lat="69.554669000208378" lon="20.60964304022491">
        <ele>-1.3</ele>
        <time>2017-06-27T10:22:16Z</time>
      </trkpt>
      <trkpt lat="69.554491974413395" lon="20.609922995790839">
        <ele>-0.34</ele>
        <time>2017-06-27T10:22:17Z</time>
      </trkpt>
      <trkpt lat="69.55433196388185" lon="20.610258020460606">
        <ele>0.14</ele>
        <time>2017-06-27T10:22:18Z</time>
      </trkpt>
      <trkpt lat="69.554182011634111" lon="20.610634032636881">
        <ele>0.14</ele>
        <time>2017-06-27T10:22:19Z</time>
      </trkpt>
      <trkpt lat="69.553108960390091" lon="20.612878035753965">
        <ele>-2.75</ele>
        <time>2017-06-27T10:22:25Z</time>
      </trkpt>
      <trkpt lat="69.550920026376843" lon="20.616706972941756">
        <ele>-4.67</ele>
        <time>2017-06-27T10:22:36Z</time>
      </trkpt>
      <trkpt lat="69.54807898029685" lon="20.621635029092431">
        <ele>-3.71</ele>
        <time>2017-06-27T10:22:50Z</time>
      </trkpt>
      <trkpt lat="69.546849019825459" lon="20.624573975801468">
        <ele>-4.19</ele>
        <time>2017-06-27T10:22:57Z</time>
      </trkpt>
      <trkpt lat="69.544739965349436" lon="20.628937007859349">
        <ele>-2.27</ele>
        <time>2017-06-27T10:23:08Z</time>
      </trkpt>
      <trkpt lat="69.542181976139545" lon="20.633434988558292">
        <ele>-4.19</ele>
        <time>2017-06-27T10:23:21Z</time>
      </trkpt>
      <trkpt lat="69.53997602686286" lon="20.638378970324993">
        <ele>-9</ele>
        <time>2017-06-27T10:23:33Z</time>
      </trkpt>
      <trkpt lat="69.538308028131723" lon="20.641753021627665">
        <ele>-4.19</ele>
        <time>2017-06-27T10:23:42Z</time>
      </trkpt>
      <trkpt lat="69.537387024611235" lon="20.645455978810787">
        <ele>-9</ele>
        <time>2017-06-27T10:23:49Z</time>
      </trkpt>
      <trkpt lat="69.535071020945907" lon="20.654107024893165">
        <ele>-9</ele>
        <time>2017-06-27T10:24:05Z</time>
      </trkpt>
      <trkpt lat="69.533517016097903" lon="20.658001005649567">
        <ele>-6.11</ele>
        <time>2017-06-27T10:24:14Z</time>
      </trkpt>
      <trkpt lat="69.531199000775814" lon="20.663199964910746">
        <ele>-2.27</ele>
        <time>2017-06-27T10:24:27Z</time>
      </trkpt>
      <trkpt lat="69.529753038659692" lon="20.667497031390667">
        <ele>-9.48</ele>
        <time>2017-06-27T10:24:37Z</time>
      </trkpt>
      <trkpt lat="69.529024986550212" lon="20.671295039355755">
        <ele>-8.029999999999999</ele>
        <time>2017-06-27T10:24:44Z</time>
      </trkpt>
      <trkpt lat="69.527462013065815" lon="20.680686961859465">
        <ele>3.98</ele>
        <time>2017-06-27T10:25:00Z</time>
      </trkpt>
      <trkpt lat="69.526734966784716" lon="20.684355972334743">
        <ele>9.27</ele>
        <time>2017-06-27T10:25:07Z</time>
      </trkpt>
      <trkpt lat="69.52659297734499" lon="20.684766015037894">
        <ele>9.75</ele>
        <time>2017-06-27T10:25:08Z</time>
      </trkpt>
      <trkpt lat="69.526433972641826" lon="20.685149990022182">
        <ele>10.23</ele>
        <time>2017-06-27T10:25:09Z</time>
      </trkpt>
      <trkpt lat="69.525117008015513" lon="20.687977960333228">
        <ele>14.08</ele>
        <time>2017-06-27T10:25:17Z</time>
      </trkpt>
      <trkpt lat="69.524610992521048" lon="20.689617041498423">
        <ele>12.630000000000001</ele>
        <time>2017-06-27T10:25:21Z</time>
      </trkpt>
      <trkpt lat="69.524520970880985" lon="20.690073017030954">
        <ele>12.15</ele>
        <time>2017-06-27T10:25:22Z</time>
      </trkpt>
      <trkpt lat="69.524446958675981" lon="20.690553970634937">
        <ele>11.19</ele>
        <time>2017-06-27T10:25:23Z</time>
      </trkpt>
      <trkpt lat="69.524394990876317" lon="20.691049005836248">
        <ele>10.23</ele>
        <time>2017-06-27T10:25:24Z</time>
      </trkpt>
      <trkpt lat="69.524361966177821" lon="20.691566001623869">
        <ele>8.789999999999999</ele>
        <time>2017-06-27T10:25:25Z</time>
      </trkpt>
      <trkpt lat="69.524342017248273" lon="20.692100012674928">
        <ele>7.35</ele>
        <time>2017-06-27T10:25:26Z</time>
      </trkpt>
      <trkpt lat="69.524332964792848" lon="20.692651038989425">
        <ele>6.39</ele>
        <time>2017-06-27T10:25:27Z</time>
      </trkpt>
      <trkpt lat="69.524343023076653" lon="20.693214973434806">
        <ele>4.94</ele>
        <time>2017-06-27T10:25:28Z</time>
      </trkpt>
      <trkpt lat="69.524368001148105" lon="20.693800030276179">
        <ele>3.02</ele>
        <time>2017-06-27T10:25:29Z</time>
      </trkpt>
      <trkpt lat="69.524413011968136" lon="20.694381985813379">
        <ele>1.58</ele>
        <time>2017-06-27T10:25:30Z</time>
      </trkpt>
      <trkpt lat="69.52446598559618" lon="20.694955978542566">
        <ele>0.14</ele>
        <time>2017-06-27T10:25:31Z</time>
      </trkpt>
      <trkpt lat="69.524552989751101" lon="20.696127014234662">
        <ele>-2.75</ele>
        <time>2017-06-27T10:25:33Z</time>
      </trkpt>
      <trkpt lat="69.524564975872636" lon="20.696750041097403">
        <ele>-3.71</ele>
        <time>2017-06-27T10:25:34Z</time>
      </trkpt>
      <trkpt lat="69.524556007236242" lon="20.697395028546453">
        <ele>-4.67</ele>
        <time>2017-06-27T10:25:35Z</time>
      </trkpt>
      <trkpt lat="69.524348974227905" lon="20.705433022230864">
        <ele>-11.4</ele>
        <time>2017-06-27T10:25:47Z</time>
      </trkpt>
      <trkpt lat="69.524553995579481" lon="20.710295028984547">
        <ele>-5.63</ele>
        <time>2017-06-27T10:25:55Z</time>
      </trkpt>
      <trkpt lat="69.52534700743854" lon="20.715530030429363">
        <ele>-6.59</ele>
        <time>2017-06-27T10:26:04Z</time>
      </trkpt>
      <trkpt lat="69.525607014074922" lon="20.717297019436955">
        <ele>-7.07</ele>
        <time>2017-06-27T10:26:07Z</time>
      </trkpt>
      <trkpt lat="69.525656970217824" lon="20.717905964702368">
        <ele>-6.59</ele>
        <time>2017-06-27T10:26:08Z</time>
      </trkpt>
      <trkpt lat="69.5256910007447" lon="20.718523040413857">
        <ele>-6.11</ele>
        <time>2017-06-27T10:26:09Z</time>
      </trkpt>
      <trkpt lat="69.52571396715939" lon="20.71915403008461">
        <ele>-5.15</ele>
        <time>2017-06-27T10:26:10Z</time>
      </trkpt>
      <trkpt lat="69.525723019614816" lon="20.71977898478508">
        <ele>-5.15</ele>
        <time>2017-06-27T10:26:11Z</time>
      </trkpt>
      <trkpt lat="69.525717990472913" lon="20.720421960577369">
        <ele>-4.67</ele>
        <time>2017-06-27T10:26:12Z</time>
      </trkpt>
      <trkpt lat="69.525706004351377" lon="20.721060996875167">
        <ele>-4.19</ele>
        <time>2017-06-27T10:26:13Z</time>
      </trkpt>
      <trkpt lat="69.525321023538709" lon="20.729239974170923">
        <ele>-2.27</ele>
        <time>2017-06-27T10:26:26Z</time>
      </trkpt>
      <trkpt lat="69.524645023047924" lon="20.73445200920105">
        <ele>-1.79</ele>
        <time>2017-06-27T10:26:35Z</time>
      </trkpt>
      <trkpt lat="69.523629974573851" lon="20.741815008223057">
        <ele>-3.71</ele>
        <time>2017-06-27T10:26:47Z</time>
      </trkpt>
      <trkpt lat="69.522964032366872" lon="20.746526978909969">
        <ele>-4.19</ele>
        <time>2017-06-27T10:26:55Z</time>
      </trkpt>
      <trkpt lat="69.523006025701761" lon="20.74968502856791">
        <ele>-4.67</ele>
        <time>2017-06-27T10:27:00Z</time>
      </trkpt>
      <trkpt lat="69.523071991279721" lon="20.750303026288748">
        <ele>-5.15</ele>
        <time>2017-06-27T10:27:01Z</time>
      </trkpt>
      <trkpt lat="69.523160001263022" lon="20.750898979604244">
        <ele>-5.15</ele>
        <time>2017-06-27T10:27:02Z</time>
      </trkpt>
      <trkpt lat="69.523263014853001" lon="20.751459980383515">
        <ele>-5.15</ele>
        <time>2017-06-27T10:27:03Z</time>
      </trkpt>
      <trkpt lat="69.523382037878036" lon="20.751993991434574">
        <ele>-5.15</ele>
        <time>2017-06-27T10:27:04Z</time>
      </trkpt>
      <trkpt lat="69.523511035367846" lon="20.752517022192478">
        <ele>-5.63</ele>
        <time>2017-06-27T10:27:05Z</time>
      </trkpt>
      <trkpt lat="69.523652018979192" lon="20.753031000494957">
        <ele>-6.11</ele>
        <time>2017-06-27T10:27:06Z</time>
      </trkpt>
      <trkpt lat="69.524320978671312" lon="20.755488993600011">
        <ele>-7.07</ele>
        <time>2017-06-27T10:27:11Z</time>
      </trkpt>
      <trkpt lat="69.524409994482994" lon="20.756035996600986">
        <ele>-7.07</ele>
        <time>2017-06-27T10:27:12Z</time>
      </trkpt>
      <trkpt lat="69.524479983374476" lon="20.756607977673411">
        <ele>-7.07</ele>
        <time>2017-06-27T10:27:13Z</time>
      </trkpt>
      <trkpt lat="69.524531029164791" lon="20.757194962352514">
        <ele>-6.59</ele>
        <time>2017-06-27T10:27:14Z</time>
      </trkpt>
      <trkpt lat="69.524562964215875" lon="20.7578070089221">
        <ele>-7.07</ele>
        <time>2017-06-27T10:27:15Z</time>
      </trkpt>
      <trkpt lat="69.524573022499681" lon="20.758424000814557">
        <ele>-6.59</ele>
        <time>2017-06-27T10:27:16Z</time>
      </trkpt>
      <trkpt lat="69.524565981701016" lon="20.759038981050253">
        <ele>-6.59</ele>
        <time>2017-06-27T10:27:17Z</time>
      </trkpt>
      <trkpt lat="69.524535974487662" lon="20.759648010134697">
        <ele>-6.59</ele>
        <time>2017-06-27T10:27:18Z</time>
      </trkpt>
      <trkpt lat="69.524481995031238" lon="20.760249998420477">
        <ele>-6.59</ele>
        <time>2017-06-27T10:27:19Z</time>
      </trkpt>
      <trkpt lat="69.524407982826233" lon="20.760843018069863">
        <ele>-6.11</ele>
        <time>2017-06-27T10:27:20Z</time>
      </trkpt>
      <trkpt lat="69.524322990328074" lon="20.761422039940953">
        <ele>-6.11</ele>
        <time>2017-06-27T10:27:21Z</time>
      </trkpt>
      <trkpt lat="69.524226011708379" lon="20.762001983821392">
        <ele>-5.63</ele>
        <time>2017-06-27T10:27:22Z</time>
      </trkpt>
      <trkpt lat="69.523368962109089" lon="20.767672006040812">
        <ele>-6.11</ele>
        <time>2017-06-27T10:27:31Z</time>
      </trkpt>
      <trkpt lat="69.523257985711098" lon="20.768211968243122">
        <ele>-6.59</ele>
        <time>2017-06-27T10:27:32Z</time>
      </trkpt>
      <trkpt lat="69.523134017363191" lon="20.76870096847415">
        <ele>-6.59</ele>
        <time>2017-06-27T10:27:33Z</time>
      </trkpt>
      <trkpt lat="69.522990016266704" lon="20.76912802644074">
        <ele>-6.59</ele>
        <time>2017-06-27T10:27:34Z</time>
      </trkpt>
      <trkpt lat="69.522828999906778" lon="20.769491968676448">
        <ele>-6.11</ele>
        <time>2017-06-27T10:27:35Z</time>
      </trkpt>
      <trkpt lat="69.522653985768557" lon="20.769806960597634">
        <ele>-6.11</ele>
        <time>2017-06-27T10:27:36Z</time>
      </trkpt>
      <trkpt lat="69.522465979680419" lon="20.770066967234015">
        <ele>-5.63</ele>
        <time>2017-06-27T10:27:37Z</time>
      </trkpt>
      <trkpt lat="69.52227202244103" lon="20.770291015505791">
        <ele>-5.63</ele>
        <time>2017-06-27T10:27:38Z</time>
      </trkpt>
      <trkpt lat="69.520978024229407" lon="20.772381965070963">
        <ele>-5.63</ele>
        <time>2017-06-27T10:27:45Z</time>
      </trkpt>
      <trkpt lat="69.519080026075244" lon="20.776067990809679">
        <ele>-6.59</ele>
        <time>2017-06-27T10:27:55Z</time>
      </trkpt>
      <trkpt lat="69.516825964674354" lon="20.780641995370388">
        <ele>-7.55</ele>
        <time>2017-06-27T10:28:07Z</time>
      </trkpt>
      <trkpt lat="69.515046989545226" lon="20.783281959593296">
        <ele>-8.029999999999999</ele>
        <time>2017-06-27T10:28:16Z</time>
      </trkpt>
      <trkpt lat="69.512205021455884" lon="20.788456024602056">
        <ele>-6.11</ele>
        <time>2017-06-27T10:28:31Z</time>
      </trkpt>
      <trkpt lat="69.510425040498376" lon="20.792686035856605">
        <ele>-6.11</ele>
        <time>2017-06-27T10:28:41Z</time>
      </trkpt>
      <trkpt lat="69.509012019261718" lon="20.795166995376348">
        <ele>-7.55</ele>
        <time>2017-06-27T10:28:48Z</time>
      </trkpt>
      <trkpt lat="69.506876980885863" lon="20.797531027346849">
        <ele>-7.55</ele>
        <time>2017-06-27T10:28:58Z</time>
      </trkpt>
      <trkpt lat="69.506518989801407" lon="20.798016004264355">
        <ele>-7.07</ele>
        <time>2017-06-27T10:29:00Z</time>
      </trkpt>
      <trkpt lat="69.506350010633469" lon="20.798362009227276">
        <ele>-7.07</ele>
        <time>2017-06-27T10:29:01Z</time>
      </trkpt>
      <trkpt lat="69.506188994273543" lon="20.798760987818241">
        <ele>-7.07</ele>
        <time>2017-06-27T10:29:02Z</time>
      </trkpt>
      <trkpt lat="69.504973031580448" lon="20.801964970305562">
        <ele>-7.07</ele>
        <time>2017-06-27T10:29:09Z</time>
      </trkpt>
      <trkpt lat="69.50340997427702" lon="20.805142968893051">
        <ele>-7.07</ele>
        <time>2017-06-27T10:29:17Z</time>
      </trkpt>
      <trkpt lat="69.50177701190114" lon="20.810169009491801">
        <ele>-6.11</ele>
        <time>2017-06-27T10:29:27Z</time>
      </trkpt>
      <trkpt lat="69.50051000341773" lon="20.813812036067247">
        <ele>-4.19</ele>
        <time>2017-06-27T10:29:35Z</time>
      </trkpt>
      <trkpt lat="69.499146016314626" lon="20.818421998992562">
        <ele>-2.27</ele>
        <time>2017-06-27T10:29:44Z</time>
      </trkpt>
      <trkpt lat="69.497560998424888" lon="20.821584993973374">
        <ele>-4.19</ele>
        <time>2017-06-27T10:29:52Z</time>
      </trkpt>
      <trkpt lat="69.495224040001631" lon="20.825602021068335">
        <ele>-5.63</ele>
        <time>2017-06-27T10:30:05Z</time>
      </trkpt>
      <trkpt lat="69.494140008464456" lon="20.826057996600866">
        <ele>-5.63</ele>
        <time>2017-06-27T10:30:11Z</time>
      </trkpt>
      <trkpt lat="69.492890015244484" lon="20.825090976431966">
        <ele>-5.15</ele>
        <time>2017-06-27T10:30:18Z</time>
      </trkpt>
      <trkpt lat="69.492005975916982" lon="20.823022993281484">
        <ele>-4.19</ele>
        <time>2017-06-27T10:30:24Z</time>
      </trkpt>
      <trkpt lat="69.491422008723021" lon="20.819807024672627">
        <ele>-2.75</ele>
        <time>2017-06-27T10:30:30Z</time>
      </trkpt>
      <trkpt lat="69.491299968212843" lon="20.81588001921773">
        <ele>-2.27</ele>
        <time>2017-06-27T10:30:36Z</time>
      </trkpt>
      <trkpt lat="69.491729037836194" lon="20.811953013762832">
        <ele>-3.23</ele>
        <time>2017-06-27T10:30:42Z</time>
      </trkpt>
      <trkpt lat="69.49277400970459" lon="20.807881001383066">
        <ele>-5.15</ele>
        <time>2017-06-27T10:30:49Z</time>
      </trkpt>
      <trkpt lat="69.494792958721519" lon="20.800399985164404">
        <ele>-6.11</ele>
        <time>2017-06-27T10:31:02Z</time>
      </trkpt>
      <trkpt lat="69.496658015996218" lon="20.793921025469899">
        <ele>-6.59</ele>
        <time>2017-06-27T10:31:15Z</time>
      </trkpt>
      <trkpt lat="69.512553038075566" lon="20.720798978582025">
        <ele>5.42</ele>
        <time>2017-06-27T10:33:14Z</time>
      </trkpt>
      <trkpt lat="69.512423034757376" lon="20.715498011559248">
        <ele>8.789999999999999</ele>
        <time>2017-06-27T10:33:22Z</time>
      </trkpt>
      <trkpt lat="69.512574998661876" lon="20.71150696836412">
        <ele>7.83</ele>
        <time>2017-06-27T10:33:28Z</time>
      </trkpt>
      <trkpt lat="69.512723023071885" lon="20.708197960630059">
        <ele>8.789999999999999</ele>
        <time>2017-06-27T10:33:34Z</time>
      </trkpt>
      <trkpt lat="69.512480031698942" lon="20.705278962850571">
        <ele>8.789999999999999</ele>
        <time>2017-06-27T10:33:41Z</time>
      </trkpt>
      <trkpt lat="69.511720966547728" lon="20.700486022979021">
        <ele>10.23</ele>
        <time>2017-06-27T10:33:53Z</time>
      </trkpt>
      <trkpt lat="69.510928960517049" lon="20.695642959326506">
        <ele>16</ele>
        <time>2017-06-27T10:34:05Z</time>
      </trkpt>
      <trkpt lat="69.515815023332834" lon="20.637528961524367">
        <ele>4.94</ele>
        <time>2017-06-27T10:35:57Z</time>
      </trkpt>
      <trkpt lat="69.51638700440526" lon="20.634532012045383">
        <ele>3.5</ele>
        <time>2017-06-27T10:36:05Z</time>
      </trkpt>
      <trkpt lat="69.516483983024955" lon="20.634239986538887">
        <ele>1.58</ele>
        <time>2017-06-27T10:36:06Z</time>
      </trkpt>
      <trkpt lat="69.516594959422946" lon="20.633974028751254">
        <ele>-0.34</ele>
        <time>2017-06-27T10:36:07Z</time>
      </trkpt>
      <trkpt lat="69.516714988276362" lon="20.633756015449762">
        <ele>-0.82</ele>
        <time>2017-06-27T10:36:08Z</time>
      </trkpt>
      <trkpt lat="69.516841974109411" lon="20.633569015190005">
        <ele>-1.79</ele>
        <time>2017-06-27T10:36:09Z</time>
      </trkpt>
      <trkpt lat="69.516982035711408" lon="20.633421996608377">
        <ele>-1.79</ele>
        <time>2017-06-27T10:36:10Z</time>
      </trkpt>
      <trkpt lat="69.517126036807895" lon="20.633285036310554">
        <ele>-1.79</ele>
        <time>2017-06-27T10:36:11Z</time>
      </trkpt>
      <trkpt lat="69.517990965396166" lon="20.632029008120298">
        <ele>-0.34</ele>
        <time>2017-06-27T10:36:17Z</time>
      </trkpt>
      <trkpt lat="69.518117029219866" lon="20.631679985672235">
        <ele>0.14</ele>
        <time>2017-06-27T10:36:18Z</time>
      </trkpt>
      <trkpt lat="69.518226999789476" lon="20.631292993202806">
        <ele>0.14</ele>
        <time>2017-06-27T10:36:19Z</time>
      </trkpt>
      <trkpt lat="69.51832196675241" lon="20.630876999348402">
        <ele>1.1</ele>
        <time>2017-06-27T10:36:20Z</time>
      </trkpt>
      <trkpt lat="69.518397990614176" lon="20.630438039079309">
        <ele>1.58</ele>
        <time>2017-06-27T10:36:21Z</time>
      </trkpt>
      <trkpt lat="69.518455993384123" lon="20.629986003041267">
        <ele>2.06</ele>
        <time>2017-06-27T10:36:22Z</time>
      </trkpt>
      <trkpt lat="69.518490023910999" lon="20.629515023902059">
        <ele>2.06</ele>
        <time>2017-06-27T10:36:23Z</time>
      </trkpt>
      <trkpt lat="69.518509972840548" lon="20.629041027277708">
        <ele>3.02</ele>
        <time>2017-06-27T10:36:24Z</time>
      </trkpt>
      <trkpt lat="69.518519025295973" lon="20.628560995683074">
        <ele>3.5</ele>
        <time>2017-06-27T10:36:25Z</time>
      </trkpt>
      <trkpt lat="69.518521036952734" lon="20.628082975745201">
        <ele>3.5</ele>
        <time>2017-06-27T10:36:26Z</time>
      </trkpt>
      <trkpt lat="69.518627990037203" lon="20.625203037634492">
        <ele>5.42</ele>
        <time>2017-06-27T10:36:32Z</time>
      </trkpt>
      <trkpt lat="69.518681969493628" lon="20.62474999576807">
        <ele>5.42</ele>
        <time>2017-06-27T10:36:33Z</time>
      </trkpt>
      <trkpt lat="69.51875296421349" lon="20.624317992478609">
        <ele>5.91</ele>
        <time>2017-06-27T10:36:34Z</time>
      </trkpt>
      <trkpt lat="69.518838040530682" lon="20.623906021937728">
        <ele>5.91</ele>
        <time>2017-06-27T10:36:35Z</time>
      </trkpt>
      <trkpt lat="69.518939964473248" lon="20.623522968962789">
        <ele>6.39</ele>
        <time>2017-06-27T10:36:36Z</time>
      </trkpt>
      <trkpt lat="69.519057981669903" lon="20.623172018676996">
        <ele>5.91</ele>
        <time>2017-06-27T10:36:37Z</time>
      </trkpt>
      <trkpt lat="69.519189996644855" lon="20.622854009270668">
        <ele>5.42</ele>
        <time>2017-06-27T10:36:38Z</time>
      </trkpt>
      <trkpt lat="69.519338021054864" lon="20.622562989592552">
        <ele>5.42</ele>
        <time>2017-06-27T10:36:39Z</time>
      </trkpt>
      <trkpt lat="69.519487973302603" lon="20.622283034026623">
        <ele>4.94</ele>
        <time>2017-06-27T10:36:40Z</time>
      </trkpt>
      <trkpt lat="69.521935991942883" lon="20.617796033620834">
        <ele>1.1</ele>
        <time>2017-06-27T10:36:55Z</time>
      </trkpt>
      <trkpt lat="69.524539997801185" lon="20.613000998273492">
        <ele>3.02</ele>
        <time>2017-06-27T10:37:08Z</time>
      </trkpt>
      <trkpt lat="69.526459034532309" lon="20.610048975795507">
        <ele>4.94</ele>
        <time>2017-06-27T10:37:17Z</time>
      </trkpt>
      <trkpt lat="69.529166975989938" lon="20.606404021382332">
        <ele>3.02</ele>
        <time>2017-06-27T10:37:29Z</time>
      </trkpt>
      <trkpt lat="69.531977009028196" lon="20.603706976398826">
        <ele>-2.27</ele>
        <time>2017-06-27T10:37:41Z</time>
      </trkpt>
      <trkpt lat="69.535457007586956" lon="20.600367039442062">
        <ele>0.62</ele>
        <time>2017-06-27T10:37:56Z</time>
      </trkpt>
      <trkpt lat="69.537398004904389" lon="20.598641959950328">
        <ele>0.14</ele>
        <time>2017-06-27T10:38:05Z</time>
      </trkpt>
      <trkpt lat="69.539260966703296" lon="20.596297038719058">
        <ele>4.46</ele>
        <time>2017-06-27T10:38:13Z</time>
      </trkpt>
      <trkpt lat="69.541019992902875" lon="20.594107015058398">
        <ele>11.19</ele>
        <time>2017-06-27T10:38:21Z</time>
      </trkpt>
      <trkpt lat="69.543382013216615" lon="20.589524963870645">
        <ele>8.789999999999999</ele>
        <time>2017-06-27T10:38:33Z</time>
      </trkpt>
      <trkpt lat="69.54536902718246" lon="20.584881976246834">
        <ele>7.83</ele>
        <time>2017-06-27T10:38:44Z</time>
      </trkpt>
      <trkpt lat="69.546523969620466" lon="20.580690018832684">
        <ele>10.23</ele>
        <time>2017-06-27T10:38:52Z</time>
      </trkpt>
      <trkpt lat="69.547511022537947" lon="20.575211020186543">
        <ele>10.23</ele>
        <time>2017-06-27T10:39:01Z</time>
      </trkpt>
      <trkpt lat="69.54829297028482" lon="20.56905803270638">
        <ele>13.6</ele>
        <time>2017-06-27T10:39:11Z</time>
      </trkpt>
      <trkpt lat="69.548324989154935" lon="20.568004008382559">
        <ele>15.039999999999999</ele>
        <time>2017-06-27T10:39:13Z</time>
      </trkpt>
      <trkpt lat="69.548305962234735" lon="20.567492041736841">
        <ele>15.52</ele>
        <time>2017-06-27T10:39:14Z</time>
      </trkpt>
      <trkpt lat="69.548263968899846" lon="20.566971022635698">
        <ele>16</ele>
        <time>2017-06-27T10:39:15Z</time>
      </trkpt>
      <trkpt lat="69.548195991665125" lon="20.566468024626374">
        <ele>16</ele>
        <time>2017-06-27T10:39:16Z</time>
      </trkpt>
      <trkpt lat="69.548105970025063" lon="20.565971983596683">
        <ele>16.48</ele>
        <time>2017-06-27T10:39:17Z</time>
      </trkpt>
      <trkpt lat="69.547999016940594" lon="20.565486000850797">
        <ele>16.48</ele>
        <time>2017-06-27T10:39:18Z</time>
      </trkpt>
      <trkpt lat="69.547879993915558" lon="20.565004041418433">
        <ele>16.960000000000001</ele>
        <time>2017-06-27T10:39:19Z</time>
      </trkpt>
      <trkpt lat="69.547204999253154" lon="20.562715027481318">
        <ele>17.920000000000002</ele>
        <time>2017-06-27T10:39:24Z</time>
      </trkpt>
      <trkpt lat="69.547041971236467" lon="20.562337003648281">
        <ele>16.960000000000001</ele>
        <time>2017-06-27T10:39:25Z</time>
      </trkpt>
      <trkpt lat="69.545917036011815" lon="20.559365032240748">
        <ele>12.630000000000001</ele>
        <time>2017-06-27T10:39:32Z</time>
      </trkpt>
      <trkpt lat="69.544691015034914" lon="20.55687996558845">
        <ele>7.83</ele>
        <time>2017-06-27T10:39:39Z</time>
      </trkpt>
      <trkpt lat="69.542863005772233" lon="20.552040003240108">
        <ele>3.02</ele>
        <time>2017-06-27T10:39:50Z</time>
      </trkpt>
      <trkpt lat="69.542081980034709" lon="20.548891006037593">
        <ele>2.06</ele>
        <time>2017-06-27T10:39:57Z</time>
      </trkpt>
      <trkpt lat="69.541678978130221" lon="20.544859981164336">
        <ele>3.98</ele>
        <time>2017-06-27T10:40:05Z</time>
      </trkpt>
      <trkpt lat="69.541749972850084" lon="20.540065029636025">
        <ele>3.5</ele>
        <time>2017-06-27T10:40:14Z</time>
      </trkpt>
      <trkpt lat="69.542049039155245" lon="20.536717968061566">
        <ele>3.5</ele>
        <time>2017-06-27T10:40:22Z</time>
      </trkpt>
      <trkpt lat="69.542844984680414" lon="20.532603962346911">
        <ele>2.06</ele>
        <time>2017-06-27T10:40:34Z</time>
      </trkpt>
      <trkpt lat="69.543501036241651" lon="20.530965970829129">
        <ele>2.54</ele>
        <time>2017-06-27T10:40:42Z</time>
      </trkpt>
      <trkpt lat="69.543872019276023" lon="20.53030296228826">
        <ele>3.5</ele>
        <time>2017-06-27T10:40:51Z</time>
      </trkpt>
      <trkpt lat="69.544247025623918" lon="20.529816979542375">
        <ele>4.94</ele>
        <time>2017-06-27T10:40:58Z</time>
      </trkpt>
      <trkpt lat="69.54519703052938" lon="20.528999995440245">
        <ele>10.23</ele>
        <time>2017-06-27T10:41:06Z</time>
      </trkpt>
      <trkpt lat="69.546834016218781" lon="20.528509989380836">
        <ele>19.359999999999999</ele>
        <time>2017-06-27T10:41:16Z</time>
      </trkpt>
      <trkpt lat="69.54908698797226" lon="20.528920032083988">
        <ele>28.5</ele>
        <time>2017-06-27T10:41:27Z</time>
      </trkpt>
      <trkpt lat="69.551814962178469" lon="20.529660992324352">
        <ele>28.98</ele>
        <time>2017-06-27T10:41:38Z</time>
      </trkpt>
      <trkpt lat="69.555408032611012" lon="20.531473997980356">
        <ele>16.960000000000001</ele>
        <time>2017-06-27T10:41:52Z</time>
      </trkpt>
      <trkpt lat="69.558186968788505" lon="20.533010987564921">
        <ele>-1.79</ele>
        <time>2017-06-27T10:42:04Z</time>
      </trkpt>
      <trkpt lat="69.559650029987097" lon="20.532286036759615">
        <ele>-8.029999999999999</ele>
        <time>2017-06-27T10:42:11Z</time>
      </trkpt>
      <trkpt lat="69.563089963048697" lon="20.530141023918986">
        <ele>-1.79</ele>
        <time>2017-06-27T10:42:26Z</time>
      </trkpt>
      <trkpt lat="69.565723976120353" lon="20.527144996449351">
        <ele>3.5</ele>
        <time>2017-06-27T10:42:38Z</time>
      </trkpt>
      <trkpt lat="69.56829696893692" lon="20.522745000198483">
        <ele>-2.75</ele>
        <time>2017-06-27T10:42:50Z</time>
      </trkpt>
      <trkpt lat="69.569597002118826" lon="20.51979498937726">
        <ele>-2.27</ele>
        <time>2017-06-27T10:42:57Z</time>
      </trkpt>
      <trkpt lat="69.570741970092058" lon="20.515794977545738">
        <ele>-3.71</ele>
        <time>2017-06-27T10:43:04Z</time>
      </trkpt>
      <trkpt lat="69.572321958839893" lon="20.511277969926596">
        <ele>0.14</ele>
        <time>2017-06-27T10:43:13Z</time>
      </trkpt>
      <trkpt lat="69.57364596426487" lon="20.505342995747924">
        <ele>0.62</ele>
        <time>2017-06-27T10:43:23Z</time>
      </trkpt>
      <trkpt lat="69.574713986366987" lon="20.500356014817953">
        <ele>0.62</ele>
        <time>2017-06-27T10:43:32Z</time>
      </trkpt>
      <trkpt lat="69.575973032042384" lon="20.49164998345077">
        <ele>-0.34</ele>
        <time>2017-06-27T10:43:46Z</time>
      </trkpt>
      <trkpt lat="69.577070977538824" lon="20.48642504028976">
        <ele>0.62</ele>
        <time>2017-06-27T10:43:55Z</time>
      </trkpt>
      <trkpt lat="69.578333040699363" lon="20.480900024995208">
        <ele>-0.82</ele>
        <time>2017-06-27T10:44:05Z</time>
      </trkpt>
      <trkpt lat="69.579485971480608" lon="20.476716030389071">
        <ele>-2.75</ele>
        <time>2017-06-27T10:44:13Z</time>
      </trkpt>
      <trkpt lat="69.58080000244081" lon="20.471411040052772">
        <ele>-3.71</ele>
        <time>2017-06-27T10:44:23Z</time>
      </trkpt>
      <trkpt lat="69.581196969375014" lon="20.469949990510941">
        <ele>-4.19</ele>
        <time>2017-06-27T10:44:26Z</time>
      </trkpt>
      <trkpt lat="69.581356979906559" lon="20.469529973343015">
        <ele>-3.71</ele>
        <time>2017-06-27T10:44:27Z</time>
      </trkpt>
      <trkpt lat="69.582120990380645" lon="20.46749803237617">
        <ele>-3.23</ele>
        <time>2017-06-27T10:44:32Z</time>
      </trkpt>
      <trkpt lat="69.582236995920539" lon="20.46702696941793">
        <ele>-3.23</ele>
        <time>2017-06-27T10:44:33Z</time>
      </trkpt>
      <trkpt lat="69.582344032824039" lon="20.466513996943831">
        <ele>-3.71</ele>
        <time>2017-06-27T10:44:34Z</time>
      </trkpt>
      <trkpt lat="69.583120029419661" lon="20.461924988776445">
        <ele>-3.71</ele>
        <time>2017-06-27T10:44:42Z</time>
      </trkpt>
      <trkpt lat="69.584458032622933" lon="20.455778958275914">
        <ele>-2.27</ele>
        <time>2017-06-27T10:44:53Z</time>
      </trkpt>
      <trkpt lat="69.584532966837287" lon="20.455183004960418">
        <ele>-2.27</ele>
        <time>2017-06-27T10:44:54Z</time>
      </trkpt>
      <trkpt lat="69.584804959595203" lon="20.452770022675395">
        <ele>-2.75</ele>
        <time>2017-06-27T10:44:58Z</time>
      </trkpt>
      <trkpt lat="69.584908979013562" lon="20.452189994975924">
        <ele>-2.75</ele>
        <time>2017-06-27T10:44:59Z</time>
      </trkpt>
      <trkpt lat="69.585026996210217" lon="20.451626982539892">
        <ele>-2.75</ele>
        <time>2017-06-27T10:45:00Z</time>
      </trkpt>
      <trkpt lat="69.58516102284193" lon="20.451088026165962">
        <ele>-2.75</ele>
        <time>2017-06-27T10:45:01Z</time>
      </trkpt>
      <trkpt lat="69.585309969261289" lon="20.450572036206722">
        <ele>-2.75</ele>
        <time>2017-06-27T10:45:02Z</time>
      </trkpt>
      <trkpt lat="69.585467968136072" lon="20.45007498934865">
        <ele>-2.75</ele>
        <time>2017-06-27T10:45:03Z</time>
      </trkpt>
      <trkpt lat="69.587537962943316" lon="20.444765975698829">
        <ele>-1.79</ele>
        <time>2017-06-27T10:45:15Z</time>
      </trkpt>
      <trkpt lat="69.588728025555611" lon="20.441962983459234">
        <ele>-0.82</ele>
        <time>2017-06-27T10:45:22Z</time>
      </trkpt>
      <trkpt lat="69.590306002646685" lon="20.436853962019086">
        <ele>-0.34</ele>
        <time>2017-06-27T10:45:33Z</time>
      </trkpt>
      <trkpt lat="69.590904973447323" lon="20.432857973501086">
        <ele>-1.3</ele>
        <time>2017-06-27T10:45:40Z</time>
      </trkpt>
      <trkpt lat="69.591361032798886" lon="20.427187029272318">
        <ele>1.1</ele>
        <time>2017-06-27T10:45:49Z</time>
      </trkpt>
      <trkpt lat="69.591258019208908" lon="20.420076996088028">
        <ele>2.54</ele>
        <time>2017-06-27T10:46:00Z</time>
      </trkpt>
      <trkpt lat="69.590734988451004" lon="20.415908005088568">
        <ele>3.98</ele>
        <time>2017-06-27T10:46:07Z</time>
      </trkpt>
      <trkpt lat="69.589680964127183" lon="20.411860970780253">
        <ele>4.94</ele>
        <time>2017-06-27T10:46:15Z</time>
      </trkpt>
      <trkpt lat="69.587709037587047" lon="20.406819004565477">
        <ele>4.46</ele>
        <time>2017-06-27T10:46:27Z</time>
      </trkpt>
      <trkpt lat="69.586526015773416" lon="20.402341978624463">
        <ele>8.789999999999999</ele>
        <time>2017-06-27T10:46:36Z</time>
      </trkpt>
      <trkpt lat="69.58539797924459" lon="20.399630013853312">
        <ele>11.67</ele>
        <time>2017-06-27T10:46:43Z</time>
      </trkpt>
      <trkpt lat="69.5839589741081" lon="20.397983975708485">
        <ele>12.15</ele>
        <time>2017-06-27T10:46:50Z</time>
      </trkpt>
      <trkpt lat="69.582615019753575" lon="20.398001996800303">
        <ele>11.67</ele>
        <time>2017-06-27T10:46:56Z</time>
      </trkpt>
      <trkpt lat="69.581137038767338" lon="20.399396996945143">
        <ele>8.310000000000001</ele>
        <time>2017-06-27T10:47:03Z</time>
      </trkpt>
      <trkpt lat="69.580265991389751" lon="20.399791030213237">
        <ele>8.310000000000001</ele>
        <time>2017-06-27T10:47:07Z</time>
      </trkpt>
      <trkpt lat="69.580043032765388" lon="20.399764040485024">
        <ele>8.310000000000001</ele>
        <time>2017-06-27T10:47:08Z</time>
      </trkpt>
      <trkpt lat="69.579824013635516" lon="20.399684999138117">
        <ele>8.310000000000001</ele>
        <time>2017-06-27T10:47:09Z</time>
      </trkpt>
      <trkpt lat="69.577826019376516" lon="20.398694006726146">
        <ele>8.310000000000001</ele>
        <time>2017-06-27T10:47:18Z</time>
      </trkpt>
      <trkpt lat="69.576675016433001" lon="20.3982940223068">
        <ele>8.310000000000001</ele>
        <time>2017-06-27T10:47:23Z</time>
      </trkpt>
      <trkpt lat="69.576449040323496" lon="20.398063017055392">
        <ele>8.310000000000001</ele>
        <time>2017-06-27T10:47:24Z</time>
      </trkpt>
      <trkpt lat="69.574560010805726" lon="20.395454987883568">
        <ele>13.119999999999999</ele>
        <time>2017-06-27T10:47:33Z</time>
      </trkpt>
      <trkpt lat="69.573133997619152" lon="20.394730037078261">
        <ele>13.119999999999999</ele>
        <time>2017-06-27T10:47:40Z</time>
      </trkpt>
      <trkpt lat="69.571507992222905" lon="20.393507033586502">
        <ele>15.039999999999999</ele>
        <time>2017-06-27T10:47:48Z</time>
      </trkpt>
      <trkpt lat="69.570746999233961" lon="20.392400035634637">
        <ele>15.039999999999999</ele>
        <time>2017-06-27T10:47:52Z</time>
      </trkpt>
      <trkpt lat="69.57055295817554" lon="20.392232984304428">
        <ele>15.039999999999999</ele>
        <time>2017-06-27T10:47:53Z</time>
      </trkpt>
      <trkpt lat="69.570350032299757" lon="20.392110021784902">
        <ele>14.56</ele>
        <time>2017-06-27T10:47:54Z</time>
      </trkpt>
      <trkpt lat="69.568407023325562" lon="20.391283985227346">
        <ele>14.08</ele>
        <time>2017-06-27T10:48:03Z</time>
      </trkpt>
      <trkpt lat="69.566439036279917" lon="20.390113033354282">
        <ele>16</ele>
        <time>2017-06-27T10:48:12Z</time>
      </trkpt>
      <trkpt lat="69.564571967348456" lon="20.389446001499891">
        <ele>17.440000000000001</ele>
        <time>2017-06-27T10:48:20Z</time>
      </trkpt>
      <trkpt lat="69.563135979697108" lon="20.389648005366325">
        <ele>17.440000000000001</ele>
        <time>2017-06-27T10:48:26Z</time>
      </trkpt>
      <trkpt lat="69.561579041182995" lon="20.391028001904488">
        <ele>14.56</ele>
        <time>2017-06-27T10:48:33Z</time>
      </trkpt>
      <trkpt lat="69.56077597104013" lon="20.391687992960215">
        <ele>11.67</ele>
        <time>2017-06-27T10:48:37Z</time>
      </trkpt>
      <trkpt lat="69.560571033507586" lon="20.391735015437007">
        <ele>10.710000000000001</ele>
        <time>2017-06-27T10:48:38Z</time>
      </trkpt>
      <trkpt lat="69.560368023812771" lon="20.391708025708795">
        <ele>10.23</ele>
        <time>2017-06-27T10:48:39Z</time>
      </trkpt>
      <trkpt lat="69.560169037431479" lon="20.391610963270068">
        <ele>10.710000000000001</ele>
        <time>2017-06-27T10:48:40Z</time>
      </trkpt>
      <trkpt lat="69.559977008029819" lon="20.391477020457387">
        <ele>10.710000000000001</ele>
        <time>2017-06-27T10:48:41Z</time>
      </trkpt>
      <trkpt lat="69.559783972799778" lon="20.391292031854391">
        <ele>11.19</ele>
        <time>2017-06-27T10:48:42Z</time>
      </trkpt>
      <trkpt lat="69.559598984196782" lon="20.391063038259745">
        <ele>11.19</ele>
        <time>2017-06-27T10:48:43Z</time>
      </trkpt>
      <trkpt lat="69.559417013078928" lon="20.390813006088138">
        <ele>10.710000000000001</ele>
        <time>2017-06-27T10:48:44Z</time>
      </trkpt>
      <trkpt lat="69.557475009933114" lon="20.388521980494261">
        <ele>9.27</ele>
        <time>2017-06-27T10:48:54Z</time>
      </trkpt>
      <trkpt lat="69.557264959439635" lon="20.38843103684485">
        <ele>8.789999999999999</ele>
        <time>2017-06-27T10:48:55Z</time>
      </trkpt>
      <trkpt lat="69.557049041613936" lon="20.388389965519309">
        <ele>8.310000000000001</ele>
        <time>2017-06-27T10:48:56Z</time>
      </trkpt>
      <trkpt lat="69.554926995187998" lon="20.388429025188088">
        <ele>6.87</ele>
        <time>2017-06-27T10:49:05Z</time>
      </trkpt>
      <trkpt lat="69.552476964890957" lon="20.388161977753043">
        <ele>6.87</ele>
        <time>2017-06-27T10:49:15Z</time>
      </trkpt>
      <trkpt lat="69.549311036244035" lon="20.38785201497376">
        <ele>7.35</ele>
        <time>2017-06-27T10:49:28Z</time>
      </trkpt>
      <trkpt lat="69.547982001677155" lon="20.386419966816902">
        <ele>8.789999999999999</ele>
        <time>2017-06-27T10:49:34Z</time>
      </trkpt>
      <trkpt lat="69.545187978073955" lon="20.382254999130964">
        <ele>10.710000000000001</ele>
        <time>2017-06-27T10:49:47Z</time>
      </trkpt>
      <trkpt lat="69.543701028451324" lon="20.38134497590363">
        <ele>7.83</ele>
        <time>2017-06-27T10:49:54Z</time>
      </trkpt>
      <trkpt lat="69.54225498251617" lon="20.380070004612207">
        <ele>7.83</ele>
        <time>2017-06-27T10:50:03Z</time>
      </trkpt>
      <trkpt lat="69.540913961827755" lon="20.378711968660355">
        <ele>8.310000000000001</ele>
        <time>2017-06-27T10:50:13Z</time>
      </trkpt>
      <trkpt lat="69.539112020283937" lon="20.377721982076764">
        <ele>8.310000000000001</ele>
        <time>2017-06-27T10:50:28Z</time>
      </trkpt>
      <trkpt lat="69.537266995757818" lon="20.377588039264083">
        <ele>7.83</ele>
        <time>2017-06-27T10:50:42Z</time>
      </trkpt>
      <trkpt lat="69.535028021782637" lon="20.37777503952384">
        <ele>7.83</ele>
        <time>2017-06-27T10:50:57Z</time>
      </trkpt>
      <trkpt lat="69.533874001353979" lon="20.376679021865129">
        <ele>8.789999999999999</ele>
        <time>2017-06-27T10:51:03Z</time>
      </trkpt>
      <trkpt lat="69.532025959342718" lon="20.374266961589456">
        <ele>11.19</ele>
        <time>2017-06-27T10:51:12Z</time>
      </trkpt>
      <trkpt lat="69.530555019155145" lon="20.374453961849213">
        <ele>9.75</ele>
        <time>2017-06-27T10:51:18Z</time>
      </trkpt>
      <trkpt lat="69.52936202287674" lon="20.374475000426173">
        <ele>8.310000000000001</ele>
        <time>2017-06-27T10:51:23Z</time>
      </trkpt>
      <trkpt lat="69.529134035110474" lon="20.37431800737977">
        <ele>7.83</ele>
        <time>2017-06-27T10:51:24Z</time>
      </trkpt>
      <trkpt lat="69.528906969353557" lon="20.374109968543053">
        <ele>7.83</ele>
        <time>2017-06-27T10:51:25Z</time>
      </trkpt>
      <trkpt lat="69.52663698233664" lon="20.371130034327507">
        <ele>6.87</ele>
        <time>2017-06-27T10:51:35Z</time>
      </trkpt>
      <trkpt lat="69.522495986893773" lon="20.365220960229635">
        <ele>9.75</ele>
        <time>2017-06-27T10:51:53Z</time>
      </trkpt>
      <trkpt lat="69.520738972350955" lon="20.361069990321994">
        <ele>12.630000000000001</ele>
        <time>2017-06-27T10:52:02Z</time>
      </trkpt>
      <trkpt lat="69.520198004320264" lon="20.360019989311695">
        <ele>13.119999999999999</ele>
        <time>2017-06-27T10:52:05Z</time>
      </trkpt>
      <trkpt lat="69.520003041252494" lon="20.359755959361792">
        <ele>13.119999999999999</ele>
        <time>2017-06-27T10:52:06Z</time>
      </trkpt>
      <trkpt lat="69.519797014072537" lon="20.359534006565809">
        <ele>13.119999999999999</ele>
        <time>2017-06-27T10:52:07Z</time>
      </trkpt>
      <trkpt lat="69.519584029912949" lon="20.359341977164149">
        <ele>12.630000000000001</ele>
        <time>2017-06-27T10:52:08Z</time>
      </trkpt>
      <trkpt lat="69.519360987469554" lon="20.359185989946127">
        <ele>12.15</ele>
        <time>2017-06-27T10:52:09Z</time>
      </trkpt>
      <trkpt lat="69.519130988046527" lon="20.359067972749472">
        <ele>11.67</ele>
        <time>2017-06-27T10:52:10Z</time>
      </trkpt>
      <trkpt lat="69.516484988853335" lon="20.357233006507158">
        <ele>15.039999999999999</ele>
        <time>2017-06-27T10:52:21Z</time>
      </trkpt>
      <trkpt lat="69.514447012916207" lon="20.355627033859491">
        <ele>23.690000000000001</ele>
        <time>2017-06-27T10:52:30Z</time>
      </trkpt>
      <trkpt lat="69.512709025293589" lon="20.35612097941339">
        <ele>20.32</ele>
        <time>2017-06-27T10:52:37Z</time>
      </trkpt>
      <trkpt lat="69.510659985244274" lon="20.356092983856797">
        <ele>20.809999999999999</ele>
        <time>2017-06-27T10:52:45Z</time>
      </trkpt>
      <trkpt lat="69.509308990091085" lon="20.356966964900494">
        <ele>17.920000000000002</ele>
        <time>2017-06-27T10:52:51Z</time>
      </trkpt>
      <trkpt lat="69.508424028754234" lon="20.357541963458061">
        <ele>16.48</ele>
        <time>2017-06-27T10:52:55Z</time>
      </trkpt>
      <trkpt lat="69.508199980482459" lon="20.357555961236358">
        <ele>13.6</ele>
        <time>2017-06-27T10:52:56Z</time>
      </trkpt>
      <trkpt lat="69.507980961352587" lon="20.357487984001637">
        <ele>12.630000000000001</ele>
        <time>2017-06-27T10:52:57Z</time>
      </trkpt>
      <trkpt lat="69.507767977192998" lon="20.357331996783614">
        <ele>13.119999999999999</ele>
        <time>2017-06-27T10:52:58Z</time>
      </trkpt>
      <trkpt lat="69.507561028003693" lon="20.3571099601686">
        <ele>13.119999999999999</ele>
        <time>2017-06-27T10:52:59Z</time>
      </trkpt>
      <trkpt lat="69.50736103579402" lon="20.356818018481135">
        <ele>13.119999999999999</ele>
        <time>2017-06-27T10:53:00Z</time>
      </trkpt>
      <trkpt lat="69.507168000563979" lon="20.356482993811369">
        <ele>13.119999999999999</ele>
        <time>2017-06-27T10:53:01Z</time>
      </trkpt>
      <trkpt lat="69.505176041275263" lon="20.352959996089339">
        <ele>13.119999999999999</ele>
        <time>2017-06-27T10:53:11Z</time>
      </trkpt>
      <trkpt lat="69.503692025318742" lon="20.351494001224637">
        <ele>13.6</ele>
        <time>2017-06-27T10:53:19Z</time>
      </trkpt>
      <trkpt lat="69.501506024971604" lon="20.349573036655784">
        <ele>16</ele>
        <time>2017-06-27T10:53:30Z</time>
      </trkpt>
      <trkpt lat="69.499089019373059" lon="20.346498973667622">
        <ele>18.399999999999999</ele>
        <time>2017-06-27T10:53:41Z</time>
      </trkpt>
      <trkpt lat="69.497467959299684" lon="20.345247974619269">
        <ele>16</ele>
        <time>2017-06-27T10:53:48Z</time>
      </trkpt>
      <trkpt lat="69.495328981429338" lon="20.343062980100513">
        <ele>17.440000000000001</ele>
        <time>2017-06-27T10:53:57Z</time>
      </trkpt>
      <trkpt lat="69.493150021880865" lon="20.341392969712615">
        <ele>17.920000000000002</ele>
        <time>2017-06-27T10:54:06Z</time>
      </trkpt>
      <trkpt lat="69.490952035412192" lon="20.339529002085328">
        <ele>16</ele>
        <time>2017-06-27T10:54:15Z</time>
      </trkpt>
      <trkpt lat="69.488451965153217" lon="20.337612982839346">
        <ele>12.630000000000001</ele>
        <time>2017-06-27T10:54:25Z</time>
      </trkpt>
      <trkpt lat="69.485100964084268" lon="20.336982998996973">
        <ele>9.27</ele>
        <time>2017-06-27T10:54:38Z</time>
      </trkpt>
      <trkpt lat="69.482549009844661" lon="20.335541982203722">
        <ele>7.35</ele>
        <time>2017-06-27T10:54:48Z</time>
      </trkpt>
      <trkpt lat="69.477702006697655" lon="20.332230962812901">
        <ele>7.35</ele>
        <time>2017-06-27T10:55:07Z</time>
      </trkpt>
      <trkpt lat="69.47560703381896" lon="20.330450981855392">
        <ele>8.789999999999999</ele>
        <time>2017-06-27T10:55:16Z</time>
      </trkpt>
      <trkpt lat="69.474218990653753" lon="20.329617988318205">
        <ele>9.75</ele>
        <time>2017-06-27T10:55:24Z</time>
      </trkpt>
      <trkpt lat="69.472629027441144" lon="20.328391967341304">
        <ele>14.08</ele>
        <time>2017-06-27T10:55:36Z</time>
      </trkpt>
      <trkpt lat="69.471912961453199" lon="20.327670034021139">
        <ele>17.920000000000002</ele>
        <time>2017-06-27T10:55:44Z</time>
      </trkpt>
      <trkpt lat="69.471733001992106" lon="20.327516980469227">
        <ele>18.879999999999999</ele>
        <time>2017-06-27T10:55:51Z</time>
      </trkpt>
      <trkpt lat="69.471721015870571" lon="20.32752301543951">
        <ele>18.879999999999999</ele>
        <time>2017-06-27T10:56:20Z</time>
      </trkpt>
      <trkpt lat="69.471508031710982" lon="20.32733098603785">
        <ele>20.32</ele>
        <time>2017-06-27T10:56:28Z</time>
      </trkpt>
      <trkpt lat="69.470957005396485" lon="20.327070979401469">
        <ele>22.25</ele>
        <time>2017-06-27T10:56:41Z</time>
      </trkpt>
      <trkpt lat="69.470140021294355" lon="20.32692002132535">
        <ele>22.25</ele>
        <time>2017-06-27T10:56:52Z</time>
      </trkpt>
      <trkpt lat="69.469218011945486" lon="20.326946005225182">
        <ele>19.84</ele>
        <time>2017-06-27T10:57:05Z</time>
      </trkpt>
      <trkpt lat="69.468189971521497" lon="20.326592037454247">
        <ele>17.920000000000002</ele>
        <time>2017-06-27T10:57:21Z</time>
      </trkpt>
      <trkpt lat="69.467930970713496" lon="20.326380981132388">
        <ele>16.960000000000001</ele>
        <time>2017-06-27T10:57:33Z</time>
      </trkpt>
      <trkpt lat="69.467554958537221" lon="20.326104965060949">
        <ele>16</ele>
        <time>2017-06-27T10:57:51Z</time>
      </trkpt>
      <trkpt lat="69.467150028795004" lon="20.325803970918059">
        <ele>15.039999999999999</ele>
        <time>2017-06-27T10:58:02Z</time>
      </trkpt>
      <trkpt lat="69.466487020254135" lon="20.3252889867872">
        <ele>15.039999999999999</ele>
        <time>2017-06-27T10:58:13Z</time>
      </trkpt>
      <trkpt lat="69.46544598788023" lon="20.324849020689726">
        <ele>13.6</ele>
        <time>2017-06-27T10:58:29Z</time>
      </trkpt>
      <trkpt lat="69.464630009606481" lon="20.324818007647991">
        <ele>12.15</ele>
        <time>2017-06-27T10:58:42Z</time>
      </trkpt>
      <trkpt lat="69.464339995756745" lon="20.324906017631292">
        <ele>12.15</ele>
        <time>2017-06-27T10:58:54Z</time>
      </trkpt>
      <trkpt lat="69.464088035747409" lon="20.324937030673027">
        <ele>12.15</ele>
        <time>2017-06-27T10:59:07Z</time>
      </trkpt>
      <trkpt lat="69.4637690205127" lon="20.325039038434625">
        <ele>13.119999999999999</ele>
        <time>2017-06-27T10:59:23Z</time>
      </trkpt>
      <trkpt lat="69.463750999420881" lon="20.325044989585876">
        <ele>12.15</ele>
        <time>2017-06-27T10:59:43Z</time>
      </trkpt>
      <trkpt lat="69.463739013299346" lon="20.325055969879031">
        <ele>12.630000000000001</ele>
        <time>2017-06-27T11:01:12Z</time>
      </trkpt>
      <trkpt lat="69.463543966412544" lon="20.325102992355824">
        <ele>15.039999999999999</ele>
        <time>2017-06-27T11:01:27Z</time>
      </trkpt>
      <trkpt lat="69.463363001123071" lon="20.325125036761165">
        <ele>18.399999999999999</ele>
        <time>2017-06-27T11:01:39Z</time>
      </trkpt>
      <trkpt lat="69.463131995871663" lon="20.325082037597895">
        <ele>21.289999999999999</ele>
        <time>2017-06-27T11:01:50Z</time>
      </trkpt>
      <trkpt lat="69.462913982570171" lon="20.325002996250987">
        <ele>23.210000000000001</ele>
        <time>2017-06-27T11:02:02Z</time>
      </trkpt>
      <trkpt lat="69.462575018405914" lon="20.324751036241651">
        <ele>24.649999999999999</ele>
        <time>2017-06-27T11:02:11Z</time>
      </trkpt>
      <trkpt lat="69.461840009316802" lon="20.324067994952202">
        <ele>26.57</ele>
        <time>2017-06-27T11:02:24Z</time>
      </trkpt>
      <trkpt lat="69.460882963612676" lon="20.32322502695024">
        <ele>30.420000000000002</ele>
        <time>2017-06-27T11:02:39Z</time>
      </trkpt>
      <trkpt lat="69.459931030869484" lon="20.323299039155245">
        <ele>30.899999999999999</ele>
        <time>2017-06-27T11:02:52Z</time>
      </trkpt>
      <trkpt lat="69.459026958793402" lon="20.323621993884444">
        <ele>29.460000000000001</ele>
        <time>2017-06-27T11:03:06Z</time>
      </trkpt>
      <trkpt lat="69.458212992176414" lon="20.32337699085474">
        <ele>30.420000000000002</ele>
        <time>2017-06-27T11:03:15Z</time>
      </trkpt>
      <trkpt lat="69.457357032224536" lon="20.321876965463161">
        <ele>33.299999999999997</ele>
        <time>2017-06-27T11:03:23Z</time>
      </trkpt>
      <trkpt lat="69.455952979624271" lon="20.318496040999889">
        <ele>37.149999999999999</ele>
        <time>2017-06-27T11:03:38Z</time>
      </trkpt>
      <trkpt lat="69.454137962311506" lon="20.315581988543272">
        <ele>37.630000000000003</ele>
        <time>2017-06-27T11:03:53Z</time>
      </trkpt>
      <trkpt lat="69.453315027058125" lon="20.314270975068212">
        <ele>41.469999999999999</ele>
        <time>2017-06-27T11:04:01Z</time>
      </trkpt>
      <trkpt lat="69.452777998521924" lon="20.313395988196135">
        <ele>45.32</ele>
        <time>2017-06-27T11:04:11Z</time>
      </trkpt>
      <trkpt lat="69.452504999935627" lon="20.312925009056926">
        <ele>46.280000000000001</ele>
        <time>2017-06-27T11:04:21Z</time>
      </trkpt>
      <trkpt lat="69.452156983315945" lon="20.312422011047602">
        <ele>48.68</ele>
        <time>2017-06-27T11:04:31Z</time>
      </trkpt>
      <trkpt lat="69.451509984210134" lon="20.311374021694064">
        <ele>50.609999999999999</ele>
        <time>2017-06-27T11:04:38Z</time>
      </trkpt>
      <trkpt lat="69.450424024835229" lon="20.309633016586304">
        <ele>52.049999999999997</ele>
        <time>2017-06-27T11:04:45Z</time>
      </trkpt>
      <trkpt lat="69.448972027748823" lon="20.307796960696578">
        <ele>51.090000000000003</ele>
        <time>2017-06-27T11:04:55Z</time>
      </trkpt>
      <trkpt lat="69.447480970993638" lon="20.307296980172396">
        <ele>51.57</ele>
        <time>2017-06-27T11:05:04Z</time>
      </trkpt>
      <trkpt lat="69.445306034758687" lon="20.307566039264202">
        <ele>48.68</ele>
        <time>2017-06-27T11:05:15Z</time>
      </trkpt>
      <trkpt lat="69.441859982907772" lon="20.293943015858531">
        <ele>31.859999999999999</ele>
        <time>2017-06-27T11:05:51Z</time>
      </trkpt>
      <trkpt lat="69.441728973761201" lon="20.292967027053237">
        <ele>33.299999999999997</ele>
        <time>2017-06-27T11:05:53Z</time>
      </trkpt>
      <trkpt lat="69.441644987091422" lon="20.292509039863944">
        <ele>33.780000000000001</ele>
        <time>2017-06-27T11:05:54Z</time>
      </trkpt>
      <trkpt lat="69.44155303761363" lon="20.292075024917722">
        <ele>34.740000000000002</ele>
        <time>2017-06-27T11:05:55Z</time>
      </trkpt>
      <trkpt lat="69.440469006076455" lon="20.288473991677165">
        <ele>28.98</ele>
        <time>2017-06-27T11:06:04Z</time>
      </trkpt>
      <trkpt lat="69.439038969576359" lon="20.285040009766817">
        <ele>25.609999999999999</ele>
        <time>2017-06-27T11:06:14Z</time>
      </trkpt>
      <trkpt lat="69.436617018654943" lon="20.281569985672832">
        <ele>16.960000000000001</ele>
        <time>2017-06-27T11:06:28Z</time>
      </trkpt>
      <trkpt lat="69.43482899107039" lon="20.279842978343368">
        <ele>12.15</ele>
        <time>2017-06-27T11:06:36Z</time>
      </trkpt>
      <trkpt lat="69.433069964870811" lon="20.278956005349755">
        <ele>17.920000000000002</ele>
        <time>2017-06-27T11:06:45Z</time>
      </trkpt>
      <trkpt lat="69.431763980537653" lon="20.279613984748721">
        <ele>18.879999999999999</ele>
        <time>2017-06-27T11:06:52Z</time>
      </trkpt>
      <trkpt lat="69.430600991472602" lon="20.28023399412632">
        <ele>17.440000000000001</ele>
        <time>2017-06-27T11:06:58Z</time>
      </trkpt>
      <trkpt lat="69.430428994819522" lon="20.280199963599443">
        <ele>17.440000000000001</ele>
        <time>2017-06-27T11:06:59Z</time>
      </trkpt>
      <trkpt lat="69.430259009823203" lon="20.280121006071568">
        <ele>17.920000000000002</ele>
        <time>2017-06-27T11:07:00Z</time>
      </trkpt>
      <trkpt lat="69.430091036483645" lon="20.279993014410138">
        <ele>18.399999999999999</ele>
        <time>2017-06-27T11:07:01Z</time>
      </trkpt>
      <trkpt lat="69.429925996810198" lon="20.279829986393452">
        <ele>18.879999999999999</ele>
        <time>2017-06-27T11:07:02Z</time>
      </trkpt>
      <trkpt lat="69.429761962965131" lon="20.279633011668921">
        <ele>19.359999999999999</ele>
        <time>2017-06-27T11:07:03Z</time>
      </trkpt>
      <trkpt lat="69.428091030567884" lon="20.277173006907105">
        <ele>20.809999999999999</ele>
        <time>2017-06-27T11:07:14Z</time>
      </trkpt>
      <trkpt lat="69.427019990980625" lon="20.275688990950584">
        <ele>16</ele>
        <time>2017-06-27T11:07:21Z</time>
      </trkpt>
      <trkpt lat="69.426854029297829" lon="20.275574997067451">
        <ele>15.52</ele>
        <time>2017-06-27T11:07:22Z</time>
      </trkpt>
      <trkpt lat="69.426689995452762" lon="20.275508025661111">
        <ele>14.56</ele>
        <time>2017-06-27T11:07:23Z</time>
      </trkpt>
      <trkpt lat="69.426521016284823" lon="20.275487992912531">
        <ele>13.6</ele>
        <time>2017-06-27T11:07:24Z</time>
      </trkpt>
      <trkpt lat="69.426352037116885" lon="20.275514982640743">
        <ele>13.119999999999999</ele>
        <time>2017-06-27T11:07:25Z</time>
      </trkpt>
      <trkpt lat="69.426182974129915" lon="20.275581032037735">
        <ele>12.630000000000001</ele>
        <time>2017-06-27T11:07:26Z</time>
      </trkpt>
      <trkpt lat="69.426017012447119" lon="20.275673987343907">
        <ele>11.67</ele>
        <time>2017-06-27T11:07:27Z</time>
      </trkpt>
      <trkpt lat="69.425854990258813" lon="20.275783035904169">
        <ele>11.19</ele>
        <time>2017-06-27T11:07:28Z</time>
      </trkpt>
      <trkpt lat="69.425362972542644" lon="20.276014041155577">
        <ele>9.27</ele>
        <time>2017-06-27T11:07:31Z</time>
      </trkpt>
      <trkpt lat="69.425193993374705" lon="20.276000965386629">
        <ele>8.789999999999999</ele>
        <time>2017-06-27T11:07:32Z</time>
      </trkpt>
      <trkpt lat="69.425029959529638" lon="20.275929970666766">
        <ele>8.310000000000001</ele>
        <time>2017-06-27T11:07:33Z</time>
      </trkpt>
      <trkpt lat="69.424869026988745" lon="20.275804996490479">
        <ele>8.310000000000001</ele>
        <time>2017-06-27T11:07:34Z</time>
      </trkpt>
      <trkpt lat="69.424715973436832" lon="20.275631994009018">
        <ele>8.789999999999999</ele>
        <time>2017-06-27T11:07:35Z</time>
      </trkpt>
      <trkpt lat="69.424571972340345" lon="20.275403000414371">
        <ele>8.789999999999999</ele>
        <time>2017-06-27T11:07:36Z</time>
      </trkpt>
      <trkpt lat="69.424435012042522" lon="20.275124972686172">
        <ele>9.27</ele>
        <time>2017-06-27T11:07:37Z</time>
      </trkpt>
      <trkpt lat="69.424298973754048" lon="20.274785002693534">
        <ele>9.27</ele>
        <time>2017-06-27T11:07:38Z</time>
      </trkpt>
      <trkpt lat="69.424167964607477" lon="20.27438803575933">
        <ele>9.75</ele>
        <time>2017-06-27T11:07:39Z</time>
      </trkpt>
      <trkpt lat="69.424041984602809" lon="20.273924013599753">
        <ele>10.23</ele>
        <time>2017-06-27T11:07:40Z</time>
      </trkpt>
      <trkpt lat="69.423917010426521" lon="20.273416992276907">
        <ele>10.23</ele>
        <time>2017-06-27T11:07:41Z</time>
      </trkpt>
      <trkpt lat="69.422809006646276" lon="20.269313966855407">
        <ele>11.67</ele>
        <time>2017-06-27T11:07:49Z</time>
      </trkpt>
      <trkpt lat="69.421526994556189" lon="20.266109984368086">
        <ele>15.52</ele>
        <time>2017-06-27T11:07:57Z</time>
      </trkpt>
      <trkpt lat="69.419365972280502" lon="20.261347973719239">
        <ele>22.25</ele>
        <time>2017-06-27T11:08:08Z</time>
      </trkpt>
      <trkpt lat="69.417406031861901" lon="20.258410032838583">
        <ele>24.649999999999999</ele>
        <time>2017-06-27T11:08:17Z</time>
      </trkpt>
      <trkpt lat="69.415230005979538" lon="20.256717978045344">
        <ele>24.170000000000002</ele>
        <time>2017-06-27T11:08:26Z</time>
      </trkpt>
      <trkpt lat="69.413285991176963" lon="20.256841024383903">
        <ele>17.920000000000002</ele>
        <time>2017-06-27T11:08:34Z</time>
      </trkpt>
      <trkpt lat="69.411383969709277" lon="20.258410032838583">
        <ele>9.27</ele>
        <time>2017-06-27T11:08:42Z</time>
      </trkpt>
      <trkpt lat="69.407155970111489" lon="20.262505011633039">
        <ele>0.62</ele>
        <time>2017-06-27T11:09:00Z</time>
      </trkpt>
      <trkpt lat="69.403593996539712" lon="20.265830028802156">
        <ele>0.62</ele>
        <time>2017-06-27T11:09:15Z</time>
      </trkpt>
      <trkpt lat="69.400418009608984" lon="20.26781796477735">
        <ele>7.35</ele>
        <time>2017-06-27T11:09:28Z</time>
      </trkpt>
      <trkpt lat="69.396912027150393" lon="20.269754016771913">
        <ele>-0.34</ele>
        <time>2017-06-27T11:09:43Z</time>
      </trkpt>
      <trkpt lat="69.395722970366478" lon="20.269585037603974">
        <ele>-0.34</ele>
        <time>2017-06-27T11:09:49Z</time>
      </trkpt>
      <trkpt lat="69.39428798854351" lon="20.268252985551953">
        <ele>-0.82</ele>
        <time>2017-06-27T11:09:57Z</time>
      </trkpt>
      <trkpt lat="69.393059033900499" lon="20.267604980617762">
        <ele>0.62</ele>
        <time>2017-06-27T11:10:05Z</time>
      </trkpt>
      <trkpt lat="69.391337977722287" lon="20.26717197149992">
        <ele>4.46</ele>
        <time>2017-06-27T11:10:17Z</time>
      </trkpt>
      <trkpt lat="69.390327958390117" lon="20.267934976145625">
        <ele>5.91</ele>
        <time>2017-06-27T11:10:25Z</time>
      </trkpt>
      <trkpt lat="69.389487002044916" lon="20.269916038960218">
        <ele>10.23</ele>
        <time>2017-06-27T11:10:33Z</time>
      </trkpt>
      <trkpt lat="69.388788035139441" lon="20.272068008780479">
        <ele>9.27</ele>
        <time>2017-06-27T11:10:43Z</time>
      </trkpt>
      <trkpt lat="69.388222005218267" lon="20.273830974474549">
        <ele>7.83</ele>
        <time>2017-06-27T11:10:51Z</time>
      </trkpt>
      <trkpt lat="69.387086005881429" lon="20.277220029383898">
        <ele>6.87</ele>
        <time>2017-06-27T11:11:02Z</time>
      </trkpt>
      <trkpt lat="69.38620800152421" lon="20.279896035790443">
        <ele>7.83</ele>
        <time>2017-06-27T11:11:13Z</time>
      </trkpt>
      <trkpt lat="69.384921966120601" lon="20.283765960484743">
        <ele>7.35</ele>
        <time>2017-06-27T11:11:28Z</time>
      </trkpt>
      <trkpt lat="69.38296303153038" lon="20.289717027917504">
        <ele>10.710000000000001</ele>
        <time>2017-06-27T11:11:48Z</time>
      </trkpt>
      <trkpt lat="69.382013026624918" lon="20.293926000595093">
        <ele>17.440000000000001</ele>
        <time>2017-06-27T11:11:59Z</time>
      </trkpt>
      <trkpt lat="69.380793962627649" lon="20.299659976735711">
        <ele>21.77</ele>
        <time>2017-06-27T11:12:12Z</time>
      </trkpt>
      <trkpt lat="69.380456004291773" lon="20.301115997135639">
        <ele>20.32</ele>
        <time>2017-06-27T11:12:16Z</time>
      </trkpt>
      <trkpt lat="69.380353996530175" lon="20.301412967965007">
        <ele>19.84</ele>
        <time>2017-06-27T11:12:17Z</time>
      </trkpt>
      <trkpt lat="69.380238996818662" lon="20.30167599208653">
        <ele>19.359999999999999</ele>
        <time>2017-06-27T11:12:18Z</time>
      </trkpt>
      <trkpt lat="69.380119973793626" lon="20.301908003166318">
        <ele>19.359999999999999</ele>
        <time>2017-06-27T11:12:19Z</time>
      </trkpt>
      <trkpt lat="69.379983013495803" lon="20.302098020911217">
        <ele>19.359999999999999</ele>
        <time>2017-06-27T11:12:20Z</time>
      </trkpt>
      <trkpt lat="69.379838006570935" lon="20.302218971773982">
        <ele>19.359999999999999</ele>
        <time>2017-06-27T11:12:21Z</time>
      </trkpt>
      <trkpt lat="69.379684031009674" lon="20.302287032827735">
        <ele>19.359999999999999</ele>
        <time>2017-06-27T11:12:22Z</time>
      </trkpt>
      <trkpt lat="69.379529971629381" lon="20.302296001464128">
        <ele>20.32</ele>
        <time>2017-06-27T11:12:23Z</time>
      </trkpt>
      <trkpt lat="69.379377001896501" lon="20.302240010350943">
        <ele>20.809999999999999</ele>
        <time>2017-06-27T11:12:24Z</time>
      </trkpt>
      <trkpt lat="69.37922696582973" lon="20.302144037559628">
        <ele>21.77</ele>
        <time>2017-06-27T11:12:25Z</time>
      </trkpt>
      <trkpt lat="69.379079025238752" lon="20.302021997049451">
        <ele>22.25</ele>
        <time>2017-06-27T11:12:26Z</time>
      </trkpt>
      <trkpt lat="69.377838000655174" lon="20.300225000828505">
        <ele>24.170000000000002</ele>
        <time>2017-06-27T11:12:35Z</time>
      </trkpt>
      <trkpt lat="69.376739971339703" lon="20.29677601531148">
        <ele>24.649999999999999</ele>
        <time>2017-06-27T11:12:45Z</time>
      </trkpt>
      <trkpt lat="69.374940963461995" lon="20.291424002498388">
        <ele>27.050000000000001</ele>
        <time>2017-06-27T11:13:01Z</time>
      </trkpt>
      <trkpt lat="69.373836982995272" lon="20.287954984232783">
        <ele>31.859999999999999</ele>
        <time>2017-06-27T11:13:11Z</time>
      </trkpt>
      <trkpt lat="69.37280198559165" lon="20.283580971881747">
        <ele>36.670000000000002</ele>
        <time>2017-06-27T11:13:24Z</time>
      </trkpt>
      <trkpt lat="69.371893974021077" lon="20.281740976497531">
        <ele>35.710000000000001</ele>
        <time>2017-06-27T11:13:31Z</time>
      </trkpt>
      <trkpt lat="69.370779013261199" lon="20.281322970986366">
        <ele>33.299999999999997</ele>
        <time>2017-06-27T11:13:38Z</time>
      </trkpt>
      <trkpt lat="69.368645986542106" lon="20.281170001253486">
        <ele>26.57</ele>
        <time>2017-06-27T11:13:51Z</time>
      </trkpt>
      <trkpt lat="69.367057029157877" lon="20.280674966052175">
        <ele>22.25</ele>
        <time>2017-06-27T11:14:01Z</time>
      </trkpt>
      <trkpt lat="69.366590995341539" lon="20.28042996302247">
        <ele>21.289999999999999</ele>
        <time>2017-06-27T11:14:04Z</time>
      </trkpt>
      <trkpt lat="69.366451017558575" lon="20.280283028259873">
        <ele>21.77</ele>
        <time>2017-06-27T11:14:05Z</time>
      </trkpt>
      <trkpt lat="69.366310033947229" lon="20.280095022171736">
        <ele>21.77</ele>
        <time>2017-06-27T11:14:06Z</time>
      </trkpt>
      <trkpt lat="69.366180030629039" lon="20.279870973899961">
        <ele>22.25</ele>
        <time>2017-06-27T11:14:07Z</time>
      </trkpt>
      <trkpt lat="69.366054972633719" lon="20.279603004455566">
        <ele>21.289999999999999</ele>
        <time>2017-06-27T11:14:08Z</time>
      </trkpt>
      <trkpt lat="69.365935027599335" lon="20.279306033626199">
        <ele>20.32</ele>
        <time>2017-06-27T11:14:09Z</time>
      </trkpt>
      <trkpt lat="69.365838970988989" lon="20.279001016169786">
        <ele>20.32</ele>
        <time>2017-06-27T11:14:10Z</time>
      </trkpt>
      <trkpt lat="69.365753978490829" lon="20.278669008985162">
        <ele>19.84</ele>
        <time>2017-06-27T11:14:11Z</time>
      </trkpt>
      <trkpt lat="69.365678960457444" lon="20.278303977102041">
        <ele>18.879999999999999</ele>
        <time>2017-06-27T11:14:12Z</time>
      </trkpt>
      <trkpt lat="69.365617018193007" lon="20.277920002117753">
        <ele>18.399999999999999</ele>
        <time>2017-06-27T11:14:13Z</time>
      </trkpt>
      <trkpt lat="69.365567984059453" lon="20.277513982728124">
        <ele>17.440000000000001</ele>
        <time>2017-06-27T11:14:14Z</time>
      </trkpt>
      <trkpt lat="69.365535965189338" lon="20.277098994702101">
        <ele>17.440000000000001</ele>
        <time>2017-06-27T11:14:15Z</time>
      </trkpt>
      <trkpt lat="69.365512998774648" lon="20.276665985584259">
        <ele>16</ele>
        <time>2017-06-27T11:14:16Z</time>
      </trkpt>
      <trkpt lat="69.365502018481493" lon="20.276207998394966">
        <ele>15.039999999999999</ele>
        <time>2017-06-27T11:14:17Z</time>
      </trkpt>
      <trkpt lat="69.365514004603028" lon="20.275754034519196">
        <ele>15.039999999999999</ele>
        <time>2017-06-27T11:14:18Z</time>
      </trkpt>
      <trkpt lat="69.365529008209705" lon="20.275299986824393">
        <ele>15.039999999999999</ele>
        <time>2017-06-27T11:14:19Z</time>
      </trkpt>
      <trkpt lat="69.365803012624383" lon="20.271501978859305">
        <ele>12.630000000000001</ele>
        <time>2017-06-27T11:14:29Z</time>
      </trkpt>
      <trkpt lat="69.366104006767273" lon="20.270203035324812">
        <ele>10.710000000000001</ele>
        <time>2017-06-27T11:14:35Z</time>
      </trkpt>
      <trkpt lat="69.366120016202331" lon="20.27007102034986">
        <ele>11.19</ele>
        <time>2017-06-27T11:14:36Z</time>
      </trkpt>
      <trkpt lat="69.366124961525202" lon="20.269953003153205">
        <ele>10.710000000000001</ele>
        <time>2017-06-27T11:14:37Z</time>
      </trkpt>
      <trkpt lat="69.366196962073445" lon="20.269419997930527">
        <ele>10.23</ele>
        <time>2017-06-27T11:14:44Z</time>
      </trkpt>
      <trkpt lat="69.366206014528871" lon="20.269402982667089">
        <ele>9.27</ele>
        <time>2017-06-27T11:14:45Z</time>
      </trkpt>
      <trkpt lat="69.366216994822025" lon="20.269252024590969">
        <ele>8.310000000000001</ele>
        <time>2017-06-27T11:14:56Z</time>
      </trkpt>
      <trkpt lat="69.366220012307167" lon="20.269241966307163">
        <ele>8.789999999999999</ele>
        <time>2017-06-27T11:15:18Z</time>
      </trkpt>
      <trkpt lat="69.366215988993645" lon="20.269251018762589">
        <ele>7.83</ele>
        <time>2017-06-27T11:17:13Z</time>
      </trkpt>
      <trkpt lat="69.366210037842393" lon="20.269252024590969">
        <ele>7.83</ele>
        <time>2017-06-27T11:18:29Z</time>
      </trkpt>
      <trkpt lat="69.366204002872109" lon="20.269237020984292">
        <ele>8.310000000000001</ele>
        <time>2017-06-27T11:19:39Z</time>
      </trkpt>
      <trkpt lat="69.366202997043729" lon="20.269236015155911">
        <ele>8.310000000000001</ele>
        <time>2017-06-27T11:20:36Z</time>
      </trkpt>
      <trkpt lat="69.366213977336884" lon="20.269207013770938">
        <ele>8.310000000000001</ele>
        <time>2017-06-27T11:20:37Z</time>
      </trkpt>
      <trkpt lat="69.36622504144907" lon="20.269153034314513">
        <ele>8.789999999999999</ele>
        <time>2017-06-27T11:20:39Z</time>
      </trkpt>
      <trkpt lat="69.366228980943561" lon="20.268961004912853">
        <ele>7.83</ele>
        <time>2017-06-27T11:20:51Z</time>
      </trkpt>
      <trkpt lat="69.366229986771941" lon="20.268967961892486">
        <ele>7.83</ele>
        <time>2017-06-27T11:21:26Z</time>
      </trkpt>
      <trkpt lat="69.366231998428702" lon="20.268963016569614">
        <ele>7.83</ele>
        <time>2017-06-27T11:23:47Z</time>
      </trkpt>
      <trkpt lat="69.366230992600322" lon="20.26895203627646">
        <ele>7.35</ele>
        <time>2017-06-27T11:25:07Z</time>
      </trkpt>
      <trkpt lat="69.366230992600322" lon="20.268949018791318">
        <ele>7.35</ele>
        <time>2017-06-27T11:27:00Z</time>
      </trkpt>
      <trkpt lat="69.366230992600322" lon="20.268811974674463">
        <ele>7.35</ele>
        <time>2017-06-27T11:31:35Z</time>
      </trkpt>
      <trkpt lat="69.366224035620689" lon="20.26886897161603">
        <ele>0.62</ele>
        <time>2017-06-27T11:33:16Z</time>
      </trkpt>
      <trkpt lat="69.36622504144907" lon="20.268860002979636">
        <ele>1.1</ele>
        <time>2017-06-27T11:35:02Z</time>
      </trkpt>
      <trkpt lat="69.366373987868428" lon="20.269136019051075">
        <ele>3.5</ele>
        <time>2017-06-27T11:35:33Z</time>
      </trkpt>
      <trkpt lat="69.366415981203318" lon="20.269186981022358">
        <ele>3.5</ele>
        <time>2017-06-27T11:35:41Z</time>
      </trkpt>
      <trkpt lat="69.366479013115168" lon="20.2691709715873">
        <ele>3.98</ele>
        <time>2017-06-27T11:35:53Z</time>
      </trkpt>
      <trkpt lat="69.366536010056734" lon="20.269093019887805">
        <ele>3.5</ele>
        <time>2017-06-27T11:35:54Z</time>
      </trkpt>
      <trkpt lat="69.366600969806314" lon="20.268966034054756">
        <ele>3.5</ele>
        <time>2017-06-27T11:35:55Z</time>
      </trkpt>
      <trkpt lat="69.366665007546544" lon="20.268812980502844">
        <ele>3.5</ele>
        <time>2017-06-27T11:35:56Z</time>
      </trkpt>
      <trkpt lat="69.366732984781265" lon="20.268639978021383">
        <ele>3.5</ele>
        <time>2017-06-27T11:35:57Z</time>
      </trkpt>
      <trkpt lat="69.367488026618958" lon="20.266704009845853">
        <ele>2.54</ele>
        <time>2017-06-27T11:36:05Z</time>
      </trkpt>
      <trkpt lat="69.368856037035584" lon="20.263190986588597">
        <ele>1.1</ele>
        <time>2017-06-27T11:36:15Z</time>
      </trkpt>
      <trkpt lat="69.370813965797424" lon="20.25814600288868">
        <ele>3.02</ele>
        <time>2017-06-27T11:36:29Z</time>
      </trkpt>
      <trkpt lat="69.373133992776275" lon="20.251782964915037">
        <ele>9.75</ele>
        <time>2017-06-27T11:36:50Z</time>
      </trkpt>
      <trkpt lat="69.373869001865387" lon="20.24736201390624">
        <ele>9.27</ele>
        <time>2017-06-27T11:37:01Z</time>
      </trkpt>
      <trkpt lat="69.374957978725433" lon="20.240506958216429">
        <ele>12.630000000000001</ele>
        <time>2017-06-27T11:37:17Z</time>
      </trkpt>
      <trkpt lat="69.375883005559444" lon="20.234902985394001">
        <ele>7.83</ele>
        <time>2017-06-27T11:37:29Z</time>
      </trkpt>
      <trkpt lat="69.37744103372097" lon="20.227376036345959">
        <ele>7.83</ele>
        <time>2017-06-27T11:37:44Z</time>
      </trkpt>
      <trkpt lat="69.379881005734205" lon="20.215537017211318">
        <ele>4.94</ele>
        <time>2017-06-27T11:38:06Z</time>
      </trkpt>
      <trkpt lat="69.381841029971838" lon="20.206581959500909">
        <ele>19.84</ele>
        <time>2017-06-27T11:38:23Z</time>
      </trkpt>
      <trkpt lat="69.384126020595431" lon="20.199103960767388">
        <ele>25.129999999999999</ele>
        <time>2017-06-27T11:38:39Z</time>
      </trkpt>
      <trkpt lat="69.385895021259785" lon="20.193219026550651">
        <ele>22.25</ele>
        <time>2017-06-27T11:38:52Z</time>
      </trkpt>
      <trkpt lat="69.386263992637396" lon="20.190957002341747">
        <ele>20.32</ele>
        <time>2017-06-27T11:38:57Z</time>
      </trkpt>
      <trkpt lat="69.386299028992653" lon="20.190466996282339">
        <ele>19.84</ele>
        <time>2017-06-27T11:38:58Z</time>
      </trkpt>
      <trkpt lat="69.386312020942569" lon="20.18997497856617">
        <ele>20.32</ele>
        <time>2017-06-27T11:38:59Z</time>
      </trkpt>
      <trkpt lat="69.386307997629046" lon="20.189477009698749">
        <ele>19.84</ele>
        <time>2017-06-27T11:39:00Z</time>
      </trkpt>
      <trkpt lat="69.386290982365608" lon="20.188993038609624">
        <ele>20.32</ele>
        <time>2017-06-27T11:39:01Z</time>
      </trkpt>
      <trkpt lat="69.386266004294157" lon="20.188508983701468">
        <ele>19.84</ele>
        <time>2017-06-27T11:39:02Z</time>
      </trkpt>
      <trkpt lat="69.386224010959268" lon="20.188017971813679">
        <ele>19.359999999999999</ele>
        <time>2017-06-27T11:39:03Z</time>
      </trkpt>
      <trkpt lat="69.386166008189321" lon="20.187552021816373">
        <ele>19.359999999999999</ele>
        <time>2017-06-27T11:39:04Z</time>
      </trkpt>
      <trkpt lat="69.386095013469458" lon="20.187103003263474">
        <ele>18.879999999999999</ele>
        <time>2017-06-27T11:39:05Z</time>
      </trkpt>
      <trkpt lat="69.386009015142918" lon="20.186672005802393">
        <ele>18.879999999999999</ele>
        <time>2017-06-27T11:39:06Z</time>
      </trkpt>
      <trkpt lat="69.385912036523223" lon="20.186261963099241">
        <ele>18.399999999999999</ele>
        <time>2017-06-27T11:39:07Z</time>
      </trkpt>
      <trkpt lat="69.385797958821058" lon="20.185860972851515">
        <ele>18.399999999999999</ele>
        <time>2017-06-27T11:39:08Z</time>
      </trkpt>
      <trkpt lat="69.385674996301532" lon="20.185471968725324">
        <ele>17.920000000000002</ele>
        <time>2017-06-27T11:39:09Z</time>
      </trkpt>
      <trkpt lat="69.385540969669819" lon="20.1850950345397">
        <ele>17.920000000000002</ele>
        <time>2017-06-27T11:39:10Z</time>
      </trkpt>
      <trkpt lat="69.384076986461878" lon="20.181530965492129">
        <ele>16</ele>
        <time>2017-06-27T11:39:19Z</time>
      </trkpt>
      <trkpt lat="69.382775025442243" lon="20.178107041865587">
        <ele>20.809999999999999</ele>
        <time>2017-06-27T11:39:27Z</time>
      </trkpt>
      <trkpt lat="69.381917975842953" lon="20.174076016992331">
        <ele>26.57</ele>
        <time>2017-06-27T11:39:35Z</time>
      </trkpt>
      <trkpt lat="69.380973000079393" lon="20.171780968084931">
        <ele>26.09</ele>
        <time>2017-06-27T11:39:41Z</time>
      </trkpt>
      <trkpt lat="69.379053041338921" lon="20.168319996446371">
        <ele>22.73</ele>
        <time>2017-06-27T11:39:51Z</time>
      </trkpt>
      <trkpt lat="69.377543963491917" lon="20.163901979103684">
        <ele>19.359999999999999</ele>
        <time>2017-06-27T11:40:00Z</time>
      </trkpt>
      <trkpt lat="69.375759037211537" lon="20.156274028122425">
        <ele>13.6</ele>
        <time>2017-06-27T11:40:13Z</time>
      </trkpt>
      <trkpt lat="69.374951021745801" lon="20.1532550342381">
        <ele>12.630000000000001</ele>
        <time>2017-06-27T11:40:19Z</time>
      </trkpt>
      <trkpt lat="69.373473962768912" lon="20.148997027426958">
        <ele>12.15</ele>
        <time>2017-06-27T11:40:28Z</time>
      </trkpt>
      <trkpt lat="69.372038980945945" lon="20.144266029819846">
        <ele>11.67</ele>
        <time>2017-06-27T11:40:37Z</time>
      </trkpt>
      <trkpt lat="69.37060902826488" lon="20.139489015564322">
        <ele>18.879999999999999</ele>
        <time>2017-06-27T11:40:46Z</time>
      </trkpt>
      <trkpt lat="69.369403962045908" lon="20.134453000500798">
        <ele>22.25</ele>
        <time>2017-06-27T11:40:55Z</time>
      </trkpt>
      <trkpt lat="69.36764501966536" lon="20.127577995881438">
        <ele>16.48</ele>
        <time>2017-06-27T11:41:07Z</time>
      </trkpt>
      <trkpt lat="69.366971030831337" lon="20.1244440022856">
        <ele>13.6</ele>
        <time>2017-06-27T11:41:13Z</time>
      </trkpt>
      <trkpt lat="69.365918012335896" lon="20.122168986126781">
        <ele>11.67</ele>
        <time>2017-06-27T11:41:19Z</time>
      </trkpt>
      <trkpt lat="69.364902041852474" lon="20.119532039389014">
        <ele>9.75</ele>
        <time>2017-06-27T11:41:25Z</time>
      </trkpt>
      <trkpt lat="69.363146033138037" lon="20.112255038693547">
        <ele>6.87</ele>
        <time>2017-06-27T11:41:38Z</time>
      </trkpt>
      <trkpt lat="69.361569983884692" lon="20.106781991198659">
        <ele>18.399999999999999</ele>
        <time>2017-06-27T11:41:49Z</time>
      </trkpt>
      <trkpt lat="69.359248029068112" lon="20.100620035082102">
        <ele>20.32</ele>
        <time>2017-06-27T11:42:03Z</time>
      </trkpt>
      <trkpt lat="69.357858980074525" lon="20.097458967939019">
        <ele>17.920000000000002</ele>
        <time>2017-06-27T11:42:12Z</time>
      </trkpt>
      <trkpt lat="69.355961987748742" lon="20.093987016007304">
        <ele>8.310000000000001</ele>
        <time>2017-06-27T11:42:21Z</time>
      </trkpt>
      <trkpt lat="69.354936964809895" lon="20.091393990442157">
        <ele>4.94</ele>
        <time>2017-06-27T11:42:27Z</time>
      </trkpt>
      <trkpt lat="69.354504961520433" lon="20.088491002097726">
        <ele>6.39</ele>
        <time>2017-06-27T11:42:32Z</time>
      </trkpt>
      <trkpt lat="69.354020990431309" lon="20.081589007750154">
        <ele>11.67</ele>
        <time>2017-06-27T11:42:43Z</time>
      </trkpt>
      <trkpt lat="69.353275001049042" lon="20.077072000131011">
        <ele>13.6</ele>
        <time>2017-06-27T11:42:51Z</time>
      </trkpt>
      <trkpt lat="69.351417990401387" lon="20.069701038300991">
        <ele>12.15</ele>
        <time>2017-06-27T11:43:05Z</time>
      </trkpt>
      <trkpt lat="69.350223988294601" lon="20.066057005897164">
        <ele>15.039999999999999</ele>
        <time>2017-06-27T11:43:14Z</time>
      </trkpt>
      <trkpt lat="69.347981996834278" lon="20.061803022399545">
        <ele>13.119999999999999</ele>
        <time>2017-06-27T11:43:26Z</time>
      </trkpt>
      <trkpt lat="69.346275022253394" lon="20.06026896648109">
        <ele>8.310000000000001</ele>
        <time>2017-06-27T11:43:34Z</time>
      </trkpt>
      <trkpt lat="69.344007968902588" lon="20.058137029409409">
        <ele>6.87</ele>
        <time>2017-06-27T11:43:45Z</time>
      </trkpt>
      <trkpt lat="69.342260006815195" lon="20.056984014809132">
        <ele>11.19</ele>
        <time>2017-06-27T11:43:54Z</time>
      </trkpt>
      <trkpt lat="69.338508015498519" lon="20.056260991841555">
        <ele>25.609999999999999</ele>
        <time>2017-06-27T11:44:12Z</time>
      </trkpt>
      <trkpt lat="69.336632983759046" lon="20.054738000035286">
        <ele>28.98</ele>
        <time>2017-06-27T11:44:21Z</time>
      </trkpt>
      <trkpt lat="69.334749989211559" lon="20.05163200199604">
        <ele>37.630000000000003</ele>
        <time>2017-06-27T11:44:31Z</time>
      </trkpt>
      <trkpt lat="69.333734018728137" lon="20.048557016998529">
        <ele>43.399999999999999</ele>
        <time>2017-06-27T11:44:38Z</time>
      </trkpt>
      <trkpt lat="69.333249041810632" lon="20.045124962925911">
        <ele>46.759999999999998</ele>
        <time>2017-06-27T11:44:44Z</time>
      </trkpt>
      <trkpt lat="69.332645963877439" lon="20.041171973571181">
        <ele>48.200000000000003</ele>
        <time>2017-06-27T11:44:51Z</time>
      </trkpt>
      <trkpt lat="69.331663018092513" lon="20.038767037913203">
        <ele>47.719999999999999</ele>
        <time>2017-06-27T11:44:57Z</time>
      </trkpt>
      <trkpt lat="69.329870967194438" lon="20.035930015146732">
        <ele>42.920000000000002</ele>
        <time>2017-06-27T11:45:06Z</time>
      </trkpt>
      <trkpt lat="69.328245967626572" lon="20.031896978616714">
        <ele>37.630000000000003</ele>
        <time>2017-06-27T11:45:15Z</time>
      </trkpt>
      <trkpt lat="69.326645024120808" lon="20.028814030811191">
        <ele>32.82</ele>
        <time>2017-06-27T11:45:23Z</time>
      </trkpt>
      <trkpt lat="69.325523022562265" lon="20.025433022528887">
        <ele>31.859999999999999</ele>
        <time>2017-06-27T11:45:30Z</time>
      </trkpt>
      <trkpt lat="69.324042024090886" lon="20.021300995722413">
        <ele>23.210000000000001</ele>
        <time>2017-06-27T11:45:39Z</time>
      </trkpt>
      <trkpt lat="69.322438985109329" lon="20.019076019525528">
        <ele>14.08</ele>
        <time>2017-06-27T11:45:47Z</time>
      </trkpt>
      <trkpt lat="69.321428965777159" lon="20.016549965366721">
        <ele>4.94</ele>
        <time>2017-06-27T11:45:53Z</time>
      </trkpt>
      <trkpt lat="69.320104038342834" lon="20.013791983947158">
        <ele>-6.11</ele>
        <time>2017-06-27T11:46:00Z</time>
      </trkpt>
      <trkpt lat="69.318813979625702" lon="20.010838033631444">
        <ele>-17.649999999999999</ele>
        <time>2017-06-27T11:46:07Z</time>
      </trkpt>
      <trkpt lat="69.317607991397381" lon="20.00814400613308">
        <ele>-15.24</ele>
        <time>2017-06-27T11:46:14Z</time>
      </trkpt>
      <trkpt lat="69.314061021432281" lon="20.002526035532355">
        <ele>-12.359999999999999</ele>
        <time>2017-06-27T11:46:31Z</time>
      </trkpt>
      <trkpt lat="69.312060009688139" lon="20.000229980796576">
        <ele>-16.210000000000001</ele>
        <time>2017-06-27T11:46:40Z</time>
      </trkpt>
      <trkpt lat="69.306801036000252" lon="19.994871011003852">
        <ele>-11.4</ele>
        <time>2017-06-27T11:47:03Z</time>
      </trkpt>
      <trkpt lat="69.304632972925901" lon="19.991925023496151">
        <ele>-9.960000000000001</ele>
        <time>2017-06-27T11:47:13Z</time>
      </trkpt>
      <trkpt lat="69.30308198556304" lon="19.989013988524675">
        <ele>-7.55</ele>
        <time>2017-06-27T11:47:21Z</time>
      </trkpt>
      <trkpt lat="69.300407990813255" lon="19.984720023348927">
        <ele>-10.92</ele>
        <time>2017-06-27T11:47:34Z</time>
      </trkpt>
      <trkpt lat="69.299352960661054" lon="19.981550993397832">
        <ele>-9.48</ele>
        <time>2017-06-27T11:47:41Z</time>
      </trkpt>
      <trkpt lat="69.298217967152596" lon="19.978683041408658">
        <ele>-12.359999999999999</ele>
        <time>2017-06-27T11:47:48Z</time>
      </trkpt>
      <trkpt lat="69.297121027484536" lon="19.973278976976871">
        <ele>-13.32</ele>
        <time>2017-06-27T11:47:58Z</time>
      </trkpt>
      <trkpt lat="69.296264983713627" lon="19.969374015927315">
        <ele>-11.4</ele>
        <time>2017-06-27T11:48:06Z</time>
      </trkpt>
      <trkpt lat="69.296106984838843" lon="19.969016024842858">
        <ele>-11.4</ele>
        <time>2017-06-27T11:48:07Z</time>
      </trkpt>
      <trkpt lat="69.295941023156047" lon="19.968686029314995">
        <ele>-11.880000000000001</ele>
        <time>2017-06-27T11:48:08Z</time>
      </trkpt>
      <trkpt lat="69.294054005295038" lon="19.965763008221984">
        <ele>-13.800000000000001</ele>
        <time>2017-06-27T11:48:18Z</time>
      </trkpt>
      <trkpt lat="69.291419992223382" lon="19.96386400423944">
        <ele>-13.800000000000001</ele>
        <time>2017-06-27T11:48:30Z</time>
      </trkpt>
      <trkpt lat="69.28827803581953" lon="19.961198978126049">
        <ele>-13.32</ele>
        <time>2017-06-27T11:48:44Z</time>
      </trkpt>
      <trkpt lat="69.286039983853698" lon="19.959778999909759">
        <ele>-6.59</ele>
        <time>2017-06-27T11:48:54Z</time>
      </trkpt>
      <trkpt lat="69.284556973725557" lon="19.96014797128737">
        <ele>4.94</ele>
        <time>2017-06-27T11:49:01Z</time>
      </trkpt>
      <trkpt lat="69.282064028084278" lon="19.960443014279008">
        <ele>11.19</ele>
        <time>2017-06-27T11:49:12Z</time>
      </trkpt>
      <trkpt lat="69.278088994324207" lon="19.961172994226217">
        <ele>12.630000000000001</ele>
        <time>2017-06-27T11:49:29Z</time>
      </trkpt>
      <trkpt lat="69.276893986389041" lon="19.960001036524773">
        <ele>9.27</ele>
        <time>2017-06-27T11:49:35Z</time>
      </trkpt>
      <trkpt lat="69.27596895955503" lon="19.957579001784325">
        <ele>4.46</ele>
        <time>2017-06-27T11:49:41Z</time>
      </trkpt>
      <trkpt lat="69.275015015155077" lon="19.952598977833986">
        <ele>2.54</ele>
        <time>2017-06-27T11:49:50Z</time>
      </trkpt>
      <trkpt lat="69.273872980847955" lon="19.945370005443692">
        <ele>1.1</ele>
        <time>2017-06-27T11:50:03Z</time>
      </trkpt>
      <trkpt lat="69.272301038727164" lon="19.938019998371601">
        <ele>-0.34</ele>
        <time>2017-06-27T11:50:17Z</time>
      </trkpt>
      <trkpt lat="69.27124097943306" lon="19.935207031667233">
        <ele>-0.34</ele>
        <time>2017-06-27T11:50:24Z</time>
      </trkpt>
      <trkpt lat="69.269919991493225" lon="19.933776995167136">
        <ele>-0.34</ele>
        <time>2017-06-27T11:50:31Z</time>
      </trkpt>
      <trkpt lat="69.267617985606194" lon="19.932159958407283">
        <ele>-1.3</ele>
        <time>2017-06-27T11:50:42Z</time>
      </trkpt>
      <trkpt lat="69.265475990250707" lon="19.929227968677878">
        <ele>2.54</ele>
        <time>2017-06-27T11:50:53Z</time>
      </trkpt>
      <trkpt lat="69.264001026749611" lon="19.927528034895658">
        <ele>2.06</ele>
        <time>2017-06-27T11:51:01Z</time>
      </trkpt>
      <trkpt lat="69.262151978909969" lon="19.923574039712548">
        <ele>2.54</ele>
        <time>2017-06-27T11:51:12Z</time>
      </trkpt>
      <trkpt lat="69.261246984824538" lon="19.920746991410851">
        <ele>3.5</ele>
        <time>2017-06-27T11:51:19Z</time>
      </trkpt>
      <trkpt lat="69.261175990104675" lon="19.920286992564797">
        <ele>3.5</ele>
        <time>2017-06-27T11:51:20Z</time>
      </trkpt>
      <trkpt lat="69.261128967627883" lon="19.919807966798544">
        <ele>3.98</ele>
        <time>2017-06-27T11:51:21Z</time>
      </trkpt>
      <trkpt lat="69.261108012869954" lon="19.919301029294729">
        <ele>3.98</ele>
        <time>2017-06-27T11:51:22Z</time>
      </trkpt>
      <trkpt lat="69.261107007041574" lon="19.918780010193586">
        <ele>4.46</ele>
        <time>2017-06-27T11:51:23Z</time>
      </trkpt>
      <trkpt lat="69.261129973456264" lon="19.918238036334515">
        <ele>4.46</ele>
        <time>2017-06-27T11:51:24Z</time>
      </trkpt>
      <trkpt lat="69.261153023689985" lon="19.917687010020018">
        <ele>4.94</ele>
        <time>2017-06-27T11:51:25Z</time>
      </trkpt>
      <trkpt lat="69.261448988690972" lon="19.911902993917465">
        <ele>5.42</ele>
        <time>2017-06-27T11:51:35Z</time>
      </trkpt>
      <trkpt lat="69.261817960068583" lon="19.9049730040133">
        <ele>4.46</ele>
        <time>2017-06-27T11:51:49Z</time>
      </trkpt>
      <trkpt lat="69.261873029172421" lon="19.903202997520566">
        <ele>4.46</ele>
        <time>2017-06-27T11:51:53Z</time>
      </trkpt>
      <trkpt lat="69.261857019737363" lon="19.902793038636446">
        <ele>4.94</ele>
        <time>2017-06-27T11:51:54Z</time>
      </trkpt>
      <trkpt lat="69.261827012524009" lon="19.902405040338635">
        <ele>4.94</ele>
        <time>2017-06-27T11:51:55Z</time>
      </trkpt>
      <trkpt lat="69.261780995875597" lon="19.902045037597418">
        <ele>4.94</ele>
        <time>2017-06-27T11:51:56Z</time>
      </trkpt>
      <trkpt lat="69.261721987277269" lon="19.901711018756032">
        <ele>4.46</ele>
        <time>2017-06-27T11:51:57Z</time>
      </trkpt>
      <trkpt lat="69.261649986729026" lon="19.90138697437942">
        <ele>4.46</ele>
        <time>2017-06-27T11:51:58Z</time>
      </trkpt>
      <trkpt lat="69.261568011716008" lon="19.901086986064911">
        <ele>4.46</ele>
        <time>2017-06-27T11:51:59Z</time>
      </trkpt>
      <trkpt lat="69.261476984247565" lon="19.900808036327362">
        <ele>3.98</ele>
        <time>2017-06-27T11:52:00Z</time>
      </trkpt>
      <trkpt lat="69.261380005627871" lon="19.900552975013852">
        <ele>3.5</ele>
        <time>2017-06-27T11:52:01Z</time>
      </trkpt>
      <trkpt lat="69.261281015351415" lon="19.900320963934064">
        <ele>3.02</ele>
        <time>2017-06-27T11:52:02Z</time>
      </trkpt>
      <trkpt lat="69.259888026863337" lon="19.897560970857739">
        <ele>-3.23</ele>
        <time>2017-06-27T11:52:14Z</time>
      </trkpt>
      <trkpt lat="69.259669007733464" lon="19.896949008107185">
        <ele>-2.75</ele>
        <time>2017-06-27T11:52:16Z</time>
      </trkpt>
      <trkpt lat="69.259585021063685" lon="19.896598979830742">
        <ele>-2.27</ele>
        <time>2017-06-27T11:52:17Z</time>
      </trkpt>
      <trkpt lat="69.25950899720192" lon="19.896243000403047">
        <ele>-1.3</ele>
        <time>2017-06-27T11:52:18Z</time>
      </trkpt>
      <trkpt lat="69.258910026401281" lon="19.892884958535433">
        <ele>5.91</ele>
        <time>2017-06-27T11:52:28Z</time>
      </trkpt>
      <trkpt lat="69.258139980956912" lon="19.890928035601974">
        <ele>9.27</ele>
        <time>2017-06-27T11:52:35Z</time>
      </trkpt>
      <trkpt lat="69.25703801214695" lon="19.887664038687944">
        <ele>12.630000000000001</ele>
        <time>2017-06-27T11:52:44Z</time>
      </trkpt>
      <trkpt lat="69.256112985312939" lon="19.885689010843635">
        <ele>13.6</ele>
        <time>2017-06-27T11:52:52Z</time>
      </trkpt>
      <trkpt lat="69.255312010645866" lon="19.88346504047513">
        <ele>14.56</ele>
        <time>2017-06-27T11:53:01Z</time>
      </trkpt>
      <trkpt lat="69.254372986033559" lon="19.8806759621948">
        <ele>18.879999999999999</ele>
        <time>2017-06-27T11:53:11Z</time>
      </trkpt>
      <trkpt lat="69.253449970856309" lon="19.878129037097096">
        <ele>17.920000000000002</ele>
        <time>2017-06-27T11:53:20Z</time>
      </trkpt>
      <trkpt lat="69.252841025590897" lon="19.87446497194469">
        <ele>19.359999999999999</ele>
        <time>2017-06-27T11:53:30Z</time>
      </trkpt>
      <trkpt lat="69.252019012346864" lon="19.870953960344195">
        <ele>16.48</ele>
        <time>2017-06-27T11:53:40Z</time>
      </trkpt>
      <trkpt lat="69.2515819799155" lon="19.869699021801353">
        <ele>15.52</ele>
        <time>2017-06-27T11:53:44Z</time>
      </trkpt>
      <trkpt lat="69.251501010730863" lon="19.869331978261471">
        <ele>15.52</ele>
        <time>2017-06-27T11:53:45Z</time>
      </trkpt>
      <trkpt lat="69.250627029687166" lon="19.864576002582908">
        <ele>15.039999999999999</ele>
        <time>2017-06-27T11:53:57Z</time>
      </trkpt>
      <trkpt lat="69.249577028676867" lon="19.861367996782064">
        <ele>12.630000000000001</ele>
        <time>2017-06-27T11:54:06Z</time>
      </trkpt>
      <trkpt lat="69.248779993504286" lon="19.858246995136142">
        <ele>9.27</ele>
        <time>2017-06-27T11:54:13Z</time>
      </trkpt>
      <trkpt lat="69.248096030205488" lon="19.855100009590387">
        <ele>13.119999999999999</ele>
        <time>2017-06-27T11:54:21Z</time>
      </trkpt>
      <trkpt lat="69.24799301661551" lon="19.854857018217444">
        <ele>13.119999999999999</ele>
        <time>2017-06-27T11:54:22Z</time>
      </trkpt>
      <trkpt lat="69.247871981933713" lon="19.854657026007771">
        <ele>14.08</ele>
        <time>2017-06-27T11:54:23Z</time>
      </trkpt>
      <trkpt lat="69.247730998322368" lon="19.854493997991085">
        <ele>13.119999999999999</ele>
        <time>2017-06-27T11:54:24Z</time>
      </trkpt>
      <trkpt lat="69.247576016932726" lon="19.85435301437974">
        <ele>12.630000000000001</ele>
        <time>2017-06-27T11:54:25Z</time>
      </trkpt>
      <trkpt lat="69.24595202319324" lon="19.852529028430581">
        <ele>15.039999999999999</ele>
        <time>2017-06-27T11:54:34Z</time>
      </trkpt>
      <trkpt lat="69.24410498701036" lon="19.849643977358937">
        <ele>18.879999999999999</ele>
        <time>2017-06-27T11:54:44Z</time>
      </trkpt>
      <trkpt lat="69.243132015690207" lon="19.847640031948686">
        <ele>21.77</ele>
        <time>2017-06-27T11:54:50Z</time>
      </trkpt>
      <trkpt lat="69.242771007120609" lon="19.84664199873805">
        <ele>21.77</ele>
        <time>2017-06-27T11:54:53Z</time>
      </trkpt>
      <trkpt lat="69.242641003802419" lon="19.846381992101669">
        <ele>21.289999999999999</ele>
        <time>2017-06-27T11:54:54Z</time>
      </trkpt>
      <trkpt lat="69.242503037676215" lon="19.846159033477306">
        <ele>21.77</ele>
        <time>2017-06-27T11:54:55Z</time>
      </trkpt>
      <trkpt lat="69.242355013266206" lon="19.846000028774142">
        <ele>23.210000000000001</ele>
        <time>2017-06-27T11:54:56Z</time>
      </trkpt>
      <trkpt lat="69.242201959714293" lon="19.845861978828907">
        <ele>24.170000000000002</ele>
        <time>2017-06-27T11:54:57Z</time>
      </trkpt>
      <trkpt lat="69.242046978324652" lon="19.845755025744438">
        <ele>24.170000000000002</ele>
        <time>2017-06-27T11:54:58Z</time>
      </trkpt>
      <trkpt lat="69.241885961964726" lon="19.845650000497699">
        <ele>24.170000000000002</ele>
        <time>2017-06-27T11:54:59Z</time>
      </trkpt>
      <trkpt lat="69.241730980575085" lon="19.845508011057973">
        <ele>23.690000000000001</ele>
        <time>2017-06-27T11:55:00Z</time>
      </trkpt>
      <trkpt lat="69.241583961993456" lon="19.845299972221255">
        <ele>23.690000000000001</ele>
        <time>2017-06-27T11:55:01Z</time>
      </trkpt>
      <trkpt lat="69.241442978382111" lon="19.845048012211919">
        <ele>23.690000000000001</ele>
        <time>2017-06-27T11:55:02Z</time>
      </trkpt>
      <trkpt lat="69.241035031154752" lon="19.844181993976235">
        <ele>23.690000000000001</ele>
        <time>2017-06-27T11:55:05Z</time>
      </trkpt>
      <trkpt lat="69.240880971774459" lon="19.843963980674744">
        <ele>23.690000000000001</ele>
        <time>2017-06-27T11:55:06Z</time>
      </trkpt>
      <trkpt lat="69.240715010091662" lon="19.843787038698792">
        <ele>23.690000000000001</ele>
        <time>2017-06-27T11:55:07Z</time>
      </trkpt>
      <trkpt lat="69.240537984296679" lon="19.843641025945544">
        <ele>23.690000000000001</ele>
        <time>2017-06-27T11:55:08Z</time>
      </trkpt>
      <trkpt lat="69.240352995693684" lon="19.843518985435367">
        <ele>24.170000000000002</ele>
        <time>2017-06-27T11:55:09Z</time>
      </trkpt>
      <trkpt lat="69.238724978640676" lon="19.842325989156961">
        <ele>24.649999999999999</ele>
        <time>2017-06-27T11:55:17Z</time>
      </trkpt>
      <trkpt lat="69.238536972552538" lon="19.842059025540948">
        <ele>25.129999999999999</ele>
        <time>2017-06-27T11:55:18Z</time>
      </trkpt>
      <trkpt lat="69.238357013091445" lon="19.841715032234788">
        <ele>25.609999999999999</ele>
        <time>2017-06-27T11:55:19Z</time>
      </trkpt>
      <trkpt lat="69.237265018746257" lon="19.838783964514732">
        <ele>32.340000000000003</ele>
        <time>2017-06-27T11:55:26Z</time>
      </trkpt>
      <trkpt lat="69.234596975147724" lon="19.830077011138201">
        <ele>45.799999999999997</ele>
        <time>2017-06-27T11:55:45Z</time>
      </trkpt>
      <trkpt lat="69.233504980802536" lon="19.82850699685514">
        <ele>43.399999999999999</ele>
        <time>2017-06-27T11:55:51Z</time>
      </trkpt>
      <trkpt lat="69.232442993670702" lon="19.828137019649148">
        <ele>44.359999999999999</ele>
        <time>2017-06-27T11:55:56Z</time>
      </trkpt>
      <trkpt lat="69.232241995632648" lon="19.828183958306909">
        <ele>43.880000000000003</ele>
        <time>2017-06-27T11:55:57Z</time>
      </trkpt>
      <trkpt lat="69.231705972924829" lon="19.828287977725267">
        <ele>42.920000000000002</ele>
        <time>2017-06-27T11:56:00Z</time>
      </trkpt>
      <trkpt lat="69.231555014848709" lon="19.828230980783701">
        <ele>43.399999999999999</ele>
        <time>2017-06-27T11:56:01Z</time>
      </trkpt>
      <trkpt lat="69.231405984610319" lon="19.828096032142639">
        <ele>43.399999999999999</ele>
        <time>2017-06-27T11:56:02Z</time>
      </trkpt>
      <trkpt lat="69.231265000998974" lon="19.827871983870864">
        <ele>43.399999999999999</ele>
        <time>2017-06-27T11:56:03Z</time>
      </trkpt>
      <trkpt lat="69.231137009337544" lon="19.827595967799425">
        <ele>44.359999999999999</ele>
        <time>2017-06-27T11:56:04Z</time>
      </trkpt>
      <trkpt lat="69.231010023504496" lon="19.827277036383748">
        <ele>44.840000000000003</ele>
        <time>2017-06-27T11:56:05Z</time>
      </trkpt>
      <trkpt lat="69.230884965509176" lon="19.826932037249207">
        <ele>45.799999999999997</ele>
        <time>2017-06-27T11:56:06Z</time>
      </trkpt>
      <trkpt lat="69.230751022696495" lon="19.826600030064583">
        <ele>46.759999999999998</ele>
        <time>2017-06-27T11:56:07Z</time>
      </trkpt>
      <trkpt lat="69.230604004114866" lon="19.826293000951409">
        <ele>47.719999999999999</ele>
        <time>2017-06-27T11:56:08Z</time>
      </trkpt>
      <trkpt lat="69.230450028553605" lon="19.826012961566448">
        <ele>49.159999999999997</ele>
        <time>2017-06-27T11:56:09Z</time>
      </trkpt>
      <trkpt lat="69.228833997622132" lon="19.823916982859373">
        <ele>59.259999999999998</ele>
        <time>2017-06-27T11:56:18Z</time>
      </trkpt>
      <trkpt lat="69.228480029851198" lon="19.823375009000301">
        <ele>59.740000000000002</ele>
        <time>2017-06-27T11:56:20Z</time>
      </trkpt>
      <trkpt lat="69.228320019319654" lon="19.823024980723858">
        <ele>60.219999999999999</ele>
        <time>2017-06-27T11:56:21Z</time>
      </trkpt>
      <trkpt lat="69.227134985849261" lon="19.820419969037175">
        <ele>64.069999999999993</ele>
        <time>2017-06-27T11:56:28Z</time>
      </trkpt>
      <trkpt lat="69.22429502941668" lon="19.814854972064495">
        <ele>69.349999999999994</ele>
        <time>2017-06-27T11:56:43Z</time>
      </trkpt>
      <trkpt lat="69.222043985500932" lon="19.810428991913795">
        <ele>74.640000000000001</ele>
        <time>2017-06-27T11:56:55Z</time>
      </trkpt>
      <trkpt lat="69.219944989308715" lon="19.806458987295628">
        <ele>75.599999999999994</ele>
        <time>2017-06-27T11:57:06Z</time>
      </trkpt>
      <trkpt lat="69.217658992856741" lon="19.801450967788696">
        <ele>77.519999999999996</ele>
        <time>2017-06-27T11:57:18Z</time>
      </trkpt>
      <trkpt lat="69.214765978977084" lon="19.795413985848427">
        <ele>80.409999999999997</ele>
        <time>2017-06-27T11:57:33Z</time>
      </trkpt>
      <trkpt lat="69.212620966136456" lon="19.789486974477768">
        <ele>84.25</ele>
        <time>2017-06-27T11:57:46Z</time>
      </trkpt>
      <trkpt lat="69.212068011984229" lon="19.78779399767518">
        <ele>85.689999999999998</ele>
        <time>2017-06-27T11:57:50Z</time>
      </trkpt>
      <trkpt lat="69.211917975917459" lon="19.787487974390388">
        <ele>85.689999999999998</ele>
        <time>2017-06-27T11:57:51Z</time>
      </trkpt>
      <trkpt lat="69.211757965385914" lon="19.787209024652839">
        <ele>86.180000000000007</ele>
        <time>2017-06-27T11:57:52Z</time>
      </trkpt>
      <trkpt lat="69.211585968732834" lon="19.786966033279896">
        <ele>85.689999999999998</ele>
        <time>2017-06-27T11:57:53Z</time>
      </trkpt>
      <trkpt lat="69.211406009271741" lon="19.786733016371727">
        <ele>85.689999999999998</ele>
        <time>2017-06-27T11:57:54Z</time>
      </trkpt>
      <trkpt lat="69.209124958142638" lon="19.783513024449348">
        <ele>85.209999999999994</ele>
        <time>2017-06-27T11:58:06Z</time>
      </trkpt>
      <trkpt lat="69.206598987802863" lon="19.778990987688303">
        <ele>88.099999999999994</ele>
        <time>2017-06-27T11:58:20Z</time>
      </trkpt>
      <trkpt lat="69.206078974530101" lon="19.778129998594522">
        <ele>88.099999999999994</ele>
        <time>2017-06-27T11:58:23Z</time>
      </trkpt>
      <trkpt lat="69.205920975655317" lon="19.77775800973177">
        <ele>88.099999999999994</ele>
        <time>2017-06-27T11:58:24Z</time>
      </trkpt>
      <trkpt lat="69.204642986878753" lon="19.775112010538578">
        <ele>90.5</ele>
        <time>2017-06-27T11:58:32Z</time>
      </trkpt>
      <trkpt lat="69.203401040285826" lon="19.77329196408391">
        <ele>89.060000000000002</ele>
        <time>2017-06-27T11:58:39Z</time>
      </trkpt>
      <trkpt lat="69.201645031571388" lon="19.770379001274705">
        <ele>87.620000000000005</ele>
        <time>2017-06-27T11:58:49Z</time>
      </trkpt>
      <trkpt lat="69.20040400698781" lon="19.767556982114911">
        <ele>87.620000000000005</ele>
        <time>2017-06-27T11:58:57Z</time>
      </trkpt>
      <trkpt lat="69.19812798500061" lon="19.761233003810048">
        <ele>89.060000000000002</ele>
        <time>2017-06-27T11:59:14Z</time>
      </trkpt>
      <trkpt lat="69.197538988664746" lon="19.758259020745754">
        <ele>90.5</ele>
        <time>2017-06-27T11:59:21Z</time>
      </trkpt>
      <trkpt lat="69.197269007563591" lon="19.754567965865135">
        <ele>90.980000000000004</ele>
        <time>2017-06-27T11:59:30Z</time>
      </trkpt>
      <trkpt lat="69.197017969563603" lon="19.751055026426911">
        <ele>91.939999999999998</ele>
        <time>2017-06-27T11:59:42Z</time>
      </trkpt>
      <trkpt lat="69.196978993713856" lon="19.750716984272003">
        <ele>92.420000000000002</ele>
        <time>2017-06-27T11:59:44Z</time>
      </trkpt>
      <trkpt lat="69.196955021470785" lon="19.750613970682025">
        <ele>91.939999999999998</ele>
        <time>2017-06-27T11:59:45Z</time>
      </trkpt>
      <trkpt lat="69.196928031742573" lon="19.750554962083697">
        <ele>91.939999999999998</ele>
        <time>2017-06-27T11:59:46Z</time>
      </trkpt>
      <trkpt lat="69.196900958195329" lon="19.750531995669007">
        <ele>91.939999999999998</ele>
        <time>2017-06-27T11:59:47Z</time>
      </trkpt>
      <trkpt lat="69.196872040629387" lon="19.750522021204233">
        <ele>91.939999999999998</ele>
        <time>2017-06-27T11:59:48Z</time>
      </trkpt>
      <trkpt lat="69.196843961253762" lon="19.750528978183866">
        <ele>91.939999999999998</ele>
        <time>2017-06-27T11:59:49Z</time>
      </trkpt>
      <trkpt lat="69.196820994839072" lon="19.750544987618923">
        <ele>91.939999999999998</ele>
        <time>2017-06-27T11:59:50Z</time>
      </trkpt>
      <trkpt lat="69.196805991232395" lon="19.750568959861994">
        <ele>92.420000000000002</ele>
        <time>2017-06-27T11:59:51Z</time>
      </trkpt>
      <trkpt lat="69.196804985404015" lon="19.750631991773844">
        <ele>92.420000000000002</ele>
        <time>2017-06-27T12:00:10Z</time>
      </trkpt>
      <trkpt lat="69.196761986240745" lon="19.750706003978848">
        <ele>92.420000000000002</ele>
        <time>2017-06-27T12:00:55Z</time>
      </trkpt>
      <trkpt lat="69.196555959060788" lon="19.750932985916734">
        <ele>92.900000000000006</ele>
        <time>2017-06-27T12:00:58Z</time>
      </trkpt>
      <trkpt lat="69.195562032982707" lon="19.751734966412187">
        <ele>96.269999999999996</ele>
        <time>2017-06-27T12:01:07Z</time>
      </trkpt>
      <trkpt lat="69.193972991779447" lon="19.753368012607098">
        <ele>96.269999999999996</ele>
        <time>2017-06-27T12:01:18Z</time>
      </trkpt>
      <trkpt lat="69.191828984767199" lon="19.75565199740231">
        <ele>96.75</ele>
        <time>2017-06-27T12:01:32Z</time>
      </trkpt>
      <trkpt lat="69.189872983843088" lon="19.757339023053646">
        <ele>95.790000000000006</ele>
        <time>2017-06-27T12:01:43Z</time>
      </trkpt>
      <trkpt lat="69.189215004444122" lon="19.758006976917386">
        <ele>98.670000000000002</ele>
        <time>2017-06-27T12:01:47Z</time>
      </trkpt>
      <trkpt lat="69.189075026661158" lon="19.758263966068625">
        <ele>99.629999999999995</ele>
        <time>2017-06-27T12:01:48Z</time>
      </trkpt>
      <trkpt lat="69.188948040828109" lon="19.758554985746741">
        <ele>100.11</ele>
        <time>2017-06-27T12:01:49Z</time>
      </trkpt>
      <trkpt lat="69.18882398866117" lon="19.758879030123353">
        <ele>101.08</ele>
        <time>2017-06-27T12:01:50Z</time>
      </trkpt>
      <trkpt lat="69.188703959807754" lon="19.759226040914655">
        <ele>102.04000000000001</ele>
        <time>2017-06-27T12:01:51Z</time>
      </trkpt>
      <trkpt lat="69.187688995152712" lon="19.763161009177566">
        <ele>107.31999999999999</ele>
        <time>2017-06-27T12:02:01Z</time>
      </trkpt>
      <trkpt lat="69.187241988256574" lon="19.767337962985039">
        <ele>113.09</ele>
        <time>2017-06-27T12:02:10Z</time>
      </trkpt>
      <trkpt lat="69.186729015782475" lon="19.773288024589419">
        <ele>117.90000000000001</ele>
        <time>2017-06-27T12:02:23Z</time>
      </trkpt>
      <trkpt lat="69.186072964221239" lon="19.77730899117887">
        <ele>119.34</ele>
        <time>2017-06-27T12:02:32Z</time>
      </trkpt>
      <trkpt lat="69.184945011511445" lon="19.783101975917816">
        <ele>128.94999999999999</ele>
        <time>2017-06-27T12:02:45Z</time>
      </trkpt>
      <trkpt lat="69.184062983840704" lon="19.789475994184613">
        <ele>142.88999999999999</ele>
        <time>2017-06-27T12:02:59Z</time>
      </trkpt>
      <trkpt lat="69.183223033323884" lon="19.792959010228515">
        <ele>152.99000000000001</ele>
        <time>2017-06-27T12:03:08Z</time>
      </trkpt>
      <trkpt lat="69.182180995121598" lon="19.796348987147212">
        <ele>165</ele>
        <time>2017-06-27T12:03:19Z</time>
      </trkpt>
      <trkpt lat="69.181835995987058" lon="19.796890961006284">
        <ele>168.37</ele>
        <time>2017-06-27T12:03:22Z</time>
      </trkpt>
      <trkpt lat="69.181703981012106" lon="19.797006966546178">
        <ele>169.33000000000001</ele>
        <time>2017-06-27T12:03:23Z</time>
      </trkpt>
      <trkpt lat="69.181567020714283" lon="19.797064969316125">
        <ele>170.28999999999999</ele>
        <time>2017-06-27T12:03:24Z</time>
      </trkpt>
      <trkpt lat="69.181421007961035" lon="19.797110985964537">
        <ele>171.25</ele>
        <time>2017-06-27T12:03:25Z</time>
      </trkpt>
      <trkpt lat="69.181278012692928" lon="19.797109980136156">
        <ele>171.72999999999999</ele>
        <time>2017-06-27T12:03:26Z</time>
      </trkpt>
      <trkpt lat="69.1811309941113" lon="19.797082990407944">
        <ele>172.69</ele>
        <time>2017-06-27T12:03:27Z</time>
      </trkpt>
      <trkpt lat="69.179557962343097" lon="19.797470988705754">
        <ele>182.78999999999999</ele>
        <time>2017-06-27T12:03:37Z</time>
      </trkpt>
      <trkpt lat="69.179064016789198" lon="19.797639967873693">
        <ele>185.19</ele>
        <time>2017-06-27T12:03:40Z</time>
      </trkpt>
      <trkpt lat="69.178907023742795" lon="19.797608032822609">
        <ele>186.63</ele>
        <time>2017-06-27T12:03:41Z</time>
      </trkpt>
      <trkpt lat="69.178750030696392" lon="19.797533014789224">
        <ele>188.08000000000001</ele>
        <time>2017-06-27T12:03:42Z</time>
      </trkpt>
      <trkpt lat="69.178601000458002" lon="19.797422960400581">
        <ele>189.52000000000001</ele>
        <time>2017-06-27T12:03:43Z</time>
      </trkpt>
      <trkpt lat="69.178453981876373" lon="19.797290023416281">
        <ele>190.47999999999999</ele>
        <time>2017-06-27T12:03:44Z</time>
      </trkpt>
      <trkpt lat="69.178306041285396" lon="19.797130012884736">
        <ele>191.44</ele>
        <time>2017-06-27T12:03:45Z</time>
      </trkpt>
      <trkpt lat="69.177052024751902" lon="19.795983033254743">
        <ele>193.84</ele>
        <time>2017-06-27T12:03:53Z</time>
      </trkpt>
      <trkpt lat="69.175461977720261" lon="19.795776000246406">
        <ele>192.88</ele>
        <time>2017-06-27T12:04:03Z</time>
      </trkpt>
      <trkpt lat="69.173862962052226" lon="19.795697964727879">
        <ele>191.91999999999999</ele>
        <time>2017-06-27T12:04:13Z</time>
      </trkpt>
      <trkpt lat="69.172336030751467" lon="19.79724601842463">
        <ele>191.91999999999999</ele>
        <time>2017-06-27T12:04:23Z</time>
      </trkpt>
      <trkpt lat="69.170334013178945" lon="19.799550035968423">
        <ele>201.53</ele>
        <time>2017-06-27T12:04:37Z</time>
      </trkpt>
      <trkpt lat="69.169063987210393" lon="19.801247036084533">
        <ele>208.25999999999999</ele>
        <time>2017-06-27T12:04:48Z</time>
      </trkpt>
      <trkpt lat="69.167231032624841" lon="19.803730007261038">
        <ele>210.19</ele>
        <time>2017-06-27T12:05:00Z</time>
      </trkpt>
      <trkpt lat="69.164897007867694" lon="19.806182971224189">
        <ele>208.74000000000001</ele>
        <time>2017-06-27T12:05:14Z</time>
      </trkpt>
      <trkpt lat="69.163482980802655" lon="19.808422029018402">
        <ele>211.15000000000001</ele>
        <time>2017-06-27T12:05:24Z</time>
      </trkpt>
      <trkpt lat="69.161865022033453" lon="19.810022972524166">
        <ele>212.11000000000001</ele>
        <time>2017-06-27T12:05:34Z</time>
      </trkpt>
      <trkpt lat="69.159333016723394" lon="19.813347989693284">
        <ele>212.59</ele>
        <time>2017-06-27T12:05:50Z</time>
      </trkpt>
      <trkpt lat="69.157497966662049" lon="19.815223021432757">
        <ele>215.94999999999999</ele>
        <time>2017-06-27T12:06:02Z</time>
      </trkpt>
      <trkpt lat="69.155604997649789" lon="19.815132999792695">
        <ele>214.99000000000001</ele>
        <time>2017-06-27T12:06:12Z</time>
      </trkpt>
      <trkpt lat="69.153443975374103" lon="19.814776014536619">
        <ele>221.72</ele>
        <time>2017-06-27T12:06:24Z</time>
      </trkpt>
      <trkpt lat="69.153295028954744" lon="19.814655985683203">
        <ele>222.19999999999999</ele>
        <time>2017-06-27T12:06:25Z</time>
      </trkpt>
      <trkpt lat="69.153147004544735" lon="19.814503015950322">
        <ele>222.19999999999999</ele>
        <time>2017-06-27T12:06:26Z</time>
      </trkpt>
      <trkpt lat="69.151820987462997" lon="19.81282495893538">
        <ele>217.88</ele>
        <time>2017-06-27T12:06:34Z</time>
      </trkpt>
      <trkpt lat="69.149445975199342" lon="19.80968602001667">
        <ele>217.88</ele>
        <time>2017-06-27T12:06:46Z</time>
      </trkpt>
      <trkpt lat="69.147780993953347" lon="19.807567996904254">
        <ele>220.28</ele>
        <time>2017-06-27T12:06:54Z</time>
      </trkpt>
      <trkpt lat="69.14638901129365" lon="19.805567990988493">
        <ele>225.09</ele>
        <time>2017-06-27T12:07:01Z</time>
      </trkpt>
      <trkpt lat="69.142756965011358" lon="19.799945997074246">
        <ele>227.00999999999999</ele>
        <time>2017-06-27T12:07:19Z</time>
      </trkpt>
      <trkpt lat="69.141149986535311" lon="19.798114970326424">
        <ele>229.41</ele>
        <time>2017-06-27T12:07:27Z</time>
      </trkpt>
      <trkpt lat="69.140989976003766" lon="19.79778204113245">
        <ele>229.41</ele>
        <time>2017-06-27T12:07:28Z</time>
      </trkpt>
      <trkpt lat="69.140839017927647" lon="19.797385996207595">
        <ele>229.41</ele>
        <time>2017-06-27T12:07:29Z</time>
      </trkpt>
      <trkpt lat="69.139234973117709" lon="19.792815009132028">
        <ele>228.93000000000001</ele>
        <time>2017-06-27T12:07:39Z</time>
      </trkpt>
      <trkpt lat="69.137722039595246" lon="19.788290038704872">
        <ele>230.84999999999999</ele>
        <time>2017-06-27T12:07:49Z</time>
      </trkpt>
      <trkpt lat="69.137631012126803" lon="19.787901034578681">
        <ele>231.33000000000001</ele>
        <time>2017-06-27T12:07:50Z</time>
      </trkpt>
      <trkpt lat="69.137569991871715" lon="19.787553017958999">
        <ele>231.81</ele>
        <time>2017-06-27T12:07:51Z</time>
      </trkpt>
      <trkpt lat="69.137522969394922" lon="19.787230985239148">
        <ele>232.30000000000001</ele>
        <time>2017-06-27T12:07:52Z</time>
      </trkpt>
      <trkpt lat="69.137487011030316" lon="19.786877017468214">
        <ele>232.30000000000001</ele>
        <time>2017-06-27T12:07:53Z</time>
      </trkpt>
      <trkpt lat="69.137411992996931" lon="19.786168998107314">
        <ele>232.78</ele>
        <time>2017-06-27T12:07:55Z</time>
      </trkpt>
      <trkpt lat="69.137348961085081" lon="19.785814024507999">
        <ele>232.78</ele>
        <time>2017-06-27T12:07:56Z</time>
      </trkpt>
      <trkpt lat="69.137270003557205" lon="19.785486962646246">
        <ele>232.78</ele>
        <time>2017-06-27T12:07:57Z</time>
      </trkpt>
      <trkpt lat="69.137170007452369" lon="19.785166019573808">
        <ele>232.78</ele>
        <time>2017-06-27T12:07:58Z</time>
      </trkpt>
      <trkpt lat="69.137060958892107" lon="19.784864019602537">
        <ele>232.78</ele>
        <time>2017-06-27T12:07:59Z</time>
      </trkpt>
      <trkpt lat="69.136942019686103" lon="19.78459001518786">
        <ele>232.78</ele>
        <time>2017-06-27T12:08:00Z</time>
      </trkpt>
      <trkpt lat="69.136818973347545" lon="19.784337971359491">
        <ele>232.78</ele>
        <time>2017-06-27T12:08:01Z</time>
      </trkpt>
      <trkpt lat="69.135468984022737" lon="19.782363027334213">
        <ele>233.74000000000001</ele>
        <time>2017-06-27T12:08:10Z</time>
      </trkpt>
      <trkpt lat="69.133672993630171" lon="19.779809983447194">
        <ele>236.13999999999999</ele>
        <time>2017-06-27T12:08:21Z</time>
      </trkpt>
      <trkpt lat="69.132402967661619" lon="19.777852976694703">
        <ele>239.50999999999999</ele>
        <time>2017-06-27T12:08:29Z</time>
      </trkpt>
      <trkpt lat="69.131477018818259" lon="19.776601977646351">
        <ele>240.94999999999999</ele>
        <time>2017-06-27T12:08:36Z</time>
      </trkpt>
      <trkpt lat="69.130843011662364" lon="19.775275960564613">
        <ele>240.94999999999999</ele>
        <time>2017-06-27T12:08:41Z</time>
      </trkpt>
      <trkpt lat="69.130732035264373" lon="19.774939008057117">
        <ele>240.94999999999999</ele>
        <time>2017-06-27T12:08:42Z</time>
      </trkpt>
      <trkpt lat="69.129749005660415" lon="19.771085008978844">
        <ele>240.47</ele>
        <time>2017-06-27T12:08:53Z</time>
      </trkpt>
      <trkpt lat="69.129354972392321" lon="19.768559960648417">
        <ele>239.02000000000001</ele>
        <time>2017-06-27T12:08:59Z</time>
      </trkpt>
      <trkpt lat="69.129264028742909" lon="19.768190989270806">
        <ele>239.02000000000001</ele>
        <time>2017-06-27T12:09:00Z</time>
      </trkpt>
      <trkpt lat="69.129156991839409" lon="19.767849007621408">
        <ele>239.50999999999999</ele>
        <time>2017-06-27T12:09:01Z</time>
      </trkpt>
      <trkpt lat="69.129036962985992" lon="19.767522029578686">
        <ele>239.50999999999999</ele>
        <time>2017-06-27T12:09:02Z</time>
      </trkpt>
      <trkpt lat="69.128907965496182" lon="19.767196979373693">
        <ele>239.50999999999999</ele>
        <time>2017-06-27T12:09:03Z</time>
      </trkpt>
      <trkpt lat="69.126992030069232" lon="19.762683995068073">
        <ele>240.47</ele>
        <time>2017-06-27T12:09:16Z</time>
      </trkpt>
      <trkpt lat="69.125621002167463" lon="19.759542960673571">
        <ele>241.91</ele>
        <time>2017-06-27T12:09:26Z</time>
      </trkpt>
      <trkpt lat="69.124529007822275" lon="19.75825097411871">
        <ele>241.91</ele>
        <time>2017-06-27T12:09:33Z</time>
      </trkpt>
      <trkpt lat="69.123327964916825" lon="19.757743030786514">
        <ele>243.83000000000001</ele>
        <time>2017-06-27T12:09:40Z</time>
      </trkpt>
      <trkpt lat="69.123178012669086" lon="19.757601041346788">
        <ele>243.83000000000001</ele>
        <time>2017-06-27T12:09:41Z</time>
      </trkpt>
      <trkpt lat="69.123036023229361" lon="19.75741202943027">
        <ele>243.83000000000001</ele>
        <time>2017-06-27T12:09:42Z</time>
      </trkpt>
      <trkpt lat="69.122901996597648" lon="19.757189992815256">
        <ele>244.31</ele>
        <time>2017-06-27T12:09:43Z</time>
      </trkpt>
      <trkpt lat="69.121770020574331" lon="19.755042968317866">
        <ele>244.78999999999999</ele>
        <time>2017-06-27T12:09:52Z</time>
      </trkpt>
      <trkpt lat="69.12165803834796" lon="19.754738034680486">
        <ele>244.31</ele>
        <time>2017-06-27T12:09:53Z</time>
      </trkpt>
      <trkpt lat="69.121559970080853" lon="19.754393035545945">
        <ele>243.83000000000001</ele>
        <time>2017-06-27T12:09:54Z</time>
      </trkpt>
      <trkpt lat="69.121470032259822" lon="19.754003025591373">
        <ele>243.34999999999999</ele>
        <time>2017-06-27T12:09:55Z</time>
      </trkpt>
      <trkpt lat="69.121386967599392" lon="19.753582002595067">
        <ele>243.34999999999999</ele>
        <time>2017-06-27T12:09:56Z</time>
      </trkpt>
      <trkpt lat="69.120481973513961" lon="19.748467030003667">
        <ele>244.78999999999999</ele>
        <time>2017-06-27T12:10:07Z</time>
      </trkpt>
      <trkpt lat="69.119300963357091" lon="19.742822991684079">
        <ele>247.68000000000001</ele>
        <time>2017-06-27T12:10:20Z</time>
      </trkpt>
      <trkpt lat="69.118237970396876" lon="19.738782998174429">
        <ele>246.72</ele>
        <time>2017-06-27T12:10:30Z</time>
      </trkpt>
      <trkpt lat="69.11680500023067" lon="19.735321020707488">
        <ele>249.59999999999999</ele>
        <time>2017-06-27T12:10:40Z</time>
      </trkpt>
      <trkpt lat="69.115340011194348" lon="19.733906993642449">
        <ele>247.19999999999999</ele>
        <time>2017-06-27T12:10:48Z</time>
      </trkpt>
      <trkpt lat="69.114974979311228" lon="19.733456969261169">
        <ele>247.19999999999999</ele>
        <time>2017-06-27T12:10:50Z</time>
      </trkpt>
      <trkpt lat="69.11480600014329" lon="19.733167961239815">
        <ele>247.19999999999999</ele>
        <time>2017-06-27T12:10:51Z</time>
      </trkpt>
      <trkpt lat="69.114641966298223" lon="19.732852969318628">
        <ele>247.68000000000001</ele>
        <time>2017-06-27T12:10:52Z</time>
      </trkpt>
      <trkpt lat="69.112843964248896" lon="19.729662984609604">
        <ele>250.56</ele>
        <time>2017-06-27T12:11:03Z</time>
      </trkpt>
      <trkpt lat="69.111467991024256" lon="19.728412991389632">
        <ele>249.59999999999999</ele>
        <time>2017-06-27T12:11:11Z</time>
      </trkpt>
      <trkpt lat="69.109366983175278" lon="19.725857013836503">
        <ele>249.12</ele>
        <time>2017-06-27T12:11:23Z</time>
      </trkpt>
      <trkpt lat="69.107999978587031" lon="19.723634971305728">
        <ele>247.19999999999999</ele>
        <time>2017-06-27T12:11:31Z</time>
      </trkpt>
      <trkpt lat="69.106658035889268" lon="19.722490003332496">
        <ele>247.19999999999999</ele>
        <time>2017-06-27T12:11:38Z</time>
      </trkpt>
      <trkpt lat="69.104372039437294" lon="19.720833990722895">
        <ele>245.27000000000001</ele>
        <time>2017-06-27T12:11:50Z</time>
      </trkpt>
      <trkpt lat="69.102015970274806" lon="19.718680009245872">
        <ele>239.02000000000001</ele>
        <time>2017-06-27T12:12:03Z</time>
      </trkpt>
      <trkpt lat="69.100392982363701" lon="19.715567976236343">
        <ele>236.13999999999999</ele>
        <time>2017-06-27T12:12:13Z</time>
      </trkpt>
      <trkpt lat="69.099506009370089" lon="19.7127899620682">
        <ele>234.69999999999999</ele>
        <time>2017-06-27T12:12:20Z</time>
      </trkpt>
      <trkpt lat="69.098710985854268" lon="19.708408992737532">
        <ele>235.18000000000001</ele>
        <time>2017-06-27T12:12:29Z</time>
      </trkpt>
      <trkpt lat="69.098300021141768" lon="19.704140005633235">
        <ele>233.25999999999999</ele>
        <time>2017-06-27T12:12:37Z</time>
      </trkpt>
      <trkpt lat="69.098117966204882" lon="19.694942040368915">
        <ele>230.37</ele>
        <time>2017-06-27T12:12:53Z</time>
      </trkpt>
      <trkpt lat="69.098002966493368" lon="19.688298963010311">
        <ele>232.78</ele>
        <time>2017-06-27T12:13:06Z</time>
      </trkpt>
      <trkpt lat="69.097917973995209" lon="19.682655008509755">
        <ele>235.66</ele>
        <time>2017-06-27T12:13:16Z</time>
      </trkpt>
      <trkpt lat="69.097401984035969" lon="19.678760021924973">
        <ele>236.13999999999999</ele>
        <time>2017-06-27T12:13:23Z</time>
      </trkpt>
      <trkpt lat="69.096891023218632" lon="19.674092978239059">
        <ele>239.50999999999999</ele>
        <time>2017-06-27T12:13:31Z</time>
      </trkpt>
      <trkpt lat="69.096263973042369" lon="19.6677550021559">
        <ele>241.43000000000001</ele>
        <time>2017-06-27T12:13:42Z</time>
      </trkpt>
      <trkpt lat="69.096220973879099" lon="19.66719601303339">
        <ele>241.91</ele>
        <time>2017-06-27T12:13:43Z</time>
      </trkpt>
      <trkpt lat="69.096195995807648" lon="19.666634006425738">
        <ele>242.87</ele>
        <time>2017-06-27T12:13:44Z</time>
      </trkpt>
      <trkpt lat="69.096189038828015" lon="19.666066970676184">
        <ele>243.34999999999999</ele>
        <time>2017-06-27T12:13:45Z</time>
      </trkpt>
      <trkpt lat="69.096165988594294" lon="19.662158992141485">
        <ele>248.16</ele>
        <time>2017-06-27T12:13:53Z</time>
      </trkpt>
      <trkpt lat="69.095806991681457" lon="19.657993018627167">
        <ele>248.16</ele>
        <time>2017-06-27T12:14:02Z</time>
      </trkpt>
      <trkpt lat="69.095219001173973" lon="19.65303503908217">
        <ele>248.16</ele>
        <time>2017-06-27T12:14:12Z</time>
      </trkpt>
      <trkpt lat="69.094450967386365" lon="19.648524988442659">
        <ele>240.47</ele>
        <time>2017-06-27T12:14:22Z</time>
      </trkpt>
      <trkpt lat="69.094411991536617" lon="19.648041017353535">
        <ele>239.02000000000001</ele>
        <time>2017-06-27T12:14:23Z</time>
      </trkpt>
      <trkpt lat="69.094388019293547" lon="19.647528966888785">
        <ele>239.02000000000001</ele>
        <time>2017-06-27T12:14:24Z</time>
      </trkpt>
      <trkpt lat="69.09424401819706" lon="19.642051979899406">
        <ele>230.84999999999999</ele>
        <time>2017-06-27T12:14:34Z</time>
      </trkpt>
      <trkpt lat="69.094299003481865" lon="19.638953022658825">
        <ele>227.97</ele>
        <time>2017-06-27T12:14:40Z</time>
      </trkpt>
      <trkpt lat="69.094279976561666" lon="19.638533005490899">
        <ele>228.44999999999999</ele>
        <time>2017-06-27T12:14:41Z</time>
      </trkpt>
      <trkpt lat="69.094237983226776" lon="19.638121034950018">
        <ele>228.44999999999999</ele>
        <time>2017-06-27T12:14:42Z</time>
      </trkpt>
      <trkpt lat="69.09418098628521" lon="19.637719038873911">
        <ele>228.44999999999999</ele>
        <time>2017-06-27T12:14:43Z</time>
      </trkpt>
      <trkpt lat="69.094113009050488" lon="19.637305978685617">
        <ele>228.44999999999999</ele>
        <time>2017-06-27T12:14:44Z</time>
      </trkpt>
      <trkpt lat="69.09364496357739" lon="19.632951999083161">
        <ele>223.63999999999999</ele>
        <time>2017-06-27T12:14:53Z</time>
      </trkpt>
      <trkpt lat="69.093183958902955" lon="19.62815604172647">
        <ele>219.80000000000001</ele>
        <time>2017-06-27T12:15:02Z</time>
      </trkpt>
      <trkpt lat="69.092982960864902" lon="19.623899040743709">
        <ele>214.99000000000001</ele>
        <time>2017-06-27T12:15:11Z</time>
      </trkpt>
      <trkpt lat="69.09287097863853" lon="19.617771031334996">
        <ele>206.81999999999999</ele>
        <time>2017-06-27T12:15:23Z</time>
      </trkpt>
      <trkpt lat="69.092549029737711" lon="19.612633008509874">
        <ele>202.49000000000001</ele>
        <time>2017-06-27T12:15:33Z</time>
      </trkpt>
      <trkpt lat="69.091843022033572" lon="19.60497697815299">
        <ele>205.86000000000001</ele>
        <time>2017-06-27T12:15:48Z</time>
      </trkpt>
      <trkpt lat="69.091242961585522" lon="19.601089032366872">
        <ele>209.69999999999999</ele>
        <time>2017-06-27T12:15:56Z</time>
      </trkpt>
      <trkpt lat="69.090152978897095" lon="19.596024015918374">
        <ele>213.55000000000001</ele>
        <time>2017-06-27T12:16:07Z</time>
      </trkpt>
      <trkpt lat="69.089012034237385" lon="19.590606959536672">
        <ele>225.09</ele>
        <time>2017-06-27T12:16:19Z</time>
      </trkpt>
      <trkpt lat="69.087787019088864" lon="19.584733005613089">
        <ele>223.63999999999999</ele>
        <time>2017-06-27T12:16:31Z</time>
      </trkpt>
      <trkpt lat="69.085940988734365" lon="19.576626028865576">
        <ele>227.97</ele>
        <time>2017-06-27T12:16:47Z</time>
      </trkpt>
      <trkpt lat="69.084037961438298" lon="19.570746961981058">
        <ele>223.16</ele>
        <time>2017-06-27T12:17:00Z</time>
      </trkpt>
      <trkpt lat="69.082796014845371" lon="19.565089009702206">
        <ele>227.00999999999999</ele>
        <time>2017-06-27T12:17:11Z</time>
      </trkpt>
      <trkpt lat="69.080069968476892" lon="19.552257992327213">
        <ele>226.05000000000001</ele>
        <time>2017-06-27T12:17:35Z</time>
      </trkpt>
      <trkpt lat="69.078341033309698" lon="19.544210024178028">
        <ele>216.91</ele>
        <time>2017-06-27T12:17:49Z</time>
      </trkpt>
      <trkpt lat="69.0765639860183" lon="19.535860978066921">
        <ele>213.55000000000001</ele>
        <time>2017-06-27T12:18:04Z</time>
      </trkpt>
      <trkpt lat="69.07572696916759" lon="19.530522963032126">
        <ele>217.40000000000001</ele>
        <time>2017-06-27T12:18:14Z</time>
      </trkpt>
      <trkpt lat="69.07561699859798" lon="19.530060030519962">
        <ele>216.91</ele>
        <time>2017-06-27T12:18:15Z</time>
      </trkpt>
      <trkpt lat="69.075494036078453" lon="19.529629033058882">
        <ele>216.43000000000001</ele>
        <time>2017-06-27T12:18:16Z</time>
      </trkpt>
      <trkpt lat="69.075353974476457" lon="19.529208010062575">
        <ele>215.47</ele>
        <time>2017-06-27T12:18:17Z</time>
      </trkpt>
      <trkpt lat="69.075205028057098" lon="19.528806013986468">
        <ele>215.47</ele>
        <time>2017-06-27T12:18:18Z</time>
      </trkpt>
      <trkpt lat="69.075047029182315" lon="19.528422961011529">
        <ele>214.99000000000001</ele>
        <time>2017-06-27T12:18:19Z</time>
      </trkpt>
      <trkpt lat="69.072403041645885" lon="19.522540960460901">
        <ele>201.53</ele>
        <time>2017-06-27T12:18:34Z</time>
      </trkpt>
      <trkpt lat="69.069560989737511" lon="19.516272973269224">
        <ele>194.31999999999999</ele>
        <time>2017-06-27T12:18:50Z</time>
      </trkpt>
      <trkpt lat="69.06680703163147" lon="19.510117974132299">
        <ele>194.80000000000001</ele>
        <time>2017-06-27T12:19:06Z</time>
      </trkpt>
      <trkpt lat="69.065936990082264" lon="19.50706603936851">
        <ele>196.72999999999999</ele>
        <time>2017-06-27T12:19:14Z</time>
      </trkpt>
      <trkpt lat="69.064608039334416" lon="19.50060099363327">
        <ele>193.36000000000001</ele>
        <time>2017-06-27T12:19:27Z</time>
      </trkpt>
      <trkpt lat="69.063443960621953" lon="19.494702983647585">
        <ele>195.77000000000001</ele>
        <time>2017-06-27T12:19:39Z</time>
      </trkpt>
      <trkpt lat="69.06294004060328" lon="19.489947007969022">
        <ele>191.91999999999999</ele>
        <time>2017-06-27T12:19:48Z</time>
      </trkpt>
      <trkpt lat="69.062100006267428" lon="19.481368968263268">
        <ele>188.08000000000001</ele>
        <time>2017-06-27T12:20:04Z</time>
      </trkpt>
      <trkpt lat="69.061521990224719" lon="19.474099008366466">
        <ele>185.19</ele>
        <time>2017-06-27T12:20:18Z</time>
      </trkpt>
      <trkpt lat="69.061433980241418" lon="19.471743023023009">
        <ele>181.34999999999999</ele>
        <time>2017-06-27T12:20:23Z</time>
      </trkpt>
      <trkpt lat="69.06145803630352" lon="19.471290986984968">
        <ele>179.90000000000001</ele>
        <time>2017-06-27T12:20:24Z</time>
      </trkpt>
      <trkpt lat="69.061499023810029" lon="19.470830988138914">
        <ele>178.46000000000001</ele>
        <time>2017-06-27T12:20:25Z</time>
      </trkpt>
      <trkpt lat="69.061559960246086" lon="19.470365038141608">
        <ele>177.02000000000001</ele>
        <time>2017-06-27T12:20:26Z</time>
      </trkpt>
      <trkpt lat="69.0616300329566" lon="19.46989799849689">
        <ele>175.58000000000001</ele>
        <time>2017-06-27T12:20:27Z</time>
      </trkpt>
      <trkpt lat="69.062375016510487" lon="19.464330989867449">
        <ele>163.08000000000001</ele>
        <time>2017-06-27T12:20:38Z</time>
      </trkpt>
      <trkpt lat="69.062473000958562" lon="19.461051989346743">
        <ele>157.31</ele>
        <time>2017-06-27T12:20:44Z</time>
      </trkpt>
      <trkpt lat="69.06244701705873" lon="19.46050800383091">
        <ele>157.31</ele>
        <time>2017-06-27T12:20:45Z</time>
      </trkpt>
      <trkpt lat="69.062094977125525" lon="19.455918995663524">
        <ele>156.34999999999999</ele>
        <time>2017-06-27T12:20:54Z</time>
      </trkpt>
      <trkpt lat="69.062019037082791" lon="19.455461008474231">
        <ele>155.87</ele>
        <time>2017-06-27T12:20:55Z</time>
      </trkpt>
      <trkpt lat="69.061928009614348" lon="19.455034034326673">
        <ele>155.87</ele>
        <time>2017-06-27T12:20:56Z</time>
      </trkpt>
      <trkpt lat="69.061830025166273" lon="19.454645030200481">
        <ele>155.38999999999999</ele>
        <time>2017-06-27T12:20:57Z</time>
      </trkpt>
      <trkpt lat="69.06171795912087" lon="19.454287039116025">
        <ele>154.91</ele>
        <time>2017-06-27T12:20:58Z</time>
      </trkpt>
      <trkpt lat="69.061597008258104" lon="19.453967018052936">
        <ele>154.43000000000001</ele>
        <time>2017-06-27T12:20:59Z</time>
      </trkpt>
      <trkpt lat="69.061464993283153" lon="19.453659988939762">
        <ele>153.47</ele>
        <time>2017-06-27T12:21:00Z</time>
      </trkpt>
      <trkpt lat="69.060188010334969" lon="19.450749037787318">
        <ele>150.09999999999999</ele>
        <time>2017-06-27T12:21:11Z</time>
      </trkpt>
      <trkpt lat="69.058998031541705" lon="19.448057021945715">
        <ele>152.50999999999999</ele>
        <time>2017-06-27T12:21:20Z</time>
      </trkpt>
      <trkpt lat="69.058346003293991" lon="19.446849022060633">
        <ele>152.99000000000001</ele>
        <time>2017-06-27T12:21:25Z</time>
      </trkpt>
      <trkpt lat="69.058190016075969" lon="19.44667300209403">
        <ele>152.99000000000001</ele>
        <time>2017-06-27T12:21:26Z</time>
      </trkpt>
      <trkpt lat="69.058023970574141" lon="19.446536041796207">
        <ele>153.94999999999999</ele>
        <time>2017-06-27T12:21:27Z</time>
      </trkpt>
      <trkpt lat="69.05784803442657" lon="19.44643503986299">
        <ele>154.43000000000001</ele>
        <time>2017-06-27T12:21:28Z</time>
      </trkpt>
      <trkpt lat="69.057663967832923" lon="19.446375025436282">
        <ele>155.38999999999999</ele>
        <time>2017-06-27T12:21:29Z</time>
      </trkpt>
      <trkpt lat="69.057475961744785" lon="19.446361027657986">
        <ele>156.34999999999999</ele>
        <time>2017-06-27T12:21:30Z</time>
      </trkpt>
      <trkpt lat="69.054104005917907" lon="19.446287015452981">
        <ele>158.75</ele>
        <time>2017-06-27T12:21:47Z</time>
      </trkpt>
      <trkpt lat="69.050860041752458" lon="19.446065984666348">
        <ele>152.99000000000001</ele>
        <time>2017-06-27T12:22:03Z</time>
      </trkpt>
      <trkpt lat="69.049741979688406" lon="19.445041967555881">
        <ele>145.30000000000001</ele>
        <time>2017-06-27T12:22:09Z</time>
      </trkpt>
      <trkpt lat="69.049138985574245" lon="19.444538969546556">
        <ele>142.88999999999999</ele>
        <time>2017-06-27T12:22:12Z</time>
      </trkpt>
      <trkpt lat="69.04893396422267" lon="19.444461017847061">
        <ele>143.37</ele>
        <time>2017-06-27T12:22:13Z</time>
      </trkpt>
      <trkpt lat="69.048731960356236" lon="19.444433022290468">
        <ele>144.34</ele>
        <time>2017-06-27T12:22:14Z</time>
      </trkpt>
      <trkpt lat="69.048530040308833" lon="19.444458000361919">
        <ele>145.78</ele>
        <time>2017-06-27T12:22:15Z</time>
      </trkpt>
      <trkpt lat="69.048334993422031" lon="19.444491025060415">
        <ele>146.74000000000001</ele>
        <time>2017-06-27T12:22:16Z</time>
      </trkpt>
      <trkpt lat="69.046686021611094" lon="19.44422397762537">
        <ele>143.37</ele>
        <time>2017-06-27T12:22:24Z</time>
      </trkpt>
      <trkpt lat="69.044484011828899" lon="19.442816991358995">
        <ele>137.61000000000001</ele>
        <time>2017-06-27T12:22:35Z</time>
      </trkpt>
      <trkpt lat="69.044161979109049" lon="19.442462017759681">
        <ele>133.75999999999999</ele>
        <time>2017-06-27T12:22:37Z</time>
      </trkpt>
      <trkpt lat="69.043997023254633" lon="19.442373001947999">
        <ele>132.80000000000001</ele>
        <time>2017-06-27T12:22:38Z</time>
      </trkpt>
      <trkpt lat="69.043830977752805" lon="19.442336037755013">
        <ele>131.36000000000001</ele>
        <time>2017-06-27T12:22:39Z</time>
      </trkpt>
      <trkpt lat="69.043667027726769" lon="19.442346012219787">
        <ele>130.40000000000001</ele>
        <time>2017-06-27T12:22:40Z</time>
      </trkpt>
      <trkpt lat="69.043503999710083" lon="19.44239798001945">
        <ele>129.43000000000001</ele>
        <time>2017-06-27T12:22:41Z</time>
      </trkpt>
      <trkpt lat="69.043350024148822" lon="19.442475009709597">
        <ele>129.43000000000001</ele>
        <time>2017-06-27T12:22:42Z</time>
      </trkpt>
      <trkpt lat="69.042163984850049" lon="19.442774998024106">
        <ele>124.15000000000001</ele>
        <time>2017-06-27T12:22:49Z</time>
      </trkpt>
      <trkpt lat="69.040566980838776" lon="19.443682003766298">
        <ele>115.01000000000001</ele>
        <time>2017-06-27T12:22:57Z</time>
      </trkpt>
      <trkpt lat="69.03928798623383" lon="19.444145020097494">
        <ele>121.26000000000001</ele>
        <time>2017-06-27T12:23:04Z</time>
      </trkpt>
      <trkpt lat="69.039128981530666" lon="19.444066984578967">
        <ele>121.73999999999999</ele>
        <time>2017-06-27T12:23:05Z</time>
      </trkpt>
      <trkpt lat="69.038978023454547" lon="19.443936981260777">
        <ele>123.19</ele>
        <time>2017-06-27T12:23:06Z</time>
      </trkpt>
      <trkpt lat="69.038832010701299" lon="19.443795997649431">
        <ele>123.67</ele>
        <time>2017-06-27T12:23:07Z</time>
      </trkpt>
      <trkpt lat="69.038693038746715" lon="19.443589970469475">
        <ele>123.67</ele>
        <time>2017-06-27T12:23:08Z</time>
      </trkpt>
      <trkpt lat="69.038557000458241" lon="19.443356031551957">
        <ele>123.67</ele>
        <time>2017-06-27T12:23:09Z</time>
      </trkpt>
      <trkpt lat="69.038037993013859" lon="19.442457994446158">
        <ele>119.81999999999999</ele>
        <time>2017-06-27T12:23:13Z</time>
      </trkpt>
      <trkpt lat="69.037900026887655" lon="19.44237501360476">
        <ele>119.81999999999999</ele>
        <time>2017-06-27T12:23:14Z</time>
      </trkpt>
      <trkpt lat="69.037767006084323" lon="19.442333020269871">
        <ele>119.81999999999999</ele>
        <time>2017-06-27T12:23:15Z</time>
      </trkpt>
      <trkpt lat="69.03763297945261" lon="19.44235104136169">
        <ele>119.81999999999999</ele>
        <time>2017-06-27T12:23:16Z</time>
      </trkpt>
      <trkpt lat="69.037494007498026" lon="19.442422036081553">
        <ele>120.3</ele>
        <time>2017-06-27T12:23:17Z</time>
      </trkpt>
      <trkpt lat="69.037346988916397" lon="19.44252597168088">
        <ele>120.3</ele>
        <time>2017-06-27T12:23:18Z</time>
      </trkpt>
      <trkpt lat="69.036115016788244" lon="19.44299996830523">
        <ele>115.01000000000001</ele>
        <time>2017-06-27T12:23:25Z</time>
      </trkpt>
      <trkpt lat="69.033895991742611" lon="19.443133994936943">
        <ele>111.17</ele>
        <time>2017-06-27T12:23:35Z</time>
      </trkpt>
      <trkpt lat="69.032616997137666" lon="19.442336037755013">
        <ele>111.17</ele>
        <time>2017-06-27T12:23:42Z</time>
      </trkpt>
      <trkpt lat="69.032448017969728" lon="19.442307036370039">
        <ele>111.65000000000001</ele>
        <time>2017-06-27T12:23:43Z</time>
      </trkpt>
      <trkpt lat="69.032279038801789" lon="19.44233201444149">
        <ele>112.61</ele>
        <time>2017-06-27T12:23:44Z</time>
      </trkpt>
      <trkpt lat="69.032108969986439" lon="19.44241801276803">
        <ele>113.56999999999999</ele>
        <time>2017-06-27T12:23:45Z</time>
      </trkpt>
      <trkpt lat="69.031942002475262" lon="19.442566959187388">
        <ele>114.05</ele>
        <time>2017-06-27T12:23:46Z</time>
      </trkpt>
      <trkpt lat="69.031773023307323" lon="19.442735016345978">
        <ele>114.05</ele>
        <time>2017-06-27T12:23:47Z</time>
      </trkpt>
      <trkpt lat="69.03069200925529" lon="19.443772025406361">
        <ele>106.84</ele>
        <time>2017-06-27T12:23:53Z</time>
      </trkpt>
      <trkpt lat="69.030513977631927" lon="19.443819969892502">
        <ele>105.40000000000001</ele>
        <time>2017-06-27T12:23:54Z</time>
      </trkpt>
      <trkpt lat="69.030333012342453" lon="19.443809995427728">
        <ele>104.92</ele>
        <time>2017-06-27T12:23:55Z</time>
      </trkpt>
      <trkpt lat="69.030152969062328" lon="19.443723997101188">
        <ele>103.48</ele>
        <time>2017-06-27T12:23:56Z</time>
      </trkpt>
      <trkpt lat="69.029965968802571" lon="19.443604974076152">
        <ele>102.04000000000001</ele>
        <time>2017-06-27T12:23:57Z</time>
      </trkpt>
      <trkpt lat="69.029772011563182" lon="19.443460972979665">
        <ele>100.59999999999999</ele>
        <time>2017-06-27T12:23:58Z</time>
      </trkpt>
      <trkpt lat="69.027978032827377" lon="19.442129004746675">
        <ele>92.900000000000006</ele>
        <time>2017-06-27T12:24:07Z</time>
      </trkpt>
      <trkpt lat="69.026469960808754" lon="19.441112028434873">
        <ele>88.099999999999994</ele>
        <time>2017-06-27T12:24:15Z</time>
      </trkpt>
      <trkpt lat="69.025189960375428" lon="19.441158967092633">
        <ele>89.060000000000002</ele>
        <time>2017-06-27T12:24:22Z</time>
      </trkpt>
      <trkpt lat="69.023766964673996" lon="19.442111989483237">
        <ele>87.140000000000001</ele>
        <time>2017-06-27T12:24:30Z</time>
      </trkpt>
      <trkpt lat="69.021972985938191" lon="19.443514030426741">
        <ele>81.849999999999994</ele>
        <time>2017-06-27T12:24:41Z</time>
      </trkpt>
      <trkpt lat="69.02044203132391" lon="19.444022979587317">
        <ele>79.930000000000007</ele>
        <time>2017-06-27T12:24:51Z</time>
      </trkpt>
      <trkpt lat="69.018313027918339" lon="19.444807022809982">
        <ele>80.409999999999997</ele>
        <time>2017-06-27T12:25:05Z</time>
      </trkpt>
      <trkpt lat="69.017709027975798" lon="19.445117991417646">
        <ele>78</ele>
        <time>2017-06-27T12:25:09Z</time>
      </trkpt>
      <trkpt lat="69.017556980252266" lon="19.445120003074408">
        <ele>78</ele>
        <time>2017-06-27T12:25:10Z</time>
      </trkpt>
      <trkpt lat="69.017401998862624" lon="19.445065017789602">
        <ele>78</ele>
        <time>2017-06-27T12:25:11Z</time>
      </trkpt>
      <trkpt lat="69.017250034958124" lon="19.444965021684766">
        <ele>78</ele>
        <time>2017-06-27T12:25:12Z</time>
      </trkpt>
      <trkpt lat="69.017102010548115" lon="19.444806016981602">
        <ele>78</ele>
        <time>2017-06-27T12:25:13Z</time>
      </trkpt>
      <trkpt lat="69.016958009451628" lon="19.444602001458406">
        <ele>78.480000000000004</ele>
        <time>2017-06-27T12:25:14Z</time>
      </trkpt>
      <trkpt lat="69.016819959506392" lon="19.444347023963928">
        <ele>78.480000000000004</ele>
        <time>2017-06-27T12:25:15Z</time>
      </trkpt>
      <trkpt lat="69.016696996986866" lon="19.444054998457432">
        <ele>78.480000000000004</ele>
        <time>2017-06-27T12:25:16Z</time>
      </trkpt>
      <trkpt lat="69.016588032245636" lon="19.443726008757949">
        <ele>78.480000000000004</ele>
        <time>2017-06-27T12:25:17Z</time>
      </trkpt>
      <trkpt lat="69.016503039747477" lon="19.443365000188351">
        <ele>77.519999999999996</ele>
        <time>2017-06-27T12:25:18Z</time>
      </trkpt>
      <trkpt lat="69.016436990350485" lon="19.442984964698553">
        <ele>76.560000000000002</ele>
        <time>2017-06-27T12:25:19Z</time>
      </trkpt>
      <trkpt lat="69.016386028379202" lon="19.442581040784717">
        <ele>76.079999999999998</ele>
        <time>2017-06-27T12:25:20Z</time>
      </trkpt>
      <trkpt lat="69.016351997852325" lon="19.442151971161366">
        <ele>75.599999999999994</ele>
        <time>2017-06-27T12:25:21Z</time>
      </trkpt>
      <trkpt lat="69.016341017559171" lon="19.441714016720653">
        <ele>73.680000000000007</ele>
        <time>2017-06-27T12:25:22Z</time>
      </trkpt>
      <trkpt lat="69.016341017559171" lon="19.441243959590793">
        <ele>73.200000000000003</ele>
        <time>2017-06-27T12:25:23Z</time>
      </trkpt>
      <trkpt lat="69.01635903865099" lon="19.440766023471951">
        <ele>73.200000000000003</ele>
        <time>2017-06-27T12:25:24Z</time>
      </trkpt>
      <trkpt lat="69.016398014500737" lon="19.44029001519084">
        <ele>73.680000000000007</ele>
        <time>2017-06-27T12:25:25Z</time>
      </trkpt>
      <trkpt lat="69.01644503697753" lon="19.43981702439487">
        <ele>73.200000000000003</ele>
        <time>2017-06-27T12:25:26Z</time>
      </trkpt>
      <trkpt lat="69.016500022262335" lon="19.439337998628616">
        <ele>73.200000000000003</ele>
        <time>2017-06-27T12:25:27Z</time>
      </trkpt>
      <trkpt lat="69.017328992486" lon="19.431940969079733">
        <ele>75.120000000000005</ele>
        <time>2017-06-27T12:25:42Z</time>
      </trkpt>
      <trkpt lat="69.017903991043568" lon="19.426159970462322">
        <ele>76.079999999999998</ele>
        <time>2017-06-27T12:25:53Z</time>
      </trkpt>
      <trkpt lat="69.017984960228205" lon="19.425113992765546">
        <ele>76.079999999999998</ele>
        <time>2017-06-27T12:25:55Z</time>
      </trkpt>
      <trkpt lat="69.018000969663262" lon="19.424582999199629">
        <ele>76.079999999999998</ele>
        <time>2017-06-27T12:25:56Z</time>
      </trkpt>
      <trkpt lat="69.018001975491643" lon="19.424044964835048">
        <ele>76.560000000000002</ele>
        <time>2017-06-27T12:25:57Z</time>
      </trkpt>
      <trkpt lat="69.017986971884966" lon="19.423505002632737">
        <ele>76.560000000000002</ele>
        <time>2017-06-27T12:25:58Z</time>
      </trkpt>
      <trkpt lat="69.017962999641895" lon="19.422970991581678">
        <ele>77.040000000000006</ele>
        <time>2017-06-27T12:25:59Z</time>
      </trkpt>
      <trkpt lat="69.017748003825545" lon="19.420066997408867">
        <ele>80.409999999999997</ele>
        <time>2017-06-27T12:26:06Z</time>
      </trkpt>
      <trkpt lat="69.017300996929407" lon="19.415918039157987">
        <ele>81.370000000000005</ele>
        <time>2017-06-27T12:26:17Z</time>
      </trkpt>
      <trkpt lat="69.016908975318074" lon="19.411523994058371">
        <ele>79.930000000000007</ele>
        <time>2017-06-27T12:26:29Z</time>
      </trkpt>
      <trkpt lat="69.016629019752145" lon="19.40574299544096">
        <ele>80.409999999999997</ele>
        <time>2017-06-27T12:26:43Z</time>
      </trkpt>
      <trkpt lat="69.016454005613923" lon="19.397953022271395">
        <ele>78</ele>
        <time>2017-06-27T12:27:00Z</time>
      </trkpt>
      <trkpt lat="69.01642500422895" lon="19.392665969207883">
        <ele>79.450000000000003</ele>
        <time>2017-06-27T12:27:10Z</time>
      </trkpt>
      <trkpt lat="69.016687022522092" lon="19.384976997971535">
        <ele>78</ele>
        <time>2017-06-27T12:27:23Z</time>
      </trkpt>
      <trkpt lat="69.017516998574138" lon="19.376583024859428">
        <ele>75.120000000000005</ele>
        <time>2017-06-27T12:27:38Z</time>
      </trkpt>
      <trkpt lat="69.018646040931344" lon="19.369535017758608">
        <ele>74.159999999999997</ele>
        <time>2017-06-27T12:27:51Z</time>
      </trkpt>
      <trkpt lat="69.01921902783215" lon="19.363906988874078">
        <ele>73.680000000000007</ele>
        <time>2017-06-27T12:28:01Z</time>
      </trkpt>
      <trkpt lat="69.019472999498248" lon="19.360677022486925">
        <ele>74.159999999999997</ele>
        <time>2017-06-27T12:28:07Z</time>
      </trkpt>
      <trkpt lat="69.019465958699584" lon="19.360179975628853">
        <ele>74.159999999999997</ele>
        <time>2017-06-27T12:28:08Z</time>
      </trkpt>
      <trkpt lat="69.019430000334978" lon="19.359690975397825">
        <ele>74.159999999999997</ele>
        <time>2017-06-27T12:28:09Z</time>
      </trkpt>
      <trkpt lat="69.019366968423128" lon="19.359203986823559">
        <ele>74.159999999999997</ele>
        <time>2017-06-27T12:28:10Z</time>
      </trkpt>
      <trkpt lat="69.019281975924969" lon="19.358727978542447">
        <ele>73.680000000000007</ele>
        <time>2017-06-27T12:28:11Z</time>
      </trkpt>
      <trkpt lat="69.0191750228405" lon="19.358249958604574">
        <ele>73.200000000000003</ele>
        <time>2017-06-27T12:28:12Z</time>
      </trkpt>
      <trkpt lat="69.019057005643845" lon="19.35776699334383">
        <ele>73.200000000000003</ele>
        <time>2017-06-27T12:28:13Z</time>
      </trkpt>
      <trkpt lat="69.017368974164128" lon="19.351630015298724">
        <ele>70.790000000000006</ele>
        <time>2017-06-27T12:28:26Z</time>
      </trkpt>
      <trkpt lat="69.015838019549847" lon="19.347842987626791">
        <ele>69.829999999999998</ele>
        <time>2017-06-27T12:28:36Z</time>
      </trkpt>
      <trkpt lat="69.015723019838333" lon="19.347490025684237">
        <ele>69.829999999999998</ele>
        <time>2017-06-27T12:28:37Z</time>
      </trkpt>
      <trkpt lat="69.015628974884748" lon="19.347108984366059">
        <ele>70.310000000000002</ele>
        <time>2017-06-27T12:28:38Z</time>
      </trkpt>
      <trkpt lat="69.015554962679744" lon="19.346707994118333">
        <ele>70.310000000000002</ele>
        <time>2017-06-27T12:28:39Z</time>
      </trkpt>
      <trkpt lat="69.0155019890517" lon="19.346283031627536">
        <ele>70.790000000000006</ele>
        <time>2017-06-27T12:28:40Z</time>
      </trkpt>
      <trkpt lat="69.015476005151868" lon="19.345832001417875">
        <ele>70.790000000000006</ele>
        <time>2017-06-27T12:28:41Z</time>
      </trkpt>
      <trkpt lat="69.015465024858713" lon="19.345360016450286">
        <ele>70.790000000000006</ele>
        <time>2017-06-27T12:28:42Z</time>
      </trkpt>
      <trkpt lat="69.015477010980248" lon="19.344862969592214">
        <ele>70.310000000000002</ele>
        <time>2017-06-27T12:28:43Z</time>
      </trkpt>
      <trkpt lat="69.015504000708461" lon="19.344358965754509">
        <ele>69.829999999999998</ele>
        <time>2017-06-27T12:28:44Z</time>
      </trkpt>
      <trkpt lat="69.015549011528492" lon="19.343853034079075">
        <ele>69.829999999999998</ele>
        <time>2017-06-27T12:28:45Z</time>
      </trkpt>
      <trkpt lat="69.015613971278071" lon="19.343346012756228">
        <ele>69.829999999999998</ele>
        <time>2017-06-27T12:28:46Z</time>
      </trkpt>
      <trkpt lat="69.015698041766882" lon="19.342859024181962">
        <ele>69.829999999999998</ele>
        <time>2017-06-27T12:28:47Z</time>
      </trkpt>
      <trkpt lat="69.01580398902297" lon="19.34236197732389">
        <ele>70.790000000000006</ele>
        <time>2017-06-27T12:28:48Z</time>
      </trkpt>
      <trkpt lat="69.015916977077723" lon="19.341880017891526">
        <ele>71.269999999999996</ele>
        <time>2017-06-27T12:28:49Z</time>
      </trkpt>
      <trkpt lat="69.017046019434929" lon="19.336316026747227">
        <ele>72.719999999999999</ele>
        <time>2017-06-27T12:29:00Z</time>
      </trkpt>
      <trkpt lat="69.017733000218868" lon="19.333044989034534">
        <ele>72.719999999999999</ele>
        <time>2017-06-27T12:29:07Z</time>
      </trkpt>
      <trkpt lat="69.017872978001833" lon="19.332702001556754">
        <ele>72.719999999999999</ele>
        <time>2017-06-27T12:29:08Z</time>
      </trkpt>
      <trkpt lat="69.018029971048236" lon="19.332395978271961">
        <ele>72.719999999999999</ele>
        <time>2017-06-27T12:29:09Z</time>
      </trkpt>
      <trkpt lat="69.018199034035206" lon="19.332136977463961">
        <ele>73.200000000000003</ele>
        <time>2017-06-27T12:29:10Z</time>
      </trkpt>
      <trkpt lat="69.018378993496299" lon="19.331902032718062">
        <ele>73.200000000000003</ele>
        <time>2017-06-27T12:29:11Z</time>
      </trkpt>
      <trkpt lat="69.019794026389718" lon="19.329525008797646">
        <ele>73.680000000000007</ele>
        <time>2017-06-27T12:29:19Z</time>
      </trkpt>
      <trkpt lat="69.020756017416716" lon="19.325976027175784">
        <ele>74.640000000000001</ele>
        <time>2017-06-27T12:29:27Z</time>
      </trkpt>
      <trkpt lat="69.021434029564261" lon="19.321141010150313">
        <ele>74.159999999999997</ele>
        <time>2017-06-27T12:29:37Z</time>
      </trkpt>
      <trkpt lat="69.02138801291585" lon="19.317634021863341">
        <ele>74.159999999999997</ele>
        <time>2017-06-27T12:29:44Z</time>
      </trkpt>
      <trkpt lat="69.020889960229397" lon="19.311802983283997">
        <ele>73.680000000000007</ele>
        <time>2017-06-27T12:29:55Z</time>
      </trkpt>
      <trkpt lat="69.020985011011362" lon="19.3052770011127">
        <ele>73.200000000000003</ele>
        <time>2017-06-27T12:30:07Z</time>
      </trkpt>
      <trkpt lat="69.02128198184073" lon="19.302145019173622">
        <ele>73.680000000000007</ele>
        <time>2017-06-27T12:30:14Z</time>
      </trkpt>
      <trkpt lat="69.021344007924199" lon="19.30179700255394">
        <ele>74.159999999999997</ele>
        <time>2017-06-27T12:30:15Z</time>
      </trkpt>
      <trkpt lat="69.021418020129204" lon="19.301466001197696">
        <ele>74.159999999999997</ele>
        <time>2017-06-27T12:30:16Z</time>
      </trkpt>
      <trkpt lat="69.021503012627363" lon="19.301159977912903">
        <ele>74.159999999999997</ele>
        <time>2017-06-27T12:30:17Z</time>
      </trkpt>
      <trkpt lat="69.021600997075438" lon="19.300893014296889">
        <ele>74.159999999999997</ele>
        <time>2017-06-27T12:30:18Z</time>
      </trkpt>
      <trkpt lat="69.02170903980732" lon="19.300663014873862">
        <ele>74.159999999999997</ele>
        <time>2017-06-27T12:30:19Z</time>
      </trkpt>
      <trkpt lat="69.021829990670085" lon="19.300454976037145">
        <ele>74.159999999999997</ele>
        <time>2017-06-27T12:30:20Z</time>
      </trkpt>
      <trkpt lat="69.021966028958559" lon="19.300291026011109">
        <ele>74.640000000000001</ele>
        <time>2017-06-27T12:30:21Z</time>
      </trkpt>
      <trkpt lat="69.022113969549537" lon="19.300175020471215">
        <ele>74.640000000000001</ele>
        <time>2017-06-27T12:30:22Z</time>
      </trkpt>
      <trkpt lat="69.022270040586591" lon="19.300102014094591">
        <ele>75.120000000000005</ele>
        <time>2017-06-27T12:30:23Z</time>
      </trkpt>
      <trkpt lat="69.022430973127484" lon="19.300047028809786">
        <ele>75.120000000000005</ele>
        <time>2017-06-27T12:30:24Z</time>
      </trkpt>
      <trkpt lat="69.02259198948741" lon="19.299966981634498">
        <ele>75.599999999999994</ele>
        <time>2017-06-27T12:30:25Z</time>
      </trkpt>
      <trkpt lat="69.022905975580215" lon="19.299690965563059">
        <ele>75.120000000000005</ele>
        <time>2017-06-27T12:30:27Z</time>
      </trkpt>
      <trkpt lat="69.023060034960508" lon="19.299517041072249">
        <ele>75.599999999999994</ele>
        <time>2017-06-27T12:30:28Z</time>
      </trkpt>
      <trkpt lat="69.023198001086712" lon="19.299300033599138">
        <ele>76.079999999999998</ele>
        <time>2017-06-27T12:30:29Z</time>
      </trkpt>
      <trkpt lat="69.023328004404902" lon="19.299053018912673">
        <ele>76.560000000000002</ele>
        <time>2017-06-27T12:30:30Z</time>
      </trkpt>
      <trkpt lat="69.023445015773177" lon="19.298783959820867">
        <ele>76.560000000000002</ele>
        <time>2017-06-27T12:30:31Z</time>
      </trkpt>
      <trkpt lat="69.023554986342788" lon="19.298490006476641">
        <ele>77.040000000000006</ele>
        <time>2017-06-27T12:30:32Z</time>
      </trkpt>
      <trkpt lat="69.023652970790863" lon="19.298198986798525">
        <ele>77.519999999999996</ele>
        <time>2017-06-27T12:30:33Z</time>
      </trkpt>
      <trkpt lat="69.02422696352005" lon="19.296751013025641">
        <ele>78.969999999999999</ele>
        <time>2017-06-27T12:30:40Z</time>
      </trkpt>
      <trkpt lat="69.024446988478303" lon="19.296358991414309">
        <ele>79.450000000000003</ele>
        <time>2017-06-27T12:30:44Z</time>
      </trkpt>
      <trkpt lat="69.024471966549754" lon="19.296253966167569">
        <ele>79.450000000000003</ele>
        <time>2017-06-27T12:30:45Z</time>
      </trkpt>
      <trkpt lat="69.024475989863276" lon="19.296118011698127">
        <ele>79.450000000000003</ele>
        <time>2017-06-27T12:30:46Z</time>
      </trkpt>
      <trkpt lat="69.02446199208498" lon="19.295973004773259">
        <ele>79.450000000000003</ele>
        <time>2017-06-27T12:30:47Z</time>
      </trkpt>
      <trkpt lat="69.024436008185148" lon="19.295816011726856">
        <ele>79.450000000000003</ele>
        <time>2017-06-27T12:30:48Z</time>
      </trkpt>
      <trkpt lat="69.02439896017313" lon="19.295638985931873">
        <ele>79.450000000000003</ele>
        <time>2017-06-27T12:30:49Z</time>
      </trkpt>
      <trkpt lat="69.024354033172131" lon="19.295447040349245">
        <ele>78.969999999999999</ele>
        <time>2017-06-27T12:30:50Z</time>
      </trkpt>
      <trkpt lat="69.024296030402184" lon="19.295259034261107">
        <ele>78.480000000000004</ele>
        <time>2017-06-27T12:30:51Z</time>
      </trkpt>
      <trkpt lat="69.024212965741754" lon="19.295088965445757">
        <ele>77.519999999999996</ele>
        <time>2017-06-27T12:30:52Z</time>
      </trkpt>
      <trkpt lat="69.024121016263962" lon="19.294957034289837">
        <ele>77.040000000000006</ele>
        <time>2017-06-27T12:30:53Z</time>
      </trkpt>
      <trkpt lat="69.024012973532081" lon="19.29483700543642">
        <ele>76.560000000000002</ele>
        <time>2017-06-27T12:30:54Z</time>
      </trkpt>
      <trkpt lat="69.023904008790851" lon="19.294744972139597">
        <ele>76.560000000000002</ele>
        <time>2017-06-27T12:30:55Z</time>
      </trkpt>
      <trkpt lat="69.023567978292704" lon="19.294329984113574">
        <ele>74.640000000000001</ele>
        <time>2017-06-27T12:30:58Z</time>
      </trkpt>
      <trkpt lat="69.023461025208235" lon="19.294123034924269">
        <ele>74.159999999999997</ele>
        <time>2017-06-27T12:30:59Z</time>
      </trkpt>
      <trkpt lat="69.023355999961495" lon="19.293896974995732">
        <ele>73.680000000000007</ele>
        <time>2017-06-27T12:31:00Z</time>
      </trkpt>
      <trkpt lat="69.023264972493052" lon="19.293651971966028">
        <ele>73.200000000000003</ele>
        <time>2017-06-27T12:31:01Z</time>
      </trkpt>
      <trkpt lat="69.023184003308415" lon="19.293372016400099">
        <ele>73.200000000000003</ele>
        <time>2017-06-27T12:31:02Z</time>
      </trkpt>
      <trkpt lat="69.023112002760172" lon="19.293082002550364">
        <ele>72.719999999999999</ele>
        <time>2017-06-27T12:31:03Z</time>
      </trkpt>
      <trkpt lat="69.023044025525451" lon="19.292763993144035">
        <ele>73.200000000000003</ele>
        <time>2017-06-27T12:31:04Z</time>
      </trkpt>
      <trkpt lat="69.022976970300078" lon="19.292453024536371">
        <ele>73.200000000000003</ele>
        <time>2017-06-27T12:31:05Z</time>
      </trkpt>
      <trkpt lat="69.021987989544868" lon="19.287461014464498">
        <ele>74.640000000000001</ele>
        <time>2017-06-27T12:31:20Z</time>
      </trkpt>
      <trkpt lat="69.021901991218328" lon="19.287169994786382">
        <ele>74.640000000000001</ele>
        <time>2017-06-27T12:31:21Z</time>
      </trkpt>
      <trkpt lat="69.021805012598634" lon="19.286909988150001">
        <ele>74.640000000000001</ele>
        <time>2017-06-27T12:31:22Z</time>
      </trkpt>
      <trkpt lat="69.021699987351894" lon="19.286678982898593">
        <ele>74.159999999999997</ele>
        <time>2017-06-27T12:31:23Z</time>
      </trkpt>
      <trkpt lat="69.021586999297142" lon="19.286481002345681">
        <ele>74.159999999999997</ele>
        <time>2017-06-27T12:31:24Z</time>
      </trkpt>
      <trkpt lat="69.021468982100487" lon="19.286314034834504">
        <ele>73.680000000000007</ele>
        <time>2017-06-27T12:31:25Z</time>
      </trkpt>
      <trkpt lat="69.020253019407392" lon="19.285006960853934">
        <ele>71.269999999999996</ele>
        <time>2017-06-27T12:31:34Z</time>
      </trkpt>
      <trkpt lat="69.019829984754324" lon="19.28469498641789">
        <ele>69.349999999999994</ele>
        <time>2017-06-27T12:31:40Z</time>
      </trkpt>
      <trkpt lat="69.019336039200425" lon="19.28433096036315">
        <ele>67.909999999999997</ele>
        <time>2017-06-27T12:31:49Z</time>
      </trkpt>
      <trkpt lat="69.018412018194795" lon="19.283636016771197">
        <ele>68.390000000000001</ele>
        <time>2017-06-27T12:31:56Z</time>
      </trkpt>
      <trkpt lat="69.016756005585194" lon="19.282370014116168">
        <ele>67.909999999999997</ele>
        <time>2017-06-27T12:32:07Z</time>
      </trkpt>
      <trkpt lat="69.015632998198271" lon="19.281531991437078">
        <ele>67.430000000000007</ele>
        <time>2017-06-27T12:32:17Z</time>
      </trkpt>
      <trkpt lat="69.014182006940246" lon="19.280346035957336">
        <ele>69.349999999999994</ele>
        <time>2017-06-27T12:32:29Z</time>
      </trkpt>
      <trkpt lat="69.012532029300928" lon="19.278482990339398">
        <ele>68.390000000000001</ele>
        <time>2017-06-27T12:32:41Z</time>
      </trkpt>
      <trkpt lat="69.010684993118048" lon="19.276609970256686">
        <ele>68.870000000000005</ele>
        <time>2017-06-27T12:32:51Z</time>
      </trkpt>
      <trkpt lat="69.00781100615859" lon="19.27541303448379">
        <ele>67.909999999999997</ele>
        <time>2017-06-27T12:33:05Z</time>
      </trkpt>
      <trkpt lat="69.006655979901552" lon="19.274626979604363">
        <ele>68.390000000000001</ele>
        <time>2017-06-27T12:33:11Z</time>
      </trkpt>
      <trkpt lat="69.006484989076853" lon="19.274380970746279">
        <ele>67.909999999999997</ele>
        <time>2017-06-27T12:33:12Z</time>
      </trkpt>
      <trkpt lat="69.0046969614923" lon="19.271304979920387">
        <ele>69.349999999999994</ele>
        <time>2017-06-27T12:33:23Z</time>
      </trkpt>
      <trkpt lat="69.004510967060924" lon="19.271112028509378">
        <ele>68.870000000000005</ele>
        <time>2017-06-27T12:33:24Z</time>
      </trkpt>
      <trkpt lat="69.003066010773182" lon="19.269486023113132">
        <ele>67.430000000000007</ele>
        <time>2017-06-27T12:33:32Z</time>
      </trkpt>
      <trkpt lat="69.001262979581952" lon="19.266632990911603">
        <ele>66.469999999999999</ele>
        <time>2017-06-27T12:33:43Z</time>
      </trkpt>
      <trkpt lat="68.999046972021461" lon="19.261484993621707">
        <ele>67.430000000000007</ele>
        <time>2017-06-27T12:33:58Z</time>
      </trkpt>
      <trkpt lat="68.997077979147434" lon="19.25502598285675">
        <ele>68.870000000000005</ele>
        <time>2017-06-27T12:34:14Z</time>
      </trkpt>
      <trkpt lat="68.996584033593535" lon="19.25182200036943">
        <ele>71.760000000000005</ele>
        <time>2017-06-27T12:34:22Z</time>
      </trkpt>
      <trkpt lat="68.996395021677017" lon="19.247063007205725">
        <ele>72.239999999999995</ele>
        <time>2017-06-27T12:34:31Z</time>
      </trkpt>
      <trkpt lat="68.996191006153822" lon="19.244313994422555">
        <ele>72.719999999999999</ele>
        <time>2017-06-27T12:34:37Z</time>
      </trkpt>
      <trkpt lat="68.996172985062003" lon="19.243910992518067">
        <ele>72.719999999999999</ele>
        <time>2017-06-27T12:34:38Z</time>
      </trkpt>
      <trkpt lat="68.996170973405242" lon="19.243487035855651">
        <ele>72.239999999999995</ele>
        <time>2017-06-27T12:34:39Z</time>
      </trkpt>
      <trkpt lat="68.996171979233623" lon="19.24211299046874">
        <ele>69.829999999999998</ele>
        <time>2017-06-27T12:34:42Z</time>
      </trkpt>
      <trkpt lat="68.996140966191888" lon="19.241632036864758">
        <ele>69.349999999999994</ele>
        <time>2017-06-27T12:34:43Z</time>
      </trkpt>
      <trkpt lat="68.996096039190888" lon="19.241146976128221">
        <ele>68.870000000000005</ele>
        <time>2017-06-27T12:34:44Z</time>
      </trkpt>
      <trkpt lat="68.996037030592561" lon="19.240654958412051">
        <ele>68.870000000000005</ele>
        <time>2017-06-27T12:34:45Z</time>
      </trkpt>
      <trkpt lat="68.995968969538808" lon="19.240172998979688">
        <ele>68.870000000000005</ele>
        <time>2017-06-27T12:34:46Z</time>
      </trkpt>
      <trkpt lat="68.995216023176908" lon="19.23519498668611">
        <ele>70.790000000000006</ele>
        <time>2017-06-27T12:34:56Z</time>
      </trkpt>
      <trkpt lat="68.994228970259428" lon="19.2293949611485">
        <ele>71.760000000000005</ele>
        <time>2017-06-27T12:35:07Z</time>
      </trkpt>
      <trkpt lat="68.993221968412399" lon="19.223520001396537">
        <ele>72.239999999999995</ele>
        <time>2017-06-27T12:35:18Z</time>
      </trkpt>
      <trkpt lat="68.992044981569052" lon="19.215933037921786">
        <ele>73.680000000000007</ele>
        <time>2017-06-27T12:35:32Z</time>
      </trkpt>
      <trkpt lat="68.991491021588445" lon="19.205986987799406">
        <ele>70.790000000000006</ele>
        <time>2017-06-27T12:35:48Z</time>
      </trkpt>
      <trkpt lat="68.991553969681263" lon="19.202302973717451">
        <ele>71.269999999999996</ele>
        <time>2017-06-27T12:35:55Z</time>
      </trkpt>
      <trkpt lat="68.992156963795424" lon="19.195471974089742">
        <ele>72.239999999999995</ele>
        <time>2017-06-27T12:36:07Z</time>
      </trkpt>
      <trkpt lat="68.993205036967993" lon="19.186813971027732">
        <ele>75.120000000000005</ele>
        <time>2017-06-27T12:36:22Z</time>
      </trkpt>
      <trkpt lat="68.994044987484813" lon="19.182522017508745">
        <ele>77.040000000000006</ele>
        <time>2017-06-27T12:36:31Z</time>
      </trkpt>
      <trkpt lat="68.99506900459528" lon="19.177659004926682">
        <ele>75.599999999999994</ele>
        <time>2017-06-27T12:36:42Z</time>
      </trkpt>
      <trkpt lat="68.995348960161209" lon="19.176297029480338">
        <ele>75.120000000000005</ele>
        <time>2017-06-27T12:36:46Z</time>
      </trkpt>
      <trkpt lat="68.99539103731513" lon="19.175963010638952">
        <ele>75.120000000000005</ele>
        <time>2017-06-27T12:36:47Z</time>
      </trkpt>
      <trkpt lat="68.995418027043343" lon="19.175611976534128">
        <ele>74.640000000000001</ele>
        <time>2017-06-27T12:36:48Z</time>
      </trkpt>
      <trkpt lat="68.99543596431613" lon="19.175235964357853">
        <ele>74.159999999999997</ele>
        <time>2017-06-27T12:36:49Z</time>
      </trkpt>
      <trkpt lat="68.995447028428316" lon="19.174844026565552">
        <ele>73.680000000000007</ele>
        <time>2017-06-27T12:36:50Z</time>
      </trkpt>
      <trkpt lat="68.995621036738157" lon="19.169860985130072">
        <ele>71.269999999999996</ele>
        <time>2017-06-27T12:37:01Z</time>
      </trkpt>
      <trkpt lat="68.99560796096921" lon="19.167209034785628">
        <ele>68.390000000000001</ele>
        <time>2017-06-27T12:37:07Z</time>
      </trkpt>
      <trkpt lat="68.995636040344834" lon="19.166846014559269">
        <ele>68.870000000000005</ele>
        <time>2017-06-27T12:37:08Z</time>
      </trkpt>
      <trkpt lat="68.995667975395918" lon="19.166485005989671">
        <ele>68.390000000000001</ele>
        <time>2017-06-27T12:37:09Z</time>
      </trkpt>
      <trkpt lat="68.996082041412592" lon="19.163676984608173">
        <ele>64.069999999999993</ele>
        <time>2017-06-27T12:37:16Z</time>
      </trkpt>
      <trkpt lat="68.997074039652944" lon="19.157876959070563">
        <ele>65.989999999999995</ele>
        <time>2017-06-27T12:37:29Z</time>
      </trkpt>
      <trkpt lat="68.997097006067634" lon="19.157427018508315">
        <ele>65.989999999999995</ele>
        <time>2017-06-27T12:37:30Z</time>
      </trkpt>
      <trkpt lat="68.997103041037917" lon="19.156958973035216">
        <ele>65.989999999999995</ele>
        <time>2017-06-27T12:37:31Z</time>
      </trkpt>
      <trkpt lat="68.997096000239253" lon="19.156485982239246">
        <ele>65.510000000000005</ele>
        <time>2017-06-27T12:37:32Z</time>
      </trkpt>
      <trkpt lat="68.997074039652944" lon="19.15602003224194">
        <ele>65.510000000000005</ele>
        <time>2017-06-27T12:37:33Z</time>
      </trkpt>
      <trkpt lat="68.997035985812545" lon="19.155552992597222">
        <ele>65.989999999999995</ele>
        <time>2017-06-27T12:37:34Z</time>
      </trkpt>
      <trkpt lat="68.99698200635612" lon="19.155092993751168">
        <ele>66.469999999999999</ele>
        <time>2017-06-27T12:37:35Z</time>
      </trkpt>
      <trkpt lat="68.99691503494978" lon="19.154632994905114">
        <ele>66.469999999999999</ele>
        <time>2017-06-27T12:37:36Z</time>
      </trkpt>
      <trkpt lat="68.996838005259633" lon="19.154182970523834">
        <ele>66.469999999999999</ele>
        <time>2017-06-27T12:37:37Z</time>
      </trkpt>
      <trkpt lat="68.99648898281157" lon="19.151376960799098">
        <ele>64.069999999999993</ele>
        <time>2017-06-27T12:37:43Z</time>
      </trkpt>
      <trkpt lat="68.996479008346796" lon="19.150921991094947">
        <ele>63.579999999999998</ele>
        <time>2017-06-27T12:37:44Z</time>
      </trkpt>
      <trkpt lat="68.996486971154809" lon="19.150489987805486">
        <ele>63.100000000000001</ele>
        <time>2017-06-27T12:37:45Z</time>
      </trkpt>
      <trkpt lat="68.996512033045292" lon="19.150086985900998">
        <ele>63.100000000000001</ele>
        <time>2017-06-27T12:37:46Z</time>
      </trkpt>
      <trkpt lat="68.996543968096375" lon="19.14970301091671">
        <ele>62.619999999999997</ele>
        <time>2017-06-27T12:37:47Z</time>
      </trkpt>
      <trkpt lat="68.997031040489674" lon="19.145586993545294">
        <ele>59.259999999999998</ele>
        <time>2017-06-27T12:37:57Z</time>
      </trkpt>
      <trkpt lat="68.997936034575105" lon="19.141543982550502">
        <ele>62.619999999999997</ele>
        <time>2017-06-27T12:38:08Z</time>
      </trkpt>
      <trkpt lat="68.998042987659574" lon="19.140384010970592">
        <ele>64.069999999999993</ele>
        <time>2017-06-27T12:38:11Z</time>
      </trkpt>
      <trkpt lat="68.998080035671592" lon="19.136917004361749">
        <ele>66.469999999999999</ele>
        <time>2017-06-27T12:38:19Z</time>
      </trkpt>
      <trkpt lat="68.998354040086269" lon="19.133649989962578">
        <ele>66.950000000000003</ele>
        <time>2017-06-27T12:38:27Z</time>
      </trkpt>
      <trkpt lat="68.999182004481554" lon="19.130283985286951">
        <ele>69.349999999999994</ele>
        <time>2017-06-27T12:38:36Z</time>
      </trkpt>
      <trkpt lat="69.000416994094849" lon="19.126544985920191">
        <ele>70.310000000000002</ele>
        <time>2017-06-27T12:38:46Z</time>
      </trkpt>
      <trkpt lat="69.002015003934503" lon="19.123330023139715">
        <ele>78.969999999999999</ele>
        <time>2017-06-27T12:38:57Z</time>
      </trkpt>
      <trkpt lat="69.002711037173867" lon="19.121032962575555">
        <ele>77.040000000000006</ele>
        <time>2017-06-27T12:39:03Z</time>
      </trkpt>
      <trkpt lat="69.002787983044982" lon="19.120559971779585">
        <ele>76.079999999999998</ele>
        <time>2017-06-27T12:39:04Z</time>
      </trkpt>
      <trkpt lat="69.003028962761164" lon="19.116884004324675">
        <ele>74.640000000000001</ele>
        <time>2017-06-27T12:39:11Z</time>
      </trkpt>
      <trkpt lat="69.003065004944801" lon="19.109605997800827">
        <ele>74.159999999999997</ele>
        <time>2017-06-27T12:39:24Z</time>
      </trkpt>
      <trkpt lat="69.003182016313076" lon="19.107645973563194">
        <ele>74.159999999999997</ele>
        <time>2017-06-27T12:39:28Z</time>
      </trkpt>
      <trkpt lat="69.003172041848302" lon="19.107151022180915">
        <ele>73.680000000000007</ele>
        <time>2017-06-27T12:39:29Z</time>
      </trkpt>
      <trkpt lat="69.003145974129438" lon="19.106656992807984">
        <ele>73.680000000000007</ele>
        <time>2017-06-27T12:39:30Z</time>
      </trkpt>
      <trkpt lat="69.003084031865001" lon="19.105173982679844">
        <ele>71.760000000000005</ele>
        <time>2017-06-27T12:39:33Z</time>
      </trkpt>
      <trkpt lat="69.003095012158155" lon="19.104684982448816">
        <ele>70.310000000000002</ele>
        <time>2017-06-27T12:39:34Z</time>
      </trkpt>
      <trkpt lat="69.003135999664664" lon="19.104200005531311">
        <ele>70.310000000000002</ele>
        <time>2017-06-27T12:39:35Z</time>
      </trkpt>
      <trkpt lat="69.003188973292708" lon="19.103715028613806">
        <ele>69.349999999999994</ele>
        <time>2017-06-27T12:39:36Z</time>
      </trkpt>
      <trkpt lat="69.003250999376178" lon="19.10323197953403">
        <ele>68.870000000000005</ele>
        <time>2017-06-27T12:39:37Z</time>
      </trkpt>
      <trkpt lat="69.004302006214857" lon="19.096029996871948">
        <ele>71.269999999999996</ele>
        <time>2017-06-27T12:39:51Z</time>
      </trkpt>
      <trkpt lat="69.004581039771438" lon="19.094202993437648">
        <ele>72.719999999999999</ele>
        <time>2017-06-27T12:39:55Z</time>
      </trkpt>
      <trkpt lat="69.004613980650902" lon="19.093753974884748">
        <ele>72.239999999999995</ele>
        <time>2017-06-27T12:39:56Z</time>
      </trkpt>
      <trkpt lat="69.004625966772437" lon="19.093280984088778">
        <ele>71.760000000000005</ele>
        <time>2017-06-27T12:39:57Z</time>
      </trkpt>
      <trkpt lat="69.004619009792805" lon="19.092799024656415">
        <ele>71.760000000000005</ele>
        <time>2017-06-27T12:39:58Z</time>
      </trkpt>
      <trkpt lat="69.004603000357747" lon="19.092290997505188">
        <ele>70.310000000000002</ele>
        <time>2017-06-27T12:39:59Z</time>
      </trkpt>
      <trkpt lat="69.004595037549734" lon="19.091770984232426">
        <ele>69.829999999999998</ele>
        <time>2017-06-27T12:40:00Z</time>
      </trkpt>
      <trkpt lat="69.004604006186128" lon="19.091245019808412">
        <ele>69.829999999999998</ele>
        <time>2017-06-27T12:40:01Z</time>
      </trkpt>
      <trkpt lat="69.004633007571101" lon="19.09072601236403">
        <ele>70.310000000000002</ele>
        <time>2017-06-27T12:40:02Z</time>
      </trkpt>
      <trkpt lat="69.005050007253885" lon="19.085612967610359">
        <ele>67.909999999999997</ele>
        <time>2017-06-27T12:40:11Z</time>
      </trkpt>
      <trkpt lat="69.005944021046162" lon="19.076536959037185">
        <ele>68.870000000000005</ele>
        <time>2017-06-27T12:40:27Z</time>
      </trkpt>
      <trkpt lat="69.006453976035118" lon="19.07205599360168">
        <ele>67.909999999999997</ele>
        <time>2017-06-27T12:40:35Z</time>
      </trkpt>
      <trkpt lat="69.006463028490543" lon="19.071445036679506">
        <ele>67.909999999999997</ele>
        <time>2017-06-27T12:40:36Z</time>
      </trkpt>
      <trkpt lat="69.006335958838463" lon="19.065533028915524">
        <ele>68.870000000000005</ele>
        <time>2017-06-27T12:40:46Z</time>
      </trkpt>
      <trkpt lat="69.006275022402406" lon="19.063823036849499">
        <ele>66.469999999999999</ele>
        <time>2017-06-27T12:40:49Z</time>
      </trkpt>
      <trkpt lat="69.006287008523941" lon="19.063250971958041">
        <ele>65.989999999999995</ele>
        <time>2017-06-27T12:40:50Z</time>
      </trkpt>
      <trkpt lat="69.006345011293888" lon="19.06107502989471">
        <ele>64.549999999999997</ele>
        <time>2017-06-27T12:40:54Z</time>
      </trkpt>
      <trkpt lat="69.006373006850481" lon="19.057807009667158">
        <ele>61.18</ele>
        <time>2017-06-27T12:41:00Z</time>
      </trkpt>
      <trkpt lat="69.006954962387681" lon="19.053889978677034">
        <ele>61.659999999999997</ele>
        <time>2017-06-27T12:41:07Z</time>
      </trkpt>
      <trkpt lat="69.007831960916519" lon="19.050731007009745">
        <ele>61.659999999999997</ele>
        <time>2017-06-27T12:41:14Z</time>
      </trkpt>
      <trkpt lat="69.00901498273015" lon="19.047868000343442">
        <ele>58.780000000000001</ele>
        <time>2017-06-27T12:41:22Z</time>
      </trkpt>
      <trkpt lat="69.009604984894395" lon="19.046585988253355">
        <ele>55.409999999999997</ele>
        <time>2017-06-27T12:41:26Z</time>
      </trkpt>
      <trkpt lat="69.009727025404572" lon="19.046240989118814">
        <ele>54.93</ele>
        <time>2017-06-27T12:41:27Z</time>
      </trkpt>
      <trkpt lat="69.00983196683228" lon="19.045856008306146">
        <ele>54.450000000000003</ele>
        <time>2017-06-27T12:41:28Z</time>
      </trkpt>
      <trkpt lat="69.010181995108724" lon="19.044136041775346">
        <ele>53.969999999999999</ele>
        <time>2017-06-27T12:41:32Z</time>
      </trkpt>
      <trkpt lat="69.010230023413897" lon="19.043687023222446">
        <ele>54.450000000000003</ele>
        <time>2017-06-27T12:41:33Z</time>
      </trkpt>
      <trkpt lat="69.01025801897049" lon="19.043212020769715">
        <ele>54.93</ele>
        <time>2017-06-27T12:41:34Z</time>
      </trkpt>
      <trkpt lat="69.010370001196861" lon="19.038296034559608">
        <ele>55.409999999999997</ele>
        <time>2017-06-27T12:41:43Z</time>
      </trkpt>
      <trkpt lat="69.010378969833255" lon="19.035136979073286">
        <ele>59.740000000000002</ele>
        <time>2017-06-27T12:41:49Z</time>
      </trkpt>
      <trkpt lat="69.010330019518733" lon="19.034646973013878">
        <ele>59.740000000000002</ele>
        <time>2017-06-27T12:41:50Z</time>
      </trkpt>
      <trkpt lat="69.01025801897049" lon="19.034163001924753">
        <ele>59.740000000000002</ele>
        <time>2017-06-27T12:41:51Z</time>
      </trkpt>
      <trkpt lat="69.009724007919431" lon="19.030419979244471">
        <ele>53.490000000000002</ele>
        <time>2017-06-27T12:41:58Z</time>
      </trkpt>
      <trkpt lat="69.00927197188139" lon="19.024059036746621">
        <ele>59.259999999999998</ele>
        <time>2017-06-27T12:42:09Z</time>
      </trkpt>
      <trkpt lat="69.009301979094744" lon="19.018956972286105">
        <ele>63.100000000000001</ele>
        <time>2017-06-27T12:42:18Z</time>
      </trkpt>
      <trkpt lat="69.009328968822956" lon="19.017961034551263">
        <ele>65.989999999999995</ele>
        <time>2017-06-27T12:42:20Z</time>
      </trkpt>
      <trkpt lat="69.009374985471368" lon="19.017452001571655">
        <ele>67.430000000000007</ele>
        <time>2017-06-27T12:42:21Z</time>
      </trkpt>
      <trkpt lat="69.009902961552143" lon="19.010983016341925">
        <ele>73.680000000000007</ele>
        <time>2017-06-27T12:42:33Z</time>
      </trkpt>
      <trkpt lat="69.010056015104055" lon="19.00886700488627">
        <ele>77.519999999999996</ele>
        <time>2017-06-27T12:42:38Z</time>
      </trkpt>
      <trkpt lat="69.010437978431582" lon="19.006083039566875">
        <ele>77.040000000000006</ele>
        <time>2017-06-27T12:42:45Z</time>
      </trkpt>
      <trkpt lat="69.010461028665304" lon="19.005685988813639">
        <ele>76.560000000000002</ele>
        <time>2017-06-27T12:42:46Z</time>
      </trkpt>
      <trkpt lat="69.010465973988175" lon="19.005266977474093">
        <ele>77.040000000000006</ele>
        <time>2017-06-27T12:42:47Z</time>
      </trkpt>
      <trkpt lat="69.010442001745105" lon="19.004852995276451">
        <ele>76.560000000000002</ele>
        <time>2017-06-27T12:42:48Z</time>
      </trkpt>
      <trkpt lat="69.010397996753454" lon="19.004434989765286">
        <ele>76.560000000000002</ele>
        <time>2017-06-27T12:42:49Z</time>
      </trkpt>
      <trkpt lat="69.010336976498365" lon="19.004007009789348">
        <ele>76.079999999999998</ele>
        <time>2017-06-27T12:42:50Z</time>
      </trkpt>
      <trkpt lat="69.009557962417603" lon="18.998739989474416">
        <ele>74.640000000000001</ele>
        <time>2017-06-27T12:43:01Z</time>
      </trkpt>
      <trkpt lat="69.008994027972221" lon="18.994313003495336">
        <ele>73.680000000000007</ele>
        <time>2017-06-27T12:43:10Z</time>
      </trkpt>
      <trkpt lat="69.008978018537164" lon="18.993778992444277">
        <ele>73.680000000000007</ele>
        <time>2017-06-27T12:43:11Z</time>
      </trkpt>
      <trkpt lat="69.008972989395261" lon="18.993234001100063">
        <ele>73.680000000000007</ele>
        <time>2017-06-27T12:43:12Z</time>
      </trkpt>
      <trkpt lat="69.009088994935155" lon="18.987313024699688">
        <ele>71.760000000000005</ele>
        <time>2017-06-27T12:43:22Z</time>
      </trkpt>
      <trkpt lat="69.009268032386899" lon="18.977148961275816">
        <ele>73.200000000000003</ele>
        <time>2017-06-27T12:43:38Z</time>
      </trkpt>
      <trkpt lat="69.009253028780222" lon="18.974056961014867">
        <ele>73.200000000000003</ele>
        <time>2017-06-27T12:43:43Z</time>
      </trkpt>
      <trkpt lat="69.009197959676385" lon="18.973620012402534">
        <ele>73.200000000000003</ele>
        <time>2017-06-27T12:43:44Z</time>
      </trkpt>
      <trkpt lat="69.009126964956522" lon="18.973252968862653">
        <ele>72.719999999999999</ele>
        <time>2017-06-27T12:43:45Z</time>
      </trkpt>
      <trkpt lat="69.009039038792253" lon="18.972930014133453">
        <ele>72.719999999999999</ele>
        <time>2017-06-27T12:43:46Z</time>
      </trkpt>
      <trkpt lat="69.008930996060371" lon="18.972616028040648">
        <ele>72.719999999999999</ele>
        <time>2017-06-27T12:43:47Z</time>
      </trkpt>
      <trkpt lat="69.007655018940568" lon="18.969100993126631">
        <ele>68.870000000000005</ele>
        <time>2017-06-27T12:43:58Z</time>
      </trkpt>
      <trkpt lat="69.007412027567625" lon="18.968437984585762">
        <ele>66.950000000000003</ele>
        <time>2017-06-27T12:44:00Z</time>
      </trkpt>
      <trkpt lat="69.007310019806027" lon="18.968055015429854">
        <ele>65.510000000000005</ele>
        <time>2017-06-27T12:44:01Z</time>
      </trkpt>
      <trkpt lat="69.007227960973978" lon="18.96761798299849">
        <ele>64.549999999999997</ele>
        <time>2017-06-27T12:44:02Z</time>
      </trkpt>
      <trkpt lat="69.007167024537921" lon="18.967130994424224">
        <ele>64.069999999999993</ele>
        <time>2017-06-27T12:44:03Z</time>
      </trkpt>
      <trkpt lat="69.007124025374651" lon="18.966616010293365">
        <ele>63.579999999999998</ele>
        <time>2017-06-27T12:44:04Z</time>
      </trkpt>
      <trkpt lat="69.007087983191013" lon="18.966075964272022">
        <ele>62.619999999999997</ele>
        <time>2017-06-27T12:44:05Z</time>
      </trkpt>
      <trkpt lat="69.006948005408049" lon="18.964038994163275">
        <ele>57.340000000000003</ele>
        <time>2017-06-27T12:44:09Z</time>
      </trkpt>
      <trkpt lat="69.006944987922907" lon="18.963574972003698">
        <ele>55.890000000000001</ele>
        <time>2017-06-27T12:44:10Z</time>
      </trkpt>
      <trkpt lat="69.006967032328248" lon="18.963120002299547">
        <ele>54.450000000000003</ele>
        <time>2017-06-27T12:44:11Z</time>
      </trkpt>
      <trkpt lat="69.00701598264277" lon="18.96269503980875">
        <ele>53.490000000000002</ele>
        <time>2017-06-27T12:44:12Z</time>
      </trkpt>
      <trkpt lat="69.007092006504536" lon="18.962292037904263">
        <ele>52.049999999999997</ele>
        <time>2017-06-27T12:44:13Z</time>
      </trkpt>
      <trkpt lat="69.00718797929585" lon="18.961889035999775">
        <ele>50.609999999999999</ele>
        <time>2017-06-27T12:44:14Z</time>
      </trkpt>
      <trkpt lat="69.007298033684492" lon="18.96147295832634">
        <ele>49.649999999999999</ele>
        <time>2017-06-27T12:44:15Z</time>
      </trkpt>
      <trkpt lat="69.008651962503791" lon="18.956558983772993">
        <ele>48.200000000000003</ele>
        <time>2017-06-27T12:44:26Z</time>
      </trkpt>
      <trkpt lat="69.009905979037285" lon="18.953026011586189">
        <ele>48.200000000000003</ele>
        <time>2017-06-27T12:44:36Z</time>
      </trkpt>
      <trkpt lat="69.010268999263644" lon="18.951983973383904">
        <ele>45.32</ele>
        <time>2017-06-27T12:44:39Z</time>
      </trkpt>
      <trkpt lat="69.010365977883339" lon="18.951562028378248">
        <ele>44.359999999999999</ele>
        <time>2017-06-27T12:44:40Z</time>
      </trkpt>
      <trkpt lat="69.010449964553118" lon="18.951114015653729">
        <ele>43.399999999999999</ele>
        <time>2017-06-27T12:44:41Z</time>
      </trkpt>
      <trkpt lat="69.010519031435251" lon="18.950640019029379">
        <ele>42.439999999999998</ele>
        <time>2017-06-27T12:44:42Z</time>
      </trkpt>
      <trkpt lat="69.010575022548437" lon="18.950142972171307">
        <ele>41.950000000000003</ele>
        <time>2017-06-27T12:44:43Z</time>
      </trkpt>
      <trkpt lat="69.010608969256282" lon="18.949621031060815">
        <ele>40.990000000000002</ele>
        <time>2017-06-27T12:44:44Z</time>
      </trkpt>
      <trkpt lat="69.010635958984494" lon="18.949081990867853">
        <ele>40.990000000000002</ele>
        <time>2017-06-27T12:44:45Z</time>
      </trkpt>
      <trkpt lat="69.010749030858278" lon="18.944287039339542">
        <ele>39.549999999999997</ele>
        <time>2017-06-27T12:44:54Z</time>
      </trkpt>
      <trkpt lat="69.010724974796176" lon="18.943839026615024">
        <ele>40.509999999999998</ele>
        <time>2017-06-27T12:44:55Z</time>
      </trkpt>
      <trkpt lat="69.010677030310035" lon="18.94340300001204">
        <ele>41.469999999999999</ele>
        <time>2017-06-27T12:44:56Z</time>
      </trkpt>
      <trkpt lat="69.010464968159795" lon="18.94172896631062">
        <ele>47.240000000000002</ele>
        <time>2017-06-27T12:45:00Z</time>
      </trkpt>
      <trkpt lat="69.010445019230247" lon="18.941316995769739">
        <ele>47.719999999999999</ele>
        <time>2017-06-27T12:45:01Z</time>
      </trkpt>
      <trkpt lat="69.010439990088344" lon="18.940893961116672">
        <ele>47.719999999999999</ele>
        <time>2017-06-27T12:45:02Z</time>
      </trkpt>
      <trkpt lat="69.010446025058627" lon="18.940449971705675">
        <ele>47.240000000000002</ele>
        <time>2017-06-27T12:45:03Z</time>
      </trkpt>
      <trkpt lat="69.010460022836924" lon="18.93998603336513">
        <ele>46.759999999999998</ele>
        <time>2017-06-27T12:45:04Z</time>
      </trkpt>
      <trkpt lat="69.010644005611539" lon="18.934746002778411">
        <ele>43.399999999999999</ele>
        <time>2017-06-27T12:45:15Z</time>
      </trkpt>
      <trkpt lat="69.010736960917711" lon="18.933752998709679">
        <ele>40.990000000000002</ele>
        <time>2017-06-27T12:45:17Z</time>
      </trkpt>
      <trkpt lat="69.010809967294335" lon="18.933257041499019">
        <ele>40.509999999999998</ele>
        <time>2017-06-27T12:45:18Z</time>
      </trkpt>
      <trkpt lat="69.011863991618156" lon="18.927616020664573">
        <ele>34.740000000000002</ele>
        <time>2017-06-27T12:45:30Z</time>
      </trkpt>
      <trkpt lat="69.013414978981018" lon="18.919169995933771">
        <ele>33.299999999999997</ele>
        <time>2017-06-27T12:45:50Z</time>
      </trkpt>
      <trkpt lat="69.014560030773282" lon="18.913956033065915">
        <ele>34.259999999999998</ele>
        <time>2017-06-27T12:46:03Z</time>
      </trkpt>
      <trkpt lat="69.016071958467364" lon="18.908659005537629">
        <ele>34.740000000000002</ele>
        <time>2017-06-27T12:46:18Z</time>
      </trkpt>
      <trkpt lat="69.01629600673914" lon="18.907703971490264">
        <ele>36.670000000000002</ele>
        <time>2017-06-27T12:46:21Z</time>
      </trkpt>
      <trkpt lat="69.016389967873693" lon="18.907474977895617">
        <ele>37.630000000000003</ele>
        <time>2017-06-27T12:46:22Z</time>
      </trkpt>
      <trkpt lat="69.016498010605574" lon="18.907284960150719">
        <ele>38.109999999999999</ele>
        <time>2017-06-27T12:46:23Z</time>
      </trkpt>
      <trkpt lat="69.016616027802229" lon="18.907127967104316">
        <ele>38.590000000000003</ele>
        <time>2017-06-27T12:46:24Z</time>
      </trkpt>
      <trkpt lat="69.016744019463658" lon="18.906980026513338">
        <ele>39.07</ele>
        <time>2017-06-27T12:46:25Z</time>
      </trkpt>
      <trkpt lat="69.018656015396118" lon="18.904476016759872">
        <ele>37.630000000000003</ele>
        <time>2017-06-27T12:46:39Z</time>
      </trkpt>
      <trkpt lat="69.019538965076208" lon="18.903245972469449">
        <ele>36.189999999999998</ele>
        <time>2017-06-27T12:46:46Z</time>
      </trkpt>
      <trkpt lat="69.019633010029793" lon="18.903042962774634">
        <ele>36.189999999999998</ele>
        <time>2017-06-27T12:46:47Z</time>
      </trkpt>
      <trkpt lat="69.019711967557669" lon="18.902810029685497">
        <ele>36.189999999999998</ele>
        <time>2017-06-27T12:46:48Z</time>
      </trkpt>
      <trkpt lat="69.019780028611422" lon="18.902543988078833">
        <ele>36.189999999999998</ele>
        <time>2017-06-27T12:46:49Z</time>
      </trkpt>
      <trkpt lat="69.019839959219098" lon="18.902246011421084">
        <ele>35.229999999999997</ele>
        <time>2017-06-27T12:46:50Z</time>
      </trkpt>
      <trkpt lat="69.019887987524271" lon="18.901923978701234">
        <ele>34.740000000000002</ele>
        <time>2017-06-27T12:46:51Z</time>
      </trkpt>
      <trkpt lat="69.019927969202399" lon="18.901575962081552">
        <ele>34.740000000000002</ele>
        <time>2017-06-27T12:46:52Z</time>
      </trkpt>
      <trkpt lat="69.019963005557656" lon="18.901219982653856">
        <ele>35.229999999999997</ele>
        <time>2017-06-27T12:46:53Z</time>
      </trkpt>
      <trkpt lat="69.02016500942409" lon="18.898480022326112">
        <ele>37.149999999999999</ele>
        <time>2017-06-27T12:47:02Z</time>
      </trkpt>
      <trkpt lat="69.020156040787697" lon="18.898286987096071">
        <ele>36.670000000000002</ele>
        <time>2017-06-27T12:47:03Z</time>
      </trkpt>
      <trkpt lat="69.020129973068833" lon="18.898130999878049">
        <ele>36.670000000000002</ele>
        <time>2017-06-27T12:47:04Z</time>
      </trkpt>
      <trkpt lat="69.020084962248802" lon="18.898020023480058">
        <ele>36.670000000000002</ele>
        <time>2017-06-27T12:47:05Z</time>
      </trkpt>
      <trkpt lat="69.020030982792377" lon="18.897960009053349">
        <ele>36.670000000000002</ele>
        <time>2017-06-27T12:47:06Z</time>
      </trkpt>
      <trkpt lat="69.019961999729276" lon="18.897937964648008">
        <ele>36.670000000000002</ele>
        <time>2017-06-27T12:47:07Z</time>
      </trkpt>
      <trkpt lat="69.019879018887877" lon="18.897910974919796">
        <ele>36.189999999999998</ele>
        <time>2017-06-27T12:47:08Z</time>
      </trkpt>
      <trkpt lat="69.019695036113262" lon="18.897793041542172">
        <ele>36.189999999999998</ele>
        <time>2017-06-27T12:47:10Z</time>
      </trkpt>
      <trkpt lat="69.018672024831176" lon="18.896622005850077">
        <ele>36.189999999999998</ele>
        <time>2017-06-27T12:47:19Z</time>
      </trkpt>
      <trkpt lat="69.017105028033257" lon="18.89473901130259">
        <ele>32.340000000000003</ele>
        <time>2017-06-27T12:47:29Z</time>
      </trkpt>
      <trkpt lat="69.014695985242724" lon="18.891800986602902">
        <ele>32.340000000000003</ele>
        <time>2017-06-27T12:47:42Z</time>
      </trkpt>
      <trkpt lat="69.012040011584759" lon="18.88867998495698">
        <ele>31.859999999999999</ele>
        <time>2017-06-27T12:47:56Z</time>
      </trkpt>
      <trkpt lat="69.011855022981763" lon="18.888580994680524">
        <ele>31.859999999999999</ele>
        <time>2017-06-27T12:47:57Z</time>
      </trkpt>
      <trkpt lat="69.011666011065245" lon="18.888527015224099">
        <ele>31.859999999999999</ele>
        <time>2017-06-27T12:47:58Z</time>
      </trkpt>
      <trkpt lat="69.011475993320346" lon="18.888542018830776">
        <ele>32.340000000000003</ele>
        <time>2017-06-27T12:47:59Z</time>
      </trkpt>
      <trkpt lat="69.011280024424195" lon="18.888598009943962">
        <ele>32.340000000000003</ele>
        <time>2017-06-27T12:48:00Z</time>
      </trkpt>
      <trkpt lat="69.011081960052252" lon="18.888684008270502">
        <ele>32.340000000000003</ele>
        <time>2017-06-27T12:48:01Z</time>
      </trkpt>
      <trkpt lat="69.009073991328478" lon="18.889773990958929">
        <ele>52.049999999999997</ele>
        <time>2017-06-27T12:48:12Z</time>
      </trkpt>
      <trkpt lat="69.008933007717133" lon="18.889942970126867">
        <ele>53.009999999999998</ele>
        <time>2017-06-27T12:48:13Z</time>
      </trkpt>
      <trkpt lat="69.008795963600278" lon="18.890164000913501">
        <ele>55.409999999999997</ele>
        <time>2017-06-27T12:48:14Z</time>
      </trkpt>
      <trkpt lat="69.008665960282087" lon="18.890421995893121">
        <ele>56.369999999999997</ele>
        <time>2017-06-27T12:48:15Z</time>
      </trkpt>
      <trkpt lat="69.008536040782928" lon="18.890701029449701">
        <ele>57.82</ele>
        <time>2017-06-27T12:48:16Z</time>
      </trkpt>
      <trkpt lat="69.006805010139942" lon="18.893904006108642">
        <ele>60.700000000000003</ele>
        <time>2017-06-27T12:48:28Z</time>
      </trkpt>
      <trkpt lat="69.006192041561007" lon="18.894563997164369">
        <ele>60.219999999999999</ele>
        <time>2017-06-27T12:48:33Z</time>
      </trkpt>
      <trkpt lat="69.006119035184383" lon="18.894574977457523">
        <ele>60.219999999999999</ele>
        <time>2017-06-27T12:48:34Z</time>
      </trkpt>
      <trkpt lat="69.006065977737308" lon="18.894534995779395">
        <ele>60.219999999999999</ele>
        <time>2017-06-27T12:48:35Z</time>
      </trkpt>
      <trkpt lat="69.00602800771594" lon="18.894448997452855">
        <ele>59.740000000000002</ele>
        <time>2017-06-27T12:48:36Z</time>
      </trkpt>
      <trkpt lat="69.005986014381051" lon="18.894327040761709">
        <ele>59.259999999999998</ele>
        <time>2017-06-27T12:48:37Z</time>
      </trkpt>
      <trkpt lat="69.005950978025794" lon="18.894145991653204">
        <ele>59.259999999999998</ele>
        <time>2017-06-27T12:48:38Z</time>
      </trkpt>
      <trkpt lat="69.005934968590736" lon="18.893904006108642">
        <ele>58.299999999999997</ele>
        <time>2017-06-27T12:48:39Z</time>
      </trkpt>
      <trkpt lat="69.005922982469201" lon="18.893618015572429">
        <ele>57.82</ele>
        <time>2017-06-27T12:48:40Z</time>
      </trkpt>
      <trkpt lat="69.005916025489569" lon="18.893294977024198">
        <ele>57.340000000000003</ele>
        <time>2017-06-27T12:48:41Z</time>
      </trkpt>
      <trkpt lat="69.005913008004427" lon="18.892928017303348">
        <ele>56.859999999999999</ele>
        <time>2017-06-27T12:48:42Z</time>
      </trkpt>
      <trkpt lat="69.005892975255847" lon="18.889144007116556">
        <ele>55.890000000000001</ele>
        <time>2017-06-27T12:48:50Z</time>
      </trkpt>
      <trkpt lat="69.005835978314281" lon="18.88257603161037">
        <ele>53.969999999999999</ele>
        <time>2017-06-27T12:49:01Z</time>
      </trkpt>
      <trkpt lat="69.005760960280895" lon="18.87284598313272">
        <ele>52.530000000000001</ele>
        <time>2017-06-27T12:49:15Z</time>
      </trkpt>
      <trkpt lat="69.005654007196426" lon="18.861049041152">
        <ele>53.009999999999998</ele>
        <time>2017-06-27T12:49:31Z</time>
      </trkpt>
      <trkpt lat="69.005734976381063" lon="18.854265986010432">
        <ele>53.009999999999998</ele>
        <time>2017-06-27T12:49:41Z</time>
      </trkpt>
      <trkpt lat="69.005803959444165" lon="18.853651005774736">
        <ele>53.009999999999998</ele>
        <time>2017-06-27T12:49:42Z</time>
      </trkpt>
      <trkpt lat="69.00589901022613" lon="18.853053962811828">
        <ele>54.450000000000003</ele>
        <time>2017-06-27T12:49:43Z</time>
      </trkpt>
      <trkpt lat="69.00600696913898" lon="18.852473013103008">
        <ele>54.93</ele>
        <time>2017-06-27T12:49:44Z</time>
      </trkpt>
      <trkpt lat="69.006130015477538" lon="18.851916035637259">
        <ele>54.93</ele>
        <time>2017-06-27T12:49:45Z</time>
      </trkpt>
      <trkpt lat="69.00695102289319" lon="18.849158976227045">
        <ele>48.68</ele>
        <time>2017-06-27T12:49:51Z</time>
      </trkpt>
      <trkpt lat="69.007429964840412" lon="18.847378995269537">
        <ele>40.030000000000001</ele>
        <time>2017-06-27T12:49:55Z</time>
      </trkpt>
      <trkpt lat="69.007524009793997" lon="18.846853030845523">
        <ele>38.109999999999999</ele>
        <time>2017-06-27T12:49:56Z</time>
      </trkpt>
      <trkpt lat="69.007602967321873" lon="18.846285995095968">
        <ele>35.229999999999997</ele>
        <time>2017-06-27T12:49:57Z</time>
      </trkpt>
      <trkpt lat="69.008265975862741" lon="18.840052960440516">
        <ele>28.98</ele>
        <time>2017-06-27T12:50:07Z</time>
      </trkpt>
      <trkpt lat="69.008918004110456" lon="18.833461012691259">
        <ele>28.98</ele>
        <time>2017-06-27T12:50:18Z</time>
      </trkpt>
      <trkpt lat="69.008920015767217" lon="18.832933036610484">
        <ele>29.460000000000001</ele>
        <time>2017-06-27T12:50:19Z</time>
      </trkpt>
      <trkpt lat="69.008901994675398" lon="18.832370024174452">
        <ele>29.460000000000001</ele>
        <time>2017-06-27T12:50:20Z</time>
      </trkpt>
      <trkpt lat="69.008651962503791" lon="18.828257024288177">
        <ele>28.98</ele>
        <time>2017-06-27T12:50:27Z</time>
      </trkpt>
      <trkpt lat="69.008587002754211" lon="18.827736005187035">
        <ele>28.5</ele>
        <time>2017-06-27T12:50:28Z</time>
      </trkpt>
      <trkpt lat="69.008505027741194" lon="18.827235018834472">
        <ele>28.5</ele>
        <time>2017-06-27T12:50:29Z</time>
      </trkpt>
      <trkpt lat="69.008403019979596" lon="18.826758004724979">
        <ele>28.5</ele>
        <time>2017-06-27T12:50:30Z</time>
      </trkpt>
      <trkpt lat="69.008280979469419" lon="18.826321978121996">
        <ele>28.98</ele>
        <time>2017-06-27T12:50:31Z</time>
      </trkpt>
      <trkpt lat="69.008139995858073" lon="18.825928028672934">
        <ele>28.98</ele>
        <time>2017-06-27T12:50:32Z</time>
      </trkpt>
      <trkpt lat="69.00798199698329" lon="18.825585041195154">
        <ele>29.460000000000001</ele>
        <time>2017-06-27T12:50:33Z</time>
      </trkpt>
      <trkpt lat="69.007812011986971" lon="18.825278012081981">
        <ele>30.899999999999999</ele>
        <time>2017-06-27T12:50:34Z</time>
      </trkpt>
      <trkpt lat="69.007630962878466" lon="18.825009036809206">
        <ele>32.340000000000003</ele>
        <time>2017-06-27T12:50:35Z</time>
      </trkpt>
      <trkpt lat="69.006798975169659" lon="18.82362199947238">
        <ele>36.189999999999998</ele>
        <time>2017-06-27T12:50:40Z</time>
      </trkpt>
      <trkpt lat="69.006689004600048" lon="18.823318993672729">
        <ele>37.149999999999999</ele>
        <time>2017-06-27T12:50:41Z</time>
      </trkpt>
      <trkpt lat="69.006605017930269" lon="18.822990003973246">
        <ele>37.630000000000003</ele>
        <time>2017-06-27T12:50:42Z</time>
      </trkpt>
      <trkpt lat="69.0065429918468" lon="18.82263402454555">
        <ele>38.590000000000003</ele>
        <time>2017-06-27T12:50:43Z</time>
      </trkpt>
      <trkpt lat="69.00649999268353" lon="18.822250971570611">
        <ele>38.590000000000003</ele>
        <time>2017-06-27T12:50:44Z</time>
      </trkpt>
      <trkpt lat="69.006467973813415" lon="18.821830032393336">
        <ele>39.07</ele>
        <time>2017-06-27T12:50:45Z</time>
      </trkpt>
      <trkpt lat="69.006447019055486" lon="18.821387970820069">
        <ele>40.030000000000001</ele>
        <time>2017-06-27T12:50:46Z</time>
      </trkpt>
      <trkpt lat="69.006438972428441" lon="18.820926966145635">
        <ele>40.509999999999998</ele>
        <time>2017-06-27T12:50:47Z</time>
      </trkpt>
      <trkpt lat="69.006441989913583" lon="18.820441989228129">
        <ele>41.950000000000003</ele>
        <time>2017-06-27T12:50:48Z</time>
      </trkpt>
      <trkpt lat="69.006454981863499" lon="18.81994997151196">
        <ele>42.920000000000002</ele>
        <time>2017-06-27T12:50:49Z</time>
      </trkpt>
      <trkpt lat="69.006442995741963" lon="18.8184869941324">
        <ele>46.759999999999998</ele>
        <time>2017-06-27T12:50:52Z</time>
      </trkpt>
      <trkpt lat="69.006410976871848" lon="18.817995982244611">
        <ele>48.68</ele>
        <time>2017-06-27T12:50:53Z</time>
      </trkpt>
      <trkpt lat="69.006358003243804" lon="18.817528020590544">
        <ele>50.130000000000003</ele>
        <time>2017-06-27T12:50:54Z</time>
      </trkpt>
      <trkpt lat="69.006273010745645" lon="18.816620009019971">
        <ele>51.57</ele>
        <time>2017-06-27T12:50:56Z</time>
      </trkpt>
      <trkpt lat="69.006260018795729" lon="18.816176019608974">
        <ele>52.049999999999997</ele>
        <time>2017-06-27T12:50:57Z</time>
      </trkpt>
      <trkpt lat="69.00626596994698" lon="18.815728006884456">
        <ele>52.049999999999997</ele>
        <time>2017-06-27T12:50:58Z</time>
      </trkpt>
      <trkpt lat="69.006298994645476" lon="18.815268008038402">
        <ele>52.530000000000001</ele>
        <time>2017-06-27T12:50:59Z</time>
      </trkpt>
      <trkpt lat="69.00634802877903" lon="18.814796023070812">
        <ele>52.049999999999997</ele>
        <time>2017-06-27T12:51:00Z</time>
      </trkpt>
      <trkpt lat="69.00641500018537" lon="18.814335018396378">
        <ele>52.530000000000001</ele>
        <time>2017-06-27T12:51:01Z</time>
      </trkpt>
      <trkpt lat="69.006502004340291" lon="18.81386898458004">
        <ele>54.450000000000003</ele>
        <time>2017-06-27T12:51:02Z</time>
      </trkpt>
      <trkpt lat="69.006591020151973" lon="18.813406974077225">
        <ele>55.409999999999997</ele>
        <time>2017-06-27T12:51:03Z</time>
      </trkpt>
      <trkpt lat="69.007108015939593" lon="18.809233037754893">
        <ele>53.969999999999999</ele>
        <time>2017-06-27T12:51:11Z</time>
      </trkpt>
      <trkpt lat="69.007256040349603" lon="18.804047992452979">
        <ele>57.82</ele>
        <time>2017-06-27T12:51:20Z</time>
      </trkpt>
      <trkpt lat="69.007319994270802" lon="18.803537031635642">
        <ele>57.82</ele>
        <time>2017-06-27T12:51:21Z</time>
      </trkpt>
      <trkpt lat="69.007410015910864" lon="18.803057000041008">
        <ele>57.82</ele>
        <time>2017-06-27T12:51:22Z</time>
      </trkpt>
      <trkpt lat="69.007518980652094" lon="18.802594989538193">
        <ele>58.780000000000001</ele>
        <time>2017-06-27T12:51:23Z</time>
      </trkpt>
      <trkpt lat="69.007636997848749" lon="18.802127027884126">
        <ele>59.740000000000002</ele>
        <time>2017-06-27T12:51:24Z</time>
      </trkpt>
      <trkpt lat="69.008666966110468" lon="18.798159034922719">
        <ele>60.700000000000003</ele>
        <time>2017-06-27T12:51:32Z</time>
      </trkpt>
      <trkpt lat="69.009843030944467" lon="18.794482983648777">
        <ele>62.619999999999997</ele>
        <time>2017-06-27T12:51:40Z</time>
      </trkpt>
      <trkpt lat="69.010208984836936" lon="18.793115979060531">
        <ele>64.069999999999993</ele>
        <time>2017-06-27T12:51:43Z</time>
      </trkpt>
      <trkpt lat="69.010279979556799" lon="18.792624967172742">
        <ele>65.510000000000005</ele>
        <time>2017-06-27T12:51:44Z</time>
      </trkpt>
      <trkpt lat="69.010327002033591" lon="18.792123980820179">
        <ele>66.950000000000003</ele>
        <time>2017-06-27T12:51:45Z</time>
      </trkpt>
      <trkpt lat="69.010348962619901" lon="18.791615031659603">
        <ele>69.349999999999994</ele>
        <time>2017-06-27T12:51:46Z</time>
      </trkpt>
      <trkpt lat="69.010353991761804" lon="18.791088983416557">
        <ele>69.829999999999998</ele>
        <time>2017-06-27T12:51:47Z</time>
      </trkpt>
      <trkpt lat="69.010348962619901" lon="18.790551032871008">
        <ele>70.310000000000002</ele>
        <time>2017-06-27T12:51:48Z</time>
      </trkpt>
      <trkpt lat="69.010210996493697" lon="18.784173997119069">
        <ele>73.680000000000007</ele>
        <time>2017-06-27T12:51:59Z</time>
      </trkpt>
      <trkpt lat="69.009922994300723" lon="18.782084975391626">
        <ele>66.950000000000003</ele>
        <time>2017-06-27T12:52:03Z</time>
      </trkpt>
      <trkpt lat="69.009820986539125" lon="18.781615002080798">
        <ele>64.069999999999993</ele>
        <time>2017-06-27T12:52:04Z</time>
      </trkpt>
      <trkpt lat="69.009701041504741" lon="18.781177969649434">
        <ele>61.659999999999997</ele>
        <time>2017-06-27T12:52:05Z</time>
      </trkpt>
      <trkpt lat="69.009563997387886" lon="18.780749989673495">
        <ele>58.780000000000001</ele>
        <time>2017-06-27T12:52:06Z</time>
      </trkpt>
      <trkpt lat="69.009418990463018" lon="18.780325027182698">
        <ele>56.859999999999999</ele>
        <time>2017-06-27T12:52:07Z</time>
      </trkpt>
      <trkpt lat="69.008786994963884" lon="18.778200969099998">
        <ele>53.969999999999999</ele>
        <time>2017-06-27T12:52:12Z</time>
      </trkpt>
      <trkpt lat="69.008703008294106" lon="18.777724960818887">
        <ele>54.93</ele>
        <time>2017-06-27T12:52:13Z</time>
      </trkpt>
      <trkpt lat="69.0086480230093" lon="18.777225986123085">
        <ele>55.890000000000001</ele>
        <time>2017-06-27T12:52:14Z</time>
      </trkpt>
      <trkpt lat="69.008617009967566" lon="18.776719970628619">
        <ele>57.340000000000003</ele>
        <time>2017-06-27T12:52:15Z</time>
      </trkpt>
      <trkpt lat="69.008613992482424" lon="18.776222001761198">
        <ele>58.299999999999997</ele>
        <time>2017-06-27T12:52:16Z</time>
      </trkpt>
      <trkpt lat="69.008639976382256" lon="18.775741970166564">
        <ele>59.740000000000002</ele>
        <time>2017-06-27T12:52:17Z</time>
      </trkpt>
      <trkpt lat="69.008685993030667" lon="18.775287000462413">
        <ele>60.219999999999999</ele>
        <time>2017-06-27T12:52:18Z</time>
      </trkpt>
      <trkpt lat="69.008753970265388" lon="18.774858014658093">
        <ele>60.219999999999999</ele>
        <time>2017-06-27T12:52:19Z</time>
      </trkpt>
      <trkpt lat="69.008847009390593" lon="18.774453001096845">
        <ele>60.219999999999999</ele>
        <time>2017-06-27T12:52:20Z</time>
      </trkpt>
      <trkpt lat="69.008957985788584" lon="18.774056034162641">
        <ele>60.700000000000003</ele>
        <time>2017-06-27T12:52:21Z</time>
      </trkpt>
      <trkpt lat="69.009091006591916" lon="18.773697037249804">
        <ele>62.140000000000001</ele>
        <time>2017-06-27T12:52:22Z</time>
      </trkpt>
      <trkpt lat="69.009227966889739" lon="18.773343991488218">
        <ele>63.100000000000001</ele>
        <time>2017-06-27T12:52:23Z</time>
      </trkpt>
      <trkpt lat="69.009502977132797" lon="18.772590039297938">
        <ele>65.030000000000001</ele>
        <time>2017-06-27T12:52:25Z</time>
      </trkpt>
      <trkpt lat="69.009627029299736" lon="18.77214596606791">
        <ele>65.510000000000005</ele>
        <time>2017-06-27T12:52:26Z</time>
      </trkpt>
      <trkpt lat="69.009741023182869" lon="18.771673981100321">
        <ele>65.510000000000005</ele>
        <time>2017-06-27T12:52:27Z</time>
      </trkpt>
      <trkpt lat="69.010921027511358" lon="18.766964022070169">
        <ele>62.619999999999997</ele>
        <time>2017-06-27T12:52:37Z</time>
      </trkpt>
      <trkpt lat="69.011095035821199" lon="18.766618017107248">
        <ele>61.659999999999997</ele>
        <time>2017-06-27T12:52:38Z</time>
      </trkpt>
      <trkpt lat="69.011281030252576" lon="18.766301013529301">
        <ele>60.700000000000003</ele>
        <time>2017-06-27T12:52:39Z</time>
      </trkpt>
      <trkpt lat="69.012596989050508" lon="18.764617005363107">
        <ele>64.069999999999993</ele>
        <time>2017-06-27T12:52:46Z</time>
      </trkpt>
      <trkpt lat="69.01285900734365" lon="18.764105038717389">
        <ele>64.069999999999993</ele>
        <time>2017-06-27T12:52:48Z</time>
      </trkpt>
      <trkpt lat="69.012966966256499" lon="18.763776971027255">
        <ele>63.579999999999998</ele>
        <time>2017-06-27T12:52:49Z</time>
      </trkpt>
      <trkpt lat="69.013064028695226" lon="18.763394001871347">
        <ele>62.619999999999997</ele>
        <time>2017-06-27T12:52:50Z</time>
      </trkpt>
      <trkpt lat="69.014142025262117" lon="18.758703991770744">
        <ele>66.950000000000003</ele>
        <time>2017-06-27T12:53:00Z</time>
      </trkpt>
      <trkpt lat="69.01556602679193" lon="18.752896003425121">
        <ele>67.909999999999997</ele>
        <time>2017-06-27T12:53:12Z</time>
      </trkpt>
      <trkpt lat="69.016806967556477" lon="18.749451963230968">
        <ele>68.390000000000001</ele>
        <time>2017-06-27T12:53:21Z</time>
      </trkpt>
      <trkpt lat="69.017079966142774" lon="18.748934967443347">
        <ele>68.390000000000001</ele>
        <time>2017-06-27T12:53:23Z</time>
      </trkpt>
      <trkpt lat="69.017236959189177" lon="18.748707985505462">
        <ele>68.390000000000001</ele>
        <time>2017-06-27T12:53:24Z</time>
      </trkpt>
      <trkpt lat="69.018315961584449" lon="18.746530031785369">
        <ele>68.390000000000001</ele>
        <time>2017-06-27T12:53:31Z</time>
      </trkpt>
      <trkpt lat="69.019847000017762" lon="18.741681016981602">
        <ele>69.829999999999998</ele>
        <time>2017-06-27T12:53:42Z</time>
      </trkpt>
      <trkpt lat="69.019940961152315" lon="18.741150023415685">
        <ele>69.349999999999994</ele>
        <time>2017-06-27T12:53:43Z</time>
      </trkpt>
      <trkpt lat="69.020023019984365" lon="18.740591034293175">
        <ele>70.310000000000002</ele>
        <time>2017-06-27T12:53:44Z</time>
      </trkpt>
      <trkpt lat="69.020094014704227" lon="18.740019975230098">
        <ele>71.269999999999996</ele>
        <time>2017-06-27T12:53:45Z</time>
      </trkpt>
      <trkpt lat="69.020156040787697" lon="18.739436008036137">
        <ele>73.200000000000003</ele>
        <time>2017-06-27T12:53:46Z</time>
      </trkpt>
      <trkpt lat="69.020929019898176" lon="18.733370024710894">
        <ele>75.120000000000005</ele>
        <time>2017-06-27T12:53:57Z</time>
      </trkpt>
      <trkpt lat="69.022367019206285" lon="18.726728959009051">
        <ele>67.430000000000007</ele>
        <time>2017-06-27T12:54:09Z</time>
      </trkpt>
      <trkpt lat="69.023046959191561" lon="18.72352397069335">
        <ele>65.989999999999995</ele>
        <time>2017-06-27T12:54:15Z</time>
      </trkpt>
      <trkpt lat="69.023106973618269" lon="18.723100014030933">
        <ele>65.030000000000001</ele>
        <time>2017-06-27T12:54:16Z</time>
      </trkpt>
      <trkpt lat="69.023133041337132" lon="18.722687037661672">
        <ele>64.069999999999993</ele>
        <time>2017-06-27T12:54:17Z</time>
      </trkpt>
      <trkpt lat="69.023133041337132" lon="18.722250005230308">
        <ele>63.100000000000001</ele>
        <time>2017-06-27T12:54:18Z</time>
      </trkpt>
      <trkpt lat="69.023104039952159" lon="18.721801992505789">
        <ele>61.659999999999997</ele>
        <time>2017-06-27T12:54:19Z</time>
      </trkpt>
      <trkpt lat="69.023047965019941" lon="18.721382981166244">
        <ele>60.700000000000003</ele>
        <time>2017-06-27T12:54:20Z</time>
      </trkpt>
      <trkpt lat="69.022969007492065" lon="18.720989031717181">
        <ele>59.740000000000002</ele>
        <time>2017-06-27T12:54:21Z</time>
      </trkpt>
      <trkpt lat="69.022863982245326" lon="18.720630034804344">
        <ele>59.259999999999998</ele>
        <time>2017-06-27T12:54:22Z</time>
      </trkpt>
      <trkpt lat="69.022734984755516" lon="18.720312025398016">
        <ele>58.299999999999997</ele>
        <time>2017-06-27T12:54:23Z</time>
      </trkpt>
      <trkpt lat="69.022595006972551" lon="18.720046989619732">
        <ele>57.82</ele>
        <time>2017-06-27T12:54:24Z</time>
      </trkpt>
      <trkpt lat="69.022451005876064" lon="18.719807015731931">
        <ele>57.82</ele>
        <time>2017-06-27T12:54:25Z</time>
      </trkpt>
      <trkpt lat="69.022301975637674" lon="18.719541979953647">
        <ele>57.340000000000003</ele>
        <time>2017-06-27T12:54:26Z</time>
      </trkpt>
      <trkpt lat="69.022167026996613" lon="18.719209972769022">
        <ele>56.859999999999999</ele>
        <time>2017-06-27T12:54:27Z</time>
      </trkpt>
      <trkpt lat="69.022054960951209" lon="18.71881602331996">
        <ele>57.82</ele>
        <time>2017-06-27T12:54:28Z</time>
      </trkpt>
      <trkpt lat="69.02196996845305" lon="18.71838603168726">
        <ele>59.259999999999998</ele>
        <time>2017-06-27T12:54:29Z</time>
      </trkpt>
      <trkpt lat="69.021921018138528" lon="18.717935001477599">
        <ele>60.700000000000003</ele>
        <time>2017-06-27T12:54:30Z</time>
      </trkpt>
      <trkpt lat="69.021898973733187" lon="18.717462010681629">
        <ele>62.140000000000001</ele>
        <time>2017-06-27T12:54:31Z</time>
      </trkpt>
      <trkpt lat="69.021900985389948" lon="18.716964963823557">
        <ele>63.100000000000001</ele>
        <time>2017-06-27T12:54:32Z</time>
      </trkpt>
      <trkpt lat="69.021910037845373" lon="18.716447968035936">
        <ele>63.579999999999998</ele>
        <time>2017-06-27T12:54:33Z</time>
      </trkpt>
      <trkpt lat="69.021858992055058" lon="18.713389998301864">
        <ele>67.909999999999997</ele>
        <time>2017-06-27T12:54:39Z</time>
      </trkpt>
      <trkpt lat="69.021892016753554" lon="18.712947014719248">
        <ele>69.829999999999998</ele>
        <time>2017-06-27T12:54:40Z</time>
      </trkpt>
      <trkpt lat="69.021949013695121" lon="18.712503025308251">
        <ele>70.790000000000006</ele>
        <time>2017-06-27T12:54:41Z</time>
      </trkpt>
      <trkpt lat="69.02218203060329" lon="18.710699994117022">
        <ele>71.760000000000005</ele>
        <time>2017-06-27T12:54:45Z</time>
      </trkpt>
      <trkpt lat="69.022202985361218" lon="18.710251981392503">
        <ele>72.239999999999995</ele>
        <time>2017-06-27T12:54:46Z</time>
      </trkpt>
      <trkpt lat="69.02218597009778" lon="18.709800029173493">
        <ele>70.310000000000002</ele>
        <time>2017-06-27T12:54:47Z</time>
      </trkpt>
      <trkpt lat="69.022137019783258" lon="18.709357967600226">
        <ele>67.909999999999997</ele>
        <time>2017-06-27T12:54:48Z</time>
      </trkpt>
      <trkpt lat="69.022071976214647" lon="18.708929987624288">
        <ele>67.430000000000007</ele>
        <time>2017-06-27T12:54:49Z</time>
      </trkpt>
      <trkpt lat="69.021982960402966" lon="18.708513993769884">
        <ele>66.469999999999999</ele>
        <time>2017-06-27T12:54:50Z</time>
      </trkpt>
      <trkpt lat="69.021865027025342" lon="18.708133036270738">
        <ele>65.510000000000005</ele>
        <time>2017-06-27T12:54:51Z</time>
      </trkpt>
      <trkpt lat="69.021723959594965" lon="18.707783007994294">
        <ele>64.069999999999993</ele>
        <time>2017-06-27T12:54:52Z</time>
      </trkpt>
      <trkpt lat="69.021566966548562" lon="18.707468016073108">
        <ele>63.579999999999998</ele>
        <time>2017-06-27T12:54:53Z</time>
      </trkpt>
      <trkpt lat="69.021397987380624" lon="18.707160986959934">
        <ele>63.579999999999998</ele>
        <time>2017-06-27T12:54:54Z</time>
      </trkpt>
      <trkpt lat="69.018873022869229" lon="18.702685972675681">
        <ele>64.549999999999997</ele>
        <time>2017-06-27T12:55:08Z</time>
      </trkpt>
      <trkpt lat="69.017695030197501" lon="18.700488992035389">
        <ele>70.790000000000006</ele>
        <time>2017-06-27T12:55:15Z</time>
      </trkpt>
      <trkpt lat="69.017571983858943" lon="18.700119014829397">
        <ele>71.269999999999996</ele>
        <time>2017-06-27T12:55:16Z</time>
      </trkpt>
      <trkpt lat="69.017461007460952" lon="18.699703020974994">
        <ele>72.239999999999995</ele>
        <time>2017-06-27T12:55:17Z</time>
      </trkpt>
      <trkpt lat="69.017364028841257" lon="18.699256014078856">
        <ele>73.200000000000003</ele>
        <time>2017-06-27T12:55:18Z</time>
      </trkpt>
      <trkpt lat="69.017275013029575" lon="18.69877296499908">
        <ele>74.159999999999997</ele>
        <time>2017-06-27T12:55:19Z</time>
      </trkpt>
      <trkpt lat="69.016373958438635" lon="18.693254990503192">
        <ele>69.349999999999994</ele>
        <time>2017-06-27T12:55:29Z</time>
      </trkpt>
      <trkpt lat="69.014762034639716" lon="18.68446497246623">
        <ele>69.349999999999994</ele>
        <time>2017-06-27T12:55:45Z</time>
      </trkpt>
      <trkpt lat="69.012616015970707" lon="18.674298981204629">
        <ele>68.870000000000005</ele>
        <time>2017-06-27T12:56:04Z</time>
      </trkpt>
      <trkpt lat="69.011648995801806" lon="18.668323019519448">
        <ele>68.870000000000005</ele>
        <time>2017-06-27T12:56:15Z</time>
      </trkpt>
      <trkpt lat="69.011665005236864" lon="18.664832962676883">
        <ele>65.989999999999995</ele>
        <time>2017-06-27T12:56:21Z</time>
      </trkpt>
      <trkpt lat="69.012155011296272" lon="18.66022702306509">
        <ele>67.430000000000007</ele>
        <time>2017-06-27T12:56:29Z</time>
      </trkpt>
      <trkpt lat="69.01238601654768" lon="18.657615976408124">
        <ele>65.989999999999995</ele>
        <time>2017-06-27T12:56:34Z</time>
      </trkpt>
      <trkpt lat="69.012380987405777" lon="18.657132005318999">
        <ele>66.950000000000003</ele>
        <time>2017-06-27T12:56:35Z</time>
      </trkpt>
      <trkpt lat="69.012357015162706" lon="18.656650967895985">
        <ele>67.430000000000007</ele>
        <time>2017-06-27T12:56:36Z</time>
      </trkpt>
      <trkpt lat="69.012318039312959" lon="18.655733987689018">
        <ele>68.870000000000005</ele>
        <time>2017-06-27T12:56:38Z</time>
      </trkpt>
      <trkpt lat="69.012334970757365" lon="18.655306007713079">
        <ele>69.349999999999994</ele>
        <time>2017-06-27T12:56:39Z</time>
      </trkpt>
      <trkpt lat="69.012380987405777" lon="18.654892025515437">
        <ele>70.310000000000002</ele>
        <time>2017-06-27T12:56:40Z</time>
      </trkpt>
      <trkpt lat="69.012450976297259" lon="18.654483994469047">
        <ele>70.790000000000006</ele>
        <time>2017-06-27T12:56:41Z</time>
      </trkpt>
      <trkpt lat="69.012536974623799" lon="18.654077975079417">
        <ele>69.829999999999998</ele>
        <time>2017-06-27T12:56:42Z</time>
      </trkpt>
      <trkpt lat="69.012640994042158" lon="18.653673967346549">
        <ele>69.349999999999994</ele>
        <time>2017-06-27T12:56:43Z</time>
      </trkpt>
      <trkpt lat="69.0130549762398" lon="18.651927011087537">
        <ele>68.390000000000001</ele>
        <time>2017-06-27T12:56:47Z</time>
      </trkpt>
      <trkpt lat="69.013126976788044" lon="18.651442034170032">
        <ele>68.390000000000001</ele>
        <time>2017-06-27T12:56:48Z</time>
      </trkpt>
      <trkpt lat="69.013176010921597" lon="18.650933001190424">
        <ele>68.390000000000001</ele>
        <time>2017-06-27T12:56:49Z</time>
      </trkpt>
      <trkpt lat="69.013200988993049" lon="18.650402007624507">
        <ele>67.909999999999997</ele>
        <time>2017-06-27T12:56:50Z</time>
      </trkpt>
      <trkpt lat="69.013212975114584" lon="18.649851987138391">
        <ele>67.909999999999997</ele>
        <time>2017-06-27T12:56:51Z</time>
      </trkpt>
      <trkpt lat="69.013208029791713" lon="18.649289980530739">
        <ele>67.909999999999997</ele>
        <time>2017-06-27T12:56:52Z</time>
      </trkpt>
      <trkpt lat="69.013198977336287" lon="18.648723028600216">
        <ele>67.909999999999997</ele>
        <time>2017-06-27T12:56:53Z</time>
      </trkpt>
      <trkpt lat="69.013216998428106" lon="18.647103980183601">
        <ele>67.430000000000007</ele>
        <time>2017-06-27T12:56:56Z</time>
      </trkpt>
      <trkpt lat="69.013257985934615" lon="18.646577009931207">
        <ele>67.430000000000007</ele>
        <time>2017-06-27T12:56:57Z</time>
      </trkpt>
      <trkpt lat="69.013325041159987" lon="18.646081974729896">
        <ele>67.430000000000007</ele>
        <time>2017-06-27T12:56:58Z</time>
      </trkpt>
      <trkpt lat="69.013411039486527" lon="18.645590962842107">
        <ele>67.430000000000007</ele>
        <time>2017-06-27T12:56:59Z</time>
      </trkpt>
      <trkpt lat="69.013509023934603" lon="18.64510296843946">
        <ele>67.909999999999997</ele>
        <time>2017-06-27T12:57:00Z</time>
      </trkpt>
      <trkpt lat="69.014461962506175" lon="18.641014024615288">
        <ele>66.469999999999999</ele>
        <time>2017-06-27T12:57:08Z</time>
      </trkpt>
      <trkpt lat="69.015833996236324" lon="18.636456029489636">
        <ele>67.430000000000007</ele>
        <time>2017-06-27T12:57:17Z</time>
      </trkpt>
      <trkpt lat="69.016704959794879" lon="18.632866982370615">
        <ele>75.120000000000005</ele>
        <time>2017-06-27T12:57:24Z</time>
      </trkpt>
      <trkpt lat="69.018262987956405" lon="18.62550700083375">
        <ele>79.930000000000007</ele>
        <time>2017-06-27T12:57:38Z</time>
      </trkpt>
      <trkpt lat="69.019595962017775" lon="18.620165968313813">
        <ele>76.560000000000002</ele>
        <time>2017-06-27T12:57:48Z</time>
      </trkpt>
      <trkpt lat="69.021865027025342" lon="18.612104002386332">
        <ele>75.120000000000005</ele>
        <time>2017-06-27T12:58:03Z</time>
      </trkpt>
      <trkpt lat="69.023268995806575" lon="18.607087014243007">
        <ele>75.120000000000005</ele>
        <time>2017-06-27T12:58:14Z</time>
      </trkpt>
      <trkpt lat="69.024628037586808" lon="18.602877035737038">
        <ele>73.680000000000007</ele>
        <time>2017-06-27T12:58:25Z</time>
      </trkpt>
      <trkpt lat="69.024798022583127" lon="18.602595990523696">
        <ele>73.680000000000007</ele>
        <time>2017-06-27T12:58:26Z</time>
      </trkpt>
      <trkpt lat="69.026095038279891" lon="18.600803017616272">
        <ele>73.680000000000007</ele>
        <time>2017-06-27T12:58:34Z</time>
      </trkpt>
      <trkpt lat="69.027370009571314" lon="18.599124038591981">
        <ele>66.469999999999999</ele>
        <time>2017-06-27T12:58:44Z</time>
      </trkpt>
      <trkpt lat="69.027456007897854" lon="18.598977020010352">
        <ele>65.989999999999995</ele>
        <time>2017-06-27T12:58:45Z</time>
      </trkpt>
      <trkpt lat="69.027514010667801" lon="18.59882203862071">
        <ele>66.950000000000003</ele>
        <time>2017-06-27T12:58:46Z</time>
      </trkpt>
      <trkpt lat="69.027544017881155" lon="18.598678037524223">
        <ele>66.950000000000003</ele>
        <time>2017-06-27T12:58:47Z</time>
      </trkpt>
      <trkpt lat="69.027548041194677" lon="18.59852397814393">
        <ele>65.989999999999995</ele>
        <time>2017-06-27T12:58:48Z</time>
      </trkpt>
      <trkpt lat="69.027530020102859" lon="18.598379977047443">
        <ele>65.510000000000005</ele>
        <time>2017-06-27T12:58:49Z</time>
      </trkpt>
      <trkpt lat="69.027490960434079" lon="18.598207980394363">
        <ele>65.510000000000005</ele>
        <time>2017-06-27T12:58:50Z</time>
      </trkpt>
      <trkpt lat="69.027438992634416" lon="18.59800798818469">
        <ele>65.510000000000005</ele>
        <time>2017-06-27T12:58:51Z</time>
      </trkpt>
      <trkpt lat="69.026900036260486" lon="18.595591988414526">
        <ele>65.989999999999995</ele>
        <time>2017-06-27T12:58:59Z</time>
      </trkpt>
      <trkpt lat="69.026001999154687" lon="18.591982992365956">
        <ele>79.450000000000003</ele>
        <time>2017-06-27T12:59:09Z</time>
      </trkpt>
      <trkpt lat="69.025904014706612" lon="18.591569010168314">
        <ele>80.890000000000001</ele>
        <time>2017-06-27T12:59:10Z</time>
      </trkpt>
      <trkpt lat="69.025827990844846" lon="18.591119991615415">
        <ele>82.810000000000002</ele>
        <time>2017-06-27T12:59:11Z</time>
      </trkpt>
      <trkpt lat="69.025759007781744" lon="18.590643983334303">
        <ele>84.25</ele>
        <time>2017-06-27T12:59:12Z</time>
      </trkpt>
      <trkpt lat="69.025409985333681" lon="18.588367039337754">
        <ele>90.5</ele>
        <time>2017-06-27T12:59:17Z</time>
      </trkpt>
      <trkpt lat="69.025307977572083" lon="18.587976023554802">
        <ele>90.5</ele>
        <time>2017-06-27T12:59:18Z</time>
      </trkpt>
      <trkpt lat="69.025190966203809" lon="18.587599005550146">
        <ele>91.459999999999994</ele>
        <time>2017-06-27T12:59:19Z</time>
      </trkpt>
      <trkpt lat="69.024099977687001" lon="18.583609974011779">
        <ele>95.310000000000002</ele>
        <time>2017-06-27T12:59:28Z</time>
      </trkpt>
      <trkpt lat="69.02308501303196" lon="18.578349994495511">
        <ele>97.230000000000004</ele>
        <time>2017-06-27T12:59:38Z</time>
      </trkpt>
      <trkpt lat="69.021548023447394" lon="18.569855019450188">
        <ele>98.670000000000002</ele>
        <time>2017-06-27T12:59:53Z</time>
      </trkpt>
      <trkpt lat="69.021013006567955" lon="18.567353021353483">
        <ele>93.870000000000005</ele>
        <time>2017-06-27T12:59:58Z</time>
      </trkpt>
      <trkpt lat="69.020870011299849" lon="18.566929986700416">
        <ele>93.390000000000001</ele>
        <time>2017-06-27T12:59:59Z</time>
      </trkpt>
      <trkpt lat="69.020717041566968" lon="18.566535031422973">
        <ele>93.390000000000001</ele>
        <time>2017-06-27T13:00:00Z</time>
      </trkpt>
      <trkpt lat="69.019849011674523" lon="18.564293961971998">
        <ele>92.420000000000002</ele>
        <time>2017-06-27T13:00:06Z</time>
      </trkpt>
      <trkpt lat="69.019752033054829" lon="18.563870005309582">
        <ele>91.939999999999998</ele>
        <time>2017-06-27T13:00:07Z</time>
      </trkpt>
      <trkpt lat="69.019672991707921" lon="18.563397014513612">
        <ele>90.980000000000004</ele>
        <time>2017-06-27T13:00:08Z</time>
      </trkpt>
      <trkpt lat="69.01960602030158" lon="18.562881024554372">
        <ele>90.019999999999996</ele>
        <time>2017-06-27T13:00:09Z</time>
      </trkpt>
      <trkpt lat="69.019548017531633" lon="18.562332009896636">
        <ele>89.060000000000002</ele>
        <time>2017-06-27T13:00:10Z</time>
      </trkpt>
      <trkpt lat="69.018903030082583" lon="18.557724980637431">
        <ele>81.370000000000005</ele>
        <time>2017-06-27T13:00:18Z</time>
      </trkpt>
      <trkpt lat="69.017829978838563" lon="18.552516968920827">
        <ele>85.689999999999998</ele>
        <time>2017-06-27T13:00:28Z</time>
      </trkpt>
      <trkpt lat="69.01771598495543" lon="18.552156966179609">
        <ele>86.180000000000007</ele>
        <time>2017-06-27T13:00:29Z</time>
      </trkpt>
      <trkpt lat="69.017594028264284" lon="18.551823031157255">
        <ele>86.659999999999997</ele>
        <time>2017-06-27T13:00:30Z</time>
      </trkpt>
      <trkpt lat="69.017458995804191" lon="18.551522037014365">
        <ele>85.689999999999998</ele>
        <time>2017-06-27T13:00:31Z</time>
      </trkpt>
      <trkpt lat="69.01730895973742" lon="18.551245015114546">
        <ele>84.730000000000004</ele>
        <time>2017-06-27T13:00:32Z</time>
      </trkpt>
      <trkpt lat="69.017145009711385" lon="18.550985008478165">
        <ele>83.290000000000006</ele>
        <time>2017-06-27T13:00:33Z</time>
      </trkpt>
      <trkpt lat="69.015357987955213" lon="18.548352001234889">
        <ele>76.079999999999998</ele>
        <time>2017-06-27T13:00:42Z</time>
      </trkpt>
      <trkpt lat="69.013854023069143" lon="18.545428980141878">
        <ele>92.420000000000002</ele>
        <time>2017-06-27T13:00:50Z</time>
      </trkpt>
      <trkpt lat="69.012030037119985" lon="18.541131997480989">
        <ele>108.29000000000001</ele>
        <time>2017-06-27T13:01:01Z</time>
      </trkpt>
      <trkpt lat="69.010774008929729" lon="18.538079978898168">
        <ele>101.56</ele>
        <time>2017-06-27T13:01:09Z</time>
      </trkpt>
      <trkpt lat="69.008998973295093" lon="18.533929008990526">
        <ele>82.810000000000002</ele>
        <time>2017-06-27T13:01:19Z</time>
      </trkpt>
      <trkpt lat="69.007745962589979" lon="18.531377976760268">
        <ele>74.640000000000001</ele>
        <time>2017-06-27T13:01:27Z</time>
      </trkpt>
      <trkpt lat="69.00643503293395" lon="18.52959799580276">
        <ele>68.390000000000001</ele>
        <time>2017-06-27T13:01:37Z</time>
      </trkpt>
      <trkpt lat="69.006341993808746" lon="18.529363973066211">
        <ele>67.430000000000007</ele>
        <time>2017-06-27T13:01:38Z</time>
      </trkpt>
      <trkpt lat="69.006270999088883" lon="18.529092986136675">
        <ele>65.989999999999995</ele>
        <time>2017-06-27T13:01:39Z</time>
      </trkpt>
      <trkpt lat="69.006220959126949" lon="18.528788974508643">
        <ele>65.510000000000005</ele>
        <time>2017-06-27T13:01:40Z</time>
      </trkpt>
      <trkpt lat="69.006191035732627" lon="18.528468031436205">
        <ele>64.069999999999993</ele>
        <time>2017-06-27T13:01:41Z</time>
      </trkpt>
      <trkpt lat="69.00617703795433" lon="18.528110962361097">
        <ele>63.100000000000001</ele>
        <time>2017-06-27T13:01:42Z</time>
      </trkpt>
      <trkpt lat="69.006175026297569" lon="18.527726987376809">
        <ele>62.140000000000001</ele>
        <time>2017-06-27T13:01:43Z</time>
      </trkpt>
      <trkpt lat="69.006182989105582" lon="18.527327002957463">
        <ele>61.18</ele>
        <time>2017-06-27T13:01:44Z</time>
      </trkpt>
      <trkpt lat="69.006247026845813" lon="18.526154039427638">
        <ele>59.259999999999998</ele>
        <time>2017-06-27T13:01:47Z</time>
      </trkpt>
      <trkpt lat="69.006294971331954" lon="18.525811973959208">
        <ele>59.259999999999998</ele>
        <time>2017-06-27T13:01:48Z</time>
      </trkpt>
      <trkpt lat="69.006358003243804" lon="18.525506034493446">
        <ele>59.259999999999998</ele>
        <time>2017-06-27T13:01:49Z</time>
      </trkpt>
      <trkpt lat="69.006441989913583" lon="18.52523697540164">
        <ele>58.780000000000001</ele>
        <time>2017-06-27T13:01:50Z</time>
      </trkpt>
      <trkpt lat="69.006540980190039" lon="18.525000018998981">
        <ele>58.299999999999997</ele>
        <time>2017-06-27T13:01:51Z</time>
      </trkpt>
      <trkpt lat="69.006655979901552" lon="18.524796003475785">
        <ele>57.82</ele>
        <time>2017-06-27T13:01:52Z</time>
      </trkpt>
      <trkpt lat="69.006777014583349" lon="18.524609003216028">
        <ele>57.340000000000003</ele>
        <time>2017-06-27T13:01:53Z</time>
      </trkpt>
      <trkpt lat="69.007008019834757" lon="18.524195021018386">
        <ele>55.890000000000001</ele>
        <time>2017-06-27T13:01:55Z</time>
      </trkpt>
      <trkpt lat="69.007099969312549" lon="18.523940965533257">
        <ele>54.93</ele>
        <time>2017-06-27T13:01:56Z</time>
      </trkpt>
      <trkpt lat="69.007169036194682" lon="18.523666961118579">
        <ele>54.450000000000003</ele>
        <time>2017-06-27T13:01:57Z</time>
      </trkpt>
      <trkpt lat="69.007218992337584" lon="18.523378958925605">
        <ele>53.490000000000002</ele>
        <time>2017-06-27T13:01:58Z</time>
      </trkpt>
      <trkpt lat="69.007250005379319" lon="18.523074025288224">
        <ele>53.009999999999998</ele>
        <time>2017-06-27T13:01:59Z</time>
      </trkpt>
      <trkpt lat="69.007264003157616" lon="18.522761967033148">
        <ele>52.530000000000001</ele>
        <time>2017-06-27T13:02:00Z</time>
      </trkpt>
      <trkpt lat="69.007261991500854" lon="18.522458039224148">
        <ele>52.530000000000001</ele>
        <time>2017-06-27T13:02:01Z</time>
      </trkpt>
      <trkpt lat="69.007247993722558" lon="18.522159978747368">
        <ele>52.049999999999997</ele>
        <time>2017-06-27T13:02:02Z</time>
      </trkpt>
      <trkpt lat="69.006979018449783" lon="18.518491974100471">
        <ele>52.049999999999997</ele>
        <time>2017-06-27T13:02:14Z</time>
      </trkpt>
      <trkpt lat="69.006550032645464" lon="18.514255005866289">
        <ele>50.609999999999999</ele>
        <time>2017-06-27T13:02:25Z</time>
      </trkpt>
      <trkpt lat="69.005990959703922" lon="18.51118303835392">
        <ele>51.090000000000003</ele>
        <time>2017-06-27T13:02:35Z</time>
      </trkpt>
      <trkpt lat="69.005925999954343" lon="18.510838961228728">
        <ele>51.090000000000003</ele>
        <time>2017-06-27T13:02:41Z</time>
      </trkpt>
      <trkpt lat="69.005883000791073" lon="18.510796967893839">
        <ele>51.090000000000003</ele>
        <time>2017-06-27T13:02:43Z</time>
      </trkpt>
      <trkpt lat="69.005822986364365" lon="18.5107989795506">
        <ele>50.609999999999999</ele>
        <time>2017-06-27T13:02:44Z</time>
      </trkpt>
      <trkpt lat="69.005741011351347" lon="18.510851031169295">
        <ele>50.609999999999999</ele>
        <time>2017-06-27T13:02:45Z</time>
      </trkpt>
      <trkpt lat="69.004964008927345" lon="18.511543041095138">
        <ele>50.609999999999999</ele>
        <time>2017-06-27T13:02:51Z</time>
      </trkpt>
      <trkpt lat="69.003305984660983" lon="18.51296603679657">
        <ele>51.57</ele>
        <time>2017-06-27T13:03:00Z</time>
      </trkpt>
      <trkpt lat="69.001982985064387" lon="18.512838967144489">
        <ele>53.490000000000002</ele>
        <time>2017-06-27T13:03:06Z</time>
      </trkpt>
      <trkpt lat="68.998913029208779" lon="18.510916996747255">
        <ele>62.619999999999997</ele>
        <time>2017-06-27T13:03:19Z</time>
      </trkpt>
      <trkpt lat="68.997216029092669" lon="18.510953038930893">
        <ele>64.549999999999997</ele>
        <time>2017-06-27T13:03:26Z</time>
      </trkpt>
      <trkpt lat="68.995067998766899" lon="18.512229016050696">
        <ele>64.549999999999997</ele>
        <time>2017-06-27T13:03:36Z</time>
      </trkpt>
      <trkpt lat="68.993593035265803" lon="18.513207016512752">
        <ele>65.989999999999995</ele>
        <time>2017-06-27T13:03:43Z</time>
      </trkpt>
      <trkpt lat="68.992352010682225" lon="18.513944959267974">
        <ele>65.510000000000005</ele>
        <time>2017-06-27T13:03:49Z</time>
      </trkpt>
      <trkpt lat="68.990218983963132" lon="18.515286985784769">
        <ele>64.069999999999993</ele>
        <time>2017-06-27T13:03:59Z</time>
      </trkpt>
      <trkpt lat="68.988334983587265" lon="18.516390966251493">
        <ele>61.659999999999997</ele>
        <time>2017-06-27T13:04:07Z</time>
      </trkpt>
      <trkpt lat="68.986236993223429" lon="18.517005024477839">
        <ele>53.969999999999999</ele>
        <time>2017-06-27T13:04:17Z</time>
      </trkpt>
      <trkpt lat="68.984790025278926" lon="18.515942031517625">
        <ele>49.159999999999997</ele>
        <time>2017-06-27T13:04:24Z</time>
      </trkpt>
      <trkpt lat="68.982481984421611" lon="18.512773001566529">
        <ele>47.719999999999999</ele>
        <time>2017-06-27T13:04:36Z</time>
      </trkpt>
      <trkpt lat="68.981101987883449" lon="18.510016025975347">
        <ele>48.68</ele>
        <time>2017-06-27T13:04:44Z</time>
      </trkpt>
      <trkpt lat="68.978753965348005" lon="18.504569968208671">
        <ele>49.649999999999999</ele>
        <time>2017-06-27T13:04:56Z</time>
      </trkpt>
      <trkpt lat="68.97601299919188" lon="18.499296996742487">
        <ele>50.130000000000003</ele>
        <time>2017-06-27T13:05:09Z</time>
      </trkpt>
      <trkpt lat="68.97090096026659" lon="18.492301041260362">
        <ele>51.090000000000003</ele>
        <time>2017-06-27T13:05:32Z</time>
      </trkpt>
      <trkpt lat="68.966532982885838" lon="18.486055014654994">
        <ele>50.609999999999999</ele>
        <time>2017-06-27T13:05:52Z</time>
      </trkpt>
      <trkpt lat="68.964158976450562" lon="18.481113966554403">
        <ele>51.090000000000003</ele>
        <time>2017-06-27T13:06:04Z</time>
      </trkpt>
      <trkpt lat="68.96273204125464" lon="18.479427024722099">
        <ele>50.130000000000003</ele>
        <time>2017-06-27T13:06:11Z</time>
      </trkpt>
      <trkpt lat="68.960796995088458" lon="18.477565990760922">
        <ele>54.450000000000003</ele>
        <time>2017-06-27T13:06:23Z</time>
      </trkpt>
      <trkpt lat="68.958464981988072" lon="18.47459502518177">
        <ele>50.609999999999999</ele>
        <time>2017-06-27T13:06:37Z</time>
      </trkpt>
      <trkpt lat="68.956447960808873" lon="18.471146039664745">
        <ele>59.259999999999998</ele>
        <time>2017-06-27T13:06:50Z</time>
      </trkpt>
      <trkpt lat="68.955228980630636" lon="18.470690986141562">
        <ele>56.369999999999997</ele>
        <time>2017-06-27T13:06:57Z</time>
      </trkpt>
      <trkpt lat="68.952747015282512" lon="18.470338024199009">
        <ele>51.090000000000003</ele>
        <time>2017-06-27T13:07:11Z</time>
      </trkpt>
      <trkpt lat="68.95038097165525" lon="18.469910966232419">
        <ele>48.200000000000003</ele>
        <time>2017-06-27T13:07:22Z</time>
      </trkpt>
      <trkpt lat="68.948761001229286" lon="18.468983005732298">
        <ele>47.719999999999999</ele>
        <time>2017-06-27T13:07:29Z</time>
      </trkpt>
      <trkpt lat="68.946316000074148" lon="18.467029016464949">
        <ele>47.240000000000002</ele>
        <time>2017-06-27T13:07:39Z</time>
      </trkpt>
      <trkpt lat="68.944059005007148" lon="18.464911999180913">
        <ele>49.649999999999999</ele>
        <time>2017-06-27T13:07:49Z</time>
      </trkpt>
      <trkpt lat="68.941410994157195" lon="18.464200962334871">
        <ele>53.009999999999998</ele>
        <time>2017-06-27T13:08:00Z</time>
      </trkpt>
      <trkpt lat="68.938008025288582" lon="18.464623996987939">
        <ele>52.530000000000001</ele>
        <time>2017-06-27T13:08:14Z</time>
      </trkpt>
      <trkpt lat="68.934861961752176" lon="18.465039990842342">
        <ele>54.450000000000003</ele>
        <time>2017-06-27T13:08:27Z</time>
      </trkpt>
      <trkpt lat="68.931657979264855" lon="18.465149961411953">
        <ele>56.859999999999999</ele>
        <time>2017-06-27T13:08:40Z</time>
      </trkpt>
      <trkpt lat="68.930051000788808" lon="18.463844982907176">
        <ele>57.340000000000003</ele>
        <time>2017-06-27T13:08:47Z</time>
      </trkpt>
      <trkpt lat="68.928647032007575" lon="18.4612119756639">
        <ele>56.369999999999997</ele>
        <time>2017-06-27T13:08:54Z</time>
      </trkpt>
      <trkpt lat="68.926649959757924" lon="18.455426031723619">
        <ele>59.740000000000002</ele>
        <time>2017-06-27T13:09:06Z</time>
      </trkpt>
      <trkpt lat="68.924599997699261" lon="18.450866024941206">
        <ele>59.259999999999998</ele>
        <time>2017-06-27T13:09:17Z</time>
      </trkpt>
      <trkpt lat="68.922314001247287" lon="18.447551988065243">
        <ele>56.369999999999997</ele>
        <time>2017-06-27T13:09:28Z</time>
      </trkpt>
      <trkpt lat="68.919454012066126" lon="18.443598998710513">
        <ele>53.009999999999998</ele>
        <time>2017-06-27T13:09:42Z</time>
      </trkpt>
      <trkpt lat="68.917684005573392" lon="18.439527992159128">
        <ele>53.009999999999998</ele>
        <time>2017-06-27T13:09:52Z</time>
      </trkpt>
      <trkpt lat="68.916281964629889" lon="18.434528019279242">
        <ele>56.369999999999997</ele>
        <time>2017-06-27T13:10:02Z</time>
      </trkpt>
      <trkpt lat="68.915288960561156" lon="18.428892027586699">
        <ele>53.490000000000002</ele>
        <time>2017-06-27T13:10:12Z</time>
      </trkpt>
      <trkpt lat="68.91465101391077" lon="18.422868959605694">
        <ele>51.57</ele>
        <time>2017-06-27T13:10:23Z</time>
      </trkpt>
      <trkpt lat="68.913912987336516" lon="18.417869992554188">
        <ele>52.049999999999997</ele>
        <time>2017-06-27T13:10:33Z</time>
      </trkpt>
      <trkpt lat="68.912870027124882" lon="18.413550965487957">
        <ele>54.450000000000003</ele>
        <time>2017-06-27T13:10:43Z</time>
      </trkpt>
      <trkpt lat="68.911670995876193" lon="18.411391032859683">
        <ele>56.369999999999997</ele>
        <time>2017-06-27T13:10:50Z</time>
      </trkpt>
      <trkpt lat="68.909507039934397" lon="18.409290025010705">
        <ele>59.259999999999998</ele>
        <time>2017-06-27T13:10:59Z</time>
      </trkpt>
      <trkpt lat="68.907541986554861" lon="18.407170996069908">
        <ele>54.93</ele>
        <time>2017-06-27T13:11:08Z</time>
      </trkpt>
      <trkpt lat="68.905396973714232" lon="18.403410958126187">
        <ele>54.450000000000003</ele>
        <time>2017-06-27T13:11:20Z</time>
      </trkpt>
      <trkpt lat="68.903705002740026" lon="18.401134014129639">
        <ele>60.219999999999999</ele>
        <time>2017-06-27T13:11:30Z</time>
      </trkpt>
      <trkpt lat="68.901348011568189" lon="18.399253031238914">
        <ele>69.349999999999994</ele>
        <time>2017-06-27T13:11:43Z</time>
      </trkpt>
      <trkpt lat="68.899932978674769" lon="18.39740096591413">
        <ele>73.680000000000007</ele>
        <time>2017-06-27T13:11:50Z</time>
      </trkpt>
      <trkpt lat="68.898059958592057" lon="18.394274013116956">
        <ele>80.890000000000001</ele>
        <time>2017-06-27T13:12:00Z</time>
      </trkpt>
      <trkpt lat="68.895916035398841" lon="18.389614010229707">
        <ele>85.689999999999998</ele>
        <time>2017-06-27T13:12:12Z</time>
      </trkpt>
      <trkpt lat="68.893669014796615" lon="18.383265975862741">
        <ele>87.140000000000001</ele>
        <time>2017-06-27T13:12:26Z</time>
      </trkpt>
      <trkpt lat="68.891993975266814" lon="18.376763965934515">
        <ele>78</ele>
        <time>2017-06-27T13:12:38Z</time>
      </trkpt>
      <trkpt lat="68.890821011736989" lon="18.37060603313148">
        <ele>74.159999999999997</ele>
        <time>2017-06-27T13:12:49Z</time>
      </trkpt>
      <trkpt lat="68.889992041513324" lon="18.367111030966043">
        <ele>69.829999999999998</ele>
        <time>2017-06-27T13:12:57Z</time>
      </trkpt>
      <trkpt lat="68.889432968571782" lon="18.365309005603194">
        <ele>64.069999999999993</ele>
        <time>2017-06-27T13:13:05Z</time>
      </trkpt>
      <trkpt lat="68.888958971947432" lon="18.363782996311784">
        <ele>58.780000000000001</ele>
        <time>2017-06-27T13:13:14Z</time>
      </trkpt>
      <trkpt lat="68.888844978064299" lon="18.363460041582584">
        <ele>57.340000000000003</ele>
        <time>2017-06-27T13:13:24Z</time>
      </trkpt>
      <trkpt lat="68.888793010264635" lon="18.363270023837686">
        <ele>56.859999999999999</ele>
        <time>2017-06-27T13:14:16Z</time>
      </trkpt>
      <trkpt lat="68.888640962541103" lon="18.36278697475791">
        <ele>55.890000000000001</ele>
        <time>2017-06-27T13:14:29Z</time>
      </trkpt>
      <trkpt lat="68.888194961473346" lon="18.361185025423765">
        <ele>52.049999999999997</ele>
        <time>2017-06-27T13:14:39Z</time>
      </trkpt>
      <trkpt lat="68.887685006484389" lon="18.358238032087684">
        <ele>46.759999999999998</ele>
        <time>2017-06-27T13:14:56Z</time>
      </trkpt>
      <trkpt lat="68.887261971831322" lon="18.356539020314813">
        <ele>48.68</ele>
        <time>2017-06-27T13:15:10Z</time>
      </trkpt>
      <trkpt lat="68.887064997106791" lon="18.355343006551266">
        <ele>47.719999999999999</ele>
        <time>2017-06-27T13:15:19Z</time>
      </trkpt>
      <trkpt lat="68.887030966579914" lon="18.355192970484495">
        <ele>47.719999999999999</ele>
        <time>2017-06-27T13:15:20Z</time>
      </trkpt>
      <trkpt lat="68.886526962742209" lon="18.353816997259855">
        <ele>48.68</ele>
        <time>2017-06-27T13:15:28Z</time>
      </trkpt>
      <trkpt lat="68.885747026652098" lon="18.353128004819155">
        <ele>48.68</ele>
        <time>2017-06-27T13:15:38Z</time>
      </trkpt>
      <trkpt lat="68.884952003136277" lon="18.353276029229164">
        <ele>49.649999999999999</ele>
        <time>2017-06-27T13:15:49Z</time>
      </trkpt>
      <trkpt lat="68.884682022035122" lon="18.353496976196766">
        <ele>50.609999999999999</ele>
        <time>2017-06-27T13:15:55Z</time>
      </trkpt>
      <trkpt lat="68.884621001780033" lon="18.353508040308952">
        <ele>50.609999999999999</ele>
        <time>2017-06-27T13:15:56Z</time>
      </trkpt>
      <trkpt lat="68.884558975696564" lon="18.353506028652191">
        <ele>50.609999999999999</ele>
        <time>2017-06-27T13:15:57Z</time>
      </trkpt>
      <trkpt lat="68.884500972926617" lon="18.353479038923979">
        <ele>51.090000000000003</ele>
        <time>2017-06-27T13:15:58Z</time>
      </trkpt>
      <trkpt lat="68.884444981813431" lon="18.353444002568722">
        <ele>51.090000000000003</ele>
        <time>2017-06-27T13:15:59Z</time>
      </trkpt>
      <trkpt lat="68.884391002357006" lon="18.353404020890594">
        <ele>51.090000000000003</ele>
        <time>2017-06-27T13:16:00Z</time>
      </trkpt>
      <trkpt lat="68.88433400541544" lon="18.353349035605788">
        <ele>51.090000000000003</ele>
        <time>2017-06-27T13:16:01Z</time>
      </trkpt>
      <trkpt lat="68.883635038509965" lon="18.352202977985144">
        <ele>53.969999999999999</ele>
        <time>2017-06-27T13:16:12Z</time>
      </trkpt>
      <trkpt lat="68.882752005010843" lon="18.351223971694708">
        <ele>59.740000000000002</ele>
        <time>2017-06-27T13:16:25Z</time>
      </trkpt>
      <trkpt lat="68.882029987871647" lon="18.351782038807869">
        <ele>63.100000000000001</ele>
        <time>2017-06-27T13:16:35Z</time>
      </trkpt>
      <trkpt lat="68.881253991276026" lon="18.353301007300615">
        <ele>66.469999999999999</ele>
        <time>2017-06-27T13:16:47Z</time>
      </trkpt>
      <trkpt lat="68.880365006625652" lon="18.353906013071537">
        <ele>65.989999999999995</ele>
        <time>2017-06-27T13:16:55Z</time>
      </trkpt>
      <trkpt lat="68.878782000392675" lon="18.354474976658821">
        <ele>64.549999999999997</ele>
        <time>2017-06-27T13:17:07Z</time>
      </trkpt>
      <trkpt lat="68.877039989456534" lon="18.355641989037395">
        <ele>63.100000000000001</ele>
        <time>2017-06-27T13:17:22Z</time>
      </trkpt>
      <trkpt lat="68.875260008499026" lon="18.356542959809303">
        <ele>60.700000000000003</ele>
        <time>2017-06-27T13:17:38Z</time>
      </trkpt>
      <trkpt lat="68.873312976211309" lon="18.357004970312119">
        <ele>57.82</ele>
        <time>2017-06-27T13:17:55Z</time>
      </trkpt>
      <trkpt lat="68.871417995542288" lon="18.357347035780549">
        <ele>61.659999999999997</ele>
        <time>2017-06-27T13:18:11Z</time>
      </trkpt>
      <trkpt lat="68.870221981778741" lon="18.356567015871406">
        <ele>66.469999999999999</ele>
        <time>2017-06-27T13:18:21Z</time>
      </trkpt>
      <trkpt lat="68.869137028232217" lon="18.354652002453804">
        <ele>70.790000000000006</ele>
        <time>2017-06-27T13:18:32Z</time>
      </trkpt>
      <trkpt lat="68.867781003937125" lon="18.3512709941715">
        <ele>69.829999999999998</ele>
        <time>2017-06-27T13:18:47Z</time>
      </trkpt>
      <trkpt lat="68.866676017642021" lon="18.348505971953273">
        <ele>70.310000000000002</ele>
        <time>2017-06-27T13:18:59Z</time>
      </trkpt>
      <trkpt lat="68.865373972803354" lon="18.345742039382458">
        <ele>76.079999999999998</ele>
        <time>2017-06-27T13:19:14Z</time>
      </trkpt>
      <trkpt lat="68.865291997790337" lon="18.345689987763762">
        <ele>76.079999999999998</ele>
        <time>2017-06-27T13:19:15Z</time>
      </trkpt>
      <trkpt lat="68.86521396227181" lon="18.345668027177453">
        <ele>76.079999999999998</ele>
        <time>2017-06-27T13:19:16Z</time>
      </trkpt>
      <trkpt lat="68.865141961723566" lon="18.345660986378789">
        <ele>76.079999999999998</ele>
        <time>2017-06-27T13:19:17Z</time>
      </trkpt>
      <trkpt lat="68.865072978660464" lon="18.345664003863931">
        <ele>76.560000000000002</ele>
        <time>2017-06-27T13:19:18Z</time>
      </trkpt>
      <trkpt lat="68.865005001425743" lon="18.34568495862186">
        <ele>76.079999999999998</ele>
        <time>2017-06-27T13:19:19Z</time>
      </trkpt>
      <trkpt lat="68.864935012534261" lon="18.345714965835214">
        <ele>76.079999999999998</ele>
        <time>2017-06-27T13:19:20Z</time>
      </trkpt>
      <trkpt lat="68.8639020267874" lon="18.346611997112632">
        <ele>76.079999999999998</ele>
        <time>2017-06-27T13:19:33Z</time>
      </trkpt>
      <trkpt lat="68.862771978601813" lon="18.347540963441133">
        <ele>78</ele>
        <time>2017-06-27T13:19:47Z</time>
      </trkpt>
      <trkpt lat="68.861704040318727" lon="18.348229033872485">
        <ele>78</ele>
        <time>2017-06-27T13:20:01Z</time>
      </trkpt>
      <trkpt lat="68.861288968473673" lon="18.348484011366963">
        <ele>78</ele>
        <time>2017-06-27T13:20:06Z</time>
      </trkpt>
      <trkpt lat="68.861206993460655" lon="18.348489962518215">
        <ele>78</ele>
        <time>2017-06-27T13:20:07Z</time>
      </trkpt>
      <trkpt lat="68.861137004569173" lon="18.34843598306179">
        <ele>78</ele>
        <time>2017-06-27T13:20:08Z</time>
      </trkpt>
      <trkpt lat="68.861082019284368" lon="18.348343027755618">
        <ele>78.480000000000004</ele>
        <time>2017-06-27T13:20:09Z</time>
      </trkpt>
      <trkpt lat="68.861036002635956" lon="18.348244037479162">
        <ele>78.969999999999999</ele>
        <time>2017-06-27T13:20:10Z</time>
      </trkpt>
      <trkpt lat="68.860993003472686" lon="18.348145969212055">
        <ele>78.480000000000004</ele>
        <time>2017-06-27T13:20:11Z</time>
      </trkpt>
      <trkpt lat="68.860946986824274" lon="18.348046978935599">
        <ele>78.480000000000004</ele>
        <time>2017-06-27T13:20:12Z</time>
      </trkpt>
      <trkpt lat="68.860734002664685" lon="18.347510034218431">
        <ele>79.450000000000003</ele>
        <time>2017-06-27T13:20:16Z</time>
      </trkpt>
      <trkpt lat="68.860675999894738" lon="18.34729696623981">
        <ele>79.930000000000007</ele>
        <time>2017-06-27T13:20:17Z</time>
      </trkpt>
      <trkpt lat="68.860612967982888" lon="18.347052969038486">
        <ele>80.409999999999997</ele>
        <time>2017-06-27T13:20:18Z</time>
      </trkpt>
      <trkpt lat="68.860082980245352" lon="18.344105975702405">
        <ele>87.140000000000001</ele>
        <time>2017-06-27T13:20:28Z</time>
      </trkpt>
      <trkpt lat="68.85999103076756" lon="18.343571964651346">
        <ele>88.579999999999998</ele>
        <time>2017-06-27T13:20:30Z</time>
      </trkpt>
      <trkpt lat="68.859929004684091" lon="18.343337019905448">
        <ele>89.060000000000002</ele>
        <time>2017-06-27T13:20:31Z</time>
      </trkpt>
      <trkpt lat="68.859855998307467" lon="18.343120012432337">
        <ele>89.540000000000006</ele>
        <time>2017-06-27T13:20:32Z</time>
      </trkpt>
      <trkpt lat="68.859775029122829" lon="18.342937035486102">
        <ele>90.019999999999996</ele>
        <time>2017-06-27T13:20:33Z</time>
      </trkpt>
      <trkpt lat="68.859690958634019" lon="18.342752968892455">
        <ele>90.5</ele>
        <time>2017-06-27T13:20:34Z</time>
      </trkpt>
      <trkpt lat="68.859598003327847" lon="18.34259295836091">
        <ele>90.980000000000004</ele>
        <time>2017-06-27T13:20:35Z</time>
      </trkpt>
      <trkpt lat="68.859227020293474" lon="18.341816961765289">
        <ele>93.390000000000001</ele>
        <time>2017-06-27T13:20:39Z</time>
      </trkpt>
      <trkpt lat="68.859146973118186" lon="18.34155997261405">
        <ele>93.870000000000005</ele>
        <time>2017-06-27T13:20:40Z</time>
      </trkpt>
      <trkpt lat="68.859081007540226" lon="18.34128001704812">
        <ele>94.829999999999998</ele>
        <time>2017-06-27T13:20:41Z</time>
      </trkpt>
      <trkpt lat="68.859029039740562" lon="18.340972987934947">
        <ele>95.310000000000002</ele>
        <time>2017-06-27T13:20:42Z</time>
      </trkpt>
      <trkpt lat="68.858986962586641" lon="18.340639974921942">
        <ele>96.269999999999996</ele>
        <time>2017-06-27T13:20:43Z</time>
      </trkpt>
      <trkpt lat="68.858952010050416" lon="18.340306961908937">
        <ele>96.75</ele>
        <time>2017-06-27T13:20:44Z</time>
      </trkpt>
      <trkpt lat="68.858891995623708" lon="18.337460970506072">
        <ele>102.04000000000001</ele>
        <time>2017-06-27T13:20:53Z</time>
      </trkpt>
      <trkpt lat="68.85904798284173" lon="18.333317963406444">
        <ele>107.81</ele>
        <time>2017-06-27T13:21:05Z</time>
      </trkpt>
      <trkpt lat="68.85947504080832" lon="18.329346030950546">
        <ele>110.69</ele>
        <time>2017-06-27T13:21:18Z</time>
      </trkpt>
      <trkpt lat="68.85971300303936" lon="18.326114974915981">
        <ele>112.13</ele>
        <time>2017-06-27T13:21:28Z</time>
      </trkpt>
      <trkpt lat="68.859926993027329" lon="18.322468008846045">
        <ele>108.77</ele>
        <time>2017-06-27T13:21:39Z</time>
      </trkpt>
      <trkpt lat="68.86025195941329" lon="18.319855034351349">
        <ele>106.36</ele>
        <time>2017-06-27T13:21:47Z</time>
      </trkpt>
      <trkpt lat="68.860256988555193" lon="18.319511041045189">
        <ele>105.88</ele>
        <time>2017-06-27T13:21:48Z</time>
      </trkpt>
      <trkpt lat="68.86025195941329" lon="18.317912025377154">
        <ele>103.48</ele>
        <time>2017-06-27T13:21:53Z</time>
      </trkpt>
      <trkpt lat="68.860356984660029" lon="18.31485103815794">
        <ele>99.629999999999995</ele>
        <time>2017-06-27T13:22:02Z</time>
      </trkpt>
      <trkpt lat="68.860298981890082" lon="18.310612980276346">
        <ele>96.269999999999996</ele>
        <time>2017-06-27T13:22:12Z</time>
      </trkpt>
      <trkpt lat="68.860242990776896" lon="18.307015970349312">
        <ele>97.230000000000004</ele>
        <time>2017-06-27T13:22:20Z</time>
      </trkpt>
      <trkpt lat="68.860219018533826" lon="18.306548008695245">
        <ele>97.230000000000004</ele>
        <time>2017-06-27T13:22:21Z</time>
      </trkpt>
      <trkpt lat="68.860182976350188" lon="18.306083986535668">
        <ele>97.230000000000004</ele>
        <time>2017-06-27T13:22:22Z</time>
      </trkpt>
      <trkpt lat="68.860132014378905" lon="18.305633962154388">
        <ele>97.230000000000004</ele>
        <time>2017-06-27T13:22:23Z</time>
      </trkpt>
      <trkpt lat="68.860068982467055" lon="18.305198019370437">
        <ele>97.230000000000004</ele>
        <time>2017-06-27T13:22:24Z</time>
      </trkpt>
      <trkpt lat="68.859990024939179" lon="18.304773978888988">
        <ele>97.230000000000004</ele>
        <time>2017-06-27T13:22:25Z</time>
      </trkpt>
      <trkpt lat="68.859895979985595" lon="18.304358990862966">
        <ele>97.230000000000004</ele>
        <time>2017-06-27T13:22:26Z</time>
      </trkpt>
      <trkpt lat="68.859790032729506" lon="18.303949031978846">
        <ele>96.75</ele>
        <time>2017-06-27T13:22:27Z</time>
      </trkpt>
      <trkpt lat="68.858672976493835" lon="18.301159031689167">
        <ele>96.75</ele>
        <time>2017-06-27T13:22:35Z</time>
      </trkpt>
      <trkpt lat="68.856955021619797" lon="18.298940006643534">
        <ele>100.59999999999999</ele>
        <time>2017-06-27T13:22:44Z</time>
      </trkpt>
      <trkpt lat="68.855581982061267" lon="18.296128967776895">
        <ele>107.31999999999999</ele>
        <time>2017-06-27T13:22:51Z</time>
      </trkpt>
      <trkpt lat="68.854357972741127" lon="18.291695024818182">
        <ele>108.29000000000001</ele>
        <time>2017-06-27T13:22:59Z</time>
      </trkpt>
      <trkpt lat="68.852891977876425" lon="18.287915959954262">
        <ele>114.05</ele>
        <time>2017-06-27T13:23:07Z</time>
      </trkpt>
      <trkpt lat="68.851252980530262" lon="18.284906018525362">
        <ele>113.56999999999999</ele>
        <time>2017-06-27T13:23:15Z</time>
      </trkpt>
      <trkpt lat="68.848934965208173" lon="18.282051980495453">
        <ele>110.20999999999999</ele>
        <time>2017-06-27T13:23:25Z</time>
      </trkpt>
      <trkpt lat="68.846731027588248" lon="18.277227021753788">
        <ele>112.13</ele>
        <time>2017-06-27T13:23:36Z</time>
      </trkpt>
      <trkpt lat="68.844095002859831" lon="18.271407969295979">
        <ele>123.19</ele>
        <time>2017-06-27T13:23:50Z</time>
      </trkpt>
      <trkpt lat="68.842466985806823" lon="18.268556026741862">
        <ele>128.47</ele>
        <time>2017-06-27T13:23:59Z</time>
      </trkpt>
      <trkpt lat="68.841283963993192" lon="18.267216011881828">
        <ele>124.63</ele>
        <time>2017-06-27T13:24:04Z</time>
      </trkpt>
      <trkpt lat="68.840031959116459" lon="18.265489004552364">
        <ele>122.70999999999999</ele>
        <time>2017-06-27T13:24:10Z</time>
      </trkpt>
      <trkpt lat="68.839876977726817" lon="18.265095977112651">
        <ele>123.67</ele>
        <time>2017-06-27T13:24:11Z</time>
      </trkpt>
      <trkpt lat="68.839735994115472" lon="18.264644024893641">
        <ele>124.15000000000001</ele>
        <time>2017-06-27T13:24:12Z</time>
      </trkpt>
      <trkpt lat="68.839608002454042" lon="18.264142032712698">
        <ele>125.59</ele>
        <time>2017-06-27T13:24:13Z</time>
      </trkpt>
      <trkpt lat="68.839489985257387" lon="18.263613972812891">
        <ele>126.55</ele>
        <time>2017-06-27T13:24:14Z</time>
      </trkpt>
      <trkpt lat="68.838179977610707" lon="18.257373981177807">
        <ele>140.00999999999999</ele>
        <time>2017-06-27T13:24:25Z</time>
      </trkpt>
      <trkpt lat="68.837727019563317" lon="18.256090963259339">
        <ele>142.41</ele>
        <time>2017-06-27T13:24:28Z</time>
      </trkpt>
      <trkpt lat="68.837548987939954" lon="18.255746969953179">
        <ele>142.41</ele>
        <time>2017-06-27T13:24:29Z</time>
      </trkpt>
      <trkpt lat="68.837358970195055" lon="18.255452010780573">
        <ele>141.93000000000001</ele>
        <time>2017-06-27T13:24:30Z</time>
      </trkpt>
      <trkpt lat="68.837155038490891" lon="18.255195021629333">
        <ele>141.44999999999999</ele>
        <time>2017-06-27T13:24:31Z</time>
      </trkpt>
      <trkpt lat="68.836943982169032" lon="18.254986982792616">
        <ele>140.49000000000001</ele>
        <time>2017-06-27T13:24:32Z</time>
      </trkpt>
      <trkpt lat="68.836727980524302" lon="18.254825966432691">
        <ele>140.49000000000001</ele>
        <time>2017-06-27T13:24:33Z</time>
      </trkpt>
      <trkpt lat="68.834498981013894" lon="18.253316972404718">
        <ele>146.25999999999999</ele>
        <time>2017-06-27T13:24:43Z</time>
      </trkpt>
      <trkpt lat="68.83429697714746" lon="18.253049002960324">
        <ele>146.74000000000001</ele>
        <time>2017-06-27T13:24:44Z</time>
      </trkpt>
      <trkpt lat="68.834103019908071" lon="18.252742979675531">
        <ele>146.74000000000001</ele>
        <time>2017-06-27T13:24:45Z</time>
      </trkpt>
      <trkpt lat="68.833919037133455" lon="18.25239303521812">
        <ele>147.22</ele>
        <time>2017-06-27T13:24:46Z</time>
      </trkpt>
      <trkpt lat="68.833739999681711" lon="18.251991961151361">
        <ele>146.25999999999999</ele>
        <time>2017-06-27T13:24:47Z</time>
      </trkpt>
      <trkpt lat="68.833575965836644" lon="18.251553000882268">
        <ele>145.78</ele>
        <time>2017-06-27T13:24:48Z</time>
      </trkpt>
      <trkpt lat="68.833422996103764" lon="18.251075986772776">
        <ele>145.78</ele>
        <time>2017-06-27T13:24:49Z</time>
      </trkpt>
      <trkpt lat="68.833286035805941" lon="18.250559996813536">
        <ele>145.30000000000001</ele>
        <time>2017-06-27T13:24:50Z</time>
      </trkpt>
      <trkpt lat="68.833168018609285" lon="18.250013999640942">
        <ele>145.30000000000001</ele>
        <time>2017-06-27T13:24:51Z</time>
      </trkpt>
      <trkpt lat="68.833067016676068" lon="18.24943196028471">
        <ele>144.81999999999999</ele>
        <time>2017-06-27T13:24:52Z</time>
      </trkpt>
      <trkpt lat="68.832978000864387" lon="18.248823015019298">
        <ele>143.37</ele>
        <time>2017-06-27T13:24:53Z</time>
      </trkpt>
      <trkpt lat="68.83289996534586" lon="18.248196970671415">
        <ele>142.88999999999999</ele>
        <time>2017-06-27T13:24:54Z</time>
      </trkpt>
      <trkpt lat="68.831963036209345" lon="18.241107976064086">
        <ele>142.88999999999999</ele>
        <time>2017-06-27T13:25:05Z</time>
      </trkpt>
      <trkpt lat="68.830440966412425" lon="18.231395026668906">
        <ele>148.18000000000001</ele>
        <time>2017-06-27T13:25:20Z</time>
      </trkpt>
      <trkpt lat="68.829694977030158" lon="18.226271001622081">
        <ele>150.09999999999999</ele>
        <time>2017-06-27T13:25:28Z</time>
      </trkpt>
      <trkpt lat="68.827910972759128" lon="18.220106028020382">
        <ele>152.99000000000001</ele>
        <time>2017-06-27T13:25:39Z</time>
      </trkpt>
      <trkpt lat="68.826958034187555" lon="18.217022996395826">
        <ele>160.68000000000001</ele>
        <time>2017-06-27T13:25:45Z</time>
      </trkpt>
      <trkpt lat="68.826772039756179" lon="18.216646984219551">
        <ele>162.12</ele>
        <time>2017-06-27T13:25:46Z</time>
      </trkpt>
      <trkpt lat="68.826572969555855" lon="18.216311959549785">
        <ele>164.03999999999999</ele>
        <time>2017-06-27T13:25:47Z</time>
      </trkpt>
      <trkpt lat="68.825410986319184" lon="18.214331986382604">
        <ele>166.93000000000001</ele>
        <time>2017-06-27T13:25:53Z</time>
      </trkpt>
      <trkpt lat="68.825247958302498" lon="18.213875005021691">
        <ele>166.93000000000001</ele>
        <time>2017-06-27T13:25:54Z</time>
      </trkpt>
      <trkpt lat="68.825102029368281" lon="18.21337603032589">
        <ele>166.44999999999999</ele>
        <time>2017-06-27T13:25:55Z</time>
      </trkpt>
      <trkpt lat="68.824979988858104" lon="18.212845958769321">
        <ele>166.44999999999999</ele>
        <time>2017-06-27T13:25:56Z</time>
      </trkpt>
      <trkpt lat="68.824875969439745" lon="18.212285041809082">
        <ele>165.47999999999999</ele>
        <time>2017-06-27T13:25:57Z</time>
      </trkpt>
      <trkpt lat="68.824786031618714" lon="18.211696967482567">
        <ele>163.56</ele>
        <time>2017-06-27T13:25:58Z</time>
      </trkpt>
      <trkpt lat="68.824185971170664" lon="18.206713004037738">
        <ele>159.72</ele>
        <time>2017-06-27T13:26:06Z</time>
      </trkpt>
      <trkpt lat="68.823562022298574" lon="18.198506031185389">
        <ele>133.28</ele>
        <time>2017-06-27T13:26:18Z</time>
      </trkpt>
      <trkpt lat="68.823120966553688" lon="18.193006999790668">
        <ele>116.45999999999999</ele>
        <time>2017-06-27T13:26:27Z</time>
      </trkpt>
      <trkpt lat="68.822442032396793" lon="18.190209958702326">
        <ele>103.95999999999999</ele>
        <time>2017-06-27T13:26:33Z</time>
      </trkpt>
      <trkpt lat="68.821307960897684" lon="18.188423020765185">
        <ele>95.310000000000002</ele>
        <time>2017-06-27T13:26:39Z</time>
      </trkpt>
      <trkpt lat="68.818960022181273" lon="18.186041973531246">
        <ele>90.5</ele>
        <time>2017-06-27T13:26:50Z</time>
      </trkpt>
      <trkpt lat="68.816405972465873" lon="18.182085966691375">
        <ele>92.900000000000006</ele>
        <time>2017-06-27T13:27:03Z</time>
      </trkpt>
      <trkpt lat="68.814833024516702" lon="18.181134033948183">
        <ele>96.75</ele>
        <time>2017-06-27T13:27:10Z</time>
      </trkpt>
      <trkpt lat="68.813578002154827" lon="18.181554973125458">
        <ele>94.829999999999998</ele>
        <time>2017-06-27T13:27:16Z</time>
      </trkpt>
      <trkpt lat="68.811980998143554" lon="18.183238981291652">
        <ele>91.939999999999998</ele>
        <time>2017-06-27T13:27:24Z</time>
      </trkpt>
      <trkpt lat="68.810766041278839" lon="18.183118030428886">
        <ele>90.980000000000004</ele>
        <time>2017-06-27T13:27:30Z</time>
      </trkpt>
      <trkpt lat="68.809071974828839" lon="18.181881029158831">
        <ele>92.420000000000002</ele>
        <time>2017-06-27T13:27:38Z</time>
      </trkpt>
      <trkpt lat="68.806806011125445" lon="18.180489968508482">
        <ele>92.900000000000006</ele>
        <time>2017-06-27T13:27:48Z</time>
      </trkpt>
      <trkpt lat="68.803883995860815" lon="18.180086966603994">
        <ele>94.349999999999994</ele>
        <time>2017-06-27T13:28:01Z</time>
      </trkpt>
      <trkpt lat="68.802581029012799" lon="18.180689038708806">
        <ele>95.790000000000006</ele>
        <time>2017-06-27T13:28:07Z</time>
      </trkpt>
      <trkpt lat="68.800612958148122" lon="18.182017989456654">
        <ele>98.670000000000002</ele>
        <time>2017-06-27T13:28:16Z</time>
      </trkpt>
      <trkpt lat="68.79901796579361" lon="18.181595038622618">
        <ele>100.59999999999999</ele>
        <time>2017-06-27T13:28:23Z</time>
      </trkpt>
      <trkpt lat="68.797074034810066" lon="18.179613975808024">
        <ele>99.629999999999995</ele>
        <time>2017-06-27T13:28:32Z</time>
      </trkpt>
      <trkpt lat="68.794985013082623" lon="18.178067011758685">
        <ele>100.11</ele>
        <time>2017-06-27T13:28:41Z</time>
      </trkpt>
      <trkpt lat="68.791194967925549" lon="18.177057998254895">
        <ele>101.08</ele>
        <time>2017-06-27T13:28:56Z</time>
      </trkpt>
      <trkpt lat="68.785129990428686" lon="18.175282040610909">
        <ele>105.40000000000001</ele>
        <time>2017-06-27T13:29:20Z</time>
      </trkpt>
      <trkpt lat="68.783104000613093" lon="18.173713032156229">
        <ele>108.77</ele>
        <time>2017-06-27T13:29:29Z</time>
      </trkpt>
      <trkpt lat="68.781017996370792" lon="18.1704490352422">
        <ele>111.65000000000001</ele>
        <time>2017-06-27T13:29:39Z</time>
      </trkpt>
      <trkpt lat="68.77888597548008" lon="18.167578987777233">
        <ele>117.90000000000001</ele>
        <time>2017-06-27T13:29:49Z</time>
      </trkpt>
      <trkpt lat="68.777267010882497" lon="18.166835010051727">
        <ele>121.26000000000001</ele>
        <time>2017-06-27T13:29:57Z</time>
      </trkpt>
      <trkpt lat="68.775373036041856" lon="18.167418977245688">
        <ele>124.15000000000001</ele>
        <time>2017-06-27T13:30:06Z</time>
      </trkpt>
      <trkpt lat="68.772604996338487" lon="18.168968958780169">
        <ele>125.11</ele>
        <time>2017-06-27T13:30:18Z</time>
      </trkpt>
      <trkpt lat="68.769938964396715" lon="18.169155037030578">
        <ele>124.63</ele>
        <time>2017-06-27T13:30:29Z</time>
      </trkpt>
      <trkpt lat="68.767657997086644" lon="18.16825800575316">
        <ele>127.51000000000001</ele>
        <time>2017-06-27T13:30:39Z</time>
      </trkpt>
      <trkpt lat="68.764677979052067" lon="18.16712100058794">
        <ele>131.36000000000001</ele>
        <time>2017-06-27T13:30:52Z</time>
      </trkpt>
      <trkpt lat="68.762434981763363" lon="18.166557988151908">
        <ele>128.94999999999999</ele>
        <time>2017-06-27T13:31:02Z</time>
      </trkpt>
      <trkpt lat="68.76130904071033" lon="18.164761997759342">
        <ele>128.47</ele>
        <time>2017-06-27T13:31:08Z</time>
      </trkpt>
      <trkpt lat="68.760585011914372" lon="18.16172800026834">
        <ele>128.94999999999999</ele>
        <time>2017-06-27T13:31:14Z</time>
      </trkpt>
      <trkpt lat="68.759152041748166" lon="18.154975036159158">
        <ele>132.31999999999999</ele>
        <time>2017-06-27T13:31:26Z</time>
      </trkpt>
      <trkpt lat="68.757418999448419" lon="18.147853016853333">
        <ele>136.63999999999999</ele>
        <time>2017-06-27T13:31:39Z</time>
      </trkpt>
      <trkpt lat="68.755897013470531" lon="18.140621026977897">
        <ele>138.09</ele>
        <time>2017-06-27T13:31:52Z</time>
      </trkpt>
      <trkpt lat="68.754302021116018" lon="18.135853987187147">
        <ele>140.00999999999999</ele>
        <time>2017-06-27T13:32:02Z</time>
      </trkpt>
      <trkpt lat="68.752551041543484" lon="18.131194990128279">
        <ele>142.41</ele>
        <time>2017-06-27T13:32:13Z</time>
      </trkpt>
      <trkpt lat="68.751271041110158" lon="18.126179007813334">
        <ele>145.30000000000001</ele>
        <time>2017-06-27T13:32:23Z</time>
      </trkpt>
      <trkpt lat="68.750253980979323" lon="18.123099999502301">
        <ele>148.18000000000001</ele>
        <time>2017-06-27T13:32:30Z</time>
      </trkpt>
      <trkpt lat="68.749899007380009" lon="18.122532963752747">
        <ele>148.18000000000001</ele>
        <time>2017-06-27T13:32:32Z</time>
      </trkpt>
      <trkpt lat="68.749714018777013" lon="18.122325008735061">
        <ele>148.66</ele>
        <time>2017-06-27T13:32:33Z</time>
      </trkpt>
      <trkpt lat="68.749520983546972" lon="18.122162986546755">
        <ele>150.09999999999999</ele>
        <time>2017-06-27T13:32:34Z</time>
      </trkpt>
      <trkpt lat="68.74932199716568" lon="18.122029965743423">
        <ele>151.06</ele>
        <time>2017-06-27T13:32:35Z</time>
      </trkpt>
      <trkpt lat="68.749115969985723" lon="18.12191597186029">
        <ele>152.03</ele>
        <time>2017-06-27T13:32:36Z</time>
      </trkpt>
      <trkpt lat="68.747421987354755" lon="18.12101399526">
        <ele>151.53999999999999</ele>
        <time>2017-06-27T13:32:44Z</time>
      </trkpt>
      <trkpt lat="68.746143998578191" lon="18.118634959682822">
        <ele>150.58000000000001</ele>
        <time>2017-06-27T13:32:51Z</time>
      </trkpt>
      <trkpt lat="68.74478998593986" lon="18.116601007059216">
        <ele>152.03</ele>
        <time>2017-06-27T13:32:58Z</time>
      </trkpt>
      <trkpt lat="68.743441002443433" lon="18.116349969059229">
        <ele>153.94999999999999</ele>
        <time>2017-06-27T13:33:04Z</time>
      </trkpt>
      <trkpt lat="68.740635998547077" lon="18.116418030112982">
        <ele>160.68000000000001</ele>
        <time>2017-06-27T13:33:16Z</time>
      </trkpt>
      <trkpt lat="68.738606991246343" lon="18.115123026072979">
        <ele>164.03999999999999</ele>
        <time>2017-06-27T13:33:25Z</time>
      </trkpt>
      <trkpt lat="68.736522998660803" lon="18.112310981377959">
        <ele>164.03999999999999</ele>
        <time>2017-06-27T13:33:35Z</time>
      </trkpt>
      <trkpt lat="68.734316965565085" lon="18.107968987897038">
        <ele>162.12</ele>
        <time>2017-06-27T13:33:47Z</time>
      </trkpt>
      <trkpt lat="68.732487028464675" lon="18.103533033281565">
        <ele>160.19999999999999</ele>
        <time>2017-06-27T13:33:56Z</time>
      </trkpt>
      <trkpt lat="68.731032013893127" lon="18.10101100243628">
        <ele>158.27000000000001</ele>
        <time>2017-06-27T13:34:03Z</time>
      </trkpt>
      <trkpt lat="68.729702979326248" lon="18.100112965330482">
        <ele>157.31</ele>
        <time>2017-06-27T13:34:09Z</time>
      </trkpt>
      <trkpt lat="68.727486971765757" lon="18.100214973092079">
        <ele>155.38999999999999</ele>
        <time>2017-06-27T13:34:19Z</time>
      </trkpt>
      <trkpt lat="68.7257319688797" lon="18.099608039483428">
        <ele>157.78999999999999</ele>
        <time>2017-06-27T13:34:27Z</time>
      </trkpt>
      <trkpt lat="68.723456030711532" lon="18.098702961578965">
        <ele>162.59999999999999</ele>
        <time>2017-06-27T13:34:37Z</time>
      </trkpt>
      <trkpt lat="68.72175601311028" lon="18.099747011438012">
        <ele>167.41</ele>
        <time>2017-06-27T13:34:44Z</time>
      </trkpt>
      <trkpt lat="68.720536027103662" lon="18.100978983566165">
        <ele>166.44999999999999</ele>
        <time>2017-06-27T13:34:50Z</time>
      </trkpt>
      <trkpt lat="68.718895018100739" lon="18.101894035935402">
        <ele>161.16</ele>
        <time>2017-06-27T13:34:59Z</time>
      </trkpt>
      <trkpt lat="68.717146972194314" lon="18.101426996290684">
        <ele>162.59999999999999</ele>
        <time>2017-06-27T13:35:08Z</time>
      </trkpt>
      <trkpt lat="68.714800039306283" lon="18.099826974794269">
        <ele>173.66</ele>
        <time>2017-06-27T13:35:19Z</time>
      </trkpt>
      <trkpt lat="68.712635999545455" lon="18.099963013082743">
        <ele>186.15000000000001</ele>
        <time>2017-06-27T13:35:28Z</time>
      </trkpt>
      <trkpt lat="68.707974990829825" lon="18.10038797557354">
        <ele>209.69999999999999</ele>
        <time>2017-06-27T13:35:47Z</time>
      </trkpt>
      <trkpt lat="68.705394035205245" lon="18.099974999204278">
        <ele>219.31999999999999</ele>
        <time>2017-06-27T13:35:57Z</time>
      </trkpt>
      <trkpt lat="68.703400986269116" lon="18.098129974678159">
        <ele>225.56999999999999</ele>
        <time>2017-06-27T13:36:05Z</time>
      </trkpt>
      <trkpt lat="68.69938999414444" lon="18.093713968992233">
        <ele>230.37</ele>
        <time>2017-06-27T13:36:21Z</time>
      </trkpt>
      <trkpt lat="68.697256967425346" lon="18.091972963884473">
        <ele>242.87</ele>
        <time>2017-06-27T13:36:30Z</time>
      </trkpt>
      <trkpt lat="68.695830032229424" lon="18.089642040431499">
        <ele>255.37</ele>
        <time>2017-06-27T13:36:37Z</time>
      </trkpt>
      <trkpt lat="68.694540979340672" lon="18.086754977703094">
        <ele>264.01999999999998</ele>
        <time>2017-06-27T13:36:43Z</time>
      </trkpt>
      <trkpt lat="68.693083031103015" lon="18.083530040457845">
        <ele>271.23000000000002</ele>
        <time>2017-06-27T13:36:50Z</time>
      </trkpt>
      <trkpt lat="68.691224008798599" lon="18.078845981508493">
        <ele>280.36000000000001</ele>
        <time>2017-06-27T13:37:00Z</time>
      </trkpt>
      <trkpt lat="68.69053702801466" lon="18.075045961886644">
        <ele>289.49000000000001</ele>
        <time>2017-06-27T13:37:06Z</time>
      </trkpt>
      <trkpt lat="68.690317003056407" lon="18.070708997547626">
        <ele>297.18000000000001</ele>
        <time>2017-06-27T13:37:12Z</time>
      </trkpt>
      <trkpt lat="68.69064699858427" lon="18.066297015175223">
        <ele>301.02999999999997</ele>
        <time>2017-06-27T13:37:18Z</time>
      </trkpt>
      <trkpt lat="68.691434981301427" lon="18.060851041227579">
        <ele>311.12</ele>
        <time>2017-06-27T13:37:26Z</time>
      </trkpt>
      <trkpt lat="68.691550986841321" lon="18.057110030204058">
        <ele>318.32999999999998</ele>
        <time>2017-06-27T13:37:32Z</time>
      </trkpt>
      <trkpt lat="68.69111898355186" lon="18.053548978641629">
        <ele>324.57999999999998</ele>
        <time>2017-06-27T13:37:38Z</time>
      </trkpt>
      <trkpt lat="68.690183982253075" lon="18.050704998895526">
        <ele>330.82999999999998</ele>
        <time>2017-06-27T13:37:44Z</time>
      </trkpt>
      <trkpt lat="68.688251031562686" lon="18.047075970098376">
        <ele>332.75</ele>
        <time>2017-06-27T13:37:54Z</time>
      </trkpt>
      <trkpt lat="68.688098983839154" lon="18.046668022871017">
        <ele>332.75</ele>
        <time>2017-06-27T13:37:55Z</time>
      </trkpt>
      <trkpt lat="68.687965041026473" lon="18.046211041510105">
        <ele>332.26999999999998</ele>
        <time>2017-06-27T13:37:56Z</time>
      </trkpt>
      <trkpt lat="68.68785297498107" lon="18.045722041279078">
        <ele>331.79000000000002</ele>
        <time>2017-06-27T13:37:57Z</time>
      </trkpt>
      <trkpt lat="68.687768988311291" lon="18.045202028006315">
        <ele>331.31</ele>
        <time>2017-06-27T13:37:58Z</time>
      </trkpt>
      <trkpt lat="68.687706040218472" lon="18.044657958671451">
        <ele>330.82999999999998</ele>
        <time>2017-06-27T13:37:59Z</time>
      </trkpt>
      <trkpt lat="68.687671003863215" lon="18.044099975377321">
        <ele>330.82999999999998</ele>
        <time>2017-06-27T13:38:00Z</time>
      </trkpt>
      <trkpt lat="68.687665974721313" lon="18.043525982648134">
        <ele>330.35000000000002</ele>
        <time>2017-06-27T13:38:01Z</time>
      </trkpt>
      <trkpt lat="68.687676033005118" lon="18.042942015454173">
        <ele>329.38999999999999</ele>
        <time>2017-06-27T13:38:02Z</time>
      </trkpt>
      <trkpt lat="68.68770101107657" lon="18.0423569586128">
        <ele>328.91000000000003</ele>
        <time>2017-06-27T13:38:03Z</time>
      </trkpt>
      <trkpt lat="68.687736969441175" lon="18.041765028610826">
        <ele>327.94999999999999</ele>
        <time>2017-06-27T13:38:04Z</time>
      </trkpt>
      <trkpt lat="68.688076017424464" lon="18.038287041708827">
        <ele>320.25999999999999</ele>
        <time>2017-06-27T13:38:10Z</time>
      </trkpt>
      <trkpt lat="68.688085991889238" lon="18.037740960717201">
        <ele>319.30000000000001</ele>
        <time>2017-06-27T13:38:11Z</time>
      </trkpt>
      <trkpt lat="68.688077023252845" lon="18.037190018221736">
        <ele>317.85000000000002</ele>
        <time>2017-06-27T13:38:12Z</time>
      </trkpt>
      <trkpt lat="68.68804601021111" lon="18.036641003564">
        <ele>316.88999999999999</ele>
        <time>2017-06-27T13:38:13Z</time>
      </trkpt>
      <trkpt lat="68.68800200521946" lon="18.036088971421123">
        <ele>315.44999999999999</ele>
        <time>2017-06-27T13:38:14Z</time>
      </trkpt>
      <trkpt lat="68.687950037419796" lon="18.035542974248528">
        <ele>314.00999999999999</ele>
        <time>2017-06-27T13:38:15Z</time>
      </trkpt>
      <trkpt lat="68.687620963901281" lon="18.031594008207321">
        <ele>306.31999999999999</ele>
        <time>2017-06-27T13:38:22Z</time>
      </trkpt>
      <trkpt lat="68.687747027724981" lon="18.026840966194868">
        <ele>299.58999999999997</ele>
        <time>2017-06-27T13:38:30Z</time>
      </trkpt>
      <trkpt lat="68.687695981934667" lon="18.026291029527783">
        <ele>299.11000000000001</ele>
        <time>2017-06-27T13:38:31Z</time>
      </trkpt>
      <trkpt lat="68.687624987214804" lon="18.025756012648344">
        <ele>298.63</ele>
        <time>2017-06-27T13:38:32Z</time>
      </trkpt>
      <trkpt lat="68.686707001179457" lon="18.020840026438236">
        <ele>291.42000000000002</ele>
        <time>2017-06-27T13:38:41Z</time>
      </trkpt>
      <trkpt lat="68.686532992869616" lon="18.019061973318458">
        <ele>288.05000000000001</ele>
        <time>2017-06-27T13:38:44Z</time>
      </trkpt>
      <trkpt lat="68.686535004526377" lon="18.018467025831342">
        <ele>286.61000000000001</ele>
        <time>2017-06-27T13:38:45Z</time>
      </trkpt>
      <trkpt lat="68.686560988426208" lon="18.017882974818349">
        <ele>285.64999999999998</ele>
        <time>2017-06-27T13:38:46Z</time>
      </trkpt>
      <trkpt lat="68.68660599924624" lon="18.017317028716207">
        <ele>284.20999999999998</ele>
        <time>2017-06-27T13:38:47Z</time>
      </trkpt>
      <trkpt lat="68.686674982309341" lon="18.016787962988019">
        <ele>282.76999999999998</ele>
        <time>2017-06-27T13:38:48Z</time>
      </trkpt>
      <trkpt lat="68.686761986464262" lon="18.016270967200398">
        <ele>281.80000000000001</ele>
        <time>2017-06-27T13:38:49Z</time>
      </trkpt>
      <trkpt lat="68.68686399422586" lon="18.015774004161358">
        <ele>280.36000000000001</ele>
        <time>2017-06-27T13:38:50Z</time>
      </trkpt>
      <trkpt lat="68.68697103112936" lon="18.015262959524989">
        <ele>279.39999999999998</ele>
        <time>2017-06-27T13:38:51Z</time>
      </trkpt>
      <trkpt lat="68.687277976423502" lon="18.013135967776179">
        <ele>275.06999999999999</ele>
        <time>2017-06-27T13:38:55Z</time>
      </trkpt>
      <trkpt lat="68.687309995293617" lon="18.01255501806736">
        <ele>273.63</ele>
        <time>2017-06-27T13:38:56Z</time>
      </trkpt>
      <trkpt lat="68.687322987243533" lon="18.011969961225986">
        <ele>272.67000000000002</ele>
        <time>2017-06-27T13:38:57Z</time>
      </trkpt>
      <trkpt lat="68.687317036092281" lon="18.011373002082109">
        <ele>271.70999999999998</ele>
        <time>2017-06-27T13:38:58Z</time>
      </trkpt>
      <trkpt lat="68.687311001121998" lon="18.010771013796329">
        <ele>270.26999999999998</ele>
        <time>2017-06-27T13:38:59Z</time>
      </trkpt>
      <trkpt lat="68.687274036929011" lon="18.010157961398363">
        <ele>268.82999999999998</ele>
        <time>2017-06-27T13:39:00Z</time>
      </trkpt>
      <trkpt lat="68.687225002795458" lon="18.009563013911247">
        <ele>267.38</ele>
        <time>2017-06-27T13:39:01Z</time>
      </trkpt>
      <trkpt lat="68.687159037217498" lon="18.00898902118206">
        <ele>266.42000000000002</ele>
        <time>2017-06-27T13:39:02Z</time>
      </trkpt>
      <trkpt lat="68.687089970335364" lon="18.008421985432506">
        <ele>264.98000000000002</ele>
        <time>2017-06-27T13:39:03Z</time>
      </trkpt>
      <trkpt lat="68.686224035918713" lon="18.001836994662881">
        <ele>246.22999999999999</ele>
        <time>2017-06-27T13:39:15Z</time>
      </trkpt>
      <trkpt lat="68.68619997985661" lon="18.000700995326042">
        <ele>243.83000000000001</ele>
        <time>2017-06-27T13:39:17Z</time>
      </trkpt>
      <trkpt lat="68.686216995120049" lon="18.000125996768475">
        <ele>242.87</ele>
        <time>2017-06-27T13:39:18Z</time>
      </trkpt>
      <trkpt lat="68.686508014798164" lon="17.994626965373755">
        <ele>229.88999999999999</ele>
        <time>2017-06-27T13:39:28Z</time>
      </trkpt>
      <trkpt lat="68.686903975903988" lon="17.989536970853806">
        <ele>216.91</ele>
        <time>2017-06-27T13:39:38Z</time>
      </trkpt>
      <trkpt lat="68.68772498331964" lon="17.986562987789512">
        <ele>209.22</ele>
        <time>2017-06-27T13:39:45Z</time>
      </trkpt>
      <trkpt lat="68.688682029023767" lon="17.982702031731606">
        <ele>207.78</ele>
        <time>2017-06-27T13:39:54Z</time>
      </trkpt>
      <trkpt lat="68.689187038689852" lon="17.977779004722834">
        <ele>208.74000000000001</ele>
        <time>2017-06-27T13:40:03Z</time>
      </trkpt>
      <trkpt lat="68.689953982830048" lon="17.971554016694427">
        <ele>210.66999999999999</ele>
        <time>2017-06-27T13:40:14Z</time>
      </trkpt>
      <trkpt lat="68.690826036036015" lon="17.966654039919376">
        <ele>223.16</ele>
        <time>2017-06-27T13:40:24Z</time>
      </trkpt>
      <trkpt lat="68.690856965258718" lon="17.964080963283777">
        <ele>229.88999999999999</ele>
        <time>2017-06-27T13:40:29Z</time>
      </trkpt>
      <trkpt lat="68.690816983580589" lon="17.963571008294821">
        <ele>231.33000000000001</ele>
        <time>2017-06-27T13:40:30Z</time>
      </trkpt>
      <trkpt lat="68.690755041316152" lon="17.963071027770638">
        <ele>232.78</ele>
        <time>2017-06-27T13:40:31Z</time>
      </trkpt>
      <trkpt lat="68.690679017454386" lon="17.962569035589695">
        <ele>234.22</ele>
        <time>2017-06-27T13:40:32Z</time>
      </trkpt>
      <trkpt lat="68.69058002717793" lon="17.962082969024777">
        <ele>235.66</ele>
        <time>2017-06-27T13:40:33Z</time>
      </trkpt>
      <trkpt lat="68.690467961132526" lon="17.961610984057188">
        <ele>237.09999999999999</ele>
        <time>2017-06-27T13:40:34Z</time>
      </trkpt>
      <trkpt lat="68.690338041633368" lon="17.961170012131333">
        <ele>238.53999999999999</ele>
        <time>2017-06-27T13:40:35Z</time>
      </trkpt>
      <trkpt lat="68.69019404053688" lon="17.960760975256562">
        <ele>239.99000000000001</ele>
        <time>2017-06-27T13:40:36Z</time>
      </trkpt>
      <trkpt lat="68.690032018348575" lon="17.960392003878951">
        <ele>241.43000000000001</ele>
        <time>2017-06-27T13:40:37Z</time>
      </trkpt>
      <trkpt lat="68.689865972846746" lon="17.960070976987481">
        <ele>242.87</ele>
        <time>2017-06-27T13:40:38Z</time>
      </trkpt>
      <trkpt lat="68.689691964536905" lon="17.959794038906693">
        <ele>244.78999999999999</ele>
        <time>2017-06-27T13:40:39Z</time>
      </trkpt>
      <trkpt lat="68.689509993419051" lon="17.959564039483666">
        <ele>246.22999999999999</ele>
        <time>2017-06-27T13:40:40Z</time>
      </trkpt>
      <trkpt lat="68.689319975674152" lon="17.959379972890019">
        <ele>247.68000000000001</ele>
        <time>2017-06-27T13:40:41Z</time>
      </trkpt>
      <trkpt lat="68.689119983464479" lon="17.959239995107055">
        <ele>249.12</ele>
        <time>2017-06-27T13:40:42Z</time>
      </trkpt>
      <trkpt lat="68.688914040103555" lon="17.959127007052302">
        <ele>250.56</ele>
        <time>2017-06-27T13:40:43Z</time>
      </trkpt>
      <trkpt lat="68.686763998121023" lon="17.958152024075389">
        <ele>262.10000000000002</ele>
        <time>2017-06-27T13:40:53Z</time>
      </trkpt>
      <trkpt lat="68.686565011739731" lon="17.957912972196937">
        <ele>263.06</ele>
        <time>2017-06-27T13:40:54Z</time>
      </trkpt>
      <trkpt lat="68.686378011479974" lon="17.957627987489104">
        <ele>264.01999999999998</ele>
        <time>2017-06-27T13:40:55Z</time>
      </trkpt>
      <trkpt lat="68.686197968199849" lon="17.957281982526183">
        <ele>264.5</ele>
        <time>2017-06-27T13:40:56Z</time>
      </trkpt>
      <trkpt lat="68.686037035658956" lon="17.956897001713514">
        <ele>264.98000000000002</ele>
        <time>2017-06-27T13:40:57Z</time>
      </trkpt>
      <trkpt lat="68.685890017077327" lon="17.956466004252434">
        <ele>264.98000000000002</ele>
        <time>2017-06-27T13:40:58Z</time>
      </trkpt>
      <trkpt lat="68.685762025415897" lon="17.955998964607716">
        <ele>265.45999999999998</ele>
        <time>2017-06-27T13:40:59Z</time>
      </trkpt>
      <trkpt lat="68.685649037361145" lon="17.955499989911914">
        <ele>265.94</ele>
        <time>2017-06-27T13:41:00Z</time>
      </trkpt>
      <trkpt lat="68.685550969094038" lon="17.954966984689236">
        <ele>266.89999999999998</ele>
        <time>2017-06-27T13:41:01Z</time>
      </trkpt>
      <trkpt lat="68.685463964939117" lon="17.954406989738345">
        <ele>267.38</ele>
        <time>2017-06-27T13:41:02Z</time>
      </trkpt>
      <trkpt lat="68.685384001582861" lon="17.953813970088959">
        <ele>268.35000000000002</ele>
        <time>2017-06-27T13:41:03Z</time>
      </trkpt>
      <trkpt lat="68.684754017740488" lon="17.949652019888163">
        <ele>277.95999999999998</ele>
        <time>2017-06-27T13:41:10Z</time>
      </trkpt>
      <trkpt lat="68.684626026079059" lon="17.949192021042109">
        <ele>278.92000000000002</ele>
        <time>2017-06-27T13:41:11Z</time>
      </trkpt>
      <trkpt lat="68.684476995840669" lon="17.948804022744298">
        <ele>280.36000000000001</ele>
        <time>2017-06-27T13:41:12Z</time>
      </trkpt>
      <trkpt lat="68.684321008622646" lon="17.948446031659842">
        <ele>281.80000000000001</ele>
        <time>2017-06-27T13:41:13Z</time>
      </trkpt>
      <trkpt lat="68.684151023626328" lon="17.94814202003181">
        <ele>282.76999999999998</ele>
        <time>2017-06-27T13:41:14Z</time>
      </trkpt>
      <trkpt lat="68.683969974517822" lon="17.947869021445513">
        <ele>284.20999999999998</ele>
        <time>2017-06-27T13:41:15Z</time>
      </trkpt>
      <trkpt lat="68.683780962601304" lon="17.947619995102286">
        <ele>286.13</ele>
        <time>2017-06-27T13:41:16Z</time>
      </trkpt>
      <trkpt lat="68.683581976220012" lon="17.947423020377755">
        <ele>287.56999999999999</ele>
        <time>2017-06-27T13:41:17Z</time>
      </trkpt>
      <trkpt lat="68.683377960696816" lon="17.947240965440869">
        <ele>289.00999999999999</ele>
        <time>2017-06-27T13:41:18Z</time>
      </trkpt>
      <trkpt lat="68.682213965803385" lon="17.946099014952779">
        <ele>298.14999999999998</ele>
        <time>2017-06-27T13:41:24Z</time>
      </trkpt>
      <trkpt lat="68.682053033262491" lon="17.945815036073327">
        <ele>299.58999999999997</ele>
        <time>2017-06-27T13:41:25Z</time>
      </trkpt>
      <trkpt lat="68.681906014680862" lon="17.945466013625264">
        <ele>300.55000000000001</ele>
        <time>2017-06-27T13:41:26Z</time>
      </trkpt>
      <trkpt lat="68.681780034676194" lon="17.945086983963847">
        <ele>301.50999999999999</ele>
        <time>2017-06-27T13:41:27Z</time>
      </trkpt>
      <trkpt lat="68.681672997772694" lon="17.944670990109444">
        <ele>303.43000000000001</ele>
        <time>2017-06-27T13:41:28Z</time>
      </trkpt>
      <trkpt lat="68.681585993617773" lon="17.944215014576912">
        <ele>304.88</ele>
        <time>2017-06-27T13:41:29Z</time>
      </trkpt>
      <trkpt lat="68.681512987241149" lon="17.943724002689123">
        <ele>306.31999999999999</ele>
        <time>2017-06-27T13:41:30Z</time>
      </trkpt>
      <trkpt lat="68.68144802749157" lon="17.943203989416361">
        <ele>307.27999999999997</ele>
        <time>2017-06-27T13:41:31Z</time>
      </trkpt>
      <trkpt lat="68.681389018893242" lon="17.942660003900528">
        <ele>307.75999999999999</ele>
        <time>2017-06-27T13:41:32Z</time>
      </trkpt>
      <trkpt lat="68.680753000080585" lon="17.936500981450081">
        <ele>317.85000000000002</ele>
        <time>2017-06-27T13:41:42Z</time>
      </trkpt>
      <trkpt lat="68.680587038397789" lon="17.934080958366394">
        <ele>321.69999999999999</ele>
        <time>2017-06-27T13:41:46Z</time>
      </trkpt>
      <trkpt lat="68.680585026741028" lon="17.933505959808826">
        <ele>322.18000000000001</ele>
        <time>2017-06-27T13:41:47Z</time>
      </trkpt>
      <trkpt lat="68.680595001205802" lon="17.932926015928388">
        <ele>322.66000000000003</ele>
        <time>2017-06-27T13:41:48Z</time>
      </trkpt>
      <trkpt lat="68.680742019787431" lon="17.928094016388059">
        <ele>326.5</ele>
        <time>2017-06-27T13:41:56Z</time>
      </trkpt>
      <trkpt lat="68.680673958733678" lon="17.926945025101304">
        <ele>327.94999999999999</ele>
        <time>2017-06-27T13:41:58Z</time>
      </trkpt>
      <trkpt lat="68.680613022297621" lon="17.926393998786807">
        <ele>328.43000000000001</ele>
        <time>2017-06-27T13:41:59Z</time>
      </trkpt>
      <trkpt lat="68.680534986779094" lon="17.925855964422226">
        <ele>329.38999999999999</ele>
        <time>2017-06-27T13:42:00Z</time>
      </trkpt>
      <trkpt lat="68.679382978007197" lon="17.919897018000484">
        <ele>341.41000000000003</ele>
        <time>2017-06-27T13:42:11Z</time>
      </trkpt>
      <trkpt lat="68.678062995895743" lon="17.913732966408134">
        <ele>346.20999999999998</ele>
        <time>2017-06-27T13:42:22Z</time>
      </trkpt>
      <trkpt lat="68.676258036866784" lon="17.907737977802753">
        <ele>348.13</ele>
        <time>2017-06-27T13:42:33Z</time>
      </trkpt>
      <trkpt lat="68.67474895901978" lon="17.90282903239131">
        <ele>342.85000000000002</ele>
        <time>2017-06-27T13:42:43Z</time>
      </trkpt>
      <trkpt lat="68.672725986689329" lon="17.896301038563251">
        <ele>350.54000000000002</ele>
        <time>2017-06-27T13:42:57Z</time>
      </trkpt>
      <trkpt lat="68.672135984525084" lon="17.893108958378434">
        <ele>357.75</ele>
        <time>2017-06-27T13:43:03Z</time>
      </trkpt>
      <trkpt lat="68.671887964010239" lon="17.888861009851098">
        <ele>366.88</ele>
        <time>2017-06-27T13:43:10Z</time>
      </trkpt>
      <trkpt lat="68.671492002904415" lon="17.879461040720344">
        <ele>385.63</ele>
        <time>2017-06-27T13:43:26Z</time>
      </trkpt>
      <trkpt lat="68.670872999355197" lon="17.875103037804365">
        <ele>394.27999999999997</ele>
        <time>2017-06-27T13:43:34Z</time>
      </trkpt>
      <trkpt lat="68.669555028900504" lon="17.866067010909319">
        <ele>412.06</ele>
        <time>2017-06-27T13:43:51Z</time>
      </trkpt>
      <trkpt lat="68.668594965711236" lon="17.859438015148044">
        <ele>420.70999999999998</ele>
        <time>2017-06-27T13:44:04Z</time>
      </trkpt>
      <trkpt lat="68.667199965566397" lon="17.852176018059254">
        <ele>421.19</ele>
        <time>2017-06-27T13:44:19Z</time>
      </trkpt>
      <trkpt lat="68.666049968451262" lon="17.844812013208866">
        <ele>422.16000000000003</ele>
        <time>2017-06-27T13:44:33Z</time>
      </trkpt>
      <trkpt lat="68.665460972115397" lon="17.838059971109033">
        <ele>422.63999999999999</ele>
        <time>2017-06-27T13:44:46Z</time>
      </trkpt>
      <trkpt lat="68.665516041219234" lon="17.83319796435535">
        <ele>420.23000000000002</ele>
        <time>2017-06-27T13:44:55Z</time>
      </trkpt>
      <trkpt lat="68.665780993178487" lon="17.82470902428031">
        <ele>403.88999999999999</ele>
        <time>2017-06-27T13:45:09Z</time>
      </trkpt>
      <trkpt lat="68.666178965941072" lon="17.819808041676879">
        <ele>393.80000000000001</ele>
        <time>2017-06-27T13:45:17Z</time>
      </trkpt>
      <trkpt lat="68.667276995256543" lon="17.812713012099266">
        <ele>380.81999999999999</ele>
        <time>2017-06-27T13:45:30Z</time>
      </trkpt>
      <trkpt lat="68.667767001315951" lon="17.808053009212017">
        <ele>374.56999999999999</ele>
        <time>2017-06-27T13:45:39Z</time>
      </trkpt>
      <trkpt lat="68.667753003537655" lon="17.803382026031613">
        <ele>372.17000000000002</ele>
        <time>2017-06-27T13:45:48Z</time>
      </trkpt>
      <trkpt lat="68.667716961354017" lon="17.798723028972745">
        <ele>370.24000000000001</ele>
        <time>2017-06-27T13:45:58Z</time>
      </trkpt>
      <trkpt lat="68.668024996295571" lon="17.793725989758968">
        <ele>367.83999999999997</ele>
        <time>2017-06-27T13:46:10Z</time>
      </trkpt>
      <trkpt lat="68.66791401989758" lon="17.78938801959157">
        <ele>360.14999999999998</ele>
        <time>2017-06-27T13:46:20Z</time>
      </trkpt>
      <trkpt lat="68.667299961671233" lon="17.785647008568048">
        <ele>349.57999999999998</ele>
        <time>2017-06-27T13:46:29Z</time>
      </trkpt>
      <trkpt lat="68.66628197953105" lon="17.782651986926794">
        <ele>339.48000000000002</ele>
        <time>2017-06-27T13:46:38Z</time>
      </trkpt>
      <trkpt lat="68.664808021858335" lon="17.78002099134028">
        <ele>327.47000000000003</ele>
        <time>2017-06-27T13:46:48Z</time>
      </trkpt>
      <trkpt lat="68.664104025810957" lon="17.777521004900336">
        <ele>319.77999999999997</ele>
        <time>2017-06-27T13:46:55Z</time>
      </trkpt>
      <trkpt lat="68.663705969229341" lon="17.773957019671798">
        <ele>310.63999999999999</ele>
        <time>2017-06-27T13:47:03Z</time>
      </trkpt>
      <trkpt lat="68.663127031177282" lon="17.77112795971334">
        <ele>302.94999999999999</ele>
        <time>2017-06-27T13:47:10Z</time>
      </trkpt>
      <trkpt lat="68.662159005180001" lon="17.768922010436654">
        <ele>294.77999999999997</ele>
        <time>2017-06-27T13:47:17Z</time>
      </trkpt>
      <trkpt lat="68.661043038591743" lon="17.765456009656191">
        <ele>285.17000000000002</ele>
        <time>2017-06-27T13:47:26Z</time>
      </trkpt>
      <trkpt lat="68.660254972055554" lon="17.760483026504517">
        <ele>276.51999999999998</ele>
        <time>2017-06-27T13:47:36Z</time>
      </trkpt>
      <trkpt lat="68.65919197909534" lon="17.752139009535313">
        <ele>262.10000000000002</ele>
        <time>2017-06-27T13:47:52Z</time>
      </trkpt>
      <trkpt lat="68.659053007140756" lon="17.746908031404018">
        <ele>253.93000000000001</ele>
        <time>2017-06-27T13:48:01Z</time>
      </trkpt>
      <trkpt lat="68.659263979643583" lon="17.738936003297567">
        <ele>241.43000000000001</ele>
        <time>2017-06-27T13:48:14Z</time>
      </trkpt>
      <trkpt lat="68.659347966313362" lon="17.733822958543897">
        <ele>234.22</ele>
        <time>2017-06-27T13:48:24Z</time>
      </trkpt>
      <trkpt lat="68.659171024337411" lon="17.727355984970927">
        <ele>225.09</ele>
        <time>2017-06-27T13:48:36Z</time>
      </trkpt>
      <trkpt lat="68.658773973584175" lon="17.722849035635591">
        <ele>218.84</ele>
        <time>2017-06-27T13:48:43Z</time>
      </trkpt>
      <trkpt lat="68.658209033310413" lon="17.717251013964415">
        <ele>214.03</ele>
        <time>2017-06-27T13:48:52Z</time>
      </trkpt>
      <trkpt lat="68.657476035878062" lon="17.712216004729271">
        <ele>216.91</ele>
        <time>2017-06-27T13:49:02Z</time>
      </trkpt>
      <trkpt lat="68.656627032905817" lon="17.709966972470284">
        <ele>215.94999999999999</ele>
        <time>2017-06-27T13:49:08Z</time>
      </trkpt>
      <trkpt lat="68.65536798723042" lon="17.70841296762228">
        <ele>211.15000000000001</ele>
        <time>2017-06-27T13:49:14Z</time>
      </trkpt>
      <trkpt lat="68.654195023700595" lon="17.706431988626719">
        <ele>206.34</ele>
        <time>2017-06-27T13:49:20Z</time>
      </trkpt>
      <trkpt lat="68.654052028432488" lon="17.705987999215722">
        <ele>205.38</ele>
        <time>2017-06-27T13:49:21Z</time>
      </trkpt>
      <trkpt lat="68.653925964608788" lon="17.705507967621088">
        <ele>205.38</ele>
        <time>2017-06-27T13:49:22Z</time>
      </trkpt>
      <trkpt lat="68.653811970725656" lon="17.705003963783383">
        <ele>204.41999999999999</ele>
        <time>2017-06-27T13:49:23Z</time>
      </trkpt>
      <trkpt lat="68.65371398627758" lon="17.70448001101613">
        <ele>204.41999999999999</ele>
        <time>2017-06-27T13:49:24Z</time>
      </trkpt>
      <trkpt lat="68.653629999607801" lon="17.703928984701633">
        <ele>203.94</ele>
        <time>2017-06-27T13:49:25Z</time>
      </trkpt>
      <trkpt lat="68.6535610165447" lon="17.703358009457588">
        <ele>202.97999999999999</ele>
        <time>2017-06-27T13:49:26Z</time>
      </trkpt>
      <trkpt lat="68.653507037088275" lon="17.702769013121724">
        <ele>202.49000000000001</ele>
        <time>2017-06-27T13:49:27Z</time>
      </trkpt>
      <trkpt lat="68.653464037925005" lon="17.702179010957479">
        <ele>202.00999999999999</ele>
        <time>2017-06-27T13:49:28Z</time>
      </trkpt>
      <trkpt lat="68.653161032125354" lon="17.696695988997817">
        <ele>196.25</ele>
        <time>2017-06-27T13:49:38Z</time>
      </trkpt>
      <trkpt lat="68.652634983882308" lon="17.693468034267426">
        <ele>194.31999999999999</ele>
        <time>2017-06-27T13:49:46Z</time>
      </trkpt>
      <trkpt lat="68.65171599201858" lon="17.690817005932331">
        <ele>195.77000000000001</ele>
        <time>2017-06-27T13:49:54Z</time>
      </trkpt>
      <trkpt lat="68.649687990546227" lon="17.686978010460734">
        <ele>201.05000000000001</ele>
        <time>2017-06-27T13:50:08Z</time>
      </trkpt>
      <trkpt lat="68.648381000384688" lon="17.684573996812105">
        <ele>205.86000000000001</ele>
        <time>2017-06-27T13:50:15Z</time>
      </trkpt>
      <trkpt lat="68.646002970635891" lon="17.680409029126167">
        <ele>209.22</ele>
        <time>2017-06-27T13:50:26Z</time>
      </trkpt>
      <trkpt lat="68.644734034314752" lon="17.679902007803321">
        <ele>212.11000000000001</ele>
        <time>2017-06-27T13:50:31Z</time>
      </trkpt>
      <trkpt lat="68.642080994322896" lon="17.679821960628033">
        <ele>219.31999999999999</ele>
        <time>2017-06-27T13:50:41Z</time>
      </trkpt>
      <trkpt lat="68.640788001939654" lon="17.679089969024062">
        <ele>222.68000000000001</ele>
        <time>2017-06-27T13:50:47Z</time>
      </trkpt>
      <trkpt lat="68.639025036245584" lon="17.677683988586068">
        <ele>231.33000000000001</ele>
        <time>2017-06-27T13:50:55Z</time>
      </trkpt>
      <trkpt lat="68.635828010737896" lon="17.676210030913353">
        <ele>244.31</ele>
        <time>2017-06-27T13:51:09Z</time>
      </trkpt>
      <trkpt lat="68.634370984509587" lon="17.674126038327813">
        <ele>241.91</ele>
        <time>2017-06-27T13:51:16Z</time>
      </trkpt>
      <trkpt lat="68.63351603038609" lon="17.673473004251719">
        <ele>241.91</ele>
        <time>2017-06-27T13:51:20Z</time>
      </trkpt>
      <trkpt lat="68.633302040398121" lon="17.673434028401971">
        <ele>242.38999999999999</ele>
        <time>2017-06-27T13:51:21Z</time>
      </trkpt>
      <trkpt lat="68.63308603875339" lon="17.673452971503139">
        <ele>242.87</ele>
        <time>2017-06-27T13:51:22Z</time>
      </trkpt>
      <trkpt lat="68.632867019623518" lon="17.673520026728511">
        <ele>242.38999999999999</ele>
        <time>2017-06-27T13:51:23Z</time>
      </trkpt>
      <trkpt lat="68.632645988836884" lon="17.673632008954883">
        <ele>241.91</ele>
        <time>2017-06-27T13:51:24Z</time>
      </trkpt>
      <trkpt lat="68.630867013707757" lon="17.674502972513437">
        <ele>245.27000000000001</ele>
        <time>2017-06-27T13:51:32Z</time>
      </trkpt>
      <trkpt lat="68.630652017891407" lon="17.674469025805593">
        <ele>245.75</ele>
        <time>2017-06-27T13:51:33Z</time>
      </trkpt>
      <trkpt lat="68.630439033731818" lon="17.674373975023627">
        <ele>246.22999999999999</ele>
        <time>2017-06-27T13:51:34Z</time>
      </trkpt>
      <trkpt lat="68.630227977409959" lon="17.674213964492083">
        <ele>246.72</ele>
        <time>2017-06-27T13:51:35Z</time>
      </trkpt>
      <trkpt lat="68.630018010735512" lon="17.674012966454029">
        <ele>247.19999999999999</ele>
        <time>2017-06-27T13:51:36Z</time>
      </trkpt>
      <trkpt lat="68.629807038232684" lon="17.673752959817648">
        <ele>247.19999999999999</ele>
        <time>2017-06-27T13:51:37Z</time>
      </trkpt>
      <trkpt lat="68.629606040194631" lon="17.67345598898828">
        <ele>247.19999999999999</ele>
        <time>2017-06-27T13:51:38Z</time>
      </trkpt>
      <trkpt lat="68.629411999136209" lon="17.67311199568212">
        <ele>247.68000000000001</ele>
        <time>2017-06-27T13:51:39Z</time>
      </trkpt>
      <trkpt lat="68.629221981391311" lon="17.672731038182974">
        <ele>247.68000000000001</ele>
        <time>2017-06-27T13:51:40Z</time>
      </trkpt>
      <trkpt lat="68.627852965146303" lon="17.670348985120654">
        <ele>257.29000000000002</ele>
        <time>2017-06-27T13:51:47Z</time>
      </trkpt>
      <trkpt lat="68.626386970281601" lon="17.668282007798553">
        <ele>267.38</ele>
        <time>2017-06-27T13:51:54Z</time>
      </trkpt>
      <trkpt lat="68.623779024928808" lon="17.663343977183104">
        <ele>278.92000000000002</ele>
        <time>2017-06-27T13:52:07Z</time>
      </trkpt>
      <trkpt lat="68.622713014483452" lon="17.659455025568604">
        <ele>282.76999999999998</ele>
        <time>2017-06-27T13:52:14Z</time>
      </trkpt>
      <trkpt lat="68.620108002796769" lon="17.64823199249804">
        <ele>279.88</ele>
        <time>2017-06-27T13:52:33Z</time>
      </trkpt>
      <trkpt lat="68.618960017338395" lon="17.64380500651896">
        <ele>271.23000000000002</ele>
        <time>2017-06-27T13:52:42Z</time>
      </trkpt>
      <trkpt lat="68.618086036294699" lon="17.642614021897316">
        <ele>267.86000000000001</ele>
        <time>2017-06-27T13:52:48Z</time>
      </trkpt>
      <trkpt lat="68.617910016328096" lon="17.642525006085634">
        <ele>267.38</ele>
        <time>2017-06-27T13:52:49Z</time>
      </trkpt>
      <trkpt lat="68.616523984819651" lon="17.641856968402863">
        <ele>265.94</ele>
        <time>2017-06-27T13:52:56Z</time>
      </trkpt>
      <trkpt lat="68.616335978731513" lon="17.64163501560688">
        <ele>265.45999999999998</ele>
        <time>2017-06-27T13:52:57Z</time>
      </trkpt>
      <trkpt lat="68.616153001785278" lon="17.641374003142118">
        <ele>265.45999999999998</ele>
        <time>2017-06-27T13:52:58Z</time>
      </trkpt>
      <trkpt lat="68.614701004698873" lon="17.638985998928547">
        <ele>265.94</ele>
        <time>2017-06-27T13:53:06Z</time>
      </trkpt>
      <trkpt lat="68.612972991541028" lon="17.637897022068501">
        <ele>265.45999999999998</ele>
        <time>2017-06-27T13:53:14Z</time>
      </trkpt>
      <trkpt lat="68.610611977055669" lon="17.637248011305928">
        <ele>263.06</ele>
        <time>2017-06-27T13:53:24Z</time>
      </trkpt>
      <trkpt lat="68.609133996069431" lon="17.636530017480254">
        <ele>264.01999999999998</ele>
        <time>2017-06-27T13:53:31Z</time>
      </trkpt>
      <trkpt lat="68.607819965109229" lon="17.634017039090395">
        <ele>264.5</ele>
        <time>2017-06-27T13:53:38Z</time>
      </trkpt>
      <trkpt lat="68.605450987815857" lon="17.628649016842246">
        <ele>260.64999999999998</ele>
        <time>2017-06-27T13:53:50Z</time>
      </trkpt>
      <trkpt lat="68.603907041251659" lon="17.623145040124655">
        <ele>266.89999999999998</ele>
        <time>2017-06-27T13:54:00Z</time>
      </trkpt>
      <trkpt lat="68.603607974946499" lon="17.622296959161758">
        <ele>269.31</ele>
        <time>2017-06-27T13:54:02Z</time>
      </trkpt>
      <trkpt lat="68.603443019092083" lon="17.621941985562444">
        <ele>270.75</ele>
        <time>2017-06-27T13:54:03Z</time>
      </trkpt>
      <trkpt lat="68.603270016610622" lon="17.621636968106031">
        <ele>271.70999999999998</ele>
        <time>2017-06-27T13:54:04Z</time>
      </trkpt>
      <trkpt lat="68.603081004694104" lon="17.621375033631921">
        <ele>273.14999999999998</ele>
        <time>2017-06-27T13:54:05Z</time>
      </trkpt>
      <trkpt lat="68.602884029969573" lon="17.621145034208894">
        <ele>274.58999999999997</ele>
        <time>2017-06-27T13:54:06Z</time>
      </trkpt>
      <trkpt lat="68.602675991132855" lon="17.620964990928769">
        <ele>275.56</ele>
        <time>2017-06-27T13:54:07Z</time>
      </trkpt>
      <trkpt lat="68.602459989488125" lon="17.620815960690379">
        <ele>277</ele>
        <time>2017-06-27T13:54:08Z</time>
      </trkpt>
      <trkpt lat="68.602236025035381" lon="17.620691992342472">
        <ele>277.95999999999998</ele>
        <time>2017-06-27T13:54:09Z</time>
      </trkpt>
      <trkpt lat="68.599952962249517" lon="17.619058024138212">
        <ele>290.45999999999998</ele>
        <time>2017-06-27T13:54:19Z</time>
      </trkpt>
      <trkpt lat="68.598228972405195" lon="17.616591984406114">
        <ele>302.94999999999999</ele>
        <time>2017-06-27T13:54:28Z</time>
      </trkpt>
      <trkpt lat="68.596414038911462" lon="17.613036967813969">
        <ele>315.44999999999999</ele>
        <time>2017-06-27T13:54:39Z</time>
      </trkpt>
      <trkpt lat="68.595598982647061" lon="17.61009500361979">
        <ele>309.68000000000001</ele>
        <time>2017-06-27T13:54:46Z</time>
      </trkpt>
      <trkpt lat="68.59501400962472" lon="17.607683027163148">
        <ele>301.02999999999997</ele>
        <time>2017-06-27T13:54:54Z</time>
      </trkpt>
      <trkpt lat="68.59402603469789" lon="17.603983003646135">
        <ele>289.00999999999999</ele>
        <time>2017-06-27T13:55:05Z</time>
      </trkpt>
      <trkpt lat="68.593916986137629" lon="17.603732971474528">
        <ele>288.05000000000001</ele>
        <time>2017-06-27T13:55:06Z</time>
      </trkpt>
      <trkpt lat="68.593801986426115" lon="17.603511018678546">
        <ele>287.56999999999999</ele>
        <time>2017-06-27T13:55:07Z</time>
      </trkpt>
      <trkpt lat="68.593686986714602" lon="17.603318989276886">
        <ele>286.61000000000001</ele>
        <time>2017-06-27T13:55:08Z</time>
      </trkpt>
      <trkpt lat="68.593577016144991" lon="17.60317699983716">
        <ele>286.13</ele>
        <time>2017-06-27T13:55:09Z</time>
      </trkpt>
      <trkpt lat="68.593466039747" lon="17.603074992075562">
        <ele>285.17000000000002</ele>
        <time>2017-06-27T13:55:10Z</time>
      </trkpt>
      <trkpt lat="68.593352967873216" lon="17.602988993749022">
        <ele>284.69</ele>
        <time>2017-06-27T13:55:11Z</time>
      </trkpt>
      <trkpt lat="68.593236040323973" lon="17.602937025949359">
        <ele>284.20999999999998</ele>
        <time>2017-06-27T13:55:12Z</time>
      </trkpt>
      <trkpt lat="68.593112993985415" lon="17.602900983765721">
        <ele>283.25</ele>
        <time>2017-06-27T13:55:13Z</time>
      </trkpt>
      <trkpt lat="68.592990031465888" lon="17.602893020957708">
        <ele>282.76999999999998</ele>
        <time>2017-06-27T13:55:14Z</time>
      </trkpt>
      <trkpt lat="68.592864973470569" lon="17.602914981544018">
        <ele>281.80000000000001</ele>
        <time>2017-06-27T13:55:15Z</time>
      </trkpt>
      <trkpt lat="68.592742010951042" lon="17.60296099819243">
        <ele>280.83999999999997</ele>
        <time>2017-06-27T13:55:16Z</time>
      </trkpt>
      <trkpt lat="68.592620976269245" lon="17.603026041761041">
        <ele>279.88</ele>
        <time>2017-06-27T13:55:17Z</time>
      </trkpt>
      <trkpt lat="68.592504970729351" lon="17.60311296209693">
        <ele>279.39999999999998</ele>
        <time>2017-06-27T13:55:18Z</time>
      </trkpt>
      <trkpt lat="68.592392988502979" lon="17.60321899317205">
        <ele>278.44</ele>
        <time>2017-06-27T13:55:19Z</time>
      </trkpt>
      <trkpt lat="68.592283017933369" lon="17.603342961519957">
        <ele>277.48000000000002</ele>
        <time>2017-06-27T13:55:20Z</time>
      </trkpt>
      <trkpt lat="68.592176986858249" lon="17.603488974273205">
        <ele>277</ele>
        <time>2017-06-27T13:55:21Z</time>
      </trkpt>
      <trkpt lat="68.592069027945399" lon="17.603660970926285">
        <ele>275.56</ele>
        <time>2017-06-27T13:55:22Z</time>
      </trkpt>
      <trkpt lat="68.59196500852704" lon="17.603836990892887">
        <ele>275.06999999999999</ele>
        <time>2017-06-27T13:55:23Z</time>
      </trkpt>
      <trkpt lat="68.590442016720772" lon="17.60652800090611">
        <ele>264.5</ele>
        <time>2017-06-27T13:55:37Z</time>
      </trkpt>
      <trkpt lat="68.590306984260678" lon="17.606610981747508">
        <ele>263.54000000000002</ele>
        <time>2017-06-27T13:55:38Z</time>
      </trkpt>
      <trkpt lat="68.590166000649333" lon="17.6066580042243">
        <ele>262.57999999999998</ele>
        <time>2017-06-27T13:55:39Z</time>
      </trkpt>
      <trkpt lat="68.590021999552846" lon="17.6066770311445">
        <ele>262.10000000000002</ele>
        <time>2017-06-27T13:55:40Z</time>
      </trkpt>
      <trkpt lat="68.589877998456359" lon="17.606650041416287">
        <ele>261.13999999999999</ele>
        <time>2017-06-27T13:55:41Z</time>
      </trkpt>
      <trkpt lat="68.589731985703111" lon="17.60657200589776">
        <ele>260.17000000000002</ele>
        <time>2017-06-27T13:55:42Z</time>
      </trkpt>
      <trkpt lat="68.589584967121482" lon="17.606451977044344">
        <ele>259.20999999999998</ele>
        <time>2017-06-27T13:55:43Z</time>
      </trkpt>
      <trkpt lat="68.589439038187265" lon="17.606279980391264">
        <ele>258.25</ele>
        <time>2017-06-27T13:55:44Z</time>
      </trkpt>
      <trkpt lat="68.58929998241365" lon="17.606064984574914">
        <ele>257.29000000000002</ele>
        <time>2017-06-27T13:55:45Z</time>
      </trkpt>
      <trkpt lat="68.58917199075222" lon="17.605815958231688">
        <ele>256.32999999999998</ele>
        <time>2017-06-27T13:55:46Z</time>
      </trkpt>
      <trkpt lat="68.589047016575933" lon="17.605537008494139">
        <ele>254.88999999999999</ele>
        <time>2017-06-27T13:55:47Z</time>
      </trkpt>
      <trkpt lat="68.588942997157574" lon="17.605234002694488">
        <ele>253.93000000000001</ele>
        <time>2017-06-27T13:55:48Z</time>
      </trkpt>
      <trkpt lat="68.588854987174273" lon="17.604914987459779">
        <ele>252.47999999999999</ele>
        <time>2017-06-27T13:55:49Z</time>
      </trkpt>
      <trkpt lat="68.588778041303158" lon="17.60457300581038">
        <ele>251.52000000000001</ele>
        <time>2017-06-27T13:55:50Z</time>
      </trkpt>
      <trkpt lat="68.588720038533211" lon="17.604214008897543">
        <ele>250.56</ele>
        <time>2017-06-27T13:55:51Z</time>
      </trkpt>
      <trkpt lat="68.58867603354156" lon="17.603837996721268">
        <ele>249.12</ele>
        <time>2017-06-27T13:55:52Z</time>
      </trkpt>
      <trkpt lat="68.588647032156587" lon="17.603440023958683">
        <ele>248.63999999999999</ele>
        <time>2017-06-27T13:55:53Z</time>
      </trkpt>
      <trkpt lat="68.588628005236387" lon="17.603049008175731">
        <ele>247.68000000000001</ele>
        <time>2017-06-27T13:55:54Z</time>
      </trkpt>
      <trkpt lat="68.588619036599994" lon="17.60264097712934">
        <ele>246.72</ele>
        <time>2017-06-27T13:55:55Z</time>
      </trkpt>
      <trkpt lat="68.588625993579626" lon="17.602245016023517">
        <ele>245.75</ele>
        <time>2017-06-27T13:55:56Z</time>
      </trkpt>
      <trkpt lat="68.588651977479458" lon="17.601847965270281">
        <ele>244.78999999999999</ele>
        <time>2017-06-27T13:55:57Z</time>
      </trkpt>
      <trkpt lat="68.588695982471108" lon="17.601450998336077">
        <ele>243.34999999999999</ele>
        <time>2017-06-27T13:55:58Z</time>
      </trkpt>
      <trkpt lat="68.588750967755914" lon="17.601042967289686">
        <ele>242.38999999999999</ele>
        <time>2017-06-27T13:55:59Z</time>
      </trkpt>
      <trkpt lat="68.588815005496144" lon="17.600638037547469">
        <ele>241.43000000000001</ele>
        <time>2017-06-27T13:56:00Z</time>
      </trkpt>
      <trkpt lat="68.588888011872768" lon="17.600252972915769">
        <ele>240.47</ele>
        <time>2017-06-27T13:56:01Z</time>
      </trkpt>
      <trkpt lat="68.589762998744845" lon="17.59559003636241">
        <ele>232.30000000000001</ele>
        <time>2017-06-27T13:56:14Z</time>
      </trkpt>
      <trkpt lat="68.589931977912784" lon="17.593406969681382">
        <ele>228.93000000000001</ele>
        <time>2017-06-27T13:56:20Z</time>
      </trkpt>
      <trkpt lat="68.58992300927639" lon="17.593065993860364">
        <ele>228.44999999999999</ele>
        <time>2017-06-27T13:56:21Z</time>
      </trkpt>
      <trkpt lat="68.589899959042668" lon="17.592732980847359">
        <ele>227.97</ele>
        <time>2017-06-27T13:56:22Z</time>
      </trkpt>
      <trkpt lat="68.589866012334824" lon="17.592393010854721">
        <ele>227.49000000000001</ele>
        <time>2017-06-27T13:56:23Z</time>
      </trkpt>
      <trkpt lat="68.589829970151186" lon="17.592049017548561">
        <ele>227.00999999999999</ele>
        <time>2017-06-27T13:56:24Z</time>
      </trkpt>
      <trkpt lat="68.589781019836664" lon="17.591708963736892">
        <ele>226.53</ele>
        <time>2017-06-27T13:56:25Z</time>
      </trkpt>
      <trkpt lat="68.589717987924814" lon="17.591386009007692">
        <ele>226.05000000000001</ele>
        <time>2017-06-27T13:56:26Z</time>
      </trkpt>
      <trkpt lat="68.589647999033332" lon="17.591067999601364">
        <ele>225.56999999999999</ele>
        <time>2017-06-27T13:56:27Z</time>
      </trkpt>
      <trkpt lat="68.589569041505456" lon="17.590773040428758">
        <ele>225.09</ele>
        <time>2017-06-27T13:56:28Z</time>
      </trkpt>
      <trkpt lat="68.589476002380252" lon="17.590502975508571">
        <ele>224.12</ele>
        <time>2017-06-27T13:56:29Z</time>
      </trkpt>
      <trkpt lat="68.589379023760557" lon="17.590261995792389">
        <ele>223.63999999999999</ele>
        <time>2017-06-27T13:56:30Z</time>
      </trkpt>
      <trkpt lat="68.589276010170579" lon="17.590045994147658">
        <ele>222.68000000000001</ele>
        <time>2017-06-27T13:56:31Z</time>
      </trkpt>
      <trkpt lat="68.589165033772588" lon="17.589836027473211">
        <ele>221.72</ele>
        <time>2017-06-27T13:56:32Z</time>
      </trkpt>
      <trkpt lat="68.589043999090791" lon="17.589654978364706">
        <ele>220.75999999999999</ele>
        <time>2017-06-27T13:56:33Z</time>
      </trkpt>
      <trkpt lat="68.588917013257742" lon="17.58949002251029">
        <ele>219.80000000000001</ele>
        <time>2017-06-27T13:56:34Z</time>
      </trkpt>
      <trkpt lat="68.588372021913528" lon="17.588908988982439">
        <ele>215.47</ele>
        <time>2017-06-27T13:56:40Z</time>
      </trkpt>
      <trkpt lat="68.587714964523911" lon="17.588337007910013">
        <ele>210.66999999999999</ele>
        <time>2017-06-27T13:56:47Z</time>
      </trkpt>
      <trkpt lat="68.586290962994099" lon="17.587399994954467">
        <ele>198.65000000000001</ele>
        <time>2017-06-27T13:56:56Z</time>
      </trkpt>
      <trkpt lat="68.586127012968063" lon="17.587438970804214">
        <ele>197.21000000000001</ele>
        <time>2017-06-27T13:56:57Z</time>
      </trkpt>
      <trkpt lat="68.58597001992166" lon="17.587518012151122">
        <ele>195.77000000000001</ele>
        <time>2017-06-27T13:56:58Z</time>
      </trkpt>
      <trkpt lat="68.585811015218496" lon="17.587653966620564">
        <ele>194.31999999999999</ele>
        <time>2017-06-27T13:56:59Z</time>
      </trkpt>
      <trkpt lat="68.585658967494965" lon="17.587828980758786">
        <ele>192.88</ele>
        <time>2017-06-27T13:57:00Z</time>
      </trkpt>
      <trkpt lat="68.585521001368761" lon="17.588058980181813">
        <ele>191.44</ele>
        <time>2017-06-27T13:57:01Z</time>
      </trkpt>
      <trkpt lat="68.58539099805057" lon="17.588332984596491">
        <ele>190</ele>
        <time>2017-06-27T13:57:02Z</time>
      </trkpt>
      <trkpt lat="68.585275998339057" lon="17.588635990396142">
        <ele>188.56</ele>
        <time>2017-06-27T13:57:03Z</time>
      </trkpt>
      <trkpt lat="68.585171978920698" lon="17.588989958167076">
        <ele>187.11000000000001</ele>
        <time>2017-06-27T13:57:04Z</time>
      </trkpt>
      <trkpt lat="68.585082041099668" lon="17.589388014748693">
        <ele>186.15000000000001</ele>
        <time>2017-06-27T13:57:05Z</time>
      </trkpt>
      <trkpt lat="68.585000988095999" lon="17.589835021644831">
        <ele>184.71000000000001</ele>
        <time>2017-06-27T13:57:06Z</time>
      </trkpt>
      <trkpt lat="68.584920018911362" lon="17.590317986905575">
        <ele>182.78999999999999</ele>
        <time>2017-06-27T13:57:07Z</time>
      </trkpt>
      <trkpt lat="68.584457002580166" lon="17.592489989474416">
        <ele>176.06</ele>
        <time>2017-06-27T13:57:12Z</time>
      </trkpt>
      <trkpt lat="68.584344014525414" lon="17.592786038294435">
        <ele>174.62</ele>
        <time>2017-06-27T13:57:13Z</time>
      </trkpt>
      <trkpt lat="68.584227003157139" lon="17.593018971383572">
        <ele>173.66</ele>
        <time>2017-06-27T13:57:14Z</time>
      </trkpt>
      <trkpt lat="68.584096999838948" lon="17.593209994956851">
        <ele>172.69</ele>
        <time>2017-06-27T13:57:15Z</time>
      </trkpt>
      <trkpt lat="68.5839509870857" lon="17.593378974124789">
        <ele>171.72999999999999</ele>
        <time>2017-06-27T13:57:16Z</time>
      </trkpt>
      <trkpt lat="68.583794999867678" lon="17.593524986878037">
        <ele>170.28999999999999</ele>
        <time>2017-06-27T13:57:17Z</time>
      </trkpt>
      <trkpt lat="68.583628032356501" lon="17.593649961054325">
        <ele>169.33000000000001</ele>
        <time>2017-06-27T13:57:18Z</time>
      </trkpt>
      <trkpt lat="68.583453018218279" lon="17.593756997957826">
        <ele>167.88999999999999</ele>
        <time>2017-06-27T13:57:19Z</time>
      </trkpt>
      <trkpt lat="68.582784980535507" lon="17.594212973490357">
        <ele>163.56</ele>
        <time>2017-06-27T13:57:23Z</time>
      </trkpt>
      <trkpt lat="68.582635028287768" lon="17.594416989013553">
        <ele>162.12</ele>
        <time>2017-06-27T13:57:24Z</time>
      </trkpt>
      <trkpt lat="68.582485998049378" lon="17.594666015356779">
        <ele>160.68000000000001</ele>
        <time>2017-06-27T13:57:25Z</time>
      </trkpt>
      <trkpt lat="68.582335039973259" lon="17.594952005892992">
        <ele>158.75</ele>
        <time>2017-06-27T13:57:26Z</time>
      </trkpt>
      <trkpt lat="68.582180980592966" lon="17.595277978107333">
        <ele>157.31</ele>
        <time>2017-06-27T13:57:27Z</time>
      </trkpt>
      <trkpt lat="68.580506024882197" lon="17.598485983908176">
        <ele>141.93000000000001</ele>
        <time>2017-06-27T13:57:38Z</time>
      </trkpt>
      <trkpt lat="68.579494999721646" lon="17.599973017349839">
        <ele>133.75999999999999</ele>
        <time>2017-06-27T13:57:45Z</time>
      </trkpt>
      <trkpt lat="68.579340018332005" lon="17.600094974040985">
        <ele>132.80000000000001</ele>
        <time>2017-06-27T13:57:46Z</time>
      </trkpt>
      <trkpt lat="68.579173972830176" lon="17.600173009559512">
        <ele>131.84</ele>
        <time>2017-06-27T13:57:47Z</time>
      </trkpt>
      <trkpt lat="68.579000970348716" lon="17.600209973752499">
        <ele>130.88</ele>
        <time>2017-06-27T13:57:48Z</time>
      </trkpt>
      <trkpt lat="68.578824028372765" lon="17.60021198540926">
        <ele>129.43000000000001</ele>
        <time>2017-06-27T13:57:49Z</time>
      </trkpt>
      <trkpt lat="68.578641973435879" lon="17.600158005952835">
        <ele>127.98999999999999</ele>
        <time>2017-06-27T13:57:50Z</time>
      </trkpt>
      <trkpt lat="68.578461008146405" lon="17.600074019283056">
        <ele>127.03</ele>
        <time>2017-06-27T13:57:51Z</time>
      </trkpt>
      <trkpt lat="68.578283982351422" lon="17.599949967116117">
        <ele>126.06999999999999</ele>
        <time>2017-06-27T13:57:52Z</time>
      </trkpt>
      <trkpt lat="68.578113997355103" lon="17.599769001826644">
        <ele>125.11</ele>
        <time>2017-06-27T13:57:53Z</time>
      </trkpt>
      <trkpt lat="68.57795599848032" lon="17.599559035152197">
        <ele>124.63</ele>
        <time>2017-06-27T13:57:54Z</time>
      </trkpt>
      <trkpt lat="68.577813003212214" lon="17.599311014637351">
        <ele>123.67</ele>
        <time>2017-06-27T13:57:55Z</time>
      </trkpt>
      <trkpt lat="68.57767797075212" lon="17.599025024101138">
        <ele>122.70999999999999</ele>
        <time>2017-06-27T13:57:56Z</time>
      </trkpt>
      <trkpt lat="68.577550984919071" lon="17.598706008866429">
        <ele>121.73999999999999</ele>
        <time>2017-06-27T13:57:57Z</time>
      </trkpt>
      <trkpt lat="68.577430034056306" lon="17.598353968933225">
        <ele>120.3</ele>
        <time>2017-06-27T13:57:58Z</time>
      </trkpt>
      <trkpt lat="68.577313022688031" lon="17.597978040575981">
        <ele>118.86</ele>
        <time>2017-06-27T13:57:59Z</time>
      </trkpt>
      <trkpt lat="68.577206991612911" lon="17.597576966509223">
        <ele>117.42</ele>
        <time>2017-06-27T13:58:00Z</time>
      </trkpt>
      <trkpt lat="68.57711898162961" lon="17.597138006240129">
        <ele>116.45999999999999</ele>
        <time>2017-06-27T13:58:01Z</time>
      </trkpt>
      <trkpt lat="68.577044969424605" lon="17.596673984080553">
        <ele>115.5</ele>
        <time>2017-06-27T13:58:02Z</time>
      </trkpt>
      <trkpt lat="68.576986966654658" lon="17.596190012991428">
        <ele>114.53</ele>
        <time>2017-06-27T13:58:03Z</time>
      </trkpt>
      <trkpt lat="68.576942961663008" lon="17.595688020810485">
        <ele>113.56999999999999</ele>
        <time>2017-06-27T13:58:04Z</time>
      </trkpt>
      <trkpt lat="68.576905997470021" lon="17.595168007537723">
        <ele>113.09</ele>
        <time>2017-06-27T13:58:05Z</time>
      </trkpt>
      <trkpt lat="68.576549012213945" lon="17.589672999456525">
        <ele>102.04000000000001</ele>
        <time>2017-06-27T13:58:15Z</time>
      </trkpt>
      <trkpt lat="68.576336028054357" lon="17.586444038897753">
        <ele>97.230000000000004</ele>
        <time>2017-06-27T13:58:22Z</time>
      </trkpt>
      <trkpt lat="68.575819032266736" lon="17.583573991432786">
        <ele>95.310000000000002</ele>
        <time>2017-06-27T13:58:30Z</time>
      </trkpt>
      <trkpt lat="68.575708977878094" lon="17.58328297175467">
        <ele>95.790000000000006</ele>
        <time>2017-06-27T13:58:31Z</time>
      </trkpt>
      <trkpt lat="68.575582997873425" lon="17.58302103728056">
        <ele>95.790000000000006</ele>
        <time>2017-06-27T13:58:32Z</time>
      </trkpt>
      <trkpt lat="68.57544201426208" lon="17.582781985402107">
        <ele>95.790000000000006</ele>
        <time>2017-06-27T13:58:33Z</time>
      </trkpt>
      <trkpt lat="68.575274040922523" lon="17.582557015120983">
        <ele>96.269999999999996</ele>
        <time>2017-06-27T13:58:34Z</time>
      </trkpt>
      <trkpt lat="68.575084023177624" lon="17.582352999597788">
        <ele>96.269999999999996</ele>
        <time>2017-06-27T13:58:35Z</time>
      </trkpt>
      <trkpt lat="68.574871961027384" lon="17.582159964367747">
        <ele>96.75</ele>
        <time>2017-06-27T13:58:36Z</time>
      </trkpt>
      <trkpt lat="68.573060967028141" lon="17.580676032230258">
        <ele>97.230000000000004</ele>
        <time>2017-06-27T13:58:44Z</time>
      </trkpt>
      <trkpt lat="68.571046963334084" lon="17.578313006088138">
        <ele>88.579999999999998</ele>
        <time>2017-06-27T13:58:53Z</time>
      </trkpt>
      <trkpt lat="68.569293972104788" lon="17.576119964942336">
        <ele>75.599999999999994</ele>
        <time>2017-06-27T13:59:02Z</time>
      </trkpt>
      <trkpt lat="68.568172976374626" lon="17.575255958363414">
        <ele>69.349999999999994</ele>
        <time>2017-06-27T13:59:09Z</time>
      </trkpt>
      <trkpt lat="68.568040039390326" lon="17.57522301748395">
        <ele>68.870000000000005</ele>
        <time>2017-06-27T13:59:10Z</time>
      </trkpt>
      <trkpt lat="68.566731959581375" lon="17.574950018897653">
        <ele>62.619999999999997</ele>
        <time>2017-06-27T13:59:19Z</time>
      </trkpt>
      <trkpt lat="68.565144008025527" lon="17.574555985629559">
        <ele>55.890000000000001</ele>
        <time>2017-06-27T13:59:30Z</time>
      </trkpt>
      <trkpt lat="68.564251000061631" lon="17.573583014309406">
        <ele>52.530000000000001</ele>
        <time>2017-06-27T13:59:37Z</time>
      </trkpt>
      <trkpt lat="68.562863040715456" lon="17.571475971490145">
        <ele>48.68</ele>
        <time>2017-06-27T13:59:50Z</time>
      </trkpt>
      <trkpt lat="68.561678007245064" lon="17.570525966584682">
        <ele>45.32</ele>
        <time>2017-06-27T13:59:59Z</time>
      </trkpt>
      <trkpt lat="68.560615014284849" lon="17.569615021348">
        <ele>41.469999999999999</ele>
        <time>2017-06-27T14:00:07Z</time>
      </trkpt>
      <trkpt lat="68.560478975996375" lon="17.569439001381397">
        <ele>40.509999999999998</ele>
        <time>2017-06-27T14:00:08Z</time>
      </trkpt>
      <trkpt lat="68.560347966849804" lon="17.569214031100273">
        <ele>39.549999999999997</ele>
        <time>2017-06-27T14:00:09Z</time>
      </trkpt>
      <trkpt lat="68.560225004330277" lon="17.568954024463892">
        <ele>38.109999999999999</ele>
        <time>2017-06-27T14:00:10Z</time>
      </trkpt>
      <trkpt lat="68.560105981305242" lon="17.568654958158731">
        <ele>37.149999999999999</ele>
        <time>2017-06-27T14:00:11Z</time>
      </trkpt>
      <trkpt lat="68.559989975765347" lon="17.568323034793139">
        <ele>35.229999999999997</ele>
        <time>2017-06-27T14:00:12Z</time>
      </trkpt>
      <trkpt lat="68.559161005541682" lon="17.566311964765191">
        <ele>32.82</ele>
        <time>2017-06-27T14:00:20Z</time>
      </trkpt>
      <trkpt lat="68.557688975706697" lon="17.563681975007057">
        <ele>30.420000000000002</ele>
        <time>2017-06-27T14:00:35Z</time>
      </trkpt>
      <trkpt lat="68.5565369669348" lon="17.561479965224862">
        <ele>28.02</ele>
        <time>2017-06-27T14:00:45Z</time>
      </trkpt>
      <trkpt lat="68.555356040596962" lon="17.559100007638335">
        <ele>25.609999999999999</ele>
        <time>2017-06-27T14:00:56Z</time>
      </trkpt>
      <trkpt lat="68.55445297434926" lon="17.558055035769939">
        <ele>21.77</ele>
        <time>2017-06-27T14:01:06Z</time>
      </trkpt>
      <trkpt lat="68.554255999624729" lon="17.557796034961939">
        <ele>20.809999999999999</ele>
        <time>2017-06-27T14:01:09Z</time>
      </trkpt>
      <trkpt lat="68.554181987419724" lon="17.557748006656766">
        <ele>20.809999999999999</ele>
        <time>2017-06-27T14:01:10Z</time>
      </trkpt>
      <trkpt lat="68.554109986871481" lon="17.557716993615031">
        <ele>20.32</ele>
        <time>2017-06-27T14:01:11Z</time>
      </trkpt>
      <trkpt lat="68.55404200963676" lon="17.557710958644748">
        <ele>20.32</ele>
        <time>2017-06-27T14:01:12Z</time>
      </trkpt>
      <trkpt lat="68.553976966068149" lon="17.557738032191992">
        <ele>20.32</ele>
        <time>2017-06-27T14:01:13Z</time>
      </trkpt>
      <trkpt lat="68.553911000490189" lon="17.557796034961939">
        <ele>20.32</ele>
        <time>2017-06-27T14:01:14Z</time>
      </trkpt>
      <trkpt lat="68.553837994113564" lon="17.557866023853421">
        <ele>19.84</ele>
        <time>2017-06-27T14:01:15Z</time>
      </trkpt>
      <trkpt lat="68.553661974146962" lon="17.558018993586302">
        <ele>19.359999999999999</ele>
        <time>2017-06-27T14:01:17Z</time>
      </trkpt>
      <trkpt lat="68.553555021062493" lon="17.558066016063094">
        <ele>18.879999999999999</ele>
        <time>2017-06-27T14:01:18Z</time>
      </trkpt>
      <trkpt lat="68.553439015522599" lon="17.558095017448068">
        <ele>18.399999999999999</ele>
        <time>2017-06-27T14:01:19Z</time>
      </trkpt>
      <trkpt lat="68.552190028131008" lon="17.558125024661422">
        <ele>11.67</ele>
        <time>2017-06-27T14:01:31Z</time>
      </trkpt>
      <trkpt lat="68.550837021321058" lon="17.558107003569603">
        <ele>7.35</ele>
        <time>2017-06-27T14:01:45Z</time>
      </trkpt>
      <trkpt lat="68.550327988341451" lon="17.557967025786638">
        <ele>5.42</ele>
        <time>2017-06-27T14:01:53Z</time>
      </trkpt>
      <trkpt lat="68.549785008653998" lon="17.557719005271792">
        <ele>4.94</ele>
        <time>2017-06-27T14:02:02Z</time>
      </trkpt>
      <trkpt lat="68.549392987042665" lon="17.557399990037084">
        <ele>3.02</ele>
        <time>2017-06-27T14:02:11Z</time>
      </trkpt>
      <trkpt lat="68.54935996234417" lon="17.557318015024066">
        <ele>2.54</ele>
        <time>2017-06-27T14:02:12Z</time>
      </trkpt>
      <trkpt lat="68.549258960410953" lon="17.557037975639105">
        <ele>2.54</ele>
        <time>2017-06-27T14:02:15Z</time>
      </trkpt>
      <trkpt lat="68.549214033409953" lon="17.556978967040777">
        <ele>2.54</ele>
        <time>2017-06-27T14:02:16Z</time>
      </trkpt>
      <trkpt lat="68.549169022589922" lon="17.556958012282848">
        <ele>2.54</ele>
        <time>2017-06-27T14:02:17Z</time>
      </trkpt>
      <trkpt lat="68.549129962921143" lon="17.557000005617738">
        <ele>3.02</ele>
        <time>2017-06-27T14:02:18Z</time>
      </trkpt>
      <trkpt lat="68.54910196736455" lon="17.557103019207716">
        <ele>3.02</ele>
        <time>2017-06-27T14:02:19Z</time>
      </trkpt>
      <trkpt lat="68.54908000677824" lon="17.557248026132584">
        <ele>3.02</ele>
        <time>2017-06-27T14:02:20Z</time>
      </trkpt>
      <trkpt lat="68.54905704036355" lon="17.557418011128902">
        <ele>2.54</ele>
        <time>2017-06-27T14:02:21Z</time>
      </trkpt>
      <trkpt lat="68.54895000346005" lon="17.557928971946239">
        <ele>2.06</ele>
        <time>2017-06-27T14:02:24Z</time>
      </trkpt>
      <trkpt lat="68.548910021781921" lon="17.558055035769939">
        <ele>1.58</ele>
        <time>2017-06-27T14:02:25Z</time>
      </trkpt>
      <trkpt lat="68.548876997083426" lon="17.558161988854408">
        <ele>1.58</ele>
        <time>2017-06-27T14:02:26Z</time>
      </trkpt>
      <trkpt lat="68.548525040969253" lon="17.558849975466728">
        <ele>1.1</ele>
        <time>2017-06-27T14:02:34Z</time>
      </trkpt>
      <trkpt lat="68.547699004411697" lon="17.560287974774837">
        <ele>2.54</ele>
        <time>2017-06-27T14:02:42Z</time>
      </trkpt>
      <trkpt lat="68.546037040650845" lon="17.563306968659163">
        <ele>1.58</ele>
        <time>2017-06-27T14:02:55Z</time>
      </trkpt>
      <trkpt lat="68.544741030782461" lon="17.564751002937555">
        <ele>3.5</ele>
        <time>2017-06-27T14:03:03Z</time>
      </trkpt>
      <trkpt lat="68.543549040332437" lon="17.566284975036979">
        <ele>6.87</ele>
        <time>2017-06-27T14:03:11Z</time>
      </trkpt>
      <trkpt lat="68.541978020220995" lon="17.570035038515925">
        <ele>2.54</ele>
        <time>2017-06-27T14:03:22Z</time>
      </trkpt>
      <trkpt lat="68.540116986259818" lon="17.573555018752813">
        <ele>2.54</ele>
        <time>2017-06-27T14:03:34Z</time>
      </trkpt>
      <trkpt lat="68.538717040792108" lon="17.574675008654594">
        <ele>3.5</ele>
        <time>2017-06-27T14:03:42Z</time>
      </trkpt>
      <trkpt lat="68.53745698928833" lon="17.574284998700023">
        <ele>5.91</ele>
        <time>2017-06-27T14:03:49Z</time>
      </trkpt>
      <trkpt lat="68.536294000223279" lon="17.572735017165542">
        <ele>11.67</ele>
        <time>2017-06-27T14:03:56Z</time>
      </trkpt>
      <trkpt lat="68.536117980256677" lon="17.572577018290758">
        <ele>12.15</ele>
        <time>2017-06-27T14:03:57Z</time>
      </trkpt>
      <trkpt lat="68.535935003310442" lon="17.57247501052916">
        <ele>13.119999999999999</ele>
        <time>2017-06-27T14:03:58Z</time>
      </trkpt>
      <trkpt lat="68.535748003050685" lon="17.57240803912282">
        <ele>14.08</ele>
        <time>2017-06-27T14:03:59Z</time>
      </trkpt>
      <trkpt lat="68.535556979477406" lon="17.57236797362566">
        <ele>15.039999999999999</ele>
        <time>2017-06-27T14:04:00Z</time>
      </trkpt>
      <trkpt lat="68.533189008012414" lon="17.572677014395595">
        <ele>21.77</ele>
        <time>2017-06-27T14:04:12Z</time>
      </trkpt>
      <trkpt lat="68.532268004491925" lon="17.572702998295426">
        <ele>24.170000000000002</ele>
        <time>2017-06-27T14:04:17Z</time>
      </trkpt>
      <trkpt lat="68.532087039202452" lon="17.572595039382577">
        <ele>25.609999999999999</ele>
        <time>2017-06-27T14:04:18Z</time>
      </trkpt>
      <trkpt lat="68.531225966289639" lon="17.571719968691468">
        <ele>30.899999999999999</ele>
        <time>2017-06-27T14:04:23Z</time>
      </trkpt>
      <trkpt lat="68.531071990728378" lon="17.571434983983636">
        <ele>32.340000000000003</ele>
        <time>2017-06-27T14:04:24Z</time>
      </trkpt>
      <trkpt lat="68.529954012483358" lon="17.569588031619787">
        <ele>39.549999999999997</ele>
        <time>2017-06-27T14:04:31Z</time>
      </trkpt>
      <trkpt lat="68.527633985504508" lon="17.567538991570473">
        <ele>19.84</ele>
        <time>2017-06-27T14:04:43Z</time>
      </trkpt>
      <trkpt lat="68.52559600956738" lon="17.566718989983201">
        <ele>9.75</ele>
        <time>2017-06-27T14:04:52Z</time>
      </trkpt>
      <trkpt lat="68.52226696908474" lon="17.565992027521133">
        <ele>5.42</ele>
        <time>2017-06-27T14:05:07Z</time>
      </trkpt>
      <trkpt lat="68.519555004313588" lon="17.566484967246652">
        <ele>6.39</ele>
        <time>2017-06-27T14:05:20Z</time>
      </trkpt>
      <trkpt lat="68.519376972690225" lon="17.566390000283718">
        <ele>6.87</ele>
        <time>2017-06-27T14:05:21Z</time>
      </trkpt>
      <trkpt lat="68.519199024885893" lon="17.566237030550838">
        <ele>7.35</ele>
        <time>2017-06-27T14:05:22Z</time>
      </trkpt>
      <trkpt lat="68.519030967727304" lon="17.566023962572217">
        <ele>7.83</ele>
        <time>2017-06-27T14:05:23Z</time>
      </trkpt>
      <trkpt lat="68.518865006044507" lon="17.565766973420978">
        <ele>8.789999999999999</ele>
        <time>2017-06-27T14:05:24Z</time>
      </trkpt>
      <trkpt lat="68.51870097219944" lon="17.565464973449707">
        <ele>9.27</ele>
        <time>2017-06-27T14:05:25Z</time>
      </trkpt>
      <trkpt lat="68.517461959272623" lon="17.56231396459043">
        <ele>11.19</ele>
        <time>2017-06-27T14:05:33Z</time>
      </trkpt>
      <trkpt lat="68.516069976612926" lon="17.559149041771889">
        <ele>8.310000000000001</ele>
        <time>2017-06-27T14:05:41Z</time>
      </trkpt>
      <trkpt lat="68.513395981863141" lon="17.553899036720395">
        <ele>2.54</ele>
        <time>2017-06-27T14:05:55Z</time>
      </trkpt>
      <trkpt lat="68.513275031000376" lon="17.553501985967159">
        <ele>2.54</ele>
        <time>2017-06-27T14:05:56Z</time>
      </trkpt>
      <trkpt lat="68.513170005753636" lon="17.553077023476362">
        <ele>2.54</ele>
        <time>2017-06-27T14:05:57Z</time>
      </trkpt>
      <trkpt lat="68.513081995770335" lon="17.552619036287069">
        <ele>3.02</ele>
        <time>2017-06-27T14:05:58Z</time>
      </trkpt>
      <trkpt lat="68.513014018535614" lon="17.552115032449365">
        <ele>3.02</ele>
        <time>2017-06-27T14:05:59Z</time>
      </trkpt>
      <trkpt lat="68.512965990230441" lon="17.551598036661744">
        <ele>3.98</ele>
        <time>2017-06-27T14:06:00Z</time>
      </trkpt>
      <trkpt lat="68.512931959703565" lon="17.551072994247079">
        <ele>4.46</ele>
        <time>2017-06-27T14:06:01Z</time>
      </trkpt>
      <trkpt lat="68.512808997184038" lon="17.549543967470527">
        <ele>5.42</ele>
        <time>2017-06-27T14:06:04Z</time>
      </trkpt>
      <trkpt lat="68.512743031606078" lon="17.549125039950013">
        <ele>5.42</ele>
        <time>2017-06-27T14:06:05Z</time>
      </trkpt>
      <trkpt lat="68.512661978602409" lon="17.548756990581751">
        <ele>5.42</ele>
        <time>2017-06-27T14:06:06Z</time>
      </trkpt>
      <trkpt lat="68.512562988325953" lon="17.548428000882268">
        <ele>4.94</ele>
        <time>2017-06-27T14:06:07Z</time>
      </trkpt>
      <trkpt lat="68.512451006099582" lon="17.548135975375772">
        <ele>4.46</ele>
        <time>2017-06-27T14:06:08Z</time>
      </trkpt>
      <trkpt lat="68.512321002781391" lon="17.54787596873939">
        <ele>3.98</ele>
        <time>2017-06-27T14:06:09Z</time>
      </trkpt>
      <trkpt lat="68.512172978371382" lon="17.547648986801505">
        <ele>3.5</ele>
        <time>2017-06-27T14:06:10Z</time>
      </trkpt>
      <trkpt lat="68.512009028345346" lon="17.547447988763452">
        <ele>3.5</ele>
        <time>2017-06-27T14:06:11Z</time>
      </trkpt>
      <trkpt lat="68.511838959529996" lon="17.54725000821054">
        <ele>3.02</ele>
        <time>2017-06-27T14:06:12Z</time>
      </trkpt>
      <trkpt lat="68.50999996997416" lon="17.545571029186249">
        <ele>8.789999999999999</ele>
        <time>2017-06-27T14:06:22Z</time>
      </trkpt>
      <trkpt lat="68.508410006761551" lon="17.544433018192649">
        <ele>10.23</ele>
        <time>2017-06-27T14:06:30Z</time>
      </trkpt>
      <trkpt lat="68.507192032411695" lon="17.542512975633144">
        <ele>10.23</ele>
        <time>2017-06-27T14:06:37Z</time>
      </trkpt>
      <trkpt lat="68.507018024101853" lon="17.542410967871547">
        <ele>10.23</ele>
        <time>2017-06-27T14:06:38Z</time>
      </trkpt>
      <trkpt lat="68.506850972771645" lon="17.542391018941998">
        <ele>10.23</ele>
        <time>2017-06-27T14:06:39Z</time>
      </trkpt>
      <trkpt lat="68.506681993603706" lon="17.542446004226804">
        <ele>9.75</ele>
        <time>2017-06-27T14:06:40Z</time>
      </trkpt>
      <trkpt lat="68.506520977243781" lon="17.542583970353007">
        <ele>10.23</ele>
        <time>2017-06-27T14:06:41Z</time>
      </trkpt>
      <trkpt lat="68.506360966712236" lon="17.54280298948288">
        <ele>10.710000000000001</ele>
        <time>2017-06-27T14:06:42Z</time>
      </trkpt>
      <trkpt lat="68.506199028342962" lon="17.54306199029088">
        <ele>10.710000000000001</ele>
        <time>2017-06-27T14:06:43Z</time>
      </trkpt>
      <trkpt lat="68.504761029034853" lon="17.545251008123159">
        <ele>10.710000000000001</ele>
        <time>2017-06-27T14:06:51Z</time>
      </trkpt>
      <trkpt lat="68.503507012501359" lon="17.545603970065713">
        <ele>11.67</ele>
        <time>2017-06-27T14:06:57Z</time>
      </trkpt>
      <trkpt lat="68.501573977991939" lon="17.544625969603658">
        <ele>6.87</ele>
        <time>2017-06-27T14:07:06Z</time>
      </trkpt>
      <trkpt lat="68.500099014490843" lon="17.543586026877165">
        <ele>6.87</ele>
        <time>2017-06-27T14:07:15Z</time>
      </trkpt>
      <trkpt lat="68.499611020088196" lon="17.542679021134973">
        <ele>5.42</ele>
        <time>2017-06-27T14:07:21Z</time>
      </trkpt>
      <trkpt lat="68.499451009556651" lon="17.54222396761179">
        <ele>4.46</ele>
        <time>2017-06-27T14:07:30Z</time>
      </trkpt>
      <trkpt lat="68.499296028167009" lon="17.541753994300961">
        <ele>3.98</ele>
        <time>2017-06-27T14:08:44Z</time>
      </trkpt>
      <trkpt lat="68.498934013769031" lon="17.540551023557782">
        <ele>3.98</ele>
        <time>2017-06-27T14:08:52Z</time>
      </trkpt>
      <trkpt lat="68.498909035697579" lon="17.540406016632915">
        <ele>3.98</ele>
        <time>2017-06-27T14:08:53Z</time>
      </trkpt>
      <trkpt lat="68.49889000877738" lon="17.540262015536427">
        <ele>3.5</ele>
        <time>2017-06-27T14:08:54Z</time>
      </trkpt>
      <trkpt lat="68.498863019049168" lon="17.539747031405568">
        <ele>3.5</ele>
        <time>2017-06-27T14:08:57Z</time>
      </trkpt>
      <trkpt lat="68.498867964372039" lon="17.53953798674047">
        <ele>3.5</ele>
        <time>2017-06-27T14:08:58Z</time>
      </trkpt>
      <trkpt lat="68.498885985463858" lon="17.539299018681049">
        <ele>3.98</ele>
        <time>2017-06-27T14:08:59Z</time>
      </trkpt>
      <trkpt lat="68.498923033475876" lon="17.538727037608624">
        <ele>4.46</ele>
        <time>2017-06-27T14:09:01Z</time>
      </trkpt>
      <trkpt lat="68.498924039304256" lon="17.538412967696786">
        <ele>4.94</ele>
        <time>2017-06-27T14:09:02Z</time>
      </trkpt>
      <trkpt lat="68.498916998505592" lon="17.538080038502812">
        <ele>5.42</ele>
        <time>2017-06-27T14:09:03Z</time>
      </trkpt>
      <trkpt lat="68.498899983242154" lon="17.537707965821028">
        <ele>5.42</ele>
        <time>2017-06-27T14:09:04Z</time>
      </trkpt>
      <trkpt lat="68.4988699760288" lon="17.537299012765288">
        <ele>5.42</ele>
        <time>2017-06-27T14:09:05Z</time>
      </trkpt>
      <trkpt lat="68.498823959380388" lon="17.53687396645546">
        <ele>5.42</ele>
        <time>2017-06-27T14:09:06Z</time>
      </trkpt>
      <trkpt lat="68.498763022944331" lon="17.536442968994379">
        <ele>5.42</ele>
        <time>2017-06-27T14:09:07Z</time>
      </trkpt>
      <trkpt lat="68.498688004910946" lon="17.536011971533298">
        <ele>4.94</ele>
        <time>2017-06-27T14:09:08Z</time>
      </trkpt>
      <trkpt lat="68.498599994927645" lon="17.535598995164037">
        <ele>4.94</ele>
        <time>2017-06-27T14:09:09Z</time>
      </trkpt>
      <trkpt lat="68.498499998822808" lon="17.53521803766489">
        <ele>4.46</ele>
        <time>2017-06-27T14:09:10Z</time>
      </trkpt>
      <trkpt lat="68.498394973576069" lon="17.534859040752053">
        <ele>4.46</ele>
        <time>2017-06-27T14:09:11Z</time>
      </trkpt>
      <trkpt lat="68.497501965612173" lon="17.531853038817644">
        <ele>3.5</ele>
        <time>2017-06-27T14:09:19Z</time>
      </trkpt>
      <trkpt lat="68.497425019741058" lon="17.531404020264745">
        <ele>3.5</ele>
        <time>2017-06-27T14:09:20Z</time>
      </trkpt>
      <trkpt lat="68.497367016971111" lon="17.530936980620027">
        <ele>3.5</ele>
        <time>2017-06-27T14:09:21Z</time>
      </trkpt>
      <trkpt lat="68.497331980615854" lon="17.530447980388999">
        <ele>3.5</ele>
        <time>2017-06-27T14:09:22Z</time>
      </trkpt>
      <trkpt lat="68.497314965352416" lon="17.529960991814733">
        <ele>3.5</ele>
        <time>2017-06-27T14:09:23Z</time>
      </trkpt>
      <trkpt lat="68.497314965352416" lon="17.529465034604073">
        <ele>3.98</ele>
        <time>2017-06-27T14:09:24Z</time>
      </trkpt>
      <trkpt lat="68.497324017807841" lon="17.528968993574381">
        <ele>4.46</ele>
        <time>2017-06-27T14:09:25Z</time>
      </trkpt>
      <trkpt lat="68.497114973142743" lon="17.524879965931177">
        <ele>5.42</ele>
        <time>2017-06-27T14:09:33Z</time>
      </trkpt>
      <trkpt lat="68.496819008141756" lon="17.52344498410821">
        <ele>5.42</ele>
        <time>2017-06-27T14:09:36Z</time>
      </trkpt>
      <trkpt lat="68.496690010651946" lon="17.523007029667497">
        <ele>5.42</ele>
        <time>2017-06-27T14:09:37Z</time>
      </trkpt>
      <trkpt lat="68.49654701538384" lon="17.522592963650823">
        <ele>5.42</ele>
        <time>2017-06-27T14:09:38Z</time>
      </trkpt>
      <trkpt lat="68.496402008458972" lon="17.522197002544999">
        <ele>4.94</ele>
        <time>2017-06-27T14:09:39Z</time>
      </trkpt>
      <trkpt lat="68.49624702706933" lon="17.521836999803782">
        <ele>4.94</ele>
        <time>2017-06-27T14:09:40Z</time>
      </trkpt>
      <trkpt lat="68.496089028194547" lon="17.52151396125555">
        <ele>4.94</ele>
        <time>2017-06-27T14:09:41Z</time>
      </trkpt>
      <trkpt lat="68.495919965207577" lon="17.521229982376099">
        <ele>4.94</ele>
        <time>2017-06-27T14:09:42Z</time>
      </trkpt>
      <trkpt lat="68.495743023231626" lon="17.520964024588466">
        <ele>5.42</ele>
        <time>2017-06-27T14:09:43Z</time>
      </trkpt>
      <trkpt lat="68.49407896399498" lon="17.519108019769192">
        <ele>5.42</ele>
        <time>2017-06-27T14:09:52Z</time>
      </trkpt>
      <trkpt lat="68.491881983354688" lon="17.518176035955548">
        <ele>16.48</ele>
        <time>2017-06-27T14:10:03Z</time>
      </trkpt>
      <trkpt lat="68.490715976804495" lon="17.518121972680092">
        <ele>25.609999999999999</ele>
        <time>2017-06-27T14:10:09Z</time>
      </trkpt>
      <trkpt lat="68.490541968494654" lon="17.518259016796947">
        <ele>27.050000000000001</ele>
        <time>2017-06-27T14:10:10Z</time>
      </trkpt>
      <trkpt lat="68.490367038175464" lon="17.518458003178239">
        <ele>28.02</ele>
        <time>2017-06-27T14:10:11Z</time>
      </trkpt>
      <trkpt lat="68.490191018208861" lon="17.518713986501098">
        <ele>29.460000000000001</ele>
        <time>2017-06-27T14:10:12Z</time>
      </trkpt>
      <trkpt lat="68.490020027384162" lon="17.51899603754282">
        <ele>30.420000000000002</ele>
        <time>2017-06-27T14:10:13Z</time>
      </trkpt>
      <trkpt lat="68.489852976053953" lon="17.519313041120768">
        <ele>31.859999999999999</ele>
        <time>2017-06-27T14:10:14Z</time>
      </trkpt>
      <trkpt lat="68.488137032836676" lon="17.522833021357656">
        <ele>40.030000000000001</ele>
        <time>2017-06-27T14:10:25Z</time>
      </trkpt>
      <trkpt lat="68.486981000751257" lon="17.524510994553566">
        <ele>39.549999999999997</ele>
        <time>2017-06-27T14:10:33Z</time>
      </trkpt>
      <trkpt lat="68.48582798615098" lon="17.524893963709474">
        <ele>38.109999999999999</ele>
        <time>2017-06-27T14:10:40Z</time>
      </trkpt>
      <trkpt lat="68.485372010618448" lon="17.524676034227014">
        <ele>37.630000000000003</ele>
        <time>2017-06-27T14:10:44Z</time>
      </trkpt>
      <trkpt lat="68.485134970396757" lon="17.524294992908835">
        <ele>36.670000000000002</ele>
        <time>2017-06-27T14:10:48Z</time>
      </trkpt>
      <trkpt lat="68.484917962923646" lon="17.524608979001641">
        <ele>37.630000000000003</ele>
        <time>2017-06-27T14:10:54Z</time>
      </trkpt>
      <trkpt lat="68.484930032864213" lon="17.524784998968244">
        <ele>37.630000000000003</ele>
        <time>2017-06-27T14:10:55Z</time>
      </trkpt>
      <trkpt lat="68.484936989843845" lon="17.525522019714117">
        <ele>37.630000000000003</ele>
        <time>2017-06-27T14:10:58Z</time>
      </trkpt>
      <trkpt lat="68.484917962923646" lon="17.525823013857007">
        <ele>37.630000000000003</ele>
        <time>2017-06-27T14:10:59Z</time>
      </trkpt>
      <trkpt lat="68.484706990420818" lon="17.527492018416524">
        <ele>35.710000000000001</ele>
        <time>2017-06-27T14:11:04Z</time>
      </trkpt>
      <trkpt lat="68.484627027064562" lon="17.527840035036206">
        <ele>35.229999999999997</ele>
        <time>2017-06-27T14:11:05Z</time>
      </trkpt>
      <trkpt lat="68.484531976282597" lon="17.528174975886941">
        <ele>34.740000000000002</ele>
        <time>2017-06-27T14:11:06Z</time>
      </trkpt>
      <trkpt lat="68.484426029026508" lon="17.528498014435172">
        <ele>34.259999999999998</ele>
        <time>2017-06-27T14:11:07Z</time>
      </trkpt>
      <trkpt lat="68.484311029314995" lon="17.528824992477894">
        <ele>33.299999999999997</ele>
        <time>2017-06-27T14:11:08Z</time>
      </trkpt>
      <trkpt lat="68.48311903886497" lon="17.531943982467055">
        <ele>26.57</ele>
        <time>2017-06-27T14:11:18Z</time>
      </trkpt>
      <trkpt lat="68.481282982975245" lon="17.536795008927584">
        <ele>18.879999999999999</ele>
        <time>2017-06-27T14:11:34Z</time>
      </trkpt>
      <trkpt lat="68.480216972529888" lon="17.540688989683986">
        <ele>9.75</ele>
        <time>2017-06-27T14:11:45Z</time>
      </trkpt>
      <trkpt lat="68.48011395893991" lon="17.541563976556063">
        <ele>8.310000000000001</ele>
        <time>2017-06-27T14:11:47Z</time>
      </trkpt>
      <trkpt lat="68.480083029717207" lon="17.542053982615471">
        <ele>6.87</ele>
        <time>2017-06-27T14:11:48Z</time>
      </trkpt>
      <trkpt lat="68.480065008625388" lon="17.542584976181388">
        <ele>5.91</ele>
        <time>2017-06-27T14:11:49Z</time>
      </trkpt>
      <trkpt lat="68.480060985311866" lon="17.543144971132278">
        <ele>4.94</ele>
        <time>2017-06-27T14:11:50Z</time>
      </trkpt>
      <trkpt lat="68.480067020282149" lon="17.543719969689846">
        <ele>3.98</ele>
        <time>2017-06-27T14:11:51Z</time>
      </trkpt>
      <trkpt lat="68.480168022215366" lon="17.547383029013872">
        <ele>1.1</ele>
        <time>2017-06-27T14:11:58Z</time>
      </trkpt>
      <trkpt lat="68.480146983638406" lon="17.547816960141063">
        <ele>1.1</ele>
        <time>2017-06-27T14:11:59Z</time>
      </trkpt>
      <trkpt lat="68.480105996131897" lon="17.548242006450891">
        <ele>0.62</ele>
        <time>2017-06-27T14:12:00Z</time>
      </trkpt>
      <trkpt lat="68.480041958391666" lon="17.548662023618817">
        <ele>0.62</ele>
        <time>2017-06-27T14:12:01Z</time>
      </trkpt>
      <trkpt lat="68.479963000863791" lon="17.54907701164484">
        <ele>0.62</ele>
        <time>2017-06-27T14:12:02Z</time>
      </trkpt>
      <trkpt lat="68.479874990880489" lon="17.549490993842483">
        <ele>0.62</ele>
        <time>2017-06-27T14:12:03Z</time>
      </trkpt>
      <trkpt lat="68.479409962892532" lon="17.5518489908427">
        <ele>2.54</ele>
        <time>2017-06-27T14:12:09Z</time>
      </trkpt>
      <trkpt lat="68.479369981214404" lon="17.552263978868723">
        <ele>3.02</ele>
        <time>2017-06-27T14:12:10Z</time>
      </trkpt>
      <trkpt lat="68.479345003142953" lon="17.552691958844662">
        <ele>3.02</ele>
        <time>2017-06-27T14:12:11Z</time>
      </trkpt>
      <trkpt lat="68.479334022849798" lon="17.553131002932787">
        <ele>3.98</ele>
        <time>2017-06-27T14:12:12Z</time>
      </trkpt>
      <trkpt lat="68.479336034506559" lon="17.553592007607222">
        <ele>4.46</ele>
        <time>2017-06-27T14:12:13Z</time>
      </trkpt>
      <trkpt lat="68.479349026456475" lon="17.554066004231572">
        <ele>4.94</ele>
        <time>2017-06-27T14:12:14Z</time>
      </trkpt>
      <trkpt lat="68.479486992582679" lon="17.559781959280372">
        <ele>8.310000000000001</ele>
        <time>2017-06-27T14:12:25Z</time>
      </trkpt>
      <trkpt lat="68.479449022561312" lon="17.560270959511399">
        <ele>8.310000000000001</ele>
        <time>2017-06-27T14:12:26Z</time>
      </trkpt>
      <trkpt lat="68.479392025619745" lon="17.56074302829802">
        <ele>8.310000000000001</ele>
        <time>2017-06-27T14:12:27Z</time>
      </trkpt>
      <trkpt lat="68.47931700758636" lon="17.561206966638565">
        <ele>8.310000000000001</ele>
        <time>2017-06-27T14:12:28Z</time>
      </trkpt>
      <trkpt lat="68.479222962632775" lon="17.561674006283283">
        <ele>8.310000000000001</ele>
        <time>2017-06-27T14:12:29Z</time>
      </trkpt>
      <trkpt lat="68.479122966527939" lon="17.562122019007802">
        <ele>8.310000000000001</ele>
        <time>2017-06-27T14:12:30Z</time>
      </trkpt>
      <trkpt lat="68.479005033150315" lon="17.562531977891922">
        <ele>8.310000000000001</ele>
        <time>2017-06-27T14:12:31Z</time>
      </trkpt>
      <trkpt lat="68.478879975154996" lon="17.562905978411436">
        <ele>7.83</ele>
        <time>2017-06-27T14:12:32Z</time>
      </trkpt>
      <trkpt lat="68.478749971836805" lon="17.563253995031118">
        <ele>7.83</ele>
        <time>2017-06-27T14:12:33Z</time>
      </trkpt>
      <trkpt lat="68.478615023195744" lon="17.563555995002389">
        <ele>7.83</ele>
        <time>2017-06-27T14:12:34Z</time>
      </trkpt>
      <trkpt lat="68.478465992957354" lon="17.56381499581039">
        <ele>8.310000000000001</ele>
        <time>2017-06-27T14:12:35Z</time>
      </trkpt>
      <trkpt lat="68.478310005739331" lon="17.564042983576655">
        <ele>8.310000000000001</ele>
        <time>2017-06-27T14:12:36Z</time>
      </trkpt>
      <trkpt lat="68.478142032399774" lon="17.564225038513541">
        <ele>8.310000000000001</ele>
        <time>2017-06-27T14:12:37Z</time>
      </trkpt>
      <trkpt lat="68.47796400077641" lon="17.56437499076128">
        <ele>8.310000000000001</ele>
        <time>2017-06-27T14:12:38Z</time>
      </trkpt>
      <trkpt lat="68.477780018001795" lon="17.564471969380975">
        <ele>9.27</ele>
        <time>2017-06-27T14:12:39Z</time>
      </trkpt>
      <trkpt lat="68.477587988600135" lon="17.564532989636064">
        <ele>9.27</ele>
        <time>2017-06-27T14:12:40Z</time>
      </trkpt>
      <trkpt lat="68.477392019703984" lon="17.56458998657763">
        <ele>9.75</ele>
        <time>2017-06-27T14:12:41Z</time>
      </trkpt>
      <trkpt lat="68.475613966584206" lon="17.565085021778941">
        <ele>12.630000000000001</ele>
        <time>2017-06-27T14:12:51Z</time>
      </trkpt>
      <trkpt lat="68.474981971085072" lon="17.56598699837923">
        <ele>12.15</ele>
        <time>2017-06-27T14:12:56Z</time>
      </trkpt>
      <trkpt lat="68.474875018000603" lon="17.566257985308766">
        <ele>11.67</ele>
        <time>2017-06-27T14:12:57Z</time>
      </trkpt>
      <trkpt lat="68.474776027724147" lon="17.56656602025032">
        <ele>11.67</ele>
        <time>2017-06-27T14:12:58Z</time>
      </trkpt>
      <trkpt lat="68.474690029397607" lon="17.566902972757816">
        <ele>11.19</ele>
        <time>2017-06-27T14:12:59Z</time>
      </trkpt>
      <trkpt lat="68.474610988050699" lon="17.567264987155795">
        <ele>10.710000000000001</ele>
        <time>2017-06-27T14:13:00Z</time>
      </trkpt>
      <trkpt lat="68.474536975845695" lon="17.567642005160451">
        <ele>10.23</ele>
        <time>2017-06-27T14:13:01Z</time>
      </trkpt>
      <trkpt lat="68.474471010267735" lon="17.568036960437894">
        <ele>10.23</ele>
        <time>2017-06-27T14:13:02Z</time>
      </trkpt>
      <trkpt lat="68.47418300807476" lon="17.571331970393658">
        <ele>8.310000000000001</ele>
        <time>2017-06-27T14:13:10Z</time>
      </trkpt>
      <trkpt lat="68.475631987676024" lon="17.58858896791935">
        <ele>-1.3</ele>
        <time>2017-06-27T14:13:41Z</time>
      </trkpt>
      <trkpt lat="68.476317962631583" lon="17.621238995343447">
        <ele>11.67</ele>
        <time>2017-06-27T14:14:34Z</time>
      </trkpt>
      <trkpt lat="68.47656698897481" lon="17.625311007723212">
        <ele>21.77</ele>
        <time>2017-06-27T14:14:41Z</time>
      </trkpt>
      <trkpt lat="68.477110974490643" lon="17.629311019554734">
        <ele>33.780000000000001</ele>
        <time>2017-06-27T14:14:49Z</time>
      </trkpt>
      <trkpt lat="68.477132013067603" lon="17.629764983430505">
        <ele>35.229999999999997</ele>
        <time>2017-06-27T14:14:50Z</time>
      </trkpt>
      <trkpt lat="68.477132013067603" lon="17.630212996155024">
        <ele>35.710000000000001</ele>
        <time>2017-06-27T14:14:51Z</time>
      </trkpt>
      <trkpt lat="68.477120026946068" lon="17.630660003051162">
        <ele>36.670000000000002</ele>
        <time>2017-06-27T14:14:52Z</time>
      </trkpt>
      <trkpt lat="68.47708398476243" lon="17.631106004118919">
        <ele>36.670000000000002</ele>
        <time>2017-06-27T14:14:53Z</time>
      </trkpt>
      <trkpt lat="68.477022964507341" lon="17.631544964388013">
        <ele>37.630000000000003</ele>
        <time>2017-06-27T14:14:54Z</time>
      </trkpt>
      <trkpt lat="68.476948030292988" lon="17.631973028182983">
        <ele>39.07</ele>
        <time>2017-06-27T14:14:55Z</time>
      </trkpt>
      <trkpt lat="68.476861026138067" lon="17.632394973188639">
        <ele>40.509999999999998</ele>
        <time>2017-06-27T14:14:56Z</time>
      </trkpt>
      <trkpt lat="68.476617028936744" lon="17.633689977228642">
        <ele>44.359999999999999</ele>
        <time>2017-06-27T14:14:59Z</time>
      </trkpt>
      <trkpt lat="68.476564977318048" lon="17.634169002994895">
        <ele>45.32</ele>
        <time>2017-06-27T14:15:00Z</time>
      </trkpt>
      <trkpt lat="68.476531030610204" lon="17.634666971862316">
        <ele>46.759999999999998</ele>
        <time>2017-06-27T14:15:01Z</time>
      </trkpt>
      <trkpt lat="68.476515021175146" lon="17.635181033983827">
        <ele>47.719999999999999</ele>
        <time>2017-06-27T14:15:02Z</time>
      </trkpt>
      <trkpt lat="68.476505968719721" lon="17.635709010064602">
        <ele>48.68</ele>
        <time>2017-06-27T14:15:03Z</time>
      </trkpt>
      <trkpt lat="68.476412007585168" lon="17.642679987475276">
        <ele>62.619999999999997</ele>
        <time>2017-06-27T14:15:16Z</time>
      </trkpt>
      <trkpt lat="68.476355010643601" lon="17.643162030726671">
        <ele>62.619999999999997</ele>
        <time>2017-06-27T14:15:17Z</time>
      </trkpt>
      <trkpt lat="68.476278986781836" lon="17.643621023744345">
        <ele>63.100000000000001</ele>
        <time>2017-06-27T14:15:18Z</time>
      </trkpt>
      <trkpt lat="68.476185025647283" lon="17.64406300149858">
        <ele>63.100000000000001</ele>
        <time>2017-06-27T14:15:19Z</time>
      </trkpt>
      <trkpt lat="68.476066002622247" lon="17.644486036151648">
        <ele>63.579999999999998</ele>
        <time>2017-06-27T14:15:20Z</time>
      </trkpt>
      <trkpt lat="68.475931975990534" lon="17.644893983379006">
        <ele>63.579999999999998</ele>
        <time>2017-06-27T14:15:21Z</time>
      </trkpt>
      <trkpt lat="68.475784035399556" lon="17.645292961969972">
        <ele>64.069999999999993</ele>
        <time>2017-06-27T14:15:22Z</time>
      </trkpt>
      <trkpt lat="68.474262971431017" lon="17.649793960154057">
        <ele>68.390000000000001</ele>
        <time>2017-06-27T14:15:32Z</time>
      </trkpt>
      <trkpt lat="68.472768981009722" lon="17.654270986095071">
        <ele>77.519999999999996</ele>
        <time>2017-06-27T14:15:43Z</time>
      </trkpt>
      <trkpt lat="68.47160498611629" lon="17.655919035896659">
        <ele>75.599999999999994</ele>
        <time>2017-06-27T14:15:50Z</time>
      </trkpt>
      <trkpt lat="68.470149971544743" lon="17.658382980152965">
        <ele>66.469999999999999</ele>
        <time>2017-06-27T14:15:59Z</time>
      </trkpt>
      <trkpt lat="68.468613987788558" lon="17.659763982519507">
        <ele>55.890000000000001</ele>
        <time>2017-06-27T14:16:07Z</time>
      </trkpt>
      <trkpt lat="68.467472959309816" lon="17.661578999832273">
        <ele>46.759999999999998</ele>
        <time>2017-06-27T14:16:14Z</time>
      </trkpt>
      <trkpt lat="68.465402964502573" lon="17.66520501114428">
        <ele>33.299999999999997</ele>
        <time>2017-06-27T14:16:26Z</time>
      </trkpt>
      <trkpt lat="68.464654963463545" lon="17.666982980445027">
        <ele>30.899999999999999</ele>
        <time>2017-06-27T14:16:31Z</time>
      </trkpt>
      <trkpt lat="68.464547004550695" lon="17.66741699539125">
        <ele>30.899999999999999</ele>
        <time>2017-06-27T14:16:32Z</time>
      </trkpt>
      <trkpt lat="68.464452037587762" lon="17.667866013944149">
        <ele>30.420000000000002</ele>
        <time>2017-06-27T14:16:33Z</time>
      </trkpt>
      <trkpt lat="68.464370984584093" lon="17.6683209836483">
        <ele>30.420000000000002</ele>
        <time>2017-06-27T14:16:34Z</time>
      </trkpt>
      <trkpt lat="68.464310970157385" lon="17.668787017464638">
        <ele>29.940000000000001</ele>
        <time>2017-06-27T14:16:35Z</time>
      </trkpt>
      <trkpt lat="68.464268976822495" lon="17.669262019917369">
        <ele>28.98</ele>
        <time>2017-06-27T14:16:36Z</time>
      </trkpt>
      <trkpt lat="68.464239975437522" lon="17.669769041240215">
        <ele>28.02</ele>
        <time>2017-06-27T14:16:37Z</time>
      </trkpt>
      <trkpt lat="68.464220026507974" lon="17.670277990400791">
        <ele>27.050000000000001</ele>
        <time>2017-06-27T14:16:38Z</time>
      </trkpt>
      <trkpt lat="68.464208040386438" lon="17.670804960653186">
        <ele>26.57</ele>
        <time>2017-06-27T14:16:39Z</time>
      </trkpt>
      <trkpt lat="68.464137967675924" lon="17.67665502615273">
        <ele>22.25</ele>
        <time>2017-06-27T14:16:49Z</time>
      </trkpt>
      <trkpt lat="68.463983992114663" lon="17.682678010314703">
        <ele>20.809999999999999</ele>
        <time>2017-06-27T14:17:01Z</time>
      </trkpt>
      <trkpt lat="68.46348199993372" lon="17.686812970787287">
        <ele>15.52</ele>
        <time>2017-06-27T14:17:11Z</time>
      </trkpt>
      <trkpt lat="68.462674990296364" lon="17.689644964411855">
        <ele>11.19</ele>
        <time>2017-06-27T14:17:19Z</time>
      </trkpt>
      <trkpt lat="68.461171025410295" lon="17.693358985707164">
        <ele>8.310000000000001</ele>
        <time>2017-06-27T14:17:32Z</time>
      </trkpt>
      <trkpt lat="68.460439033806324" lon="17.695307023823261">
        <ele>10.23</ele>
        <time>2017-06-27T14:17:39Z</time>
      </trkpt>
      <trkpt lat="68.460360998287797" lon="17.695632996037602">
        <ele>10.23</ele>
        <time>2017-06-27T14:17:40Z</time>
      </trkpt>
      <trkpt lat="68.460298972204328" lon="17.695985035970807">
        <ele>10.23</ele>
        <time>2017-06-27T14:17:41Z</time>
      </trkpt>
      <trkpt lat="68.460248010233045" lon="17.696356019005179">
        <ele>9.75</ele>
        <time>2017-06-27T14:17:42Z</time>
      </trkpt>
      <trkpt lat="68.460207022726536" lon="17.696750974282622">
        <ele>9.75</ele>
        <time>2017-06-27T14:17:43Z</time>
      </trkpt>
      <trkpt lat="68.460168968886137" lon="17.697159005329013">
        <ele>9.27</ele>
        <time>2017-06-27T14:17:44Z</time>
      </trkpt>
      <trkpt lat="68.459897981956601" lon="17.699170997366309">
        <ele>8.789999999999999</ele>
        <time>2017-06-27T14:17:49Z</time>
      </trkpt>
      <trkpt lat="68.45980703830719" lon="17.699514990672469">
        <ele>8.789999999999999</ele>
        <time>2017-06-27T14:17:50Z</time>
      </trkpt>
      <trkpt lat="68.459704024717212" lon="17.699846997857094">
        <ele>8.789999999999999</ele>
        <time>2017-06-27T14:17:51Z</time>
      </trkpt>
      <trkpt lat="68.459589025005698" lon="17.700147991999984">
        <ele>9.27</ele>
        <time>2017-06-27T14:17:52Z</time>
      </trkpt>
      <trkpt lat="68.459462039172649" lon="17.700415039435029">
        <ele>9.75</ele>
        <time>2017-06-27T14:17:53Z</time>
      </trkpt>
      <trkpt lat="68.459324995055795" lon="17.700640009716153">
        <ele>10.23</ele>
        <time>2017-06-27T14:17:54Z</time>
      </trkpt>
      <trkpt lat="68.459178982302547" lon="17.700818041339517">
        <ele>11.19</ele>
        <time>2017-06-27T14:17:55Z</time>
      </trkpt>
      <trkpt lat="68.459020983427763" lon="17.700933963060379">
        <ele>12.15</ele>
        <time>2017-06-27T14:17:56Z</time>
      </trkpt>
      <trkpt lat="68.458862984552979" lon="17.701005963608623">
        <ele>12.630000000000001</ele>
        <time>2017-06-27T14:17:57Z</time>
      </trkpt>
      <trkpt lat="68.458702974021435" lon="17.701027002185583">
        <ele>13.6</ele>
        <time>2017-06-27T14:17:58Z</time>
      </trkpt>
      <trkpt lat="68.45854002982378" lon="17.701001018285751">
        <ele>14.08</ele>
        <time>2017-06-27T14:17:59Z</time>
      </trkpt>
      <trkpt lat="68.458379013463855" lon="17.700947038829327">
        <ele>14.56</ele>
        <time>2017-06-27T14:18:00Z</time>
      </trkpt>
      <trkpt lat="68.457437977194786" lon="17.700802031904459">
        <ele>17.440000000000001</ele>
        <time>2017-06-27T14:18:06Z</time>
      </trkpt>
      <trkpt lat="68.457285007461905" lon="17.700863974168897">
        <ele>17.440000000000001</ele>
        <time>2017-06-27T14:18:07Z</time>
      </trkpt>
      <trkpt lat="68.457130026072264" lon="17.700965981930494">
        <ele>17.440000000000001</ele>
        <time>2017-06-27T14:18:08Z</time>
      </trkpt>
      <trkpt lat="68.456978984177113" lon="17.701095985248685">
        <ele>16.960000000000001</ele>
        <time>2017-06-27T14:18:09Z</time>
      </trkpt>
      <trkpt lat="68.456825008615851" lon="17.701269993558526">
        <ele>16.960000000000001</ele>
        <time>2017-06-27T14:18:10Z</time>
      </trkpt>
      <trkpt lat="68.45667296089232" lon="17.701483983546495">
        <ele>16</ele>
        <time>2017-06-27T14:18:11Z</time>
      </trkpt>
      <trkpt lat="68.456515967845917" lon="17.701732004061341">
        <ele>15.52</ele>
        <time>2017-06-27T14:18:12Z</time>
      </trkpt>
      <trkpt lat="68.455085009336472" lon="17.7042640093714">
        <ele>8.310000000000001</ele>
        <time>2017-06-27T14:18:20Z</time>
      </trkpt>
      <trkpt lat="68.45362002030015" lon="17.705965032801032">
        <ele>6.39</ele>
        <time>2017-06-27T14:18:27Z</time>
      </trkpt>
      <trkpt lat="68.451940035447478" lon="17.707304041832685">
        <ele>6.39</ele>
        <time>2017-06-27T14:18:35Z</time>
      </trkpt>
      <trkpt lat="68.450428023934364" lon="17.707747025415301">
        <ele>9.27</ele>
        <time>2017-06-27T14:18:43Z</time>
      </trkpt>
      <trkpt lat="68.44921600073576" lon="17.706676991656423">
        <ele>12.630000000000001</ele>
        <time>2017-06-27T14:18:50Z</time>
      </trkpt>
      <trkpt lat="68.445782018825412" lon="17.701880028471351">
        <ele>22.25</ele>
        <time>2017-06-27T14:19:10Z</time>
      </trkpt>
      <trkpt lat="68.444609977304935" lon="17.701425980776548">
        <ele>27.050000000000001</ele>
        <time>2017-06-27T14:19:17Z</time>
      </trkpt>
      <trkpt lat="68.443471966311336" lon="17.702422002330422">
        <ele>35.229999999999997</ele>
        <time>2017-06-27T14:19:24Z</time>
      </trkpt>
      <trkpt lat="68.44115998595953" lon="17.705652974545956">
        <ele>48.200000000000003</ele>
        <time>2017-06-27T14:19:38Z</time>
      </trkpt>
      <trkpt lat="68.43862496316433" lon="17.708879001438618">
        <ele>51.57</ele>
        <time>2017-06-27T14:19:52Z</time>
      </trkpt>
      <trkpt lat="68.438442992046475" lon="17.708943961188197">
        <ele>52.049999999999997</ele>
        <time>2017-06-27T14:19:53Z</time>
      </trkpt>
      <trkpt lat="68.438261020928621" lon="17.708962988108397">
        <ele>51.57</ele>
        <time>2017-06-27T14:19:54Z</time>
      </trkpt>
      <trkpt lat="68.438082989305258" lon="17.708932980895042">
        <ele>51.57</ele>
        <time>2017-06-27T14:19:55Z</time>
      </trkpt>
      <trkpt lat="68.437906969338655" lon="17.708857040852308">
        <ele>51.57</ele>
        <time>2017-06-27T14:19:56Z</time>
      </trkpt>
      <trkpt lat="68.437732039019465" lon="17.708732988685369">
        <ele>51.57</ele>
        <time>2017-06-27T14:19:57Z</time>
      </trkpt>
      <trkpt lat="68.437560964375734" lon="17.708578007295728">
        <ele>50.609999999999999</ele>
        <time>2017-06-27T14:19:58Z</time>
      </trkpt>
      <trkpt lat="68.437395002692938" lon="17.708396036177874">
        <ele>50.130000000000003</ele>
        <time>2017-06-27T14:19:59Z</time>
      </trkpt>
      <trkpt lat="68.437228035181761" lon="17.70815396681428">
        <ele>49.159999999999997</ele>
        <time>2017-06-27T14:20:00Z</time>
      </trkpt>
      <trkpt lat="68.437064001336694" lon="17.707868982106447">
        <ele>48.200000000000003</ele>
        <time>2017-06-27T14:20:01Z</time>
      </trkpt>
      <trkpt lat="68.436901979148388" lon="17.707532029598951">
        <ele>46.759999999999998</ele>
        <time>2017-06-27T14:20:02Z</time>
      </trkpt>
      <trkpt lat="68.436741968616843" lon="17.707173032686114">
        <ele>45.32</ele>
        <time>2017-06-27T14:20:03Z</time>
      </trkpt>
      <trkpt lat="68.434718996286392" lon="17.702518980950117">
        <ele>41.950000000000003</ele>
        <time>2017-06-27T14:20:16Z</time>
      </trkpt>
      <trkpt lat="68.433995973318815" lon="17.699607023969293">
        <ele>36.670000000000002</ele>
        <time>2017-06-27T14:20:22Z</time>
      </trkpt>
      <trkpt lat="68.433149987831712" lon="17.693956028670073">
        <ele>34.259999999999998</ele>
        <time>2017-06-27T14:20:32Z</time>
      </trkpt>
      <trkpt lat="68.432857040315866" lon="17.691541034728289">
        <ele>37.149999999999999</ele>
        <time>2017-06-27T14:20:37Z</time>
      </trkpt>
      <trkpt lat="68.432843964546919" lon="17.691088998690248">
        <ele>37.630000000000003</ele>
        <time>2017-06-27T14:20:38Z</time>
      </trkpt>
      <trkpt lat="68.432852011173964" lon="17.690633023157716">
        <ele>37.630000000000003</ele>
        <time>2017-06-27T14:20:39Z</time>
      </trkpt>
      <trkpt lat="68.432880006730556" lon="17.690196996554732">
        <ele>38.109999999999999</ele>
        <time>2017-06-27T14:20:40Z</time>
      </trkpt>
      <trkpt lat="68.432935997843742" lon="17.689763987436891">
        <ele>38.590000000000003</ele>
        <time>2017-06-27T14:20:41Z</time>
      </trkpt>
      <trkpt lat="68.433012021705508" lon="17.689352016896009">
        <ele>39.549999999999997</ele>
        <time>2017-06-27T14:20:42Z</time>
      </trkpt>
      <trkpt lat="68.433104977011681" lon="17.688959995284677">
        <ele>40.030000000000001</ele>
        <time>2017-06-27T14:20:43Z</time>
      </trkpt>
      <trkpt lat="68.433206984773278" lon="17.688593035563827">
        <ele>40.509999999999998</ele>
        <time>2017-06-27T14:20:44Z</time>
      </trkpt>
      <trkpt lat="68.433313015848398" lon="17.688238983973861">
        <ele>40.990000000000002</ele>
        <time>2017-06-27T14:20:45Z</time>
      </trkpt>
      <trkpt lat="68.433501021936536" lon="17.687500035390258">
        <ele>41.950000000000003</ele>
        <time>2017-06-27T14:20:47Z</time>
      </trkpt>
      <trkpt lat="68.433575034141541" lon="17.687084963545203">
        <ele>41.950000000000003</ele>
        <time>2017-06-27T14:20:48Z</time>
      </trkpt>
      <trkpt lat="68.433633958920836" lon="17.686641979962587">
        <ele>42.439999999999998</ele>
        <time>2017-06-27T14:20:49Z</time>
      </trkpt>
      <trkpt lat="68.433679975569248" lon="17.686186004430056">
        <ele>41.950000000000003</ele>
        <time>2017-06-27T14:20:50Z</time>
      </trkpt>
      <trkpt lat="68.433717023581266" lon="17.685711001977324">
        <ele>41.950000000000003</ele>
        <time>2017-06-27T14:20:51Z</time>
      </trkpt>
      <trkpt lat="68.434248017147183" lon="17.678645979613066">
        <ele>56.369999999999997</ele>
        <time>2017-06-27T14:21:05Z</time>
      </trkpt>
      <trkpt lat="68.434682032093406" lon="17.675892021507025">
        <ele>63.579999999999998</ele>
        <time>2017-06-27T14:21:11Z</time>
      </trkpt>
      <trkpt lat="68.434723019599915" lon="17.675403021275997">
        <ele>65.030000000000001</ele>
        <time>2017-06-27T14:21:12Z</time>
      </trkpt>
      <trkpt lat="68.434742968529463" lon="17.674903040751815">
        <ele>65.989999999999995</ele>
        <time>2017-06-27T14:21:13Z</time>
      </trkpt>
      <trkpt lat="68.434754032641649" lon="17.674393001943827">
        <ele>67.909999999999997</ele>
        <time>2017-06-27T14:21:14Z</time>
      </trkpt>
      <trkpt lat="68.434751015156507" lon="17.673859996721148">
        <ele>68.870000000000005</ele>
        <time>2017-06-27T14:21:15Z</time>
      </trkpt>
      <trkpt lat="68.434836007654667" lon="17.66870403662324">
        <ele>78.969999999999999</ele>
        <time>2017-06-27T14:21:24Z</time>
      </trkpt>
      <trkpt lat="68.434936003759503" lon="17.667607013136148">
        <ele>79.450000000000003</ele>
        <time>2017-06-27T14:21:26Z</time>
      </trkpt>
      <trkpt lat="68.435014961287379" lon="17.667097980156541">
        <ele>79.450000000000003</ele>
        <time>2017-06-27T14:21:27Z</time>
      </trkpt>
      <trkpt lat="68.435115963220596" lon="17.666610991582274">
        <ele>79.930000000000007</ele>
        <time>2017-06-27T14:21:28Z</time>
      </trkpt>
      <trkpt lat="68.435234986245632" lon="17.666136994957924">
        <ele>80.409999999999997</ele>
        <time>2017-06-27T14:21:29Z</time>
      </trkpt>
      <trkpt lat="68.435367001220584" lon="17.665668027475476">
        <ele>80.409999999999997</ele>
        <time>2017-06-27T14:21:30Z</time>
      </trkpt>
      <trkpt lat="68.435728009790182" lon="17.664229022338986">
        <ele>80.890000000000001</ele>
        <time>2017-06-27T14:21:33Z</time>
      </trkpt>
      <trkpt lat="68.435815013945103" lon="17.663704985752702">
        <ele>80.409999999999997</ele>
        <time>2017-06-27T14:21:34Z</time>
      </trkpt>
      <trkpt lat="68.435885002836585" lon="17.663155971094966">
        <ele>80.409999999999997</ele>
        <time>2017-06-27T14:21:35Z</time>
      </trkpt>
      <trkpt lat="68.435940993949771" lon="17.662579966709018">
        <ele>80.409999999999997</ele>
        <time>2017-06-27T14:21:36Z</time>
      </trkpt>
      <trkpt lat="68.435988016426563" lon="17.661989964544773">
        <ele>80.409999999999997</ele>
        <time>2017-06-27T14:21:37Z</time>
      </trkpt>
      <trkpt lat="68.436214998364449" lon="17.659807987511158">
        <ele>79.930000000000007</ele>
        <time>2017-06-27T14:21:41Z</time>
      </trkpt>
      <trkpt lat="68.436306025832891" lon="17.659346982836723">
        <ele>79.450000000000003</ele>
        <time>2017-06-27T14:21:42Z</time>
      </trkpt>
      <trkpt lat="68.436410967260599" lon="17.658913973718882">
        <ele>78.969999999999999</ele>
        <time>2017-06-27T14:21:43Z</time>
      </trkpt>
      <trkpt lat="68.437844021245837" lon="17.654041992500424">
        <ele>86.180000000000007</ele>
        <time>2017-06-27T14:21:55Z</time>
      </trkpt>
      <trkpt lat="68.439099965617061" lon="17.65254900790751">
        <ele>88.579999999999998</ele>
        <time>2017-06-27T14:22:02Z</time>
      </trkpt>
      <trkpt lat="68.440162036567926" lon="17.651457013562322">
        <ele>88.579999999999998</ele>
        <time>2017-06-27T14:22:08Z</time>
      </trkpt>
      <trkpt lat="68.440302014350891" lon="17.65119600109756">
        <ele>88.579999999999998</ele>
        <time>2017-06-27T14:22:09Z</time>
      </trkpt>
      <trkpt lat="68.440427994355559" lon="17.650886038318276">
        <ele>88.579999999999998</ele>
        <time>2017-06-27T14:22:10Z</time>
      </trkpt>
      <trkpt lat="68.440542994067073" lon="17.650532992556691">
        <ele>88.579999999999998</ele>
        <time>2017-06-27T14:22:11Z</time>
      </trkpt>
      <trkpt lat="68.440637961030006" lon="17.650137031450868">
        <ele>88.579999999999998</ele>
        <time>2017-06-27T14:22:12Z</time>
      </trkpt>
      <trkpt lat="68.440714990720153" lon="17.649716008454561">
        <ele>88.099999999999994</ele>
        <time>2017-06-27T14:22:13Z</time>
      </trkpt>
      <trkpt lat="68.440776010975242" lon="17.649257015436888">
        <ele>87.620000000000005</ele>
        <time>2017-06-27T14:22:14Z</time>
      </trkpt>
      <trkpt lat="68.440821021795273" lon="17.648764997720718">
        <ele>86.659999999999997</ele>
        <time>2017-06-27T14:22:15Z</time>
      </trkpt>
      <trkpt lat="68.440855974331498" lon="17.648248001933098">
        <ele>86.180000000000007</ele>
        <time>2017-06-27T14:22:16Z</time>
      </trkpt>
      <trkpt lat="68.441158980131149" lon="17.641967022791505">
        <ele>82.810000000000002</ele>
        <time>2017-06-27T14:22:27Z</time>
      </trkpt>
      <trkpt lat="68.441630965098739" lon="17.636335976421833">
        <ele>73.680000000000007</ele>
        <time>2017-06-27T14:22:37Z</time>
      </trkpt>
      <trkpt lat="68.443182036280632" lon="17.628860995173454">
        <ele>57.340000000000003</ele>
        <time>2017-06-27T14:22:51Z</time>
      </trkpt>
      <trkpt lat="68.443498034030199" lon="17.626931983977556">
        <ele>54.450000000000003</ele>
        <time>2017-06-27T14:22:55Z</time>
      </trkpt>
      <trkpt lat="68.443540027365088" lon="17.626416999846697">
        <ele>53.490000000000002</ele>
        <time>2017-06-27T14:22:56Z</time>
      </trkpt>
      <trkpt lat="68.443571040406823" lon="17.625877037644386">
        <ele>53.009999999999998</ele>
        <time>2017-06-27T14:22:57Z</time>
      </trkpt>
      <trkpt lat="68.443834986537695" lon="17.620251020416617">
        <ele>42.439999999999998</ele>
        <time>2017-06-27T14:23:07Z</time>
      </trkpt>
      <trkpt lat="68.444400010630488" lon="17.616050010547042">
        <ele>31.379999999999999</ele>
        <time>2017-06-27T14:23:15Z</time>
      </trkpt>
      <trkpt lat="68.444427000358701" lon="17.615567967295647">
        <ele>29.940000000000001</ele>
        <time>2017-06-27T14:23:16Z</time>
      </trkpt>
      <trkpt lat="68.444435968995094" lon="17.615076033398509">
        <ele>28.5</ele>
        <time>2017-06-27T14:23:17Z</time>
      </trkpt>
      <trkpt lat="68.444427000358701" lon="17.614570017904043">
        <ele>27.530000000000001</ele>
        <time>2017-06-27T14:23:18Z</time>
      </trkpt>
      <trkpt lat="68.444401016458869" lon="17.614060984924436">
        <ele>27.050000000000001</ele>
        <time>2017-06-27T14:23:19Z</time>
      </trkpt>
      <trkpt lat="68.444361034780741" lon="17.61355304159224">
        <ele>26.09</ele>
        <time>2017-06-27T14:23:20Z</time>
      </trkpt>
      <trkpt lat="68.444309988990426" lon="17.613036967813969">
        <ele>24.649999999999999</ele>
        <time>2017-06-27T14:23:21Z</time>
      </trkpt>
      <trkpt lat="68.444157019257545" lon="17.61104098521173">
        <ele>21.289999999999999</ele>
        <time>2017-06-27T14:23:25Z</time>
      </trkpt>
      <trkpt lat="68.444161964580417" lon="17.61052499525249">
        <ele>20.809999999999999</ele>
        <time>2017-06-27T14:23:26Z</time>
      </trkpt>
      <trkpt lat="68.44419096596539" lon="17.610004981979728">
        <ele>20.32</ele>
        <time>2017-06-27T14:23:27Z</time>
      </trkpt>
      <trkpt lat="68.444241005927324" lon="17.609486980363727">
        <ele>20.809999999999999</ele>
        <time>2017-06-27T14:23:28Z</time>
      </trkpt>
      <trkpt lat="68.444310994818807" lon="17.608967972919345">
        <ele>20.809999999999999</ele>
        <time>2017-06-27T14:23:29Z</time>
      </trkpt>
      <trkpt lat="68.444396993145347" lon="17.608444020152092">
        <ele>21.289999999999999</ele>
        <time>2017-06-27T14:23:30Z</time>
      </trkpt>
      <trkpt lat="68.445589989423752" lon="17.601448986679316">
        <ele>21.289999999999999</ele>
        <time>2017-06-27T14:23:43Z</time>
      </trkpt>
      <trkpt lat="68.445919984951615" lon="17.600164962932467">
        <ele>20.32</ele>
        <time>2017-06-27T14:23:46Z</time>
      </trkpt>
      <trkpt lat="68.44605996273458" lon="17.599796997383237">
        <ele>19.359999999999999</ele>
        <time>2017-06-27T14:23:47Z</time>
      </trkpt>
      <trkpt lat="68.446216033771634" lon="17.59946096688509">
        <ele>18.879999999999999</ele>
        <time>2017-06-27T14:23:48Z</time>
      </trkpt>
      <trkpt lat="68.446813998743892" lon="17.59825699031353">
        <ele>18.879999999999999</ele>
        <time>2017-06-27T14:23:52Z</time>
      </trkpt>
      <trkpt lat="68.446928998455405" lon="17.597911991178989">
        <ele>19.359999999999999</ele>
        <time>2017-06-27T14:23:53Z</time>
      </trkpt>
      <trkpt lat="68.447019020095468" lon="17.597516030073166">
        <ele>18.879999999999999</ele>
        <time>2017-06-27T14:23:54Z</time>
      </trkpt>
      <trkpt lat="68.447085991501808" lon="17.597091989591718">
        <ele>18.399999999999999</ele>
        <time>2017-06-27T14:23:55Z</time>
      </trkpt>
      <trkpt lat="68.447133013978601" lon="17.596640959382057">
        <ele>17.920000000000002</ele>
        <time>2017-06-27T14:23:56Z</time>
      </trkpt>
      <trkpt lat="68.447157992050052" lon="17.596166962757707">
        <ele>17.440000000000001</ele>
        <time>2017-06-27T14:23:57Z</time>
      </trkpt>
      <trkpt lat="68.447166038677096" lon="17.595685003325343">
        <ele>16.960000000000001</ele>
        <time>2017-06-27T14:23:58Z</time>
      </trkpt>
      <trkpt lat="68.447156986221671" lon="17.595187034457922">
        <ele>16.48</ele>
        <time>2017-06-27T14:23:59Z</time>
      </trkpt>
      <trkpt lat="68.447135025635362" lon="17.594669032841921">
        <ele>16</ele>
        <time>2017-06-27T14:24:00Z</time>
      </trkpt>
      <trkpt lat="68.446892034262419" lon="17.589142005890608">
        <ele>14.08</ele>
        <time>2017-06-27T14:24:10Z</time>
      </trkpt>
      <trkpt lat="68.446927992627025" lon="17.588605983182788">
        <ele>14.08</ele>
        <time>2017-06-27T14:24:11Z</time>
      </trkpt>
      <trkpt lat="68.44698297791183" lon="17.588071972131729">
        <ele>14.08</ele>
        <time>2017-06-27T14:24:12Z</time>
      </trkpt>
      <trkpt lat="68.447055984288454" lon="17.587546007707715">
        <ele>13.6</ele>
        <time>2017-06-27T14:24:13Z</time>
      </trkpt>
      <trkpt lat="68.447143994271755" lon="17.587017025798559">
        <ele>13.6</ele>
        <time>2017-06-27T14:24:14Z</time>
      </trkpt>
      <trkpt lat="68.447616985067725" lon="17.583160009235144">
        <ele>12.630000000000001</ele>
        <time>2017-06-27T14:24:21Z</time>
      </trkpt>
      <trkpt lat="68.447810020297766" lon="17.580443015322089">
        <ele>12.630000000000001</ele>
        <time>2017-06-27T14:24:26Z</time>
      </trkpt>
      <trkpt lat="68.447889983654022" lon="17.579964995384216">
        <ele>12.15</ele>
        <time>2017-06-27T14:24:27Z</time>
      </trkpt>
      <trkpt lat="68.447990985587239" lon="17.579498961567879">
        <ele>12.15</ele>
        <time>2017-06-27T14:24:28Z</time>
      </trkpt>
      <trkpt lat="68.448113026097417" lon="17.579068969935179">
        <ele>12.630000000000001</ele>
        <time>2017-06-27T14:24:29Z</time>
      </trkpt>
      <trkpt lat="68.44824998639524" lon="17.578664962202311">
        <ele>12.15</ele>
        <time>2017-06-27T14:24:30Z</time>
      </trkpt>
      <trkpt lat="68.448392981663346" lon="17.578263971954584">
        <ele>11.67</ele>
        <time>2017-06-27T14:24:31Z</time>
      </trkpt>
      <trkpt lat="68.448803024366498" lon="17.577015990391374">
        <ele>12.630000000000001</ele>
        <time>2017-06-27T14:24:34Z</time>
      </trkpt>
      <trkpt lat="68.448909977450967" lon="17.5765569973737">
        <ele>12.630000000000001</ele>
        <time>2017-06-27T14:24:35Z</time>
      </trkpt>
      <trkpt lat="68.448997987434268" lon="17.576059028506279">
        <ele>12.15</ele>
        <time>2017-06-27T14:24:36Z</time>
      </trkpt>
      <trkpt lat="68.449071999639273" lon="17.575518982484937">
        <ele>12.15</ele>
        <time>2017-06-27T14:24:37Z</time>
      </trkpt>
      <trkpt lat="68.449135031551123" lon="17.574962005019188">
        <ele>11.67</ele>
        <time>2017-06-27T14:24:38Z</time>
      </trkpt>
      <trkpt lat="68.449832992628217" lon="17.569889025762677">
        <ele>22.25</ele>
        <time>2017-06-27T14:24:47Z</time>
      </trkpt>
      <trkpt lat="68.451245008036494" lon="17.56426602602005">
        <ele>34.740000000000002</ele>
        <time>2017-06-27T14:24:59Z</time>
      </trkpt>
      <trkpt lat="68.451313991099596" lon="17.563807033002377">
        <ele>35.229999999999997</ele>
        <time>2017-06-27T14:25:00Z</time>
      </trkpt>
      <trkpt lat="68.45136696472764" lon="17.563337981700897">
        <ele>35.229999999999997</ele>
        <time>2017-06-27T14:25:01Z</time>
      </trkpt>
      <trkpt lat="68.451397977769375" lon="17.562860967591405">
        <ele>34.259999999999998</ele>
        <time>2017-06-27T14:25:02Z</time>
      </trkpt>
      <trkpt lat="68.45140996389091" lon="17.562373979017138">
        <ele>33.780000000000001</ele>
        <time>2017-06-27T14:25:03Z</time>
      </trkpt>
      <trkpt lat="68.451405018568039" lon="17.561887996271253">
        <ele>33.299999999999997</ele>
        <time>2017-06-27T14:25:04Z</time>
      </trkpt>
      <trkpt lat="68.451380962505937" lon="17.561405031010509">
        <ele>32.340000000000003</ele>
        <time>2017-06-27T14:25:05Z</time>
      </trkpt>
      <trkpt lat="68.451338969171047" lon="17.560908989980817">
        <ele>31.379999999999999</ele>
        <time>2017-06-27T14:25:06Z</time>
      </trkpt>
      <trkpt lat="68.451279038563371" lon="17.560393000021577">
        <ele>30.899999999999999</ele>
        <time>2017-06-27T14:25:07Z</time>
      </trkpt>
      <trkpt lat="68.451211983337998" lon="17.559895031154156">
        <ele>30.420000000000002</ele>
        <time>2017-06-27T14:25:08Z</time>
      </trkpt>
      <trkpt lat="68.450863966718316" lon="17.556584011763334">
        <ele>24.649999999999999</ele>
        <time>2017-06-27T14:25:15Z</time>
      </trkpt>
      <trkpt lat="68.450865978375077" lon="17.556130969896913">
        <ele>24.170000000000002</ele>
        <time>2017-06-27T14:25:16Z</time>
      </trkpt>
      <trkpt lat="68.450882993638515" lon="17.555692009627819">
        <ele>22.73</ele>
        <time>2017-06-27T14:25:17Z</time>
      </trkpt>
      <trkpt lat="68.450918029993773" lon="17.555276015773416">
        <ele>21.289999999999999</ele>
        <time>2017-06-27T14:25:18Z</time>
      </trkpt>
      <trkpt lat="68.450968991965055" lon="17.554871002212167">
        <ele>20.32</ele>
        <time>2017-06-27T14:25:19Z</time>
      </trkpt>
      <trkpt lat="68.451032023876905" lon="17.554466994479299">
        <ele>19.359999999999999</ele>
        <time>2017-06-27T14:25:20Z</time>
      </trkpt>
      <trkpt lat="68.451119028031826" lon="17.554089976474643">
        <ele>17.920000000000002</ele>
        <time>2017-06-27T14:25:21Z</time>
      </trkpt>
      <trkpt lat="68.451222963631153" lon="17.553745983168483">
        <ele>16.48</ele>
        <time>2017-06-27T14:25:22Z</time>
      </trkpt>
      <trkpt lat="68.451337963342667" lon="17.55346099846065">
        <ele>13.6</ele>
        <time>2017-06-27T14:25:23Z</time>
      </trkpt>
      <trkpt lat="68.45147299580276" lon="17.55320199765265">
        <ele>11.67</ele>
        <time>2017-06-27T14:25:24Z</time>
      </trkpt>
      <trkpt lat="68.451636023819447" lon="17.552993958815932">
        <ele>12.15</ele>
        <time>2017-06-27T14:25:25Z</time>
      </trkpt>
      <trkpt lat="68.451811959967017" lon="17.552846018224955">
        <ele>12.630000000000001</ele>
        <time>2017-06-27T14:25:26Z</time>
      </trkpt>
      <trkpt lat="68.451998038217425" lon="17.552728001028299">
        <ele>13.119999999999999</ele>
        <time>2017-06-27T14:25:27Z</time>
      </trkpt>
      <trkpt lat="68.452502964064479" lon="17.552308989688754">
        <ele>15.039999999999999</ele>
        <time>2017-06-27T14:25:30Z</time>
      </trkpt>
      <trkpt lat="68.452646965160966" lon="17.552074966952205">
        <ele>16</ele>
        <time>2017-06-27T14:25:31Z</time>
      </trkpt>
      <trkpt lat="68.452776968479156" lon="17.551784031093121">
        <ele>16.960000000000001</ele>
        <time>2017-06-27T14:25:32Z</time>
      </trkpt>
      <trkpt lat="68.45288903452456" lon="17.551446994766593">
        <ele>17.440000000000001</ele>
        <time>2017-06-27T14:25:33Z</time>
      </trkpt>
      <trkpt lat="68.452987018972635" lon="17.551079029217362">
        <ele>17.920000000000002</ele>
        <time>2017-06-27T14:25:34Z</time>
      </trkpt>
      <trkpt lat="68.453071005642414" lon="17.550679966807365">
        <ele>18.399999999999999</ele>
        <time>2017-06-27T14:25:35Z</time>
      </trkpt>
      <trkpt lat="68.453143006190658" lon="17.550255004316568">
        <ele>18.399999999999999</ele>
        <time>2017-06-27T14:25:36Z</time>
      </trkpt>
      <trkpt lat="68.453207965940237" lon="17.549810009077191">
        <ele>18.879999999999999</ele>
        <time>2017-06-27T14:25:37Z</time>
      </trkpt>
      <trkpt lat="68.453570986166596" lon="17.547556031495333">
        <ele>16.960000000000001</ele>
        <time>2017-06-27T14:25:42Z</time>
      </trkpt>
      <trkpt lat="68.453670982271433" lon="17.547150012105703">
        <ele>16.48</ele>
        <time>2017-06-27T14:25:43Z</time>
      </trkpt>
      <trkpt lat="68.454304989427328" lon="17.544885976240039">
        <ele>15.039999999999999</ele>
        <time>2017-06-27T14:25:49Z</time>
      </trkpt>
      <trkpt lat="68.454359974712133" lon="17.544496972113848">
        <ele>15.039999999999999</ele>
        <time>2017-06-27T14:25:50Z</time>
      </trkpt>
      <trkpt lat="68.454400040209293" lon="17.544091958552599">
        <ele>15.52</ele>
        <time>2017-06-27T14:25:51Z</time>
      </trkpt>
      <trkpt lat="68.454420994967222" lon="17.543692979961634">
        <ele>16</ele>
        <time>2017-06-27T14:25:52Z</time>
      </trkpt>
      <trkpt lat="68.454431975260377" lon="17.543316967785358">
        <ele>16.960000000000001</ele>
        <time>2017-06-27T14:25:53Z</time>
      </trkpt>
      <trkpt lat="68.454424012452364" lon="17.542936010286212">
        <ele>17.440000000000001</ele>
        <time>2017-06-27T14:25:54Z</time>
      </trkpt>
      <trkpt lat="68.454412026330829" lon="17.542536025866866">
        <ele>20.809999999999999</ele>
        <time>2017-06-27T14:25:55Z</time>
      </trkpt>
      <trkpt lat="68.45437397249043" lon="17.542127994820476">
        <ele>22.25</ele>
        <time>2017-06-27T14:25:56Z</time>
      </trkpt>
      <trkpt lat="68.454325022175908" lon="17.541733039543033">
        <ele>22.73</ele>
        <time>2017-06-27T14:25:57Z</time>
      </trkpt>
      <trkpt lat="68.4542650077492" lon="17.541335988789797">
        <ele>23.210000000000001</ele>
        <time>2017-06-27T14:25:58Z</time>
      </trkpt>
      <trkpt lat="68.453910034149885" lon="17.537880968302488">
        <ele>32.82</ele>
        <time>2017-06-27T14:26:06Z</time>
      </trkpt>
      <trkpt lat="68.454081024974585" lon="17.533881040289998">
        <ele>33.780000000000001</ele>
        <time>2017-06-27T14:26:15Z</time>
      </trkpt>
      <trkpt lat="68.454173980280757" lon="17.530968999490142">
        <ele>29.940000000000001</ele>
        <time>2017-06-27T14:26:22Z</time>
      </trkpt>
      <trkpt lat="68.454149002209306" lon="17.530605979263783">
        <ele>29.940000000000001</ele>
        <time>2017-06-27T14:26:23Z</time>
      </trkpt>
      <trkpt lat="68.454106003046036" lon="17.530241031199694">
        <ele>29.460000000000001</ele>
        <time>2017-06-27T14:26:24Z</time>
      </trkpt>
      <trkpt lat="68.45405101776123" lon="17.529882034286857">
        <ele>29.460000000000001</ele>
        <time>2017-06-27T14:26:25Z</time>
      </trkpt>
      <trkpt lat="68.453980023041368" lon="17.529538040980697">
        <ele>29.460000000000001</ele>
        <time>2017-06-27T14:26:26Z</time>
      </trkpt>
      <trkpt lat="68.453899975866079" lon="17.529193963855505">
        <ele>28.98</ele>
        <time>2017-06-27T14:26:27Z</time>
      </trkpt>
      <trkpt lat="68.453815989196301" lon="17.528864974156022">
        <ele>28.5</ele>
        <time>2017-06-27T14:26:28Z</time>
      </trkpt>
      <trkpt lat="68.453542990610003" lon="17.527469974011183">
        <ele>27.530000000000001</ele>
        <time>2017-06-27T14:26:32Z</time>
      </trkpt>
      <trkpt lat="68.453509965911508" lon="17.527095973491669">
        <ele>27.050000000000001</ele>
        <time>2017-06-27T14:26:33Z</time>
      </trkpt>
      <trkpt lat="68.453490016981959" lon="17.526713004335761">
        <ele>27.050000000000001</ele>
        <time>2017-06-27T14:26:34Z</time>
      </trkpt>
      <trkpt lat="68.453433020040393" lon="17.524803020060062">
        <ele>27.050000000000001</ele>
        <time>2017-06-27T14:26:39Z</time>
      </trkpt>
      <trkpt lat="68.453397983685136" lon="17.524439999833703">
        <ele>27.530000000000001</ele>
        <time>2017-06-27T14:26:40Z</time>
      </trkpt>
      <trkpt lat="68.453347021713853" lon="17.524071028456092">
        <ele>28.5</ele>
        <time>2017-06-27T14:26:41Z</time>
      </trkpt>
      <trkpt lat="68.453277032822371" lon="17.523705996572971">
        <ele>28.98</ele>
        <time>2017-06-27T14:26:42Z</time>
      </trkpt>
      <trkpt lat="68.453195979818702" lon="17.523365020751953">
        <ele>28.98</ele>
        <time>2017-06-27T14:26:43Z</time>
      </trkpt>
      <trkpt lat="68.453100007027388" lon="17.523062014952302">
        <ele>28.98</ele>
        <time>2017-06-27T14:26:44Z</time>
      </trkpt>
      <trkpt lat="68.452984001487494" lon="17.522795973345637">
        <ele>27.530000000000001</ele>
        <time>2017-06-27T14:26:45Z</time>
      </trkpt>
      <trkpt lat="68.452863972634077" lon="17.522554993629456">
        <ele>27.050000000000001</ele>
        <time>2017-06-27T14:26:46Z</time>
      </trkpt>
      <trkpt lat="68.452732963487506" lon="17.522345026955009">
        <ele>26.57</ele>
        <time>2017-06-27T14:26:47Z</time>
      </trkpt>
      <trkpt lat="68.452598014846444" lon="17.52215601503849">
        <ele>25.609999999999999</ele>
        <time>2017-06-27T14:26:48Z</time>
      </trkpt>
      <trkpt lat="68.451435025781393" lon="17.520560016855597">
        <ele>17.920000000000002</ele>
        <time>2017-06-27T14:26:56Z</time>
      </trkpt>
      <trkpt lat="68.451308961957693" lon="17.520277965813875">
        <ele>16.960000000000001</ele>
        <time>2017-06-27T14:26:57Z</time>
      </trkpt>
      <trkpt lat="68.451197985559702" lon="17.519962973892689">
        <ele>15.52</ele>
        <time>2017-06-27T14:26:58Z</time>
      </trkpt>
      <trkpt lat="68.451101006940007" lon="17.51960095949471">
        <ele>14.56</ele>
        <time>2017-06-27T14:26:59Z</time>
      </trkpt>
      <trkpt lat="68.45101903192699" lon="17.519212039187551">
        <ele>13.119999999999999</ele>
        <time>2017-06-27T14:27:00Z</time>
      </trkpt>
      <trkpt lat="68.450948959216475" lon="17.518782969564199">
        <ele>12.630000000000001</ele>
        <time>2017-06-27T14:27:01Z</time>
      </trkpt>
      <trkpt lat="68.450901014730334" lon="17.518367981538177">
        <ele>11.67</ele>
        <time>2017-06-27T14:27:02Z</time>
      </trkpt>
      <trkpt lat="68.450866984203458" lon="17.517906976863742">
        <ele>11.19</ele>
        <time>2017-06-27T14:27:03Z</time>
      </trkpt>
      <trkpt lat="68.45084996894002" lon="17.517440021038055">
        <ele>10.710000000000001</ele>
        <time>2017-06-27T14:27:04Z</time>
      </trkpt>
      <trkpt lat="68.450851980596781" lon="17.516975998878479">
        <ele>10.710000000000001</ele>
        <time>2017-06-27T14:27:05Z</time>
      </trkpt>
      <trkpt lat="68.450872013345361" lon="17.516508037224412">
        <ele>11.19</ele>
        <time>2017-06-27T14:27:06Z</time>
      </trkpt>
      <trkpt lat="68.450905038043857" lon="17.516045020893216">
        <ele>11.19</ele>
        <time>2017-06-27T14:27:07Z</time>
      </trkpt>
      <trkpt lat="68.451457992196083" lon="17.511144038289785">
        <ele>17.920000000000002</ele>
        <time>2017-06-27T14:27:17Z</time>
      </trkpt>
      <trkpt lat="68.452112032100558" lon="17.506322013214231">
        <ele>18.399999999999999</ele>
        <time>2017-06-27T14:27:27Z</time>
      </trkpt>
      <trkpt lat="68.452210016548634" lon="17.505884980782866">
        <ele>18.399999999999999</ele>
        <time>2017-06-27T14:27:28Z</time>
      </trkpt>
      <trkpt lat="68.452321998775005" lon="17.505469992756844">
        <ele>18.399999999999999</ele>
        <time>2017-06-27T14:27:29Z</time>
      </trkpt>
      <trkpt lat="68.453029012307525" lon="17.50282097607851">
        <ele>16.48</ele>
        <time>2017-06-27T14:27:36Z</time>
      </trkpt>
      <trkpt lat="68.453081985935569" lon="17.502457033842802">
        <ele>16.48</ele>
        <time>2017-06-27T14:27:37Z</time>
      </trkpt>
      <trkpt lat="68.453151974827051" lon="17.501700986176729">
        <ele>16</ele>
        <time>2017-06-27T14:27:39Z</time>
      </trkpt>
      <trkpt lat="68.453163038939238" lon="17.501307036727667">
        <ele>16</ele>
        <time>2017-06-27T14:27:40Z</time>
      </trkpt>
      <trkpt lat="68.453163960948586" lon="17.500910991802812">
        <ele>16</ele>
        <time>2017-06-27T14:27:41Z</time>
      </trkpt>
      <trkpt lat="68.453031023964286" lon="17.49557800590992">
        <ele>12.630000000000001</ele>
        <time>2017-06-27T14:27:53Z</time>
      </trkpt>
      <trkpt lat="68.452691975980997" lon="17.49188301153481">
        <ele>10.23</ele>
        <time>2017-06-27T14:28:02Z</time>
      </trkpt>
      <trkpt lat="68.452594997361302" lon="17.490494968369603">
        <ele>10.23</ele>
        <time>2017-06-27T14:28:06Z</time>
      </trkpt>
      <trkpt lat="68.452597009018064" lon="17.490133037790656">
        <ele>10.23</ele>
        <time>2017-06-27T14:28:07Z</time>
      </trkpt>
      <trkpt lat="68.452614024281502" lon="17.48975501395762">
        <ele>10.710000000000001</ele>
        <time>2017-06-27T14:28:08Z</time>
      </trkpt>
      <trkpt lat="68.452645959332585" lon="17.48936902731657">
        <ele>11.19</ele>
        <time>2017-06-27T14:28:09Z</time>
      </trkpt>
      <trkpt lat="68.452693987637758" lon="17.488998966291547">
        <ele>11.19</ele>
        <time>2017-06-27T14:28:10Z</time>
      </trkpt>
      <trkpt lat="68.452755007892847" lon="17.488648016005754">
        <ele>11.67</ele>
        <time>2017-06-27T14:28:11Z</time>
      </trkpt>
      <trkpt lat="68.452820973470807" lon="17.488310979679227">
        <ele>12.15</ele>
        <time>2017-06-27T14:28:12Z</time>
      </trkpt>
      <trkpt lat="68.45288903452456" lon="17.48799498192966">
        <ele>12.630000000000001</ele>
        <time>2017-06-27T14:28:13Z</time>
      </trkpt>
      <trkpt lat="68.453203020617366" lon="17.485887017101049">
        <ele>15.52</ele>
        <time>2017-06-27T14:28:21Z</time>
      </trkpt>
      <trkpt lat="68.453214000910521" lon="17.484049033373594">
        <ele>12.15</ele>
        <time>2017-06-27T14:28:32Z</time>
      </trkpt>
      <trkpt lat="68.453201008960605" lon="17.481983983889222">
        <ele>9.75</ele>
        <time>2017-06-27T14:28:45Z</time>
      </trkpt>
      <trkpt lat="68.453187011182308" lon="17.479988001286983">
        <ele>10.23</ele>
        <time>2017-06-27T14:28:56Z</time>
      </trkpt>
      <trkpt lat="68.453107969835401" lon="17.477823961526155">
        <ele>12.630000000000001</ele>
        <time>2017-06-27T14:29:06Z</time>
      </trkpt>
      <trkpt lat="68.452601032331586" lon="17.475207969546318">
        <ele>16.48</ele>
        <time>2017-06-27T14:29:14Z</time>
      </trkpt>
      <trkpt lat="68.451425973325968" lon="17.471178034320474">
        <ele>24.649999999999999</ele>
        <time>2017-06-27T14:29:25Z</time>
      </trkpt>
      <trkpt lat="68.450521985068917" lon="17.466945005580783">
        <ele>39.549999999999997</ele>
        <time>2017-06-27T14:29:35Z</time>
      </trkpt>
      <trkpt lat="68.449864005669951" lon="17.462919009849429">
        <ele>51.57</ele>
        <time>2017-06-27T14:29:45Z</time>
      </trkpt>
      <trkpt lat="68.449276015162468" lon="17.460433021187782">
        <ele>56.859999999999999</ele>
        <time>2017-06-27T14:29:54Z</time>
      </trkpt>
      <trkpt lat="68.448565984144807" lon="17.458651028573513">
        <ele>51.090000000000003</ele>
        <time>2017-06-27T14:30:03Z</time>
      </trkpt>
      <trkpt lat="68.448498006910086" lon="17.458408959209919">
        <ele>50.609999999999999</ele>
        <time>2017-06-27T14:30:04Z</time>
      </trkpt>
      <trkpt lat="68.448434974998236" lon="17.45814903639257">
        <ele>49.649999999999999</ele>
        <time>2017-06-27T14:30:05Z</time>
      </trkpt>
      <trkpt lat="68.448386024683714" lon="17.457864973694086">
        <ele>48.68</ele>
        <time>2017-06-27T14:30:06Z</time>
      </trkpt>
      <trkpt lat="68.448345959186554" lon="17.457576971501112">
        <ele>48.200000000000003</ele>
        <time>2017-06-27T14:30:07Z</time>
      </trkpt>
      <trkpt lat="68.448317963629961" lon="17.45729299262166">
        <ele>47.719999999999999</ele>
        <time>2017-06-27T14:30:08Z</time>
      </trkpt>
      <trkpt lat="68.448294997215271" lon="17.457032985985279">
        <ele>47.240000000000002</ele>
        <time>2017-06-27T14:30:09Z</time>
      </trkpt>
      <trkpt lat="68.448248980566859" lon="17.456636019051075">
        <ele>46.280000000000001</ele>
        <time>2017-06-27T14:30:11Z</time>
      </trkpt>
      <trkpt lat="68.448215033859015" lon="17.456523030996323">
        <ele>46.280000000000001</ele>
        <time>2017-06-27T14:30:12Z</time>
      </trkpt>
      <trkpt lat="68.448173962533474" lon="17.456444995477796">
        <ele>46.280000000000001</ele>
        <time>2017-06-27T14:30:13Z</time>
      </trkpt>
      <trkpt lat="68.44812199473381" lon="17.456423034891486">
        <ele>45.799999999999997</ele>
        <time>2017-06-27T14:30:14Z</time>
      </trkpt>
      <trkpt lat="68.44807798974216" lon="17.45643300935626">
        <ele>45.32</ele>
        <time>2017-06-27T14:30:15Z</time>
      </trkpt>
      <trkpt lat="68.448040019720793" lon="17.456483971327543">
        <ele>45.32</ele>
        <time>2017-06-27T14:30:16Z</time>
      </trkpt>
      <trkpt lat="68.448004983365536" lon="17.456539962440729">
        <ele>45.32</ele>
        <time>2017-06-27T14:30:17Z</time>
      </trkpt>
      <trkpt lat="68.447968019172549" lon="17.456614980474114">
        <ele>44.840000000000003</ele>
        <time>2017-06-27T14:30:18Z</time>
      </trkpt>
      <trkpt lat="68.447928037494421" lon="17.456698967143893">
        <ele>44.840000000000003</ele>
        <time>2017-06-27T14:30:19Z</time>
      </trkpt>
      <trkpt lat="68.447876991704106" lon="17.456786977127194">
        <ele>44.840000000000003</ele>
        <time>2017-06-27T14:30:20Z</time>
      </trkpt>
      <trkpt lat="68.447822006419301" lon="17.456838022917509">
        <ele>44.359999999999999</ele>
        <time>2017-06-27T14:30:21Z</time>
      </trkpt>
      <trkpt lat="68.447764003649354" lon="17.456859983503819">
        <ele>43.880000000000003</ele>
        <time>2017-06-27T14:30:22Z</time>
      </trkpt>
      <trkpt lat="68.447694014757872" lon="17.456847997382283">
        <ele>43.880000000000003</ele>
        <time>2017-06-27T14:30:23Z</time>
      </trkpt>
      <trkpt lat="68.447623020038009" lon="17.456795023754239">
        <ele>43.399999999999999</ele>
        <time>2017-06-27T14:30:24Z</time>
      </trkpt>
      <trkpt lat="68.44754297286272" lon="17.456724029034376">
        <ele>42.920000000000002</ele>
        <time>2017-06-27T14:30:25Z</time>
      </trkpt>
      <trkpt lat="68.446462964639068" lon="17.455542013049126">
        <ele>40.030000000000001</ele>
        <time>2017-06-27T14:30:36Z</time>
      </trkpt>
      <trkpt lat="68.444606959819794" lon="17.452589990571141">
        <ele>33.780000000000001</ele>
        <time>2017-06-27T14:30:54Z</time>
      </trkpt>
      <trkpt lat="68.443583026528358" lon="17.44985899887979">
        <ele>30.899999999999999</ele>
        <time>2017-06-27T14:31:05Z</time>
      </trkpt>
      <trkpt lat="68.442958993837237" lon="17.446831036359072">
        <ele>30.420000000000002</ele>
        <time>2017-06-27T14:31:15Z</time>
      </trkpt>
      <trkpt lat="68.442632015794516" lon="17.444287966936827">
        <ele>31.859999999999999</ele>
        <time>2017-06-27T14:31:25Z</time>
      </trkpt>
      <trkpt lat="68.442615000531077" lon="17.443384984508157">
        <ele>31.859999999999999</ele>
        <time>2017-06-27T14:31:36Z</time>
      </trkpt>
      <trkpt lat="68.44268498942256" lon="17.441922007128596">
        <ele>34.740000000000002</ele>
        <time>2017-06-27T14:31:46Z</time>
      </trkpt>
      <trkpt lat="68.44290099106729" lon="17.439730977639556">
        <ele>40.990000000000002</ele>
        <time>2017-06-27T14:31:56Z</time>
      </trkpt>
      <trkpt lat="68.44296301715076" lon="17.439174000173807">
        <ele>42.920000000000002</ele>
        <time>2017-06-27T14:31:58Z</time>
      </trkpt>
      <trkpt lat="68.44298698939383" lon="17.438644012436271">
        <ele>44.840000000000003</ele>
        <time>2017-06-27T14:32:00Z</time>
      </trkpt>
      <trkpt lat="68.44298698939383" lon="17.438417030498385">
        <ele>45.32</ele>
        <time>2017-06-27T14:32:01Z</time>
      </trkpt>
      <trkpt lat="68.442979026585817" lon="17.438193988054991">
        <ele>46.280000000000001</ele>
        <time>2017-06-27T14:32:02Z</time>
      </trkpt>
      <trkpt lat="68.442959999665618" lon="17.437961976975203">
        <ele>46.759999999999998</ele>
        <time>2017-06-27T14:32:03Z</time>
      </trkpt>
      <trkpt lat="68.442932004109025" lon="17.437742035835981">
        <ele>47.719999999999999</ele>
        <time>2017-06-27T14:32:04Z</time>
      </trkpt>
      <trkpt lat="68.442890010774136" lon="17.437531985342503">
        <ele>47.719999999999999</ele>
        <time>2017-06-27T14:32:05Z</time>
      </trkpt>
      <trkpt lat="68.442839970812201" lon="17.43733299896121">
        <ele>48.200000000000003</ele>
        <time>2017-06-27T14:32:06Z</time>
      </trkpt>
      <trkpt lat="68.442776016891003" lon="17.437156978994608">
        <ele>48.200000000000003</ele>
        <time>2017-06-27T14:32:07Z</time>
      </trkpt>
      <trkpt lat="68.442722959443927" lon="17.437001997604966">
        <ele>48.68</ele>
        <time>2017-06-27T14:32:08Z</time>
      </trkpt>
      <trkpt lat="68.442677026614547" lon="17.43688004091382">
        <ele>49.159999999999997</ele>
        <time>2017-06-27T14:32:09Z</time>
      </trkpt>
      <trkpt lat="68.442633021622896" lon="17.436777027323842">
        <ele>49.159999999999997</ele>
        <time>2017-06-27T14:32:10Z</time>
      </trkpt>
      <trkpt lat="68.442596979439259" lon="17.436669990420341">
        <ele>49.649999999999999</ele>
        <time>2017-06-27T14:32:11Z</time>
      </trkpt>
      <trkpt lat="68.442567978054285" lon="17.436531018465757">
        <ele>49.649999999999999</ele>
        <time>2017-06-27T14:32:12Z</time>
      </trkpt>
      <trkpt lat="68.442545011639595" lon="17.436360027641058">
        <ele>49.649999999999999</ele>
        <time>2017-06-27T14:32:13Z</time>
      </trkpt>
      <trkpt lat="68.442535037174821" lon="17.43615198880434">
        <ele>48.68</ele>
        <time>2017-06-27T14:32:14Z</time>
      </trkpt>
      <trkpt lat="68.442531013861299" lon="17.43591302074492">
        <ele>48.200000000000003</ele>
        <time>2017-06-27T14:32:15Z</time>
      </trkpt>
      <trkpt lat="68.442530008032918" lon="17.435644967481494">
        <ele>47.240000000000002</ele>
        <time>2017-06-27T14:32:16Z</time>
      </trkpt>
      <trkpt lat="68.442489020526409" lon="17.432564031332731">
        <ele>38.109999999999999</ele>
        <time>2017-06-27T14:32:27Z</time>
      </trkpt>
      <trkpt lat="68.442459013313055" lon="17.432307964190841">
        <ele>37.630000000000003</ele>
        <time>2017-06-27T14:32:28Z</time>
      </trkpt>
      <trkpt lat="68.441836992278695" lon="17.429069029167295">
        <ele>35.710000000000001</ele>
        <time>2017-06-27T14:32:42Z</time>
      </trkpt>
      <trkpt lat="68.441027970984578" lon="17.425963031128049">
        <ele>40.990000000000002</ele>
        <time>2017-06-27T14:32:56Z</time>
      </trkpt>
      <trkpt lat="68.440631004050374" lon="17.424449007958174">
        <ele>46.759999999999998</ele>
        <time>2017-06-27T14:33:04Z</time>
      </trkpt>
      <trkpt lat="68.440618012100458" lon="17.424336019903421">
        <ele>47.719999999999999</ele>
        <time>2017-06-27T14:33:05Z</time>
      </trkpt>
      <trkpt lat="68.440513992682099" lon="17.423974005505443">
        <ele>45.799999999999997</ele>
        <time>2017-06-27T14:33:14Z</time>
      </trkpt>
      <trkpt lat="68.440462024882436" lon="17.423934023827314">
        <ele>45.32</ele>
        <time>2017-06-27T14:33:20Z</time>
      </trkpt>
      <trkpt lat="68.440625974908471" lon="17.42465696297586">
        <ele>44.840000000000003</ele>
        <time>2017-06-27T14:33:28Z</time>
      </trkpt>
      <trkpt lat="68.440668974071741" lon="17.424772968515754">
        <ele>43.880000000000003</ele>
        <time>2017-06-27T14:33:30Z</time>
      </trkpt>
      <trkpt lat="68.440711973235011" lon="17.424787972122431">
        <ele>44.359999999999999</ele>
        <time>2017-06-27T14:33:31Z</time>
      </trkpt>
      <trkpt lat="68.44075296074152" lon="17.424761988222599">
        <ele>44.840000000000003</ele>
        <time>2017-06-27T14:33:32Z</time>
      </trkpt>
      <trkpt lat="68.440795037895441" lon="17.424725024029613">
        <ele>45.799999999999997</ele>
        <time>2017-06-27T14:33:33Z</time>
      </trkpt>
      <trkpt lat="68.440838037058711" lon="17.424661992117763">
        <ele>46.759999999999998</ele>
        <time>2017-06-27T14:33:34Z</time>
      </trkpt>
      <trkpt lat="68.44092596322298" lon="17.424509022384882">
        <ele>48.200000000000003</ele>
        <time>2017-06-27T14:33:36Z</time>
      </trkpt>
      <trkpt lat="68.441434996202588" lon="17.423396995291114">
        <ele>46.759999999999998</ele>
        <time>2017-06-27T14:33:50Z</time>
      </trkpt>
      <trkpt lat="68.441788963973522" lon="17.422605995088816">
        <ele>41.950000000000003</ele>
        <time>2017-06-27T14:34:01Z</time>
      </trkpt>
      <trkpt lat="68.441787958145142" lon="17.422498036175966">
        <ele>41.469999999999999</ele>
        <time>2017-06-27T14:34:02Z</time>
      </trkpt>
      <trkpt lat="68.441767003387213" lon="17.422373984009027">
        <ele>40.990000000000002</ele>
        <time>2017-06-27T14:34:03Z</time>
      </trkpt>
      <trkpt lat="68.441740013659" lon="17.422244986519217">
        <ele>40.990000000000002</ele>
        <time>2017-06-27T14:34:04Z</time>
      </trkpt>
      <trkpt lat="68.441707994788885" lon="17.422124035656452">
        <ele>40.990000000000002</ele>
        <time>2017-06-27T14:34:05Z</time>
      </trkpt>
      <trkpt lat="68.441174989566207" lon="17.420222014188766">
        <ele>49.159999999999997</ele>
        <time>2017-06-27T14:34:21Z</time>
      </trkpt>
      <trkpt lat="68.441134002059698" lon="17.420092010870576">
        <ele>50.130000000000003</ele>
        <time>2017-06-27T14:34:28Z</time>
      </trkpt>
      <trkpt lat="68.441169038414955" lon="17.420200975611806">
        <ele>54.450000000000003</ele>
        <time>2017-06-27T14:34:53Z</time>
      </trkpt>
      <trkpt lat="68.44118001870811" lon="17.420173985883594">
        <ele>54.450000000000003</ele>
        <time>2017-06-27T14:34:55Z</time>
      </trkpt>
      <trkpt lat="68.44120399095118" lon="17.420136015862226">
        <ele>54.450000000000003</ele>
        <time>2017-06-27T14:34:56Z</time>
      </trkpt>
      <trkpt lat="68.441317984834313" lon="17.419911967590451">
        <ele>56.369999999999997</ele>
        <time>2017-06-27T14:35:06Z</time>
      </trkpt>
    </trkseg>
  </trk>

</gpx>